
Distance (Route):
Temperature : 0°C
Humidity : 0%
Pressure : 0hPa| Receiver | Frames | First received | Last received |
|---|---|---|---|
| DO2JMG | 792 | 2026-08-30 23:05:30 | 2026-08-31 01:16:15 |
| BIOWL1-15 | 774 | 2026-08-30 22:46:23 | 2026-08-31 01:23:30 |
| DM0DOS-11 | 689 | 2026-08-30 22:47:04 | 2026-08-31 01:17:09 |
| DL1XH-west | 590 | 2026-08-30 23:05:33 | 2026-08-31 01:11:54 |
| HSKMA3-T | 470 | 2026-08-30 23:22:12 | 2026-08-31 01:08:40 |
| DL1XH1-15 | 404 | 2026-08-30 23:07:55 | 2026-08-31 01:11:44 |
| AA1-15 | 364 | 2026-08-30 23:29:28 | 2026-08-31 01:03:44 |
| DF8AY | 358 | 2026-08-30 23:34:30 | 2026-08-31 01:00:01 |
| DL1XH-15 | 332 | 2026-08-30 23:20:11 | 2026-08-31 01:07:56 |
| DL1NUX | 256 | 2026-08-30 23:29:50 | 2026-08-31 01:02:09 |
| DD8BA-10 | 219 | 2026-08-30 22:53:56 | 2026-08-31 01:15:22 |
| GOEST3-10 | 177 | 2026-08-30 23:24:24 | 2026-08-31 01:09:52 |
| DO3DL | 163 | 2026-08-30 22:45:21 | 2026-08-31 01:09:28 |
| DO2SHX-10 | 137 | 2026-08-30 23:42:27 | 2026-08-31 00:58:35 |
| DJ2DS-15 | 129 | 2026-08-30 22:55:28 | 2026-08-31 01:12:59 |
| DL3AQ-11 | 102 | 2026-08-30 23:13:48 | 2026-08-31 01:15:36 |
| DO9LL-15 | 95 | 2026-08-30 22:47:23 | 2026-08-31 01:12:18 |
| DH3RM | 71 | 2026-08-30 22:47:28 | 2026-08-30 23:35:22 |
| DB0UT-7 | 64 | 2026-08-30 22:51:04 | 2026-08-31 01:10:30 |
| DD1CC1-15 | 59 | 2026-08-30 22:47:52 | 2026-08-31 01:03:01 |
| DD1CC3-15 | 53 | 2026-08-30 22:47:24 | 2026-08-31 01:13:08 |
| DO1YAY-16 | 50 | 2026-08-30 22:48:57 | 2026-08-31 00:55:46 |
| DJ2KF-10 | 48 | 2026-08-30 22:52:36 | 2026-08-31 00:47:24 |
| DO2KSM | 46 | 2026-08-30 22:47:19 | 2026-08-31 00:33:32 |
| DL8DAS-15 | 45 | 2026-08-30 22:47:21 | 2026-08-31 00:57:25 |
| DL8DAS-14 | 41 | 2026-08-30 22:49:56 | 2026-08-31 01:04:55 |
| DL4BBY-15 | 40 | 2026-08-30 22:59:13 | 2026-08-31 01:16:36 |
| DD1CC2-15 | 40 | 2026-08-30 23:00:36 | 2026-08-31 01:12:04 |
| DL4XJ-10 | 38 | 2026-08-30 23:41:15 | 2026-08-31 01:10:18 |
| DD1CC8 | 37 | 2026-08-30 22:52:28 | 2026-08-31 01:11:40 |
| SONCRA | 37 | 2026-08-30 23:14:31 | 2026-08-31 01:10:33 |
| BIOWL9-15 | 36 | 2026-08-30 22:48:49 | 2026-08-31 01:04:26 |
| DB0NH | 35 | 2026-08-30 23:15:05 | 2026-08-31 00:45:55 |
| DK9SH | 34 | 2026-08-30 22:55:32 | 2026-08-31 01:12:19 |
| BUE01 | 34 | 2026-08-30 23:14:13 | 2026-08-31 01:16:58 |
| HTAHTA | 32 | 2026-08-30 22:59:40 | 2026-08-31 01:07:05 |
| DJ8HS-15 | 30 | 2026-08-30 23:47:20 | 2026-08-31 00:55:52 |
| DF8AY-15 | 27 | 2026-08-30 23:46:42 | 2026-08-31 00:52:50 |
| WPPR-10 | 24 | 2026-08-30 22:47:39 | 2026-08-30 23:28:02 |
| DL1ZP-14 | 23 | 2026-08-30 23:07:05 | 2026-08-31 01:02:04 |
| DO3MHA-11 | 23 | 2026-08-30 23:59:46 | 2026-08-31 00:21:08 |
| DB0ND-19 | 21 | 2026-08-30 23:11:33 | 2026-08-31 01:07:24 |
| SONDE2-11 | 21 | 2026-08-30 23:45:37 | 2026-08-31 00:58:05 |
| BIOWL7-15 | 20 | 2026-08-30 22:47:25 | 2026-08-31 01:11:46 |
| DJ3KS | 20 | 2026-08-30 23:00:16 | 2026-08-31 00:40:51 |
| DL1CLM-18 | 19 | 2026-08-30 23:03:36 | 2026-08-31 01:11:00 |
| DF7PN | 18 | 2026-08-30 23:49:05 | 2026-08-31 00:59:30 |
| EDDB2-11 | 16 | 2026-08-30 23:44:08 | 2026-08-31 01:00:11 |
| EDDB2-12 | 15 | 2026-08-30 23:48:55 | 2026-08-31 01:00:20 |
| DC4HF-4 | 14 | 2026-08-30 23:25:49 | 2026-08-31 01:03:46 |
| SO1NDE-10 | 11 | 2026-08-30 23:59:43 | 2026-08-31 01:00:07 |
| DL1LOL-11 | 10 | 2026-08-30 23:04:47 | 2026-08-31 01:08:37 |
| SMARD9-15 | 10 | 2026-08-31 00:03:40 | 2026-08-31 00:49:44 |
| NBG1-10 | 8 | 2026-08-30 23:16:17 | 2026-08-31 00:51:02 |
| DL1KLB | 6 | 2026-08-30 22:54:22 | 2026-08-30 22:59:30 |
| WEDDY | 5 | 2026-08-30 23:26:20 | 2026-08-30 23:36:29 |
| DF5WG-10 | 5 | 2026-08-30 23:41:29 | 2026-08-30 23:57:55 |
| SMARD9-10 | 5 | 2026-08-30 23:41:42 | 2026-08-31 00:05:46 |
| DO3MHA-12 | 4 | 2026-08-31 00:01:01 | 2026-08-31 00:20:53 |
| DL3OBA | 4 | 2026-08-31 00:01:14 | 2026-08-31 00:24:18 |
| DC6BW-12 | 2 | 2026-08-30 22:59:06 | 2026-08-30 23:05:13 |
| DO2LYB-13 | 2 | 2026-08-31 00:18:17 | 2026-08-31 00:40:52 |
| AM1SDL-15 | 2 | 2026-08-31 00:30:31 | 2026-08-31 00:32:48 |
| SP3BTT-10 | 2 | 2026-08-31 00:37:04 | 2026-08-31 00:41:26 |
| DJTTGO | 1 | 2026-08-31 00:26:25 | 2026-08-31 00:26:25 |
| Receiver | Date | Latitude | Longitude | Direction | Speed | Altitude | Climb | Temperature | Humidity | Pressure | Voltage | Killtimer | Uptime | BKT | XDATA |
|---|---|---|---|---|---|---|---|---|---|---|---|---|---|---|---|
| BIOWL1-15 | 2026-08-31 01:23:30 | 52.22454 | 8.48549 | 28° | 0km/h | 166m | -0.2m/s | 0°C | 0% | 0hPa | 2.8V | 18:12:15 | 03:05:38 | 00:00:00 | |
| BIOWL1-15 | 2026-08-31 01:17:10 | 52.22449 | 8.48549 | 3° | 13km/h | 183m | -6.4m/s | 15.7°C | 81.6% | 993.3hPa | 2.7V | 08:03:51 | 02:59:18 | 00:00:00 | |
| DM0DOS-11 | 2026-08-31 01:17:09 | 52.22442 | 8.48548 | 4° | 15km/h | 195m | -6.5m/s | 16°C | 84% | 991.7hPa | 2.7V | 08:03:05 | 02:59:16 | 00:00:00 | |
| DM0DOS-11 | 2026-08-31 01:17:09 | 52.22435 | 8.48546 | 6° | 18km/h | 209m | -7.2m/s | 16.8°C | 77% | 990.3hPa | 2.7V | 08:03:07 | 02:59:14 | 00:00:00 | |
| DM0DOS-11 | 2026-08-31 01:17:09 | 52.22425 | 8.48543 | 11° | 20km/h | 223m | -7.3m/s | 17°C | 75% | 988.5hPa | 2.6V | 08:03:09 | 02:59:12 | 00:00:00 | |
| BIOWL1-15 | 2026-08-31 01:17:08 | 52.22435 | 8.48546 | 6° | 18km/h | 209m | -7.2m/s | 16.8°C | 75.8% | 990.3hPa | 2.7V | 08:03:51 | 02:59:14 | 00:00:00 | |
| BIOWL1-15 | 2026-08-31 01:17:05 | 52.22409 | 8.48536 | 19° | 24km/h | 246m | -6.7m/s | 17.4°C | 72% | 985.9hPa | 2.7V | 08:03:51 | 02:59:09 | 00:00:00 | |
| DM0DOS-11 | 2026-08-31 01:17:03 | 52.22403 | 8.48533 | 19° | 26km/h | 252m | -7.1m/s | 17.6°C | 70.5% | 985.1hPa | 2.7V | 08:03:13 | 02:59:08 | 00:00:00 | |
| BIOWL1-15 | 2026-08-31 01:17:02 | 52.22403 | 8.48533 | 20° | 26km/h | 253m | -7.1m/s | 17.6°C | 70.8% | 985.1hPa | 2.7V | 08:03:51 | 02:59:08 | 00:00:00 | |
| BIOWL1-15 | 2026-08-31 01:16:58 | 52.22390 | 8.48524 | 23° | 31km/h | 266m | -6.8m/s | 18°C | 69% | 983.5hPa | 2.6V | 08:03:51 | 02:59:06 | 00:00:00 | |
| BUE01 | 2026-08-31 01:16:58 | 52.22383 | 8.48518 | 26° | 31km/h | 272m | -7.1m/s | 18.2°C | 66.1% | 982.6hPa | 2.7V | 00:00:00 | 00:00:00 | 00:00:00 | |
| DM0DOS-11 | 2026-08-31 01:16:57 | 52.22375 | 8.48513 | 24° | 33km/h | 279m | -7.3m/s | 18.3°C | 65.6% | 981.9hPa | 2.7V | 08:03:17 | 02:59:04 | 00:00:00 | |
| DM0DOS-11 | 2026-08-31 01:16:57 | 52.22360 | 8.48500 | 27° | 35km/h | 294m | -7.4m/s | 18.4°C | 64.9% | 980hPa | 2.7V | 08:03:19 | 02:59:02 | 00:00:00 | |
| BIOWL1-15 | 2026-08-31 01:16:56 | 52.22376 | 8.48513 | 25° | 33km/h | 280m | -7.3m/s | 18.3°C | 68% | 981.9hPa | 2.7V | 08:03:51 | 02:59:04 | 00:00:00 | |
| BIOWL1-15 | 2026-08-31 01:16:55 | 52.22368 | 8.48507 | 26° | 33km/h | 287m | -7.4m/s | 18.3°C | 67.9% | 980.8hPa | 2.7V | 08:03:51 | 02:59:03 | 00:00:00 | |
| BIOWL1-15 | 2026-08-31 01:16:54 | 52.22360 | 8.48500 | 27° | 35km/h | 294m | -7.4m/s | 18.4°C | 67.8% | 980hPa | 2.7V | 08:03:51 | 02:59:02 | 00:00:00 | |
| BIOWL1-15 | 2026-08-31 01:16:53 | 52.22313 | 8.48456 | 32° | 38km/h | 338m | -7.6m/s | 18.7°C | 66.7% | 975.2hPa | 2.7V | 08:03:51 | 02:58:56 | 00:00:00 | |
| DM0DOS-11 | 2026-08-31 01:16:52 | 52.22313 | 8.48456 | 32° | 38km/h | 338m | -7.6m/s | 18.7°C | 62.6% | 975.1hPa | 2.7V | 08:03:25 | 02:58:56 | 00:00:00 | |
| BIOWL1-15 | 2026-08-31 01:16:51 | 52.22304 | 8.48448 | 33° | 37km/h | 346m | -8m/s | 18.7°C | 66.4% | 974.1hPa | 2.7V | 08:03:51 | 02:58:55 | 00:00:00 | |
| DM0DOS-11 | 2026-08-31 01:16:47 | 52.22280 | 8.48422 | 33° | 40km/h | 369m | -8.4m/s | 18.8°C | 61.8% | 971.6hPa | 2.7V | 08:03:29 | 02:58:52 | 00:00:00 | |
| DM0DOS-11 | 2026-08-31 01:16:47 | 52.22263 | 8.48404 | 33° | 40km/h | 385m | -8m/s | 18.7°C | 62.2% | 969.7hPa | 2.7V | 08:03:31 | 02:58:50 | 00:00:00 | |
| BIOWL1-15 | 2026-08-31 01:16:45 | 52.22271 | 8.48413 | 33° | 38km/h | 377m | -8.1m/s | 18.8°C | 66.3% | 970.7hPa | 2.7V | 08:03:51 | 02:58:51 | 00:00:00 | |
| BIOWL1-15 | 2026-08-31 01:16:42 | 52.22263 | 8.48404 | 34° | 40km/h | 385m | -8m/s | 18.7°C | 66.7% | 969.7hPa | 2.7V | 08:03:51 | 02:58:50 | 00:00:00 | |
| DM0DOS-11 | 2026-08-31 01:16:41 | 52.22231 | 8.48368 | 36° | 37km/h | 418m | -8.1m/s | 18.5°C | 63.1% | 966.3hPa | 2.7V | 08:03:35 | 02:58:46 | 00:00:00 | |
| BIOWL1-15 | 2026-08-31 01:16:40 | 52.22231 | 8.48368 | 37° | 37km/h | 418m | -8.1m/s | 18.5°C | 68.4% | 966.3hPa | 2.7V | 08:03:51 | 02:58:46 | 00:00:00 | |
| BIOWL1-15 | 2026-08-31 01:16:39 | 52.22223 | 8.48359 | 34° | 37km/h | 427m | -7.9m/s | 18.4°C | 69% | 965.3hPa | 2.7V | 08:03:51 | 02:58:45 | 00:00:00 | |
| BIOWL1-15 | 2026-08-31 01:16:38 | 52.22215 | 8.48351 | 34° | 38km/h | 435m | -8.6m/s | 18.4°C | 69.5% | 964.6hPa | 2.7V | 08:03:51 | 02:58:44 | 00:00:00 | |
| BIOWL1-15 | 2026-08-31 01:16:37 | 52.22208 | 8.48342 | 37° | 37km/h | 443m | -8.6m/s | 18.3°C | 69.7% | 963.4hPa | 2.7V | 08:03:51 | 02:58:43 | 00:00:00 | |
| DL4BBY-15 | 2026-08-31 01:16:36 | 52.22215 | 8.48351 | 35° | 37km/h | 435m | -8.5m/s | 15.4°C | 0% | 0hPa | 2.7V | 00:00:00 | 00:00:00 | 00:00:00 | |
| DM0DOS-11 | 2026-08-31 01:16:35 | 52.22186 | 8.48314 | 38° | 37km/h | 469m | -9.5m/s | 18.1°C | 64.7% | 960.5hPa | 2.7V | 08:03:41 | 02:58:40 | 00:00:00 | |
| BIOWL1-15 | 2026-08-31 01:16:34 | 52.22201 | 8.48332 | 39° | 37km/h | 452m | -8.2m/s | 18.2°C | 70.1% | 962.4hPa | 2.7V | 08:03:51 | 02:58:42 | 00:00:00 | |
| BIOWL1-15 | 2026-08-31 01:16:32 | 52.22186 | 8.48314 | 39° | 37km/h | 469m | -9.5m/s | 18.1°C | 70.9% | 960.5hPa | 2.7V | 08:03:51 | 02:58:40 | 00:00:00 | |
| BIOWL1-15 | 2026-08-31 01:16:31 | 52.22179 | 8.48304 | 41° | 37km/h | 479m | -9.2m/s | 18°C | 71.1% | 959.7hPa | 2.6V | 08:03:51 | 02:58:39 | 00:00:00 | |
| BIOWL1-15 | 2026-08-31 01:16:29 | 52.22137 | 8.48245 | 41° | 37km/h | 526m | -7.2m/s | 17.6°C | 71.4% | 954.3hPa | 2.7V | 08:03:51 | 02:58:33 | 00:00:00 | |
| DL4BBY-15 | 2026-08-31 01:16:28 | 52.22157 | 8.48274 | 41° | 37km/h | 504m | -7.3m/s | 14.8°C | 0% | 0hPa | 2.7V | 00:00:00 | 00:00:00 | 00:00:00 | |
| BIOWL1-15 | 2026-08-31 01:16:28 | 52.22129 | 8.48235 | 40° | 37km/h | 533m | -7.1m/s | 17.5°C | 71.6% | 953.4hPa | 2.6V | 08:03:51 | 02:58:32 | 00:00:00 | |
| BUE01 | 2026-08-31 01:16:27 | 52.22151 | 8.48264 | 40° | 37km/h | 511m | -7.5m/s | 17.7°C | 65.6% | 955.8hPa | 2.7V | 00:00:00 | 00:00:00 | 00:00:00 | |
| DM0DOS-11 | 2026-08-31 01:16:24 | 52.22115 | 8.48215 | 40° | 37km/h | 547m | -6.5m/s | 17.4°C | 67.2% | 951.7hPa | 2.7V | 08:03:51 | 02:58:30 | 00:00:00 | |
| BIOWL1-15 | 2026-08-31 01:16:22 | 52.22108 | 8.48206 | 40° | 37km/h | 554m | -7.1m/s | 17.3°C | 72.5% | 951hPa | 2.7V | 08:04:42 | 02:58:29 | 00:00:00 | |
| BIOWL1-15 | 2026-08-31 01:16:22 | 52.22101 | 8.48196 | 41° | 35km/h | 560m | -6.7m/s | 17.2°C | 72.6% | 950.4hPa | 2.7V | 08:04:42 | 02:58:28 | 00:00:00 | |
| BIOWL1-15 | 2026-08-31 01:16:19 | 52.22095 | 8.48187 | 41° | 37km/h | 567m | -7.2m/s | 17.1°C | 72.8% | 949.6hPa | 2.7V | 08:04:42 | 02:58:27 | 00:00:00 | |
| BIOWL1-15 | 2026-08-31 01:16:18 | 52.22088 | 8.48177 | 42° | 37km/h | 574m | -6.9m/s | 17.1°C | 72.9% | 948.8hPa | 2.7V | 08:04:42 | 02:58:26 | 00:00:00 | |
| BIOWL1-15 | 2026-08-31 01:16:16 | 52.22062 | 8.48136 | 45° | 37km/h | 602m | -6.8m/s | 16.8°C | 73.6% | 945.7hPa | 2.6V | 08:04:42 | 02:58:22 | 00:00:00 | |
| DO2JMG | 2026-08-31 01:16:15 | 52.22068 | 8.48147 | 44° | 37km/h | 595m | -6.8m/s | 16.9°C | 73.3% | 946.4hPa | 2.6V | 08:04:42 | 02:58:23 | 00:00:00 | |
| DO2JMG | 2026-08-31 01:16:13 | 52.22055 | 8.48126 | 44° | 35km/h | 608m | -6.8m/s | 16.8°C | 73.7% | 944.9hPa | 2.7V | 08:04:42 | 02:58:21 | 00:00:00 | |
| DO2JMG | 2026-08-31 01:16:12 | 52.22049 | 8.48116 | 45° | 35km/h | 615m | -6.7m/s | 16.7°C | 74.1% | 944.2hPa | 2.7V | 08:04:42 | 02:58:20 | 00:00:00 | |
| DO2JMG | 2026-08-31 01:16:11 | 52.22043 | 8.48106 | 45° | 35km/h | 622m | -6.7m/s | 16.6°C | 74.3% | 943.5hPa | 2.7V | 08:04:42 | 02:58:19 | 00:00:00 | |
| BIOWL1-15 | 2026-08-31 01:16:10 | 52.22036 | 8.48096 | 45° | 35km/h | 628m | -6.9m/s | 16.6°C | 74.7% | 942.6hPa | 2.7V | 08:04:42 | 02:58:18 | 00:00:00 | |
| BIOWL1-15 | 2026-08-31 01:16:09 | 52.22030 | 8.48085 | 45° | 37km/h | 635m | -7m/s | 16.5°C | 74.9% | 941.9hPa | 2.7V | 08:04:42 | 02:58:17 | 00:00:00 | |
| DO2JMG | 2026-08-31 01:16:08 | 52.22024 | 8.48075 | 46° | 37km/h | 642m | -6.7m/s | 16.4°C | 75.2% | 941.1hPa | 2.7V | 08:04:42 | 02:58:16 | 00:00:00 | |
| DM0DOS-11 | 2026-08-31 01:16:07 | 52.22011 | 8.48054 | 45° | 35km/h | 656m | -6.9m/s | 16.3°C | 71.5% | 939.7hPa | 2.7V | 08:04:07 | 02:58:14 | 00:00:00 | |
| DO2JMG | 2026-08-31 01:16:06 | 52.22011 | 8.48054 | 46° | 35km/h | 656m | -6.9m/s | 16.3°C | 76% | 939.7hPa | 2.7V | 08:04:42 | 02:58:14 | 00:00:00 | |
| DO2JMG | 2026-08-31 01:16:05 | 52.22005 | 8.48043 | 46° | 35km/h | 663m | -7m/s | 16.3°C | 76.4% | 939hPa | 2.6V | 08:04:42 | 02:58:13 | 00:00:00 | |
| DO2JMG | 2026-08-31 01:16:04 | 52.21998 | 8.48033 | 47° | 35km/h | 670m | -7m/s | 16.2°C | 76.5% | 938.2hPa | 2.6V | 08:04:42 | 02:58:12 | 00:00:00 | |
| BIOWL1-15 | 2026-08-31 01:16:03 | 52.21992 | 8.48022 | 46° | 35km/h | 676m | -6.8m/s | 16.1°C | 76.7% | 937.4hPa | 2.7V | 08:04:42 | 02:58:11 | 00:00:00 | |
| DO2JMG | 2026-08-31 01:16:02 | 52.21986 | 8.48012 | 47° | 35km/h | 683m | -6.6m/s | 16.1°C | 76.8% | 936.7hPa | 2.7V | 08:04:42 | 02:58:10 | 00:00:00 | |
| DL4BBY-15 | 2026-08-31 01:16:02 | 52.21986 | 8.48012 | 48° | 35km/h | 683m | -6.5m/s | 13.1°C | 0% | 0hPa | 2.6V | 00:00:00 | 00:00:00 | 00:00:00 | |
| DM0DOS-11 | 2026-08-31 01:16:01 | 52.21962 | 8.47969 | 47° | 35km/h | 710m | -6.6m/s | 15.8°C | 73.8% | 933.7hPa | 2.6V | 08:04:15 | 02:58:06 | 00:00:00 | |
| DM0DOS-11 | 2026-08-31 01:16:01 | 52.21951 | 8.47948 | 47° | 35km/h | 723m | -6.7m/s | 15.7°C | 74.2% | 932.3hPa | 2.7V | 08:04:17 | 02:58:04 | 00:00:00 | |
| DO2JMG | 2026-08-31 01:16:01 | 52.21980 | 8.48001 | 48° | 35km/h | 690m | -6.9m/s | 16°C | 76.9% | 935.9hPa | 2.7V | 08:04:42 | 02:58:09 | 00:00:00 | |
| DO2JMG | 2026-08-31 01:16:00 | 52.21974 | 8.47991 | 47° | 35km/h | 697m | -6.9m/s | 15.9°C | 77.4% | 935.1hPa | 2.7V | 08:04:42 | 02:58:08 | 00:00:00 | |
| BIOWL1-15 | 2026-08-31 01:15:59 | 52.21968 | 8.47980 | 49° | 35km/h | 703m | -6.5m/s | 15.9°C | 77.8% | 934.5hPa | 2.7V | 08:04:42 | 02:58:07 | 00:00:00 | |
| DO2JMG | 2026-08-31 01:15:58 | 52.21962 | 8.47969 | 48° | 35km/h | 710m | -6.6m/s | 15.8°C | 78% | 933.7hPa | 2.6V | 08:04:42 | 02:58:06 | 00:00:00 | |
| DO2JMG | 2026-08-31 01:15:57 | 52.21956 | 8.47958 | 49° | 35km/h | 717m | -6.8m/s | 15.7°C | 78.2% | 933hPa | 2.7V | 08:04:42 | 02:58:05 | 00:00:00 | |
| BIOWL1-15 | 2026-08-31 01:15:56 | 52.21950 | 8.47948 | 48° | 35km/h | 723m | -6.7m/s | 15.7°C | 78.4% | 932.3hPa | 2.7V | 08:04:42 | 02:58:04 | 00:00:00 | |
| DO2JMG | 2026-08-31 01:15:56 | 52.21944 | 8.47937 | 49° | 35km/h | 730m | -7.1m/s | 15.6°C | 78.7% | 931.4hPa | 2.7V | 08:04:42 | 02:58:03 | 00:00:00 | |
| DM0DOS-11 | 2026-08-31 01:15:56 | 52.21939 | 8.47926 | 47° | 35km/h | 737m | -7.2m/s | 15.6°C | 74.8% | 930.8hPa | 2.7V | 08:04:19 | 02:58:02 | 00:00:00 | |
| DO2JMG | 2026-08-31 01:15:55 | 52.21939 | 8.47926 | 48° | 35km/h | 737m | -7.2m/s | 15.6°C | 79.2% | 930.8hPa | 2.7V | 08:04:42 | 02:58:02 | 00:00:00 | |
| BIOWL1-15 | 2026-08-31 01:15:54 | 52.21933 | 8.47916 | 48° | 35km/h | 745m | -6.9m/s | 15.5°C | 79.7% | 930hPa | 2.6V | 08:04:42 | 02:58:01 | 00:00:00 | |
| BIOWL1-15 | 2026-08-31 01:15:53 | 52.21892 | 8.47842 | 48° | 35km/h | 792m | -7m/s | 15.3°C | 80.6% | 924.8hPa | 2.7V | 08:04:42 | 02:57:54 | 00:00:00 | |
| DO2JMG | 2026-08-31 01:15:52 | 52.21927 | 8.47905 | 48° | 33km/h | 751m | -6.8m/s | 15.5°C | 79.7% | 929.2hPa | 2.7V | 08:04:42 | 02:58:00 | 00:00:00 | |
| BIOWL1-15 | 2026-08-31 01:15:50 | 52.21839 | 8.47748 | 48° | 35km/h | 855m | -6.9m/s | 14.8°C | 81.7% | 917.9hPa | 2.7V | 08:04:42 | 02:57:45 | 00:00:00 | |
| DO2JMG | 2026-08-31 01:15:50 | 52.21915 | 8.47884 | 49° | 35km/h | 765m | -6.9m/s | 15.4°C | 80.1% | 927.7hPa | 2.7V | 08:04:42 | 02:57:58 | 00:00:00 | |
| DO2JMG | 2026-08-31 01:15:49 | 52.21910 | 8.47874 | 48° | 35km/h | 772m | -6.9m/s | 15.4°C | 80.3% | 926.9hPa | 2.7V | 08:04:42 | 02:57:57 | 00:00:00 | |
| DO2JMG | 2026-08-31 01:15:47 | 52.21898 | 8.47853 | 48° | 35km/h | 785m | -7m/s | 15.3°C | 80.6% | 925.4hPa | 2.7V | 08:04:42 | 02:57:55 | 00:00:00 | |
| DL4BBY-15 | 2026-08-31 01:15:47 | 52.21898 | 8.47853 | 48° | 33km/h | 785m | -6.9m/s | 12.4°C | 0% | 0hPa | 2.7V | 00:00:00 | 00:00:00 | 00:00:00 | |
| DM0DOS-11 | 2026-08-31 01:15:45 | 52.21880 | 8.47821 | 47° | 35km/h | 806m | -6.9m/s | 15.2°C | 75.7% | 923.2hPa | 2.7V | 08:04:29 | 02:57:52 | 00:00:00 | |
| DM0DOS-11 | 2026-08-31 01:15:45 | 52.21857 | 8.47779 | 47° | 35km/h | 834m | -6.9m/s | 15°C | 76.3% | 920.3hPa | 2.7V | 08:04:33 | 02:57:48 | 00:00:00 | |
| DO2JMG | 2026-08-31 01:15:45 | 52.21886 | 8.47831 | 48° | 35km/h | 799m | -7m/s | 15.3°C | 80.6% | 924hPa | 2.7V | 08:04:42 | 02:57:53 | 00:00:00 | |
| BIOWL1-15 | 2026-08-31 01:15:44 | 52.21822 | 8.47717 | 47° | 33km/h | 875m | -7.1m/s | 14.6°C | 82.4% | 915.8hPa | 2.6V | 08:04:42 | 02:57:42 | 00:00:00 | |
| DO2JMG | 2026-08-31 01:15:44 | 52.21880 | 8.47821 | 48° | 35km/h | 806m | -6.9m/s | 15.2°C | 80.7% | 923.2hPa | 2.7V | 08:04:42 | 02:57:52 | 00:00:00 | |
| DO2JMG | 2026-08-31 01:15:42 | 52.21869 | 8.47800 | 47° | 35km/h | 820m | -7.1m/s | 15.1°C | 81% | 921.7hPa | 2.7V | 08:04:42 | 02:57:50 | 00:00:00 | |
| DM0DOS-11 | 2026-08-31 01:15:40 | 52.21845 | 8.47758 | 47° | 33km/h | 848m | -6.8m/s | 14.9°C | 76.7% | 918.7hPa | 2.7V | 08:04:35 | 02:57:46 | 00:00:00 | |
| DM0DOS-11 | 2026-08-31 01:15:40 | 52.21834 | 8.47738 | 46° | 33km/h | 861m | -6.9m/s | 14.8°C | 77.1% | 917.1hPa | 2.7V | 08:04:37 | 02:57:44 | 00:00:00 | |
| DO2JMG | 2026-08-31 01:15:40 | 52.21857 | 8.47779 | 47° | 35km/h | 834m | -6.9m/s | 15°C | 81.3% | 920.3hPa | 2.7V | 08:04:42 | 02:57:48 | 00:00:00 | |
| DO2JMG | 2026-08-31 01:15:38 | 52.21845 | 8.47758 | 47° | 33km/h | 848m | -6.8m/s | 14.9°C | 81.6% | 918.7hPa | 2.7V | 08:04:42 | 02:57:46 | 00:00:00 | |
| DO2JMG | 2026-08-31 01:15:36 | 52.21834 | 8.47738 | 47° | 33km/h | 861m | -6.9m/s | 14.8°C | 82% | 917.1hPa | 2.7V | 08:04:42 | 02:57:44 | 00:00:00 | |
| DL3AQ-11 | 2026-08-31 01:15:36 | 52.21828 | 8.47728 | 47° | 33km/h | 868m | -6.8m/s | 14.7°C | 76.5% | 916.4hPa | 2.7V | 00:00:00 | 00:00:00 | 00:00:00 | |
| DM0DOS-11 | 2026-08-31 01:15:35 | 52.21811 | 8.47697 | 46° | 33km/h | 889m | -6.9m/s | 14.5°C | 78% | 914.2hPa | 2.7V | 08:04:41 | 02:57:40 | 00:00:00 | |
| DO2JMG | 2026-08-31 01:15:35 | 52.21828 | 8.47728 | 48° | 33km/h | 868m | -6.8m/s | 14.7°C | 82.1% | 916.4hPa | 2.6V | 08:04:42 | 02:57:43 | 00:00:00 | |
| DO2JMG | 2026-08-31 01:15:33 | 52.21817 | 8.47707 | 48° | 33km/h | 882m | -6.8m/s | 14.6°C | 82.7% | 915.1hPa | 2.7V | 08:04:42 | 02:57:41 | 00:00:00 | |
| BIOWL1-15 | 2026-08-31 01:15:31 | 52.21737 | 8.47567 | 47° | 33km/h | 977m | -6.8m/s | 13.7°C | 85.3% | 904.8hPa | 2.7V | 08:05:33 | 02:57:27 | 00:00:00 | |
| DO2JMG | 2026-08-31 01:15:31 | 52.21805 | 8.47687 | 48° | 33km/h | 896m | -7.1m/s | 14.4°C | 83.1% | 913.7hPa | 2.7V | 08:04:42 | 02:57:39 | 00:00:00 | |
| BIOWL1-15 | 2026-08-31 01:15:30 | 52.21661 | 8.47436 | 45° | 35km/h | 1065m | -7m/s | 13°C | 87.3% | 895.3hPa | 2.7V | 08:05:33 | 02:57:14 | 00:00:00 | |
| DO2JMG | 2026-08-31 01:15:30 | 52.21800 | 8.47677 | 47° | 33km/h | 903m | -6.7m/s | 14.4°C | 83.2% | 912.7hPa | 2.7V | 08:05:33 | 02:57:38 | 00:00:00 | |
| DM0DOS-11 | 2026-08-31 01:15:29 | 52.21788 | 8.47657 | 47° | 33km/h | 916m | -6.9m/s | 14.3°C | 78.7% | 911.4hPa | 2.7V | 08:04:45 | 02:57:36 | 00:00:00 | |
| DM0DOS-11 | 2026-08-31 01:15:29 | 52.21777 | 8.47637 | 47° | 33km/h | 930m | -6.8m/s | 14.2°C | 79.1% | 909.9hPa | 2.6V | 08:04:47 | 02:57:34 | 00:00:00 | |
| DM0DOS-11 | 2026-08-31 01:15:29 | 52.21766 | 8.47617 | 47° | 33km/h | 943m | -6.5m/s | 14.1°C | 79.4% | 908.2hPa | 2.7V | 08:04:49 | 02:57:32 | 00:00:00 | |
| DO2JMG | 2026-08-31 01:15:28 | 52.21788 | 8.47657 | 47° | 33km/h | 917m | -6.9m/s | 14.3°C | 83.4% | 911.4hPa | 2.7V | 08:05:33 | 02:57:36 | 00:00:00 | |
| DO2JMG | 2026-08-31 01:15:27 | 52.21783 | 8.47647 | 48° | 33km/h | 923m | -6.8m/s | 14.2°C | 83.7% | 910.6hPa | 2.7V | 08:05:33 | 02:57:35 | 00:00:00 | |
| DO2JMG | 2026-08-31 01:15:26 | 52.21777 | 8.47637 | 47° | 33km/h | 930m | -6.8m/s | 14.2°C | 83.9% | 909.9hPa | 2.6V | 08:05:33 | 02:57:34 | 00:00:00 | |
| DO2JMG | 2026-08-31 01:15:24 | 52.21766 | 8.47617 | 47° | 33km/h | 943m | -6.5m/s | 14°C | 84.1% | 908.2hPa | 2.7V | 08:05:33 | 02:57:32 | 00:00:00 | |
| DO2JMG | 2026-08-31 01:15:23 | 52.21720 | 8.47537 | 46° | 33km/h | 997m | -6.9m/s | 13.5°C | 86.1% | 902.6hPa | 2.6V | 08:05:33 | 02:57:24 | 00:00:00 | |
| DD8BA-10 | 2026-08-31 01:15:22 | 52.21755 | 8.47597 | 48° | 33km/h | 957m | -6.7m/s | 13.9°C | 79.7% | 906.8hPa | 2.7V | 00:00:00 | 00:00:00 | 00:00:00 | |
| DL4BBY-15 | 2026-08-31 01:15:19 | 52.21726 | 8.47547 | 48° | 37km/h | 990m | -6.8m/s | 10.7°C | 0% | 0hPa | 2.7V | 00:00:00 | 00:00:00 | 00:00:00 | |
| DM0DOS-11 | 2026-08-31 01:15:18 | 52.21708 | 8.47517 | 46° | 33km/h | 1011m | -7m/s | 13.4°C | 82% | 901.2hPa | 2.7V | 08:04:59 | 02:57:22 | 00:00:00 | |
| DO2JMG | 2026-08-31 01:15:17 | 52.21714 | 8.47527 | 47° | 33km/h | 1004m | -7m/s | 13.5°C | 86.2% | 901.8hPa | 2.7V | 08:05:33 | 02:57:23 | 00:00:00 | |
| BIOWL1-15 | 2026-08-31 01:15:16 | 52.21642 | 8.47405 | 45° | 35km/h | 1085m | -7.1m/s | 12.8°C | 88% | 893.3hPa | 2.7V | 08:05:33 | 02:57:11 | 00:00:00 | |
| DO2JMG | 2026-08-31 01:15:14 | 52.21708 | 8.47517 | 46° | 33km/h | 1011m | -7m/s | 13.4°C | 86.5% | 901.2hPa | 2.7V | 08:05:33 | 02:57:22 | 00:00:00 | |
| DO2JMG | 2026-08-31 01:15:12 | 52.21697 | 8.47497 | 46° | 33km/h | 1024m | -7m/s | 13.3°C | 86.6% | 899.6hPa | 2.7V | 08:05:33 | 02:57:20 | 00:00:00 | |
| BIOWL1-15 | 2026-08-31 01:15:10 | 52.21629 | 8.47385 | 46° | 35km/h | 1099m | -6.7m/s | 12.7°C | 88.6% | 891.8hPa | 2.7V | 08:05:33 | 02:57:09 | 00:00:00 | |
| DO2JMG | 2026-08-31 01:15:10 | 52.21685 | 8.47477 | 47° | 35km/h | 1038m | -6.8m/s | 13.2°C | 86.6% | 898.4hPa | 2.7V | 08:05:33 | 02:57:18 | 00:00:00 | |
| DO2JMG | 2026-08-31 01:15:08 | 52.21673 | 8.47457 | 46° | 35km/h | 1052m | -6.6m/s | 13.1°C | 86.9% | 896.7hPa | 2.6V | 08:05:33 | 02:57:16 | 00:00:00 | |
| DO2JMG | 2026-08-31 01:15:07 | 52.21667 | 8.47446 | 46° | 35km/h | 1058m | -6.7m/s | 13.1°C | 87.1% | 896.2hPa | 2.6V | 08:05:33 | 02:57:15 | 00:00:00 | |
| DO2JMG | 2026-08-31 01:15:05 | 52.21655 | 8.47426 | 45° | 35km/h | 1071m | -6.6m/s | 13°C | 87.6% | 894.7hPa | 2.7V | 08:05:33 | 02:57:13 | 00:00:00 | |
| DO2JMG | 2026-08-31 01:15:04 | 52.21648 | 8.47416 | 46° | 35km/h | 1078m | -6.7m/s | 12.9°C | 87.8% | 894hPa | 2.7V | 08:05:33 | 02:57:12 | 00:00:00 | |
| DO2JMG | 2026-08-31 01:15:02 | 52.21636 | 8.47395 | 45° | 37km/h | 1092m | -6.9m/s | 12.8°C | 88.3% | 892.4hPa | 2.7V | 08:05:33 | 02:57:10 | 00:00:00 | |
| DM0DOS-11 | 2026-08-31 01:15:00 | 52.21598 | 8.47333 | 44° | 35km/h | 1133m | -7m/s | 12.4°C | 85.5% | 888.1hPa | 2.7V | 08:05:17 | 02:57:04 | 00:00:00 | |
| DO2JMG | 2026-08-31 01:15:00 | 52.21623 | 8.47374 | 45° | 35km/h | 1106m | -6.8m/s | 12.7°C | 88.9% | 891hPa | 2.7V | 08:05:33 | 02:57:08 | 00:00:00 | |
| DO2JMG | 2026-08-31 01:14:58 | 52.21610 | 8.47354 | 45° | 35km/h | 1119m | -6.9m/s | 12.5°C | 89.5% | 889.5hPa | 2.6V | 08:05:33 | 02:57:06 | 00:00:00 | |
| DO2JMG | 2026-08-31 01:14:57 | 52.21604 | 8.47343 | 46° | 35km/h | 1126m | -7.1m/s | 12.5°C | 89.8% | 889.1hPa | 2.7V | 08:05:33 | 02:57:05 | 00:00:00 | |
| DO2JMG | 2026-08-31 01:14:56 | 52.21598 | 8.47333 | 44° | 35km/h | 1133m | -7m/s | 12.4°C | 90.1% | 888.1hPa | 2.7V | 08:05:33 | 02:57:04 | 00:00:00 | |
| DO2JMG | 2026-08-31 01:14:55 | 52.21591 | 8.47323 | 44° | 37km/h | 1140m | -7.3m/s | 12.3°C | 90.3% | 887.5hPa | 2.7V | 08:05:33 | 02:57:03 | 00:00:00 | |
| BIOWL1-15 | 2026-08-31 01:14:54 | 52.21585 | 8.47313 | 45° | 37km/h | 1147m | -6.8m/s | 12.3°C | 90.8% | 886.7hPa | 2.7V | 08:05:33 | 02:57:02 | 00:00:00 | |
| DO2JMG | 2026-08-31 01:14:53 | 52.21578 | 8.47302 | 45° | 37km/h | 1154m | -6.8m/s | 12.2°C | 91% | 885.9hPa | 2.7V | 08:05:33 | 02:57:01 | 00:00:00 | |
| BIOWL1-15 | 2026-08-31 01:14:52 | 52.21559 | 8.47270 | 46° | 37km/h | 1174m | -6.9m/s | 12°C | 92% | 883.7hPa | 2.6V | 08:05:33 | 02:56:58 | 00:00:00 | |
| DO2JMG | 2026-08-31 01:14:51 | 52.21566 | 8.47281 | 45° | 37km/h | 1168m | -6.8m/s | 12.1°C | 91.4% | 884.5hPa | 2.6V | 08:05:33 | 02:56:59 | 00:00:00 | |
| DO2JMG | 2026-08-31 01:14:49 | 52.21553 | 8.47259 | 46° | 37km/h | 1181m | -7m/s | 11.9°C | 92.2% | 883hPa | 2.7V | 08:05:33 | 02:56:57 | 00:00:00 | |
| DO2JMG | 2026-08-31 01:14:48 | 52.21546 | 8.47248 | 46° | 37km/h | 1188m | -6.9m/s | 11.9°C | 92.5% | 882.4hPa | 2.7V | 08:05:33 | 02:56:56 | 00:00:00 | |
| DO2JMG | 2026-08-31 01:14:47 | 52.21540 | 8.47237 | 45° | 37km/h | 1195m | -7.1m/s | 11.8°C | 92.7% | 881.7hPa | 2.7V | 08:05:33 | 02:56:55 | 00:00:00 | |
| DO2JMG | 2026-08-31 01:14:45 | 52.21527 | 8.47216 | 47° | 37km/h | 1209m | -6.8m/s | 11.7°C | 93.5% | 880.2hPa | 2.7V | 08:05:33 | 02:56:53 | 00:00:00 | |
| BIOWL1-15 | 2026-08-31 01:14:44 | 52.21520 | 8.47205 | 46° | 37km/h | 1216m | -6.9m/s | 11.6°C | 93.9% | 879.5hPa | 2.7V | 08:05:33 | 02:56:52 | 00:00:00 | |
| DM0DOS-11 | 2026-08-31 01:14:44 | 52.21494 | 8.47160 | 48° | 37km/h | 1243m | -6.8m/s | 11.3°C | 90.8% | 876.5hPa | 2.7V | 08:05:33 | 02:56:48 | 00:00:00 | |
| DO2JMG | 2026-08-31 01:14:43 | 52.21514 | 8.47194 | 45° | 37km/h | 1223m | -6.9m/s | 11.6°C | 94.3% | 878.7hPa | 2.6V | 08:05:33 | 02:56:51 | 00:00:00 | |
| DO2JMG | 2026-08-31 01:14:42 | 52.21507 | 8.47183 | 47° | 37km/h | 1229m | -6.7m/s | 11.5°C | 94.7% | 878.1hPa | 2.6V | 08:05:33 | 02:56:50 | 00:00:00 | |
| DO2JMG | 2026-08-31 01:14:40 | 52.21494 | 8.47160 | 48° | 37km/h | 1243m | -6.8m/s | 11.3°C | 94.7% | 876.5hPa | 2.7V | 08:05:33 | 02:56:48 | 00:00:00 | |
| DO2JMG | 2026-08-31 01:14:39 | 52.21488 | 8.47149 | 48° | 37km/h | 1250m | -6.8m/s | 11.3°C | 95.4% | 875.9hPa | 2.7V | 08:06:24 | 02:56:47 | 00:00:00 | |
| BIOWL1-15 | 2026-08-31 01:14:38 | 52.21482 | 8.47137 | 47° | 38km/h | 1256m | -7m/s | 11.2°C | 95.8% | 875.3hPa | 2.7V | 08:06:24 | 02:56:46 | 00:00:00 | |
| DO2JMG | 2026-08-31 01:14:37 | 52.21475 | 8.47126 | 47° | 37km/h | 1263m | -6.9m/s | 11.1°C | 96.3% | 874.4hPa | 2.7V | 08:06:24 | 02:56:45 | 00:00:00 | |
| BIOWL1-15 | 2026-08-31 01:14:37 | 52.21462 | 8.47103 | 47° | 38km/h | 1277m | -6.8m/s | 10.9°C | 97.1% | 873.1hPa | 2.7V | 08:06:24 | 02:56:43 | 00:00:00 | |
| DO2JMG | 2026-08-31 01:14:36 | 52.21469 | 8.47115 | 48° | 38km/h | 1270m | -6.6m/s | 11°C | 96.9% | 873.8hPa | 2.7V | 08:06:24 | 02:56:44 | 00:00:00 | |
| BIOWL1-15 | 2026-08-31 01:14:34 | 52.21456 | 8.47092 | 48° | 38km/h | 1284m | -6.7m/s | 10.9°C | 97.9% | 872.5hPa | 2.6V | 08:06:24 | 02:56:42 | 00:00:00 | |
| DO2JMG | 2026-08-31 01:14:34 | 52.21450 | 8.47080 | 49° | 37km/h | 1290m | -6.9m/s | 10.8°C | 98.1% | 871.7hPa | 2.6V | 08:06:24 | 02:56:41 | 00:00:00 | |
| BIOWL1-15 | 2026-08-31 01:14:32 | 52.21443 | 8.47069 | 47° | 37km/h | 1297m | -6.7m/s | 10.7°C | 98.9% | 871.1hPa | 2.7V | 08:06:24 | 02:56:40 | 00:00:00 | |
| DO2JMG | 2026-08-31 01:14:31 | 52.21437 | 8.47057 | 47° | 38km/h | 1304m | -7.2m/s | 10.7°C | 99.2% | 870.3hPa | 2.7V | 08:06:24 | 02:56:39 | 00:00:00 | |
| DO2JMG | 2026-08-31 01:14:30 | 52.21430 | 8.47046 | 48° | 38km/h | 1311m | -7.1m/s | 10.6°C | 99.8% | 869.4hPa | 2.7V | 08:06:24 | 02:56:38 | 00:00:00 | |
| BIOWL1-15 | 2026-08-31 01:14:29 | 52.21424 | 8.47034 | 49° | 38km/h | 1318m | -6.6m/s | 10.5°C | 100% | 868.9hPa | 2.6V | 08:06:24 | 02:56:37 | 00:00:00 | |
| DO2JMG | 2026-08-31 01:14:28 | 52.21418 | 8.47022 | 49° | 38km/h | 1324m | -6.8m/s | 10.5°C | 100% | 868.1hPa | 2.7V | 08:06:24 | 02:56:36 | 00:00:00 | |
| DO2JMG | 2026-08-31 01:14:27 | 52.21411 | 8.47010 | 50° | 38km/h | 1331m | -6.9m/s | 10.4°C | 100% | 867.5hPa | 2.6V | 08:06:24 | 02:56:35 | 00:00:00 | |
| DO2JMG | 2026-08-31 01:14:26 | 52.21405 | 8.46998 | 51° | 38km/h | 1338m | -7.2m/s | 10.4°C | 100% | 866.8hPa | 2.6V | 08:06:24 | 02:56:34 | 00:00:00 | |
| BIOWL1-15 | 2026-08-31 01:14:24 | 52.21387 | 8.46962 | 52° | 38km/h | 1360m | -7.2m/s | 10.2°C | 100% | 864.3hPa | 2.7V | 08:06:24 | 02:56:31 | 00:00:00 | |
| DO2JMG | 2026-08-31 01:14:24 | 52.21393 | 8.46974 | 51° | 37km/h | 1352m | -7.4m/s | 10.3°C | 100% | 865.1hPa | 2.7V | 08:06:24 | 02:56:32 | 00:00:00 | |
| DO2JMG | 2026-08-31 01:14:22 | 52.21381 | 8.46950 | 53° | 38km/h | 1367m | -7.2m/s | 10.1°C | 100% | 863.7hPa | 2.7V | 08:06:24 | 02:56:30 | 00:00:00 | |
| DO2JMG | 2026-08-31 01:14:21 | 52.21376 | 8.46937 | 52° | 38km/h | 1374m | -6.8m/s | 10.1°C | 100% | 863hPa | 2.7V | 08:06:24 | 02:56:29 | 00:00:00 | |
| BIOWL1-15 | 2026-08-31 01:14:20 | 52.21358 | 8.46900 | 52° | 38km/h | 1394m | -7m/s | 10°C | 100% | 860.9hPa | 2.6V | 08:06:24 | 02:56:26 | 00:00:00 | |
| DO2JMG | 2026-08-31 01:14:19 | 52.21364 | 8.46913 | 52° | 38km/h | 1387m | -6.8m/s | 10°C | 100% | 861.4hPa | 2.6V | 08:06:24 | 02:56:27 | 00:00:00 | |
| DO2JMG | 2026-08-31 01:14:17 | 52.21352 | 8.46888 | 53° | 38km/h | 1401m | -7.2m/s | 10°C | 100% | 860.3hPa | 2.6V | 08:06:24 | 02:56:25 | 00:00:00 | |
| DO2JMG | 2026-08-31 01:14:16 | 52.21346 | 8.46875 | 53° | 38km/h | 1408m | -6.8m/s | 10°C | 100% | 859.3hPa | 2.7V | 08:06:24 | 02:56:24 | 00:00:00 | |
| BIOWL1-15 | 2026-08-31 01:14:15 | 52.21323 | 8.46824 | 54° | 38km/h | 1436m | -7m/s | 9.8°C | 100% | 856.5hPa | 2.6V | 08:06:24 | 02:56:20 | 00:00:00 | |
| DO2JMG | 2026-08-31 01:14:14 | 52.21335 | 8.46850 | 53° | 38km/h | 1422m | -6.7m/s | 9.9°C | 100% | 858hPa | 2.7V | 08:06:24 | 02:56:22 | 00:00:00 | |
| DO2JMG | 2026-08-31 01:14:13 | 52.21329 | 8.46837 | 54° | 40km/h | 1429m | -6.7m/s | 9.8°C | 100% | 857.2hPa | 2.6V | 08:06:24 | 02:56:21 | 00:00:00 | |
| DO2JMG | 2026-08-31 01:14:11 | 52.21317 | 8.46811 | 54° | 38km/h | 1443m | -6.9m/s | 9.7°C | 100% | 855.9hPa | 2.6V | 08:06:24 | 02:56:19 | 00:00:00 | |
| DO2JMG | 2026-08-31 01:14:10 | 52.21312 | 8.46798 | 56° | 38km/h | 1449m | -6.8m/s | 9.7°C | 100% | 855.1hPa | 2.6V | 08:06:24 | 02:56:18 | 00:00:00 | |
| BIOWL1-15 | 2026-08-31 01:14:09 | 52.21306 | 8.46785 | 57° | 38km/h | 1456m | -7m/s | 9.7°C | 100% | 854.5hPa | 2.6V | 08:06:24 | 02:56:17 | 00:00:00 | |
| BIOWL1-15 | 2026-08-31 01:14:08 | 52.21301 | 8.46772 | 57° | 37km/h | 1463m | -6.8m/s | 9.5°C | 100% | 853.7hPa | 2.7V | 08:06:24 | 02:56:16 | 00:00:00 | |
| DO2JMG | 2026-08-31 01:14:07 | 52.21296 | 8.46759 | 59° | 38km/h | 1469m | -6.7m/s | 9.5°C | 100% | 853.1hPa | 2.7V | 08:06:24 | 02:56:15 | 00:00:00 | |
| BIOWL1-15 | 2026-08-31 01:14:06 | 52.21291 | 8.46746 | 58° | 38km/h | 1476m | -7m/s | 9.4°C | 100% | 852.3hPa | 2.6V | 08:06:24 | 02:56:14 | 00:00:00 | |
| DO2JMG | 2026-08-31 01:14:05 | 52.21286 | 8.46733 | 58° | 38km/h | 1483m | -7m/s | 9.4°C | 100% | 851.7hPa | 2.6V | 08:06:24 | 02:56:13 | 00:00:00 | |
| BIOWL1-15 | 2026-08-31 01:14:04 | 52.21281 | 8.46720 | 58° | 38km/h | 1490m | -6.7m/s | 9.3°C | 100% | 850.9hPa | 2.6V | 08:06:24 | 02:56:12 | 00:00:00 | |
| DO2JMG | 2026-08-31 01:14:03 | 52.21276 | 8.46706 | 58° | 38km/h | 1497m | -6.9m/s | 9.3°C | 100% | 850.3hPa | 2.6V | 08:06:24 | 02:56:11 | 00:00:00 | |
| DO2JMG | 2026-08-31 01:14:02 | 52.21271 | 8.46693 | 57° | 37km/h | 1503m | -7.1m/s | 9.2°C | 100% | 849.6hPa | 2.6V | 08:06:24 | 02:56:10 | 00:00:00 | |
| BIOWL1-15 | 2026-08-31 01:14:01 | 52.21266 | 8.46681 | 58° | 37km/h | 1510m | -6.8m/s | 9.2°C | 100% | 848.8hPa | 2.6V | 08:06:24 | 02:56:09 | 00:00:00 | |
| DO2JMG | 2026-08-31 01:14:00 | 52.21261 | 8.46668 | 59° | 37km/h | 1517m | -6.6m/s | 9.2°C | 100% | 848.2hPa | 2.6V | 08:06:24 | 02:56:08 | 00:00:00 | |
| DO2JMG | 2026-08-31 01:13:59 | 52.21256 | 8.46655 | 58° | 37km/h | 1523m | -6.6m/s | 9.1°C | 100% | 847.4hPa | 2.6V | 08:06:24 | 02:56:07 | 00:00:00 | |
| BIOWL1-15 | 2026-08-31 01:13:58 | 52.21251 | 8.46643 | 59° | 35km/h | 1530m | -6.5m/s | 9.1°C | 100% | 846.8hPa | 2.6V | 08:06:24 | 02:56:06 | 00:00:00 | |
| DO2JMG | 2026-08-31 01:13:57 | 52.21247 | 8.46630 | 59° | 35km/h | 1536m | -6.7m/s | 9°C | 100% | 846hPa | 2.6V | 08:06:24 | 02:56:05 | 00:00:00 | |
| BIOWL1-15 | 2026-08-31 01:13:56 | 52.21242 | 8.46618 | 59° | 35km/h | 1543m | -6.8m/s | 8.9°C | 100% | 845.5hPa | 2.6V | 08:06:24 | 02:56:04 | 00:00:00 | |
| DO2JMG | 2026-08-31 01:13:55 | 52.21238 | 8.46605 | 59° | 35km/h | 1550m | -6.9m/s | 8.9°C | 100% | 844.7hPa | 2.6V | 08:06:24 | 02:56:03 | 00:00:00 | |
| BIOWL1-15 | 2026-08-31 01:13:54 | 52.21233 | 8.46593 | 60° | 35km/h | 1557m | -6.7m/s | 8.9°C | 100% | 844.1hPa | 2.6V | 08:06:24 | 02:56:02 | 00:00:00 | |
| BIOWL1-15 | 2026-08-31 01:13:53 | 52.21229 | 8.46581 | 60° | 35km/h | 1563m | -6.7m/s | 8.9°C | 100% | 843.4hPa | 2.6V | 08:06:24 | 02:56:01 | 00:00:00 | |
| DO2JMG | 2026-08-31 01:13:52 | 52.21224 | 8.46568 | 59° | 35km/h | 1570m | -6.7m/s | 8.8°C | 100% | 842.8hPa | 2.6V | 08:06:24 | 02:56:00 | 00:00:00 | |
| BIOWL1-15 | 2026-08-31 01:13:50 | 52.21206 | 8.46518 | 58° | 35km/h | 1597m | -6.7m/s | 8.7°C | 100% | 840hPa | 2.6V | 08:07:15 | 02:55:56 | 00:00:00 | |
| DO2JMG | 2026-08-31 01:13:50 | 52.21215 | 8.46543 | 59° | 35km/h | 1583m | -6.9m/s | 8.8°C | 100% | 841.3hPa | 2.6V | 08:06:24 | 02:55:58 | 00:00:00 | |
| DO2JMG | 2026-08-31 01:13:49 | 52.21211 | 8.46531 | 59° | 37km/h | 1590m | -6.7m/s | 8.7°C | 100% | 840.7hPa | 2.6V | 08:06:24 | 02:55:57 | 00:00:00 | |
| DO2JMG | 2026-08-31 01:13:47 | 52.21201 | 8.46506 | 58° | 37km/h | 1603m | -6.7m/s | 8.6°C | 100% | 839.3hPa | 2.6V | 08:07:15 | 02:55:55 | 00:00:00 | |
| BIOWL1-15 | 2026-08-31 01:13:46 | 52.21196 | 8.46493 | 58° | 37km/h | 1610m | -6.6m/s | 8.6°C | 100% | 838.6hPa | 2.6V | 08:07:15 | 02:55:54 | 00:00:00 | |
| DO2JMG | 2026-08-31 01:13:45 | 52.21191 | 8.46481 | 58° | 37km/h | 1616m | -6.7m/s | 8.5°C | 100% | 838.1hPa | 2.6V | 08:07:15 | 02:55:53 | 00:00:00 | |
| DM0DOS-11 | 2026-08-31 01:13:45 | 52.21167 | 8.46415 | 59° | 38km/h | 1650m | -6.9m/s | 8.1°C | 99.5% | 834.6hPa | 2.6V | 08:06:33 | 02:55:48 | 00:00:00 | |
| DO2JMG | 2026-08-31 01:13:44 | 52.21187 | 8.46468 | 59° | 37km/h | 1623m | -6.6m/s | 8.4°C | 100% | 837.5hPa | 2.6V | 08:07:15 | 02:55:52 | 00:00:00 | |
| DO2JMG | 2026-08-31 01:13:43 | 52.21182 | 8.46455 | 58° | 38km/h | 1630m | -7m/s | 8.3°C | 100% | 836.5hPa | 2.6V | 08:07:15 | 02:55:51 | 00:00:00 | |
| DO2JMG | 2026-08-31 01:13:42 | 52.21177 | 8.46442 | 59° | 37km/h | 1636m | -6.8m/s | 8.2°C | 100% | 836hPa | 2.6V | 08:07:15 | 02:55:50 | 00:00:00 | |
| DO2JMG | 2026-08-31 01:13:40 | 52.21167 | 8.46415 | 60° | 38km/h | 1650m | -6.9m/s | 8.1°C | 100% | 834.6hPa | 2.6V | 08:07:15 | 02:55:48 | 00:00:00 | |
| DM0DOS-11 | 2026-08-31 01:13:39 | 52.21157 | 8.46387 | 60° | 38km/h | 1664m | -7m/s | 8°C | 99.9% | 833.3hPa | 2.6V | 08:06:35 | 02:55:46 | 00:00:00 | |
| DO2JMG | 2026-08-31 01:13:38 | 52.21157 | 8.46387 | 61° | 38km/h | 1664m | -7m/s | 7.9°C | 100% | 833.3hPa | 2.6V | 08:07:15 | 02:55:46 | 00:00:00 | |
| BIOWL1-15 | 2026-08-31 01:13:37 | 52.21153 | 8.46373 | 60° | 38km/h | 1671m | -7.4m/s | 7.9°C | 100% | 832.5hPa | 2.6V | 08:07:15 | 02:55:45 | 00:00:00 | |
| DO2JMG | 2026-08-31 01:13:36 | 52.21148 | 8.46360 | 61° | 38km/h | 1678m | -7.3m/s | 7.8°C | 100% | 831.8hPa | 2.6V | 08:07:15 | 02:55:44 | 00:00:00 | |
| DO2JMG | 2026-08-31 01:13:35 | 52.21143 | 8.46346 | 61° | 38km/h | 1685m | -7.3m/s | 7.8°C | 100% | 831.1hPa | 2.6V | 08:07:15 | 02:55:43 | 00:00:00 | |
| DM0DOS-11 | 2026-08-31 01:13:34 | 52.21129 | 8.46304 | 62° | 38km/h | 1706m | -7m/s | 7.6°C | 0% | 829hPa | 2.6V | 08:06:41 | 02:55:40 | 00:00:00 | |
| DO2JMG | 2026-08-31 01:13:34 | 52.21139 | 8.46332 | 61° | 38km/h | 1692m | -7.2m/s | 7.7°C | 100% | 830.3hPa | 2.6V | 08:07:15 | 02:55:42 | 00:00:00 | |
| DO2JMG | 2026-08-31 01:13:33 | 52.21134 | 8.46318 | 62° | 38km/h | 1699m | -7.1m/s | 7.6°C | 100% | 829.6hPa | 2.6V | 08:07:15 | 02:55:41 | 00:00:00 | |
| BIOWL1-15 | 2026-08-31 01:13:32 | 52.21129 | 8.46304 | 62° | 38km/h | 1706m | -7.1m/s | 7.6°C | 100% | 829hPa | 2.6V | 08:07:15 | 02:55:40 | 00:00:00 | |
| DO2JMG | 2026-08-31 01:13:31 | 52.21124 | 8.46289 | 61° | 40km/h | 1713m | -7.1m/s | 7.5°C | 100% | 828.3hPa | 2.6V | 08:07:15 | 02:55:39 | 00:00:00 | |
| DO2JMG | 2026-08-31 01:13:30 | 52.21120 | 8.46275 | 63° | 40km/h | 1720m | -6.9m/s | 7.5°C | 100% | 827.6hPa | 2.6V | 08:07:15 | 02:55:38 | 00:00:00 | |
| DO2JMG | 2026-08-31 01:13:29 | 52.21115 | 8.46261 | 62° | 40km/h | 1727m | -7m/s | 7.4°C | 100% | 826.8hPa | 2.6V | 08:07:15 | 02:55:37 | 00:00:00 | |
| BIOWL1-15 | 2026-08-31 01:13:28 | 52.21110 | 8.46246 | 62° | 40km/h | 1734m | -6.9m/s | 7.4°C | 100% | 826.1hPa | 2.6V | 08:07:15 | 02:55:36 | 00:00:00 | |
| DO2JMG | 2026-08-31 01:13:27 | 52.21106 | 8.46232 | 62° | 40km/h | 1741m | -7m/s | 7.3°C | 100% | 825.6hPa | 2.6V | 08:07:15 | 02:55:35 | 00:00:00 | |
| DO2JMG | 2026-08-31 01:13:26 | 52.21101 | 8.46217 | 62° | 40km/h | 1748m | -6.9m/s | 7.3°C | 100% | 824.8hPa | 2.6V | 08:07:15 | 02:55:34 | 00:00:00 | |
| DO2JMG | 2026-08-31 01:13:24 | 52.21092 | 8.46188 | 62° | 38km/h | 1762m | -7m/s | 7.1°C | 100% | 823.4hPa | 2.6V | 08:07:15 | 02:55:32 | 00:00:00 | |
| BIOWL1-15 | 2026-08-31 01:13:22 | 52.21074 | 8.46132 | 62° | 38km/h | 1790m | -7.1m/s | 7.1°C | 100% | 820.5hPa | 2.6V | 08:07:15 | 02:55:28 | 00:00:00 | |
| DO2JMG | 2026-08-31 01:13:22 | 52.21083 | 8.46160 | 64° | 38km/h | 1776m | -6.9m/s | 7.1°C | 100% | 822hPa | 2.6V | 08:07:15 | 02:55:30 | 00:00:00 | |
| DO2JMG | 2026-08-31 01:13:21 | 52.21079 | 8.46146 | 63° | 38km/h | 1783m | -7.1m/s | 7.1°C | 99.8% | 821.2hPa | 2.6V | 08:07:15 | 02:55:29 | 00:00:00 | |
| DO2JMG | 2026-08-31 01:13:19 | 52.21070 | 8.46119 | 62° | 37km/h | 1796m | -6.8m/s | 7°C | 100% | 819.9hPa | 2.6V | 08:07:15 | 02:55:27 | 00:00:00 | |
| DM0DOS-11 | 2026-08-31 01:13:18 | 52.21056 | 8.46077 | 61° | 38km/h | 1818m | -7.2m/s | 6.8°C | 98.9% | 817.6hPa | 2.6V | 08:06:57 | 02:55:24 | 00:00:00 | |
| DM0DOS-11 | 2026-08-31 01:13:18 | 52.21047 | 8.46050 | 61° | 38km/h | 1832m | -6.9m/s | 6.8°C | 99% | 816.3hPa | 2.6V | 08:06:59 | 02:55:22 | 00:00:00 | |
| DO2JMG | 2026-08-31 01:13:18 | 52.21065 | 8.46105 | 62° | 38km/h | 1804m | -7.5m/s | 6.9°C | 100% | 819.2hPa | 2.6V | 08:07:15 | 02:55:26 | 00:00:00 | |
| DO2JMG | 2026-08-31 01:13:16 | 52.21056 | 8.46077 | 61° | 38km/h | 1818m | -7.2m/s | 6.8°C | 100% | 817.6hPa | 2.6V | 08:07:15 | 02:55:24 | 00:00:00 | |
| DO2JMG | 2026-08-31 01:13:15 | 52.21052 | 8.46064 | 61° | 38km/h | 1825m | -7.5m/s | 6.8°C | 100% | 817.2hPa | 2.6V | 08:07:15 | 02:55:23 | 00:00:00 | |
| DO2JMG | 2026-08-31 01:13:14 | 52.21047 | 8.46050 | 61° | 38km/h | 1832m | -6.9m/s | 6.7°C | 100% | 816.4hPa | 2.6V | 08:07:15 | 02:55:22 | 00:00:00 | |
| BIOWL1-15 | 2026-08-31 01:13:13 | 52.21042 | 8.46036 | 61° | 38km/h | 1839m | -7m/s | 6.7°C | 100% | 815.7hPa | 2.6V | 08:07:15 | 02:55:21 | 00:00:00 | |
| DO2JMG | 2026-08-31 01:13:12 | 52.21038 | 8.46023 | 62° | 38km/h | 1846m | -6.9m/s | 6.7°C | 100% | 814.9hPa | 2.6V | 08:07:15 | 02:55:20 | 00:00:00 | |
| DO2JMG | 2026-08-31 01:13:11 | 52.21033 | 8.46009 | 62° | 37km/h | 1853m | -6.8m/s | 6.6°C | 100% | 814.3hPa | 2.6V | 08:07:15 | 02:55:19 | 00:00:00 | |
| DO2JMG | 2026-08-31 01:13:09 | 52.21024 | 8.45982 | 63° | 37km/h | 1867m | -6.8m/s | 6.5°C | 100% | 813hPa | 2.6V | 08:07:15 | 02:55:17 | 00:00:00 | |
| DD1CC3-15 | 2026-08-31 01:13:08 | 52.21024 | 8.45982 | 64° | 37km/h | 1867m | -6.8m/s | 6.5°C | 97.4% | 813.0hPa | 2.6V | 08:07:00 | 00:00:00 | 00:00:00 | |
| DM0DOS-11 | 2026-08-31 01:13:08 | 52.21004 | 8.45916 | 62° | 35km/h | 1900m | -7m/s | 6.3°C | 0% | 809.7hPa | 2.6V | 08:07:09 | 02:55:12 | 00:00:00 | |
| DO2JMG | 2026-08-31 01:13:08 | 52.21020 | 8.45969 | 63° | 37km/h | 1873m | -6.7m/s | 6.5°C | 100% | 812.3hPa | 2.6V | 08:07:15 | 02:55:16 | 00:00:00 | |
| BIOWL1-15 | 2026-08-31 01:13:07 | 52.21016 | 8.45955 | 63° | 37km/h | 1880m | -6.6m/s | 6.4°C | 100% | 811.6hPa | 2.6V | 08:07:15 | 02:55:15 | 00:00:00 | |
| DO2JMG | 2026-08-31 01:13:06 | 52.21012 | 8.45942 | 62° | 37km/h | 1887m | -7.1m/s | 6.4°C | 100% | 810.9hPa | 2.6V | 08:07:15 | 02:55:14 | 00:00:00 | |
| DO2JMG | 2026-08-31 01:13:05 | 52.21008 | 8.45929 | 63° | 35km/h | 1893m | -6.7m/s | 6.3°C | 100% | 810.5hPa | 2.6V | 08:07:15 | 02:55:13 | 00:00:00 | |
| DM0DOS-11 | 2026-08-31 01:13:03 | 52.20996 | 8.45889 | 63° | 37km/h | 1914m | -6.9m/s | 6.2°C | 0% | 808.4hPa | 2.6V | 08:07:11 | 02:55:10 | 00:00:00 | |
| DM0DOS-11 | 2026-08-31 01:13:03 | 52.20980 | 8.45835 | 65° | 37km/h | 1940m | -6.9m/s | 6°C | 99.3% | 805.7hPa | 2.6V | 08:07:15 | 02:55:06 | 00:00:00 | |
| BIOWL1-15 | 2026-08-31 01:13:03 | 52.20976 | 8.45821 | 67° | 38km/h | 1947m | -6.8m/s | 6°C | 99.6% | 805.1hPa | 2.6V | 08:08:06 | 02:55:05 | 00:00:00 | |
| DO2JMG | 2026-08-31 01:13:03 | 52.21000 | 8.45903 | 64° | 37km/h | 1907m | -6.8m/s | 6.2°C | 100% | 809.1hPa | 2.6V | 08:07:15 | 02:55:11 | 00:00:00 | |
| DO2JMG | 2026-08-31 01:13:02 | 52.20996 | 8.45889 | 63° | 37km/h | 1914m | -6.9m/s | 6.2°C | 100% | 808.4hPa | 2.6V | 08:07:15 | 02:55:10 | 00:00:00 | |
| DO2JMG | 2026-08-31 01:13:00 | 52.20988 | 8.45863 | 65° | 37km/h | 1927m | -6.8m/s | 6.1°C | 100% | 807hPa | 2.6V | 08:07:15 | 02:55:08 | 00:00:00 | |
| DJ2DS-15 | 2026-08-31 01:12:59 | 52.20980 | 8.45835 | 65° | 37km/h | 1940m | -6.9m/s | 6.0°C | 97.5% | 805.7hPa | 2.6V | 00:00:00 | 00:00:00 | 00:00:00 | |
| DM0DOS-11 | 2026-08-31 01:12:58 | 52.20972 | 8.45807 | 65° | 38km/h | 1954m | -6.8m/s | 5.9°C | 97.8% | 804.4hPa | 2.6V | 08:07:17 | 02:55:04 | 00:00:00 | |
| DM0DOS-11 | 2026-08-31 01:12:58 | 52.20964 | 8.45778 | 65° | 38km/h | 1967m | -6.7m/s | 5.9°C | 97.7% | 803.2hPa | 2.6V | 08:07:19 | 02:55:02 | 00:00:00 | |
| DO2JMG | 2026-08-31 01:12:58 | 52.20980 | 8.45835 | 65° | 37km/h | 1940m | -6.9m/s | 6°C | 100% | 805.7hPa | 2.6V | 08:07:15 | 02:55:06 | 00:00:00 | |
| DO2JMG | 2026-08-31 01:12:56 | 52.20972 | 8.45806 | 66° | 38km/h | 1954m | -6.8m/s | 5.9°C | 99% | 804.4hPa | 2.6V | 08:08:06 | 02:55:04 | 00:00:00 | |
| BIOWL1-15 | 2026-08-31 01:12:56 | 52.20964 | 8.45778 | 66° | 38km/h | 1967m | -6.7m/s | 5.9°C | 98.7% | 803.2hPa | 2.6V | 08:08:06 | 02:55:02 | 00:00:00 | |
| DO2JMG | 2026-08-31 01:12:55 | 52.20968 | 8.45792 | 67° | 38km/h | 1961m | -6.9m/s | 5.9°C | 99% | 803.8hPa | 2.6V | 08:08:06 | 02:55:03 | 00:00:00 | |
| DM0DOS-11 | 2026-08-31 01:12:53 | 52.20957 | 8.45749 | 65° | 38km/h | 1981m | -6.6m/s | 5.9°C | 97.7% | 801.8hPa | 2.6V | 08:07:21 | 02:55:00 | 00:00:00 | |
| DO2JMG | 2026-08-31 01:12:53 | 52.20961 | 8.45764 | 67° | 38km/h | 1974m | -6.6m/s | 5.9°C | 98.6% | 802.2hPa | 2.6V | 08:08:06 | 02:55:01 | 00:00:00 | |
| DO2JMG | 2026-08-31 01:12:52 | 52.20957 | 8.45749 | 66° | 38km/h | 1981m | -6.6m/s | 5.9°C | 98.7% | 801.8hPa | 2.6V | 08:08:06 | 02:55:00 | 00:00:00 | |
| BIOWL1-15 | 2026-08-31 01:12:51 | 52.20953 | 8.45735 | 67° | 38km/h | 1988m | -6.8m/s | 6°C | 98% | 801.2hPa | 2.6V | 08:08:06 | 02:54:59 | 00:00:00 | |
| DO2JMG | 2026-08-31 01:12:50 | 52.20949 | 8.45721 | 65° | 38km/h | 1994m | -6.6m/s | 6°C | 96.7% | 800.5hPa | 2.6V | 08:08:06 | 02:54:58 | 00:00:00 | |
| BIOWL1-15 | 2026-08-31 01:12:49 | 52.20929 | 8.45650 | 65° | 38km/h | 2027m | -6.7m/s | 5.9°C | 95.5% | 797.3hPa | 2.6V | 08:08:06 | 02:54:53 | 00:00:00 | |
| DM0DOS-11 | 2026-08-31 01:12:48 | 52.20937 | 8.45679 | 65° | 38km/h | 2014m | -6.6m/s | 6°C | 93.7% | 798.6hPa | 2.6V | 08:07:26 | 02:54:55 | 00:00:00 | |
| DO2JMG | 2026-08-31 01:12:44 | 52.20925 | 8.45635 | 65° | 38km/h | 2034m | -6.7m/s | 5.8°C | 95.4% | 796.6hPa | 2.6V | 08:08:06 | 02:54:52 | 00:00:00 | |
| DM0DOS-11 | 2026-08-31 01:12:43 | 52.20916 | 8.45606 | 65° | 38km/h | 2047m | -6.7m/s | 5.7°C | 93.6% | 795.3hPa | 2.6V | 08:07:31 | 02:54:50 | 00:00:00 | |
| BIOWL1-15 | 2026-08-31 01:12:39 | 52.20887 | 8.45501 | 65° | 42km/h | 2093m | -6.5m/s | 5.4°C | 95.7% | 790.8hPa | 2.5V | 08:08:06 | 02:54:43 | 00:00:00 | |
| DM0DOS-11 | 2026-08-31 01:12:38 | 52.20895 | 8.45532 | 64° | 40km/h | 2080m | -6.6m/s | 5.5°C | 93.8% | 792.1hPa | 2.6V | 08:07:36 | 02:54:45 | 00:00:00 | |
| DO2JMG | 2026-08-31 01:12:33 | 52.20878 | 8.45470 | 64° | 42km/h | 2106m | -6.7m/s | 5.3°C | 96% | 789.6hPa | 2.6V | 08:08:06 | 02:54:41 | 00:00:00 | |
| BIOWL1-15 | 2026-08-31 01:12:28 | 52.20854 | 8.45392 | 63° | 44km/h | 2138m | -6.4m/s | 5.1°C | 96.3% | 786.5hPa | 2.6V | 08:08:06 | 02:54:36 | 00:00:00 | |
| DO2JMG | 2026-08-31 01:12:23 | 52.20829 | 8.45310 | 63° | 46km/h | 2171m | -6.5m/s | 4.9°C | 96.6% | 783.3hPa | 2.5V | 08:08:06 | 02:54:31 | 00:00:00 | |
| BIOWL1-15 | 2026-08-31 01:12:21 | 52.20799 | 8.45209 | 64° | 46km/h | 2209m | -6.4m/s | 4.6°C | 96.4% | 779.6hPa | 2.5V | 08:08:06 | 02:54:25 | 00:00:00 | |
| DD8BA-10 | 2026-08-31 01:12:21 | 52.20819 | 8.45277 | 64° | 46km/h | 2184m | -6.6m/s | 4.7°C | 94.9% | 782.1hPa | 2.5V | 00:00:00 | 00:00:00 | 00:00:00 | |
| DJ2DS-15 | 2026-08-31 01:12:20 | 52.20814 | 8.45260 | 65° | 47km/h | 2190m | -6.5m/s | 4.7°C | 95.2% | 781.5hPa | 2.5V | 00:00:00 | 02:54:28 | 00:00:00 | |
| DK9SH | 2026-08-31 01:12:19 | 52.20814 | 8.45260 | 65° | 46km/h | 2190m | -6.6m/s | 4.7°C | 93.3% | 781.6hPa | 2.5V | 00:00:00 | 00:00:00 | 00:00:00 | |
| DM0DOS-11 | 2026-08-31 01:12:18 | 52.20798 | 8.45209 | 64° | 46km/h | 2209m | -6.4m/s | 4.6°C | 95.1% | 779.6hPa | 2.5V | 08:07:56 | 02:54:25 | 00:00:00 | |
| DO9LL-15 | 2026-08-31 01:12:18 | 52.20803 | 8.45226 | 66° | 47km/h | 2203m | -6.3m/s | 4.6°C | 95.0% | 780.2hPa | 2.6V | 00:00:00 | 02:54:26 | 00:00:00 | |
| DL3AQ-11 | 2026-08-31 01:12:16 | 52.20788 | 8.45174 | 64° | 46km/h | 2222m | -6.8m/s | 4.6°C | 93.2% | 778.4hPa | 2.6V | 00:00:00 | 00:00:00 | 00:00:00 | |
| DM0DOS-11 | 2026-08-31 01:12:13 | 52.20773 | 8.45121 | 64° | 47km/h | 2241m | -6.4m/s | 4.5°C | 95.5% | 776.7hPa | 2.6V | 08:08:01 | 02:54:20 | 00:00:00 | |
| DO2JMG | 2026-08-31 01:12:12 | 52.20773 | 8.45121 | 64° | 47km/h | 2241m | -6.4m/s | 4.5°C | 97.1% | 776.7hPa | 2.6V | 08:08:06 | 02:54:20 | 00:00:00 | |
| DD8BA-10 | 2026-08-31 01:12:11 | 52.20768 | 8.45103 | 65° | 47km/h | 2248m | -6.4m/s | 4.4°C | 95.8% | 776.1hPa | 2.6V | 00:00:00 | 00:00:00 | 00:00:00 | |
| DM0DOS-11 | 2026-08-31 01:12:08 | 52.20746 | 8.45031 | 64° | 49km/h | 2273m | -6.4m/s | 4.3°C | 95.5% | 773.5hPa | 2.6V | 08:08:06 | 02:54:15 | 00:00:00 | |
| BIOWL1-15 | 2026-08-31 01:12:07 | 52.20746 | 8.45031 | 65° | 49km/h | 2273m | -6.4m/s | 4.3°C | 96.8% | 773.5hPa | 2.6V | 08:08:06 | 02:54:15 | 00:00:00 | |
| DL4BBY-15 | 2026-08-31 01:12:06 | 52.20741 | 8.45013 | 65° | 49km/h | 2280m | -6.3m/s | 1.4°C | 0% | 0hPa | 2.6V | 00:00:00 | 00:00:00 | 00:00:00 | |
| DD1CC2-15 | 2026-08-31 01:12:04 | 52.20736 | 8.44995 | 66° | 49km/h | 2286m | -6.0m/s | 4.2°C | 94.3% | 772.4hPa | 2.6V | 00:00:00 | 00:00:00 | 00:00:00 | |
| DM0DOS-11 | 2026-08-31 01:12:03 | 52.20720 | 8.44942 | 64° | 47km/h | 2304m | -6.5m/s | 4.1°C | 96.7% | 770.5hPa | 2.6V | 08:08:11 | 02:54:10 | 00:00:00 | |
| DL3AQ-11 | 2026-08-31 01:12:03 | 52.20720 | 8.44942 | 64° | 47km/h | 2304m | -6.6m/s | 4.1°C | 94.7% | 770.5hPa | 2.6V | 00:00:00 | 00:00:00 | 00:00:00 | |
| DD8BA-10 | 2026-08-31 01:12:01 | 52.20715 | 8.44924 | 64° | 49km/h | 2311m | -6.4m/s | 4.0°C | 96.8% | 770.0hPa | 2.6V | 08:08:00 | 00:00:00 | 00:00:00 | |
| DO2JMG | 2026-08-31 01:12:01 | 52.20715 | 8.44924 | 64° | 49km/h | 2311m | -6.4m/s | 4°C | 98% | 770hPa | 2.6V | 08:08:57 | 02:54:09 | 00:00:00 | |
| DJ2DS-15 | 2026-08-31 01:12:00 | 52.20709 | 8.44906 | 65° | 49km/h | 2317m | -6.4m/s | 4.0°C | 96.7% | 769.5hPa | 2.5V | 00:00:00 | 02:54:08 | 00:00:00 | |
| DM0DOS-11 | 2026-08-31 01:11:58 | 52.20694 | 8.44851 | 64° | 49km/h | 2336m | -6.6m/s | 3.9°C | 96% | 767.6hPa | 2.5V | 08:08:16 | 02:54:05 | 00:00:00 | |
| BIOWL1-15 | 2026-08-31 01:11:56 | 52.20683 | 8.44815 | 63° | 49km/h | 2349m | -6.7m/s | 3.8°C | 96.4% | 766.4hPa | 2.6V | 08:08:57 | 02:54:03 | 00:00:00 | |
| DL1XH-west | 2026-08-31 01:11:54 | 52.20677 | 8.44796 | 64° | 49km/h | 2356m | -6.6m/s | 3.8°C | 96.4% | 765.7hPa | 2.6V | 08:08:57 | 02:54:02 | 00:00:00 | |
| DM0DOS-11 | 2026-08-31 01:11:53 | 52.20666 | 8.44759 | 64° | 51km/h | 2369m | -6.8m/s | 3.7°C | 95.4% | 764.5hPa | 2.6V | 08:08:21 | 02:54:00 | 00:00:00 | |
| DO2JMG | 2026-08-31 01:11:51 | 52.20660 | 8.44741 | 64° | 51km/h | 2376m | -6.8m/s | 3.6°C | 97.2% | 763.9hPa | 2.5V | 08:08:57 | 02:53:59 | 00:00:00 | |
| BIOWL1-15 | 2026-08-31 01:11:48 | 52.20631 | 8.44647 | 62° | 51km/h | 2409m | -6.8m/s | 3.4°C | 95.3% | 760.7hPa | 2.6V | 08:08:57 | 02:53:54 | 00:00:00 | |
| DJ2DS-15 | 2026-08-31 01:11:47 | 52.20625 | 8.44628 | 62° | 51km/h | 2415m | -6.7m/s | 3.3°C | 91.9% | 760.2hPa | 2.6V | 00:00:00 | 00:00:00 | 00:00:00 | |
| BIOWL7-15 | 2026-08-31 01:11:46 | 52.20631 | 8.44647 | 63° | 51km/h | 2409m | -6.8m/s | 3.4°C | 91.6% | 760.7hPa | 2.6V | 00:00:00 | 00:00:00 | 00:00:00 | |
| DL1XH1-15 | 2026-08-31 01:11:44 | 52.20613 | 8.44590 | 63° | 51km/h | 2428m | -6.7m/s | 3.2°C | 92.7% | 758.8hPa | 2.6V | 08:08:30 | 02:53:51 | 00:00:00 | |
| DM0DOS-11 | 2026-08-31 01:11:43 | 52.20607 | 8.44572 | 62° | 51km/h | 2435m | -6.4m/s | 3.2°C | 93.7% | 758.2hPa | 2.6V | 08:08:31 | 02:53:50 | 00:00:00 | |
| DL1XH-west | 2026-08-31 01:11:43 | 52.20613 | 8.44590 | 63° | 51km/h | 2428m | -6.7m/s | 3.3°C | 94.6% | 758.8hPa | 2.6V | 08:08:57 | 02:53:51 | 00:00:00 | |
| DO2JMG | 2026-08-31 01:11:40 | 52.20596 | 8.44534 | 63° | 51km/h | 2448m | -6.6m/s | 3.1°C | 96.2% | 757.1hPa | 2.6V | 08:08:57 | 02:53:48 | 00:00:00 | |
| DD1CC8 | 2026-08-31 01:11:40 | 52.20590 | 8.44515 | 63° | 51km/h | 2454m | -6.8m/s | 3.0°C | 92.6% | 756.5hPa | 2.5V | 00:00:00 | 00:00:00 | 00:00:00 | |
| DO9LL-15 | 2026-08-31 01:11:38 | 52.20584 | 8.44497 | 65° | 51km/h | 2461m | -6.7m/s | 3.0°C | 93.6% | 755.8hPa | 2.5V | 00:00:00 | 02:53:46 | 00:00:00 | |
| DM0DOS-11 | 2026-08-31 01:11:37 | 52.20549 | 8.44387 | 60° | 49km/h | 2501m | -6.5m/s | 3°C | 87.8% | 752.1hPa | 2.5V | 08:08:41 | 02:53:40 | 00:00:00 | |
| BIOWL1-15 | 2026-08-31 01:11:36 | 52.20511 | 8.44278 | 61° | 49km/h | 2539m | -6.5m/s | 2.6°C | 94.4% | 748.5hPa | 2.5V | 08:08:57 | 02:53:34 | 00:00:00 | |
| DL1XH-west | 2026-08-31 01:11:32 | 52.20549 | 8.44387 | 60° | 49km/h | 2501m | -6.5m/s | 3°C | 91% | 752.1hPa | 2.5V | 08:08:57 | 02:53:40 | 00:00:00 | |
| BIOWL1-15 | 2026-08-31 01:11:29 | 52.20505 | 8.44260 | 62° | 49km/h | 2545m | -6.5m/s | 2.6°C | 94.3% | 747.9hPa | 2.6V | 08:08:57 | 02:53:33 | 00:00:00 | |
| DO2JMG | 2026-08-31 01:11:29 | 52.20530 | 8.44333 | 61° | 51km/h | 2520m | -6.4m/s | 2.8°C | 93.2% | 750.2hPa | 2.6V | 08:08:57 | 02:53:37 | 00:00:00 | |
| DK9SH | 2026-08-31 01:11:27 | 52.20523 | 8.44314 | 61° | 51km/h | 2526m | -6.7m/s | 2.7°C | 89.0% | 749.7hPa | 2.5V | 00:00:00 | 00:00:00 | 00:00:00 | |
| DM0DOS-11 | 2026-08-31 01:11:26 | 52.20473 | 8.44170 | 59° | 49km/h | 2580m | -7.2m/s | 2.2°C | 94.5% | 744.8hPa | 2.5V | 08:08:53 | 02:53:28 | 00:00:00 | |
| DL1XH-west | 2026-08-31 01:11:22 | 52.20486 | 8.44206 | 60° | 49km/h | 2566m | -6.6m/s | 2.4°C | 97% | 746.1hPa | 2.6V | 08:08:57 | 02:53:30 | 00:00:00 | |
| DO2JMG | 2026-08-31 01:11:18 | 52.20460 | 8.44135 | 59° | 49km/h | 2594m | -7.2m/s | 2.1°C | 98% | 743.5hPa | 2.6V | 08:08:57 | 02:53:26 | 00:00:00 | |
| BIOWL1-15 | 2026-08-31 01:11:17 | 52.20440 | 8.44082 | 59° | 51km/h | 2615m | -7.5m/s | 1.9°C | 99.8% | 741.5hPa | 2.5V | 08:09:48 | 02:53:23 | 00:00:00 | |
| DM0DOS-11 | 2026-08-31 01:11:15 | 52.20440 | 8.44082 | 58° | 51km/h | 2615m | -7.5m/s | 1.9°C | 97.9% | 741.5hPa | 2.5V | 08:08:58 | 02:53:23 | 00:00:00 | |
| DL1XH-west | 2026-08-31 01:11:12 | 52.20420 | 8.44030 | 56° | 49km/h | 2637m | -7.1m/s | 1.7°C | 100% | 739.6hPa | 2.6V | 08:09:48 | 02:53:20 | 00:00:00 | |
| DM0DOS-11 | 2026-08-31 01:11:10 | 52.20406 | 8.43996 | 55° | 49km/h | 2650m | -6.4m/s | 1.6°C | 0% | 738.3hPa | 2.5V | 08:09:03 | 02:53:18 | 00:00:00 | |
| DO2JMG | 2026-08-31 01:11:07 | 52.20384 | 8.43947 | 54° | 47km/h | 2670m | -7.2m/s | 1.4°C | 100% | 736.4hPa | 2.6V | 08:09:48 | 02:53:15 | 00:00:00 | |
| BIOWL1-15 | 2026-08-31 01:11:04 | 52.20362 | 8.43900 | 52° | 49km/h | 2690m | -6.9m/s | 1.2°C | 100% | 734.6hPa | 2.5V | 08:09:48 | 02:53:12 | 00:00:00 | |
| DL1XH1-15 | 2026-08-31 01:11:02 | 52.20331 | 8.43835 | 51° | 51km/h | 2716m | -6.6m/s | 1.1°C | 0% | 732.2hPa | 2.6V | 08:09:13 | 02:53:08 | 00:00:00 | |
| DL1XH-west | 2026-08-31 01:11:01 | 52.20339 | 8.43852 | 52° | 51km/h | 2710m | -6.7m/s | 1.1°C | 100% | 732.7hPa | 2.6V | 08:09:48 | 02:53:09 | 00:00:00 | |
| DD8BA-10 | 2026-08-31 01:11:01 | 52.20339 | 8.43851 | 52° | 51km/h | 2710m | -6.6m/s | 1.1°C | 0% | 732.7hPa | 2.6V | 00:00:00 | 00:00:00 | 00:00:00 | |
| DL1CLM-18 | 2026-08-31 01:11:00 | 52.20339 | 8.43851 | 53° | 51km/h | 2710m | -6.7m/s | 0°C | 0% | 732.7hPa | 2.6V | 00:00:00 | 00:00:00 | 00:00:00 | |
| DD1CC3-15 | 2026-08-31 01:10:59 | 52.20331 | 8.43835 | 53° | 51km/h | 2716m | -6.6m/s | 1.1°C | 110.3% | 732.2hPa | 2.6V | 08:09:00 | 00:00:00 | 00:00:00 | |
| DO9LL-15 | 2026-08-31 01:10:58 | 52.20314 | 8.43802 | 51° | 53km/h | 2728m | -5.9m/s | 0.9°C | 0% | 730.8hPa | 2.6V | 00:00:00 | 02:53:06 | 00:00:00 | |
| DL1XH1-15 | 2026-08-31 01:10:57 | 52.20290 | 8.43754 | 50° | 49km/h | 2747m | -6m/s | 0.9°C | 0% | 729.3hPa | 2.6V | 08:09:18 | 02:53:03 | 00:00:00 | |
| DO2JMG | 2026-08-31 01:10:57 | 52.20306 | 8.43786 | 50° | 51km/h | 2734m | -6.3m/s | 0.8°C | 100% | 730.5hPa | 2.5V | 08:09:48 | 02:53:05 | 00:00:00 | |
| BIOWL1-15 | 2026-08-31 01:10:54 | 52.20282 | 8.43738 | 51° | 49km/h | 2753m | -6.4m/s | 1.1°C | 100% | 728.8hPa | 2.6V | 08:09:48 | 02:53:02 | 00:00:00 | |
| DD8BA-10 | 2026-08-31 01:10:51 | 52.20258 | 8.43689 | 52° | 53km/h | 2775m | -7.1m/s | 0.8°C | 0% | 726.9hPa | 2.6V | 00:00:00 | 00:00:00 | 00:00:00 | |
| DL1XH1-15 | 2026-08-31 01:10:50 | 52.20205 | 8.43591 | 48° | 53km/h | 2812m | -6.5m/s | 0.8°C | 0% | 723.3hPa | 2.6V | 08:09:28 | 02:52:53 | 00:00:00 | |
| DL1XH-west | 2026-08-31 01:10:50 | 52.20250 | 8.43673 | 50° | 53km/h | 2782m | -7.5m/s | 0.9°C | 100% | 726.2hPa | 2.6V | 08:09:48 | 02:52:58 | 00:00:00 | |
| DO2JMG | 2026-08-31 01:10:46 | 52.20214 | 8.43607 | 47° | 53km/h | 2806m | -6.1m/s | 0.9°C | 100% | 723.8hPa | 2.5V | 08:09:48 | 02:52:54 | 00:00:00 | |
| BUE01 | 2026-08-31 01:10:45 | 52.20205 | 8.43591 | 48° | 51km/h | 2812m | -6.5m/s | 0.8°C | 100.0% | 723.3hPa | 2.6V | 00:00:00 | 00:00:00 | 00:00:00 | |
| BIOWL1-15 | 2026-08-31 01:10:43 | 52.20188 | 8.43558 | 49° | 53km/h | 2824m | -6.4m/s | 0.8°C | 100% | 722.1hPa | 2.6V | 08:09:48 | 02:52:51 | 00:00:00 | |
| DL1XH-west | 2026-08-31 01:10:39 | 52.20151 | 8.43493 | 47° | 53km/h | 2850m | -7.2m/s | 0.7°C | 100% | 719.8hPa | 2.6V | 08:09:48 | 02:52:47 | 00:00:00 | |
| DM0DOS-11 | 2026-08-31 01:10:38 | 52.20115 | 8.43432 | 44° | 53km/h | 2878m | -8.2m/s | 0.5°C | 0% | 717.4hPa | 2.5V | 08:09:38 | 02:52:43 | 00:00:00 | |
| DO2JMG | 2026-08-31 01:10:35 | 52.20115 | 8.43432 | 44° | 53km/h | 2878m | -8.2m/s | 0.5°C | 100% | 717.4hPa | 2.5V | 08:09:48 | 02:52:43 | 00:00:00 | |
| BIOWL1-15 | 2026-08-31 01:10:34 | 52.20087 | 8.43388 | 46° | 49km/h | 2898m | -7m/s | 0.6°C | 100% | 715.7hPa | 2.6V | 08:09:48 | 02:52:40 | 00:00:00 | |
| SONCRA | 2026-08-31 01:10:33 | 52.20078 | 8.43373 | 45° | 49km/h | 2905m | -6.9m/s | 0.5°C | 100.0% | 715.1hPa | 2.6V | 00:00:00 | 00:00:00 | 00:00:00 | |
| DL3AQ-11 | 2026-08-31 01:10:32 | 52.20078 | 8.43373 | 45° | 49km/h | 2905m | -6.9m/s | 0.5°C | 100.0% | 715.1hPa | 2.6V | 00:00:00 | 00:00:00 | 00:00:00 | |
| DD8BA-10 | 2026-08-31 01:10:31 | 52.20078 | 8.43373 | 46° | 49km/h | 2905m | -6.8m/s | 0.4°C | 0% | 715.0hPa | 2.6V | 08:09:00 | 00:00:00 | 00:00:00 | |
| DB0UT-7 | 2026-08-31 01:10:30 | 52.20069 | 8.43359 | 46° | 51km/h | 2912m | -7.7m/s | 0.4°C | 0% | 714.5hPa | 2.5V | 00:00:00 | 02:52:38 | 00:00:00 | |
| DM0DOS-11 | 2026-08-31 01:10:28 | 52.20024 | 8.43288 | 43° | 49km/h | 2952m | -8.3m/s | 0.3°C | 0% | 711.3hPa | 2.5V | 08:09:48 | 02:52:33 | 00:00:00 | |
| DL1XH-west | 2026-08-31 01:10:28 | 52.20051 | 8.43330 | 42° | 51km/h | 2927m | -8.2m/s | 0.3°C | 100% | 713.3hPa | 2.6V | 08:09:48 | 02:52:36 | 00:00:00 | |
| BIOWL1-15 | 2026-08-31 01:10:25 | 52.19987 | 8.43234 | 42° | 49km/h | 2982m | -8.2m/s | 0.1°C | 100% | 708.4hPa | 2.6V | 08:10:39 | 02:52:29 | 00:00:00 | |
| DO2JMG | 2026-08-31 01:10:25 | 52.20024 | 8.43288 | 44° | 49km/h | 2952m | -8.3m/s | 0.3°C | 100% | 711.3hPa | 2.5V | 08:09:48 | 02:52:33 | 00:00:00 | |
| DL1XH-west | 2026-08-31 01:10:18 | 52.19959 | 8.43194 | 40° | 51km/h | 3007m | -9.1m/s | -0.1°C | 100% | 706.2hPa | 2.5V | 08:10:39 | 02:52:26 | 00:00:00 | |
| DL4XJ-10 | 2026-08-31 01:10:18 | 52.19959 | 8.43194 | 41° | 57km/h | 3008m | -9.1m/s | -2.8°C | 0% | 0hPa | 2.6V | 00:00:00 | 00:00:00 | 00:00:00 | |
| DL1XH1-15 | 2026-08-31 01:10:17 | 52.19930 | 8.43153 | 39° | 51km/h | 3037m | -10.4m/s | -0.1°C | 0% | 703.5hPa | 2.6V | 08:09:58 | 02:52:23 | 00:00:00 | |
| DO2JMG | 2026-08-31 01:10:15 | 52.19930 | 8.43153 | 40° | 51km/h | 3037m | -10.5m/s | -0.1°C | 100% | 703.5hPa | 2.6V | 08:10:39 | 02:52:23 | 00:00:00 | |
| DJ2DS-15 | 2026-08-31 01:10:15 | 52.19930 | 8.43153 | 40° | 58km/h | 3037m | -10.4m/s | -0.0°C | 0% | 703.5hPa | 2.6V | 00:00:00 | 02:52:23 | 00:00:00 | |
| BUE01 | 2026-08-31 01:10:14 | 52.19920 | 8.43140 | 38° | 49km/h | 3047m | -11.4m/s | -0.2°C | 100.0% | 702.8hPa | 2.6V | 00:00:00 | 00:00:00 | 00:00:00 | |
| DL1XH1-15 | 2026-08-31 01:10:12 | 52.19877 | 8.43084 | 36° | 60km/h | 3091m | -12m/s | -0.7°C | 0% | 698.9hPa | 2.6V | 08:10:03 | 02:52:18 | 00:00:00 | |
| BIOWL1-15 | 2026-08-31 01:10:11 | 52.19888 | 8.43099 | 39° | 58km/h | 3081m | -11.5m/s | -0.5°C | 100% | 699.8hPa | 2.6V | 08:10:39 | 02:52:19 | 00:00:00 | |
| DL1XH-west | 2026-08-31 01:10:08 | 52.19853 | 8.43055 | 38° | 60km/h | 3115m | -11.6m/s | -0.7°C | 100% | 696.8hPa | 2.5V | 08:10:39 | 02:52:16 | 00:00:00 | |
| DL1XH1-15 | 2026-08-31 01:10:07 | 52.19817 | 8.43013 | 37° | 58km/h | 3149m | -12.4m/s | -0.9°C | 0% | 693.9hPa | 2.6V | 08:10:08 | 02:52:13 | 00:00:00 | |
| DO2JMG | 2026-08-31 01:10:05 | 52.19817 | 8.43013 | 37° | 58km/h | 3149m | -12.4m/s | -0.9°C | 100% | 693.9hPa | 2.6V | 08:10:39 | 02:52:13 | 00:00:00 | |
| DL3AQ-11 | 2026-08-31 01:10:03 | 52.19792 | 8.42983 | 35° | 62km/h | 3174m | -12.4m/s | -1.1°C | 100.0% | 691.7hPa | 2.6V | 00:00:00 | 00:00:00 | 00:00:00 | |
| DL1XH1-15 | 2026-08-31 01:10:02 | 52.19754 | 8.42939 | 35° | 62km/h | 3209m | -12m/s | -1.4°C | 0% | 688.5hPa | 2.6V | 08:10:13 | 02:52:08 | 00:00:00 | |
| BIOWL1-15 | 2026-08-31 01:10:00 | 52.19705 | 8.42883 | 37° | 58km/h | 3256m | -11.6m/s | -1.8°C | 100% | 684.5hPa | 2.6V | 08:10:39 | 02:52:04 | 00:00:00 | |
| DL4XJ-10 | 2026-08-31 01:09:58 | 52.19729 | 8.42911 | 34° | 64km/h | 3233m | -12.3m/s | -4.3°C | 0% | 0hPa | 2.6V | 00:00:00 | 00:00:00 | 00:00:00 | |
| DL1XH1-15 | 2026-08-31 01:09:57 | 52.19693 | 8.42868 | 34° | 62km/h | 3267m | -11.5m/s | -1.9°C | 0% | 683.6hPa | 2.6V | 08:10:18 | 02:52:03 | 00:00:00 | |
| DL1XH-west | 2026-08-31 01:09:57 | 52.19717 | 8.42897 | 35° | 58km/h | 3245m | -11.6m/s | -1.7°C | 100% | 685.4hPa | 2.5V | 08:10:39 | 02:52:05 | 00:00:00 | |
| DO2JMG | 2026-08-31 01:09:54 | 52.19680 | 8.42853 | 37° | 66km/h | 3279m | -11m/s | -1.9°C | 100% | 682.6hPa | 2.6V | 08:10:39 | 02:52:02 | 00:00:00 | |
| DL1XH1-15 | 2026-08-31 01:09:52 | 52.19629 | 8.42792 | 38° | 62km/h | 3323m | -11.5m/s | -2.1°C | 0% | 678.7hPa | 2.6V | 08:10:23 | 02:51:58 | 00:00:00 | |
| GOEST3-10 | 2026-08-31 01:09:52 | 52.19654 | 8.42821 | 36° | 64km/h | 3301m | -11.4m/s | -1.9°C | 0% | 680.6hPa | 2.6V | 00:00:00 | 02:52:00 | 00:00:00 | |
| DD8BA-10 | 2026-08-31 01:09:51 | 52.19641 | 8.42806 | 36° | 64km/h | 3312m | -11.0m/s | -1.9°C | 0% | 679.7hPa | 2.6V | 00:00:00 | 00:00:00 | 00:00:00 | |
| DO9LL-15 | 2026-08-31 01:09:48 | 52.19604 | 8.42761 | 34° | 69km/h | 3345m | -11.4m/s | -2.4°C | 0% | 676.9hPa | 2.6V | 00:00:00 | 02:51:56 | 00:00:00 | |
| DL1XH1-15 | 2026-08-31 01:09:47 | 52.19564 | 8.42715 | 35° | 66km/h | 3380m | -11.3m/s | -2.5°C | 0% | 674.1hPa | 2.6V | 08:10:28 | 02:51:53 | 00:00:00 | |
| DL1XH-west | 2026-08-31 01:09:47 | 52.19591 | 8.42747 | 36° | 66km/h | 3357m | -12m/s | -2.4°C | 99% | 676hPa | 2.5V | 08:10:39 | 02:51:55 | 00:00:00 | |
| DO2JMG | 2026-08-31 01:09:44 | 52.19551 | 8.42699 | 36° | 66km/h | 3391m | -11.1m/s | -2.6°C | 97.6% | 673hPa | 2.6V | 08:10:39 | 02:51:52 | 00:00:00 | |
| BUE01 | 2026-08-31 01:09:43 | 52.19537 | 8.42684 | 33° | 64km/h | 3401m | -11.3m/s | -2.7°C | 0% | 672.1hPa | 2.6V | 00:00:00 | 00:00:00 | 00:00:00 | |
| DL1XH1-15 | 2026-08-31 01:09:42 | 52.19497 | 8.42637 | 35° | 66km/h | 3436m | -11.7m/s | -2.8°C | 0% | 669.3hPa | 2.6V | 08:10:33 | 02:51:48 | 00:00:00 | |
| DD8BA-10 | 2026-08-31 01:09:41 | 52.19510 | 8.42653 | 37° | 66km/h | 3424m | -11.6m/s | -2.8°C | 0% | 670.3hPa | 2.6V | 00:00:00 | 00:00:00 | 00:00:00 | |
| DB0UT-7 | 2026-08-31 01:09:40 | 52.19497 | 8.42637 | 36° | 71km/h | 3436m | -11.7m/s | -2.8°C | 0% | 669.3hPa | 2.6V | 00:00:00 | 02:51:48 | 00:00:00 | |
| DD1CC2-15 | 2026-08-31 01:09:39 | 52.19497 | 8.42637 | 37° | 66km/h | 3436m | -11.7m/s | -2.8°C | 100.1% | 669.3hPa | 2.6V | 08:10:00 | 00:00:00 | 00:00:00 | |
| DL4XJ-10 | 2026-08-31 01:09:38 | 52.19471 | 8.42605 | 37° | 71km/h | 3458m | -11.3m/s | -5.9°C | 0% | 0hPa | 2.6V | 00:00:00 | 00:00:00 | 00:00:00 | |
| DL1XH1-15 | 2026-08-31 01:09:37 | 52.19432 | 8.42556 | 37° | 66km/h | 3490m | -10.8m/s | -3.3°C | 0% | 664.6hPa | 2.6V | 08:10:38 | 02:51:43 | 00:00:00 | |
| DL1XH-west | 2026-08-31 01:09:36 | 52.19445 | 8.42573 | 37° | 66km/h | 3480m | -10.8m/s | -3.3°C | 98.3% | 665.6hPa | 2.6V | 08:10:39 | 02:51:44 | 00:00:00 | |
| BIOWL1-15 | 2026-08-31 01:09:35 | 52.19380 | 8.42481 | 44° | 71km/h | 3532m | -11.3m/s | -2.8°C | 70.2% | 661.2hPa | 2.5V | 08:11:30 | 02:51:39 | 00:00:00 | |
| DO2JMG | 2026-08-31 01:09:33 | 52.19406 | 8.42520 | 42° | 69km/h | 3511m | -10.6m/s | -3.6°C | 96.3% | 663hPa | 2.6V | 08:11:30 | 02:51:41 | 00:00:00 | |
| DD8BA-10 | 2026-08-31 01:09:31 | 52.19380 | 8.42481 | 45° | 73km/h | 3532m | -11.3m/s | -2.8°C | 0% | 661.1hPa | 2.5V | 00:00:00 | 00:00:00 | 00:00:00 | |
| DO3DL | 2026-08-31 01:09:28 | 52.19355 | 8.42439 | 48° | 73km/h | 3553m | -10.3m/s | -2.9°C | 71.4% | 659.4hPa | 2.5V | 08:11:00 | 00:00:00 | 00:00:00 | |
| DL1XH1-15 | 2026-08-31 01:09:27 | 52.19305 | 8.42351 | 48° | 71km/h | 3596m | -11.7m/s | -1.9°C | 44.7% | 655.7hPa | 2.5V | 08:10:48 | 02:51:33 | 00:00:00 | |
| DL1XH-west | 2026-08-31 01:09:26 | 52.19317 | 8.42373 | 46° | 71km/h | 3585m | -11.3m/s | -1.5°C | 42.1% | 656.6hPa | 2.5V | 08:11:30 | 02:51:34 | 00:00:00 | |
| BIOWL1-15 | 2026-08-31 01:09:24 | 52.19292 | 8.42329 | 46° | 73km/h | 3607m | -12.1m/s | -1.7°C | 43% | 654.8hPa | 2.6V | 08:11:30 | 02:51:32 | 00:00:00 | |
| DO2JMG | 2026-08-31 01:09:23 | 52.19280 | 8.42307 | 50° | 71km/h | 3619m | -12m/s | -1.7°C | 41.8% | 653.9hPa | 2.6V | 08:11:30 | 02:51:31 | 00:00:00 | |
| BIOWL1-15 | 2026-08-31 01:09:19 | 52.19157 | 8.42077 | 49° | 73km/h | 3733m | -11.6m/s | -1.7°C | 30.5% | 644.6hPa | 2.5V | 08:11:30 | 02:51:21 | 00:00:00 | |
| DM0DOS-11 | 2026-08-31 01:09:18 | 52.19183 | 8.42123 | 47° | 78km/h | 3709m | -12.6m/s | -1.5°C | 26.8% | 646.5hPa | 2.5V | 08:10:58 | 02:51:23 | 00:00:00 | |
| DL1XH-west | 2026-08-31 01:09:15 | 52.19183 | 8.42123 | 48° | 78km/h | 3709m | -12.6m/s | -1.5°C | 30.6% | 646.5hPa | 2.5V | 08:11:30 | 02:51:23 | 00:00:00 | |
| DJ2DS-15 | 2026-08-31 01:09:15 | 52.19182 | 8.42123 | 48° | 73km/h | 3709m | -12.5m/s | -1.5°C | 26.8% | 646.4hPa | 2.6V | 00:00:00 | 02:51:23 | 00:00:00 | |
| DL1XH1-15 | 2026-08-31 01:09:13 | 52.19120 | 8.42010 | 48° | 75km/h | 3766m | -11.3m/s | -1.9°C | 26.7% | 642hPa | 2.6V | 08:11:03 | 02:51:18 | 00:00:00 | |
| DO2JMG | 2026-08-31 01:09:12 | 52.19145 | 8.42055 | 47° | 75km/h | 3744m | -11.5m/s | -1.8°C | 30.5% | 643.7hPa | 2.6V | 08:11:30 | 02:51:20 | 00:00:00 | |
| DL1XH-west | 2026-08-31 01:09:05 | 52.19058 | 8.41901 | 48° | 75km/h | 3821m | -11.1m/s | -2.4°C | 31.2% | 637.5hPa | 2.6V | 08:11:30 | 02:51:13 | 00:00:00 | |
| BIOWL1-15 | 2026-08-31 01:09:03 | 52.18969 | 8.41751 | 44° | 73km/h | 3896m | -12m/s | -2.5°C | 24.5% | 631.2hPa | 2.6V | 08:11:30 | 02:51:06 | 00:00:00 | |
| DL1XH1-15 | 2026-08-31 01:09:02 | 52.18994 | 8.41793 | 44° | 69km/h | 3875m | -11.1m/s | -2.6°C | 25.5% | 633.1hPa | 2.5V | 08:11:13 | 02:51:08 | 00:00:00 | |
| DO2JMG | 2026-08-31 01:09:01 | 52.19007 | 8.41815 | 46° | 75km/h | 3864m | -11.5m/s | -2.6°C | 29.3% | 633.9hPa | 2.5V | 08:11:30 | 02:51:09 | 00:00:00 | |
| DL1XH-west | 2026-08-31 01:08:54 | 52.18918 | 8.41665 | 45° | 71km/h | 3940m | -11.8m/s | -2.7°C | 24.7% | 627.9hPa | 2.5V | 08:11:30 | 02:51:02 | 00:00:00 | |
| GOEST3-10 | 2026-08-31 01:08:53 | 52.18906 | 8.41644 | 47° | 71km/h | 3951m | -11.4m/s | -2.7°C | 21.9% | 627.1hPa | 2.6V | 00:00:00 | 02:51:01 | 00:00:00 | |
| DL1XH1-15 | 2026-08-31 01:08:52 | 52.18869 | 8.41579 | 49° | 71km/h | 3984m | -10.6m/s | -3.1°C | 22.3% | 624.4hPa | 2.6V | 08:11:23 | 02:50:58 | 00:00:00 | |
| DO2JMG | 2026-08-31 01:08:51 | 52.18881 | 8.41601 | 49° | 73km/h | 3974m | -10.8m/s | -3°C | 25% | 625.3hPa | 2.6V | 08:11:30 | 02:50:59 | 00:00:00 | |
| BIOWL1-15 | 2026-08-31 01:08:50 | 52.18869 | 8.41579 | 49° | 71km/h | 3984m | -10.6m/s | -3.1°C | 25.3% | 624.4hPa | 2.6V | 08:11:30 | 02:50:58 | 00:00:00 | |
| DJ2DS-15 | 2026-08-31 01:08:46 | 52.18822 | 8.41491 | 49° | 71km/h | 4028m | -11.5m/s | -3.5°C | 22.0% | 621.0hPa | 2.6V | 00:00:00 | 00:00:00 | 00:00:00 | |
| DL1XH-west | 2026-08-31 01:08:44 | 52.18799 | 8.41447 | 49° | 69km/h | 4050m | -12.2m/s | -3.5°C | 24.4% | 619.2hPa | 2.6V | 08:11:30 | 02:50:52 | 00:00:00 | |
| DO2JMG | 2026-08-31 01:08:41 | 52.18769 | 8.41381 | 53° | 66km/h | 4084m | -12m/s | -3°C | 17.2% | 616.6hPa | 2.6V | 08:12:21 | 02:50:49 | 00:00:00 | |
| DM0DOS-11 | 2026-08-31 01:08:40 | 52.18759 | 8.41358 | 56° | 68km/h | 4096m | -11.8m/s | -3°C | 15% | 615.8hPa | 2.5V | 08:11:33 | 02:50:48 | 00:00:00 | |
| DM0DOS-11 | 2026-08-31 01:08:40 | 52.18711 | 8.41247 | 54° | 68km/h | 4152m | -11.1m/s | -3.4°C | 13.4% | 611.4hPa | 2.6V | 08:11:38 | 02:50:43 | 00:00:00 | |
| HSKMA3-T | 2026-08-31 01:08:40 | 52.18759 | 8.41358 | 56° | 68km/h | 4096m | -11.8m/s | -3°C | 17.2% | 615.8hPa | 2.5V | 08:15:45 | 02:50:48 | 00:00:00 | |
| DB0UT-7 | 2026-08-31 01:08:40 | 52.18759 | 8.41358 | 57° | 68km/h | 4096m | -11.8m/s | -3.0°C | 15.0% | 615.7hPa | 2.6V | 00:00:00 | 02:50:48 | 00:00:00 | |
| DO3DL | 2026-08-31 01:08:39 | 52.18759 | 8.41358 | 57° | 68km/h | 4096m | -11.8m/s | -3.0°C | 14.5% | 615.8hPa | 2.6V | 08:12:00 | 00:00:00 | 00:00:00 | |
| DL4XJ-10 | 2026-08-31 01:08:38 | 52.18740 | 8.41314 | 57° | 68km/h | 4119m | -11.4m/s | -5.8°C | 0% | 0hPa | 2.6V | 00:00:00 | 00:00:00 | 00:00:00 | |
| DL1LOL-11 | 2026-08-31 01:08:37 | 52.18730 | 8.41291 | 55° | 66km/h | 4130m | -11.6m/s | -3.2°C | 13.6% | 613.1hPa | 2.6V | 08:12:00 | 00:00:00 | 00:00:00 | |
| DK9SH | 2026-08-31 01:08:36 | 52.18721 | 8.41269 | 58° | 66km/h | 4141m | -11.2m/s | -3.3°C | 13.0% | 612.3hPa | 2.6V | 08:12:00 | 00:00:00 | 00:00:00 | |
| DL1XH1-15 | 2026-08-31 01:08:35 | 52.18663 | 8.41135 | 52° | 66km/h | 4206m | -11.4m/s | -3.8°C | 12.5% | 607.2hPa | 2.6V | 08:11:43 | 02:50:38 | 00:00:00 | |
| DL1XH-west | 2026-08-31 01:08:33 | 52.18692 | 8.41202 | 55° | 68km/h | 4173m | -11.4m/s | -3.5°C | 14.2% | 609.7hPa | 2.5V | 08:12:21 | 02:50:41 | 00:00:00 | |
| DL3AQ-11 | 2026-08-31 01:08:32 | 52.18673 | 8.41157 | 55° | 68km/h | 4194m | -11.4m/s | -3.8°C | 12.1% | 608.0hPa | 2.5V | 00:00:00 | 00:00:00 | 00:00:00 | |
| DD8BA-10 | 2026-08-31 01:08:31 | 52.18673 | 8.41157 | 56° | 68km/h | 4195m | -11.4m/s | -3.7°C | 12.6% | 608.0hPa | 2.5V | 00:00:00 | 00:00:00 | 00:00:00 | |
| DL1XH1-15 | 2026-08-31 01:08:30 | 52.18613 | 8.41022 | 55° | 68km/h | 4260m | -11.3m/s | -4.3°C | 12.1% | 603.1hPa | 2.6V | 08:11:48 | 02:50:33 | 00:00:00 | |
| DO2JMG | 2026-08-31 01:08:30 | 52.18663 | 8.41135 | 53° | 66km/h | 4206m | -11.4m/s | -3.8°C | 13.9% | 607.2hPa | 2.6V | 08:12:21 | 02:50:38 | 00:00:00 | |
| BIOWL1-15 | 2026-08-31 01:08:29 | 52.18653 | 8.41112 | 55° | 68km/h | 4217m | -11.3m/s | -3.9°C | 13.3% | 606.4hPa | 2.6V | 08:12:21 | 02:50:37 | 00:00:00 | |
| SONCRA | 2026-08-31 01:08:29 | 52.18653 | 8.41112 | 55° | 68km/h | 4217m | -11.3m/s | -3.9°C | 11.5% | 606.4hPa | 2.5V | 00:00:00 | 00:00:00 | 00:00:00 | |
| GOEST3-10 | 2026-08-31 01:08:28 | 52.18643 | 8.41090 | 53° | 68km/h | 4227m | -11.5m/s | -4.0°C | 11.8% | 605.5hPa | 2.5V | 00:00:00 | 00:00:00 | 00:00:00 | |
| DO3DL | 2026-08-31 01:08:27 | 52.18643 | 8.41090 | 53° | 68km/h | 4227m | -11.5m/s | -4.0°C | 11.3% | 605.6hPa | 2.5V | 08:12:00 | 00:00:00 | 00:00:00 | |
| DL1XH1-15 | 2026-08-31 01:08:25 | 52.18562 | 8.40908 | 52° | 68km/h | 4313m | -11.4m/s | -4.7°C | 12.4% | 598.9hPa | 2.5V | 08:11:53 | 02:50:28 | 00:00:00 | |
| DL1XH-west | 2026-08-31 01:08:22 | 52.18582 | 8.40954 | 53° | 66km/h | 4292m | -11.1m/s | -4.6°C | 14.5% | 600.7hPa | 2.5V | 08:12:21 | 02:50:30 | 00:00:00 | |
| DO2JMG | 2026-08-31 01:08:19 | 52.18551 | 8.40885 | 53° | 71km/h | 4324m | -10.8m/s | -4.8°C | 12.4% | 598.1hPa | 2.6V | 08:12:21 | 02:50:27 | 00:00:00 | |
| DL4XJ-10 | 2026-08-31 01:08:18 | 52.18541 | 8.40862 | 53° | 66km/h | 4335m | -11.1m/s | -7.5°C | 0% | 0hPa | 2.5V | 00:00:00 | 00:00:00 | 00:00:00 | |
| DO9LL-15 | 2026-08-31 01:08:17 | 52.18530 | 8.40840 | 54° | 64km/h | 4346m | -11.1m/s | -4.7°C | 9.7% | 596.5hPa | 2.5V | 00:00:00 | 02:50:25 | 00:00:00 | |
| DD1CC3-15 | 2026-08-31 01:08:16 | 52.18520 | 8.40817 | 54° | 66km/h | 4356m | -10.9m/s | -4.8°C | 11.2% | 595.7hPa | 2.5V | 08:12:00 | 00:00:00 | 00:00:00 | |
| DL1XH1-15 | 2026-08-31 01:08:15 | 52.18459 | 8.40684 | 51° | 69km/h | 4422m | -11.6m/s | -5.2°C | 10.8% | 590.7hPa | 2.5V | 08:12:03 | 02:50:18 | 00:00:00 | |
| DM0DOS-11 | 2026-08-31 01:08:15 | 52.18448 | 8.40662 | 50° | 64km/h | 4433m | -11.3m/s | -5.3°C | 9.8% | 589.9hPa | 2.5V | 08:12:04 | 02:50:17 | 00:00:00 | |
| DL1XH-west | 2026-08-31 01:08:11 | 52.18469 | 8.40706 | 54° | 68km/h | 4411m | -11.1m/s | -5.1°C | 12.3% | 591.7hPa | 2.5V | 08:12:21 | 02:50:19 | 00:00:00 | |
| DD8BA-10 | 2026-08-31 01:08:11 | 52.18469 | 8.40706 | 54° | 64km/h | 4411m | -11.1m/s | -5.1°C | 11.1% | 591.6hPa | 2.5V | 00:00:00 | 00:00:00 | 00:00:00 | |
| DL1XH1-15 | 2026-08-31 01:08:10 | 52.18407 | 8.40580 | 50° | 66km/h | 4476m | -11.6m/s | -5.5°C | 6.2% | 586.7hPa | 2.5V | 08:12:08 | 02:50:13 | 00:00:00 | |
| DO2JMG | 2026-08-31 01:08:09 | 52.18448 | 8.40662 | 50° | 64km/h | 4433m | -11.3m/s | -5.3°C | 10.4% | 589.9hPa | 2.5V | 08:12:21 | 02:50:17 | 00:00:00 | |
| GOEST3-10 | 2026-08-31 01:08:08 | 52.18438 | 8.40641 | 53° | 64km/h | 4444m | -10.8m/s | -5.3°C | 9.1% | 589.1hPa | 2.5V | 00:00:00 | 00:00:00 | 00:00:00 | |
| DO3DL | 2026-08-31 01:08:07 | 52.18438 | 8.40641 | 54° | 66km/h | 4444m | -10.9m/s | -5.4°C | 8.6% | 589.1hPa | 2.5V | 08:12:00 | 00:00:00 | 00:00:00 | |
| DL4BBY-15 | 2026-08-31 01:08:06 | 52.18418 | 8.40600 | 51° | 60km/h | 4465m | -11.2m/s | -8.2°C | 0% | 0hPa | 2.5V | 00:00:00 | 00:00:00 | 00:00:00 | |
| DL1XH1-15 | 2026-08-31 01:08:05 | 52.18358 | 8.40482 | 51° | 62km/h | 4531m | -11.4m/s | -5.8°C | 6.8% | 582.5hPa | 2.5V | 08:12:13 | 02:50:08 | 00:00:00 | |
| DM0DOS-11 | 2026-08-31 01:08:03 | 52.18348 | 8.40463 | 49° | 58km/h | 4542m | -11.3m/s | -5.8°C | 6.7% | 581.6hPa | 2.6V | 08:12:14 | 02:50:07 | 00:00:00 | |
| GOEST3-10 | 2026-08-31 01:08:03 | 52.18388 | 8.40540 | 50° | 62km/h | 4498m | -12.1m/s | -5.6°C | 5.8% | 585.0hPa | 2.6V | 00:00:00 | 02:50:11 | 00:00:00 | |
| DD1CC8 | 2026-08-31 01:08:02 | 52.18378 | 8.40521 | 51° | 58km/h | 4509m | -11.4m/s | -5.7°C | 5.9% | 584.2hPa | 2.5V | 00:00:00 | 00:00:00 | 00:00:00 | |
| DD8BA-10 | 2026-08-31 01:08:01 | 52.18368 | 8.40502 | 49° | 60km/h | 4520m | -12.0m/s | -5.6°C | 6.6% | 583.3hPa | 2.5V | 00:00:00 | 00:00:00 | 00:00:00 | |
| DL1XH1-15 | 2026-08-31 01:08:00 | 52.18309 | 8.40387 | 49° | 62km/h | 4586m | -11.7m/s | -6.1°C | 7% | 578.5hPa | 2.5V | 08:12:18 | 02:50:03 | 00:00:00 | |
| DL1XH-west | 2026-08-31 01:08:00 | 52.18358 | 8.40482 | 51° | 62km/h | 4531m | -11.4m/s | -5.8°C | 6.4% | 582.5hPa | 2.5V | 08:12:21 | 02:50:08 | 00:00:00 | |
| DM0DOS-11 | 2026-08-31 01:07:58 | 52.18299 | 8.40367 | 52° | 58km/h | 4598m | -11.6m/s | -6.2°C | 6.8% | 577.6hPa | 2.5V | 08:12:19 | 02:50:02 | 00:00:00 | |
| DO2JMG | 2026-08-31 01:07:58 | 52.18338 | 8.40444 | 49° | 64km/h | 4553m | -11.9m/s | -5.9°C | 6.1% | 580.9hPa | 2.6V | 08:12:21 | 02:50:06 | 00:00:00 | |
| DL4XJ-10 | 2026-08-31 01:07:58 | 52.18338 | 8.40444 | 50° | 60km/h | 4553m | -11.8m/s | -8.6°C | 0% | 0hPa | 2.6V | 00:00:00 | 00:00:00 | 00:00:00 | |
| DL1XH-15 | 2026-08-31 01:07:56 | 52.18271 | 8.40311 | 51° | 58km/h | 4631m | -11.8m/s | -6.5°C | 5.5% | 575hPa | 2.6V | 08:12:22 | 02:49:59 | 00:00:00 | |
| DL1XH1-15 | 2026-08-31 01:07:55 | 52.18261 | 8.40293 | 47° | 58km/h | 4643m | -12.5m/s | -6.5°C | 5.2% | 574.3hPa | 2.5V | 08:12:23 | 02:49:58 | 00:00:00 | |
| DJ2DS-15 | 2026-08-31 01:07:55 | 52.18309 | 8.40386 | 50° | 58km/h | 4586m | -11.7m/s | -6.1°C | 7.0% | 578.4hPa | 2.5V | 00:00:00 | 02:50:03 | 00:00:00 | |
| DM0DOS-11 | 2026-08-31 01:07:53 | 52.18251 | 8.40274 | 49° | 60km/h | 4654m | -12m/s | -6.6°C | 5.4% | 573.4hPa | 2.5V | 08:12:24 | 02:49:57 | 00:00:00 | |
| HSKMA3-T | 2026-08-31 01:07:51 | 52.18271 | 8.40311 | 52° | 58km/h | 4631m | -11.8m/s | -6.5°C | 4.5% | 575hPa | 2.6V | 08:15:45 | 02:49:59 | 00:00:00 | |
| DL1CLM-18 | 2026-08-31 01:07:51 | 52.18271 | 8.40311 | 53° | 58km/h | 4631m | -11.8m/s | -6.5°C | 5.2% | 575.0hPa | 2.5V | 00:00:00 | 00:00:00 | 00:00:00 | |
| DL1XH1-15 | 2026-08-31 01:07:50 | 52.18213 | 8.40200 | 48° | 57km/h | 4701m | -11.6m/s | -7°C | 13.4% | 570.1hPa | 2.5V | 08:12:28 | 02:49:53 | 00:00:00 | |
| DL1XH-west | 2026-08-31 01:07:49 | 52.18251 | 8.40274 | 50° | 60km/h | 4654m | -12m/s | -6.6°C | 4.3% | 573.4hPa | 2.5V | 08:13:12 | 02:49:57 | 00:00:00 | |
| DM0DOS-11 | 2026-08-31 01:07:48 | 52.18203 | 8.40182 | 48° | 60km/h | 4712m | -11.9m/s | -7.1°C | 14.1% | 569.3hPa | 2.6V | 08:12:29 | 02:49:52 | 00:00:00 | |
| DO2JMG | 2026-08-31 01:07:48 | 52.18242 | 8.40256 | 50° | 57km/h | 4666m | -11.7m/s | -6.7°C | 8.5% | 572.6hPa | 2.6V | 08:13:12 | 02:49:56 | 00:00:00 | |
| DO9LL-15 | 2026-08-31 01:07:47 | 52.18232 | 8.40238 | 47° | 60km/h | 4677m | -12.7m/s | -6.8°C | 9.7% | 571.7hPa | 2.6V | 00:00:00 | 02:49:55 | 00:00:00 | |
| DM0DOS-11 | 2026-08-31 01:07:43 | 52.18154 | 8.40091 | 46° | 57km/h | 4769m | -11.9m/s | -7.6°C | 12.3% | 565.2hPa | 2.5V | 08:12:34 | 02:49:47 | 00:00:00 | |
| BIOWL1-15 | 2026-08-31 01:07:41 | 52.18173 | 8.40127 | 49° | 60km/h | 4746m | -12m/s | -7.4°C | 14.8% | 566.8hPa | 2.5V | 08:13:12 | 02:49:49 | 00:00:00 | |
| DD8BA-10 | 2026-08-31 01:07:41 | 52.18173 | 8.40127 | 49° | 58km/h | 4746m | -12.0m/s | -7.4°C | 12.9% | 566.7hPa | 2.5V | 00:00:00 | 00:00:00 | 00:00:00 | |
| DB0UT-7 | 2026-08-31 01:07:40 | 52.18164 | 8.40109 | 50° | 60km/h | 4758m | -11.8m/s | -7.4°C | 12.4% | 565.9hPa | 2.5V | 00:00:00 | 02:49:48 | 00:00:00 | |
| BUE01 | 2026-08-31 01:07:39 | 52.18154 | 8.40091 | 46° | 57km/h | 4769m | -11.9m/s | -7.6°C | 11.7% | 565.2hPa | 2.5V | 00:00:00 | 00:00:00 | 00:00:00 | |
| DL4XJ-10 | 2026-08-31 01:07:38 | 52.18144 | 8.40073 | 48° | 60km/h | 4781m | -11.5m/s | -10.4°C | 0% | 0hPa | 2.5V | 00:00:00 | 00:00:00 | 00:00:00 | |
| DO2JMG | 2026-08-31 01:07:38 | 52.18144 | 8.40073 | 48° | 62km/h | 4780m | -11.6m/s | -7.7°C | 14.1% | 564.4hPa | 2.6V | 08:13:12 | 02:49:46 | 00:00:00 | |
| DM0DOS-11 | 2026-08-31 01:07:37 | 52.18104 | 8.40002 | 45° | 58km/h | 4825m | -12.3m/s | -8.1°C | 12.4% | 561hPa | 2.5V | 08:12:39 | 02:49:42 | 00:00:00 | |
| DL4BBY-15 | 2026-08-31 01:07:36 | 52.18124 | 8.40038 | 47° | 62km/h | 4803m | -11.7m/s | -10.6°C | 0% | 0hPa | 2.6V | 00:00:00 | 00:00:00 | 00:00:00 | |
| DL1XH1-15 | 2026-08-31 01:07:35 | 52.18063 | 8.39930 | 48° | 57km/h | 4870m | -11.8m/s | -8.5°C | 13.1% | 557.8hPa | 2.6V | 08:12:43 | 02:49:38 | 00:00:00 | |
| BIOWL1-15 | 2026-08-31 01:07:30 | 52.18012 | 8.39842 | 45° | 58km/h | 4928m | -11.8m/s | -8.9°C | 14.7% | 553.7hPa | 2.5V | 08:13:12 | 02:49:33 | 00:00:00 | |
| DL1XH1-15 | 2026-08-31 01:07:30 | 52.18001 | 8.39824 | 45° | 64km/h | 4939m | -11.7m/s | -8.9°C | 11.8% | 552.9hPa | 2.5V | 08:12:49 | 02:49:32 | 00:00:00 | |
| DO2JMG | 2026-08-31 01:07:27 | 52.18033 | 8.39877 | 45° | 58km/h | 4905m | -11.9m/s | -8.8°C | 14.6% | 555.3hPa | 2.6V | 08:13:12 | 02:49:35 | 00:00:00 | |
| DB0ND-19 | 2026-08-31 01:07:24 | 52.18001 | 8.39824 | 45° | 62km/h | 4939m | -11.7m/s | -8.9°C | 11.1% | 552.9hPa | 2.6V | 00:00:00 | 00:00:00 | 00:00:00 | |
| GOEST3-10 | 2026-08-31 01:07:23 | 52.17990 | 8.39806 | 46° | 62km/h | 4950m | -11.5m/s | -8.9°C | 11.6% | 552.1hPa | 2.6V | 00:00:00 | 02:49:31 | 00:00:00 | |
| DM0DOS-11 | 2026-08-31 01:07:22 | 52.17947 | 8.39734 | 46° | 64km/h | 4994m | -12.2m/s | -9.5°C | 12.1% | 548.8hPa | 2.6V | 08:12:54 | 02:49:27 | 00:00:00 | |
| BIOWL1-15 | 2026-08-31 01:07:20 | 52.17958 | 8.39752 | 45° | 62km/h | 4983m | -12.4m/s | -9.3°C | 13.7% | 549.7hPa | 2.5V | 08:13:12 | 02:49:28 | 00:00:00 | |
| DO2JMG | 2026-08-31 01:07:17 | 52.17925 | 8.39697 | 45° | 64km/h | 5018m | -12.1m/s | -9.7°C | 14.1% | 547.2hPa | 2.6V | 08:13:12 | 02:49:25 | 00:00:00 | |
| HSKMA3-T | 2026-08-31 01:07:14 | 52.17891 | 8.39641 | 46° | 66km/h | 5053m | -12.2m/s | -9.9°C | 13% | 544.8hPa | 2.5V | 08:15:45 | 02:49:22 | 00:00:00 | |
| DK9SH | 2026-08-31 01:07:13 | 52.17891 | 8.39641 | 47° | 66km/h | 5053m | -12.2m/s | -9.9°C | 10.7% | 544.8hPa | 2.5V | 08:13:00 | 00:00:00 | 00:00:00 | |
| DM0DOS-11 | 2026-08-31 01:07:11 | 52.17836 | 8.39545 | 46° | 64km/h | 5111m | -12.2m/s | -10.4°C | 12.1% | 540.7hPa | 2.5V | 08:13:04 | 02:49:17 | 00:00:00 | |
| BIOWL1-15 | 2026-08-31 01:07:09 | 52.17836 | 8.39545 | 47° | 64km/h | 5111m | -12.2m/s | -10.4°C | 13.9% | 540.7hPa | 2.5V | 08:13:12 | 02:49:17 | 00:00:00 | |
| DO2JMG | 2026-08-31 01:07:07 | 52.17816 | 8.39507 | 47° | 60km/h | 5134m | -12.1m/s | -10.6°C | 14.3% | 539.1hPa | 2.6V | 08:13:12 | 02:49:15 | 00:00:00 | |
| DL4BBY-15 | 2026-08-31 01:07:06 | 52.17805 | 8.39488 | 48° | 68km/h | 5146m | -12.2m/s | -13.3°C | 0% | 0hPa | 2.6V | 00:00:00 | 00:00:00 | 00:00:00 | |
| HTAHTA | 2026-08-31 01:07:05 | 52.17585 | 8.39050 | 52° | 71km/h | 5393m | -12.2m/s | -12.8°C | 15.1% | 521.2hPa | 2.6V | 00:00:00 | 00:00:00 | 00:00:00 | |
| DL1XH1-15 | 2026-08-31 01:07:04 | 52.17733 | 8.39350 | 49° | 66km/h | 5228m | -12.1m/s | -11.4°C | 14.3% | 532.5hPa | 2.6V | 08:13:14 | 02:49:07 | 00:00:00 | |
| HSKMA3-T | 2026-08-31 01:07:03 | 52.17774 | 8.39429 | 50° | 64km/h | 5182m | -12.1m/s | -11°C | 15.5% | 535.7hPa | 2.5V | 08:15:45 | 02:49:11 | 00:00:00 | |
| BIOWL1-15 | 2026-08-31 01:06:58 | 52.17670 | 8.39226 | 51° | 68km/h | 5299m | -12.4m/s | -12°C | 15.5% | 527.6hPa | 2.5V | 08:14:03 | 02:49:01 | 00:00:00 | |
| DO2JMG | 2026-08-31 01:06:57 | 52.17712 | 8.39309 | 51° | 66km/h | 5251m | -12.6m/s | -11.6°C | 16.5% | 530.9hPa | 2.5V | 08:14:03 | 02:49:05 | 00:00:00 | |
| DL3AQ-11 | 2026-08-31 01:06:56 | 52.17691 | 8.39268 | 50° | 68km/h | 5275m | -12.7m/s | -11.8°C | 13.2% | 529.2hPa | 2.5V | 00:00:00 | 00:00:00 | 00:00:00 | |
| DJ2DS-15 | 2026-08-31 01:06:55 | 52.17691 | 8.39268 | 51° | 69km/h | 5275m | -12.6m/s | -11.8°C | 14.1% | 529.2hPa | 2.5V | 00:00:00 | 02:49:03 | 00:00:00 | |
| DD1CC2-15 | 2026-08-31 01:06:54 | 52.17691 | 8.39268 | 52° | 68km/h | 5275m | -12.7m/s | -11.8°C | 13.2% | 529.2hPa | 2.5V | 08:14:00 | 00:00:00 | 00:00:00 | |
| GOEST3-10 | 2026-08-31 01:06:53 | 52.17669 | 8.39226 | 52° | 68km/h | 5299m | -12.3m/s | -12.0°C | 13.5% | 527.6hPa | 2.5V | 00:00:00 | 02:49:01 | 00:00:00 | |
| DK9SH | 2026-08-31 01:06:52 | 52.17670 | 8.39226 | 52° | 68km/h | 5299m | -12.4m/s | -12.0°C | 12.7% | 527.6hPa | 2.5V | 08:14:00 | 00:00:00 | 00:00:00 | |
| DL1XH1-15 | 2026-08-31 01:06:50 | 52.17628 | 8.39139 | 49° | 69km/h | 5346m | -12.2m/s | -12.4°C | 14.7% | 524.3hPa | 2.5V | 08:13:24 | 02:48:57 | 00:00:00 | |
| DL1XH-west | 2026-08-31 01:06:47 | 52.17606 | 8.39095 | 52° | 66km/h | 5370m | -12.4m/s | -12.6°C | 18.2% | 522.6hPa | 2.6V | 08:14:03 | 02:48:55 | 00:00:00 | |
| DO2JMG | 2026-08-31 01:06:46 | 52.17596 | 8.39073 | 50° | 69km/h | 5382m | -12.2m/s | -12.7°C | 18.4% | 521.9hPa | 2.6V | 08:14:03 | 02:48:54 | 00:00:00 | |
| DL1XH-west | 2026-08-31 01:06:36 | 52.17483 | 8.38840 | 53° | 73km/h | 5502m | -12.4m/s | -13.7°C | 18.8% | 513.8hPa | 2.5V | 08:14:03 | 02:48:44 | 00:00:00 | |
| BIOWL1-15 | 2026-08-31 01:06:35 | 52.17438 | 8.38746 | 50° | 71km/h | 5549m | -12.2m/s | -14.1°C | 19.2% | 510.5hPa | 2.5V | 08:14:03 | 02:48:40 | 00:00:00 | |
| DO2JMG | 2026-08-31 01:06:35 | 52.17472 | 8.38816 | 50° | 73km/h | 5514m | -12.6m/s | -13.8°C | 19% | 513hPa | 2.6V | 08:14:03 | 02:48:43 | 00:00:00 | |
| HTAHTA | 2026-08-31 01:06:34 | 52.17449 | 8.38769 | 52° | 71km/h | 5538m | -12.0m/s | -14.0°C | 15.5% | 511.4hPa | 2.6V | 00:00:00 | 00:00:00 | 00:00:00 | |
| DM0DOS-11 | 2026-08-31 01:06:33 | 52.17391 | 8.38653 | 51° | 75km/h | 5597m | -12.2m/s | -14.5°C | 17.5% | 507.4hPa | 2.6V | 08:13:45 | 02:48:36 | 00:00:00 | |
| HSKMA3-T | 2026-08-31 01:06:29 | 52.17402 | 8.38676 | 50° | 73km/h | 5585m | -13m/s | -14.4°C | 20% | 508.1hPa | 2.6V | 08:15:45 | 02:48:37 | 00:00:00 | |
| DO2JMG | 2026-08-31 01:06:25 | 52.17355 | 8.38583 | 52° | 73km/h | 5632m | -12.6m/s | -14.8°C | 20.3% | 504.9hPa | 2.5V | 08:14:03 | 02:48:33 | 00:00:00 | |
| BIOWL1-15 | 2026-08-31 01:06:24 | 52.17344 | 8.38560 | 50° | 69km/h | 5645m | -12.2m/s | -14.9°C | 20.4% | 504.1hPa | 2.6V | 08:14:03 | 02:48:32 | 00:00:00 | |
| DM0DOS-11 | 2026-08-31 01:06:23 | 52.17273 | 8.38419 | 51° | 75km/h | 5718m | -12.3m/s | -15.5°C | 18.3% | 499.2hPa | 2.6V | 08:13:55 | 02:48:26 | 00:00:00 | |
| DL1XH-west | 2026-08-31 01:06:15 | 52.17235 | 8.38347 | 49° | 80km/h | 5753m | -12.8m/s | -15.8°C | 20.9% | 496.9hPa | 2.5V | 08:14:03 | 02:48:23 | 00:00:00 | |
| DO2JMG | 2026-08-31 01:06:14 | 52.17222 | 8.38323 | 48° | 77km/h | 5765m | -12.7m/s | -15.9°C | 20.7% | 496.1hPa | 2.5V | 08:14:03 | 02:48:22 | 00:00:00 | |
| HSKMA3-T | 2026-08-31 01:06:12 | 52.17197 | 8.38275 | 48° | 77km/h | 5790m | -12.9m/s | -16.1°C | 20.8% | 494.5hPa | 2.6V | 08:15:45 | 02:48:20 | 00:00:00 | |
| BIOWL1-15 | 2026-08-31 01:06:06 | 52.17062 | 8.38025 | 48° | 86km/h | 5910m | -12.7m/s | -16.8°C | 19.5% | 486.6hPa | 2.6V | 08:14:54 | 02:48:10 | 00:00:00 | |
| DO2JMG | 2026-08-31 01:06:04 | 52.17091 | 8.38076 | 49° | 84km/h | 5885m | -12.7m/s | -16.7°C | 20.5% | 488.1hPa | 2.5V | 08:14:54 | 02:48:12 | 00:00:00 | |
| HSKMA3-T | 2026-08-31 01:06:00 | 52.17034 | 8.37974 | 48° | 86km/h | 5935m | -12.8m/s | -16.9°C | 19.2% | 485.1hPa | 2.5V | 08:15:45 | 02:48:08 | 00:00:00 | |
| DL1XH-west | 2026-08-31 01:05:54 | 52.16946 | 8.37819 | 48° | 88km/h | 6009m | -12.8m/s | -17.4°C | 19.7% | 480.4hPa | 2.5V | 08:14:54 | 02:48:02 | 00:00:00 | |
| DO2JMG | 2026-08-31 01:05:53 | 52.16931 | 8.37793 | 46° | 88km/h | 6021m | -12.6m/s | -17.5°C | 19.7% | 479.6hPa | 2.6V | 08:14:54 | 02:48:01 | 00:00:00 | |
| BIOWL1-15 | 2026-08-31 01:05:52 | 52.16915 | 8.37766 | 47° | 91km/h | 6033m | -12.3m/s | -17.6°C | 19.7% | 478.8hPa | 2.5V | 08:14:54 | 02:48:00 | 00:00:00 | |
| DL3AQ-11 | 2026-08-31 01:05:52 | 52.16900 | 8.37739 | 47° | 86km/h | 6045m | -12.3m/s | -17.6°C | 15.8% | 478.0hPa | 2.5V | 00:00:00 | 00:00:00 | 00:00:00 | |
| DB0ND-19 | 2026-08-31 01:05:51 | 52.16900 | 8.37739 | 47° | 86km/h | 6045m | -12.3m/s | -17.6°C | 15.8% | 478.0hPa | 2.5V | 00:00:00 | 00:00:00 | 00:00:00 | |
| DL1XH1-15 | 2026-08-31 01:05:50 | 52.16869 | 8.37685 | 47° | 89km/h | 6069m | -12.6m/s | -17.9°C | 17.4% | 476.4hPa | 2.5V | 08:14:24 | 02:47:57 | 00:00:00 | |
| HSKMA3-T | 2026-08-31 01:05:45 | 52.16807 | 8.37577 | 48° | 91km/h | 6118m | -12.4m/s | -18.3°C | 20.3% | 473.4hPa | 2.5V | 08:15:45 | 02:47:53 | 00:00:00 | |
| DL1XH-west | 2026-08-31 01:05:44 | 52.16791 | 8.37550 | 46° | 91km/h | 6130m | -12.3m/s | -18.4°C | 20.3% | 472.6hPa | 2.5V | 08:14:54 | 02:47:52 | 00:00:00 | |
| DO2JMG | 2026-08-31 01:05:43 | 52.16775 | 8.37522 | 47° | 95km/h | 6142m | -12.2m/s | -18.5°C | 19.8% | 471.9hPa | 2.5V | 08:14:54 | 02:47:51 | 00:00:00 | |
| DL1XH-15 | 2026-08-31 01:05:41 | 52.16709 | 8.37410 | 47° | 93km/h | 6190m | -12.3m/s | -18.8°C | 17.4% | 468.8hPa | 2.5V | 08:14:34 | 02:47:47 | 00:00:00 | |
| BIOWL1-15 | 2026-08-31 01:05:41 | 52.16742 | 8.37467 | 45° | 93km/h | 6166m | -12.6m/s | -18.6°C | 19.7% | 470.3hPa | 2.5V | 08:14:54 | 02:47:49 | 00:00:00 | |
| DO2JMG | 2026-08-31 01:05:33 | 52.16610 | 8.37237 | 48° | 99km/h | 6263m | -12m/s | -19.5°C | 20.8% | 464.3hPa | 2.5V | 08:14:54 | 02:47:41 | 00:00:00 | |
| DM0DOS-11 | 2026-08-31 01:05:32 | 52.16525 | 8.37090 | 46° | 99km/h | 6321m | -12.9m/s | -20°C | 19.1% | 460.6hPa | 2.5V | 08:14:45 | 02:47:36 | 00:00:00 | |
| HSKMA3-T | 2026-08-31 01:05:32 | 52.16593 | 8.37207 | 46° | 95km/h | 6275m | -12m/s | -19.6°C | 21% | 463.6hPa | 2.5V | 08:15:45 | 02:47:40 | 00:00:00 | |
| DL1XH1-15 | 2026-08-31 01:05:30 | 52.16542 | 8.37119 | 46° | 97km/h | 6309m | -12m/s | -19.9°C | 19% | 461.4hPa | 2.5V | 08:14:44 | 02:47:37 | 00:00:00 | |
| BIOWL1-15 | 2026-08-31 01:05:30 | 52.16439 | 8.36942 | 48° | 99km/h | 6381m | -12.2m/s | -20.5°C | 21.2% | 456.9hPa | 2.5V | 08:14:54 | 02:47:31 | 00:00:00 | |
| DO2JMG | 2026-08-31 01:05:22 | 52.16422 | 8.36912 | 46° | 97km/h | 6393m | -12m/s | -20.7°C | 21.3% | 456.1hPa | 2.5V | 08:14:54 | 02:47:30 | 00:00:00 | |
| DL1XH-15 | 2026-08-31 01:05:21 | 52.16370 | 8.36823 | 47° | 100km/h | 6429m | -13.1m/s | -20.9°C | 20.3% | 453.9hPa | 2.6V | 08:14:54 | 02:47:27 | 00:00:00 | |
| DD8BA-10 | 2026-08-31 01:05:21 | 52.16405 | 8.36883 | 46° | 100km/h | 6404m | -12.8m/s | -20.7°C | 19.5% | 455.3hPa | 2.6V | 00:00:00 | 00:00:00 | 00:00:00 | |
| DB0ND-19 | 2026-08-31 01:05:20 | 52.16388 | 8.36853 | 47° | 100km/h | 6417m | -12.9m/s | -20.9°C | 18.3% | 454.6hPa | 2.6V | 00:00:00 | 00:00:00 | 00:00:00 | |
| DL4XJ-10 | 2026-08-31 01:05:18 | 52.16353 | 8.36793 | 46° | 104km/h | 6443m | -12.5m/s | -23.6°C | 0% | 0hPa | 2.6V | 00:00:00 | 00:00:00 | 00:00:00 | |
| DO9LL-15 | 2026-08-31 01:05:17 | 52.16336 | 8.36763 | 48° | 108km/h | 6454m | -12.0m/s | -21.1°C | 22.2% | 452.5hPa | 2.6V | 00:00:00 | 02:47:25 | 00:00:00 | |
| DJ2DS-15 | 2026-08-31 01:05:15 | 52.16301 | 8.36703 | 47° | 104km/h | 6477m | -12.1m/s | -21.3°C | 28.2% | 450.9hPa | 2.6V | 00:00:00 | 02:47:23 | 00:00:00 | |
| DM0DOS-11 | 2026-08-31 01:05:13 | 52.16178 | 8.36488 | 46° | 106km/h | 6558m | -12.8m/s | -22.1°C | 53.5% | 446hPa | 2.6V | 08:15:05 | 02:47:16 | 00:00:00 | |
| BIOWL1-15 | 2026-08-31 01:05:12 | 52.16089 | 8.36332 | 46° | 104km/h | 6620m | -12.8m/s | -22.7°C | 55.1% | 442.4hPa | 2.5V | 08:15:45 | 02:47:11 | 00:00:00 | |
| DO2JMG | 2026-08-31 01:05:12 | 52.16248 | 8.36611 | 46° | 104km/h | 6513m | -11.8m/s | -21.7°C | 27.1% | 448.8hPa | 2.5V | 08:15:45 | 02:47:20 | 00:00:00 | |
| DL1XH-west | 2026-08-31 01:05:11 | 52.16231 | 8.36580 | 48° | 102km/h | 6524m | -11.8m/s | -21.7°C | 32.1% | 448.1hPa | 2.5V | 08:15:45 | 02:47:19 | 00:00:00 | |
| DL1XH1-15 | 2026-08-31 01:05:10 | 52.16196 | 8.36519 | 45° | 102km/h | 6546m | -12.8m/s | -22°C | 52% | 446.8hPa | 2.5V | 08:15:04 | 02:47:17 | 00:00:00 | |
| DB0UT-7 | 2026-08-31 01:05:10 | 52.16214 | 8.36549 | 47° | 110km/h | 6535m | -11.6m/s | -21.8°C | 43.3% | 447.4hPa | 2.5V | 00:00:00 | 00:00:00 | 00:00:00 | |
| GOEST3-10 | 2026-08-31 01:05:08 | 52.16178 | 8.36488 | 47° | 104km/h | 6558m | -12.7m/s | -22.0°C | 53.5% | 446.0hPa | 2.5V | 00:00:00 | 00:00:00 | 00:00:00 | |
| DO3DL | 2026-08-31 01:05:07 | 52.16178 | 8.36488 | 47° | 106km/h | 6558m | -12.8m/s | -22.1°C | 49.7% | 446.0hPa | 2.5V | 08:15:00 | 00:00:00 | 00:00:00 | |
| DL4BBY-15 | 2026-08-31 01:05:06 | 52.16142 | 8.36426 | 47° | 111km/h | 6582m | -12.3m/s | -24.8°C | 0% | 0hPa | 2.5V | 00:00:00 | 00:00:00 | 00:00:00 | |
| BUE01 | 2026-08-31 01:05:04 | 52.16107 | 8.36363 | 47° | 104km/h | 6607m | -12.5m/s | -22.6°C | 51.8% | 443.1hPa | 2.5V | 00:00:00 | 00:00:00 | 00:00:00 | |
| DM0DOS-11 | 2026-08-31 01:05:03 | 52.15996 | 8.36173 | 46° | 110km/h | 6680m | -11.8m/s | -23.2°C | 82.8% | 438.7hPa | 2.5V | 08:15:15 | 02:47:06 | 00:00:00 | |
| GOEST3-10 | 2026-08-31 01:05:03 | 52.16088 | 8.36332 | 46° | 106km/h | 6620m | -12.7m/s | -22.6°C | 55.4% | 442.3hPa | 2.5V | 00:00:00 | 02:47:11 | 00:00:00 | |
| DL1XH-15 | 2026-08-31 01:05:01 | 52.16014 | 8.36205 | 47° | 106km/h | 6668m | -12.4m/s | -23.1°C | 73.7% | 439.4hPa | 2.5V | 08:15:14 | 02:47:07 | 00:00:00 | |
| DO2JMG | 2026-08-31 01:05:01 | 52.16052 | 8.36268 | 46° | 108km/h | 6644m | -12.9m/s | -22.9°C | 60% | 441hPa | 2.5V | 08:15:45 | 02:47:09 | 00:00:00 | |
| DL1XH-west | 2026-08-31 01:05:00 | 52.16033 | 8.36237 | 46° | 106km/h | 6657m | -12.4m/s | -23°C | 65.1% | 440.2hPa | 2.5V | 08:15:45 | 02:47:08 | 00:00:00 | |
| BIOWL1-15 | 2026-08-31 01:04:55 | 52.15938 | 8.36076 | 45° | 113km/h | 6715m | -12.5m/s | -23.2°C | 63.5% | 436.6hPa | 2.5V | 08:15:45 | 02:47:03 | 00:00:00 | |
| DL8DAS-14 | 2026-08-31 01:04:55 | 52.15918 | 8.36042 | 46° | 115km/h | 6727m | -12.3m/s | -22.5°C | 36.7% | 435.9hPa | 2.5V | 00:00:00 | 00:00:00 | 00:00:00 | |
| DO3DL | 2026-08-31 01:04:54 | 52.15938 | 8.36076 | 46° | 113km/h | 6715m | -12.5m/s | -23.2°C | 61.6% | 436.6hPa | 2.5V | 08:15:00 | 00:00:00 | 00:00:00 | |
| DM0DOS-11 | 2026-08-31 01:04:53 | 52.15800 | 8.35839 | 47° | 115km/h | 6801m | -12.5m/s | -22.6°C | 12.9% | 431.6hPa | 2.5V | 08:15:25 | 02:46:56 | 00:00:00 | |
| DO2JMG | 2026-08-31 01:04:51 | 52.15859 | 8.35942 | 47° | 115km/h | 6764m | -13.2m/s | -22.6°C | 29.6% | 433.7hPa | 2.5V | 08:15:45 | 02:46:59 | 00:00:00 | |
| DL1XH1-15 | 2026-08-31 01:04:50 | 52.15820 | 8.35873 | 46° | 111km/h | 6789m | -12.7m/s | -22.6°C | 14.1% | 432.3hPa | 2.6V | 08:15:24 | 02:46:57 | 00:00:00 | |
| DL1XH-west | 2026-08-31 01:04:49 | 52.15820 | 8.35873 | 46° | 111km/h | 6789m | -12.7m/s | -22.6°C | 15.9% | 432.3hPa | 2.6V | 08:15:45 | 02:46:57 | 00:00:00 | |
| DK9SH | 2026-08-31 01:04:49 | 52.15819 | 8.35873 | 47° | 111km/h | 6789m | -12.7m/s | -22.6°C | 12.6% | 432.3hPa | 2.5V | 08:15:00 | 00:00:00 | 00:00:00 | |
| DO9LL-15 | 2026-08-31 01:04:47 | 52.15781 | 8.35804 | 49° | 111km/h | 6814m | -12.2m/s | -22.6°C | 11.6% | 430.8hPa | 2.5V | 08:15:00 | 02:46:55 | 00:00:00 | |
| DL1XH1-15 | 2026-08-31 01:04:44 | 52.15627 | 8.35533 | 47° | 113km/h | 6910m | -12.7m/s | -23.4°C | 10.1% | 425.2hPa | 2.5V | 08:15:34 | 02:46:47 | 00:00:00 | |
| DL3AQ-11 | 2026-08-31 01:04:43 | 52.15684 | 8.35635 | 47° | 113km/h | 6874m | -12.3m/s | -23.1°C | 8.5% | 427.3hPa | 2.5V | 00:00:00 | 00:00:00 | 00:00:00 | |
| DM0DOS-11 | 2026-08-31 01:04:42 | 52.15609 | 8.35498 | 48° | 111km/h | 6922m | -13.1m/s | -23.6°C | 10.1% | 424.6hPa | 2.5V | 08:15:35 | 02:46:46 | 00:00:00 | |
| DL1XH-15 | 2026-08-31 01:04:41 | 52.15590 | 8.35465 | 46° | 111km/h | 6935m | -13.4m/s | -23.7°C | 10.2% | 423.7hPa | 2.5V | 08:15:36 | 02:46:45 | 00:00:00 | |
| DO2JMG | 2026-08-31 01:04:40 | 52.15647 | 8.35567 | 47° | 110km/h | 6898m | -12.5m/s | -23.3°C | 11% | 425.9hPa | 2.5V | 08:15:45 | 02:46:48 | 00:00:00 | |
| DL1XH-west | 2026-08-31 01:04:39 | 52.15627 | 8.35533 | 48° | 113km/h | 6910m | -12.7m/s | -23.4°C | 11.1% | 425.2hPa | 2.5V | 08:15:45 | 02:46:47 | 00:00:00 | |
| DL4XJ-10 | 2026-08-31 01:04:38 | 52.15609 | 8.35498 | 49° | 111km/h | 6923m | -13.0m/s | -26.1°C | 0% | 0hPa | 2.6V | 00:00:00 | 00:00:00 | 00:00:00 | |
| DL4BBY-15 | 2026-08-31 01:04:36 | 52.15571 | 8.35431 | 48° | 113km/h | 6948m | -12.5m/s | -26.3°C | 0% | 0hPa | 2.6V | 00:00:00 | 00:00:00 | 00:00:00 | |
| DJ2DS-15 | 2026-08-31 01:04:35 | 52.15552 | 8.35397 | 49° | 113km/h | 6960m | -12.1m/s | -23.8°C | 10.5% | 422.3hPa | 2.6V | 08:15:00 | 02:46:43 | 00:00:00 | |
| DJ2DS-15 | 2026-08-31 01:04:34 | 52.15514 | 8.35330 | 47° | 113km/h | 6985m | -12.7m/s | -24.1°C | 9.7% | 420.9hPa | 2.5V | 00:00:00 | 00:00:00 | 00:00:00 | |
| BUE01 | 2026-08-31 01:04:33 | 52.15514 | 8.35330 | 47° | 113km/h | 6985m | -12.7m/s | -24.1°C | 9.7% | 420.9hPa | 2.5V | 00:00:00 | 00:00:00 | 00:00:00 | |
| DL3AQ-11 | 2026-08-31 01:04:32 | 52.15476 | 8.35263 | 47° | 111km/h | 7009m | -12.7m/s | -24.4°C | 10.2% | 419.5hPa | 2.5V | 00:00:00 | 00:00:00 | 00:00:00 | |
| DL1XH-15 | 2026-08-31 01:04:31 | 52.15401 | 8.35128 | 46° | 113km/h | 7059m | -13m/s | -24.8°C | 12.7% | 416.6hPa | 2.5V | 08:15:46 | 02:46:35 | 00:00:00 | |
| DL1XH1-15 | 2026-08-31 01:04:30 | 52.15439 | 8.35195 | 46° | 110km/h | 7033m | -13.4m/s | -24.6°C | 12.3% | 418.1hPa | 2.6V | 08:15:44 | 02:46:37 | 00:00:00 | |
| DO2JMG | 2026-08-31 01:04:30 | 52.15458 | 8.35229 | 48° | 111km/h | 7021m | -13.1m/s | -24.5°C | 13.5% | 418.8hPa | 2.5V | 08:15:45 | 02:46:38 | 00:00:00 | |
| HSKMA3-T | 2026-08-31 01:04:29 | 52.15439 | 8.35195 | 47° | 110km/h | 7034m | -13.4m/s | -24.6°C | 14% | 418.1hPa | 2.6V | 08:15:45 | 02:46:37 | 00:00:00 | |
| GOEST3-10 | 2026-08-31 01:04:27 | 52.15401 | 8.35128 | 47° | 113km/h | 7059m | -12.9m/s | -24.8°C | 12.7% | 416.6hPa | 2.5V | 00:00:00 | 00:00:00 | 00:00:00 | |
| BIOWL9-15 | 2026-08-31 01:04:26 | 52.15362 | 8.35062 | 46° | 113km/h | 7084m | -12.9m/s | -25.0°C | 11.1% | 415.3hPa | 2.5V | 00:00:00 | 00:00:00 | 00:00:00 | |
| DD1CC8 | 2026-08-31 01:04:25 | 52.15362 | 8.35062 | 46° | 113km/h | 7084m | -12.9m/s | -25.0°C | 11.1% | 415.3hPa | 2.5V | 00:00:00 | 00:00:00 | 00:00:00 | |
| DL1XH1-15 | 2026-08-31 01:04:24 | 52.15243 | 8.34863 | 44° | 113km/h | 7159m | -12.9m/s | -25.6°C | 12.3% | 410.9hPa | 2.5V | 08:15:54 | 02:46:27 | 00:00:00 | |
| DM0DOS-11 | 2026-08-31 01:04:24 | 52.15223 | 8.34830 | 45° | 113km/h | 7171m | -12.5m/s | -25.7°C | 12% | 410.3hPa | 2.5V | 08:15:55 | 02:46:26 | 00:00:00 | |
| GOEST3-10 | 2026-08-31 01:04:22 | 52.15303 | 8.34962 | 45° | 113km/h | 7122m | -12.8m/s | -25.3°C | 12.8% | 413.0hPa | 2.6V | 00:00:00 | 02:46:30 | 00:00:00 | |
| DL1XH-15 | 2026-08-31 01:04:21 | 52.15202 | 8.34797 | 44° | 115km/h | 7183m | -12.5m/s | -25.8°C | 11.9% | 409.6hPa | 2.6V | 08:15:56 | 02:46:25 | 00:00:00 | |
| DO2JMG | 2026-08-31 01:04:20 | 52.15263 | 8.34896 | 45° | 115km/h | 7147m | -13.1m/s | -25.5°C | 14.2% | 411.7hPa | 2.5V | 08:16:36 | 02:46:28 | 00:00:00 | |
| DL1XH-west | 2026-08-31 01:04:19 | 52.15243 | 8.34863 | 44° | 113km/h | 7159m | -12.9m/s | -25.6°C | 13.8% | 410.9hPa | 2.5V | 08:16:36 | 02:46:27 | 00:00:00 | |
| HSKMA3-T | 2026-08-31 01:04:18 | 52.15222 | 8.34830 | 46° | 115km/h | 7171m | -12.5m/s | -25.7°C | 13.5% | 410.3hPa | 2.5V | 08:16:36 | 02:46:26 | 00:00:00 | |
| BIOWL1-15 | 2026-08-31 01:04:13 | 52.15119 | 8.34665 | 43° | 117km/h | 7232m | -13m/s | -26.1°C | 12.9% | 406.8hPa | 2.5V | 08:16:36 | 02:46:21 | 00:00:00 | |
| DM0DOS-11 | 2026-08-31 01:04:13 | 52.15013 | 8.34502 | 42° | 113km/h | 7294m | -12.7m/s | -26.6°C | 11.5% | 403.2hPa | 2.5V | 08:16:05 | 02:46:16 | 00:00:00 | |
| GOEST3-10 | 2026-08-31 01:04:12 | 52.15098 | 8.34632 | 44° | 115km/h | 7244m | -13.0m/s | -26.1°C | 11.8% | 406.0hPa | 2.5V | 08:16:00 | 02:46:20 | 00:00:00 | |
| DL1XH-15 | 2026-08-31 01:04:11 | 52.14991 | 8.34470 | 43° | 117km/h | 7307m | -12.5m/s | -26.7°C | 11.4% | 402.6hPa | 2.5V | 08:16:06 | 02:46:15 | 00:00:00 | |
| DL1XH1-15 | 2026-08-31 01:04:10 | 52.15034 | 8.34535 | 43° | 119km/h | 7282m | -12.7m/s | -26.4°C | 11.7% | 404hPa | 2.5V | 08:16:04 | 02:46:17 | 00:00:00 | |
| DO2JMG | 2026-08-31 01:04:10 | 52.15056 | 8.34568 | 43° | 113km/h | 7270m | -12.6m/s | -26.3°C | 13.2% | 404.7hPa | 2.5V | 08:16:36 | 02:46:18 | 00:00:00 | |
| DL1XH-west | 2026-08-31 01:04:08 | 52.15013 | 8.34502 | 42° | 113km/h | 7294m | -12.7m/s | -26.6°C | 12.8% | 403.2hPa | 2.5V | 08:16:36 | 02:46:16 | 00:00:00 | |
| HSKMA3-T | 2026-08-31 01:04:07 | 52.14991 | 8.34470 | 44° | 117km/h | 7307m | -12.5m/s | -26.7°C | 12.7% | 402.6hPa | 2.5V | 08:16:36 | 02:46:15 | 00:00:00 | |
| GOEST3-10 | 2026-08-31 01:04:07 | 52.14991 | 8.34470 | 44° | 117km/h | 7307m | -12.4m/s | -26.6°C | 11.4% | 402.5hPa | 2.5V | 00:00:00 | 00:00:00 | 00:00:00 | |
| DL4BBY-15 | 2026-08-31 01:04:06 | 52.14969 | 8.34437 | 43° | 120km/h | 7319m | -13.1m/s | -29.3°C | 0% | 0hPa | 2.5V | 00:00:00 | 00:00:00 | 00:00:00 | |
| DM0DOS-11 | 2026-08-31 01:04:03 | 52.14791 | 8.34178 | 40° | 119km/h | 7420m | -12.9m/s | -27.5°C | 11.3% | 396.3hPa | 2.5V | 08:16:15 | 02:46:06 | 00:00:00 | |
| BIOWL1-15 | 2026-08-31 01:04:02 | 52.14837 | 8.34242 | 41° | 117km/h | 7395m | -12.7m/s | -27.3°C | 12.2% | 397.7hPa | 2.5V | 08:16:36 | 02:46:08 | 00:00:00 | |
| DO2JMG | 2026-08-31 01:03:59 | 52.14814 | 8.34210 | 42° | 120km/h | 7408m | -13m/s | -27.4°C | 12.3% | 397hPa | 2.5V | 08:16:36 | 02:46:07 | 00:00:00 | |
| DL1XH-west | 2026-08-31 01:03:57 | 52.14769 | 8.34146 | 42° | 120km/h | 7432m | -12.7m/s | -27.6°C | 12.7% | 395.6hPa | 2.5V | 08:16:36 | 02:46:05 | 00:00:00 | |
| HSKMA3-T | 2026-08-31 01:03:56 | 52.14746 | 8.34114 | 40° | 119km/h | 7444m | -13.4m/s | -27.7°C | 12.8% | 395hPa | 2.5V | 08:16:36 | 02:46:04 | 00:00:00 | |
| BIOWL1-15 | 2026-08-31 01:03:52 | 52.14607 | 8.33921 | 39° | 120km/h | 7520m | -13.1m/s | -28.1°C | 10.8% | 390.8hPa | 2.5V | 08:16:36 | 02:45:58 | 00:00:00 | |
| GOEST3-10 | 2026-08-31 01:03:52 | 52.14653 | 8.33985 | 41° | 120km/h | 7495m | -13.2m/s | -27.9°C | 10.0% | 392.2hPa | 2.5V | 00:00:00 | 02:46:00 | 00:00:00 | |
| DL1XH-15 | 2026-08-31 01:03:51 | 52.14537 | 8.33825 | 38° | 120km/h | 7558m | -13.4m/s | -28.5°C | 9.9% | 388.8hPa | 2.5V | 08:16:26 | 02:45:55 | 00:00:00 | |
| DL1XH1-15 | 2026-08-31 01:03:50 | 52.14584 | 8.33889 | 40° | 122km/h | 7533m | -12.8m/s | -28.2°C | 9.9% | 390.1hPa | 2.6V | 08:16:24 | 02:45:57 | 00:00:00 | |
| DO2JMG | 2026-08-31 01:03:48 | 52.14561 | 8.33857 | 40° | 119km/h | 7545m | -12.7m/s | -28.4°C | 10.9% | 389.5hPa | 2.5V | 08:16:36 | 02:45:56 | 00:00:00 | |
| DL1XH-west | 2026-08-31 01:03:47 | 52.14537 | 8.33825 | 39° | 120km/h | 7558m | -13.4m/s | -28.5°C | 10.9% | 388.8hPa | 2.5V | 08:16:36 | 02:45:55 | 00:00:00 | |
| HSKMA3-T | 2026-08-31 01:03:46 | 52.14513 | 8.33793 | 40° | 124km/h | 7570m | -12.5m/s | -28.6°C | 10.7% | 388.1hPa | 2.5V | 08:16:36 | 02:45:54 | 00:00:00 | |
| DC4HF-4 | 2026-08-31 01:03:46 | 52.14490 | 8.33761 | 39° | 119km/h | 7582m | -12.8m/s | -28.7°C | 8.3% | 387.4hPa | 2.6V | 00:00:00 | 00:00:00 | 00:00:00 | |
| DL1XH1-15 | 2026-08-31 01:03:44 | 52.14348 | 8.33572 | 39° | 122km/h | 7660m | -13.5m/s | -29.1°C | 10% | 383.3hPa | 2.6V | 08:16:34 | 02:45:47 | 00:00:00 | |
| AA1-15 | 2026-08-31 01:03:44 | 52.14467 | 8.33730 | 39° | 120km/h | 7594m | -13.7m/s | -28.7°C | 10.5% | 386.8hPa | 2.5V | 08:16:36 | 02:45:52 | 00:00:00 | |
| DO3DL | 2026-08-31 01:03:43 | 52.14466 | 8.33730 | 39° | 120km/h | 7595m | -13.7m/s | -28.7°C | 8.2% | 386.7hPa | 2.5V | 08:16:00 | 00:00:00 | 00:00:00 | |
| DM0DOS-11 | 2026-08-31 01:03:42 | 52.14324 | 8.33541 | 37° | 120km/h | 7673m | -13m/s | -29.2°C | 10.3% | 382.6hPa | 2.5V | 08:16:35 | 02:45:46 | 00:00:00 | |
| BIOWL1-15 | 2026-08-31 01:03:42 | 52.14419 | 8.33666 | 40° | 120km/h | 7620m | -13.2m/s | -28.9°C | 10.5% | 385.3hPa | 2.4V | 08:16:36 | 02:45:50 | 00:00:00 | |
| DO2JMG | 2026-08-31 01:03:38 | 52.14324 | 8.33541 | 38° | 120km/h | 7673m | -13m/s | -29.2°C | 11.3% | 382.6hPa | 2.5V | 08:16:36 | 02:45:46 | 00:00:00 | |
| DL1XH-west | 2026-08-31 01:03:37 | 52.14300 | 8.33510 | 39° | 124km/h | 7686m | -13.5m/s | -29.3°C | 11.9% | 381.9hPa | 2.5V | 08:16:36 | 02:45:45 | 00:00:00 | |
| HSKMA3-T | 2026-08-31 01:03:35 | 52.14252 | 8.33446 | 38° | 119km/h | 7712m | -13.4m/s | -29.5°C | 12.7% | 380.6hPa | 2.5V | 08:17:27 | 02:45:43 | 00:00:00 | |
| AA1-15 | 2026-08-31 01:03:33 | 52.14203 | 8.33384 | 39° | 124km/h | 7739m | -13.4m/s | -29.7°C | 13.3% | 379.1hPa | 2.5V | 08:17:27 | 02:45:41 | 00:00:00 | |
| GOEST3-10 | 2026-08-31 01:03:32 | 52.14179 | 8.33352 | 39° | 122km/h | 7753m | -13.4m/s | -29.7°C | 11.9% | 378.4hPa | 2.5V | 00:00:00 | 02:45:40 | 00:00:00 | |
| DL1XH-15 | 2026-08-31 01:03:31 | 52.14058 | 8.33195 | 39° | 122km/h | 7818m | -13.7m/s | -30.2°C | 12.9% | 374.9hPa | 2.5V | 08:16:46 | 02:45:35 | 00:00:00 | |
| DL1XH1-15 | 2026-08-31 01:03:31 | 52.14107 | 8.33259 | 38° | 120km/h | 7792m | -13.1m/s | -30°C | 12.2% | 376.3hPa | 2.6V | 08:16:44 | 02:45:37 | 00:00:00 | |
| DL1XH-west | 2026-08-31 01:03:27 | 52.14058 | 8.33195 | 39° | 122km/h | 7818m | -13.7m/s | -30.2°C | 14.6% | 375hPa | 2.5V | 08:17:27 | 02:45:35 | 00:00:00 | |
| HSKMA3-T | 2026-08-31 01:03:25 | 52.14010 | 8.33132 | 39° | 124km/h | 7846m | -13.3m/s | -30.4°C | 16.9% | 373.5hPa | 2.5V | 08:17:27 | 02:45:33 | 00:00:00 | |
| AA1-15 | 2026-08-31 01:03:22 | 52.13936 | 8.33037 | 38° | 126km/h | 7885m | -13.6m/s | -30.6°C | 20.1% | 371.4hPa | 2.5V | 08:17:27 | 02:45:30 | 00:00:00 | |
| DJ2DS-15 | 2026-08-31 01:03:22 | 52.13912 | 8.33005 | 38° | 120km/h | 7898m | -13.0m/s | -30.7°C | 15.1% | 370.8hPa | 2.5V | 00:00:00 | 00:00:00 | 00:00:00 | |
| DL1XH-15 | 2026-08-31 01:03:21 | 52.13813 | 8.32879 | 37° | 126km/h | 7950m | -13.9m/s | -31.1°C | 15.1% | 368hPa | 2.5V | 08:16:56 | 02:45:25 | 00:00:00 | |
| DD8BA-10 | 2026-08-31 01:03:21 | 52.13912 | 8.33005 | 39° | 126km/h | 7898m | -12.9m/s | -30.6°C | 17.3% | 370.8hPa | 2.5V | 00:00:00 | 00:00:00 | 00:00:00 | |
| DM0DOS-11 | 2026-08-31 01:03:18 | 52.13837 | 8.32911 | 38° | 124km/h | 7938m | -13.3m/s | -31°C | 15.6% | 368.8hPa | 2.5V | 08:16:55 | 02:45:26 | 00:00:00 | |
| DL1XH-west | 2026-08-31 01:03:16 | 52.13788 | 8.32848 | 38° | 124km/h | 7964m | -13.3m/s | -31.2°C | 16.6% | 367.4hPa | 2.5V | 08:17:27 | 02:45:24 | 00:00:00 | |
| HSKMA3-T | 2026-08-31 01:03:15 | 52.13762 | 8.32816 | 38° | 128km/h | 7977m | -13.1m/s | -31.2°C | 15.7% | 366.7hPa | 2.5V | 08:17:27 | 02:45:23 | 00:00:00 | |
| BIOWL1-15 | 2026-08-31 01:03:14 | 52.13711 | 8.32753 | 38° | 128km/h | 8003m | -13.2m/s | -31.3°C | 15.7% | 365.4hPa | 2.5V | 08:17:27 | 02:45:21 | 00:00:00 | |
| AA1-15 | 2026-08-31 01:03:11 | 52.13661 | 8.32691 | 38° | 124km/h | 8029m | -13.7m/s | -31.5°C | 16% | 364hPa | 2.5V | 08:17:27 | 02:45:19 | 00:00:00 | |
| DD8BA-10 | 2026-08-31 01:03:11 | 52.13660 | 8.32690 | 38° | 126km/h | 8029m | -13.6m/s | -31.5°C | 13.9% | 364.0hPa | 2.5V | 00:00:00 | 00:00:00 | 00:00:00 | |
| DB0UT-7 | 2026-08-31 01:03:10 | 52.13635 | 8.32659 | 37° | 126km/h | 8042m | -13.8m/s | -31.6°C | 13.7% | 363.2hPa | 2.5V | 00:00:00 | 00:00:00 | 00:00:00 | |
| DM0DOS-11 | 2026-08-31 01:03:08 | 52.13558 | 8.32567 | 35° | 124km/h | 8083m | -13.6m/s | -32°C | 14.2% | 361.2hPa | 2.5V | 08:17:06 | 02:45:15 | 00:00:00 | |
| DO2JMG | 2026-08-31 01:03:05 | 52.13507 | 8.32506 | 36° | 126km/h | 8109m | -13.7m/s | -32.2°C | 16.5% | 359.9hPa | 2.5V | 08:17:27 | 02:45:13 | 00:00:00 | |
| HSKMA3-T | 2026-08-31 01:03:04 | 52.13481 | 8.32476 | 36° | 124km/h | 8122m | -13.7m/s | -32.3°C | 16.4% | 359.2hPa | 2.5V | 08:17:27 | 02:45:12 | 00:00:00 | |
| DL1XH-15 | 2026-08-31 01:03:02 | 52.13300 | 8.32266 | 34° | 128km/h | 8215m | -13.9m/s | -33.1°C | 14.4% | 354.5hPa | 2.5V | 08:17:16 | 02:45:05 | 00:00:00 | |
| DL1CLM-18 | 2026-08-31 01:03:02 | 52.13430 | 8.32416 | 37° | 124km/h | 8148m | -13.9m/s | -32.5°C | 12.5% | 357.9hPa | 2.5V | 08:17:00 | 00:00:00 | 00:00:00 | |
| DD1CC1-15 | 2026-08-31 01:03:01 | 52.13430 | 8.32416 | 37° | 124km/h | 8148m | -13.9m/s | -32.5°C | 12.5% | 357.9hPa | 2.5V | 08:17:00 | 00:00:00 | 00:00:00 | |
| DL1XH1-15 | 2026-08-31 01:03:00 | 52.13352 | 8.32326 | 34° | 126km/h | 8188m | -14.1m/s | -32.9°C | 14.3% | 355.8hPa | 2.5V | 08:17:14 | 02:45:07 | 00:00:00 | |
| AA1-15 | 2026-08-31 01:03:00 | 52.13378 | 8.32356 | 36° | 126km/h | 8174m | -14.1m/s | -32.8°C | 16.6% | 356.5hPa | 2.5V | 08:17:27 | 02:45:08 | 00:00:00 | |
| DO2JMG | 2026-08-31 01:02:55 | 52.13248 | 8.32208 | 35° | 128km/h | 8241m | -13.8m/s | -33.3°C | 16.7% | 353.1hPa | 2.5V | 08:17:27 | 02:45:03 | 00:00:00 | |
| HSKMA3-T | 2026-08-31 01:02:54 | 52.13222 | 8.32178 | 35° | 124km/h | 8255m | -13.5m/s | -33.5°C | 16.9% | 352.4hPa | 2.5V | 08:17:27 | 02:45:02 | 00:00:00 | |
| BIOWL1-15 | 2026-08-31 01:02:53 | 52.13196 | 8.32149 | 34° | 126km/h | 8268m | -14.3m/s | -33.6°C | 17.1% | 351.8hPa | 2.5V | 08:17:27 | 02:45:01 | 00:00:00 | |
| AA1-15 | 2026-08-31 01:02:49 | 52.13092 | 8.32031 | 34° | 126km/h | 8323m | -14.3m/s | -34.1°C | 18.5% | 349.1hPa | 2.5V | 08:17:27 | 02:44:57 | 00:00:00 | |
| BIOWL1-15 | 2026-08-31 01:02:47 | 52.12885 | 8.31798 | 34° | 126km/h | 8436m | -14m/s | -35.1°C | 19.7% | 343.5hPa | 2.6V | 08:18:18 | 02:44:49 | 00:00:00 | |
| DO2JMG | 2026-08-31 01:02:45 | 52.12989 | 8.31913 | 35° | 122km/h | 8378m | -14.8m/s | -34.6°C | 19.9% | 346.3hPa | 2.5V | 08:18:18 | 02:44:53 | 00:00:00 | |
| DL1XH-west | 2026-08-31 01:02:43 | 52.12937 | 8.31855 | 35° | 126km/h | 8407m | -15.2m/s | -34.9°C | 19.9% | 344.9hPa | 2.5V | 08:18:18 | 02:44:51 | 00:00:00 | |
| DL1XH1-15 | 2026-08-31 01:02:42 | 52.12833 | 8.31740 | 33° | 126km/h | 8464m | -15.2m/s | -35.4°C | 17.4% | 342.1hPa | 2.5V | 08:17:34 | 02:44:47 | 00:00:00 | |
| GOEST3-10 | 2026-08-31 01:02:42 | 52.12911 | 8.31827 | 34° | 124km/h | 8422m | -15.0m/s | 0°C | 0% | 0hPa | 2.5V | 08:17:00 | 02:44:50 | 00:00:00 | |
| DD8BA-10 | 2026-08-31 01:02:41 | 52.12885 | 8.31798 | 35° | 126km/h | 8437m | -14.0m/s | -35.1°C | 17.3% | 343.4hPa | 2.5V | 00:00:00 | 00:00:00 | 00:00:00 | |
| DB0UT-7 | 2026-08-31 01:02:40 | 52.12859 | 8.31769 | 34° | 126km/h | 8450m | -14.7m/s | -35.2°C | 17.3% | 342.8hPa | 2.5V | 00:00:00 | 02:44:48 | 00:00:00 | |
| DL1XH-15 | 2026-08-31 01:02:39 | 52.12781 | 8.31683 | 33° | 122km/h | 8494m | -15.5m/s | -35.7°C | 18% | 340.7hPa | 2.5V | 08:17:36 | 02:44:45 | 00:00:00 | |
| AA1-15 | 2026-08-31 01:02:38 | 52.12806 | 8.31712 | 35° | 126km/h | 8480m | -15.4m/s | -35.5°C | 20.2% | 341.4hPa | 2.5V | 08:18:18 | 02:44:46 | 00:00:00 | |
| DO2JMG | 2026-08-31 01:02:34 | 52.12702 | 8.31597 | 33° | 124km/h | 8540m | -15.9m/s | -36.1°C | 21.9% | 338.5hPa | 2.6V | 08:18:18 | 02:44:42 | 00:00:00 | |
| DL1XH-west | 2026-08-31 01:02:33 | 52.12676 | 8.31569 | 33° | 126km/h | 8556m | -16.1m/s | -36.2°C | 22.4% | 337.7hPa | 2.5V | 08:18:18 | 02:44:41 | 00:00:00 | |
| DL1XH1-15 | 2026-08-31 01:02:32 | 52.12570 | 8.31454 | 33° | 128km/h | 8619m | -15.9m/s | -36.6°C | 18.8% | 334.6hPa | 2.5V | 08:17:44 | 02:44:37 | 00:00:00 | |
| HSKMA3-T | 2026-08-31 01:02:32 | 52.12650 | 8.31540 | 34° | 126km/h | 8572m | -15.7m/s | -36.3°C | 22.6% | 336.9hPa | 2.5V | 08:18:18 | 02:44:40 | 00:00:00 | |
| BIOWL1-15 | 2026-08-31 01:02:30 | 52.12597 | 8.31483 | 33° | 128km/h | 8602m | -16.3m/s | -36.5°C | 21.8% | 335.4hPa | 2.5V | 08:18:18 | 02:44:38 | 00:00:00 | |
| AA1-15 | 2026-08-31 01:02:28 | 52.12544 | 8.31426 | 33° | 122km/h | 8634m | -15.5m/s | -36.8°C | 21.2% | 334hPa | 2.5V | 08:18:18 | 02:44:36 | 00:00:00 | |
| DO2JMG | 2026-08-31 01:02:23 | 52.12410 | 8.31287 | 33° | 126km/h | 8712m | -16.2m/s | -37.4°C | 21.1% | 330.2hPa | 2.5V | 08:18:18 | 02:44:31 | 00:00:00 | |
| HSKMA3-T | 2026-08-31 01:02:21 | 52.12356 | 8.31232 | 32° | 128km/h | 8745m | -16.4m/s | -37.7°C | 21.1% | 328.7hPa | 2.5V | 08:18:18 | 02:44:29 | 00:00:00 | |
| DL1XH1-15 | 2026-08-31 01:02:20 | 52.12303 | 8.31177 | 31° | 126km/h | 8778m | -16.5m/s | -37.9°C | 18.2% | 327.1hPa | 2.5V | 08:17:54 | 02:44:27 | 00:00:00 | |
| BIOWL1-15 | 2026-08-31 01:02:19 | 52.12303 | 8.31177 | 31° | 126km/h | 8778m | -16.5m/s | -37.9°C | 20.9% | 327.1hPa | 2.5V | 08:18:18 | 02:44:27 | 00:00:00 | |
| AA1-15 | 2026-08-31 01:02:17 | 52.12249 | 8.31123 | 31° | 124km/h | 8810m | -16.3m/s | -38.1°C | 20.6% | 325.6hPa | 2.5V | 08:18:18 | 02:44:25 | 00:00:00 | |
| DO9LL-15 | 2026-08-31 01:02:17 | 52.12249 | 8.31123 | 31° | 130km/h | 8810m | -16.2m/s | -38.1°C | 18.0% | 325.6hPa | 2.5V | 00:00:00 | 02:44:25 | 00:00:00 | |
| DL3AQ-11 | 2026-08-31 01:02:15 | 52.12194 | 8.31070 | 31° | 126km/h | 8843m | -17.0m/s | -38.3°C | 14.3% | 324.0hPa | 2.5V | 00:00:00 | 00:00:00 | 00:00:00 | |
| DJ2DS-15 | 2026-08-31 01:02:14 | 52.12166 | 8.31043 | 30° | 130km/h | 8859m | -17.1m/s | -38.4°C | 17.1% | 323.3hPa | 2.5V | 00:00:00 | 02:44:22 | 00:00:00 | |
| DL1XH-15 | 2026-08-31 01:02:13 | 52.11967 | 8.30861 | 29° | 130km/h | 8979m | -16.8m/s | -39.4°C | 17.6% | 317.7hPa | 2.5V | 08:18:06 | 02:44:15 | 00:00:00 | |
| DL1XH1-15 | 2026-08-31 01:02:13 | 52.12024 | 8.30913 | 28° | 128km/h | 8945m | -17.3m/s | -39.2°C | 17% | 319.3hPa | 2.5V | 08:18:04 | 02:44:17 | 00:00:00 | |
| DO2JMG | 2026-08-31 01:02:12 | 52.12110 | 8.30991 | 30° | 128km/h | 8894m | -17m/s | -38.8°C | 19.2% | 321.8hPa | 2.5V | 08:18:18 | 02:44:20 | 00:00:00 | |
| HSKMA3-T | 2026-08-31 01:02:10 | 52.12053 | 8.30939 | 30° | 131km/h | 8928m | -17m/s | -39°C | 19.3% | 320.1hPa | 2.5V | 08:18:18 | 02:44:18 | 00:00:00 | |
| DL1NUX | 2026-08-31 01:02:09 | 52.11996 | 8.30887 | 29° | 131km/h | 8962m | -17m/s | -39.3°C | 17.3% | 318.5hPa | 2.6V | 08:18:05 | 02:44:16 | 00:00:00 | |
| BIOWL1-15 | 2026-08-31 01:02:08 | 52.11996 | 8.30887 | 29° | 131km/h | 8962m | -17m/s | -39.3°C | 19.8% | 318.5hPa | 2.6V | 08:18:18 | 02:44:16 | 00:00:00 | |
| AA1-15 | 2026-08-31 01:02:07 | 52.11938 | 8.30835 | 28° | 130km/h | 8995m | -17.1m/s | -39.6°C | 20.3% | 316.9hPa | 2.5V | 08:18:18 | 02:44:14 | 00:00:00 | |
| DL4BBY-15 | 2026-08-31 01:02:06 | 52.11938 | 8.30835 | 28° | 130km/h | 8996m | -17.0m/s | -42.0°C | 0% | 0hPa | 2.5V | 00:00:00 | 00:00:00 | 00:00:00 | |
| DD1CC3-15 | 2026-08-31 01:02:05 | 52.11938 | 8.30835 | 29° | 130km/h | 8995m | -17.1m/s | -39.6°C | 14.8% | 316.9hPa | 2.5V | 08:18:00 | 00:00:00 | 00:00:00 | |
| DL1ZP-14 | 2026-08-31 01:02:04 | 52.11880 | 8.30784 | 28° | 128km/h | 9029m | -16.8m/s | -39.9°C | 15.4% | 315.4hPa | 2.5V | 00:00:00 | 00:00:00 | 00:00:00 | |
| DL3AQ-11 | 2026-08-31 01:02:03 | 52.11822 | 8.30733 | 28° | 131km/h | 9062m | -17.5m/s | -40.2°C | 16.1% | 313.8hPa | 2.5V | 00:00:00 | 00:00:00 | 00:00:00 | |
| DL1XH1-15 | 2026-08-31 01:02:02 | 52.11735 | 8.30655 | 29° | 131km/h | 9114m | -17.8m/s | -40.6°C | 20.6% | 311.4hPa | 2.5V | 08:18:14 | 02:44:07 | 00:00:00 | |
| DO2JMG | 2026-08-31 01:02:02 | 52.11822 | 8.30733 | 29° | 133km/h | 9062m | -17.5m/s | -40.2°C | 22.1% | 313.8hPa | 2.6V | 08:18:18 | 02:44:10 | 00:00:00 | |
| DL1XH-west | 2026-08-31 01:02:01 | 52.11793 | 8.30707 | 28° | 128km/h | 9079m | -17.3m/s | -40.3°C | 22.6% | 313.1hPa | 2.5V | 08:18:18 | 02:44:09 | 00:00:00 | |
| DL1XH-15 | 2026-08-31 01:02:01 | 52.11677 | 8.30604 | 29° | 131km/h | 9150m | -17.8m/s | -40.9°C | 21.3% | 309.9hPa | 2.6V | 08:18:16 | 02:44:05 | 00:00:00 | |
| DL1NUX | 2026-08-31 01:02:01 | 52.11706 | 8.30629 | 27° | 130km/h | 9132m | -18.2m/s | -40.8°C | 20.9% | 310.7hPa | 2.5V | 08:18:15 | 02:44:06 | 00:00:00 | |
| HSKMA3-T | 2026-08-31 01:01:59 | 52.11735 | 8.30655 | 29° | 131km/h | 9114m | -17.8m/s | -40.6°C | 23.4% | 311.4hPa | 2.5V | 08:18:18 | 02:44:07 | 00:00:00 | |
| BIOWL1-15 | 2026-08-31 01:01:58 | 52.11677 | 8.30604 | 29° | 131km/h | 9150m | -17.8m/s | -40.9°C | 24.2% | 309.9hPa | 2.6V | 08:18:18 | 02:44:05 | 00:00:00 | |
| AA1-15 | 2026-08-31 01:01:56 | 52.11648 | 8.30578 | 28° | 130km/h | 9167m | -17.4m/s | -41.1°C | 24.5% | 309.1hPa | 2.5V | 08:18:18 | 02:44:04 | 00:00:00 | |
| DO2JMG | 2026-08-31 01:01:51 | 52.11505 | 8.30451 | 28° | 126km/h | 9253m | -17.5m/s | -41.9°C | 26.3% | 305.2hPa | 2.5V | 08:19:09 | 02:43:59 | 00:00:00 | |
| DD1CC8 | 2026-08-31 01:01:50 | 52.11449 | 8.30401 | 28° | 124km/h | 9288m | -17.3m/s | -42.2°C | 19.8% | 303.6hPa | 2.5V | 00:00:00 | 00:00:00 | 00:00:00 | |
| DL1NUX | 2026-08-31 01:01:49 | 52.11421 | 8.30376 | 29° | 130km/h | 9305m | -17.6m/s | -42.4°C | 24.2% | 302.9hPa | 2.5V | 08:18:25 | 02:43:56 | 00:00:00 | |
| DL8DAS-14 | 2026-08-31 01:01:49 | 52.11421 | 8.30376 | 29° | 130km/h | 9305m | -17.6m/s | -42.4°C | 20.1% | 302.9hPa | 2.5V | 00:00:00 | 00:00:00 | 00:00:00 | |
| DM0DOS-11 | 2026-08-31 01:01:48 | 52.11393 | 8.30350 | 30° | 128km/h | 9322m | -17.7m/s | -42.6°C | 24.5% | 302hPa | 2.5V | 08:18:26 | 02:43:55 | 00:00:00 | |
| HSKMA3-T | 2026-08-31 01:01:48 | 52.11421 | 8.30376 | 29° | 130km/h | 9305m | -17.6m/s | -42.4°C | 27.3% | 302.9hPa | 2.5V | 08:19:09 | 02:43:56 | 00:00:00 | |
| BIOWL1-15 | 2026-08-31 01:01:46 | 52.11365 | 8.30323 | 29° | 128km/h | 9339m | -17.9m/s | -42.7°C | 28% | 301.2hPa | 2.5V | 08:19:09 | 02:43:54 | 00:00:00 | |
| AA1-15 | 2026-08-31 01:01:45 | 52.11337 | 8.30297 | 31° | 130km/h | 9357m | -17.6m/s | -42.9°C | 28.4% | 300.5hPa | 2.5V | 08:19:09 | 02:43:53 | 00:00:00 | |
| DB0ND-19 | 2026-08-31 01:01:43 | 52.11253 | 8.30217 | 30° | 126km/h | 9409m | -18.1m/s | -43.4°C | 22.3% | 298.2hPa | 2.5V | 00:00:00 | 00:00:00 | 00:00:00 | |
| DL1XH1-15 | 2026-08-31 01:01:42 | 52.11169 | 8.30137 | 29° | 128km/h | 9463m | -18.1m/s | -43.9°C | 28% | 295.9hPa | 2.5V | 08:18:34 | 02:43:47 | 00:00:00 | |
| DO2JMG | 2026-08-31 01:01:41 | 52.11225 | 8.30190 | 30° | 131km/h | 9427m | -18.7m/s | -43.6°C | 30.1% | 297.4hPa | 2.5V | 08:19:09 | 02:43:49 | 00:00:00 | |
| DL1XH-west | 2026-08-31 01:01:40 | 52.11196 | 8.30163 | 31° | 128km/h | 9445m | -17.4m/s | -43.8°C | 30.4% | 296.7hPa | 2.5V | 08:19:09 | 02:43:48 | 00:00:00 | |
| DB0UT-7 | 2026-08-31 01:01:40 | 52.11196 | 8.30163 | 31° | 128km/h | 9446m | -17.4m/s | -43.7°C | 27.5% | 296.6hPa | 2.5V | 00:00:00 | 02:43:48 | 00:00:00 | |
| DM0DOS-11 | 2026-08-31 01:01:38 | 52.11113 | 8.30083 | 30° | 126km/h | 9498m | -17.1m/s | -44.3°C | 28.8% | 294.3hPa | 2.5V | 08:18:36 | 02:43:45 | 00:00:00 | |
| HSKMA3-T | 2026-08-31 01:01:37 | 52.11113 | 8.30083 | 30° | 126km/h | 9498m | -17.1m/s | -44.3°C | 31.7% | 294.3hPa | 2.5V | 08:19:09 | 02:43:45 | 00:00:00 | |
| AA1-15 | 2026-08-31 01:01:35 | 52.11030 | 8.30002 | 31° | 126km/h | 9549m | -18.3m/s | -44.8°C | 32.7% | 292.1hPa | 2.5V | 08:19:09 | 02:43:42 | 00:00:00 | |
| BIOWL1-15 | 2026-08-31 01:01:35 | 52.11058 | 8.30029 | 32° | 128km/h | 9531m | -17.4m/s | -44.6°C | 32.4% | 292.8hPa | 2.5V | 08:19:09 | 02:43:43 | 00:00:00 | |
| DJ2DS-15 | 2026-08-31 01:01:34 | 52.11030 | 8.30002 | 31° | 128km/h | 9549m | -18.3m/s | -44.7°C | 29.7% | 292.0hPa | 2.5V | 08:18:00 | 02:43:42 | 00:00:00 | |
| DL1ZP-14 | 2026-08-31 01:01:33 | 52.11003 | 8.29975 | 31° | 128km/h | 9567m | -17.6m/s | -45.0°C | 25.0% | 291.3hPa | 2.5V | 00:00:00 | 00:00:00 | 00:00:00 | |
| DL1XH-15 | 2026-08-31 01:01:32 | 52.10813 | 8.29778 | 33° | 128km/h | 9691m | -18m/s | -45.8°C | 30.7% | 285.9hPa | 2.5V | 08:18:47 | 02:43:34 | 00:00:00 | |
| DO2JMG | 2026-08-31 01:01:30 | 52.10921 | 8.29892 | 33° | 126km/h | 9621m | -17.9m/s | -45.5°C | 33.8% | 289hPa | 2.5V | 08:19:09 | 02:43:38 | 00:00:00 | |
| DL1NUX | 2026-08-31 01:01:29 | 52.10867 | 8.29836 | 33° | 130km/h | 9657m | -17.9m/s | -45.6°C | 31.3% | 287.4hPa | 2.5V | 08:18:45 | 02:43:36 | 00:00:00 | |
| HSKMA3-T | 2026-08-31 01:01:27 | 52.10840 | 8.29807 | 33° | 126km/h | 9674m | -17.6m/s | -45.7°C | 33.6% | 286.6hPa | 2.5V | 08:19:09 | 02:43:35 | 00:00:00 | |
| BIOWL1-15 | 2026-08-31 01:01:24 | 52.10651 | 8.29598 | 35° | 131km/h | 9800m | -18.3m/s | -46.6°C | 31.8% | 281.3hPa | 2.5V | 08:19:09 | 02:43:28 | 00:00:00 | |
| AA1-15 | 2026-08-31 01:01:24 | 52.10731 | 8.29689 | 34° | 131km/h | 9745m | -18m/s | -46.2°C | 33% | 283.6hPa | 2.6V | 08:19:09 | 02:43:31 | 00:00:00 | |
| DL3AQ-11 | 2026-08-31 01:01:23 | 52.10705 | 8.29659 | 35° | 126km/h | 9763m | -18.4m/s | -46.4°C | 24.6% | 282.8hPa | 2.5V | 00:00:00 | 00:00:00 | 00:00:00 | |
| GOEST3-10 | 2026-08-31 01:01:22 | 52.10705 | 8.29658 | 36° | 128km/h | 9763m | -18.4m/s | -46.3°C | 29.9% | 282.8hPa | 2.5V | 00:00:00 | 02:43:30 | 00:00:00 | |
| DL1XH1-15 | 2026-08-31 01:01:20 | 52.10624 | 8.29568 | 34° | 128km/h | 9817m | -18m/s | -46.6°C | 28.4% | 280.5hPa | 2.5V | 08:18:54 | 02:43:27 | 00:00:00 | |
| DL1NUX | 2026-08-31 01:01:19 | 52.10597 | 8.29538 | 35° | 130km/h | 9835m | -18.6m/s | -46.7°C | 28.1% | 279.8hPa | 2.5V | 08:18:55 | 02:43:26 | 00:00:00 | |
| DO2JMG | 2026-08-31 01:01:19 | 52.10624 | 8.29568 | 34° | 128km/h | 9817m | -18m/s | -46.6°C | 31.2% | 280.5hPa | 2.5V | 08:19:09 | 02:43:27 | 00:00:00 | |
| HSKMA3-T | 2026-08-31 01:01:17 | 52.10571 | 8.29506 | 37° | 130km/h | 9854m | -18.4m/s | -46.8°C | 30.9% | 279.1hPa | 2.5V | 08:19:09 | 02:43:25 | 00:00:00 | |
| DO9LL-15 | 2026-08-31 01:01:17 | 52.10571 | 8.29506 | 37° | 131km/h | 9854m | -18.4m/s | -46.7°C | 27.9% | 279.0hPa | 2.5V | 00:00:00 | 02:43:25 | 00:00:00 | |
| DJ2DS-15 | 2026-08-31 01:01:14 | 52.10491 | 8.29410 | 38° | 131km/h | 9909m | -18.5m/s | -47.0°C | 27.7% | 276.7hPa | 2.5V | 00:00:00 | 02:43:22 | 00:00:00 | |
| BIOWL1-15 | 2026-08-31 01:01:14 | 52.10491 | 8.29411 | 38° | 128km/h | 9909m | -18.5m/s | -47.1°C | 30.8% | 276.8hPa | 2.5V | 08:19:09 | 02:43:22 | 00:00:00 | |
| DL1NUX | 2026-08-31 01:01:13 | 52.10335 | 8.29215 | 37° | 130km/h | 10018m | -18.5m/s | -47.8°C | 29.2% | 272.2hPa | 2.5V | 08:19:05 | 02:43:16 | 00:00:00 | |
| DL3AQ-11 | 2026-08-31 01:01:12 | 52.10413 | 8.29313 | 37° | 128km/h | 9963m | -18.3m/s | -47.5°C | 23.0% | 274.5hPa | 2.5V | 00:00:00 | 00:00:00 | 00:00:00 | |
| DL1XH-15 | 2026-08-31 01:01:11 | 52.10309 | 8.29181 | 38° | 131km/h | 10037m | -18.2m/s | -47.9°C | 29.5% | 271.5hPa | 2.5V | 08:19:06 | 02:43:15 | 00:00:00 | |
| DL1XH1-15 | 2026-08-31 01:01:10 | 52.10361 | 8.29248 | 38° | 130km/h | 10000m | -18.4m/s | -47.7°C | 28.9% | 272.9hPa | 2.5V | 08:19:04 | 02:43:17 | 00:00:00 | |
| DO2JMG | 2026-08-31 01:01:09 | 52.10361 | 8.29248 | 38° | 130km/h | 10000m | -18.4m/s | -47.7°C | 31.9% | 272.9hPa | 2.5V | 08:19:09 | 02:43:17 | 00:00:00 | |
| HSKMA3-T | 2026-08-31 01:01:07 | 52.10283 | 8.29148 | 38° | 130km/h | 10055m | -18m/s | -48°C | 32.8% | 270.6hPa | 2.5V | 08:19:09 | 02:43:14 | 00:00:00 | |
| BIOWL1-15 | 2026-08-31 01:01:05 | 52.10153 | 8.28980 | 39° | 130km/h | 10146m | -18.5m/s | -48.8°C | 34.4% | 267hPa | 2.5V | 08:20:00 | 02:43:09 | 00:00:00 | |
| AA1-15 | 2026-08-31 01:01:04 | 52.10179 | 8.29014 | 39° | 133km/h | 10128m | -18.2m/s | -48.6°C | 34.1% | 267.7hPa | 2.5V | 08:20:51 | 02:43:10 | 00:00:00 | |
| DL1NUX | 2026-08-31 01:01:03 | 52.10075 | 8.28877 | 39° | 131km/h | 10201m | -18.7m/s | -49.3°C | 32.3% | 264.8hPa | 2.5V | 08:19:15 | 02:43:06 | 00:00:00 | |
| DK9SH | 2026-08-31 01:01:03 | 52.10205 | 8.29048 | 39° | 131km/h | 10110m | -18.6m/s | -48.4°C | 24.9% | 268.4hPa | 2.5V | 08:20:00 | 00:00:00 | 00:00:00 | |
| DL1ZP-14 | 2026-08-31 01:01:02 | 52.09945 | 8.28702 | 40° | 133km/h | 10293m | -18.7m/s | -50.1°C | 27.0% | 261.0hPa | 2.5V | 00:00:00 | 00:00:00 | 00:00:00 | |
| DL1XH1-15 | 2026-08-31 01:01:00 | 52.10101 | 8.28912 | 39° | 133km/h | 10183m | -18.5m/s | -49.1°C | 31.9% | 265.5hPa | 2.5V | 08:19:14 | 02:43:07 | 00:00:00 | |
| DM0DOS-11 | 2026-08-31 01:00:59 | 52.10049 | 8.28843 | 38° | 133km/h | 10220m | -18.9m/s | -49.4°C | 32.5% | 264.1hPa | 2.5V | 08:19:16 | 02:43:05 | 00:00:00 | |
| DL1XH-west | 2026-08-31 01:00:59 | 52.10101 | 8.28912 | 39° | 133km/h | 10183m | -18.5m/s | -49.1°C | 34.9% | 265.5hPa | 2.5V | 08:20:00 | 02:43:07 | 00:00:00 | |
| DO2JMG | 2026-08-31 01:00:58 | 52.10074 | 8.28877 | 40° | 131km/h | 10201m | -18.7m/s | -49.3°C | 35.2% | 264.8hPa | 2.5V | 08:20:00 | 02:43:06 | 00:00:00 | |
| HSKMA3-T | 2026-08-31 01:00:56 | 52.10022 | 8.28808 | 40° | 135km/h | 10239m | -18.6m/s | -49.6°C | 35.4% | 263.2hPa | 2.5V | 08:20:00 | 02:43:04 | 00:00:00 | |
| DL3AQ-11 | 2026-08-31 01:00:56 | 52.09997 | 8.28773 | 39° | 130km/h | 10257m | -18.4m/s | -49.8°C | 26.7% | 262.5hPa | 2.5V | 00:00:00 | 00:00:00 | 00:00:00 | |
| DL1NUX | 2026-08-31 01:00:53 | 52.09814 | 8.28526 | 40° | 133km/h | 10386m | -19.3m/s | -50.9°C | 35.1% | 257.3hPa | 2.5V | 08:19:25 | 02:42:56 | 00:00:00 | |
| BIOWL1-15 | 2026-08-31 01:00:51 | 52.09893 | 8.28632 | 40° | 135km/h | 10331m | -18.8m/s | -50.4°C | 36.2% | 259.6hPa | 2.5V | 08:20:00 | 02:42:59 | 00:00:00 | |
| GOEST3-10 | 2026-08-31 01:00:51 | 52.09892 | 8.28632 | 41° | 135km/h | 10331m | -18.8m/s | -50.3°C | 34.1% | 259.5hPa | 2.5V | 00:00:00 | 02:42:59 | 00:00:00 | |
| DL1CLM-18 | 2026-08-31 01:00:50 | 52.09892 | 8.28632 | 41° | 135km/h | 10331m | -18.8m/s | -50.4°C | 27.6% | 259.6hPa | 2.5V | 00:00:00 | 00:00:00 | 00:00:00 | |
| DL1XH1-15 | 2026-08-31 01:00:50 | 52.09841 | 8.28561 | 39° | 137km/h | 10368m | -18.7m/s | -50.7°C | 34.9% | 258.1hPa | 2.5V | 08:19:24 | 02:42:57 | 00:00:00 | |
| DM0DOS-11 | 2026-08-31 01:00:49 | 52.09789 | 8.28490 | 39° | 135km/h | 10406m | -18.9m/s | -51°C | 35% | 256.6hPa | 2.5V | 08:19:26 | 02:42:55 | 00:00:00 | |
| DO2JMG | 2026-08-31 01:00:48 | 52.09815 | 8.28526 | 41° | 133km/h | 10386m | -19.3m/s | -50.9°C | 36.9% | 257.3hPa | 2.5V | 08:20:00 | 02:42:56 | 00:00:00 | |
| HSKMA3-T | 2026-08-31 01:00:45 | 52.09736 | 8.28419 | 40° | 133km/h | 10444m | -19m/s | -51.1°C | 36.1% | 255.1hPa | 2.5V | 08:20:00 | 02:42:53 | 00:00:00 | |
| BIOWL1-15 | 2026-08-31 01:00:45 | 52.09631 | 8.28278 | 40° | 139km/h | 10520m | -19.3m/s | -51.7°C | 35.3% | 252.2hPa | 2.5V | 08:20:00 | 02:42:49 | 00:00:00 | |
| DD1CC3-15 | 2026-08-31 01:00:44 | 52.09736 | 8.28419 | 41° | 133km/h | 10444m | -19.0m/s | -51.1°C | 27.5% | 255.1hPa | 2.5V | 08:20:00 | 00:00:00 | 00:00:00 | |
| DL1NUX | 2026-08-31 01:00:43 | 52.09552 | 8.28171 | 40° | 137km/h | 10578m | -19.5m/s | -52°C | 33.4% | 249.9hPa | 2.5V | 08:19:35 | 02:42:46 | 00:00:00 | |
| DK9SH | 2026-08-31 01:00:42 | 52.09684 | 8.28349 | 41° | 137km/h | 10482m | -19.3m/s | -51.4°C | 27.2% | 253.7hPa | 2.5V | 08:20:00 | 00:00:00 | 00:00:00 | |
| DL1XH1-15 | 2026-08-31 01:00:40 | 52.09579 | 8.28207 | 39° | 137km/h | 10558m | -18.8m/s | -51.9°C | 33.6% | 250.7hPa | 2.5V | 08:19:34 | 02:42:47 | 00:00:00 | |
| DB0UT-7 | 2026-08-31 01:00:40 | 52.09605 | 8.28242 | 40° | 135km/h | 10539m | -18.9m/s | -51.7°C | 33.6% | 251.4hPa | 2.5V | 00:00:00 | 02:42:48 | 00:00:00 | |
| DM0DOS-11 | 2026-08-31 01:00:39 | 52.09526 | 8.28135 | 39° | 133km/h | 10596m | -19.3m/s | -52.1°C | 33.7% | 249.2hPa | 2.5V | 08:19:36 | 02:42:45 | 00:00:00 | |
| DO2JMG | 2026-08-31 01:00:37 | 52.09526 | 8.28135 | 40° | 133km/h | 10597m | -19.3m/s | -52.1°C | 34.8% | 249.2hPa | 2.5V | 08:20:00 | 02:42:45 | 00:00:00 | |
| HSKMA3-T | 2026-08-31 01:00:35 | 52.09474 | 8.28063 | 42° | 135km/h | 10635m | -19.6m/s | -52.3°C | 34.9% | 247.7hPa | 2.5V | 08:20:00 | 02:42:43 | 00:00:00 | |
| DJ2DS-15 | 2026-08-31 01:00:34 | 52.09448 | 8.28027 | 41° | 135km/h | 10655m | -19.3m/s | -52.3°C | 33.7% | 247.0hPa | 2.5V | 00:00:00 | 02:42:42 | 00:00:00 | |
| DL1NUX | 2026-08-31 01:00:33 | 52.09295 | 8.27806 | 41° | 133km/h | 10769m | -19.4m/s | -53.3°C | 32.9% | 242.7hPa | 2.5V | 08:19:45 | 02:42:36 | 00:00:00 | |
| BIOWL1-15 | 2026-08-31 01:00:31 | 52.09371 | 8.27917 | 41° | 137km/h | 10713m | -19.4m/s | -52.8°C | 33.9% | 244.8hPa | 2.5V | 08:20:00 | 02:42:39 | 00:00:00 | |
| DL1XH1-15 | 2026-08-31 01:00:30 | 52.09320 | 8.27843 | 42° | 137km/h | 10750m | -19.5m/s | -53.1°C | 33.3% | 243.4hPa | 2.5V | 08:19:44 | 02:42:37 | 00:00:00 | |
| DM0DOS-11 | 2026-08-31 01:00:28 | 52.09269 | 8.27770 | 41° | 137km/h | 10788m | -19.6m/s | -53.4°C | 32.5% | 241.9hPa | 2.5V | 08:19:46 | 02:42:35 | 00:00:00 | |
| DO2JMG | 2026-08-31 01:00:27 | 52.09269 | 8.27770 | 42° | 137km/h | 10788m | -19.6m/s | -53.4°C | 32.3% | 241.9hPa | 2.5V | 08:20:00 | 02:42:35 | 00:00:00 | |
| DL1XH-west | 2026-08-31 01:00:26 | 52.09243 | 8.27732 | 43° | 137km/h | 10808m | -19.4m/s | -53.4°C | 31.6% | 241.2hPa | 2.5V | 08:20:00 | 02:42:34 | 00:00:00 | |
| HSKMA3-T | 2026-08-31 01:00:25 | 52.09218 | 8.27695 | 42° | 137km/h | 10827m | -19.9m/s | -53.4°C | 31% | 240.5hPa | 2.5V | 08:20:00 | 02:42:33 | 00:00:00 | |
| DD1CC3-15 | 2026-08-31 01:00:25 | 52.09218 | 8.27695 | 43° | 137km/h | 10827m | -19.9m/s | -53.4°C | 24.2% | 240.5hPa | 2.5V | 08:20:00 | 00:00:00 | 00:00:00 | |
| DL1NUX | 2026-08-31 01:00:23 | 52.09040 | 8.27430 | 44° | 133km/h | 10964m | -19.4m/s | -53.7°C | 29.4% | 235.4hPa | 2.5V | 08:19:55 | 02:42:26 | 00:00:00 | |
| BIOWL1-15 | 2026-08-31 01:00:22 | 52.09091 | 8.27506 | 43° | 133km/h | 10926m | -19.7m/s | -53.7°C | 29.5% | 236.9hPa | 2.5V | 08:20:00 | 02:42:28 | 00:00:00 | |
| DD8BA-10 | 2026-08-31 01:00:21 | 52.09116 | 8.27543 | 44° | 137km/h | 10906m | -19.6m/s | -53.6°C | 30.2% | 237.6hPa | 2.4V | 00:00:00 | 00:00:00 | 00:00:00 | |
| EDDB2-12 | 2026-08-31 01:00:20 | 52.09091 | 8.27506 | 42° | 133km/h | 10926m | -19.7m/s | -53.7°C | 23.1% | 236.9hPa | 2.4V | 00:00:00 | 00:00:00 | 00:00:00 | |
| DM0DOS-11 | 2026-08-31 01:00:18 | 52.09016 | 8.27391 | 43° | 137km/h | 10983m | -19.8m/s | -53.8°C | 29.1% | 234.7hPa | 2.4V | 08:19:56 | 02:42:25 | 00:00:00 | |
| DO2JMG | 2026-08-31 01:00:17 | 52.09016 | 8.27391 | 44° | 137km/h | 10983m | -19.8m/s | -53.8°C | 28.5% | 234.7hPa | 2.4V | 08:20:00 | 02:42:25 | 00:00:00 | |
| HSKMA3-T | 2026-08-31 01:00:15 | 52.08967 | 8.27312 | 46° | 135km/h | 11022m | -19.6m/s | -53.9°C | 28% | 233.3hPa | 2.4V | 08:20:00 | 02:42:23 | 00:00:00 | |
| DL1XH1-15 | 2026-08-31 01:00:14 | 52.08825 | 8.27065 | 47° | 139km/h | 11138m | -20.4m/s | -54.2°C | 27% | 229hPa | 2.4V | 08:20:04 | 02:42:17 | 00:00:00 | |
| DJ2DS-15 | 2026-08-31 01:00:14 | 52.08943 | 8.27271 | 46° | 135km/h | 11041m | -20.0m/s | -53.9°C | 28.4% | 232.5hPa | 2.4V | 00:00:00 | 02:42:22 | 00:00:00 | |
| EDDB2-11 | 2026-08-31 01:00:11 | 52.08848 | 8.27107 | 47° | 137km/h | 11119m | -20.1m/s | -54.2°C | 21.0% | 229.8hPa | 2.4V | 00:00:00 | 00:00:00 | 00:00:00 | |
| DL1XH-15 | 2026-08-31 01:00:10 | 52.08778 | 8.26980 | 47° | 137km/h | 11178m | -20.6m/s | -54.2°C | 26% | 227.6hPa | 2.4V | 08:20:06 | 02:42:15 | 00:00:00 | |
| BIOWL1-15 | 2026-08-31 01:00:09 | 52.08825 | 8.27065 | 47° | 139km/h | 11139m | -20.5m/s | -54.2°C | 26.1% | 229hPa | 2.4V | 08:20:51 | 02:42:17 | 00:00:00 | |
| DO2JMG | 2026-08-31 01:00:07 | 52.08778 | 8.26980 | 48° | 137km/h | 11179m | -20.6m/s | -54.2°C | 25% | 227.6hPa | 2.4V | 08:20:51 | 02:42:15 | 00:00:00 | |
| SO1NDE-10 | 2026-08-31 01:00:07 | 52.08778 | 8.26980 | 48° | 135km/h | 11179m | -20.5m/s | -54.2°C | 26.0% | 227.6hPa | 2.4V | 00:00:00 | 02:42:15 | 00:00:00 | |
| DL4BBY-15 | 2026-08-31 01:00:06 | 52.08755 | 8.26938 | 49° | 135km/h | 11198m | -19.9m/s | -56.7°C | 0% | 0hPa | 2.4V | 00:00:00 | 00:00:00 | 00:00:00 | |
| DL1XH1-15 | 2026-08-31 01:00:04 | 52.08595 | 8.26648 | 48° | 135km/h | 11337m | -19.8m/s | -54.4°C | 23% | 222.1hPa | 2.4V | 08:20:14 | 02:42:07 | 00:00:00 | |
| HSKMA3-T | 2026-08-31 01:00:04 | 52.08709 | 8.26854 | 48° | 137km/h | 11238m | -20.7m/s | -54.4°C | 23.5% | 225.5hPa | 2.4V | 08:20:51 | 02:42:12 | 00:00:00 | |
| DL1NUX | 2026-08-31 01:00:03 | 52.08572 | 8.26608 | 47° | 131km/h | 11358m | -20.9m/s | -54.4°C | 22.4% | 221.4hPa | 2.4V | 08:20:15 | 02:42:06 | 00:00:00 | |
| DF8AY | 2026-08-31 01:00:01 | 52.08640 | 8.26730 | 49° | 133km/h | 11298m | -19.9m/s | -54.4°C | 22.1% | 223.4hPa | 2.5V | 08:21:42 | 02:42:09 | 00:00:00 | |
| AA1-15 | 2026-08-31 01:00:00 | 52.08618 | 8.26689 | 47° | 133km/h | 11317m | -20.1m/s | -54.4°C | 21.5% | 222.8hPa | 2.5V | 08:20:51 | 02:42:08 | 00:00:00 | |
| BIOWL1-15 | 2026-08-31 01:00:00 | 52.08572 | 8.26608 | 48° | 131km/h | 11358m | -20.9m/s | -54.4°C | 20.4% | 221.4hPa | 2.4V | 08:20:51 | 02:42:06 | 00:00:00 | |
| DO2JMG | 2026-08-31 00:59:57 | 52.08550 | 8.26567 | 48° | 135km/h | 11378m | -20.8m/s | -54.5°C | 19.8% | 220.7hPa | 2.4V | 08:20:51 | 02:42:05 | 00:00:00 | |
| DL1XH-west | 2026-08-31 00:59:55 | 52.08504 | 8.26486 | 47° | 133km/h | 11420m | -20.8m/s | -54.6°C | 18.7% | 219.3hPa | 2.5V | 08:20:51 | 02:42:03 | 00:00:00 | |
| BUE01 | 2026-08-31 00:59:53 | 52.08459 | 8.26404 | 48° | 130km/h | 11460m | -19.8m/s | -54.8°C | 14.4% | 217.9hPa | 2.4V | 00:00:00 | 00:00:00 | 00:00:00 | |
| HSKMA3-T | 2026-08-31 00:59:53 | 52.08459 | 8.26404 | 48° | 131km/h | 11460m | -19.8m/s | -54.8°C | 17.6% | 217.9hPa | 2.4V | 08:20:51 | 02:42:01 | 00:00:00 | |
| DL3AQ-11 | 2026-08-31 00:59:52 | 52.08415 | 8.26321 | 49° | 131km/h | 11500m | -19.1m/s | -54.7°C | 13.1% | 216.6hPa | 2.4V | 00:00:00 | 00:00:00 | 00:00:00 | |
| HTAHTA | 2026-08-31 00:59:50 | 52.08393 | 8.26280 | 49° | 133km/h | 11520m | -19.5m/s | -54.7°C | 12.6% | 215.9hPa | 2.4V | 00:00:00 | 00:00:00 | 00:00:00 | |
| DL1XH-15 | 2026-08-31 00:59:49 | 52.08329 | 8.26149 | 52° | 139km/h | 11577m | -19.8m/s | -54.3°C | 15.8% | 214hPa | 2.4V | 08:20:26 | 02:41:55 | 00:00:00 | |
| AA1-15 | 2026-08-31 00:59:49 | 52.08372 | 8.26237 | 51° | 135km/h | 11539m | -19.5m/s | -54.7°C | 14.9% | 215.2hPa | 2.5V | 08:20:51 | 02:41:57 | 00:00:00 | |
| DL1NUX | 2026-08-31 00:59:49 | 52.08350 | 8.26193 | 50° | 137km/h | 11558m | -19.6m/s | -54.6°C | 16.7% | 214.7hPa | 2.5V | 08:20:25 | 02:41:56 | 00:00:00 | |
| BIOWL1-15 | 2026-08-31 00:59:48 | 52.08350 | 8.26193 | 51° | 137km/h | 11558m | -19.6m/s | -54.6°C | 14.2% | 214.7hPa | 2.5V | 08:20:51 | 02:41:56 | 00:00:00 | |
| DO2JMG | 2026-08-31 00:59:46 | 52.08307 | 8.26103 | 53° | 141km/h | 11597m | -20.3m/s | -53.8°C | 12.6% | 213.3hPa | 2.4V | 08:20:51 | 02:41:54 | 00:00:00 | |
| DL1XH-west | 2026-08-31 00:59:45 | 52.08287 | 8.26057 | 55° | 141km/h | 11617m | -19.4m/s | -53.7°C | 11.9% | 212.7hPa | 2.5V | 08:20:51 | 02:41:53 | 00:00:00 | |
| DL8DAS-14 | 2026-08-31 00:59:44 | 52.08266 | 8.26010 | 54° | 139km/h | 11636m | -19.2m/s | -53.5°C | 8.7% | 212.0hPa | 2.5V | 00:00:00 | 00:00:00 | 00:00:00 | |
| DL1NUX | 2026-08-31 00:59:43 | 52.08160 | 8.25725 | 61° | 130km/h | 11751m | -20.4m/s | -53°C | 10.2% | 208.2hPa | 2.5V | 08:20:35 | 02:41:46 | 00:00:00 | |
| HSKMA3-T | 2026-08-31 00:59:42 | 52.08228 | 8.25915 | 58° | 135km/h | 11673m | -19.2m/s | -53.4°C | 10.1% | 210.8hPa | 2.5V | 08:20:51 | 02:41:50 | 00:00:00 | |
| DD8BA-10 | 2026-08-31 00:59:41 | 52.08210 | 8.25867 | 59° | 130km/h | 11693m | -20.4m/s | -53.4°C | 11.5% | 210.1hPa | 2.5V | 00:00:00 | 00:00:00 | 00:00:00 | |
| DB0UT-7 | 2026-08-31 00:59:40 | 52.08192 | 8.25820 | 61° | 126km/h | 11712m | -19.4m/s | -53.4°C | 11.3% | 209.4hPa | 2.5V | 00:00:00 | 02:41:48 | 00:00:00 | |
| DD1CC1-15 | 2026-08-31 00:59:39 | 52.08192 | 8.25820 | 61° | 133km/h | 11712m | -19.5m/s | -53.4°C | 7.3% | 209.5hPa | 2.5V | 08:20:00 | 00:00:00 | 00:00:00 | |
| DM0DOS-11 | 2026-08-31 00:59:38 | 52.08144 | 8.25679 | 59° | 131km/h | 11771m | -21m/s | -52.8°C | 9.7% | 207.6hPa | 2.5V | 08:20:36 | 02:41:45 | 00:00:00 | |
| AA1-15 | 2026-08-31 00:59:38 | 52.08160 | 8.25725 | 61° | 130km/h | 11751m | -20.4m/s | -53.1°C | 7.9% | 208.2hPa | 2.5V | 08:20:51 | 02:41:46 | 00:00:00 | |
| BIOWL1-15 | 2026-08-31 00:59:37 | 52.08144 | 8.25679 | 60° | 131km/h | 11771m | -21m/s | -52.9°C | 7.3% | 207.6hPa | 2.5V | 08:20:51 | 02:41:45 | 00:00:00 | |
| DO2JMG | 2026-08-31 00:59:36 | 52.08128 | 8.25633 | 61° | 128km/h | 11792m | -20.3m/s | -52.6°C | 6.8% | 207hPa | 2.4V | 08:20:51 | 02:41:44 | 00:00:00 | |
| DL1XH-west | 2026-08-31 00:59:34 | 52.08096 | 8.25543 | 60° | 126km/h | 11832m | -21.3m/s | -52.7°C | 6% | 205.7hPa | 2.5V | 08:20:51 | 02:41:42 | 00:00:00 | |
| DJ2DS-15 | 2026-08-31 00:59:34 | 52.08096 | 8.25542 | 60° | 124km/h | 11832m | -21.2m/s | -52.6°C | 8.6% | 205.6hPa | 2.5V | 00:00:00 | 02:41:42 | 00:00:00 | |
| DL1NUX | 2026-08-31 00:59:33 | 52.08000 | 8.25281 | 58° | 124km/h | 11953m | -21.1m/s | -53.3°C | 7.5% | 201.8hPa | 2.4V | 08:20:45 | 02:41:36 | 00:00:00 | |
| HSKMA3-T | 2026-08-31 00:59:31 | 52.08048 | 8.25410 | 60° | 124km/h | 11894m | -20.3m/s | -53°C | 5.2% | 203.7hPa | 2.4V | 08:20:51 | 02:41:39 | 00:00:00 | |
| DD8BA-10 | 2026-08-31 00:59:31 | 52.08048 | 8.25410 | 60° | 122km/h | 11894m | -20.2m/s | -52.9°C | 8.1% | 203.7hPa | 2.4V | 00:00:00 | 00:00:00 | 00:00:00 | |
| DF7PN | 2026-08-31 00:59:30 | 52.08032 | 8.25367 | 58° | 120km/h | 11914m | -20.1m/s | -53.1°C | 4.4% | 203.0hPa | 2.5V | 00:00:00 | 00:00:00 | 00:00:00 | |
| DL1CLM-18 | 2026-08-31 00:59:29 | 52.08032 | 8.25367 | 59° | 122km/h | 11914m | -20.1m/s | -53.1°C | 4.4% | 203.0hPa | 2.5V | 00:00:00 | 00:00:00 | 00:00:00 | |
| DM0DOS-11 | 2026-08-31 00:59:28 | 52.07983 | 8.25238 | 56° | 122km/h | 11974m | -21.7m/s | -53.3°C | 7.2% | 201.2hPa | 2.5V | 08:20:46 | 02:41:35 | 00:00:00 | |
| AA1-15 | 2026-08-31 00:59:27 | 52.07983 | 8.25238 | 57° | 122km/h | 11974m | -21.7m/s | -53.3°C | 4% | 201.2hPa | 2.5V | 08:20:51 | 02:41:35 | 00:00:00 | |
| BIOWL1-15 | 2026-08-31 00:59:26 | 52.07966 | 8.25196 | 57° | 124km/h | 11996m | -21.8m/s | -53.3°C | 3.7% | 200.5hPa | 2.5V | 08:20:51 | 02:41:34 | 00:00:00 | |
| DO2JMG | 2026-08-31 00:59:25 | 52.07949 | 8.25154 | 56° | 120km/h | 12017m | -21.5m/s | -53.3°C | 3.4% | 199.8hPa | 2.5V | 08:20:51 | 02:41:33 | 00:00:00 | |
| DL1XH1-15 | 2026-08-31 00:59:24 | 52.07844 | 8.24906 | 53° | 126km/h | 12144m | -22m/s | -52.1°C | 5.2% | 195.9hPa | 2.5V | 08:20:54 | 02:41:27 | 00:00:00 | |
| DL1XH-west | 2026-08-31 00:59:24 | 52.07932 | 8.25113 | 56° | 124km/h | 12038m | -21.1m/s | -53.4°C | 3.2% | 199.2hPa | 2.4V | 08:20:51 | 02:41:32 | 00:00:00 | |
| HSKMA3-T | 2026-08-31 00:59:20 | 52.07862 | 8.24947 | 55° | 124km/h | 12122m | -21.9m/s | -52.4°C | 2.1% | 196.6hPa | 2.5V | 08:21:42 | 02:41:28 | 00:00:00 | |
| DD1CC1-15 | 2026-08-31 00:59:19 | 52.07862 | 8.24947 | 56° | 124km/h | 12122m | -21.9m/s | -52.4°C | 2.5% | 196.6hPa | 2.4V | 00:00:00 | 00:00:00 | 00:00:00 | |
| DM0DOS-11 | 2026-08-31 00:59:18 | 52.07807 | 8.24822 | 53° | 124km/h | 12187m | -21.8m/s | -51.7°C | 4.9% | 194.7hPa | 2.4V | 08:20:56 | 02:41:25 | 00:00:00 | |
| AA1-15 | 2026-08-31 00:59:16 | 52.07789 | 8.24780 | 55° | 128km/h | 12209m | -21.4m/s | -51.6°C | 1.5% | 194hPa | 2.5V | 08:21:42 | 02:41:24 | 00:00:00 | |
| DO2JMG | 2026-08-31 00:59:14 | 52.07753 | 8.24694 | 56° | 130km/h | 12251m | -21m/s | -51°C | 1.2% | 192.8hPa | 2.5V | 08:21:42 | 02:41:22 | 00:00:00 | |
| DF8AY | 2026-08-31 00:59:11 | 52.07698 | 8.24562 | 57° | 131km/h | 12315m | -21.1m/s | -50.3°C | 1% | 190.9hPa | 2.5V | 08:21:42 | 02:41:19 | 00:00:00 | |
| DD8BA-10 | 2026-08-31 00:59:11 | 52.07698 | 8.24562 | 57° | 131km/h | 12315m | -21.0m/s | -50.3°C | 4.2% | 190.9hPa | 2.5V | 00:00:00 | 00:00:00 | 00:00:00 | |
| DL1NUX | 2026-08-31 00:59:10 | 52.07644 | 8.24427 | 57° | 131km/h | 12377m | -21.1m/s | -49.8°C | 4% | 189hPa | 2.5V | 08:21:05 | 02:41:16 | 00:00:00 | |
| HSKMA3-T | 2026-08-31 00:59:09 | 52.07662 | 8.24472 | 57° | 131km/h | 12356m | -21.3m/s | -49.9°C | 0.9% | 189.7hPa | 2.5V | 08:21:42 | 02:41:17 | 00:00:00 | |
| AA1-15 | 2026-08-31 00:59:05 | 52.07591 | 8.24289 | 58° | 131km/h | 12439m | -20.7m/s | -50°C | 0.8% | 187.3hPa | 2.5V | 08:21:42 | 02:41:13 | 00:00:00 | |
| SONCRA | 2026-08-31 00:59:05 | 52.07591 | 8.24289 | 58° | 131km/h | 12439m | -20.7m/s | -50.0°C | 1.6% | 187.3hPa | 2.5V | 00:00:00 | 00:00:00 | 00:00:00 | |
| DL1XH1-15 | 2026-08-31 00:59:04 | 52.07492 | 8.24011 | 62° | 128km/h | 12563m | -20.9m/s | -49.2°C | 3.7% | 183.8hPa | 2.5V | 08:21:14 | 02:41:07 | 00:00:00 | |
| DO2JMG | 2026-08-31 00:59:03 | 52.07556 | 8.24196 | 60° | 133km/h | 12480m | -21.4m/s | -50.1°C | 0.7% | 186.1hPa | 2.5V | 08:21:42 | 02:41:11 | 00:00:00 | |
| DF8AY | 2026-08-31 00:59:01 | 52.07523 | 8.24104 | 61° | 128km/h | 12521m | -21.2m/s | -49.7°C | 0.6% | 184.9hPa | 2.5V | 08:21:42 | 02:41:09 | 00:00:00 | |
| HSKMA3-T | 2026-08-31 00:58:58 | 52.07478 | 8.23966 | 64° | 122km/h | 12584m | -21.2m/s | -48.9°C | 0.4% | 183.2hPa | 2.5V | 08:21:42 | 02:41:06 | 00:00:00 | |
| AA1-15 | 2026-08-31 00:58:54 | 52.07426 | 8.23786 | 66° | 120km/h | 12672m | -22.1m/s | -49.2°C | 0.4% | 180.8hPa | 2.4V | 08:21:42 | 02:41:02 | 00:00:00 | |
| DL1XH1-15 | 2026-08-31 00:58:54 | 52.07368 | 8.23571 | 65° | 115km/h | 12779m | -21m/s | -50°C | 3.9% | 177.8hPa | 2.5V | 08:21:24 | 02:40:57 | 00:00:00 | |
| DO2JMG | 2026-08-31 00:58:52 | 52.07403 | 8.23699 | 66° | 115km/h | 12714m | -22.2m/s | -49.5°C | 0.5% | 179.6hPa | 2.5V | 08:21:42 | 02:41:00 | 00:00:00 | |
| DF8AY | 2026-08-31 00:58:50 | 52.07380 | 8.23613 | 66° | 113km/h | 12758m | -21.7m/s | -49.9°C | 0.6% | 178.5hPa | 2.4V | 08:21:42 | 02:40:58 | 00:00:00 | |
| DL1NUX | 2026-08-31 00:58:50 | 52.07357 | 8.23528 | 66° | 113km/h | 12801m | -22.1m/s | -50.2°C | 4% | 177.3hPa | 2.5V | 08:21:25 | 02:40:56 | 00:00:00 | |
| HSKMA3-T | 2026-08-31 00:58:47 | 52.07345 | 8.23486 | 65° | 110km/h | 12822m | -22.4m/s | -50.3°C | 0.7% | 176.7hPa | 2.5V | 08:21:42 | 02:40:55 | 00:00:00 | |
| GOEST3-10 | 2026-08-31 00:58:47 | 52.07332 | 8.23445 | 65° | 111km/h | 12845m | -22.0m/s | -50.1°C | 4.0% | 176.0hPa | 2.5V | 00:00:00 | 00:00:00 | 00:00:00 | |
| DL1XH1-15 | 2026-08-31 00:58:44 | 52.07240 | 8.23165 | 59° | 104km/h | 12998m | -22.8m/s | -49.9°C | 3.9% | 172.1hPa | 2.5V | 08:21:34 | 02:40:47 | 00:00:00 | |
| BIOWL1-15 | 2026-08-31 00:58:44 | 52.07240 | 8.23165 | 59° | 104km/h | 12998m | -22.8m/s | -49.9°C | 0.6% | 172.1hPa | 2.5V | 08:21:42 | 02:40:47 | 00:00:00 | |
| AA1-15 | 2026-08-31 00:58:43 | 52.07295 | 8.23322 | 62° | 115km/h | 12910m | -21.9m/s | -49.8°C | 0.6% | 174.4hPa | 2.5V | 08:21:42 | 02:40:51 | 00:00:00 | |
| DL1NUX | 2026-08-31 00:58:43 | 52.07226 | 8.23128 | 57° | 108km/h | 13021m | -22.8m/s | -50°C | 3.9% | 171.5hPa | 2.4V | 08:21:35 | 02:40:46 | 00:00:00 | |
| DL1XH-west | 2026-08-31 00:58:42 | 52.07281 | 8.23281 | 61° | 110km/h | 12931m | -22.1m/s | -49.8°C | 0.5% | 173.8hPa | 2.5V | 08:21:42 | 02:40:50 | 00:00:00 | |
| DO2JMG | 2026-08-31 00:58:41 | 52.07267 | 8.23242 | 60° | 110km/h | 12953m | -22.6m/s | -49.6°C | 0.5% | 173.2hPa | 2.5V | 08:21:42 | 02:40:49 | 00:00:00 | |
| DF8AY | 2026-08-31 00:58:40 | 52.07254 | 8.23203 | 60° | 110km/h | 12976m | -22.6m/s | -49.8°C | 0.5% | 172.6hPa | 2.5V | 08:21:42 | 02:40:48 | 00:00:00 | |
| DB0UT-7 | 2026-08-31 00:58:40 | 52.07253 | 8.23203 | 60° | 97km/h | 12976m | -22.5m/s | -49.7°C | 3.8% | 172.6hPa | 2.5V | 00:00:00 | 02:40:48 | 00:00:00 | |
| DD1CC2-15 | 2026-08-31 00:58:39 | 52.07253 | 8.23203 | 61° | 110km/h | 12976m | -22.6m/s | -49.8°C | 1.4% | 172.6hPa | 2.5V | 08:21:00 | 00:00:00 | 00:00:00 | |
| DM0DOS-11 | 2026-08-31 00:58:38 | 52.07212 | 8.23092 | 57° | 104km/h | 13043m | -22.2m/s | -49.8°C | 3.9% | 170.9hPa | 2.5V | 08:21:36 | 02:40:45 | 00:00:00 | |
| HSKMA3-T | 2026-08-31 00:58:37 | 52.07212 | 8.23092 | 58° | 104km/h | 13043m | -22.2m/s | -49.9°C | 0.6% | 170.9hPa | 2.5V | 08:21:42 | 02:40:45 | 00:00:00 | |
| SO1NDE-10 | 2026-08-31 00:58:37 | 52.07212 | 8.23092 | 58° | 93km/h | 13044m | -22.1m/s | -49.8°C | 3.9% | 170.8hPa | 2.5V | 00:00:00 | 02:40:45 | 00:00:00 | |
| DL4BBY-15 | 2026-08-31 00:58:36 | 52.07197 | 8.23055 | 57° | 91km/h | 13066m | -22.9m/s | -52.0°C | 0% | 0hPa | 2.5V | 00:00:00 | 00:00:00 | 00:00:00 | |
| DO2SHX-10 | 2026-08-31 00:58:35 | 52.07183 | 8.23019 | 58° | 106km/h | 13089m | -22.6m/s | -49.5°C | 3.8% | 169.7hPa | 2.5V | 00:00:00 | 02:40:43 | 00:00:00 | |
| DL1XH1-15 | 2026-08-31 00:58:34 | 52.07098 | 8.22803 | 59° | 100km/h | 13225m | -22.7m/s | -48.7°C | 3.6% | 166.2hPa | 2.5V | 08:21:44 | 02:40:37 | 00:00:00 | |
| AA1-15 | 2026-08-31 00:58:32 | 52.07140 | 8.22912 | 57° | 102km/h | 13157m | -22.1m/s | -49.2°C | 0.5% | 167.9hPa | 2.5V | 08:21:42 | 02:40:40 | 00:00:00 | |
| DL1XH-west | 2026-08-31 00:58:31 | 52.07126 | 8.22876 | 57° | 104km/h | 13180m | -22.8m/s | -49.1°C | 0.5% | 167.4hPa | 2.5V | 08:21:42 | 02:40:39 | 00:00:00 | |
| DD8BA-10 | 2026-08-31 00:58:31 | 52.07126 | 8.22876 | 58° | 100km/h | 13180m | -22.8m/s | -49.0°C | 3.7% | 167.3hPa | 2.5V | 08:21:00 | 00:00:00 | 00:00:00 | |
| DL1NUX | 2026-08-31 00:58:30 | 52.07085 | 8.22767 | 59° | 102km/h | 13248m | -23m/s | -48.6°C | 3.5% | 165.7hPa | 2.5V | 08:21:45 | 02:40:36 | 00:00:00 | |
| DO2JMG | 2026-08-31 00:58:30 | 52.07112 | 8.22840 | 59° | 104km/h | 13202m | -22.9m/s | -48.9°C | 0.5% | 166.8hPa | 2.5V | 08:22:33 | 02:40:38 | 00:00:00 | |
| DF8AY | 2026-08-31 00:58:29 | 52.07085 | 8.22767 | 60° | 102km/h | 13248m | -23m/s | -48.6°C | 0.4% | 165.7hPa | 2.5V | 08:23:24 | 02:40:36 | 00:00:00 | |
| DM0DOS-11 | 2026-08-31 00:58:28 | 52.07073 | 8.22731 | 60° | 100km/h | 13271m | -22.8m/s | -48.6°C | 3.5% | 165.1hPa | 2.5V | 08:21:46 | 02:40:35 | 00:00:00 | |
| HSKMA3-T | 2026-08-31 00:58:26 | 52.07060 | 8.22695 | 59° | 99km/h | 13293m | -23.3m/s | -48.6°C | 0.3% | 164.5hPa | 2.5V | 08:22:33 | 02:40:34 | 00:00:00 | |
| GOEST3-10 | 2026-08-31 00:58:26 | 52.07060 | 8.22695 | 59° | 99km/h | 13293m | -23.3m/s | -48.6°C | 3.5% | 164.4hPa | 2.5V | 00:00:00 | 00:00:00 | 00:00:00 | |
| DL1XH1-15 | 2026-08-31 00:58:24 | 52.06967 | 8.22462 | 54° | 91km/h | 13456m | -23.4m/s | -48.8°C | 3.5% | 160.4hPa | 2.5V | 08:21:54 | 02:40:27 | 00:00:00 | |
| DL1NUX | 2026-08-31 00:58:23 | 52.06954 | 8.22432 | 53° | 89km/h | 13479m | -22.8m/s | -48.9°C | 3.5% | 159.9hPa | 2.6V | 08:21:55 | 02:40:26 | 00:00:00 | |
| AA1-15 | 2026-08-31 00:58:21 | 52.06994 | 8.22525 | 56° | 91km/h | 13409m | -23.6m/s | -48.6°C | 0.3% | 161.6hPa | 2.5V | 08:22:33 | 02:40:29 | 00:00:00 | |
| DO2JMG | 2026-08-31 00:58:20 | 52.06981 | 8.22493 | 55° | 97km/h | 13432m | -23.7m/s | -48.7°C | 0.3% | 161hPa | 2.5V | 08:22:33 | 02:40:28 | 00:00:00 | |
| BIOWL1-15 | 2026-08-31 00:58:19 | 52.06967 | 8.22462 | 55° | 91km/h | 13456m | -23.4m/s | -48.8°C | 0.3% | 160.5hPa | 2.5V | 08:22:33 | 02:40:27 | 00:00:00 | |
| DM0DOS-11 | 2026-08-31 00:58:18 | 52.06941 | 8.22402 | 53° | 88km/h | 13502m | -23.9m/s | -48.8°C | 3.5% | 159.3hPa | 2.6V | 08:21:56 | 02:40:25 | 00:00:00 | |
| DF8AY | 2026-08-31 00:58:17 | 52.06941 | 8.22402 | 54° | 88km/h | 13502m | -23.9m/s | -48.8°C | 0.4% | 159.3hPa | 2.6V | 08:23:24 | 02:40:25 | 00:00:00 | |
| HSKMA3-T | 2026-08-31 00:58:16 | 52.06928 | 8.22374 | 52° | 82km/h | 13525m | -23.3m/s | -48.1°C | 0.3% | 158.8hPa | 2.5V | 08:22:33 | 02:40:24 | 00:00:00 | |
| DL1XH-west | 2026-08-31 00:58:11 | 52.06867 | 8.22251 | 49° | 73km/h | 13643m | -24.1m/s | -47.9°C | 0.2% | 156hPa | 2.6V | 08:22:33 | 02:40:19 | 00:00:00 | |
| DO3DL | 2026-08-31 00:58:11 | 52.06867 | 8.22251 | 49° | 73km/h | 13643m | -24.1m/s | -47.9°C | 1.2% | 156.0hPa | 2.5V | 08:22:00 | 00:00:00 | 00:00:00 | |
| DL1NUX | 2026-08-31 00:58:10 | 52.06831 | 8.22188 | 45° | 71km/h | 13714m | -24m/s | -48.3°C | 3.3% | 154.3hPa | 2.5V | 08:22:05 | 02:40:16 | 00:00:00 | |
| DL1XH1-15 | 2026-08-31 00:58:10 | 52.06843 | 8.22208 | 44° | 69km/h | 13691m | -24.3m/s | -48.1°C | 3.2% | 154.8hPa | 2.5V | 08:22:04 | 02:40:17 | 00:00:00 | |
| DO2JMG | 2026-08-31 00:58:10 | 52.06855 | 8.22229 | 48° | 71km/h | 13667m | -24.2m/s | -47.9°C | 0.2% | 155.4hPa | 2.6V | 08:22:33 | 02:40:18 | 00:00:00 | |
| BIOWL1-15 | 2026-08-31 00:58:08 | 52.06806 | 8.22149 | 42° | 69km/h | 13761m | -23.8m/s | -48.6°C | 0.3% | 153.2hPa | 2.6V | 08:22:33 | 02:40:14 | 00:00:00 | |
| DM0DOS-11 | 2026-08-31 00:58:08 | 52.06818 | 8.22168 | 44° | 68km/h | 13738m | -23.7m/s | -48.4°C | 3.3% | 153.8hPa | 2.5V | 08:22:06 | 02:40:15 | 00:00:00 | |
| DF8AY | 2026-08-31 00:58:07 | 52.06818 | 8.22168 | 44° | 68km/h | 13738m | -23.7m/s | -48.4°C | 0.2% | 153.8hPa | 2.5V | 08:23:24 | 02:40:15 | 00:00:00 | |
| HSKMA3-T | 2026-08-31 00:58:05 | 52.06793 | 8.22130 | 42° | 71km/h | 13785m | -23.7m/s | -48.7°C | 0.3% | 152.6hPa | 2.5V | 08:22:33 | 02:40:13 | 00:00:00 | |
| SONDE2-11 | 2026-08-31 00:58:05 | 52.06793 | 8.22130 | 41° | 69km/h | 13785m | -23.7m/s | -48.7°C | 1.2% | 152.6hPa | 2.5V | 00:00:00 | 00:00:00 | 00:00:00 | |
| DO3DL | 2026-08-31 00:58:04 | 52.06793 | 8.22130 | 43° | 71km/h | 13785m | -23.7m/s | -48.7°C | 1.2% | 152.6hPa | 2.5V | 08:22:00 | 00:00:00 | 00:00:00 | |
| DL1NUX | 2026-08-31 00:58:03 | 52.06681 | 8.21974 | 42° | 77km/h | 13974m | -23.3m/s | -49.8°C | 3.6% | 148.4hPa | 2.5V | 08:22:16 | 02:40:05 | 00:00:00 | |
| DO2JMG | 2026-08-31 00:58:00 | 52.06724 | 8.22036 | 40° | 75km/h | 13904m | -23.7m/s | -49.4°C | 0.4% | 149.9hPa | 2.5V | 08:22:33 | 02:40:08 | 00:00:00 | |
| BIOWL1-15 | 2026-08-31 00:57:58 | 52.06667 | 8.21952 | 45° | 80km/h | 13997m | -23.3m/s | -49.9°C | 0.4% | 147.8hPa | 2.5V | 08:22:33 | 02:40:04 | 00:00:00 | |
| DM0DOS-11 | 2026-08-31 00:57:58 | 52.06681 | 8.21974 | 42° | 77km/h | 13974m | -23.3m/s | -49.8°C | 3.6% | 148.4hPa | 2.5V | 08:22:16 | 02:40:05 | 00:00:00 | |
| DF8AY | 2026-08-31 00:57:57 | 52.06681 | 8.21974 | 42° | 77km/h | 13974m | -23.3m/s | -49.8°C | 0.4% | 148.4hPa | 2.5V | 08:23:24 | 02:40:05 | 00:00:00 | |
| HSKMA3-T | 2026-08-31 00:57:55 | 52.06654 | 8.21929 | 48° | 78km/h | 14021m | -23.3m/s | -50°C | 0.5% | 147.3hPa | 2.6V | 08:22:33 | 02:40:03 | 00:00:00 | |
| DL1XH-west | 2026-08-31 00:57:51 | 52.06601 | 8.21830 | 50° | 80km/h | 14113m | -23.9m/s | -50.3°C | 0.4% | 145.2hPa | 2.5V | 08:22:33 | 02:39:59 | 00:00:00 | |
| DO2JMG | 2026-08-31 00:57:49 | 52.06576 | 8.21778 | 54° | 82km/h | 14161m | -23.5m/s | -50.7°C | 0.5% | 144.1hPa | 2.5V | 08:22:33 | 02:39:57 | 00:00:00 | |
| HSKMA3-T | 2026-08-31 00:57:45 | 52.06527 | 8.21673 | 53° | 77km/h | 14255m | -24.8m/s | -50.4°C | 0.5% | 142.1hPa | 2.5V | 08:22:33 | 02:39:53 | 00:00:00 | |
| DL1XH1-15 | 2026-08-31 00:57:44 | 52.06455 | 8.21532 | 50° | 75km/h | 14403m | -25.1m/s | -51°C | 3.8% | 138.9hPa | 2.5V | 08:22:34 | 02:39:47 | 00:00:00 | |
| DF8AY | 2026-08-31 00:57:44 | 52.06515 | 8.21649 | 51° | 75km/h | 14280m | -24.7m/s | -50.5°C | 0.4% | 141.5hPa | 2.5V | 08:23:24 | 02:39:52 | 00:00:00 | |
| DL1XH-west | 2026-08-31 00:57:40 | 52.06467 | 8.21555 | 49° | 77km/h | 14378m | -24.9m/s | -50.9°C | 0.4% | 139.4hPa | 2.5V | 08:22:33 | 02:39:48 | 00:00:00 | |
| DO2JMG | 2026-08-31 00:57:38 | 52.06443 | 8.21508 | 50° | 75km/h | 14428m | -24.6m/s | -51.2°C | 0.5% | 138.4hPa | 2.6V | 08:23:24 | 02:39:46 | 00:00:00 | |
| BIOWL1-15 | 2026-08-31 00:57:35 | 52.06375 | 8.21358 | 58° | 73km/h | 14573m | -24.6m/s | -51.5°C | 0.5% | 135.3hPa | 2.5V | 08:23:24 | 02:39:40 | 00:00:00 | |
| HSKMA3-T | 2026-08-31 00:57:34 | 52.06396 | 8.21410 | 54° | 77km/h | 14525m | -24.4m/s | -51.2°C | 0.4% | 136.4hPa | 2.5V | 08:23:24 | 02:39:42 | 00:00:00 | |
| DJ2DS-15 | 2026-08-31 00:57:34 | 52.06396 | 8.21410 | 55° | 71km/h | 14525m | -24.4m/s | -51.2°C | 3.7% | 136.3hPa | 2.5V | 00:00:00 | 02:39:42 | 00:00:00 | |
| DO3DL | 2026-08-31 00:57:33 | 52.06396 | 8.21410 | 55° | 77km/h | 14525m | -24.4m/s | -51.2°C | 1.2% | 136.4hPa | 2.5V | 08:23:00 | 00:00:00 | 00:00:00 | |
| DO2SHX-10 | 2026-08-31 00:57:32 | 52.06375 | 8.21358 | 58° | 73km/h | 14573m | -24.5m/s | -51.4°C | 3.8% | 135.3hPa | 2.5V | 00:00:00 | 02:39:40 | 00:00:00 | |
| DD8BA-10 | 2026-08-31 00:57:31 | 52.06365 | 8.21333 | 58° | 71km/h | 14598m | -25.1m/s | -51.6°C | 3.9% | 134.8hPa | 2.5V | 00:00:00 | 00:00:00 | 00:00:00 | |
| DL1XH-15 | 2026-08-31 00:57:30 | 52.06329 | 8.21232 | 59° | 71km/h | 14697m | -24.7m/s | -51.7°C | 3.9% | 132.8hPa | 2.6V | 08:22:46 | 02:39:35 | 00:00:00 | |
| DL1XH1-15 | 2026-08-31 00:57:30 | 52.06346 | 8.21281 | 59° | 71km/h | 14648m | -24.2m/s | -51.7°C | 3.9% | 133.8hPa | 2.5V | 08:22:44 | 02:39:37 | 00:00:00 | |
| DL1XH-west | 2026-08-31 00:57:29 | 52.06346 | 8.21281 | 60° | 71km/h | 14648m | -24.2m/s | -51.7°C | 0.5% | 133.8hPa | 2.5V | 08:23:24 | 02:39:37 | 00:00:00 | |
| DO2JMG | 2026-08-31 00:57:28 | 52.06337 | 8.21257 | 59° | 69km/h | 14672m | -24.5m/s | -51.7°C | 0.5% | 133.3hPa | 2.5V | 08:23:24 | 02:39:36 | 00:00:00 | |
| AA1-15 | 2026-08-31 00:57:27 | 52.06328 | 8.21232 | 60° | 73km/h | 14697m | -24.7m/s | -51.7°C | 0.5% | 132.8hPa | 2.6V | 08:23:24 | 02:39:35 | 00:00:00 | |
| GOEST3-10 | 2026-08-31 00:57:26 | 52.06320 | 8.21206 | 64° | 69km/h | 14722m | -24.3m/s | -51.4°C | 3.8% | 132.2hPa | 2.5V | 08:22:00 | 00:00:00 | 00:00:00 | |
| DL8DAS-15 | 2026-08-31 00:57:25 | 52.06320 | 8.21206 | 64° | 71km/h | 14722m | -24.4m/s | -51.4°C | 1.3% | 132.3hPa | 2.5V | 00:00:00 | 00:00:00 | 00:00:00 | |
| DL1XH1-15 | 2026-08-31 00:57:24 | 52.06261 | 8.20999 | 64° | 69km/h | 14919m | -25.2m/s | -51.7°C | 3.8% | 128.3hPa | 2.5V | 08:22:55 | 02:39:26 | 00:00:00 | |
| DF8AY | 2026-08-31 00:57:23 | 52.06290 | 8.21102 | 65° | 69km/h | 14820m | -24.7m/s | -51.6°C | 0.5% | 130.3hPa | 2.5V | 08:23:24 | 02:39:30 | 00:00:00 | |
| HSKMA3-T | 2026-08-31 00:57:23 | 52.06297 | 8.21129 | 67° | 69km/h | 14796m | -24.6m/s | -51.6°C | 0.5% | 130.8hPa | 2.5V | 08:23:24 | 02:39:31 | 00:00:00 | |
| BIOWL1-15 | 2026-08-31 00:57:21 | 52.06238 | 8.20928 | 58° | 68km/h | 14995m | -25m/s | -51.8°C | 0.4% | 126.9hPa | 2.6V | 08:23:24 | 02:39:23 | 00:00:00 | |
| DD8BA-10 | 2026-08-31 00:57:21 | 52.06282 | 8.21076 | 66° | 68km/h | 14844m | -24.9m/s | -51.6°C | 3.9% | 129.8hPa | 2.5V | 00:00:00 | 00:00:00 | 00:00:00 | |
| DL1XH-15 | 2026-08-31 00:57:20 | 52.06254 | 8.20974 | 64° | 66km/h | 14945m | -25.2m/s | -51.7°C | 3.8% | 127.8hPa | 2.5V | 08:22:56 | 02:39:25 | 00:00:00 | |
| DL1XH-west | 2026-08-31 00:57:19 | 52.06269 | 8.21024 | 66° | 68km/h | 14894m | -25.2m/s | -51.7°C | 0.5% | 128.9hPa | 2.5V | 08:23:24 | 02:39:27 | 00:00:00 | |
| DO2JMG | 2026-08-31 00:57:18 | 52.06262 | 8.20999 | 64° | 69km/h | 14919m | -25.2m/s | -51.7°C | 0.4% | 128.3hPa | 2.5V | 08:23:24 | 02:39:26 | 00:00:00 | |
| AA1-15 | 2026-08-31 00:57:16 | 52.06247 | 8.20951 | 61° | 62km/h | 14970m | -25m/s | -51.8°C | 0.5% | 127.3hPa | 2.5V | 08:23:24 | 02:39:24 | 00:00:00 | |
| GOEST3-10 | 2026-08-31 00:57:16 | 52.06247 | 8.20951 | 61° | 66km/h | 14970m | -25.0m/s | -51.7°C | 3.9% | 127.3hPa | 2.5V | 00:00:00 | 00:00:00 | 00:00:00 | |
| HTAHTA | 2026-08-31 00:57:15 | 52.06230 | 8.20905 | 58° | 64km/h | 15020m | -25.2m/s | -51.9°C | 1.2% | 126.3hPa | 2.5V | 00:00:00 | 00:00:00 | 00:00:00 | |
| DJ2DS-15 | 2026-08-31 00:57:14 | 52.06230 | 8.20905 | 59° | 69km/h | 15020m | -25.2m/s | -51.8°C | 3.8% | 126.3hPa | 2.5V | 00:00:00 | 02:39:22 | 00:00:00 | |
| DL1XH1-15 | 2026-08-31 00:57:13 | 52.06170 | 8.20771 | 52° | 69km/h | 15171m | -25.8m/s | -52.4°C | 4.1% | 123.4hPa | 2.5V | 08:23:05 | 02:39:16 | 00:00:00 | |
| HSKMA3-T | 2026-08-31 00:57:13 | 52.06220 | 8.20883 | 55° | 66km/h | 15045m | -24.9m/s | -52°C | 0.5% | 125.8hPa | 2.5V | 08:23:24 | 02:39:21 | 00:00:00 | |
| DF8AY | 2026-08-31 00:57:11 | 52.06201 | 8.20838 | 54° | 66km/h | 15095m | -25.2m/s | -52.5°C | 0.6% | 124.9hPa | 2.5V | 08:23:24 | 02:39:19 | 00:00:00 | |
| BIOWL1-15 | 2026-08-31 00:57:11 | 52.06180 | 8.20794 | 52° | 71km/h | 15146m | -25.9m/s | -52.5°C | 0.6% | 124hPa | 2.5V | 08:23:24 | 02:39:17 | 00:00:00 | |
| DO2JMG | 2026-08-31 00:57:07 | 52.06158 | 8.20748 | 50° | 75km/h | 15196m | -25.9m/s | -52.3°C | 0.7% | 122.9hPa | 2.5V | 08:23:24 | 02:39:15 | 00:00:00 | |
| AA1-15 | 2026-08-31 00:57:05 | 52.06136 | 8.20701 | 53° | 73km/h | 15248m | -25.8m/s | -52°C | 0.5% | 122hPa | 2.5V | 08:23:24 | 02:39:13 | 00:00:00 | |
| HSKMA3-T | 2026-08-31 00:57:03 | 52.06115 | 8.20652 | 56° | 73km/h | 15300m | -26.2m/s | -51.7°C | 0.5% | 121hPa | 2.5V | 08:23:24 | 02:39:11 | 00:00:00 | |
| DF8AY | 2026-08-31 00:57:01 | 52.06096 | 8.20603 | 58° | 71km/h | 15351m | -25.5m/s | -52.1°C | 0.5% | 120.1hPa | 2.5V | 08:23:24 | 02:39:09 | 00:00:00 | |
| SONCRA | 2026-08-31 00:57:01 | 52.06086 | 8.20578 | 59° | 69km/h | 15376m | -25.9m/s | -52.2°C | 1.3% | 119.6hPa | 2.5V | 00:00:00 | 00:00:00 | 00:00:00 | |
| DL1XH-15 | 2026-08-31 00:57:00 | 52.06060 | 8.20506 | 59° | 68km/h | 15453m | -26.3m/s | -52.3°C | 4% | 118.2hPa | 2.5V | 08:23:16 | 02:39:05 | 00:00:00 | |
| BIOWL1-15 | 2026-08-31 00:56:59 | 52.06068 | 8.20530 | 59° | 68km/h | 15427m | -26.2m/s | -52.3°C | 0.6% | 118.7hPa | 2.5V | 08:23:24 | 02:39:06 | 00:00:00 | |
| DL1XH-west | 2026-08-31 00:56:57 | 52.06060 | 8.20506 | 60° | 68km/h | 15453m | -26.3m/s | -52.3°C | 0.5% | 118.2hPa | 2.5V | 08:23:24 | 02:39:05 | 00:00:00 | |
| DO2JMG | 2026-08-31 00:56:56 | 52.06051 | 8.20483 | 59° | 62km/h | 15479m | -26.2m/s | -52.4°C | 0.6% | 117.7hPa | 2.5V | 08:23:24 | 02:39:04 | 00:00:00 | |
| AA1-15 | 2026-08-31 00:56:54 | 52.06034 | 8.20440 | 57° | 62km/h | 15531m | -26.1m/s | -52.4°C | 0.6% | 116.8hPa | 2.5V | 08:23:24 | 02:39:02 | 00:00:00 | |
| DJ2DS-15 | 2026-08-31 00:56:54 | 52.06034 | 8.20440 | 58° | 66km/h | 15531m | -26.0m/s | -52.3°C | 4.1% | 116.7hPa | 2.5V | 00:00:00 | 02:39:02 | 00:00:00 | |
| DL1XH1-15 | 2026-08-31 00:56:53 | 52.05974 | 8.20321 | 47° | 64km/h | 15689m | -26.6m/s | -52°C | 4% | 114hPa | 2.5V | 08:23:25 | 02:38:56 | 00:00:00 | |
| HSKMA3-T | 2026-08-31 00:56:52 | 52.06016 | 8.20399 | 51° | 62km/h | 15583m | -26.6m/s | -52.4°C | 0.6% | 115.9hPa | 2.5V | 08:23:24 | 02:39:00 | 00:00:00 | |
| DF8AY | 2026-08-31 00:56:51 | 52.06006 | 8.20379 | 51° | 64km/h | 15610m | -26.5m/s | -52.3°C | 0.5% | 115.4hPa | 2.5V | 08:23:24 | 02:38:59 | 00:00:00 | |
| DD8BA-10 | 2026-08-31 00:56:51 | 52.06006 | 8.20379 | 52° | 66km/h | 15610m | -26.5m/s | -52.2°C | 4.1% | 115.4hPa | 2.5V | 00:00:00 | 00:00:00 | 00:00:00 | |
| DL1XH-15 | 2026-08-31 00:56:50 | 52.05963 | 8.20302 | 45° | 64km/h | 15715m | -26.2m/s | -51.9°C | 4% | 113.6hPa | 2.5V | 08:23:26 | 02:38:55 | 00:00:00 | |
| DO2SHX-10 | 2026-08-31 00:56:50 | 52.05995 | 8.20359 | 48° | 64km/h | 15636m | -26.4m/s | -52.0°C | 4.0% | 114.9hPa | 2.5V | 00:00:00 | 02:38:58 | 00:00:00 | |
| DM0DOS-11 | 2026-08-31 00:56:48 | 52.05951 | 8.20284 | 46° | 66km/h | 15742m | -26m/s | -51.9°C | 3.9% | 113.1hPa | 2.5V | 08:23:27 | 02:38:54 | 00:00:00 | |
| BIOWL1-15 | 2026-08-31 00:56:47 | 52.05963 | 8.20302 | 46° | 64km/h | 15715m | -26.2m/s | -51.9°C | 0.5% | 113.6hPa | 2.5V | 08:24:15 | 02:38:55 | 00:00:00 | |
| DO2JMG | 2026-08-31 00:56:46 | 52.05951 | 8.20283 | 46° | 66km/h | 15742m | -26m/s | -51.9°C | 0.5% | 113.1hPa | 2.5V | 08:24:15 | 02:38:54 | 00:00:00 | |
| AA1-15 | 2026-08-31 00:56:43 | 52.05918 | 8.20223 | 48° | 69km/h | 15821m | -27m/s | -52.1°C | 0.5% | 111.7hPa | 2.5V | 08:24:15 | 02:38:51 | 00:00:00 | |
| HSKMA3-T | 2026-08-31 00:56:41 | 52.05894 | 8.20179 | 51° | 69km/h | 15876m | -26.9m/s | -52.4°C | 0.5% | 110.8hPa | 2.5V | 08:24:15 | 02:38:49 | 00:00:00 | |
| GOEST3-10 | 2026-08-31 00:56:41 | 52.05894 | 8.20179 | 51° | 68km/h | 15876m | -26.9m/s | -52.4°C | 4.1% | 110.7hPa | 2.5V | 08:23:00 | 02:38:49 | 00:00:00 | |
| DL1XH1-15 | 2026-08-31 00:56:40 | 52.05863 | 8.20112 | 54° | 66km/h | 15956m | -26.8m/s | -52.1°C | 4.1% | 109.4hPa | 2.5V | 08:23:35 | 02:38:46 | 00:00:00 | |
| DB0UT-7 | 2026-08-31 00:56:40 | 52.05883 | 8.20156 | 51° | 51km/h | 15902m | -27.5m/s | -52.4°C | 4.2% | 110.3hPa | 2.5V | 00:00:00 | 02:38:48 | 00:00:00 | |
| DO3DL | 2026-08-31 00:56:38 | 52.05873 | 8.20134 | 54° | 71km/h | 15929m | -27.1m/s | -52.2°C | 1.2% | 109.9hPa | 2.5V | 08:24:00 | 00:00:00 | 00:00:00 | |
| DM0DOS-11 | 2026-08-31 00:56:37 | 52.05843 | 8.20067 | 57° | 66km/h | 16011m | -27.2m/s | -52.2°C | 4.2% | 108.5hPa | 2.5V | 08:23:37 | 02:38:44 | 00:00:00 | |
| DO2JMG | 2026-08-31 00:56:36 | 52.05843 | 8.20067 | 57° | 66km/h | 16011m | -27.2m/s | -52.2°C | 0.6% | 108.5hPa | 2.5V | 08:24:15 | 02:38:44 | 00:00:00 | |
| DL1XH-west | 2026-08-31 00:56:35 | 52.05835 | 8.20045 | 57° | 62km/h | 16037m | -26.6m/s | -52°C | 0.5% | 108hPa | 2.5V | 08:24:15 | 02:38:43 | 00:00:00 | |
| DJ2DS-15 | 2026-08-31 00:56:34 | 52.05826 | 8.20023 | 58° | 51km/h | 16064m | -26.5m/s | -51.5°C | 3.9% | 107.5hPa | 2.5V | 00:00:00 | 02:38:42 | 00:00:00 | |
| DC4HF-4 | 2026-08-31 00:56:33 | 52.05809 | 8.19977 | 58° | 64km/h | 16117m | -26.5m/s | -51.4°C | 1.1% | 106.7hPa | 2.5V | 00:00:00 | 00:00:00 | 00:00:00 | |
| SONDE2-11 | 2026-08-31 00:56:32 | 52.05800 | 8.19954 | 60° | 64km/h | 16143m | -26.4m/s | -51.5°C | 1.1% | 106.2hPa | 2.5V | 00:00:00 | 00:00:00 | 00:00:00 | |
| DL1NUX | 2026-08-31 00:56:31 | 52.05772 | 8.19860 | 66° | 62km/h | 16251m | -27.8m/s | -51.6°C | 3.9% | 104.6hPa | 2.5V | 08:23:46 | 02:38:35 | 00:00:00 | |
| HSKMA3-T | 2026-08-31 00:56:31 | 52.05793 | 8.19930 | 62° | 68km/h | 16170m | -26.8m/s | -51.6°C | 0.4% | 105.8hPa | 2.5V | 08:24:15 | 02:38:38 | 00:00:00 | |
| DO2JMG | 2026-08-31 00:56:25 | 52.05762 | 8.19815 | 69° | 57km/h | 16306m | -27.4m/s | -51.3°C | 0.4% | 103.6hPa | 2.5V | 08:24:15 | 02:38:33 | 00:00:00 | |
| DL1XH-west | 2026-08-31 00:56:24 | 52.05757 | 8.19794 | 73° | 53km/h | 16332m | -27.3m/s | -51.1°C | 0.3% | 103.2hPa | 2.5V | 08:24:15 | 02:38:32 | 00:00:00 | |
| AA1-15 | 2026-08-31 00:56:22 | 52.05751 | 8.19754 | 76° | 47km/h | 16387m | -27.8m/s | -50.6°C | 0.2% | 102.3hPa | 2.6V | 08:24:15 | 02:38:30 | 00:00:00 | |
| DD8BA-10 | 2026-08-31 00:56:21 | 52.05749 | 8.19736 | 82° | 33km/h | 16414m | -27.6m/s | -50.3°C | 3.5% | 101.9hPa | 2.6V | 00:00:00 | 00:00:00 | 00:00:00 | |
| DL1XH-15 | 2026-08-31 00:56:20 | 52.05744 | 8.19675 | 80° | 31km/h | 16524m | -28m/s | -50.3°C | 3.5% | 100.2hPa | 2.6V | 08:23:56 | 02:38:25 | 00:00:00 | |
| HSKMA3-T | 2026-08-31 00:56:20 | 52.05748 | 8.19719 | 83° | 38km/h | 16442m | -27.5m/s | -50.3°C | 0.2% | 101.5hPa | 2.5V | 08:24:15 | 02:38:28 | 00:00:00 | |
| DF8AY | 2026-08-31 00:56:19 | 52.05747 | 8.19704 | 79° | 38km/h | 16469m | -27.2m/s | -50.4°C | 0.1% | 101.1hPa | 2.5V | 08:24:15 | 02:38:27 | 00:00:00 | |
| BIOWL1-15 | 2026-08-31 00:56:17 | 52.05740 | 8.19651 | 72° | 29km/h | 16579m | -29m/s | -50.2°C | 0.1% | 99.4hPa | 2.5V | 08:24:15 | 02:38:23 | 00:00:00 | |
| DM0DOS-11 | 2026-08-31 00:56:16 | 52.05742 | 8.19662 | 75° | 31km/h | 16551m | -28m/s | -50.2°C | 3.5% | 99.8hPa | 2.6V | 08:23:57 | 02:38:24 | 00:00:00 | |
| DO2JMG | 2026-08-31 00:56:14 | 52.05738 | 8.19639 | 69° | 31km/h | 16608m | -29m/s | -50.3°C | 0.1% | 98.9hPa | 2.5V | 08:24:15 | 02:38:22 | 00:00:00 | |
| DL1XH-west | 2026-08-31 00:56:14 | 52.05735 | 8.19629 | 64° | 27km/h | 16637m | -28.4m/s | -50.3°C | 0.1% | 98.5hPa | 2.5V | 08:24:15 | 02:38:21 | 00:00:00 | |
| AA1-15 | 2026-08-31 00:56:11 | 52.05728 | 8.19610 | 54° | 27km/h | 16694m | -28.4m/s | -50.5°C | 0.1% | 97.6hPa | 2.6V | 08:24:15 | 02:38:19 | 00:00:00 | |
| HSKMA3-T | 2026-08-31 00:56:10 | 52.05720 | 8.19594 | 42° | 26km/h | 16751m | -29.1m/s | -50.7°C | 0.2% | 96.8hPa | 2.5V | 08:24:15 | 02:38:17 | 00:00:00 | |
| DM0DOS-11 | 2026-08-31 00:56:10 | 52.05705 | 8.19574 | 31° | 26km/h | 16837m | -28.9m/s | -50.3°C | 3.4% | 95.5hPa | 2.6V | 08:24:07 | 02:38:14 | 00:00:00 | |
| DF8AY | 2026-08-31 00:56:09 | 52.05715 | 8.19587 | 43° | 27km/h | 16780m | -29m/s | -50.5°C | 0.1% | 96.3hPa | 2.5V | 08:24:15 | 02:38:16 | 00:00:00 | |
| BIOWL1-15 | 2026-08-31 00:56:05 | 52.05700 | 8.19569 | 31° | 26km/h | 16865m | -29.5m/s | -50.4°C | 0.1% | 95.1hPa | 2.5V | 08:24:15 | 02:38:13 | 00:00:00 | |
| DO2JMG | 2026-08-31 00:56:03 | 52.05688 | 8.19560 | 18° | 27km/h | 16924m | -29.8m/s | -50.6°C | 0.1% | 94.3hPa | 2.5V | 08:24:15 | 02:38:11 | 00:00:00 | |
| DL1XH-west | 2026-08-31 00:56:03 | 52.05666 | 8.19548 | 16° | 31km/h | 17014m | -30.5m/s | -50.4°C | 0.1% | 93hPa | 2.5V | 08:24:15 | 02:38:08 | 00:00:00 | |
| HSKMA3-T | 2026-08-31 00:56:00 | 52.05658 | 8.19544 | 15° | 35km/h | 17044m | -30.2m/s | -50.3°C | 0.1% | 92.6hPa | 2.5V | 08:24:15 | 02:38:07 | 00:00:00 | |
| DL1XH1-15 | 2026-08-31 00:55:59 | 52.05649 | 8.19540 | 16° | 37km/h | 17074m | -29.4m/s | -50.4°C | 3.4% | 92.1hPa | 2.5V | 08:24:15 | 02:38:06 | 00:00:00 | |
| DF8AY | 2026-08-31 00:55:59 | 52.05649 | 8.19540 | 17° | 37km/h | 17074m | -29.4m/s | -50.5°C | 0.1% | 92.1hPa | 2.5V | 08:24:15 | 02:38:06 | 00:00:00 | |
| BIOWL1-15 | 2026-08-31 00:55:54 | 52.05611 | 8.19523 | 14° | 44km/h | 17191m | -29.8m/s | -51.3°C | 0.2% | 90.5hPa | 2.5V | 08:25:06 | 02:38:02 | 00:00:00 | |
| DO2JMG | 2026-08-31 00:55:53 | 52.05600 | 8.19518 | 18° | 49km/h | 17221m | -30.1m/s | -51.4°C | 0.3% | 90.1hPa | 2.5V | 08:25:06 | 02:38:01 | 00:00:00 | |
| DL1XH-west | 2026-08-31 00:55:52 | 52.05588 | 8.19511 | 22° | 49km/h | 17251m | -29.8m/s | -51.5°C | 0.3% | 89.7hPa | 2.6V | 08:25:06 | 02:38:00 | 00:00:00 | |
| DJ8HS-15 | 2026-08-31 00:55:52 | 52.05588 | 8.19511 | 22° | 53km/h | 17251m | -29.7m/s | -51.4°C | 3.8% | 89.6hPa | 2.6V | 08:24:00 | 02:38:00 | 00:00:00 | |
| DD8BA-10 | 2026-08-31 00:55:51 | 52.05577 | 8.19503 | 23° | 55km/h | 17282m | -29.8m/s | -51.5°C | 3.8% | 89.2hPa | 2.5V | 00:00:00 | 00:00:00 | 00:00:00 | |
| DM0DOS-11 | 2026-08-31 00:55:49 | 52.05517 | 8.19449 | 36° | 58km/h | 17431m | -29m/s | -51.5°C | 3.9% | 87.2hPa | 2.5V | 08:24:27 | 02:37:54 | 00:00:00 | |
| HSKMA3-T | 2026-08-31 00:55:49 | 52.05552 | 8.19485 | 28° | 55km/h | 17343m | -29.8m/s | -51.6°C | 0.4% | 88.5hPa | 2.5V | 08:25:06 | 02:37:57 | 00:00:00 | |
| DF8AY | 2026-08-31 00:55:48 | 52.05540 | 8.19474 | 31° | 55km/h | 17372m | -29.5m/s | -51.4°C | 0.3% | 88.1hPa | 2.5V | 08:25:06 | 02:37:56 | 00:00:00 | |
| DO1YAY-16 | 2026-08-31 00:55:46 | 52.05517 | 8.19449 | 36° | 57km/h | 17432m | -29.0m/s | -51.5°C | 1.1% | 87.2hPa | 2.5V | 00:00:00 | 00:00:00 | 00:00:00 | |
| BUE01 | 2026-08-31 00:55:45 | 52.05505 | 8.19435 | 35° | 57km/h | 17460m | -29.3m/s | -51.7°C | 1.1% | 86.9hPa | 2.5V | 00:00:00 | 00:00:00 | 00:00:00 | |
| BIOWL1-15 | 2026-08-31 00:55:44 | 52.05493 | 8.19421 | 39° | 57km/h | 17489m | -30.1m/s | -51.8°C | 0.5% | 86.5hPa | 2.5V | 08:25:06 | 02:37:52 | 00:00:00 | |
| DO2JMG | 2026-08-31 00:55:42 | 52.05472 | 8.19392 | 40° | 55km/h | 17548m | -29.4m/s | -52.1°C | 0.4% | 85.7hPa | 2.6V | 08:25:06 | 02:37:50 | 00:00:00 | |
| DL1XH-west | 2026-08-31 00:55:41 | 52.05462 | 8.19377 | 44° | 53km/h | 17578m | -28.9m/s | -52.2°C | 0.5% | 85.3hPa | 2.6V | 08:25:06 | 02:37:49 | 00:00:00 | |
| HSKMA3-T | 2026-08-31 00:55:39 | 52.05444 | 8.19348 | 45° | 49km/h | 17636m | -30.5m/s | -52.1°C | 0.6% | 84.5hPa | 2.5V | 08:25:06 | 02:37:47 | 00:00:00 | |
| AA1-15 | 2026-08-31 00:55:38 | 52.05435 | 8.19334 | 44° | 47km/h | 17667m | -31m/s | -51.9°C | 0.5% | 84.2hPa | 2.5V | 08:25:06 | 02:37:46 | 00:00:00 | |
| DO3DL | 2026-08-31 00:55:38 | 52.05444 | 8.19348 | 46° | 49km/h | 17636m | -30.5m/s | -52.1°C | 1.2% | 84.5hPa | 2.6V | 08:25:00 | 00:00:00 | 00:00:00 | |
| DM0DOS-11 | 2026-08-31 00:55:37 | 52.05418 | 8.19306 | 42° | 47km/h | 17728m | -31m/s | -50.9°C | 3.8% | 83.4hPa | 2.6V | 08:24:37 | 02:37:44 | 00:00:00 | |
| DF8AY | 2026-08-31 00:55:37 | 52.05426 | 8.19320 | 44° | 51km/h | 17698m | -30.9m/s | -51.7°C | 0.5% | 83.8hPa | 2.6V | 08:25:06 | 02:37:45 | 00:00:00 | |
| BIOWL1-15 | 2026-08-31 00:55:33 | 52.05390 | 8.19265 | 44° | 49km/h | 17821m | -30.8m/s | -50.4°C | 0.2% | 82.2hPa | 2.5V | 08:25:06 | 02:37:41 | 00:00:00 | |
| DL1XH1-15 | 2026-08-31 00:55:33 | 52.05343 | 8.19190 | 48° | 53km/h | 17975m | -30.9m/s | -50.9°C | 3.7% | 80.2hPa | 2.5V | 08:24:45 | 02:37:36 | 00:00:00 | |
| DO2JMG | 2026-08-31 00:55:32 | 52.05381 | 8.19252 | 42° | 51km/h | 17852m | -31.1m/s | -50.5°C | 0.3% | 81.8hPa | 2.6V | 08:25:06 | 02:37:40 | 00:00:00 | |
| DL1XH-west | 2026-08-31 00:55:30 | 52.05362 | 8.19222 | 46° | 51km/h | 17913m | -31.3m/s | -50.6°C | 0.2% | 81hPa | 2.5V | 08:25:06 | 02:37:38 | 00:00:00 | |
| AA1-15 | 2026-08-31 00:55:28 | 52.05335 | 8.19174 | 50° | 49km/h | 18006m | -30.7m/s | -51°C | 0.3% | 79.9hPa | 2.6V | 08:25:06 | 02:37:35 | 00:00:00 | |
| HSKMA3-T | 2026-08-31 00:55:28 | 52.05343 | 8.19190 | 49° | 53km/h | 17976m | -30.9m/s | -50.9°C | 0.2% | 80.3hPa | 2.5V | 08:25:06 | 02:37:36 | 00:00:00 | |
| DF8AY | 2026-08-31 00:55:26 | 52.05327 | 8.19159 | 49° | 49km/h | 18036m | -31.5m/s | -50.7°C | 0.2% | 79.5hPa | 2.6V | 08:25:06 | 02:37:34 | 00:00:00 | |
| GOEST3-10 | 2026-08-31 00:55:26 | 52.05327 | 8.19158 | 49° | 44km/h | 18037m | -31.5m/s | -50.7°C | 3.6% | 79.5hPa | 2.6V | 00:00:00 | 00:00:00 | 00:00:00 | |
| DO2SHX-10 | 2026-08-31 00:55:25 | 52.05319 | 8.19143 | 52° | 44km/h | 18068m | -30.9m/s | -50.4°C | 3.6% | 79.0hPa | 2.5V | 00:00:00 | 02:37:33 | 00:00:00 | |
| DO3DL | 2026-08-31 00:55:24 | 52.05319 | 8.19143 | 52° | 47km/h | 18068m | -31.0m/s | -50.4°C | 1.0% | 79.1hPa | 2.5V | 08:25:00 | 00:00:00 | 00:00:00 | |
| DL1XH1-15 | 2026-08-31 00:55:23 | 52.05274 | 8.19057 | 50° | 35km/h | 18285m | -31.3m/s | -49.5°C | 3.2% | 76.6hPa | 2.5V | 08:24:55 | 02:37:26 | 00:00:00 | |
| BIOWL1-15 | 2026-08-31 00:55:23 | 52.05305 | 8.19115 | 49° | 40km/h | 18130m | -31.7m/s | -50°C | 0% | 78.4hPa | 2.5V | 08:25:06 | 02:37:31 | 00:00:00 | |
| DO2JMG | 2026-08-31 00:55:22 | 52.05298 | 8.19102 | 49° | 42km/h | 18162m | -31.9m/s | -49.9°C | 0.1% | 78hPa | 2.6V | 08:25:06 | 02:37:30 | 00:00:00 | |
| DL1XH-west | 2026-08-31 00:55:20 | 52.05285 | 8.19079 | 49° | 35km/h | 18224m | -30.8m/s | -49.9°C | 0.1% | 77.2hPa | 2.5V | 08:25:06 | 02:37:28 | 00:00:00 | |
| HSKMA3-T | 2026-08-31 00:55:18 | 52.05274 | 8.19057 | 51° | 35km/h | 18285m | -31.3m/s | -49.6°C | 0% | 76.6hPa | 2.5V | 08:25:06 | 02:37:26 | 00:00:00 | |
| DM0DOS-11 | 2026-08-31 00:55:17 | 52.05264 | 8.19036 | 52° | 31km/h | 18348m | -32m/s | -49°C | 3.1% | 75.8hPa | 2.6V | 08:24:57 | 02:37:24 | 00:00:00 | |
| DF8AY | 2026-08-31 00:55:16 | 52.05264 | 8.19036 | 52° | 31km/h | 18348m | -32m/s | -49°C | 0% | 75.8hPa | 2.6V | 08:25:06 | 02:37:24 | 00:00:00 | |
| BIOWL1-15 | 2026-08-31 00:55:12 | 52.05246 | 8.18991 | 58° | 33km/h | 18474m | -32.1m/s | -49.5°C | 0% | 74.3hPa | 2.6V | 08:25:06 | 02:37:20 | 00:00:00 | |
| DO2JMG | 2026-08-31 00:55:11 | 52.05241 | 8.18980 | 55° | 35km/h | 18505m | -32.2m/s | -49.7°C | 0% | 74hPa | 2.6V | 08:25:06 | 02:37:19 | 00:00:00 | |
| DL1XH1-15 | 2026-08-31 00:55:10 | 52.05227 | 8.18945 | 51° | 35km/h | 18603m | -33.2m/s | -50.5°C | 3.4% | 72.9hPa | 2.5V | 08:25:05 | 02:37:16 | 00:00:00 | |
| DL1XH-west | 2026-08-31 00:55:09 | 52.05232 | 8.18956 | 56° | 33km/h | 18570m | -33.1m/s | -50.2°C | 0% | 73.3hPa | 2.5V | 08:25:06 | 02:37:17 | 00:00:00 | |
| DM0DOS-11 | 2026-08-31 00:55:09 | 52.05216 | 8.18922 | 53° | 37km/h | 18669m | -33.6m/s | -50.9°C | 3.4% | 72.2hPa | 2.6V | 08:25:07 | 02:37:14 | 00:00:00 | |
| HSKMA3-T | 2026-08-31 00:55:08 | 52.05227 | 8.18945 | 51° | 35km/h | 18603m | -33.2m/s | -50.5°C | 0.1% | 72.9hPa | 2.5V | 08:25:06 | 02:37:16 | 00:00:00 | |
| AA1-15 | 2026-08-31 00:55:07 | 52.05211 | 8.18911 | 53° | 31km/h | 18702m | -33.6m/s | -51.1°C | 0.1% | 71.8hPa | 2.5V | 08:25:57 | 02:37:13 | 00:00:00 | |
| DF8AY | 2026-08-31 00:55:06 | 52.05216 | 8.18922 | 53° | 37km/h | 18669m | -33.6m/s | -50.9°C | 0.1% | 72.2hPa | 2.6V | 08:25:57 | 02:37:14 | 00:00:00 | |
| BIOWL1-15 | 2026-08-31 00:55:03 | 52.05197 | 8.18881 | 54° | 29km/h | 18803m | -33m/s | -51.8°C | 0.3% | 70.7hPa | 2.6V | 08:25:57 | 02:37:10 | 00:00:00 | |
| DO9LL-15 | 2026-08-31 00:55:01 | 52.05193 | 8.18871 | 56° | 22km/h | 18836m | -33.0m/s | -51.9°C | 3.8% | 70.3hPa | 2.6V | 00:00:00 | 02:37:09 | 00:00:00 | |
| DL1XH-15 | 2026-08-31 00:55:00 | 52.05180 | 8.18830 | 67° | 27km/h | 18966m | -33.1m/s | -52.2°C | 3.9% | 69hPa | 2.6V | 08:25:16 | 02:37:05 | 00:00:00 | |
| DO2JMG | 2026-08-31 00:55:00 | 52.05189 | 8.18861 | 58° | 33km/h | 18868m | -32.2m/s | -52.1°C | 0.4% | 70hPa | 2.5V | 08:25:57 | 02:37:08 | 00:00:00 | |
| DL1XH-west | 2026-08-31 00:54:58 | 52.05182 | 8.18840 | 63° | 27km/h | 18933m | -33.4m/s | -52.2°C | 0.4% | 69.3hPa | 2.5V | 08:25:57 | 02:37:06 | 00:00:00 | |
| HSKMA3-T | 2026-08-31 00:54:57 | 52.05180 | 8.18830 | 68° | 27km/h | 18966m | -33.1m/s | -52.2°C | 0.4% | 69hPa | 2.6V | 08:25:57 | 02:37:05 | 00:00:00 | |
| DF8AY | 2026-08-31 00:54:56 | 52.05177 | 8.18819 | 75° | 26km/h | 18998m | -32.7m/s | -52.3°C | 0.5% | 68.6hPa | 2.6V | 08:25:57 | 02:37:04 | 00:00:00 | |
| AA1-15 | 2026-08-31 00:54:55 | 52.05175 | 8.18809 | 75° | 24km/h | 19031m | -33.3m/s | -52.5°C | 0.4% | 68.3hPa | 2.5V | 08:25:57 | 02:37:03 | 00:00:00 | |
| BIOWL1-15 | 2026-08-31 00:54:52 | 52.05173 | 8.18782 | 88° | 20km/h | 19131m | -33.9m/s | -52.6°C | 0.4% | 67.2hPa | 2.6V | 08:25:57 | 02:37:00 | 00:00:00 | |
| DJ8HS-15 | 2026-08-31 00:54:52 | 52.05173 | 8.18782 | 88° | 20km/h | 19131m | -33.8m/s | -52.6°C | 4.0% | 67.2hPa | 2.6V | 00:00:00 | 02:37:00 | 00:00:00 | |
| GOEST3-10 | 2026-08-31 00:54:51 | 52.05173 | 8.18775 | 84° | 13km/h | 19165m | -34.6m/s | -52.4°C | 4.0% | 66.8hPa | 2.5V | 00:00:00 | 02:36:59 | 00:00:00 | |
| DL1XH1-15 | 2026-08-31 00:54:50 | 52.05172 | 8.18758 | 75° | 11km/h | 19266m | -33.4m/s | -52.5°C | 3.9% | 65.8hPa | 2.5V | 08:25:25 | 02:36:56 | 00:00:00 | |
| DO2JMG | 2026-08-31 00:54:50 | 52.05173 | 8.18768 | 81° | 16km/h | 19199m | -34.2m/s | -52.5°C | 0.4% | 66.6hPa | 2.5V | 08:25:57 | 02:36:58 | 00:00:00 | |
| DM0DOS-11 | 2026-08-31 00:54:49 | 52.05170 | 8.18751 | 52° | 9km/h | 19333m | -34.3m/s | -52.6°C | 4% | 65.2hPa | 2.6V | 08:25:27 | 02:36:54 | 00:00:00 | |
| DL1XH-west | 2026-08-31 00:54:48 | 52.05172 | 8.18758 | 76° | 11km/h | 19266m | -33.4m/s | -52.6°C | 0.4% | 65.8hPa | 2.5V | 08:25:57 | 02:36:56 | 00:00:00 | |
| HSKMA3-T | 2026-08-31 00:54:46 | 52.05170 | 8.18751 | 53° | 9km/h | 19333m | -34.3m/s | -52.7°C | 0.5% | 65.2hPa | 2.6V | 08:25:57 | 02:36:54 | 00:00:00 | |
| DF8AY | 2026-08-31 00:54:45 | 52.05169 | 8.18749 | 16° | 9km/h | 19367m | -34.8m/s | -52.5°C | 0.5% | 64.8hPa | 2.5V | 08:25:57 | 02:36:53 | 00:00:00 | |
| AA1-15 | 2026-08-31 00:54:44 | 52.05163 | 8.18747 | 10° | 13km/h | 19436m | -33.9m/s | -52.1°C | 0.4% | 64.1hPa | 2.5V | 08:25:57 | 02:36:51 | 00:00:00 | |
| BIOWL1-15 | 2026-08-31 00:54:42 | 52.05155 | 8.18747 | 4° | 18km/h | 19504m | -34m/s | -52°C | 0.3% | 63.5hPa | 2.6V | 08:25:57 | 02:36:49 | 00:00:00 | |
| DD8BA-10 | 2026-08-31 00:54:41 | 52.05155 | 8.18747 | 5° | 27km/h | 19504m | -33.9m/s | -52.0°C | 3.8% | 63.4hPa | 2.6V | 00:00:00 | 00:00:00 | 00:00:00 | |
| DL1XH-15 | 2026-08-31 00:54:40 | 52.05133 | 8.18740 | 14° | 27km/h | 19643m | -34.7m/s | -52.4°C | 3.9% | 62.1hPa | 2.6V | 08:25:36 | 02:36:45 | 00:00:00 | |
| DL1XH1-15 | 2026-08-31 00:54:40 | 52.05139 | 8.18742 | 9° | 22km/h | 19608m | -35m/s | -52.3°C | 3.9% | 62.5hPa | 2.5V | 08:25:35 | 02:36:46 | 00:00:00 | |
| DO2JMG | 2026-08-31 00:54:40 | 52.05150 | 8.18746 | 9° | 22km/h | 19538m | -33.7m/s | -52.2°C | 0.4% | 63.1hPa | 2.5V | 08:25:57 | 02:36:48 | 00:00:00 | |
| DL1XH-west | 2026-08-31 00:54:37 | 52.05133 | 8.18740 | 14° | 27km/h | 19643m | -34.7m/s | -52.4°C | 0.4% | 62.1hPa | 2.6V | 08:25:57 | 02:36:45 | 00:00:00 | |
| HSKMA3-T | 2026-08-31 00:54:35 | 52.05120 | 8.18733 | 18° | 29km/h | 19712m | -35m/s | -52.1°C | 0.4% | 61.5hPa | 2.5V | 08:25:57 | 02:36:43 | 00:00:00 | |
| AA1-15 | 2026-08-31 00:54:33 | 52.05100 | 8.18716 | 39° | 31km/h | 19816m | -33.8m/s | -52.4°C | 0.4% | 60.5hPa | 2.6V | 08:25:57 | 02:36:40 | 00:00:00 | |
| DL3AQ-11 | 2026-08-31 00:54:32 | 52.05094 | 8.18707 | 43° | 33km/h | 19850m | -35.0m/s | -52.5°C | 1.0% | 60.2hPa | 2.6V | 00:00:00 | 00:00:00 | 00:00:00 | |
| DD8BA-10 | 2026-08-31 00:54:31 | 52.05094 | 8.18707 | 44° | 33km/h | 19850m | -34.9m/s | -52.5°C | 3.9% | 60.1hPa | 2.6V | 00:00:00 | 00:00:00 | 00:00:00 | |
| DL1XH-15 | 2026-08-31 00:54:30 | 52.05072 | 8.18662 | 59° | 35km/h | 19989m | -35.2m/s | -52.8°C | 3.9% | 58.9hPa | 2.6V | 08:25:46 | 02:36:35 | 00:00:00 | |
| DL1XH1-15 | 2026-08-31 00:54:30 | 52.05077 | 8.18674 | 57° | 35km/h | 19954m | -34.9m/s | -52.8°C | 3.9% | 59.2hPa | 2.5V | 08:25:45 | 02:36:36 | 00:00:00 | |
| DO2JMG | 2026-08-31 00:54:30 | 52.05088 | 8.18698 | 45° | 37km/h | 19885m | -34.5m/s | -52.7°C | 0.4% | 59.9hPa | 2.5V | 08:25:57 | 02:36:38 | 00:00:00 | |
| DL1XH-west | 2026-08-31 00:54:26 | 52.05068 | 8.18649 | 64° | 35km/h | 20024m | -35.2m/s | -52.8°C | 0.4% | 58.5hPa | 2.6V | 08:25:57 | 02:36:34 | 00:00:00 | |
| HSKMA3-T | 2026-08-31 00:54:25 | 52.05065 | 8.18637 | 70° | 33km/h | 20058m | -35.1m/s | -52.8°C | 0.5% | 58.3hPa | 2.5V | 08:25:57 | 02:36:33 | 00:00:00 | |
| AA1-15 | 2026-08-31 00:54:21 | 52.05057 | 8.18593 | 74° | 24km/h | 20200m | -36.4m/s | -52.8°C | 0.4% | 57hPa | 2.6V | 08:25:57 | 02:36:29 | 00:00:00 | |
| BIOWL1-15 | 2026-08-31 00:54:20 | 52.05046 | 8.18553 | 54° | 16km/h | 20417m | -36.7m/s | -52.8°C | 0.4% | 55.2hPa | 2.5V | 08:26:48 | 02:36:23 | 00:00:00 | |
| DO2JMG | 2026-08-31 00:54:19 | 52.05055 | 8.18577 | 73° | 16km/h | 20273m | -36m/s | -52.8°C | 0.5% | 56.4hPa | 2.5V | 08:25:57 | 02:36:27 | 00:00:00 | |
| DL1XH-west | 2026-08-31 00:54:16 | 52.05048 | 8.18558 | 56° | 18km/h | 20380m | -36.2m/s | -52.7°C | 0.5% | 55.5hPa | 2.6V | 08:25:57 | 02:36:24 | 00:00:00 | |
| HSKMA3-T | 2026-08-31 00:54:14 | 52.05043 | 8.18547 | 45° | 20km/h | 20453m | -37.3m/s | -52.9°C | 0.5% | 54.9hPa | 2.5V | 08:26:48 | 02:36:22 | 00:00:00 | |
| AA1-15 | 2026-08-31 00:54:11 | 52.05033 | 8.18529 | 48° | 20km/h | 20562m | -36.8m/s | -53.4°C | 0.5% | 53.9hPa | 2.6V | 08:26:48 | 02:36:19 | 00:00:00 | |
| DO2JMG | 2026-08-31 00:54:09 | 52.05027 | 8.18516 | 56° | 18km/h | 20633m | -36.1m/s | -53.8°C | 0.7% | 53.3hPa | 2.5V | 08:26:48 | 02:36:17 | 00:00:00 | |
| DL1XH-west | 2026-08-31 00:54:05 | 52.05018 | 8.18490 | 60° | 16km/h | 20776m | -36.1m/s | -53.6°C | 0.7% | 52.1hPa | 2.5V | 08:26:48 | 02:36:13 | 00:00:00 | |
| HSKMA3-T | 2026-08-31 00:54:03 | 52.05015 | 8.18478 | 67° | 16km/h | 20849m | -36.2m/s | -53.5°C | 0.6% | 51.5hPa | 2.5V | 08:26:48 | 02:36:11 | 00:00:00 | |
| DF8AY | 2026-08-31 00:54:02 | 52.05013 | 8.18473 | 72° | 15km/h | 20886m | -38m/s | -53.4°C | 0.6% | 51.3hPa | 2.6V | 08:26:48 | 02:36:10 | 00:00:00 | |
| AA1-15 | 2026-08-31 00:54:02 | 52.05012 | 8.18467 | 71° | 13km/h | 20924m | -38.5m/s | -53.2°C | 0.5% | 51hPa | 2.6V | 08:26:48 | 02:36:09 | 00:00:00 | |
| DO2JMG | 2026-08-31 00:53:58 | 52.05010 | 8.18449 | 89° | 15km/h | 21039m | -38.7m/s | -53°C | 0.5% | 50.1hPa | 2.5V | 08:26:48 | 02:36:06 | 00:00:00 | |
| BIOWL1-15 | 2026-08-31 00:53:55 | 52.05014 | 8.18434 | 283° | 7km/h | 21345m | -39.6m/s | -52.7°C | 0.5% | 47.8hPa | 2.6V | 08:26:48 | 02:35:58 | 00:00:00 | |
| DL1XH-west | 2026-08-31 00:53:55 | 52.05011 | 8.18435 | 117° | 9km/h | 21153m | -38m/s | -53°C | 0.5% | 49.2hPa | 2.5V | 08:26:48 | 02:36:03 | 00:00:00 | |
| HSKMA3-T | 2026-08-31 00:53:53 | 52.05012 | 8.18431 | 124° | 4km/h | 21229m | -38.3m/s | -52.9°C | 0.5% | 48.6hPa | 2.5V | 08:26:48 | 02:36:01 | 00:00:00 | |
| DF8AY | 2026-08-31 00:53:52 | 52.05013 | 8.18431 | 178° | 4km/h | 21267m | -37.8m/s | -52.9°C | 0.6% | 48.3hPa | 2.5V | 08:26:48 | 02:36:00 | 00:00:00 | |
| AA1-15 | 2026-08-31 00:53:51 | 52.05014 | 8.18431 | 242° | 4km/h | 21306m | -38.9m/s | -52.8°C | 0.5% | 48hPa | 2.6V | 08:26:48 | 02:35:59 | 00:00:00 | |
| GOEST3-10 | 2026-08-31 00:53:51 | 52.05014 | 8.18431 | 243° | 9km/h | 21306m | -38.8m/s | -52.8°C | 4.1% | 48.0hPa | 2.5V | 00:00:00 | 02:35:59 | 00:00:00 | |
| DL1XH1-15 | 2026-08-31 00:53:50 | 52.05013 | 8.18440 | 299° | 11km/h | 21423m | -39m/s | -52.4°C | 3.9% | 47.2hPa | 2.5V | 08:26:25 | 02:35:56 | 00:00:00 | |
| DO2JMG | 2026-08-31 00:53:48 | 52.05013 | 8.18440 | 299° | 11km/h | 21423m | -39m/s | -52.4°C | 0.4% | 47.2hPa | 2.5V | 08:26:48 | 02:35:56 | 00:00:00 | |
| DL1XH-west | 2026-08-31 00:53:45 | 52.05005 | 8.18451 | 332° | 18km/h | 21538m | -39.8m/s | -52.8°C | 0.6% | 46.3hPa | 2.6V | 08:26:48 | 02:35:53 | 00:00:00 | |
| HSKMA3-T | 2026-08-31 00:53:43 | 52.04997 | 8.18458 | 340° | 18km/h | 21618m | -39.5m/s | -52.8°C | 0.6% | 45.8hPa | 2.5V | 08:26:48 | 02:35:51 | 00:00:00 | |
| BIOWL1-15 | 2026-08-31 00:53:42 | 52.04984 | 8.18464 | 347° | 20km/h | 21736m | -40m/s | -53.1°C | 0.6% | 45hPa | 2.6V | 08:26:48 | 02:35:48 | 00:00:00 | |
| DF8AY | 2026-08-31 00:53:42 | 52.04993 | 8.18460 | 347° | 18km/h | 21657m | -39.4m/s | -52.7°C | 0.5% | 45.5hPa | 2.5V | 08:26:48 | 02:35:50 | 00:00:00 | |
| AA1-15 | 2026-08-31 00:53:41 | 52.04988 | 8.18462 | 347° | 18km/h | 21697m | -39.3m/s | -52.9°C | 0.5% | 45.2hPa | 2.5V | 08:26:48 | 02:35:49 | 00:00:00 | |
| GOEST3-10 | 2026-08-31 00:53:41 | 52.04988 | 8.18462 | 348° | 18km/h | 21697m | -39.3m/s | -52.9°C | 4.1% | 45.2hPa | 2.5V | 08:26:00 | 02:35:49 | 00:00:00 | |
| DL1XH1-15 | 2026-08-31 00:53:40 | 52.04975 | 8.18465 | 3° | 20km/h | 21816m | -40.5m/s | -53°C | 4.2% | 44.4hPa | 2.5V | 08:26:35 | 02:35:46 | 00:00:00 | |
| DM0DOS-11 | 2026-08-31 00:53:40 | 52.04965 | 8.18464 | 7° | 20km/h | 21895m | -39.8m/s | -53°C | 4.2% | 43.9hPa | 2.5V | 08:26:37 | 02:35:44 | 00:00:00 | |
| DO2JMG | 2026-08-31 00:53:38 | 52.04975 | 8.18465 | 4° | 20km/h | 21817m | -40.5m/s | -53°C | 0.5% | 44.4hPa | 2.5V | 08:26:48 | 02:35:46 | 00:00:00 | |
| DL1XH-west | 2026-08-31 00:53:34 | 52.04956 | 8.18460 | 17° | 20km/h | 21976m | -40.5m/s | -52.7°C | 0.5% | 43.3hPa | 2.6V | 08:26:48 | 02:35:42 | 00:00:00 | |
| HSKMA3-T | 2026-08-31 00:53:32 | 52.04948 | 8.18456 | 12° | 15km/h | 22056m | -41.1m/s | -52.5°C | 0.5% | 42.8hPa | 2.5V | 08:26:48 | 02:35:40 | 00:00:00 | |
| DF8AY | 2026-08-31 00:53:32 | 52.04945 | 8.18455 | 19° | 13km/h | 22097m | -41.3m/s | -52.5°C | 0.5% | 42.5hPa | 2.5V | 08:26:48 | 02:35:39 | 00:00:00 | |
| AA1-15 | 2026-08-31 00:53:30 | 52.04942 | 8.18453 | 28° | 11km/h | 22139m | -41.1m/s | -52.4°C | 0.5% | 42.2hPa | 2.6V | 08:26:48 | 02:35:38 | 00:00:00 | |
| BIOWL1-15 | 2026-08-31 00:53:29 | 52.04933 | 8.18450 | 345° | 7km/h | 22346m | -41.7m/s | -51.7°C | 0.3% | 40.9hPa | 2.5V | 08:26:48 | 02:35:33 | 00:00:00 | |
| DO2JMG | 2026-08-31 00:53:27 | 52.04936 | 8.18449 | 19° | 7km/h | 22263m | -41.3m/s | -51.9°C | 0.3% | 41.5hPa | 2.5V | 08:26:48 | 02:35:35 | 00:00:00 | |
| DF8AY | 2026-08-31 00:53:25 | 52.04923 | 8.18452 | 7° | 9km/h | 22555m | -42.1m/s | -51.9°C | 0.3% | 39.6hPa | 2.5V | 08:27:39 | 02:35:28 | 00:00:00 | |
| DL1XH-west | 2026-08-31 00:53:24 | 52.04931 | 8.18450 | 354° | 7km/h | 22388m | -41.9m/s | -51.7°C | 0.3% | 40.7hPa | 2.6V | 08:27:39 | 02:35:32 | 00:00:00 | |
| HSKMA3-T | 2026-08-31 00:53:22 | 52.04927 | 8.18450 | 344° | 9km/h | 22471m | -41.6m/s | -51.9°C | 0.4% | 40.1hPa | 2.6V | 08:27:39 | 02:35:30 | 00:00:00 | |
| DO2SHX-10 | 2026-08-31 00:53:21 | 52.04925 | 8.18451 | 354° | 9km/h | 22513m | -42.2m/s | -51.8°C | 3.7% | 39.8hPa | 2.6V | 00:00:00 | 02:35:29 | 00:00:00 | |
| DL1XH1-15 | 2026-08-31 00:53:19 | 52.04919 | 8.18451 | 8° | 9km/h | 22639m | -41.8m/s | -52.1°C | 3.7% | 39.1hPa | 2.6V | 08:26:55 | 02:35:26 | 00:00:00 | |
| AA1-15 | 2026-08-31 00:53:19 | 52.04921 | 8.18452 | 360° | 9km/h | 22598m | -41.3m/s | -52°C | 0.3% | 39.3hPa | 2.5V | 08:27:39 | 02:35:27 | 00:00:00 | |
| DM0DOS-11 | 2026-08-31 00:53:18 | 52.04911 | 8.18447 | 33° | 11km/h | 22766m | -42.5m/s | -52.3°C | 3.8% | 38.3hPa | 2.5V | 08:26:58 | 02:35:23 | 00:00:00 | |
| DO2JMG | 2026-08-31 00:53:17 | 52.04916 | 8.18450 | 10° | 11km/h | 22681m | -43.1m/s | -52.2°C | 0.3% | 38.9hPa | 2.6V | 08:27:39 | 02:35:25 | 00:00:00 | |
| BIOWL1-15 | 2026-08-31 00:53:15 | 52.04905 | 8.18439 | 48° | 5km/h | 22936m | -42.4m/s | -52.3°C | 0.4% | 37.4hPa | 2.5V | 08:27:39 | 02:35:19 | 00:00:00 | |
| DL1XH-west | 2026-08-31 00:53:13 | 52.04908 | 8.18443 | 31° | 9km/h | 22851m | -43.1m/s | -52.3°C | 0.4% | 37.9hPa | 2.6V | 08:27:39 | 02:35:21 | 00:00:00 | |
| HSKMA3-T | 2026-08-31 00:53:12 | 52.04906 | 8.18441 | 44° | 9km/h | 22894m | -42.7m/s | -52.3°C | 0.4% | 37.6hPa | 2.6V | 08:27:39 | 02:35:20 | 00:00:00 | |
| DL3AQ-11 | 2026-08-31 00:53:12 | 52.04905 | 8.18439 | 48° | 4km/h | 22937m | -42.4m/s | -52.3°C | 0.9% | 37.4hPa | 2.6V | 00:00:00 | 00:00:00 | 00:00:00 | |
| DO2SHX-10 | 2026-08-31 00:53:11 | 52.04905 | 8.18439 | 49° | 4km/h | 22937m | -42.3m/s | -52.2°C | 3.9% | 37.3hPa | 2.6V | 00:00:00 | 02:35:19 | 00:00:00 | |
| DL1NUX | 2026-08-31 00:53:10 | 52.04904 | 8.18436 | 246° | 4km/h | 23106m | -42.4m/s | -52.4°C | 4% | 36.3hPa | 2.6V | 08:27:06 | 02:35:15 | 00:00:00 | |
| DF8AY | 2026-08-31 00:53:10 | 52.04904 | 8.18437 | 32° | 5km/h | 22979m | -42.9m/s | -52.3°C | 0.4% | 37.1hPa | 2.5V | 08:27:39 | 02:35:18 | 00:00:00 | |
| AA1-15 | 2026-08-31 00:53:08 | 52.04904 | 8.18436 | 104° | 2km/h | 23065m | -42.5m/s | -52.4°C | 0.4% | 36.6hPa | 2.5V | 08:27:39 | 02:35:16 | 00:00:00 | |
| DM0DOS-11 | 2026-08-31 00:53:08 | 52.04905 | 8.18445 | 289° | 5km/h | 23321m | -43.2m/s | -53.1°C | 4.2% | 35.2hPa | 2.5V | 08:27:11 | 02:35:10 | 00:00:00 | |
| DO2JMG | 2026-08-31 00:53:06 | 52.04904 | 8.18438 | 244° | 5km/h | 23149m | -42.5m/s | -52.5°C | 0.5% | 36.2hPa | 2.6V | 08:27:39 | 02:35:14 | 00:00:00 | |
| DL4BBY-15 | 2026-08-31 00:53:06 | 52.04904 | 8.18438 | 245° | 7km/h | 23150m | -42.5m/s | -54.8°C | 0% | 0hPa | 2.5V | 00:00:00 | 00:00:00 | 00:00:00 | |
| DO2SHX-10 | 2026-08-31 00:53:05 | 52.04905 | 8.18440 | 253° | 5km/h | 23193m | -42.3m/s | -52.6°C | 4.0% | 35.8hPa | 2.5V | 00:00:00 | 02:35:13 | 00:00:00 | |
| DO3DL | 2026-08-31 00:53:04 | 52.04905 | 8.18440 | 254° | 4km/h | 23193m | -42.4m/s | -52.6°C | 1.0% | 35.9hPa | 2.5V | 08:27:00 | 00:00:00 | 00:00:00 | |
| DL1XH1-15 | 2026-08-31 00:53:03 | 52.04902 | 8.18449 | 1° | 5km/h | 23498m | -44.3m/s | -53.6°C | 4.5% | 34.3hPa | 2.5V | 08:27:15 | 02:35:06 | 00:00:00 | |
| BIOWL1-15 | 2026-08-31 00:53:03 | 52.04902 | 8.18449 | 2° | 5km/h | 23498m | -44.3m/s | -53.6°C | 0.7% | 34.3hPa | 2.5V | 08:27:39 | 02:35:06 | 00:00:00 | |
| DL1XH-west | 2026-08-31 00:53:02 | 52.04905 | 8.18446 | 290° | 5km/h | 23321m | -43.2m/s | -53.1°C | 0.5% | 35.2hPa | 2.5V | 08:27:39 | 02:35:10 | 00:00:00 | |
| HSKMA3-T | 2026-08-31 00:53:01 | 52.04904 | 8.18447 | 317° | 4km/h | 23365m | -43.8m/s | -53.3°C | 0.6% | 35hPa | 2.6V | 08:27:39 | 02:35:09 | 00:00:00 | |
| GOEST3-10 | 2026-08-31 00:53:01 | 52.04904 | 8.18447 | 317° | 5km/h | 23365m | -43.7m/s | -53.3°C | 4.3% | 34.9hPa | 2.5V | 00:00:00 | 02:35:09 | 00:00:00 | |
| DL1NUX | 2026-08-31 00:53:00 | 52.04900 | 8.18449 | 0° | 7km/h | 23543m | -45.1m/s | -53.5°C | 4.4% | 34hPa | 2.5V | 08:27:16 | 02:35:05 | 00:00:00 | |
| DF8AY | 2026-08-31 00:53:00 | 52.04894 | 8.18449 | 341° | 5km/h | 23723m | -45.1m/s | -52.7°C | 0.6% | 33.1hPa | 2.5V | 08:27:39 | 02:35:01 | 00:00:00 | |
| AA1-15 | 2026-08-31 00:52:57 | 52.04900 | 8.18449 | 1° | 7km/h | 23543m | -45.1m/s | -53.5°C | 0.7% | 34hPa | 2.5V | 08:27:39 | 02:35:05 | 00:00:00 | |
| DO2JMG | 2026-08-31 00:52:55 | 52.04897 | 8.18449 | 10° | 5km/h | 23634m | -44.5m/s | -53.1°C | 0.6% | 33.5hPa | 2.6V | 08:27:39 | 02:35:03 | 00:00:00 | |
| SONDE2-11 | 2026-08-31 00:52:54 | 52.04896 | 8.18448 | 350° | 4km/h | 23679m | -44.8m/s | -53.0°C | 1.1% | 33.3hPa | 2.5V | 00:00:00 | 00:00:00 | 00:00:00 | |
| DM0DOS-11 | 2026-08-31 00:52:53 | 52.04894 | 8.18449 | 340° | 5km/h | 23723m | -45.1m/s | -52.7°C | 4.2% | 33.1hPa | 2.5V | 08:27:20 | 02:35:01 | 00:00:00 | |
| DL1XH-west | 2026-08-31 00:52:51 | 52.04891 | 8.18449 | 356° | 5km/h | 23815m | -45.6m/s | -51.9°C | 0.4% | 32.6hPa | 2.5V | 08:27:39 | 02:34:59 | 00:00:00 | |
| DL1NUX | 2026-08-31 00:52:51 | 52.04884 | 8.18448 | 24° | 9km/h | 24000m | -46.4m/s | -52.2°C | 4% | 31.7hPa | 2.5V | 08:27:26 | 02:34:55 | 00:00:00 | |
| GOEST3-10 | 2026-08-31 00:52:51 | 52.04890 | 8.18449 | 356° | 5km/h | 23815m | -45.6m/s | -51.8°C | 3.9% | 32.5hPa | 2.5V | 00:00:00 | 02:34:59 | 00:00:00 | |
| DL1XH-15 | 2026-08-31 00:52:50 | 52.04882 | 8.18446 | 27° | 11km/h | 24046m | -47.3m/s | -52.2°C | 4% | 31.5hPa | 2.5V | 08:27:27 | 02:34:54 | 00:00:00 | |
| HSKMA3-T | 2026-08-31 00:52:50 | 52.04889 | 8.18449 | 1° | 5km/h | 23861m | -46.4m/s | -52°C | 0.3% | 32.4hPa | 2.6V | 08:27:39 | 02:34:58 | 00:00:00 | |
| DF8AY-15 | 2026-08-31 00:52:50 | 52.04889 | 8.18449 | 1° | 15km/h | 23861m | -46.3m/s | -51.9°C | 3.8% | 32.3hPa | 2.6V | 08:27:00 | 02:34:58 | 00:00:00 | |
| DO2SHX-10 | 2026-08-31 00:52:49 | 52.04888 | 8.18449 | 347° | 7km/h | 23907m | -47.1m/s | -52.0°C | 3.9% | 32.1hPa | 2.6V | 00:00:00 | 02:34:57 | 00:00:00 | |
| DM0DOS-11 | 2026-08-31 00:52:48 | 52.04875 | 8.18440 | 30° | 11km/h | 24188m | -46.9m/s | -52.5°C | 4.1% | 30.8hPa | 2.6V | 08:27:30 | 02:34:51 | 00:00:00 | |
| DF8AY | 2026-08-31 00:52:47 | 52.04884 | 8.18448 | 24° | 9km/h | 24000m | -46.4m/s | -52.2°C | 0.5% | 31.7hPa | 2.5V | 08:27:39 | 02:34:55 | 00:00:00 | |
| AA1-15 | 2026-08-31 00:52:46 | 52.04882 | 8.18446 | 27° | 11km/h | 24046m | -47.3m/s | -52.2°C | 0.5% | 31.5hPa | 2.5V | 08:27:39 | 02:34:54 | 00:00:00 | |
| DO2JMG | 2026-08-31 00:52:44 | 52.04877 | 8.18442 | 33° | 13km/h | 24141m | -47.8m/s | -52.3°C | 0.5% | 31hPa | 2.6V | 08:27:39 | 02:34:52 | 00:00:00 | |
| BIOWL1-15 | 2026-08-31 00:52:41 | 52.04870 | 8.18439 | 251° | 7km/h | 24661m | -49.9m/s | -51.4°C | 0.4% | 28.6hPa | 2.5V | 08:28:30 | 02:34:41 | 00:00:00 | |
| DL1XH-west | 2026-08-31 00:52:41 | 52.04870 | 8.18436 | 34° | 9km/h | 24283m | -46.8m/s | -52.4°C | 0.5% | 30.3hPa | 2.5V | 08:27:39 | 02:34:49 | 00:00:00 | |
| DD8BA-10 | 2026-08-31 00:52:41 | 52.04870 | 8.18436 | 35° | 5km/h | 24283m | -46.7m/s | -52.3°C | 4.1% | 30.3hPa | 2.6V | 00:00:00 | 00:00:00 | 00:00:00 | |
| DL1NUX | 2026-08-31 00:52:40 | 52.04867 | 8.18433 | 203° | 2km/h | 24468m | -47.1m/s | -52°C | 4.1% | 29.5hPa | 2.6V | 08:27:36 | 02:34:45 | 00:00:00 | |
| HSKMA3-T | 2026-08-31 00:52:39 | 52.04868 | 8.18433 | 14° | 4km/h | 24375m | -46.8m/s | -52.3°C | 0.5% | 29.9hPa | 2.5V | 08:27:39 | 02:34:47 | 00:00:00 | |
| BUE01 | 2026-08-31 00:52:39 | 52.04867 | 8.18433 | 5° | 2km/h | 24422m | -46.8m/s | -52.1°C | 1.0% | 29.7hPa | 2.5V | 00:00:00 | 00:00:00 | 00:00:00 | |
| DM0DOS-11 | 2026-08-31 00:52:38 | 52.04870 | 8.18439 | 250° | 7km/h | 24661m | -49.9m/s | -51.4°C | 3.9% | 28.6hPa | 2.5V | 08:27:40 | 02:34:41 | 00:00:00 | |
| DL1XH-15 | 2026-08-31 00:52:37 | 52.04868 | 8.18434 | 221° | 4km/h | 24516m | -48.2m/s | -52°C | 4.1% | 29.2hPa | 2.6V | 08:27:37 | 02:34:44 | 00:00:00 | |
| DF8AY | 2026-08-31 00:52:36 | 52.04868 | 8.18434 | 222° | 4km/h | 24516m | -48.2m/s | -52°C | 0.5% | 29.2hPa | 2.6V | 08:27:39 | 02:34:44 | 00:00:00 | |
| AA1-15 | 2026-08-31 00:52:35 | 52.04868 | 8.18435 | 220° | 4km/h | 24564m | -47.7m/s | -51.8°C | 0.5% | 29.1hPa | 2.5V | 08:27:39 | 02:34:43 | 00:00:00 | |
| DO2JMG | 2026-08-31 00:52:34 | 52.04869 | 8.18436 | 229° | 5km/h | 24612m | -49.7m/s | -51.6°C | 0.4% | 28.8hPa | 2.5V | 08:27:39 | 02:34:42 | 00:00:00 | |
| DJ2DS-15 | 2026-08-31 00:52:33 | 52.04870 | 8.18441 | 256° | 5km/h | 24710m | -49.2m/s | -51.2°C | 0.9% | 28.4hPa | 2.5V | 00:00:00 | 00:00:00 | 00:00:00 | |
| DJ8HS-15 | 2026-08-31 00:52:32 | 52.04870 | 8.18441 | 257° | 7km/h | 24710m | -49.2m/s | -51.2°C | 3.8% | 28.3hPa | 2.5V | 00:00:00 | 02:34:40 | 00:00:00 | |
| DL1NUX | 2026-08-31 00:52:31 | 52.04866 | 8.18450 | 323° | 9km/h | 24953m | -48.8m/s | -51.4°C | 3.8% | 27.3hPa | 2.5V | 08:27:46 | 02:34:35 | 00:00:00 | |
| DL1XH-west | 2026-08-31 00:52:31 | 52.04870 | 8.18446 | 316° | 7km/h | 24807m | -48.8m/s | -51.2°C | 0.3% | 28hPa | 2.5V | 08:28:30 | 02:34:38 | 00:00:00 | |
| DL1XH-15 | 2026-08-31 00:52:30 | 52.04865 | 8.18453 | 321° | 9km/h | 25002m | -49.1m/s | -51.6°C | 3.9% | 27.1hPa | 2.6V | 08:27:47 | 02:34:34 | 00:00:00 | |
| HSKMA3-T | 2026-08-31 00:52:28 | 52.04866 | 8.18450 | 323° | 9km/h | 24953m | -48.8m/s | -51.4°C | 0.3% | 27.3hPa | 2.5V | 08:28:30 | 02:34:35 | 00:00:00 | |
| BIOWL1-15 | 2026-08-31 00:52:28 | 52.04863 | 8.18455 | 333° | 11km/h | 25051m | -49.7m/s | -51.7°C | 0.5% | 26.9hPa | 2.6V | 08:28:30 | 02:34:33 | 00:00:00 | |
| DF8AY | 2026-08-31 00:52:26 | 52.04864 | 8.18453 | 321° | 9km/h | 25002m | -49.1m/s | -51.6°C | 0.4% | 27.1hPa | 2.6V | 08:28:30 | 02:34:34 | 00:00:00 | |
| AA1-15 | 2026-08-31 00:52:25 | 52.04861 | 8.18457 | 328° | 7km/h | 25101m | -49.6m/s | -51.6°C | 0.5% | 26.8hPa | 2.6V | 08:28:30 | 02:34:32 | 00:00:00 | |
| DB0ND-19 | 2026-08-31 00:52:24 | 52.04860 | 8.18458 | 322° | 7km/h | 25150m | -49.4m/s | -51.5°C | 0.9% | 26.5hPa | 2.5V | 00:00:00 | 00:00:00 | 00:00:00 | |
| DL1XH1-15 | 2026-08-31 00:52:23 | 52.04857 | 8.18466 | 251° | 4km/h | 25400m | -50.1m/s | -51.1°C | 4% | 25.5hPa | 2.5V | 08:27:55 | 02:34:26 | 00:00:00 | |
| DO2JMG | 2026-08-31 00:52:23 | 52.04860 | 8.18458 | 323° | 7km/h | 25150m | -49.4m/s | -51.5°C | 0.5% | 26.5hPa | 2.5V | 08:28:30 | 02:34:31 | 00:00:00 | |
| DL1XH-west | 2026-08-31 00:52:20 | 52.04857 | 8.18463 | 281° | 2km/h | 25300m | -50.6m/s | -51.5°C | 0.5% | 25.9hPa | 2.6V | 08:28:30 | 02:34:28 | 00:00:00 | |
| HSKMA3-T | 2026-08-31 00:52:18 | 52.04858 | 8.18468 | 232° | 5km/h | 25450m | -50.6m/s | -50.7°C | 0.4% | 25.4hPa | 2.5V | 08:28:30 | 02:34:25 | 00:00:00 | |
| DL1XH-15 | 2026-08-31 00:52:17 | 52.04859 | 8.18469 | 227° | 7km/h | 25500m | -50.4m/s | -50.6°C | 3.9% | 25.1hPa | 2.5V | 08:27:57 | 02:34:24 | 00:00:00 | |
| DF8AY | 2026-08-31 00:52:15 | 52.04860 | 8.18472 | 230° | 7km/h | 25550m | -51.2m/s | -50.6°C | 0.4% | 24.9hPa | 2.5V | 08:28:30 | 02:34:23 | 00:00:00 | |
| DM0DOS-11 | 2026-08-31 00:52:13 | 52.04863 | 8.18482 | 254° | 11km/h | 25703m | -51.9m/s | -50.6°C | 3.9% | 24.4hPa | 2.6V | 08:28:01 | 02:34:20 | 00:00:00 | |
| DO2JMG | 2026-08-31 00:52:13 | 52.04862 | 8.18478 | 254° | 11km/h | 25652m | -51.2m/s | -50.7°C | 0.5% | 24.6hPa | 2.6V | 08:28:30 | 02:34:21 | 00:00:00 | |
| DJ2DS-15 | 2026-08-31 00:52:13 | 52.04862 | 8.18478 | 254° | 11km/h | 25652m | -51.2m/s | -50.6°C | 4.0% | 24.5hPa | 2.5V | 00:00:00 | 02:34:21 | 00:00:00 | |
| DJ8HS-15 | 2026-08-31 00:52:12 | 52.04863 | 8.18482 | 255° | 11km/h | 25704m | -51.8m/s | -50.6°C | 3.9% | 24.3hPa | 2.5V | 00:00:00 | 02:34:20 | 00:00:00 | |
| GOEST3-10 | 2026-08-31 00:52:11 | 52.04863 | 8.18486 | 258° | 13km/h | 25756m | -52.7m/s | -50.3°C | 3.8% | 24.1hPa | 2.5V | 08:28:00 | 02:34:19 | 00:00:00 | |
| DL1NUX | 2026-08-31 00:52:10 | 52.04867 | 8.18506 | 254° | 13km/h | 25967m | -53.3m/s | -50.2°C | 3.8% | 23.4hPa | 2.6V | 08:28:06 | 02:34:15 | 00:00:00 | |
| DL1XH1-15 | 2026-08-31 00:52:10 | 52.04866 | 8.18501 | 253° | 13km/h | 25914m | -52.7m/s | -50.1°C | 3.7% | 23.6hPa | 2.6V | 08:28:05 | 02:34:16 | 00:00:00 | |
| DL1XH-west | 2026-08-31 00:52:09 | 52.04865 | 8.18496 | 245° | 13km/h | 25861m | -53.6m/s | -50.2°C | 0.4% | 23.8hPa | 2.5V | 08:28:30 | 02:34:17 | 00:00:00 | |
| HSKMA3-T | 2026-08-31 00:52:07 | 52.04867 | 8.18506 | 255° | 13km/h | 25967m | -53.3m/s | -50.2°C | 0.4% | 23.4hPa | 2.6V | 08:28:30 | 02:34:15 | 00:00:00 | |
| DF8AY | 2026-08-31 00:52:05 | 52.04869 | 8.18515 | 245° | 13km/h | 26074m | -54.4m/s | -50.2°C | 0.4% | 23.1hPa | 2.5V | 08:28:30 | 02:34:13 | 00:00:00 | |
| BIOWL1-15 | 2026-08-31 00:52:04 | 52.04871 | 8.18520 | 257° | 13km/h | 26128m | -55m/s | -50.2°C | 0.4% | 22.8hPa | 2.5V | 08:28:30 | 02:34:12 | 00:00:00 | |
| DM0DOS-11 | 2026-08-31 00:52:03 | 52.04872 | 8.18531 | 262° | 13km/h | 26237m | -54.5m/s | -49.8°C | 3.8% | 22.4hPa | 2.6V | 08:28:11 | 02:34:10 | 00:00:00 | |
| DL1XH1-15 | 2026-08-31 00:52:03 | 52.04872 | 8.18548 | 284° | 9km/h | 26454m | -54.1m/s | -49°C | 3.5% | 21.7hPa | 2.5V | 08:28:15 | 02:34:06 | 00:00:00 | |
| DO2JMG | 2026-08-31 00:52:02 | 52.04872 | 8.18531 | 262° | 13km/h | 26237m | -54.5m/s | -49.8°C | 0.4% | 22.4hPa | 2.6V | 08:28:30 | 02:34:10 | 00:00:00 | |
| DL1NUX | 2026-08-31 00:52:01 | 52.04871 | 8.18550 | 301° | 7km/h | 26507m | -53.5m/s | -49.2°C | 3.6% | 21.5hPa | 2.5V | 08:28:16 | 02:34:05 | 00:00:00 | |
| DL1XH-west | 2026-08-31 00:51:59 | 52.04872 | 8.18544 | 280° | 9km/h | 26400m | -54.3m/s | -49°C | 0.2% | 21.9hPa | 2.5V | 08:28:30 | 02:34:07 | 00:00:00 | |
| HSKMA3-T | 2026-08-31 00:51:57 | 52.04870 | 8.18553 | 297° | 5km/h | 26561m | -53.6m/s | -49.3°C | 0.3% | 21.4hPa | 2.6V | 08:28:30 | 02:34:04 | 00:00:00 | |
| DF8AY | 2026-08-31 00:51:54 | 52.04869 | 8.18558 | 286° | 7km/h | 26668m | -55m/s | -48.8°C | 0.3% | 21hPa | 2.5V | 08:28:30 | 02:34:02 | 00:00:00 | |
| BIOWL1-15 | 2026-08-31 00:51:54 | 52.04872 | 8.18568 | 210° | 9km/h | 26879m | -50.4m/s | -48.3°C | 0.2% | 20.3hPa | 2.6V | 08:28:30 | 02:33:58 | 00:00:00 | |
| DM0DOS-11 | 2026-08-31 00:51:53 | 52.04869 | 8.18563 | 243° | 5km/h | 26775m | -52.4m/s | -48.5°C | 3.5% | 20.6hPa | 2.5V | 08:28:21 | 02:34:00 | 00:00:00 | |
| DO2JMG | 2026-08-31 00:51:51 | 52.04870 | 8.18566 | 232° | 7km/h | 26828m | -52.3m/s | -48.5°C | 0.2% | 20.5hPa | 2.5V | 08:28:30 | 02:33:59 | 00:00:00 | |
| DD8BA-10 | 2026-08-31 00:51:51 | 52.04870 | 8.18566 | 232° | 13km/h | 26828m | -52.3m/s | -48.4°C | 3.5% | 20.4hPa | 2.5V | 00:00:00 | 00:00:00 | 00:00:00 | |
| DL1NUX | 2026-08-31 00:51:50 | 52.04879 | 8.18575 | 216° | 15km/h | 27029m | -49.7m/s | -47.8°C | 3.3% | 19.8hPa | 2.5V | 08:28:26 | 02:33:55 | 00:00:00 | |
| DL1XH-west | 2026-08-31 00:51:49 | 52.04874 | 8.18570 | 218° | 11km/h | 26929m | -50.5m/s | -48.2°C | 0.2% | 20.1hPa | 2.6V | 08:28:30 | 02:33:57 | 00:00:00 | |
| HSKMA3-T | 2026-08-31 00:51:46 | 52.04882 | 8.18579 | 227° | 16km/h | 27079m | -50.6m/s | -47.7°C | 0% | 19.7hPa | 2.5V | 08:28:30 | 02:33:54 | 00:00:00 | |
| DF8AY | 2026-08-31 00:51:44 | 52.04886 | 8.18590 | 246° | 16km/h | 27185m | -54m/s | -47.5°C | 0% | 19.4hPa | 2.6V | 08:28:30 | 02:33:52 | 00:00:00 | |
| DM0DOS-11 | 2026-08-31 00:51:44 | 52.04889 | 8.18602 | 267° | 15km/h | 27293m | -54m/s | -47.9°C | 3.3% | 19.1hPa | 2.5V | 08:28:31 | 02:33:50 | 00:00:00 | |
| AA1-15 | 2026-08-31 00:51:42 | 52.04888 | 8.18608 | 283° | 15km/h | 27348m | -54.5m/s | -48°C | 0.1% | 18.9hPa | 2.5V | 08:29:21 | 02:33:49 | 00:00:00 | |
| DD8BA-10 | 2026-08-31 00:51:41 | 52.04888 | 8.18608 | 283° | 18km/h | 27348m | -54.4m/s | -48.0°C | 3.4% | 18.9hPa | 2.6V | 00:00:00 | 00:00:00 | 00:00:00 | |
| DL1NUX | 2026-08-31 00:51:40 | 52.04880 | 8.18628 | 329° | 18km/h | 27569m | -56.3m/s | -47.5°C | 3.3% | 18.3hPa | 2.6V | 08:28:36 | 02:33:45 | 00:00:00 | |
| DO2JMG | 2026-08-31 00:51:40 | 52.04887 | 8.18613 | 298° | 15km/h | 27402m | -55.5m/s | -48.1°C | 0.1% | 18.8hPa | 2.5V | 08:29:21 | 02:33:48 | 00:00:00 | |
| DL1XH-west | 2026-08-31 00:51:38 | 52.04883 | 8.18623 | 319° | 16km/h | 27513m | -55.3m/s | -47.7°C | 0.1% | 18.5hPa | 2.6V | 08:29:21 | 02:33:46 | 00:00:00 | |
| DL1XH-15 | 2026-08-31 00:51:37 | 52.04876 | 8.18632 | 329° | 18km/h | 27624m | -55.2m/s | -47.4°C | 3.3% | 18.1hPa | 2.6V | 08:28:37 | 02:33:44 | 00:00:00 | |
| SO1NDE-10 | 2026-08-31 00:51:37 | 52.04875 | 8.18632 | 330° | 22km/h | 27625m | -55.1m/s | -47.3°C | 3.3% | 18.1hPa | 2.6V | 00:00:00 | 02:33:44 | 00:00:00 | |
| DM0DOS-11 | 2026-08-31 00:51:36 | 52.04855 | 8.18647 | 340° | 24km/h | 27849m | -58.8m/s | -46.8°C | 3.1% | 17.6hPa | 2.6V | 08:28:41 | 02:33:40 | 00:00:00 | |
| HSKMA3-T | 2026-08-31 00:51:35 | 52.04871 | 8.18636 | 335° | 22km/h | 27679m | -55.1m/s | -47.2°C | 0% | 18hPa | 2.5V | 08:29:21 | 02:33:43 | 00:00:00 | |
| BIOWL1-15 | 2026-08-31 00:51:35 | 52.04849 | 8.18650 | 347° | 26km/h | 27907m | -56m/s | -46.8°C | 0% | 17.4hPa | 2.6V | 18:12:15 | 02:33:39 | 00:00:00 | |
| DF8AY | 2026-08-31 00:51:33 | 52.04861 | 8.18644 | 342° | 22km/h | 27791m | -58m/s | -46.9°C | 0% | 17.7hPa | 2.5V | 08:29:21 | 02:33:41 | 00:00:00 | |
| AA1-15 | 2026-08-31 00:51:31 | 52.04843 | 8.18652 | 347° | 24km/h | 27961m | -54.6m/s | -46.8°C | 0% | 17.2hPa | 2.5V | 08:29:21 | 02:33:38 | 00:00:00 | |
| DL1XH1-15 | 2026-08-31 00:51:30 | 52.04831 | 8.18657 | 343° | 26km/h | 28071m | -56.8m/s | -47.1°C | 3.3% | 16.9hPa | 2.5V | 08:28:45 | 02:33:36 | 00:00:00 | |
| DO2JMG | 2026-08-31 00:51:29 | 52.04837 | 8.18654 | 346° | 26km/h | 28016m | -55.9m/s | -46.9°C | 0% | 17.1hPa | 2.5V | 08:29:21 | 02:33:37 | 00:00:00 | |
| DL1XH-west | 2026-08-31 00:51:28 | 52.04831 | 8.18657 | 344° | 26km/h | 28071m | -56.8m/s | -47.2°C | 0.1% | 16.9hPa | 2.5V | 08:29:21 | 02:33:36 | 00:00:00 | |
| HSKMA3-T | 2026-08-31 00:51:25 | 52.04815 | 8.18668 | 327° | 20km/h | 28245m | -59m/s | -47.7°C | 0.2% | 16.5hPa | 2.6V | 08:29:21 | 02:33:33 | 00:00:00 | |
| DL1XH1-15 | 2026-08-31 00:51:23 | 52.04792 | 8.18698 | 335° | 16km/h | 28652m | -60.3m/s | -46.5°C | 3.4% | 15.5hPa | 2.5V | 08:28:55 | 02:33:26 | 00:00:00 | |
| DF8AY | 2026-08-31 00:51:23 | 52.04807 | 8.18677 | 321° | 18km/h | 28362m | -58m/s | -47.6°C | 0.3% | 16.2hPa | 2.5V | 08:29:21 | 02:33:31 | 00:00:00 | |
| BIOWL1-15 | 2026-08-31 00:51:21 | 52.04758 | 8.18686 | 32° | 26km/h | 29077m | -58.9m/s | -45.2°C | 0% | 14.5hPa | 2.5V | 18:12:15 | 02:33:19 | 00:00:00 | |
| AA1-15 | 2026-08-31 00:51:19 | 52.04796 | 8.18696 | 331° | 15km/h | 28593m | -59.4m/s | -47°C | 0.2% | 15.6hPa | 2.6V | 08:29:21 | 02:33:27 | 00:00:00 | |
| DO2JMG | 2026-08-31 00:51:18 | 52.04792 | 8.18698 | 336° | 16km/h | 28652m | -60.3m/s | -46.5°C | 0.1% | 15.5hPa | 2.5V | 08:29:21 | 02:33:26 | 00:00:00 | |
| DL1XH-15 | 2026-08-31 00:51:17 | 52.04784 | 8.18701 | 356° | 18km/h | 28775m | -62.2m/s | -45.5°C | 3.1% | 15.2hPa | 2.5V | 08:28:57 | 02:33:24 | 00:00:00 | |
| HSKMA3-T | 2026-08-31 00:51:15 | 52.04780 | 8.18701 | 11° | 20km/h | 28837m | -61.9m/s | -45.3°C | 0% | 15.1hPa | 2.5V | 08:29:21 | 02:33:23 | 00:00:00 | |
| DF8AY | 2026-08-31 00:51:12 | 52.04764 | 8.18692 | 29° | 27km/h | 29018m | -59.7m/s | -45.4°C | 0% | 14.7hPa | 2.6V | 08:29:21 | 02:33:20 | 00:00:00 | |
| DJ8HS-15 | 2026-08-31 00:51:12 | 52.04764 | 8.18692 | 30° | 18km/h | 29019m | -59.6m/s | -45.4°C | 3.1% | 14.6hPa | 2.6V | 00:00:00 | 02:33:20 | 00:00:00 | |
| DD8BA-10 | 2026-08-31 00:51:11 | 52.04758 | 8.18686 | 32° | 22km/h | 29078m | -58.9m/s | -45.1°C | 3.1% | 14.5hPa | 2.6V | 00:00:00 | 00:00:00 | 00:00:00 | |
| DL1NUX | 2026-08-31 00:51:10 | 52.04739 | 8.18658 | 51° | 26km/h | 29317m | -59.7m/s | -45°C | 3% | 14hPa | 2.6V | 08:29:06 | 02:33:15 | 00:00:00 | |
| AA1-15 | 2026-08-31 00:51:09 | 52.04743 | 8.18666 | 43° | 27km/h | 29257m | -60.3m/s | -44.8°C | 0% | 14.2hPa | 2.6V | 08:29:21 | 02:33:16 | 00:00:00 | |
| DO2JMG | 2026-08-31 00:51:07 | 52.04739 | 8.18658 | 52° | 26km/h | 29317m | -59.7m/s | -45°C | 0% | 14hPa | 2.6V | 08:29:21 | 02:33:15 | 00:00:00 | |
| BIOWL1-15 | 2026-08-31 00:51:04 | 52.04731 | 8.18636 | 78° | 18km/h | 29497m | -61.1m/s | -44.7°C | 0% | 13.6hPa | 2.5V | 18:12:15 | 02:33:12 | 00:00:00 | |
| DM0DOS-11 | 2026-08-31 00:51:03 | 52.04731 | 8.18622 | 106° | 16km/h | 29619m | -60.7m/s | -44.5°C | 3% | 13.4hPa | 2.6V | 08:29:11 | 02:33:10 | 00:00:00 | |
| DF8AY | 2026-08-31 00:51:02 | 52.04731 | 8.18622 | 106° | 16km/h | 29620m | -60.7m/s | -44.6°C | 0% | 13.4hPa | 2.6V | 08:29:21 | 02:33:10 | 00:00:00 | |
| NBG1-10 | 2026-08-31 00:51:02 | 52.04731 | 8.18622 | 107° | 16km/h | 29620m | -60.7m/s | -44.5°C | 3.0% | 13.4hPa | 2.6V | 00:00:00 | 02:33:10 | 00:00:00 | |
| DO9LL-15 | 2026-08-31 00:51:01 | 52.04733 | 8.18616 | 121° | 11km/h | 29681m | -61.7m/s | -44.3°C | 3.0% | 13.2hPa | 2.6V | 08:29:00 | 02:33:09 | 00:00:00 | |
| DL1NUX | 2026-08-31 00:51:00 | 52.04744 | 8.18598 | 150° | 15km/h | 29929m | -62m/s | -43.4°C | 2.7% | 12.8hPa | 2.5V | 08:29:16 | 02:33:05 | 00:00:00 | |
| DD1CC8 | 2026-08-31 00:50:58 | 52.04744 | 8.18598 | 150° | 15km/h | 29929m | -62.0m/s | -43.4°C | 0.6% | 12.8hPa | 2.6V | 00:00:00 | 00:00:00 | 00:00:00 | |
| DL1XH-15 | 2026-08-31 00:50:57 | 52.04747 | 8.18595 | 152° | 11km/h | 29990m | -61.5m/s | -43.4°C | 2.7% | 12.7hPa | 2.6V | 08:29:17 | 02:33:04 | 00:00:00 | |
| DO2JMG | 2026-08-31 00:50:57 | 52.04744 | 8.18598 | 151° | 15km/h | 29929m | -62m/s | -43.4°C | 0% | 12.8hPa | 2.5V | 08:29:21 | 02:33:05 | 00:00:00 | |
| DL1XH-west | 2026-08-31 00:50:56 | 52.04747 | 8.18595 | 153° | 11km/h | 29990m | -61.5m/s | -43.4°C | 0% | 12.7hPa | 2.6V | 08:29:21 | 02:33:04 | 00:00:00 | |
| GOEST3-10 | 2026-08-31 00:50:56 | 52.04747 | 8.18595 | 153° | 9km/h | 29991m | -61.4m/s | -43.4°C | 2.7% | 12.6hPa | 2.6V | 00:00:00 | 00:00:00 | 00:00:00 | |
| DM0DOS-11 | 2026-08-31 00:50:55 | 52.04754 | 8.18587 | 114° | 5km/h | 30233m | -61.3m/s | -43.1°C | 2.7% | 12.2hPa | 2.5V | 08:29:21 | 02:33:00 | 00:00:00 | |
| BIOWL1-15 | 2026-08-31 00:50:54 | 52.04752 | 8.18591 | 138° | 9km/h | 30112m | -61.1m/s | -43.4°C | 0% | 12.4hPa | 2.5V | 18:12:15 | 02:33:02 | 00:00:00 | |
| HSKMA3-T | 2026-08-31 00:50:53 | 52.04753 | 8.18589 | 128° | 5km/h | 30172m | -60.2m/s | -43.2°C | 0% | 12.3hPa | 2.5V | 08:29:21 | 02:33:01 | 00:00:00 | |
| DF8AY | 2026-08-31 00:50:51 | 52.04754 | 8.18584 | 85° | 7km/h | 30295m | -63.7m/s | -43.2°C | 0% | 12.1hPa | 2.5V | 18:12:15 | 02:32:59 | 00:00:00 | |
| GOEST3-10 | 2026-08-31 00:50:51 | 52.04754 | 8.18584 | 85° | 9km/h | 30296m | -63.7m/s | -43.1°C | 2.8% | 12.0hPa | 2.5V | 00:00:00 | 02:32:59 | 00:00:00 | |
| DL1XH-15 | 2026-08-31 00:50:50 | 52.04755 | 8.18565 | 99° | 13km/h | 30606m | -60.4m/s | -42.7°C | 2.7% | 11.5hPa | 2.5V | 08:30:00 | 02:32:54 | 00:00:00 | |
| DL1NUX | 2026-08-31 00:50:50 | 52.04755 | 8.18570 | 99° | 13km/h | 30545m | -61.7m/s | -42.9°C | 2.8% | 11.6hPa | 2.5V | 08:30:00 | 02:32:55 | 00:00:00 | |
| DO2JMG | 2026-08-31 00:50:46 | 52.04756 | 8.18565 | 100° | 13km/h | 30606m | -60.4m/s | -42.7°C | 0% | 11.5hPa | 2.5V | 18:12:15 | 02:32:54 | 00:00:00 | |
| DL1XH-west | 2026-08-31 00:50:45 | 52.04756 | 8.18560 | 100° | 13km/h | 30666m | -60.9m/s | -42.4°C | 0% | 11.4hPa | 2.5V | 18:12:15 | 02:32:53 | 00:00:00 | |
| HSKMA3-T | 2026-08-31 00:50:43 | 52.04759 | 8.18549 | 123° | 16km/h | 30790m | -63m/s | -42.3°C | 0% | 11.2hPa | 2.6V | 18:12:15 | 02:32:51 | 00:00:00 | |
| DM0DOS-11 | 2026-08-31 00:50:43 | 52.04761 | 8.18544 | 122° | 15km/h | 30853m | -64m/s | -42.3°C | 2.7% | 11.1hPa | 2.5V | 08:30:00 | 02:32:50 | 00:00:00 | |
| DF8AY | 2026-08-31 00:50:40 | 52.04764 | 8.18534 | 125° | 13km/h | 30982m | -66.9m/s | -42.2°C | 0% | 10.9hPa | 2.5V | 18:12:15 | 02:32:48 | 00:00:00 | |
| DL4XJ-10 | 2026-08-31 00:50:40 | 52.04764 | 8.18534 | 125° | 13km/h | 30983m | -66.8m/s | -44.6°C | 0% | 0hPa | 2.5V | 00:00:00 | 00:00:00 | 00:00:00 | |
| DO2SHX-10 | 2026-08-31 00:50:39 | 52.04766 | 8.18530 | 115° | 11km/h | 31049m | -67.4m/s | -41.9°C | 2.6% | 10.7hPa | 2.5V | 00:00:00 | 02:32:47 | 00:00:00 | |
| DL1CLM-18 | 2026-08-31 00:50:38 | 52.04766 | 8.18530 | 116° | 13km/h | 31049m | -67.4m/s | -41.9°C | 0.6% | 10.8hPa | 2.5V | 00:00:00 | 00:00:00 | 00:00:00 | |
| DL1XH-15 | 2026-08-31 00:50:37 | 52.04769 | 8.18520 | 82° | 7km/h | 31251m | -67.1m/s | -41.7°C | 2.6% | 10.5hPa | 2.5V | 08:30:00 | 02:32:44 | 00:00:00 | |
| AA1-15 | 2026-08-31 00:50:36 | 52.04769 | 8.18517 | 71° | 9km/h | 31317m | -66.7m/s | -41.5°C | 0% | 10.4hPa | 2.5V | 18:12:15 | 02:32:43 | 00:00:00 | |
| DO2JMG | 2026-08-31 00:50:36 | 52.04769 | 8.18520 | 82° | 7km/h | 31251m | -67.1m/s | -41.7°C | 0% | 10.5hPa | 2.5V | 18:12:15 | 02:32:44 | 00:00:00 | |
| DO2SHX-10 | 2026-08-31 00:50:36 | 52.04769 | 8.18519 | 83° | 9km/h | 31251m | -67.1m/s | -41.7°C | 2.6% | 10.4hPa | 2.5V | 00:00:00 | 02:32:44 | 00:00:00 | |
| DM0DOS-11 | 2026-08-31 00:50:35 | 52.04763 | 8.18507 | 29° | 15km/h | 31520m | -68m/s | -41.1°C | 2.4% | 10.1hPa | 2.6V | 08:30:00 | 02:32:40 | 00:00:00 | |
| DL1XH-west | 2026-08-31 00:50:34 | 52.04768 | 8.18513 | 49° | 11km/h | 31384m | -68m/s | -41.3°C | 0% | 10.3hPa | 2.5V | 18:12:15 | 02:32:42 | 00:00:00 | |
| BIOWL1-15 | 2026-08-31 00:50:33 | 52.04747 | 8.18492 | 30° | 18km/h | 31796m | -68.7m/s | -40.7°C | 0% | 9.7hPa | 2.5V | 18:12:15 | 02:32:36 | 00:00:00 | |
| HSKMA3-T | 2026-08-31 00:50:33 | 52.04766 | 8.18510 | 44° | 15km/h | 31452m | -68.6m/s | -41.1°C | 0% | 10.2hPa | 2.6V | 18:12:15 | 02:32:41 | 00:00:00 | |
| DO2SHX-10 | 2026-08-31 00:50:33 | 52.04766 | 8.18510 | 44° | 13km/h | 31452m | -68.5m/s | -41.1°C | 2.5% | 10.1hPa | 2.6V | 00:00:00 | 02:32:41 | 00:00:00 | |
| DL3AQ-11 | 2026-08-31 00:50:32 | 52.04759 | 8.18503 | 27° | 18km/h | 31589m | -69.4m/s | -41.0°C | 0.5% | 10.0hPa | 2.6V | 00:00:00 | 00:00:00 | 00:00:00 | |
| DO9LL-15 | 2026-08-31 00:50:31 | 52.04759 | 8.18503 | 28° | 18km/h | 31589m | -69.4m/s | -40.9°C | 2.5% | 9.9hPa | 2.6V | 00:00:00 | 02:32:39 | 00:00:00 | |
| DL1XH-15 | 2026-08-31 00:50:30 | 52.04740 | 8.18485 | 22° | 16km/h | 31935m | -70m/s | -40.2°C | 2.3% | 9.4hPa | 2.6V | 08:30:00 | 02:32:34 | 00:00:00 | |
| DF8AY | 2026-08-31 00:50:29 | 52.04751 | 8.18496 | 38° | 18km/h | 31728m | -69m/s | -40.8°C | 0% | 9.8hPa | 2.5V | 18:12:15 | 02:32:37 | 00:00:00 | |
| AA1-15 | 2026-08-31 00:50:25 | 52.04733 | 8.18478 | 35° | 13km/h | 32072m | -68.3m/s | -39.9°C | 0% | 9.3hPa | 2.5V | 18:12:15 | 02:32:32 | 00:00:00 | |
| DO2JMG | 2026-08-31 00:50:25 | 52.04736 | 8.18481 | 33° | 16km/h | 32004m | -68.8m/s | -40°C | 0% | 9.3hPa | 2.5V | 18:12:15 | 02:32:33 | 00:00:00 | |
| DD1CC2-15 | 2026-08-31 00:50:24 | 52.04736 | 8.18481 | 34° | 16km/h | 32004m | -68.8m/s | -40.0°C | 0.5% | 9.4hPa | 2.6V | 00:00:00 | 00:00:00 | 00:00:00 | |
| DM0DOS-11 | 2026-08-31 00:50:23 | 52.04728 | 8.18473 | 27° | 7km/h | 32206m | -67m/s | -39.7°C | 2.2% | 9.1hPa | 2.6V | 08:30:00 | 02:32:30 | 00:00:00 | |
| DL1XH1-15 | 2026-08-31 00:50:23 | 52.04723 | 8.18469 | 17° | 5km/h | 32470m | -65.9m/s | -39.4°C | 2.1% | 8.7hPa | 2.5V | 08:30:00 | 02:32:26 | 00:00:00 | |
| DL1XH-west | 2026-08-31 00:50:23 | 52.04730 | 8.18475 | 27° | 11km/h | 32139m | -66.9m/s | -39.9°C | 0% | 9.1hPa | 2.5V | 18:12:15 | 02:32:31 | 00:00:00 | |
| BIOWL1-15 | 2026-08-31 00:50:23 | 52.04663 | 8.18431 | 22° | 33km/h | 33117m | -68.9m/s | -40°C | 0% | 7.9hPa | 2.5V | 18:12:15 | 02:32:16 | 00:00:00 | |
| HSKMA3-T | 2026-08-31 00:50:23 | 52.04728 | 8.18473 | 27° | 9km/h | 32206m | -67m/s | -39.7°C | 0% | 9.1hPa | 2.6V | 18:12:15 | 02:32:30 | 00:00:00 | |
| DL8DAS-15 | 2026-08-31 00:50:22 | 52.04730 | 8.18475 | 28° | 11km/h | 32140m | -66.9m/s | -39.9°C | 0.5% | 9.1hPa | 2.6V | 00:00:00 | 00:00:00 | 00:00:00 | |
| EDDB2-11 | 2026-08-31 00:50:21 | 52.04725 | 8.18470 | 8° | 4km/h | 32339m | -65.8m/s | -39.4°C | 0.4% | 8.9hPa | 2.6V | 00:00:00 | 00:00:00 | 00:00:00 | |
| DL1XH-15 | 2026-08-31 00:50:20 | 52.04719 | 8.18466 | 20° | 11km/h | 32599m | -64.6m/s | -39.6°C | 2.1% | 8.5hPa | 2.6V | 08:30:00 | 02:32:24 | 00:00:00 | |
| DF8AY | 2026-08-31 00:50:19 | 52.04724 | 8.18470 | 12° | 4km/h | 32404m | -65.9m/s | -39.4°C | 0% | 8.8hPa | 2.5V | 18:12:15 | 02:32:27 | 00:00:00 | |
| DO2JMG | 2026-08-31 00:50:15 | 52.04716 | 8.18464 | 18° | 16km/h | 32664m | -65.1m/s | -39.6°C | 0% | 8.4hPa | 2.6V | 18:12:15 | 02:32:23 | 00:00:00 | |
| AA1-15 | 2026-08-31 00:50:14 | 52.04705 | 8.18459 | 21° | 29km/h | 32794m | -63.9m/s | -39.6°C | 0% | 8.3hPa | 2.5V | 18:12:15 | 02:32:21 | 00:00:00 | |
| DL1XH-west | 2026-08-31 00:50:12 | 52.04698 | 8.18454 | 22° | 33km/h | 32858m | -64m/s | -39.6°C | 0% | 8.2hPa | 2.5V | 18:12:15 | 02:32:20 | 00:00:00 | |
| HSKMA3-T | 2026-08-31 00:50:09 | 52.04672 | 8.18437 | 24° | 38km/h | 33050m | -64.5m/s | -39.9°C | 0% | 7.9hPa | 2.6V | 18:12:15 | 02:32:17 | 00:00:00 | |
| DO2JMG | 2026-08-31 00:50:04 | 52.04641 | 8.18416 | 26° | 18km/h | 33382m | -60.2m/s | -40.8°C | 0% | 7.5hPa | 2.6V | 18:12:15 | 02:32:12 | 00:00:00 | |
| DL1XH-west | 2026-08-31 00:50:02 | 52.04634 | 8.18410 | 20° | 13km/h | 33494m | -51.9m/s | -41.3°C | 0% | 7.4hPa | 2.5V | 18:12:15 | 02:32:10 | 00:00:00 | |
| DF8AY | 2026-08-31 00:49:59 | 52.04625 | 8.18374 | 42° | 31km/h | 33855m | -21.4m/s | -40.8°C | 0% | 6.9hPa | 2.6V | 18:12:15 | 02:32:01 | 00:00:00 | |
| HSKMA3-T | 2026-08-31 00:49:57 | 52.04634 | 8.18399 | 110° | 9km/h | 33727m | -39.9m/s | -40.8°C | 0% | 7.1hPa | 2.6V | 18:12:15 | 02:32:05 | 00:00:00 | |
| DO2JMG | 2026-08-31 00:49:54 | 52.04630 | 8.18382 | 49° | 24km/h | 33830m | -27.3m/s | -40.9°C | 0% | 6.9hPa | 2.5V | 18:12:15 | 02:32:02 | 00:00:00 | |
| AA1-15 | 2026-08-31 00:49:52 | 52.04618 | 8.18365 | 34° | 46km/h | 33874m | -17.8m/s | -40.7°C | 0% | 6.9hPa | 2.6V | 18:12:15 | 02:32:00 | 00:00:00 | |
| DL1XH-west | 2026-08-31 00:49:51 | 52.04606 | 8.18354 | 25° | 68km/h | 33894m | -22.1m/s | -40.5°C | 0% | 6.9hPa | 2.5V | 18:12:15 | 02:31:59 | 00:00:00 | |
| DD8BA-10 | 2026-08-31 00:49:51 | 52.04606 | 8.18354 | 26° | 33km/h | 33895m | -22.1m/s | -40.5°C | 2.4% | 6.8hPa | 2.5V | 00:00:00 | 00:00:00 | 00:00:00 | |
| DL1XH-15 | 2026-08-31 00:49:50 | 52.04552 | 8.18330 | 272° | 13km/h | 34043m | -30.9m/s | -39.5°C | 2.1% | 6.7hPa | 2.5V | 08:30:00 | 02:31:54 | 00:00:00 | |
| DL1NUX | 2026-08-31 00:49:49 | 52.04553 | 8.18326 | 284° | 11km/h | 34009m | -37.3m/s | -39.7°C | 2.2% | 6.7hPa | 2.6V | 08:30:00 | 02:31:55 | 00:00:00 | |
| DF8AY | 2026-08-31 00:49:47 | 52.04553 | 8.18326 | 285° | 11km/h | 34009m | -37.3m/s | -39.7°C | 0% | 6.7hPa | 2.6V | 18:12:15 | 02:31:55 | 00:00:00 | |
| DM0DOS-11 | 2026-08-31 00:49:47 | 52.04554 | 8.18353 | 259° | 15km/h | 34095m | 7.4m/s | -39.4°C | 2.1% | 6.6hPa | 2.6V | 08:30:00 | 02:31:50 | 00:00:00 | |
| HSKMA3-T | 2026-08-31 00:49:46 | 52.04553 | 8.18330 | 273° | 13km/h | 34043m | -30.9m/s | -39.5°C | 0% | 6.7hPa | 2.5V | 18:12:15 | 02:31:54 | 00:00:00 | |
| SONCRA | 2026-08-31 00:49:46 | 52.04553 | 8.18335 | 263° | 13km/h | 34071m | -22.6m/s | -39.3°C | 0.4% | 6.7hPa | 2.5V | 00:00:00 | 00:00:00 | 00:00:00 | |
| SMARD9-15 | 2026-08-31 00:49:44 | 52.04554 | 8.18347 | 257° | 13km/h | 34097m | -3.7m/s | -39.3°C | 0.4% | 6.6hPa | 2.5V | 00:00:00 | 00:00:00 | 00:00:00 | |
| DL1XH1-15 | 2026-08-31 00:49:43 | 52.04539 | 8.18374 | 355° | 35km/h | 34076m | 5.8m/s | -39.8°C | 2.2% | 6.7hPa | 2.5V | 08:30:00 | 02:31:46 | 00:00:00 | |
| DO2JMG | 2026-08-31 00:49:43 | 52.04554 | 8.18347 | 258° | 15km/h | 34096m | -3.7m/s | -39.3°C | 0% | 6.6hPa | 2.5V | 18:12:15 | 02:31:51 | 00:00:00 | |
| AA1-15 | 2026-08-31 00:49:42 | 52.04554 | 8.18353 | 259° | 15km/h | 34095m | 7.4m/s | -39.4°C | 0% | 6.6hPa | 2.6V | 18:12:15 | 02:31:50 | 00:00:00 | |
| DL1XH-west | 2026-08-31 00:49:41 | 52.04554 | 8.18359 | 289° | 18km/h | 34089m | 3.3m/s | -39.5°C | 0% | 6.6hPa | 2.6V | 18:12:15 | 02:31:49 | 00:00:00 | |
| DL1XH-15 | 2026-08-31 00:49:41 | 52.04520 | 8.18367 | 24° | 46km/h | 34065m | 4.5m/s | -40°C | 2.2% | 6.6hPa | 2.6V | 08:30:00 | 02:31:44 | 00:00:00 | |
| BIOWL1-15 | 2026-08-31 00:49:40 | 52.04552 | 8.18366 | 313° | 22km/h | 34086m | 3.9m/s | -39.6°C | 0% | 6.7hPa | 2.6V | 18:12:15 | 02:31:48 | 00:00:00 | |
| DL4XJ-10 | 2026-08-31 00:49:40 | 52.04551 | 8.18366 | 313° | 27km/h | 34086m | 3.8m/s | -42.0°C | 0% | 0hPa | 2.6V | 00:00:00 | 00:00:00 | 00:00:00 | |
| DL1NUX | 2026-08-31 00:49:39 | 52.04510 | 8.18358 | 36° | 44km/h | 34061m | 3.5m/s | -40°C | 2.2% | 6.7hPa | 2.6V | 08:30:00 | 02:31:43 | 00:00:00 | |
| DF8AY | 2026-08-31 00:49:37 | 52.04530 | 8.18373 | 11° | 42km/h | 34070m | 5.4m/s | -39.9°C | 0% | 6.7hPa | 2.5V | 18:12:15 | 02:31:45 | 00:00:00 | |
| HSKMA3-T | 2026-08-31 00:49:36 | 52.04520 | 8.18367 | 24° | 46km/h | 34065m | 4.5m/s | -40°C | 0% | 6.7hPa | 2.6V | 18:12:15 | 02:31:44 | 00:00:00 | |
| DL3AQ-11 | 2026-08-31 00:49:36 | 52.04510 | 8.18358 | 36° | 44km/h | 34062m | 3.5m/s | -40.0°C | 0.4% | 6.7hPa | 2.5V | 00:00:00 | 00:00:00 | 00:00:00 | |
| DM0DOS-11 | 2026-08-31 00:49:35 | 52.04496 | 8.18325 | 92° | 22km/h | 34049m | 5.5m/s | -40.1°C | 2.2% | 6.7hPa | 2.5V | 08:30:00 | 02:31:40 | 00:00:00 | |
| DO2JMG | 2026-08-31 00:49:33 | 52.04498 | 8.18335 | 66° | 31km/h | 34054m | 4.6m/s | -40.1°C | 0% | 6.7hPa | 2.5V | 18:12:15 | 02:31:41 | 00:00:00 | |
| BIOWL1-15 | 2026-08-31 00:49:30 | 52.04502 | 8.18316 | 179° | 18km/h | 34038m | 5.3m/s | -40.3°C | 0% | 6.7hPa | 2.6V | 18:12:15 | 02:31:38 | 00:00:00 | |
| DL1XH1-15 | 2026-08-31 00:49:30 | 52.04509 | 8.18323 | 239° | 20km/h | 34029m | 3.6m/s | -40.3°C | 2.3% | 6.7hPa | 2.5V | 08:30:00 | 02:31:36 | 00:00:00 | |
| DO2SHX-10 | 2026-08-31 00:49:29 | 52.04506 | 8.18318 | 211° | 18km/h | 34033m | 4.1m/s | -40.2°C | 2.2% | 6.7hPa | 2.5V | 00:00:00 | 02:31:37 | 00:00:00 | |
| DL1XH-15 | 2026-08-31 00:49:28 | 52.04509 | 8.18337 | 314° | 18km/h | 34021m | 4.5m/s | -40.4°C | 2.3% | 6.7hPa | 2.5V | 08:30:00 | 02:31:34 | 00:00:00 | |
| HSKMA3-T | 2026-08-31 00:49:26 | 52.04509 | 8.18337 | 314° | 20km/h | 34021m | 4.5m/s | -40.4°C | 0% | 6.7hPa | 2.5V | 18:12:15 | 02:31:34 | 00:00:00 | |
| BIOWL9-15 | 2026-08-31 00:49:25 | 52.04504 | 8.18341 | 347° | 24km/h | 34017m | 5.3m/s | -40.5°C | 0.5% | 6.7hPa | 2.5V | 00:00:00 | 00:00:00 | 00:00:00 | |
| DM0DOS-11 | 2026-08-31 00:49:24 | 52.04480 | 8.18327 | 40° | 42km/h | 34000m | 4.9m/s | -40.6°C | 2.3% | 6.7hPa | 2.5V | 08:30:00 | 02:31:30 | 00:00:00 | |
| DL1XH1-15 | 2026-08-31 00:49:23 | 52.04468 | 8.18280 | 109° | 20km/h | 33982m | 4.8m/s | -40.6°C | 2.3% | 6.7hPa | 2.6V | 08:30:00 | 02:31:26 | 00:00:00 | |
| DO2JMG | 2026-08-31 00:49:22 | 52.04480 | 8.18327 | 40° | 42km/h | 34000m | 4.9m/s | -40.6°C | 0% | 6.7hPa | 2.5V | 18:12:15 | 02:31:30 | 00:00:00 | |
| DL1XH-15 | 2026-08-31 00:49:21 | 52.04473 | 8.18272 | 172° | 11km/h | 33973m | 5.2m/s | -40.7°C | 2.3% | 6.8hPa | 2.5V | 08:30:00 | 02:31:24 | 00:00:00 | |
| DL1XH-west | 2026-08-31 00:49:20 | 52.04467 | 8.18290 | 87° | 27km/h | 33987m | 4.4m/s | -40.6°C | 0% | 6.8hPa | 2.6V | 18:12:15 | 02:31:27 | 00:00:00 | |
| HSKMA3-T | 2026-08-31 00:49:16 | 52.04473 | 8.18272 | 173° | 11km/h | 33973m | 5.2m/s | -40.7°C | 0% | 6.8hPa | 2.5V | 18:12:15 | 02:31:24 | 00:00:00 | |
| DO2JMG | 2026-08-31 00:49:12 | 52.04471 | 8.18282 | 349° | 20km/h | 33953m | 4.8m/s | -40.7°C | 0% | 6.8hPa | 2.5V | 18:12:15 | 02:31:20 | 00:00:00 | |
| DJ8HS-15 | 2026-08-31 00:49:12 | 52.04471 | 8.18282 | 350° | 24km/h | 33953m | 4.8m/s | -40.7°C | 2.3% | 6.7hPa | 2.5V | 00:00:00 | 02:31:20 | 00:00:00 | |
| DD8BA-10 | 2026-08-31 00:49:11 | 52.04465 | 8.18282 | 7° | 24km/h | 33948m | 4.8m/s | -40.6°C | 2.3% | 6.7hPa | 2.5V | 00:00:00 | 00:00:00 | 00:00:00 | |
| DL1XH-15 | 2026-08-31 00:49:10 | 52.04440 | 8.18244 | 84° | 26km/h | 33923m | 5.7m/s | -40.8°C | 2.3% | 6.8hPa | 2.5V | 08:30:00 | 02:31:14 | 00:00:00 | |
| DL1XH1-15 | 2026-08-31 00:49:10 | 52.04446 | 8.18264 | 49° | 31km/h | 33934m | 4.7m/s | -40.8°C | 2.3% | 6.8hPa | 2.6V | 08:30:00 | 02:31:16 | 00:00:00 | |
| AA1-15 | 2026-08-31 00:49:09 | 52.04446 | 8.18264 | 49° | 31km/h | 33934m | 4.7m/s | -40.8°C | 0% | 6.8hPa | 2.6V | 18:12:15 | 02:31:16 | 00:00:00 | |
| DL1XH-west | 2026-08-31 00:49:09 | 52.04451 | 8.18273 | 35° | 33km/h | 33939m | 4.3m/s | -40.7°C | 0% | 6.8hPa | 2.6V | 18:12:15 | 02:31:17 | 00:00:00 | |
| HSKMA3-T | 2026-08-31 00:49:06 | 52.04440 | 8.18244 | 84° | 26km/h | 33923m | 5.7m/s | -40.8°C | 0% | 6.8hPa | 2.5V | 18:12:15 | 02:31:14 | 00:00:00 | |
| DF8AY | 2026-08-31 00:49:05 | 52.04440 | 8.18234 | 104° | 22km/h | 33918m | 5.4m/s | -40.9°C | 0% | 6.8hPa | 2.5V | 18:12:15 | 02:31:13 | 00:00:00 | |
| DO2JMG | 2026-08-31 00:49:02 | 52.04446 | 8.18216 | 121° | 9km/h | 33905m | 3.8m/s | -40.9°C | 0% | 6.9hPa | 2.6V | 18:12:15 | 02:31:10 | 00:00:00 | |
| DO9LL-15 | 2026-08-31 00:49:01 | 52.04446 | 8.18214 | 53° | 24km/h | 33901m | 4.8m/s | -40.9°C | 2.4% | 6.8hPa | 2.5V | 00:00:00 | 02:31:09 | 00:00:00 | |
| DL1NUX | 2026-08-31 00:48:58 | 52.04433 | 8.18208 | 12° | 31km/h | 33883m | 5.5m/s | -40.9°C | 2.4% | 6.9hPa | 2.5V | 08:30:00 | 02:31:06 | 00:00:00 | |
| DL1XH-west | 2026-08-31 00:48:58 | 52.04433 | 8.18208 | 13° | 31km/h | 33883m | 5.5m/s | -40.9°C | 0% | 6.9hPa | 2.5V | 18:12:15 | 02:31:06 | 00:00:00 | |
| AA1-15 | 2026-08-31 00:48:58 | 52.04425 | 8.18205 | 16° | 35km/h | 33878m | 4.5m/s | -40.9°C | 0% | 6.9hPa | 2.6V | 18:12:15 | 02:31:05 | 00:00:00 | |
| BIOWL1-15 | 2026-08-31 00:48:56 | 52.04417 | 8.18200 | 21° | 31km/h | 33874m | 4.1m/s | -40.9°C | 0% | 6.9hPa | 2.6V | 18:12:15 | 02:31:04 | 00:00:00 | |
| DF8AY | 2026-08-31 00:48:56 | 52.04406 | 8.18190 | 46° | 20km/h | 33864m | 5.7m/s | -41°C | 0% | 6.9hPa | 2.5V | 18:12:15 | 02:31:02 | 00:00:00 | |
| DM0DOS-11 | 2026-08-31 00:48:56 | 52.04407 | 8.18163 | 113° | 18km/h | 33844m | 4m/s | -41.1°C | 2.4% | 6.9hPa | 2.5V | 08:30:00 | 02:30:58 | 00:00:00 | |
| HSKMA3-T | 2026-08-31 00:48:55 | 52.04410 | 8.18195 | 30° | 27km/h | 33870m | 4.7m/s | -41°C | 0% | 6.9hPa | 2.5V | 18:12:15 | 02:31:03 | 00:00:00 | |
| DO2JMG | 2026-08-31 00:48:52 | 52.04403 | 8.18177 | 104° | 16km/h | 33853m | 5.3m/s | -41°C | 0% | 6.9hPa | 2.6V | 18:12:15 | 02:31:00 | 00:00:00 | |
| DO2SHX-10 | 2026-08-31 00:48:51 | 52.04405 | 8.18170 | 117° | 18km/h | 33849m | 4.5m/s | -41.0°C | 2.4% | 6.8hPa | 2.6V | 00:00:00 | 02:30:59 | 00:00:00 | |
| DL1NUX | 2026-08-31 00:48:50 | 52.04404 | 8.18144 | 37° | 22km/h | 33830m | 5.6m/s | -41.1°C | 2.4% | 6.9hPa | 2.6V | 08:30:00 | 02:30:55 | 00:00:00 | |
| DL1XH-west | 2026-08-31 00:48:47 | 52.04404 | 8.18144 | 37° | 22km/h | 33830m | 5.6m/s | -41.1°C | 0% | 6.9hPa | 2.6V | 18:12:15 | 02:30:55 | 00:00:00 | |
| BIOWL1-15 | 2026-08-31 00:48:45 | 52.04392 | 8.18136 | 12° | 33km/h | 33819m | 5.3m/s | -41.1°C | 0% | 6.9hPa | 2.5V | 18:12:15 | 02:30:53 | 00:00:00 | |
| DF8AY | 2026-08-31 00:48:44 | 52.04383 | 8.18134 | 7° | 35km/h | 33814m | 4.3m/s | -41.1°C | 0% | 6.9hPa | 2.5V | 18:12:15 | 02:30:52 | 00:00:00 | |
| DO2JMG | 2026-08-31 00:48:41 | 52.04363 | 8.18128 | 29° | 16km/h | 33800m | 5.3m/s | -41.1°C | 0% | 7hPa | 2.6V | 18:12:15 | 02:30:49 | 00:00:00 | |
| DD8BA-10 | 2026-08-31 00:48:41 | 52.04363 | 8.18128 | 30° | 27km/h | 33800m | 5.2m/s | -41.0°C | 2.4% | 6.9hPa | 2.5V | 00:00:00 | 00:00:00 | 00:00:00 | |
| DL1XH-15 | 2026-08-31 00:48:40 | 52.04360 | 8.18085 | 79° | 31km/h | 33775m | 5m/s | -41°C | 2.3% | 7hPa | 2.5V | 08:30:00 | 02:30:44 | 00:00:00 | |
| DO2SHX-10 | 2026-08-31 00:48:40 | 52.04360 | 8.18123 | 66° | 20km/h | 33795m | 5.4m/s | -41.0°C | 2.4% | 6.9hPa | 2.5V | 00:00:00 | 02:30:48 | 00:00:00 | |
| DK9SH | 2026-08-31 00:48:39 | 52.04360 | 8.18123 | 67° | 15km/h | 33795m | 5.4m/s | -41.1°C | 0.5% | 6.9hPa | 2.5V | 00:00:00 | 00:00:00 | 00:00:00 | |
| DL1NUX | 2026-08-31 00:48:38 | 52.04361 | 8.18097 | 91° | 29km/h | 33780m | 4.6m/s | -41.1°C | 2.4% | 7hPa | 2.5V | 08:30:00 | 02:30:45 | 00:00:00 | |
| DL1XH-west | 2026-08-31 00:48:36 | 52.04360 | 8.18085 | 80° | 31km/h | 33775m | 5m/s | -41.1°C | 0% | 7hPa | 2.5V | 18:12:15 | 02:30:44 | 00:00:00 | |
| BIOWL1-15 | 2026-08-31 00:48:34 | 52.04323 | 8.18047 | 351° | 29km/h | 33743m | 5.8m/s | -41.1°C | 0% | 7hPa | 2.6V | 18:12:15 | 02:30:38 | 00:00:00 | |
| DF8AY | 2026-08-31 00:48:34 | 52.04353 | 8.18062 | 47° | 33km/h | 33765m | 5.2m/s | -41°C | 0% | 7hPa | 2.6V | 18:12:15 | 02:30:42 | 00:00:00 | |
| HSKMA3-T | 2026-08-31 00:48:33 | 52.04347 | 8.18054 | 31° | 35km/h | 33759m | 5.2m/s | -41°C | 0% | 7hPa | 2.5V | 18:12:15 | 02:30:41 | 00:00:00 | |
| DO2JMG | 2026-08-31 00:48:31 | 52.04331 | 8.18046 | 3° | 33km/h | 33748m | 5.9m/s | -41°C | 0% | 7hPa | 2.5V | 18:12:15 | 02:30:39 | 00:00:00 | |
| DO9LL-15 | 2026-08-31 00:48:31 | 52.04331 | 8.18046 | 3° | 26km/h | 33749m | 5.8m/s | -41.0°C | 2.3% | 7.0hPa | 2.5V | 00:00:00 | 02:30:39 | 00:00:00 | |
| DL1XH-15 | 2026-08-31 00:48:30 | 52.04303 | 8.18054 | 18° | 15km/h | 33724m | 4.8m/s | -41.2°C | 2.3% | 7hPa | 2.5V | 08:30:00 | 02:30:34 | 00:00:00 | |
| DL1XH1-15 | 2026-08-31 00:48:30 | 52.04311 | 8.18052 | 339° | 20km/h | 33733m | 4.1m/s | -41.1°C | 2.3% | 7hPa | 2.5V | 08:30:00 | 02:30:36 | 00:00:00 | |
| AA1-15 | 2026-08-31 00:48:26 | 52.04303 | 8.18054 | 18° | 15km/h | 33724m | 4.8m/s | -41.2°C | 0% | 7hPa | 2.5V | 18:12:15 | 02:30:34 | 00:00:00 | |
| DM0DOS-11 | 2026-08-31 00:48:26 | 52.04280 | 8.17995 | 64° | 33km/h | 33692m | 4.6m/s | -41.4°C | 2.4% | 7.1hPa | 2.5V | 08:30:00 | 02:30:28 | 00:00:00 | |
| DL1XH-west | 2026-08-31 00:48:25 | 52.04299 | 8.18050 | 42° | 18km/h | 33719m | 5.8m/s | -41.2°C | 0% | 7hPa | 2.6V | 18:12:15 | 02:30:33 | 00:00:00 | |
| DO2SHX-10 | 2026-08-31 00:48:25 | 52.04299 | 8.18050 | 43° | 26km/h | 33719m | 5.8m/s | -41.1°C | 2.3% | 7.0hPa | 2.6V | 00:00:00 | 02:30:33 | 00:00:00 | |
| DF8AY-15 | 2026-08-31 00:48:24 | 52.04296 | 8.18043 | 56° | 26km/h | 33713m | 6.1m/s | -41.2°C | 2.4% | 7.0hPa | 2.6V | 00:00:00 | 02:30:32 | 08:30:00 | |
| DL1XH1-15 | 2026-08-31 00:48:23 | 52.04274 | 8.17976 | 51° | 22km/h | 33683m | 5.1m/s | -41.4°C | 2.4% | 7.1hPa | 2.6V | 08:30:00 | 02:30:26 | 00:00:00 | |
| HSKMA3-T | 2026-08-31 00:48:23 | 52.04292 | 8.18033 | 61° | 31km/h | 33707m | 5.6m/s | -41.3°C | 0% | 7hPa | 2.5V | 18:12:15 | 02:30:31 | 00:00:00 | |
| DO2JMG | 2026-08-31 00:48:20 | 52.04280 | 8.17995 | 64° | 33km/h | 33692m | 4.6m/s | -41.4°C | 0% | 7.1hPa | 2.5V | 18:12:15 | 02:30:28 | 00:00:00 | |
| DL1XH-15 | 2026-08-31 00:48:19 | 52.04266 | 8.17969 | 5° | 20km/h | 33673m | 4.6m/s | -41.5°C | 2.4% | 7.1hPa | 2.5V | 08:30:00 | 02:30:24 | 00:00:00 | |
| AA1-15 | 2026-08-31 00:48:16 | 52.04260 | 8.17969 | 355° | 26km/h | 33668m | 5m/s | -41.5°C | 0% | 7.1hPa | 2.5V | 18:12:15 | 02:30:23 | 00:00:00 | |
| DL1XH-west | 2026-08-31 00:48:14 | 52.04253 | 8.17970 | 354° | 31km/h | 33663m | 5.7m/s | -41.5°C | 0% | 7.1hPa | 2.5V | 18:12:15 | 02:30:22 | 00:00:00 | |
| DM0DOS-11 | 2026-08-31 00:48:13 | 52.04215 | 8.17963 | 24° | 37km/h | 33643m | 3.9m/s | -41.6°C | 2.4% | 7.1hPa | 2.5V | 08:30:00 | 02:30:18 | 00:00:00 | |
| HSKMA3-T | 2026-08-31 00:48:12 | 52.04235 | 8.17971 | 5° | 40km/h | 33651m | 5m/s | -41.5°C | 0% | 7.1hPa | 2.6V | 18:12:15 | 02:30:20 | 00:00:00 | |
| DJ8HS-15 | 2026-08-31 00:48:12 | 52.04234 | 8.17971 | 5° | 29km/h | 33652m | 5.0m/s | -41.5°C | 2.4% | 7.1hPa | 2.5V | 00:00:00 | 02:30:20 | 00:00:00 | |
| SMARD9-15 | 2026-08-31 00:48:11 | 52.04215 | 8.17963 | 24° | 37km/h | 33643m | 3.9m/s | -41.6°C | 0.5% | 7.1hPa | 2.5V | 00:00:00 | 00:00:00 | 00:00:00 | |
| DL1XH-15 | 2026-08-31 00:48:10 | 52.04199 | 8.17930 | 90° | 18km/h | 33621m | 5.5m/s | -41.6°C | 2.4% | 7.1hPa | 2.5V | 08:30:00 | 02:30:14 | 00:00:00 | |
| BIOWL1-15 | 2026-08-31 00:48:10 | 52.04215 | 8.17963 | 25° | 37km/h | 33643m | 3.9m/s | -41.6°C | 0% | 7.1hPa | 2.5V | 18:12:15 | 02:30:18 | 00:00:00 | |
| DO2JMG | 2026-08-31 00:48:09 | 52.04208 | 8.17956 | 38° | 33km/h | 33639m | 4.4m/s | -41.6°C | 0% | 7.1hPa | 2.5V | 18:12:15 | 02:30:17 | 00:00:00 | |
| DL1XH-west | 2026-08-31 00:48:04 | 52.04199 | 8.17920 | 65° | 7km/h | 33613m | 3.4m/s | -41.6°C | 0% | 7.2hPa | 2.5V | 18:12:15 | 02:30:12 | 00:00:00 | |
| DL1XH1-15 | 2026-08-31 00:48:03 | 52.04147 | 8.17919 | 3° | 55km/h | 33582m | 2.9m/s | -41.7°C | 2.5% | 7.2hPa | 2.6V | 08:30:00 | 02:30:06 | 00:00:00 | |
| HSKMA3-T | 2026-08-31 00:48:02 | 52.04192 | 8.17918 | 359° | 24km/h | 33605m | 5.7m/s | -41.7°C | 0% | 7.2hPa | 2.6V | 18:12:15 | 02:30:10 | 00:00:00 | |
| DO2JMG | 2026-08-31 00:47:59 | 52.04161 | 8.17920 | 1° | 55km/h | 33586m | 4.6m/s | -41.8°C | 0% | 7.2hPa | 2.5V | 18:12:15 | 02:30:07 | 00:00:00 | |
| AA1-15 | 2026-08-31 00:47:54 | 52.04112 | 8.17909 | 38° | 13km/h | 33564m | 6.7m/s | -41.7°C | 0% | 7.2hPa | 2.5V | 18:12:15 | 02:30:02 | 00:00:00 | |
| DL1XH-west | 2026-08-31 00:47:53 | 52.04111 | 8.17906 | 101° | 7km/h | 33557m | 6.1m/s | -41.7°C | 0% | 7.2hPa | 2.5V | 18:12:15 | 02:30:01 | 00:00:00 | |
| DM0DOS-11 | 2026-08-31 00:47:53 | 52.04113 | 8.17896 | 64° | 9km/h | 33544m | 3.9m/s | -41.7°C | 2.5% | 7.2hPa | 2.6V | 08:30:00 | 02:29:58 | 00:00:00 | |
| HSKMA3-T | 2026-08-31 00:47:52 | 52.04112 | 8.17903 | 127° | 9km/h | 33552m | 4.8m/s | -41.7°C | 0% | 7.2hPa | 2.6V | 18:12:15 | 02:30:00 | 00:00:00 | |
| DJ8HS-15 | 2026-08-31 00:47:52 | 52.04112 | 8.17903 | 127° | 26km/h | 33552m | 4.7m/s | -41.7°C | 2.5% | 7.2hPa | 2.6V | 00:00:00 | 02:30:00 | 00:00:00 | |
| DD8BA-10 | 2026-08-31 00:47:51 | 52.04113 | 8.17899 | 119° | 33km/h | 33548m | 3.7m/s | -41.7°C | 2.4% | 7.2hPa | 2.5V | 00:00:00 | 00:00:00 | 00:00:00 | |
| DL1XH1-15 | 2026-08-31 00:47:50 | 52.04106 | 8.17890 | 13° | 27km/h | 33534m | 5.7m/s | -41.8°C | 2.4% | 7.2hPa | 2.5V | 08:30:00 | 02:29:56 | 00:00:00 | |
| DO2JMG | 2026-08-31 00:47:49 | 52.04111 | 8.17893 | 28° | 16km/h | 33540m | 4.7m/s | -41.8°C | 0% | 7.2hPa | 2.5V | 18:12:15 | 02:29:57 | 00:00:00 | |
| DL1NUX | 2026-08-31 00:47:48 | 52.04097 | 8.17888 | 6° | 38km/h | 33528m | 6.1m/s | -41.8°C | 2.4% | 7.2hPa | 2.5V | 08:30:00 | 02:29:55 | 00:00:00 | |
| BIOWL1-15 | 2026-08-31 00:47:47 | 52.04074 | 8.17887 | 355° | 49km/h | 33516m | 5.7m/s | -41.9°C | 0% | 7.3hPa | 2.6V | 18:12:15 | 02:29:53 | 00:00:00 | |
| EDDB2-11 | 2026-08-31 00:47:46 | 52.04074 | 8.17887 | 355° | 49km/h | 33517m | 5.7m/s | -41.9°C | 0.5% | 7.3hPa | 2.5V | 00:00:00 | 00:00:00 | 00:00:00 | |
| DM0DOS-11 | 2026-08-31 00:47:45 | 52.04028 | 8.17916 | 312° | 9km/h | 33486m | 4.9m/s | -41.9°C | 2.5% | 7.3hPa | 2.5V | 08:30:00 | 02:29:47 | 00:00:00 | |
| DB0ND-19 | 2026-08-31 00:47:45 | 52.04062 | 8.17890 | 349° | 47km/h | 33511m | 5.2m/s | -41.9°C | 0.5% | 7.3hPa | 2.5V | 00:00:00 | 00:00:00 | 00:00:00 | |
| DJ2DS-15 | 2026-08-31 00:47:44 | 52.04051 | 8.17894 | 343° | 44km/h | 33506m | 5.0m/s | -41.9°C | 0.5% | 7.3hPa | 2.5V | 00:00:00 | 00:00:00 | 00:00:00 | |
| DL1XH1-15 | 2026-08-31 00:47:43 | 52.04026 | 8.17917 | 3° | 4km/h | 33480m | 5m/s | -41.9°C | 2.5% | 7.3hPa | 2.5V | 08:30:00 | 02:29:46 | 00:00:00 | |
| DL1XH-west | 2026-08-31 00:47:42 | 52.04041 | 8.17900 | 335° | 37km/h | 33501m | 5m/s | -41.9°C | 0% | 7.3hPa | 2.5V | 18:12:15 | 02:29:50 | 00:00:00 | |
| HSKMA3-T | 2026-08-31 00:47:41 | 52.04034 | 8.17906 | 326° | 27km/h | 33496m | 5.1m/s | -41.9°C | 0% | 7.3hPa | 2.6V | 18:12:15 | 02:29:49 | 00:00:00 | |
| DD8BA-10 | 2026-08-31 00:47:41 | 52.04034 | 8.17906 | 327° | 20km/h | 33496m | 5.1m/s | -41.8°C | 2.5% | 7.2hPa | 2.5V | 00:00:00 | 00:00:00 | 00:00:00 | |
| DO2SHX-10 | 2026-08-31 00:47:40 | 52.04030 | 8.17912 | 317° | 11km/h | 33491m | 5.2m/s | -41.8°C | 2.5% | 7.2hPa | 2.5V | 00:00:00 | 02:29:48 | 00:00:00 | |
| DD1CC1-15 | 2026-08-31 00:47:39 | 52.04030 | 8.17912 | 317° | 18km/h | 33491m | 5.2m/s | -41.9°C | 0.5% | 7.3hPa | 2.5V | 00:00:00 | 00:00:00 | 00:00:00 | |
| DL1NUX | 2026-08-31 00:47:38 | 52.04025 | 8.17915 | 56° | 9km/h | 33475m | 5.3m/s | -41.8°C | 2.5% | 7.3hPa | 2.5V | 08:30:00 | 02:29:45 | 00:00:00 | |
| DO2JMG | 2026-08-31 00:47:38 | 52.04026 | 8.17917 | 3° | 4km/h | 33480m | 5m/s | -41.9°C | 0% | 7.3hPa | 2.5V | 18:12:15 | 02:29:46 | 00:00:00 | |
| BIOWL1-15 | 2026-08-31 00:47:37 | 52.04023 | 8.17911 | 52° | 16km/h | 33470m | 5.2m/s | -41.8°C | 0% | 7.3hPa | 2.6V | 18:12:15 | 02:29:44 | 00:00:00 | |
| DO2SHX-10 | 2026-08-31 00:47:37 | 52.04025 | 8.17915 | 57° | 16km/h | 33476m | 5.3m/s | -41.8°C | 2.5% | 7.2hPa | 2.5V | 00:00:00 | 02:29:45 | 00:00:00 | |
| DF7PN | 2026-08-31 00:47:36 | 52.04019 | 8.17905 | 41° | 24km/h | 33465m | 4.9m/s | -41.8°C | 0.5% | 7.3hPa | 2.5V | 00:00:00 | 00:00:00 | 00:00:00 | |
| DL3AQ-11 | 2026-08-31 00:47:35 | 52.04014 | 8.17899 | 30° | 29km/h | 33461m | 4.5m/s | -41.8°C | 0.5% | 7.3hPa | 2.5V | 00:00:00 | 00:00:00 | 00:00:00 | |
| DO2SHX-10 | 2026-08-31 00:47:34 | 52.04014 | 8.17899 | 31° | 33km/h | 33461m | 4.4m/s | -41.8°C | 2.5% | 7.3hPa | 2.5V | 00:00:00 | 02:29:42 | 00:00:00 | |
| DM0DOS-11 | 2026-08-31 00:47:33 | 52.03975 | 8.17900 | 320° | 26km/h | 33437m | 5.5m/s | -41.7°C | 2.5% | 7.4hPa | 2.5V | 08:30:00 | 02:29:37 | 00:00:00 | |
| HSKMA3-T | 2026-08-31 00:47:31 | 52.03989 | 8.17891 | 352° | 35km/h | 33448m | 4.6m/s | -41.8°C | 0% | 7.3hPa | 2.6V | 18:12:15 | 02:29:39 | 00:00:00 | |
| DO9LL-15 | 2026-08-31 00:47:31 | 52.03989 | 8.17890 | 353° | 20km/h | 33448m | 4.5m/s | -41.7°C | 2.5% | 7.3hPa | 2.5V | 00:00:00 | 02:29:39 | 00:00:00 | |
| DL1XH1-15 | 2026-08-31 00:47:30 | 52.03972 | 8.17906 | 300° | 20km/h | 33432m | 5.1m/s | -41.7°C | 2.5% | 7.3hPa | 2.5V | 08:30:00 | 02:29:36 | 00:00:00 | |
| DO3DL | 2026-08-31 00:47:29 | 52.03981 | 8.17894 | 338° | 31km/h | 33443m | 5.2m/s | -41.8°C | 0.5% | 7.3hPa | 2.5V | 00:00:00 | 00:00:00 | 00:00:00 | |
| DL1NUX | 2026-08-31 00:47:28 | 52.03970 | 8.17912 | 279° | 13km/h | 33427m | 4.6m/s | -41.6°C | 2.5% | 7.4hPa | 2.5V | 08:30:00 | 02:29:35 | 00:00:00 | |
| DO2JMG | 2026-08-31 00:47:27 | 52.03970 | 8.17912 | 279° | 13km/h | 33427m | 4.6m/s | -41.6°C | 0% | 7.4hPa | 2.5V | 18:12:15 | 02:29:35 | 00:00:00 | |
| BIOWL1-15 | 2026-08-31 00:47:26 | 52.03970 | 8.17916 | 252° | 5km/h | 33423m | 4.4m/s | -41.6°C | 0% | 7.3hPa | 2.6V | 18:12:15 | 02:29:34 | 00:00:00 | |
| GOEST3-10 | 2026-08-31 00:47:26 | 52.03970 | 8.17916 | 253° | 16km/h | 33423m | 4.3m/s | -41.6°C | 2.5% | 7.3hPa | 2.6V | 00:00:00 | 00:00:00 | 00:00:00 | |
| HTAHTA | 2026-08-31 00:47:25 | 52.03970 | 8.17912 | 70° | 13km/h | 33414m | 4.8m/s | -41.6°C | 0.5% | 7.4hPa | 2.5V | 00:00:00 | 00:00:00 | 00:00:00 | |
| DJ2KF-10 | 2026-08-31 00:47:24 | 52.03970 | 8.17912 | 71° | 24km/h | 33414m | 4.8m/s | -41.5°C | 2.5% | 7.3hPa | 2.5V | 00:00:00 | 02:29:32 | 00:00:00 | |
| DM0DOS-11 | 2026-08-31 00:47:23 | 52.03940 | 8.17876 | 10° | 37km/h | 33389m | 4.6m/s | -41.5°C | 2.4% | 7.4hPa | 2.6V | 08:30:00 | 02:29:27 | 00:00:00 | |
| DL1XH1-15 | 2026-08-31 00:47:23 | 52.03931 | 8.17875 | 357° | 31km/h | 33384m | 4.7m/s | -41.5°C | 2.4% | 7.4hPa | 2.6V | 08:30:00 | 02:29:26 | 00:00:00 | |
| DL1XH-west | 2026-08-31 00:47:21 | 52.03957 | 8.17888 | 34° | 37km/h | 33398m | 4.9m/s | -41.5°C | 0% | 7.4hPa | 2.5V | 18:12:15 | 02:29:29 | 00:00:00 | |
| HSKMA3-T | 2026-08-31 00:47:20 | 52.03949 | 8.17880 | 22° | 38km/h | 33394m | 4.6m/s | -41.5°C | 0% | 7.4hPa | 2.6V | 18:12:15 | 02:29:28 | 00:00:00 | |
| DO2JMG | 2026-08-31 00:47:17 | 52.03924 | 8.17877 | 343° | 24km/h | 33380m | 5.1m/s | -41.4°C | 0% | 7.4hPa | 2.5V | 18:12:15 | 02:29:25 | 00:00:00 | |
| BIOWL1-15 | 2026-08-31 00:47:16 | 52.03920 | 8.17880 | 324° | 16km/h | 33374m | 5.4m/s | -41.4°C | 0% | 7.4hPa | 2.5V | 18:12:15 | 02:29:24 | 00:00:00 | |
| DL1XH-west | 2026-08-31 00:47:12 | 52.03916 | 8.17884 | 60° | 15km/h | 33350m | 4.8m/s | -41.3°C | 0% | 7.5hPa | 2.5V | 18:12:15 | 02:29:19 | 00:00:00 | |
| GOEST3-10 | 2026-08-31 00:47:12 | 52.03916 | 8.17884 | 60° | 26km/h | 33350m | 4.7m/s | -41.2°C | 2.4% | 7.4hPa | 2.5V | 00:00:00 | 02:29:19 | 00:00:00 | |
| DL1NUX | 2026-08-31 00:47:10 | 52.03895 | 8.17859 | 21° | 33km/h | 33330m | 4.7m/s | -41.3°C | 2.4% | 7.5hPa | 2.5V | 08:30:00 | 02:29:15 | 00:00:00 | |
| BIOWL1-15 | 2026-08-31 00:47:10 | 52.03871 | 8.17849 | 21° | 7km/h | 33305m | 5m/s | -41.3°C | 0% | 7.5hPa | 2.5V | 18:12:15 | 02:29:10 | 00:00:00 | |
| DF8AY | 2026-08-31 00:47:09 | 52.03908 | 8.17871 | 37° | 27km/h | 33340m | 5.1m/s | -41.3°C | 0% | 7.5hPa | 2.6V | 18:12:15 | 02:29:17 | 00:00:00 | |
| DO2JMG | 2026-08-31 00:47:06 | 52.03888 | 8.17855 | 16° | 29km/h | 33325m | 4.6m/s | -41.3°C | 0% | 7.5hPa | 2.5V | 18:12:15 | 02:29:14 | 00:00:00 | |
| DL1XH-west | 2026-08-31 00:47:01 | 52.03869 | 8.17848 | 35° | 5km/h | 33300m | 4.6m/s | -41.3°C | 0% | 7.5hPa | 2.5V | 18:12:15 | 02:29:09 | 00:00:00 | |
| HSKMA3-T | 2026-08-31 00:46:59 | 52.03865 | 8.17844 | 27° | 13km/h | 33291m | 4.8m/s | -41.3°C | 0% | 7.5hPa | 2.6V | 18:12:15 | 02:29:07 | 00:00:00 | |
| DF8AY | 2026-08-31 00:46:59 | 52.03841 | 8.17832 | 18° | 20km/h | 33267m | 4.7m/s | -41.4°C | 0% | 7.5hPa | 2.6V | 18:12:15 | 02:29:02 | 00:00:00 | |
| DL1XH-15 | 2026-08-31 00:46:58 | 52.03852 | 8.17837 | 13° | 24km/h | 33276m | 4.3m/s | -41.4°C | 2.4% | 7.5hPa | 2.5V | 08:30:00 | 02:29:04 | 00:00:00 | |
| DL1NUX | 2026-08-31 00:46:58 | 52.03857 | 8.17840 | 15° | 22km/h | 33280m | 5m/s | -41.4°C | 2.4% | 7.5hPa | 2.5V | 08:30:00 | 02:29:05 | 00:00:00 | |
| DO2JMG | 2026-08-31 00:46:55 | 52.03846 | 8.17835 | 15° | 24km/h | 33271m | 4.2m/s | -41.4°C | 0% | 7.5hPa | 2.5V | 18:12:15 | 02:29:03 | 00:00:00 | |
| BIOWL1-15 | 2026-08-31 00:46:53 | 52.03836 | 8.17830 | 26° | 16km/h | 33262m | 5.6m/s | -41.4°C | 0% | 7.5hPa | 2.6V | 18:12:15 | 02:29:01 | 00:00:00 | |
| DL1XH-west | 2026-08-31 00:46:51 | 52.03832 | 8.17822 | 79° | 11km/h | 33251m | 4.9m/s | -41.4°C | 0% | 7.6hPa | 2.5V | 18:12:15 | 02:28:59 | 00:00:00 | |
| DO3DL | 2026-08-31 00:46:51 | 52.03832 | 8.17822 | 80° | 11km/h | 33252m | 4.9m/s | -41.4°C | 0.5% | 7.6hPa | 2.6V | 00:00:00 | 00:00:00 | 00:00:00 | |
| DL1XH-15 | 2026-08-31 00:46:50 | 52.03825 | 8.17790 | 48° | 26km/h | 33227m | 5.8m/s | -41.5°C | 2.5% | 7.6hPa | 2.6V | 08:30:00 | 02:28:54 | 00:00:00 | |
| HSKMA3-T | 2026-08-31 00:46:49 | 52.03832 | 8.17811 | 87° | 16km/h | 33242m | 3.9m/s | -41.4°C | 0% | 7.6hPa | 2.5V | 18:12:15 | 02:28:57 | 00:00:00 | |
| DL8DAS-14 | 2026-08-31 00:46:49 | 52.03831 | 8.17805 | 73° | 16km/h | 33238m | 4.7m/s | -41.4°C | 0.5% | 7.6hPa | 2.6V | 00:00:00 | 00:00:00 | 00:00:00 | |
| DL1NUX | 2026-08-31 00:46:48 | 52.03829 | 8.17797 | 59° | 22km/h | 33233m | 5.7m/s | -41.5°C | 2.4% | 7.6hPa | 2.6V | 08:30:00 | 02:28:55 | 00:00:00 | |
| DF8AY | 2026-08-31 00:46:46 | 52.03826 | 8.17790 | 48° | 26km/h | 33227m | 5.8m/s | -41.5°C | 0% | 7.6hPa | 2.6V | 18:12:15 | 02:28:54 | 00:00:00 | |
| DO2JMG | 2026-08-31 00:46:44 | 52.03815 | 8.17773 | 41° | 29km/h | 33217m | 4.4m/s | -41.5°C | 0% | 7.6hPa | 2.5V | 18:12:15 | 02:28:52 | 00:00:00 | |
| DM0DOS-11 | 2026-08-31 00:46:43 | 52.03801 | 8.17742 | 81° | 11km/h | 33192m | 4.5m/s | -41.5°C | 2.5% | 7.6hPa | 2.5V | 08:30:00 | 02:28:47 | 00:00:00 | |
| BIOWL1-15 | 2026-08-31 00:46:43 | 52.03810 | 8.17766 | 44° | 27km/h | 33213m | 4.6m/s | -41.5°C | 0% | 7.6hPa | 2.5V | 18:12:15 | 02:28:51 | 00:00:00 | |
| DL1XH-west | 2026-08-31 00:46:40 | 52.03801 | 8.17747 | 75° | 13km/h | 33197m | 5m/s | -41.5°C | 0% | 7.6hPa | 2.5V | 18:12:15 | 02:28:48 | 00:00:00 | |
| AA1-15 | 2026-08-31 00:46:38 | 52.03800 | 8.17738 | 72° | 9km/h | 33188m | 4.4m/s | -41.5°C | 0% | 7.6hPa | 2.5V | 18:12:15 | 02:28:46 | 00:00:00 | |
| DL1XH-15 | 2026-08-31 00:46:38 | 52.03796 | 8.17731 | 34° | 15km/h | 33177m | 5.5m/s | -41.5°C | 2.5% | 7.7hPa | 2.6V | 08:30:00 | 02:28:44 | 00:00:00 | |
| DL1NUX | 2026-08-31 00:46:38 | 52.03799 | 8.17735 | 50° | 11km/h | 33182m | 5.4m/s | -41.5°C | 2.4% | 7.7hPa | 2.6V | 08:30:00 | 02:28:45 | 00:00:00 | |
| DF8AY | 2026-08-31 00:46:35 | 52.03793 | 8.17728 | 30° | 18km/h | 33172m | 5m/s | -41.5°C | 0% | 7.7hPa | 2.5V | 18:12:15 | 02:28:43 | 00:00:00 | |
| DO2JMG | 2026-08-31 00:46:34 | 52.03789 | 8.17724 | 30° | 22km/h | 33167m | 4.6m/s | -41.4°C | 0% | 7.7hPa | 2.5V | 18:12:15 | 02:28:42 | 00:00:00 | |
| BIOWL1-15 | 2026-08-31 00:46:33 | 52.03784 | 8.17719 | 36° | 22km/h | 33162m | 4.8m/s | -41.4°C | 0% | 7.7hPa | 2.5V | 18:12:15 | 02:28:41 | 00:00:00 | |
| DJ2DS-15 | 2026-08-31 00:46:33 | 52.03784 | 8.17719 | 37° | 20km/h | 33163m | 4.8m/s | -41.4°C | 2.4% | 7.6hPa | 2.5V | 00:00:00 | 02:28:41 | 08:30:00 | |
| DJ8HS-15 | 2026-08-31 00:46:32 | 52.03780 | 8.17713 | 44° | 20km/h | 33157m | 5.5m/s | -41.4°C | 2.5% | 7.6hPa | 2.6V | 00:00:00 | 02:28:40 | 00:00:00 | |
| DL1XH-15 | 2026-08-31 00:46:31 | 52.03760 | 8.17674 | 31° | 20km/h | 33127m | 5.4m/s | -41.3°C | 2.4% | 7.7hPa | 2.6V | 08:30:00 | 02:28:34 | 00:00:00 | |
| DL1NUX | 2026-08-31 00:46:30 | 52.03764 | 8.17679 | 42° | 20km/h | 33132m | 5.7m/s | -41.3°C | 2.4% | 7.7hPa | 2.6V | 08:30:00 | 02:28:35 | 00:00:00 | |
| DL1XH-west | 2026-08-31 00:46:30 | 52.03773 | 8.17699 | 59° | 22km/h | 33146m | 4.6m/s | -41.4°C | 0% | 7.7hPa | 2.5V | 18:12:15 | 02:28:38 | 00:00:00 | |
| HSKMA3-T | 2026-08-31 00:46:28 | 52.03767 | 8.17685 | 52° | 20km/h | 33138m | 4.6m/s | -41.3°C | 0% | 7.7hPa | 2.5V | 18:12:15 | 02:28:36 | 00:00:00 | |
| AA1-15 | 2026-08-31 00:46:28 | 52.03764 | 8.17679 | 43° | 20km/h | 33132m | 5.7m/s | -41.3°C | 0% | 7.7hPa | 2.6V | 18:12:15 | 02:28:35 | 00:00:00 | |
| DF8AY | 2026-08-31 00:46:25 | 52.03755 | 8.17670 | 23° | 20km/h | 33122m | 5m/s | -41.4°C | 0% | 7.7hPa | 2.5V | 18:12:15 | 02:28:33 | 00:00:00 | |
| DO2SHX-10 | 2026-08-31 00:46:25 | 52.03755 | 8.17670 | 24° | 16km/h | 33122m | 4.9m/s | -41.3°C | 2.5% | 7.7hPa | 2.5V | 00:00:00 | 02:28:33 | 00:00:00 | |
| DL1XH1-15 | 2026-08-31 00:46:24 | 52.03733 | 8.17650 | 40° | 24km/h | 33087m | 5.9m/s | -41.3°C | 2.4% | 7.8hPa | 2.5V | 08:30:00 | 02:28:26 | 00:00:00 | |
| DM0DOS-11 | 2026-08-31 00:46:24 | 52.03736 | 8.17656 | 42° | 18km/h | 33092m | 4.9m/s | -41.3°C | 2.4% | 7.7hPa | 2.5V | 08:30:00 | 02:28:27 | 00:00:00 | |
| DO2JMG | 2026-08-31 00:46:23 | 52.03747 | 8.17666 | 14° | 15km/h | 33112m | 5.3m/s | -41.3°C | 0% | 7.7hPa | 2.5V | 18:12:15 | 02:28:31 | 00:00:00 | |
| DL1XH-west | 2026-08-31 00:46:19 | 52.03736 | 8.17656 | 43° | 18km/h | 33092m | 4.9m/s | -41.3°C | 0% | 7.7hPa | 2.5V | 18:12:15 | 02:28:27 | 00:00:00 | |
| DL1XH-15 | 2026-08-31 00:46:19 | 52.03722 | 8.17635 | 40° | 33km/h | 33076m | 4.5m/s | -41.3°C | 2.4% | 7.8hPa | 2.6V | 08:30:00 | 02:28:24 | 00:00:00 | |
| HSKMA3-T | 2026-08-31 00:46:18 | 52.03733 | 8.17650 | 41° | 24km/h | 33087m | 5.9m/s | -41.3°C | 0% | 7.8hPa | 2.5V | 18:12:15 | 02:28:26 | 00:00:00 | |
| AA1-15 | 2026-08-31 00:46:17 | 52.03728 | 8.17643 | 41° | 29km/h | 33081m | 5.5m/s | -41.3°C | 0% | 7.8hPa | 2.6V | 18:12:15 | 02:28:25 | 00:00:00 | |
| DF8AY | 2026-08-31 00:46:14 | 52.03710 | 8.17618 | 43° | 27km/h | 33068m | 4.2m/s | -41.3°C | 0% | 7.8hPa | 2.5V | 18:12:15 | 02:28:22 | 00:00:00 | |
| DM0DOS-11 | 2026-08-31 00:46:14 | 52.03697 | 8.17601 | 353° | 9km/h | 33044m | 4.2m/s | -41.3°C | 2.4% | 7.8hPa | 2.5V | 08:30:00 | 02:28:17 | 00:00:00 | |
| DJ2DS-15 | 2026-08-31 00:46:13 | 52.03706 | 8.17611 | 45° | 20km/h | 33063m | 5.1m/s | -41.2°C | 2.4% | 7.7hPa | 2.6V | 00:00:00 | 02:28:21 | 00:00:00 | |
| BIOWL1-15 | 2026-08-31 00:46:13 | 52.03706 | 8.17611 | 45° | 22km/h | 33063m | 5.2m/s | -41.3°C | 0% | 7.8hPa | 2.5V | 18:12:15 | 02:28:21 | 00:00:00 | |
| DB0ND-19 | 2026-08-31 00:46:12 | 52.03700 | 8.17602 | 41° | 7km/h | 33053m | 4.9m/s | -41.3°C | 0.5% | 7.8hPa | 2.6V | 00:00:00 | 00:00:00 | 00:00:00 | |
| GOEST3-10 | 2026-08-31 00:46:11 | 52.03700 | 8.17602 | 42° | 16km/h | 33053m | 4.9m/s | -41.2°C | 2.4% | 7.7hPa | 2.6V | 00:00:00 | 02:28:19 | 08:30:00 | |
| DL1XH1-15 | 2026-08-31 00:46:10 | 52.03694 | 8.17601 | 354° | 15km/h | 33039m | 5.3m/s | -41.3°C | 2.4% | 7.8hPa | 2.5V | 08:30:00 | 02:28:16 | 00:00:00 | |
| DL1XH-west | 2026-08-31 00:46:08 | 52.03694 | 8.17601 | 354° | 15km/h | 33039m | 5.3m/s | -41.3°C | 0% | 7.8hPa | 2.5V | 18:12:15 | 02:28:16 | 00:00:00 | |
| AA1-15 | 2026-08-31 00:46:07 | 52.03690 | 8.17602 | 0° | 20km/h | 33034m | 5.6m/s | -41.3°C | 0% | 7.8hPa | 2.6V | 18:12:15 | 02:28:15 | 00:00:00 | |
| DO2SHX-10 | 2026-08-31 00:46:07 | 52.03690 | 8.17601 | 1° | 20km/h | 33034m | 5.5m/s | -41.2°C | 2.4% | 7.8hPa | 2.6V | 00:00:00 | 02:28:15 | 08:30:00 | |
| DL4BBY-15 | 2026-08-31 00:46:06 | 52.03684 | 8.17601 | 7° | 22km/h | 33029m | 4.9m/s | -43.6°C | 0% | 0hPa | 2.5V | 00:00:00 | 00:00:00 | 00:00:00 | |
| GOEST3-10 | 2026-08-31 00:46:05 | 52.03677 | 8.17599 | 13° | 26km/h | 33024m | 4.2m/s | -41.2°C | 2.4% | 7.8hPa | 2.5V | 00:00:00 | 00:00:00 | 00:00:00 | |
| DL4XJ-10 | 2026-08-31 00:46:04 | 52.03670 | 8.17595 | 20° | 22km/h | 33020m | 4.1m/s | -43.6°C | 0% | 0hPa | 2.5V | 00:00:00 | 00:00:00 | 00:00:00 | |
| DM0DOS-11 | 2026-08-31 00:46:03 | 52.03651 | 8.17565 | 69° | 18km/h | 32995m | 4.1m/s | -41.2°C | 2.4% | 7.8hPa | 2.5V | 08:30:00 | 02:28:07 | 00:00:00 | |
| DL1XH1-15 | 2026-08-31 00:46:03 | 52.03646 | 8.17551 | 50° | 22km/h | 32986m | 5.2m/s | -41.2°C | 2.4% | 7.9hPa | 2.6V | 08:30:00 | 02:28:05 | 00:00:00 | |
| BIOWL1-15 | 2026-08-31 00:46:02 | 52.03652 | 8.17572 | 66° | 18km/h | 32999m | 4.7m/s | -41.2°C | 0% | 7.8hPa | 2.5V | 18:12:15 | 02:28:08 | 00:00:00 | |
| DO2JMG | 2026-08-31 00:46:02 | 52.03658 | 8.17585 | 40° | 24km/h | 33010m | 5.6m/s | -41.2°C | 0% | 7.8hPa | 2.6V | 18:12:15 | 02:28:10 | 00:00:00 | |
| SO1NDE-10 | 2026-08-31 00:46:02 | 52.03658 | 8.17585 | 40° | 22km/h | 33010m | 5.6m/s | -41.2°C | 2.4% | 7.8hPa | 2.6V | 00:00:00 | 02:28:10 | 00:00:00 | |
| DD8BA-10 | 2026-08-31 00:46:01 | 52.03655 | 8.17579 | 55° | 22km/h | 33005m | 5.2m/s | -41.1°C | 2.4% | 7.8hPa | 2.6V | 00:00:00 | 00:00:00 | 00:00:00 | |
| DO2SHX-10 | 2026-08-31 00:46:00 | 52.03652 | 8.17572 | 67° | 18km/h | 33000m | 4.6m/s | -41.1°C | 2.4% | 7.8hPa | 2.6V | 00:00:00 | 02:28:08 | 00:00:00 | |
| DL1CLM-18 | 2026-08-31 00:45:59 | 52.03652 | 8.17572 | 67° | 18km/h | 33000m | 4.7m/s | -41.2°C | 0.5% | 7.9hPa | 2.6V | 00:00:00 | 00:00:00 | 00:00:00 | |
| DL1NUX | 2026-08-31 00:45:58 | 52.03646 | 8.17551 | 50° | 22km/h | 32986m | 5.2m/s | -41.2°C | 2.4% | 7.9hPa | 2.6V | 08:30:00 | 02:28:05 | 00:00:00 | |
| DL1XH-west | 2026-08-31 00:45:58 | 52.03649 | 8.17558 | 62° | 20km/h | 32991m | 4.3m/s | -41.2°C | 0% | 7.9hPa | 2.5V | 18:12:15 | 02:28:06 | 00:00:00 | |
| HSKMA3-T | 2026-08-31 00:45:56 | 52.03642 | 8.17545 | 36° | 24km/h | 32981m | 4.9m/s | -41.2°C | 0% | 7.9hPa | 2.6V | 18:12:15 | 02:28:04 | 00:00:00 | |
| DB0NH | 2026-08-31 00:45:55 | 52.03636 | 8.17540 | 26° | 18km/h | 32976m | 4.5m/s | -41.2°C | 2.4% | 7.8hPa | 2.5V | 00:00:00 | 02:28:03 | 08:30:00 | |
| DO2SHX-10 | 2026-08-31 00:45:54 | 52.03630 | 8.17535 | 18° | 26km/h | 32972m | 4.2m/s | -41.2°C | 2.4% | 7.8hPa | 2.5V | 00:00:00 | 02:28:02 | 00:00:00 | |
| DM0DOS-11 | 2026-08-31 00:45:53 | 52.03604 | 8.17527 | 21° | 15km/h | 32947m | 4.4m/s | -41.2°C | 2.4% | 7.9hPa | 2.5V | 08:30:00 | 02:27:57 | 00:00:00 | |
| DO2JMG | 2026-08-31 00:45:52 | 52.03617 | 8.17531 | 7° | 24km/h | 32962m | 5.4m/s | -41.2°C | 0% | 7.9hPa | 2.6V | 18:12:15 | 02:28:00 | 00:00:00 | |
| DF8AY | 2026-08-31 00:45:51 | 52.03612 | 8.17530 | 7° | 18km/h | 32957m | 5.3m/s | -41.2°C | 0% | 7.9hPa | 2.6V | 18:12:15 | 02:27:59 | 00:00:00 | |
| EDDB2-12 | 2026-08-31 00:45:51 | 52.03607 | 8.17529 | 10° | 15km/h | 32952m | 4.8m/s | -41.2°C | 0.5% | 7.9hPa | 2.5V | 00:00:00 | 00:00:00 | 00:00:00 | |
| DL1XH1-15 | 2026-08-31 00:45:50 | 52.03600 | 8.17524 | 32° | 18km/h | 32943m | 4.5m/s | -41.2°C | 2.4% | 7.9hPa | 2.5V | 08:30:00 | 02:27:56 | 00:00:00 | |
| BIOWL1-15 | 2026-08-31 00:45:50 | 52.03607 | 8.17529 | 11° | 16km/h | 32952m | 4.8m/s | -41.2°C | 0% | 7.9hPa | 2.5V | 18:12:15 | 02:27:58 | 00:00:00 | |
| GOEST3-10 | 2026-08-31 00:45:50 | 52.03607 | 8.17529 | 11° | 18km/h | 32952m | 4.8m/s | -41.1°C | 2.4% | 7.9hPa | 2.6V | 00:00:00 | 02:27:58 | 00:00:00 | |
| DL1NUX | 2026-08-31 00:45:48 | 52.03596 | 8.17520 | 38° | 22km/h | 32938m | 5.4m/s | -41.2°C | 2.4% | 7.9hPa | 2.6V | 08:30:00 | 02:27:55 | 00:00:00 | |
| DL1XH-west | 2026-08-31 00:45:47 | 52.03596 | 8.17520 | 39° | 22km/h | 32938m | 5.4m/s | -41.2°C | 0% | 7.9hPa | 2.6V | 18:12:15 | 02:27:55 | 00:00:00 | |
| AA1-15 | 2026-08-31 00:45:46 | 52.03592 | 8.17513 | 41° | 26km/h | 32933m | 5.2m/s | -41.2°C | 0% | 8hPa | 2.6V | 18:12:15 | 02:27:54 | 00:00:00 | |
| HSKMA3-T | 2026-08-31 00:45:46 | 52.03587 | 8.17506 | 42° | 29km/h | 32928m | 4.3m/s | -41.2°C | 0% | 7.9hPa | 2.5V | 18:12:15 | 02:27:53 | 00:00:00 | |
| DO2SHX-10 | 2026-08-31 00:45:45 | 52.03586 | 8.17506 | 43° | 27km/h | 32928m | 4.2m/s | -41.2°C | 2.4% | 7.9hPa | 2.5V | 00:00:00 | 02:27:53 | 00:00:00 | |
| DC4HF-4 | 2026-08-31 00:45:44 | 52.03581 | 8.17498 | 43° | 27km/h | 32924m | 3.6m/s | -41.2°C | 0.5% | 7.9hPa | 2.5V | 00:00:00 | 00:00:00 | 00:00:00 | |
| DL1XH1-15 | 2026-08-31 00:45:43 | 52.03562 | 8.17480 | 339° | 13km/h | 32896m | 4.4m/s | -41.3°C | 2.4% | 8hPa | 2.5V | 08:30:00 | 02:27:46 | 00:00:00 | |
| BIOWL1-15 | 2026-08-31 00:45:41 | 52.03564 | 8.17479 | 348° | 9km/h | 32901m | 4.5m/s | -41.3°C | 0% | 8hPa | 2.5V | 18:12:15 | 02:27:47 | 00:00:00 | |
| DO2JMG | 2026-08-31 00:45:41 | 52.03569 | 8.17481 | 36° | 15km/h | 32911m | 5.4m/s | -41.3°C | 0% | 8hPa | 2.6V | 18:12:15 | 02:27:49 | 00:00:00 | |
| DF8AY | 2026-08-31 00:45:40 | 52.03567 | 8.17479 | 16° | 9km/h | 32906m | 5.1m/s | -41.3°C | 0% | 8hPa | 2.5V | 18:12:15 | 02:27:48 | 00:00:00 | |
| SONDE2-11 | 2026-08-31 00:45:40 | 52.03564 | 8.17479 | 347° | 9km/h | 32901m | 4.5m/s | -41.3°C | 0.5% | 8.0hPa | 2.5V | 00:00:00 | 00:00:00 | 00:00:00 | |
| DO2SHX-10 | 2026-08-31 00:45:39 | 52.03564 | 8.17479 | 348° | 15km/h | 32901m | 4.5m/s | -41.2°C | 2.4% | 7.9hPa | 2.5V | 00:00:00 | 02:27:47 | 08:30:00 | |
| DL1XH-15 | 2026-08-31 00:45:38 | 52.03553 | 8.17484 | 350° | 24km/h | 32886m | 5.5m/s | -41.3°C | 2.4% | 8hPa | 2.6V | 08:30:00 | 02:27:44 | 00:00:00 | |
| DL1NUX | 2026-08-31 00:45:38 | 52.03558 | 8.17482 | 344° | 18km/h | 32892m | 5m/s | -41.3°C | 2.4% | 8hPa | 2.6V | 08:30:00 | 02:27:45 | 00:00:00 | |
| DL1XH-west | 2026-08-31 00:45:37 | 52.03553 | 8.17484 | 351° | 24km/h | 32886m | 5.5m/s | -41.3°C | 0% | 8hPa | 2.6V | 18:12:15 | 02:27:44 | 00:00:00 | |
| HSKMA3-T | 2026-08-31 00:45:35 | 52.03546 | 8.17485 | 357° | 29km/h | 32881m | 4.7m/s | -41.2°C | 0% | 8hPa | 2.5V | 18:12:15 | 02:27:43 | 00:00:00 | |
| DO2JMG | 2026-08-31 00:45:31 | 52.03520 | 8.17481 | 17° | 16km/h | 32864m | 5.5m/s | -41.2°C | 0% | 8hPa | 2.6V | 18:12:15 | 02:27:39 | 00:00:00 | |
| DO9LL-15 | 2026-08-31 00:45:31 | 52.03520 | 8.17480 | 17° | 11km/h | 32864m | 5.4m/s | -41.1°C | 2.4% | 8.0hPa | 2.6V | 00:00:00 | 02:27:39 | 00:00:00 | |
| DL1XH-15 | 2026-08-31 00:45:30 | 52.03512 | 8.17474 | 10° | 9km/h | 32840m | 5.2m/s | -41.2°C | 2.4% | 8hPa | 2.6V | 08:30:00 | 02:27:34 | 00:00:00 | |
| DF8AY | 2026-08-31 00:45:29 | 52.03515 | 8.17477 | 42° | 5km/h | 32854m | 4.6m/s | -41.2°C | 0% | 8hPa | 2.5V | 18:12:15 | 02:27:37 | 00:00:00 | |
| BIOWL1-15 | 2026-08-31 00:45:28 | 52.03514 | 8.17476 | 49° | 4km/h | 32849m | 4.3m/s | -41.2°C | 0% | 8.1hPa | 2.5V | 18:12:15 | 02:27:36 | 00:00:00 | |
| DL1NUX | 2026-08-31 00:45:28 | 52.03514 | 8.17475 | 23° | 4km/h | 32845m | 4.6m/s | -41.2°C | 2.4% | 8hPa | 2.6V | 08:30:00 | 02:27:35 | 00:00:00 | |
| DL1XH-west | 2026-08-31 00:45:25 | 52.03509 | 8.17474 | 5° | 15km/h | 32835m | 5.1m/s | -41.3°C | 0% | 8.1hPa | 2.5V | 18:12:15 | 02:27:33 | 00:00:00 | |
| AA1-15 | 2026-08-31 00:45:24 | 52.03504 | 8.17473 | 3° | 20km/h | 32830m | 4.8m/s | -41.3°C | 0% | 8.1hPa | 2.5V | 18:12:15 | 02:27:32 | 00:00:00 | |
| DF8AY | 2026-08-31 00:45:20 | 52.03478 | 8.17474 | 352° | 9km/h | 32802m | 4.4m/s | -41.5°C | 0% | 8.1hPa | 2.5V | 18:12:15 | 02:27:26 | 00:00:00 | |
| DO2JMG | 2026-08-31 00:45:20 | 52.03484 | 8.17473 | 358° | 15km/h | 32812m | 5.3m/s | -41.4°C | 0% | 8.1hPa | 2.5V | 18:12:15 | 02:27:28 | 00:00:00 | |
| EDDB2-12 | 2026-08-31 00:45:20 | 52.03481 | 8.17473 | 354° | 11km/h | 32807m | 4.9m/s | -41.4°C | 0.5% | 8.1hPa | 2.6V | 00:00:00 | 00:00:00 | 00:00:00 | |
| DJ2DS-15 | 2026-08-31 00:45:19 | 52.03481 | 8.17473 | 354° | 11km/h | 32807m | 4.9m/s | -41.4°C | 0.5% | 8.1hPa | 2.6V | 00:00:00 | 00:00:00 | 00:00:00 | |
| DL1XH-15 | 2026-08-31 00:45:18 | 52.03474 | 8.17474 | 5° | 9km/h | 32793m | 4.7m/s | -41.5°C | 2.4% | 8.1hPa | 2.6V | 08:30:00 | 02:27:24 | 00:00:00 | |
| DL1XH-west | 2026-08-31 00:45:15 | 52.03471 | 8.17473 | 11° | 13km/h | 32788m | 5.4m/s | -41.6°C | 0% | 8.1hPa | 2.5V | 18:12:15 | 02:27:23 | 00:00:00 | |
| HSKMA3-T | 2026-08-31 00:45:14 | 52.03467 | 8.17472 | 17° | 16km/h | 32783m | 4.9m/s | -41.6°C | 0% | 8.1hPa | 2.5V | 18:12:15 | 02:27:22 | 00:00:00 | |
| AA1-15 | 2026-08-31 00:45:13 | 52.03463 | 8.17469 | 24° | 18km/h | 32778m | 4.2m/s | -41.6°C | 0% | 8.1hPa | 2.5V | 18:12:15 | 02:27:21 | 00:00:00 | |
| DJ2DS-15 | 2026-08-31 00:45:13 | 52.03463 | 8.17469 | 24° | 11km/h | 32778m | 4.1m/s | -41.5°C | 2.5% | 8.1hPa | 2.5V | 00:00:00 | 02:27:21 | 00:00:00 | |
| DJ8HS-15 | 2026-08-31 00:45:12 | 52.03460 | 8.17466 | 33° | 11km/h | 32775m | 4.0m/s | -41.5°C | 2.5% | 8.0hPa | 2.5V | 00:00:00 | 02:27:20 | 00:00:00 | |
| DD8BA-10 | 2026-08-31 00:45:11 | 52.03457 | 8.17462 | 44° | 9km/h | 32770m | 5.1m/s | -41.6°C | 2.4% | 8.1hPa | 2.5V | 00:00:00 | 00:00:00 | 00:00:00 | |
| DL1XH1-15 | 2026-08-31 00:45:10 | 52.03454 | 8.17450 | 86° | 9km/h | 32754m | 4.2m/s | -41.7°C | 2.5% | 8.1hPa | 2.5V | 08:30:00 | 02:27:16 | 00:00:00 | |
| DO2JMG | 2026-08-31 00:45:10 | 52.03455 | 8.17458 | 63° | 11km/h | 32764m | 5.5m/s | -41.6°C | 0% | 8.1hPa | 2.5V | 18:12:15 | 02:27:18 | 00:00:00 | |
| GOEST3-10 | 2026-08-31 00:45:10 | 52.03455 | 8.17458 | 64° | 9km/h | 32764m | 5.4m/s | -41.6°C | 2.5% | 8.1hPa | 2.5V | 00:00:00 | 02:27:18 | 00:00:00 | |
| DD1CC1-15 | 2026-08-31 00:45:09 | 52.03455 | 8.17458 | 64° | 11km/h | 32764m | 5.5m/s | -41.6°C | 0.6% | 8.1hPa | 2.6V | 00:00:00 | 00:00:00 | 00:00:00 | |
| DL1NUX | 2026-08-31 00:45:08 | 52.03453 | 8.17447 | 72° | 7km/h | 32750m | 4.4m/s | -41.7°C | 2.5% | 8.1hPa | 2.6V | 08:30:00 | 02:27:15 | 00:00:00 | |
| DL1XH-west | 2026-08-31 00:45:05 | 52.03448 | 8.17443 | 0° | 11km/h | 32735m | 4.4m/s | -41.7°C | 0% | 8.2hPa | 2.5V | 18:12:15 | 02:27:12 | 00:00:00 | |
| HSKMA3-T | 2026-08-31 00:45:04 | 52.03445 | 8.17443 | 354° | 11km/h | 32731m | 4.1m/s | -41.7°C | 0% | 8.2hPa | 2.5V | 18:12:15 | 02:27:11 | 00:00:00 | |
| AA1-15 | 2026-08-31 00:45:02 | 52.03443 | 8.17444 | 351° | 7km/h | 32726m | 4.7m/s | -41.7°C | 0% | 8.2hPa | 2.6V | 18:12:15 | 02:27:10 | 00:00:00 | |
| DO2JMG | 2026-08-31 00:45:00 | 52.03442 | 8.17443 | 123° | 4km/h | 32716m | 5.2m/s | -41.7°C | 0% | 8.2hPa | 2.5V | 18:12:15 | 02:27:08 | 00:00:00 | |
| DL1XH1-15 | 2026-08-31 00:44:59 | 52.03444 | 8.17439 | 113° | 9km/h | 32706m | 4.3m/s | -41.7°C | 2.5% | 8.2hPa | 2.5V | 08:30:00 | 02:27:06 | 00:00:00 | |
| DL1NUX | 2026-08-31 00:44:58 | 52.03444 | 8.17435 | 96° | 13km/h | 32702m | 4.5m/s | -41.6°C | 2.5% | 8.2hPa | 2.6V | 08:30:00 | 02:27:05 | 00:00:00 | |
| DF8AY | 2026-08-31 00:44:57 | 52.03444 | 8.17434 | 96° | 13km/h | 32702m | 4.5m/s | -41.7°C | 0% | 8.2hPa | 2.6V | 18:12:15 | 02:27:05 | 00:00:00 | |
| DL1XH-west | 2026-08-31 00:44:54 | 52.03441 | 8.17417 | 56° | 16km/h | 32686m | 4.6m/s | -41.6°C | 0% | 8.2hPa | 2.5V | 18:12:15 | 02:27:02 | 00:00:00 | |
| AA1-15 | 2026-08-31 00:44:52 | 52.03437 | 8.17407 | 100° | 4km/h | 32673m | 5.6m/s | -41.6°C | 0% | 8.3hPa | 2.6V | 18:12:15 | 02:26:59 | 00:00:00 | |
| BIOWL1-15 | 2026-08-31 00:44:49 | 52.03442 | 8.17409 | 210° | 11km/h | 32658m | 3.9m/s | -41.6°C | 0% | 8.3hPa | 2.5V | 18:12:15 | 02:26:56 | 00:00:00 | |
| DO2JMG | 2026-08-31 00:44:49 | 52.03439 | 8.17407 | 204° | 11km/h | 32662m | 4.3m/s | -41.6°C | 0% | 8.3hPa | 2.5V | 18:12:15 | 02:26:57 | 00:00:00 | |
| DL1XH1-15 | 2026-08-31 00:44:49 | 52.03442 | 8.17409 | 209° | 11km/h | 32658m | 3.9m/s | -41.6°C | 2.5% | 8.3hPa | 2.5V | 08:30:00 | 02:26:56 | 00:00:00 | |
| EDDB2-12 | 2026-08-31 00:44:49 | 52.03442 | 8.17409 | 209° | 11km/h | 32658m | 3.9m/s | -41.6°C | 0.5% | 8.3hPa | 2.6V | 00:00:00 | 00:00:00 | 00:00:00 | |
| DL1NUX | 2026-08-31 00:44:48 | 52.03444 | 8.17412 | 212° | 9km/h | 32654m | 4.5m/s | -41.6°C | 2.5% | 8.3hPa | 2.6V | 08:30:00 | 02:26:55 | 00:00:00 | |
| DF8AY | 2026-08-31 00:44:46 | 52.03445 | 8.17413 | 221° | 4km/h | 32649m | 5.3m/s | -41.6°C | 0% | 8.2hPa | 2.6V | 18:12:15 | 02:26:54 | 00:00:00 | |
| DD1CC8 | 2026-08-31 00:44:45 | 52.03446 | 8.17413 | 35° | 2km/h | 32644m | 5.1m/s | 0°C | -1.0% | -1.0hPa | 2.5V | 00:00:00 | 00:00:00 | 00:00:00 | |
| DL1XH-west | 2026-08-31 00:44:44 | 52.03445 | 8.17412 | 47° | 9km/h | 32639m | 4.7m/s | -41.6°C | 0% | 8.3hPa | 2.5V | 18:12:15 | 02:26:52 | 00:00:00 | |
| AA1-15 | 2026-08-31 00:44:41 | 52.03440 | 8.17397 | 80° | 15km/h | 32625m | 4.8m/s | -41.6°C | 0% | 8.3hPa | 2.6V | 18:12:15 | 02:26:49 | 00:00:00 | |
| DO2JMG | 2026-08-31 00:44:39 | 52.03441 | 8.17388 | 122° | 9km/h | 32615m | 4.7m/s | -41.6°C | 0% | 8.3hPa | 2.5V | 18:12:15 | 02:26:47 | 00:00:00 | |
| BIOWL1-15 | 2026-08-31 00:44:37 | 52.03444 | 8.17384 | 172° | 4km/h | 32606m | 4.7m/s | -41.5°C | 0% | 8.3hPa | 2.6V | 18:12:15 | 02:26:45 | 00:00:00 | |
| DF8AY | 2026-08-31 00:44:35 | 52.03444 | 8.17385 | 352° | 4km/h | 32597m | 5.2m/s | -41.5°C | 0% | 8.3hPa | 2.5V | 18:12:15 | 02:26:43 | 00:00:00 | |
| DL1XH-west | 2026-08-31 00:44:34 | 52.03443 | 8.17384 | 13° | 7km/h | 32591m | 4.7m/s | -41.5°C | 0% | 8.4hPa | 2.5V | 18:12:15 | 02:26:42 | 00:00:00 | |
| HSKMA3-T | 2026-08-31 00:44:31 | 52.03436 | 8.17376 | 61° | 13km/h | 32578m | 4.5m/s | -41.4°C | 0% | 8.4hPa | 2.6V | 18:12:15 | 02:26:39 | 00:00:00 | |
| AA1-15 | 2026-08-31 00:44:31 | 52.03435 | 8.17372 | 82° | 11km/h | 32573m | 5.1m/s | -41.4°C | 0% | 8.4hPa | 2.5V | 18:12:15 | 02:26:38 | 00:00:00 | |
| DL1XH1-15 | 2026-08-31 00:44:29 | 52.03437 | 8.17364 | 130° | 9km/h | 32563m | 4.8m/s | -41.4°C | 2.4% | 8.4hPa | 2.5V | 08:30:00 | 02:26:36 | 00:00:00 | |
| DO2JMG | 2026-08-31 00:44:29 | 52.03435 | 8.17368 | 107° | 11km/h | 32568m | 5.2m/s | -41.4°C | 0% | 8.4hPa | 2.5V | 18:12:15 | 02:26:37 | 00:00:00 | |
| DL1NUX | 2026-08-31 00:44:28 | 52.03438 | 8.17362 | 145° | 5km/h | 32558m | 4.5m/s | -41.4°C | 2.4% | 8.4hPa | 2.6V | 08:30:00 | 02:26:35 | 00:00:00 | |
| BIOWL1-15 | 2026-08-31 00:44:26 | 52.03432 | 8.17358 | 29° | 15km/h | 32535m | 4.8m/s | -41.5°C | 0% | 8.4hPa | 2.6V | 18:12:15 | 02:26:30 | 00:00:00 | |
| DF8AY | 2026-08-31 00:44:25 | 52.03435 | 8.17360 | 17° | 13km/h | 32540m | 4.7m/s | -41.5°C | 0% | 8.4hPa | 2.5V | 18:12:15 | 02:26:31 | 00:00:00 | |
| GOEST3-10 | 2026-08-31 00:44:25 | 52.03439 | 8.17361 | 355° | 11km/h | 32549m | 4.7m/s | -41.4°C | 2.4% | 8.4hPa | 2.5V | 00:00:00 | 00:00:00 | 00:00:00 | |
| DO2SHX-10 | 2026-08-31 00:44:24 | 52.03437 | 8.17361 | 7° | 13km/h | 32545m | 4.6m/s | -41.4°C | 2.5% | 8.4hPa | 2.5V | 00:00:00 | 02:26:32 | 00:00:00 | |
| DL1XH-west | 2026-08-31 00:44:24 | 52.03437 | 8.17361 | 7° | 7km/h | 32544m | 4.6m/s | -41.5°C | 0% | 8.4hPa | 2.5V | 18:12:15 | 02:26:32 | 00:00:00 | |
| DB0NH | 2026-08-31 00:44:23 | 52.03435 | 8.17360 | 17° | 16km/h | 32540m | 4.6m/s | -41.5°C | 2.5% | 8.4hPa | 2.5V | 00:00:00 | 02:26:31 | 00:00:00 | |
| DM0DOS-11 | 2026-08-31 00:44:22 | 52.03425 | 8.17344 | 82° | 11km/h | 32520m | 5m/s | -41.5°C | 2.4% | 8.4hPa | 2.5V | 08:30:00 | 02:26:27 | 00:00:00 | |
| HSKMA3-T | 2026-08-31 00:44:21 | 52.03429 | 8.17354 | 43° | 16km/h | 32530m | 4.9m/s | -41.5°C | 0% | 8.4hPa | 2.6V | 18:12:15 | 02:26:29 | 00:00:00 | |
| DO2SHX-10 | 2026-08-31 00:44:21 | 52.03429 | 8.17354 | 44° | 15km/h | 32531m | 4.8m/s | -41.4°C | 2.5% | 8.4hPa | 2.6V | 00:00:00 | 02:26:29 | 00:00:00 | |
| DL1XH-15 | 2026-08-31 00:44:20 | 52.03428 | 8.17338 | 200° | 7km/h | 32505m | 4.9m/s | -41.5°C | 2.4% | 8.5hPa | 2.6V | 08:30:00 | 02:26:24 | 00:00:00 | |
| DO2JMG | 2026-08-31 00:44:19 | 52.03425 | 8.17344 | 82° | 11km/h | 32520m | 5m/s | -41.5°C | 0% | 8.4hPa | 2.5V | 18:12:15 | 02:26:27 | 00:00:00 | |
| BIOWL1-15 | 2026-08-31 00:44:18 | 52.03430 | 8.17340 | 234° | 9km/h | 32500m | 4.8m/s | -41.5°C | 0% | 8.5hPa | 2.5V | 18:12:15 | 02:26:23 | 00:00:00 | |
| DF8AY | 2026-08-31 00:44:15 | 52.03414 | 8.17335 | 309° | 15km/h | 32436m | 4.9m/s | -41.6°C | 0% | 8.6hPa | 2.6V | 18:12:15 | 02:26:10 | 00:00:00 | |
| DL1XH-west | 2026-08-31 00:44:14 | 52.03431 | 8.17343 | 266° | 9km/h | 32496m | 4.8m/s | -41.5°C | 0% | 8.5hPa | 2.5V | 18:12:15 | 02:26:22 | 00:00:00 | |
| HSKMA3-T | 2026-08-31 00:44:11 | 52.03426 | 8.17349 | 13° | 13km/h | 32481m | 5.1m/s | -41.5°C | 0% | 8.5hPa | 2.6V | 18:12:15 | 02:26:19 | 00:00:00 | |
| DD8BA-10 | 2026-08-31 00:44:11 | 52.03425 | 8.17349 | 14° | 11km/h | 32481m | 5.0m/s | -41.4°C | 2.4% | 8.5hPa | 2.5V | 00:00:00 | 00:00:00 | 00:00:00 | |
| DL1XH1-15 | 2026-08-31 00:44:09 | 52.03417 | 8.17336 | 65° | 16km/h | 32466m | 4.7m/s | -41.5°C | 2.4% | 8.5hPa | 2.5V | 08:30:00 | 02:26:16 | 00:00:00 | |
| DB0UT-7 | 2026-08-31 00:44:09 | 52.03419 | 8.17342 | 51° | 16km/h | 32471m | 4.8m/s | -41.5°C | 2.4% | 8.5hPa | 2.6V | 00:00:00 | 00:00:00 | 00:00:00 | |
| DL1XH-15 | 2026-08-31 00:44:08 | 52.03416 | 8.17327 | 93° | 7km/h | 32457m | 4.7m/s | -41.5°C | 2.4% | 8.5hPa | 2.6V | 08:30:00 | 02:26:14 | 00:00:00 | |
| DO2JMG | 2026-08-31 00:44:08 | 52.03417 | 8.17336 | 65° | 16km/h | 32466m | 4.7m/s | -41.5°C | 0% | 8.5hPa | 2.5V | 18:12:15 | 02:26:16 | 00:00:00 | |
| BIOWL1-15 | 2026-08-31 00:44:04 | 52.03388 | 8.17311 | 73° | 11km/h | 32397m | 4.8m/s | -41.6°C | 0% | 8.6hPa | 2.5V | 18:12:15 | 02:26:02 | 00:00:00 | |
| DL1XH-west | 2026-08-31 00:44:03 | 52.03416 | 8.17331 | 292° | 13km/h | 32441m | 5.1m/s | -41.6°C | 0% | 8.5hPa | 2.5V | 18:12:15 | 02:26:11 | 00:00:00 | |
| DL3AQ-11 | 2026-08-31 00:44:03 | 52.03388 | 8.17311 | 73° | 11km/h | 32397m | 4.8m/s | -41.6°C | 0.5% | 8.6hPa | 2.5V | 00:00:00 | 00:00:00 | 00:00:00 | |
| DL1XH1-15 | 2026-08-31 00:44:02 | 52.03397 | 8.17337 | 36° | 22km/h | 32416m | 5.1m/s | -41.6°C | 2.4% | 8.6hPa | 2.5V | 08:30:00 | 02:26:06 | 00:00:00 | |
| HSKMA3-T | 2026-08-31 00:44:00 | 52.03407 | 8.17342 | 353° | 18km/h | 32426m | 4.9m/s | -41.6°C | 0% | 8.6hPa | 2.5V | 18:12:15 | 02:26:08 | 00:00:00 | |
| DL1XH-15 | 2026-08-31 00:44:00 | 52.03391 | 8.17323 | 66° | 20km/h | 32406m | 4.8m/s | -41.6°C | 2.4% | 8.6hPa | 2.6V | 08:30:00 | 02:26:04 | 00:00:00 | |
| DM0DOS-11 | 2026-08-31 00:43:59 | 52.03402 | 8.17341 | 16° | 20km/h | 32421m | 4.9m/s | -41.6°C | 2.4% | 8.6hPa | 2.5V | 08:30:00 | 02:26:07 | 00:00:00 | |
| DO2JMG | 2026-08-31 00:43:57 | 52.03394 | 8.17331 | 54° | 22km/h | 32411m | 5.1m/s | -41.6°C | 0% | 8.6hPa | 2.6V | 18:12:15 | 02:26:05 | 00:00:00 | |
| DF8AY | 2026-08-31 00:43:56 | 52.03391 | 8.17323 | 67° | 20km/h | 32406m | 4.8m/s | -41.6°C | 0% | 8.6hPa | 2.6V | 18:12:15 | 02:26:04 | 00:00:00 | |
| GOEST3-10 | 2026-08-31 00:43:55 | 52.03389 | 8.17316 | 76° | 13km/h | 32402m | 4.8m/s | -41.6°C | 2.4% | 8.5hPa | 2.5V | 00:00:00 | 00:00:00 | 08:30:00 | |
| DM0DOS-11 | 2026-08-31 00:43:54 | 52.03373 | 8.17315 | 346° | 26km/h | 32371m | 4.9m/s | -41.7°C | 2.4% | 8.6hPa | 2.5V | 08:30:00 | 02:25:57 | 00:00:00 | |
| DL1XH-west | 2026-08-31 00:43:52 | 52.03386 | 8.17307 | 345° | 9km/h | 32387m | 5.3m/s | -41.7°C | 0% | 8.6hPa | 2.6V | 18:12:15 | 02:26:00 | 00:00:00 | |
| HSKMA3-T | 2026-08-31 00:43:50 | 52.03373 | 8.17315 | 347° | 26km/h | 32371m | 4.9m/s | -41.7°C | 0% | 8.6hPa | 2.5V | 18:12:15 | 02:25:57 | 00:00:00 | |
| DL1XH1-15 | 2026-08-31 00:43:49 | 52.03366 | 8.17316 | 356° | 26km/h | 32366m | 4.8m/s | -41.7°C | 2.5% | 8.7hPa | 2.5V | 08:30:00 | 02:25:56 | 00:00:00 | |
| DL1NUX | 2026-08-31 00:43:48 | 52.03360 | 8.17316 | 8° | 24km/h | 32361m | 5m/s | -41.7°C | 2.5% | 8.7hPa | 2.6V | 08:30:00 | 02:25:55 | 00:00:00 | |
| DF8AY | 2026-08-31 00:43:47 | 52.03355 | 8.17313 | 23° | 20km/h | 32356m | 5.4m/s | -41.7°C | 0% | 8.7hPa | 2.6V | 18:12:15 | 02:25:54 | 00:00:00 | |
| DO2JMG | 2026-08-31 00:43:47 | 52.03360 | 8.17316 | 9° | 24km/h | 32361m | 5m/s | -41.7°C | 0% | 8.7hPa | 2.6V | 18:12:15 | 02:25:55 | 00:00:00 | |
| DB0NH | 2026-08-31 00:43:47 | 52.03360 | 8.17316 | 9° | 16km/h | 32362m | 4.9m/s | -41.7°C | 2.5% | 8.6hPa | 2.5V | 00:00:00 | 02:25:55 | 00:00:00 | |
| DO3DL | 2026-08-31 00:43:46 | 52.03360 | 8.17316 | 10° | 24km/h | 32362m | 5.0m/s | -41.7°C | 0.6% | 8.7hPa | 2.5V | 00:00:00 | 00:00:00 | 00:00:00 | |
| DO2SHX-10 | 2026-08-31 00:43:45 | 52.03351 | 8.17309 | 39° | 15km/h | 32351m | 5.3m/s | -41.7°C | 2.5% | 8.6hPa | 2.5V | 00:00:00 | 02:25:53 | 00:00:00 | |
| DO9LL-15 | 2026-08-31 00:43:44 | 52.03348 | 8.17305 | 53° | 18km/h | 32346m | 5.0m/s | -41.7°C | 2.5% | 8.6hPa | 2.5V | 00:00:00 | 02:25:52 | 00:00:00 | |
| DM0DOS-11 | 2026-08-31 00:43:43 | 52.03335 | 8.17292 | 6° | 20km/h | 32319m | 5.3m/s | -41.8°C | 2.5% | 8.7hPa | 2.5V | 08:30:00 | 02:25:47 | 00:00:00 | |
| DL1XH-west | 2026-08-31 00:43:42 | 52.03345 | 8.17297 | 46° | 11km/h | 32335m | 5.3m/s | -41.8°C | 0% | 8.7hPa | 2.6V | 18:12:15 | 02:25:50 | 00:00:00 | |
| DO2SHX-10 | 2026-08-31 00:43:42 | 52.03345 | 8.17297 | 46° | 13km/h | 32335m | 5.3m/s | -41.7°C | 2.4% | 8.6hPa | 2.6V | 00:00:00 | 02:25:50 | 00:00:00 | |
| DL1XH-15 | 2026-08-31 00:43:41 | 52.03317 | 8.17285 | 25° | 26km/h | 32303m | 5.6m/s | -41.8°C | 2.5% | 8.7hPa | 2.6V | 08:30:00 | 02:25:44 | 00:00:00 | |
| HSKMA3-T | 2026-08-31 00:43:39 | 52.03335 | 8.17292 | 6° | 20km/h | 32319m | 5.3m/s | -41.8°C | 0% | 8.7hPa | 2.5V | 18:12:15 | 02:25:47 | 00:00:00 | |
| DL1XH1-15 | 2026-08-31 00:43:39 | 52.03329 | 8.17291 | 9° | 24km/h | 32314m | 5m/s | -41.8°C | 2.5% | 8.7hPa | 2.5V | 08:30:00 | 02:25:46 | 00:00:00 | |
| DL1NUX | 2026-08-31 00:43:38 | 52.03323 | 8.17289 | 16° | 26km/h | 32308m | 5.1m/s | -41.8°C | 2.5% | 8.7hPa | 2.6V | 08:30:00 | 02:25:45 | 00:00:00 | |
| DO2JMG | 2026-08-31 00:43:37 | 52.03323 | 8.17289 | 17° | 26km/h | 32308m | 5.1m/s | -41.8°C | 0% | 8.7hPa | 2.6V | 18:12:15 | 02:25:45 | 00:00:00 | |
| DF8AY | 2026-08-31 00:43:35 | 52.03312 | 8.17280 | 36° | 24km/h | 32298m | 5.7m/s | -41.8°C | 0% | 8.8hPa | 2.5V | 18:12:15 | 02:25:43 | 00:00:00 | |
| GOEST3-10 | 2026-08-31 00:43:35 | 52.03312 | 8.17280 | 37° | 15km/h | 32298m | 5.7m/s | -41.8°C | 2.4% | 8.7hPa | 2.5V | 00:00:00 | 00:00:00 | 00:00:00 | |
| DL1LOL-11 | 2026-08-31 00:43:34 | 52.03312 | 8.17280 | 37° | 24km/h | 32298m | 5.7m/s | -41.8°C | 0.5% | 8.8hPa | 2.5V | 00:00:00 | 00:00:00 | 00:00:00 | |
| DL1XH1-15 | 2026-08-31 00:43:33 | 52.03293 | 8.17264 | 352° | 18km/h | 32261m | 4.9m/s | -42°C | 2.5% | 8.8hPa | 2.5V | 08:30:00 | 02:25:36 | 00:00:00 | |
| DL1XH-west | 2026-08-31 00:43:31 | 52.03301 | 8.17262 | 27° | 7km/h | 32276m | 5.2m/s | -41.9°C | 0% | 8.8hPa | 2.6V | 18:12:15 | 02:25:39 | 00:00:00 | |
| DD8BA-10 | 2026-08-31 00:43:31 | 52.03301 | 8.17262 | 27° | 20km/h | 32277m | 5.2m/s | -41.9°C | 2.5% | 8.7hPa | 2.6V | 00:00:00 | 00:00:00 | 08:30:00 | |
| GOEST3-10 | 2026-08-31 00:43:30 | 52.03299 | 8.17262 | 351° | 18km/h | 32272m | 5.3m/s | -41.9°C | 2.5% | 8.7hPa | 2.6V | 00:00:00 | 02:25:38 | 00:00:00 | |
| DL1XH-15 | 2026-08-31 00:43:28 | 52.03282 | 8.17262 | 17° | 26km/h | 32250m | 5.5m/s | -42.1°C | 2.5% | 8.8hPa | 2.6V | 08:30:00 | 02:25:34 | 00:00:00 | |
| DL1NUX | 2026-08-31 00:43:28 | 52.03288 | 8.17264 | 4° | 22km/h | 32256m | 5.3m/s | -42.1°C | 2.5% | 8.8hPa | 2.6V | 08:30:00 | 02:25:35 | 00:00:00 | |
| BIOWL1-15 | 2026-08-31 00:43:28 | 52.03293 | 8.17264 | 352° | 18km/h | 32261m | 4.9m/s | -42°C | 0% | 8.8hPa | 2.5V | 18:12:15 | 02:25:36 | 00:00:00 | |
| DO2JMG | 2026-08-31 00:43:27 | 52.03288 | 8.17264 | 4° | 22km/h | 32256m | 5.4m/s | -42.1°C | 0% | 8.8hPa | 2.6V | 18:12:15 | 02:25:35 | 00:00:00 | |
| AA1-15 | 2026-08-31 00:43:26 | 52.03282 | 8.17262 | 17° | 26km/h | 32251m | 5.6m/s | -42.1°C | 0% | 8.8hPa | 2.6V | 18:12:15 | 02:25:34 | 00:00:00 | |
| DF8AY | 2026-08-31 00:43:25 | 52.03276 | 8.17258 | 31° | 27km/h | 32245m | 5.6m/s | -42.1°C | 0% | 8.8hPa | 2.5V | 18:12:15 | 02:25:33 | 00:00:00 | |
| GOEST3-10 | 2026-08-31 00:43:25 | 52.03276 | 8.17258 | 31° | 22km/h | 32245m | 5.5m/s | -42.0°C | 2.5% | 8.8hPa | 2.5V | 00:00:00 | 00:00:00 | 00:00:00 | |
| DO2SHX-10 | 2026-08-31 00:43:24 | 52.03271 | 8.17251 | 42° | 24km/h | 32240m | 5.2m/s | -42.0°C | 2.5% | 8.8hPa | 2.5V | 00:00:00 | 02:25:32 | 08:30:00 | |
| DL3AQ-11 | 2026-08-31 00:43:23 | 52.03263 | 8.17236 | 60° | 20km/h | 32230m | 5.2m/s | -42.1°C | 0.5% | 8.8hPa | 2.6V | 00:00:00 | 00:00:00 | 00:00:00 | |
| DO2SHX-10 | 2026-08-31 00:43:21 | 52.03261 | 8.17230 | 66° | 9km/h | 32224m | 5.3m/s | -42.0°C | 2.5% | 8.8hPa | 2.6V | 00:00:00 | 02:25:29 | 00:00:00 | |
| DL1XH-15 | 2026-08-31 00:43:20 | 52.03250 | 8.17226 | 4° | 20km/h | 32198m | 5.6m/s | -42°C | 2.5% | 8.9hPa | 2.6V | 08:30:00 | 02:25:24 | 00:00:00 | |
| DL1XH1-15 | 2026-08-31 00:43:20 | 52.03257 | 8.17225 | 346° | 9km/h | 32209m | 4.8m/s | -42°C | 2.5% | 8.8hPa | 2.5V | 08:30:00 | 02:25:26 | 00:00:00 | |
| DL1XH-west | 2026-08-31 00:43:20 | 52.03260 | 8.17226 | 58° | 7km/h | 32219m | 5.2m/s | -42.1°C | 0% | 8.8hPa | 2.5V | 18:12:15 | 02:25:28 | 00:00:00 | |
| GOEST3-10 | 2026-08-31 00:43:20 | 52.03260 | 8.17226 | 58° | 11km/h | 32219m | 5.2m/s | -42.0°C | 2.5% | 8.8hPa | 2.6V | 00:00:00 | 02:25:28 | 00:00:00 | |
| DD1CC1-15 | 2026-08-31 00:43:19 | 52.03260 | 8.17226 | 59° | 7km/h | 32219m | 5.2m/s | -42.1°C | 0.5% | 8.9hPa | 2.6V | 00:00:00 | 00:00:00 | 00:00:00 | |
| DL1NUX | 2026-08-31 00:43:18 | 52.03254 | 8.17226 | 352° | 15km/h | 32204m | 5.2m/s | -42°C | 2.5% | 8.9hPa | 2.6V | 08:30:00 | 02:25:25 | 00:00:00 | |
| HSKMA3-T | 2026-08-31 00:43:18 | 52.03254 | 8.17226 | 352° | 15km/h | 32204m | 5.2m/s | -42°C | 0% | 8.9hPa | 2.6V | 18:12:15 | 02:25:25 | 00:00:00 | |
| BIOWL1-15 | 2026-08-31 00:43:18 | 52.03228 | 8.17179 | 94° | 13km/h | 32161m | 4.7m/s | -42°C | 0% | 8.9hPa | 2.5V | 18:12:15 | 02:25:17 | 00:00:00 | |
| DO2JMG | 2026-08-31 00:43:16 | 52.03250 | 8.17226 | 5° | 20km/h | 32198m | 5.6m/s | -42.1°C | 0% | 8.9hPa | 2.6V | 18:12:15 | 02:25:24 | 00:00:00 | |
| AA1-15 | 2026-08-31 00:43:15 | 52.03245 | 8.17224 | 19° | 24km/h | 32193m | 5.7m/s | -42.1°C | 0% | 8.9hPa | 2.5V | 18:12:15 | 02:25:23 | 00:00:00 | |
| DF8AY | 2026-08-31 00:43:15 | 52.03239 | 8.17220 | 35° | 26km/h | 32187m | 5.3m/s | -42.1°C | 0% | 8.9hPa | 2.5V | 18:12:15 | 02:25:22 | 00:00:00 | |
| DL1XH-west | 2026-08-31 00:43:10 | 52.03228 | 8.17186 | 89° | 20km/h | 32166m | 5.1m/s | -42.1°C | 0% | 8.9hPa | 2.5V | 18:12:15 | 02:25:18 | 00:00:00 | |
| DL1XH1-15 | 2026-08-31 00:43:09 | 52.03228 | 8.17175 | 77° | 7km/h | 32156m | 5.3m/s | -42°C | 2.5% | 8.9hPa | 2.5V | 08:30:00 | 02:25:16 | 00:00:00 | |
| DL1NUX | 2026-08-31 00:43:08 | 52.03227 | 8.17173 | 10° | 7km/h | 32150m | 6m/s | -42°C | 2.5% | 8.9hPa | 2.6V | 08:30:00 | 02:25:15 | 00:00:00 | |
| DL1XH-15 | 2026-08-31 00:43:08 | 52.03224 | 8.17173 | 349° | 15km/h | 32144m | 6m/s | -42°C | 2.5% | 8.9hPa | 2.6V | 08:30:00 | 02:25:14 | 00:00:00 | |
| DO2JMG | 2026-08-31 00:43:06 | 52.03224 | 8.17174 | 349° | 15km/h | 32144m | 6m/s | -42°C | 0% | 8.9hPa | 2.6V | 18:12:15 | 02:25:14 | 00:00:00 | |
| AA1-15 | 2026-08-31 00:43:05 | 52.03220 | 8.17175 | 350° | 20km/h | 32138m | 5.5m/s | -42°C | 0% | 8.9hPa | 2.5V | 18:12:15 | 02:25:13 | 00:00:00 | |
| DF8AY | 2026-08-31 00:43:04 | 52.03214 | 8.17176 | 357° | 26km/h | 32133m | 5.1m/s | -42°C | 0% | 9hPa | 2.5V | 18:12:15 | 02:25:12 | 00:00:00 | |
| SONDE2-11 | 2026-08-31 00:43:04 | 52.03214 | 8.17176 | 357° | 24km/h | 32133m | 5.1m/s | -42.0°C | 0.5% | 9.0hPa | 2.6V | 00:00:00 | 00:00:00 | 00:00:00 | |
| DO2SHX-10 | 2026-08-31 00:43:03 | 52.03208 | 8.17175 | 8° | 24km/h | 32128m | 4.9m/s | -41.9°C | 2.4% | 8.9hPa | 2.6V | 00:00:00 | 02:25:11 | 00:00:00 | |
| SONCRA | 2026-08-31 00:43:02 | 52.03197 | 8.17169 | 34° | 20km/h | 32117m | 5.8m/s | -42.0°C | 0.5% | 9.0hPa | 2.6V | 00:00:00 | 00:00:00 | 00:00:00 | |
| DF8AY-15 | 2026-08-31 00:43:01 | 52.03197 | 8.17169 | 35° | 16km/h | 32118m | 5.8m/s | -41.9°C | 2.5% | 8.9hPa | 2.6V | 00:00:00 | 02:25:09 | 00:00:00 | |
| DL1XH-15 | 2026-08-31 00:43:00 | 52.03186 | 8.17142 | 45° | 13km/h | 32090m | 5.5m/s | -42°C | 2.5% | 9hPa | 2.6V | 08:30:00 | 02:25:04 | 00:00:00 | |
| DL1XH-west | 2026-08-31 00:43:00 | 52.03193 | 8.17163 | 51° | 18km/h | 32111m | 5.9m/s | -42°C | 0% | 9hPa | 2.5V | 18:12:15 | 02:25:08 | 00:00:00 | |
| DO2JMG | 2026-08-31 00:42:56 | 52.03186 | 8.17143 | 46° | 13km/h | 32090m | 5.5m/s | -42.1°C | 0% | 9hPa | 2.6V | 18:12:15 | 02:25:04 | 00:00:00 | |
| AA1-15 | 2026-08-31 00:42:54 | 52.03180 | 8.17136 | 23° | 16km/h | 32078m | 5.4m/s | -42.1°C | 0% | 9hPa | 2.5V | 18:12:15 | 02:25:02 | 00:00:00 | |
| DL1XH-west | 2026-08-31 00:42:49 | 52.03160 | 8.17126 | 355° | 11km/h | 32052m | 5.7m/s | -42.1°C | 0% | 9.1hPa | 2.5V | 18:12:15 | 02:24:57 | 00:00:00 | |
| DL1XH-15 | 2026-08-31 00:42:49 | 52.03152 | 8.17134 | 324° | 15km/h | 32034m | 4.8m/s | -42.2°C | 2.5% | 9.1hPa | 2.6V | 08:30:00 | 02:24:54 | 00:00:00 | |
| DO2JMG | 2026-08-31 00:42:46 | 52.03152 | 8.17134 | 324° | 15km/h | 32034m | 4.8m/s | -42.2°C | 0% | 9.1hPa | 2.6V | 18:12:15 | 02:24:54 | 00:00:00 | |
| BIOWL1-15 | 2026-08-31 00:42:46 | 52.03133 | 8.17132 | 29° | 27km/h | 32012m | 5.9m/s | -42.3°C | 0% | 9.2hPa | 2.6V | 18:12:15 | 02:24:50 | 00:00:00 | |
| HSKMA3-T | 2026-08-31 00:42:45 | 52.03149 | 8.17136 | 342° | 16km/h | 32030m | 4.6m/s | -42.3°C | 0% | 9.1hPa | 2.5V | 18:12:15 | 02:24:53 | 00:00:00 | |
| AA1-15 | 2026-08-31 00:42:44 | 52.03144 | 8.17137 | 0° | 18km/h | 32025m | 6m/s | -42.3°C | 0% | 9.1hPa | 2.5V | 18:12:15 | 02:24:52 | 00:00:00 | |
| DF8AY | 2026-08-31 00:42:43 | 52.03139 | 8.17136 | 17° | 24km/h | 32018m | 6.7m/s | -42.3°C | 0% | 9.1hPa | 2.5V | 18:12:15 | 02:24:51 | 00:00:00 | |
| DL3AQ-11 | 2026-08-31 00:42:43 | 52.03133 | 8.17132 | 28° | 26km/h | 32012m | 5.9m/s | -42.3°C | 0.6% | 9.2hPa | 2.5V | 00:00:00 | 00:00:00 | 00:00:00 | |
| DO2SHX-10 | 2026-08-31 00:42:42 | 52.03133 | 8.17132 | 29° | 26km/h | 32012m | 5.8m/s | -42.3°C | 2.5% | 9.1hPa | 2.5V | 00:00:00 | 02:24:50 | 00:00:00 | |
| DD8BA-10 | 2026-08-31 00:42:41 | 52.03128 | 8.17126 | 38° | 11km/h | 32007m | 4.7m/s | -42.3°C | 2.5% | 9.1hPa | 2.5V | 00:00:00 | 00:00:00 | 00:00:00 | |
| DL1XH1-15 | 2026-08-31 00:42:39 | 52.03118 | 8.17110 | 57° | 7km/h | 31991m | 6m/s | -42.4°C | 2.5% | 9.2hPa | 2.5V | 08:30:00 | 02:24:46 | 00:00:00 | |
| DL1XH-west | 2026-08-31 00:42:39 | 52.03120 | 8.17114 | 50° | 16km/h | 31997m | 5.9m/s | -42.4°C | 0% | 9.1hPa | 2.5V | 18:12:15 | 02:24:47 | 00:00:00 | |
| DO2SHX-10 | 2026-08-31 00:42:39 | 52.03120 | 8.17114 | 50° | 11km/h | 31997m | 5.9m/s | -42.3°C | 2.5% | 9.1hPa | 2.5V | 00:00:00 | 02:24:47 | 00:00:00 | |
| DL1XH-15 | 2026-08-31 00:42:38 | 52.03118 | 8.17110 | 242° | 5km/h | 31979m | 5.5m/s | -42.5°C | 2.6% | 9.2hPa | 2.6V | 08:30:00 | 02:24:44 | 00:00:00 | |
| DO2JMG | 2026-08-31 00:42:36 | 52.03118 | 8.17110 | 243° | 5km/h | 31979m | 5.6m/s | -42.5°C | 0% | 9.2hPa | 2.6V | 18:12:15 | 02:24:44 | 00:00:00 | |
| BIOWL1-15 | 2026-08-31 00:42:34 | 52.03118 | 8.17115 | 279° | 7km/h | 31968m | 5.8m/s | -42.6°C | 0% | 9.2hPa | 2.5V | 18:12:15 | 02:24:42 | 00:00:00 | |
| AA1-15 | 2026-08-31 00:42:33 | 52.03118 | 8.17117 | 327° | 5km/h | 31962m | 6m/s | -42.6°C | 0% | 9.2hPa | 2.5V | 18:12:15 | 02:24:41 | 00:00:00 | |
| DJ2DS-15 | 2026-08-31 00:42:33 | 52.03118 | 8.17117 | 327° | 9km/h | 31962m | 6.0m/s | -42.5°C | 2.6% | 9.2hPa | 2.5V | 00:00:00 | 02:24:41 | 00:00:00 | |
| DM0DOS-11 | 2026-08-31 00:42:32 | 52.03109 | 8.17111 | 38° | 11km/h | 31939m | 6m/s | -42.6°C | 2.6% | 9.2hPa | 2.5V | 08:30:00 | 02:24:37 | 00:00:00 | |
| DF8AY | 2026-08-31 00:42:32 | 52.03116 | 8.17118 | 11° | 7km/h | 31956m | 5.6m/s | -42.6°C | 0% | 9.2hPa | 2.6V | 18:12:15 | 02:24:40 | 00:00:00 | |
| DL1XH-west | 2026-08-31 00:42:28 | 52.03105 | 8.17106 | 33° | 7km/h | 31927m | 5.9m/s | -42.6°C | 0% | 9.2hPa | 2.6V | 18:12:15 | 02:24:35 | 00:00:00 | |
| DO2JMG | 2026-08-31 00:42:25 | 52.03103 | 8.17105 | 13° | 4km/h | 31916m | 5.3m/s | -42.7°C | 0% | 9.2hPa | 2.5V | 18:12:15 | 02:24:33 | 00:00:00 | |
| HSKMA3-T | 2026-08-31 00:42:24 | 52.03102 | 8.17104 | 26° | 5km/h | 31911m | 5.5m/s | -42.7°C | 0% | 9.3hPa | 2.5V | 18:12:15 | 02:24:32 | 00:00:00 | |
| DM0DOS-11 | 2026-08-31 00:42:22 | 52.03098 | 8.17093 | 122° | 5km/h | 31882m | 6.2m/s | -42.5°C | 2.6% | 9.3hPa | 2.5V | 08:30:00 | 02:24:27 | 00:00:00 | |
| AA1-15 | 2026-08-31 00:42:22 | 52.03099 | 8.17101 | 46° | 7km/h | 31899m | 6.2m/s | -42.6°C | 0% | 9.3hPa | 2.6V | 18:12:15 | 02:24:30 | 00:00:00 | |
| DO2SHX-10 | 2026-08-31 00:42:22 | 52.03099 | 8.17101 | 46° | 7km/h | 31899m | 6.1m/s | -42.6°C | 2.6% | 9.2hPa | 2.6V | 00:00:00 | 02:24:30 | 00:00:00 | |
| DF8AY-15 | 2026-08-31 00:42:21 | 52.03098 | 8.17098 | 60° | 9km/h | 31893m | 5.2m/s | -42.6°C | 2.6% | 9.2hPa | 2.6V | 00:00:00 | 02:24:29 | 08:30:00 | |
| GOEST3-10 | 2026-08-31 00:42:20 | 52.03097 | 8.17095 | 85° | 9km/h | 31888m | 5.1m/s | -42.5°C | 2.6% | 9.3hPa | 2.6V | 00:00:00 | 02:24:28 | 00:00:00 | |
| DL1NUX | 2026-08-31 00:42:18 | 52.03101 | 8.17089 | 162° | 13km/h | 31869m | 5.8m/s | -42.5°C | 2.5% | 9.3hPa | 2.6V | 08:30:00 | 02:24:25 | 00:00:00 | |
| DL1XH-west | 2026-08-31 00:42:16 | 52.03104 | 8.17088 | 157° | 13km/h | 31863m | 4.8m/s | -42.5°C | 0% | 9.3hPa | 2.6V | 18:12:15 | 02:24:24 | 00:00:00 | |
| DO2JMG | 2026-08-31 00:42:15 | 52.03107 | 8.17085 | 137° | 13km/h | 31859m | 4.8m/s | -42.4°C | 0% | 9.3hPa | 2.5V | 18:12:15 | 02:24:23 | 00:00:00 | |
| HSKMA3-T | 2026-08-31 00:42:13 | 52.03109 | 8.17075 | 84° | 15km/h | 31847m | 6.6m/s | -42.4°C | 0% | 9.4hPa | 2.5V | 18:12:15 | 02:24:21 | 00:00:00 | |
| AA1-15 | 2026-08-31 00:42:12 | 52.03108 | 8.17069 | 66° | 18km/h | 31840m | 5.9m/s | -42.4°C | 0% | 9.4hPa | 2.6V | 18:12:15 | 02:24:20 | 00:00:00 | |
| DF8AY | 2026-08-31 00:42:11 | 52.03106 | 8.17063 | 56° | 16km/h | 31835m | 5.2m/s | -42.4°C | 0% | 9.4hPa | 2.6V | 18:12:15 | 02:24:19 | 00:00:00 | |
| DD8BA-10 | 2026-08-31 00:42:11 | 52.03106 | 8.17063 | 56° | 7km/h | 31835m | 5.1m/s | -42.3°C | 2.5% | 9.4hPa | 2.5V | 00:00:00 | 00:00:00 | 00:00:00 | |
| DK9SH | 2026-08-31 00:42:10 | 52.03106 | 8.17062 | 57° | 16km/h | 31835m | 5.2m/s | -42.4°C | 0.5% | 9.4hPa | 2.5V | 00:00:00 | 00:00:00 | 00:00:00 | |
| DL1XH1-15 | 2026-08-31 00:42:09 | 52.03099 | 8.17053 | 5° | 4km/h | 31817m | 5.5m/s | -42.4°C | 2.5% | 9.4hPa | 2.5V | 08:30:00 | 02:24:16 | 00:00:00 | |
| DL1XH-15 | 2026-08-31 00:42:08 | 52.03099 | 8.17054 | 228° | 2km/h | 31807m | 5m/s | -42.4°C | 2.5% | 9.4hPa | 2.6V | 08:30:00 | 02:24:14 | 00:00:00 | |
| DO2JMG | 2026-08-31 00:42:05 | 52.03099 | 8.17054 | 140° | 2km/h | 31802m | 6.1m/s | -42.5°C | 0% | 9.5hPa | 2.5V | 18:12:15 | 02:24:13 | 00:00:00 | |
| GOEST3-10 | 2026-08-31 00:42:05 | 52.03099 | 8.17054 | 140° | 7km/h | 31802m | 6.1m/s | -42.4°C | 2.5% | 9.4hPa | 2.5V | 00:00:00 | 00:00:00 | 00:00:00 | |
| DO2SHX-10 | 2026-08-31 00:42:04 | 52.03099 | 8.17053 | 100° | 9km/h | 31796m | 6.1m/s | -42.5°C | 2.5% | 9.4hPa | 2.5V | 00:00:00 | 02:24:12 | 00:00:00 | |
| DL1XH1-15 | 2026-08-31 00:42:03 | 52.03102 | 8.17029 | 110° | 9km/h | 31760m | 5.3m/s | -42.6°C | 2.6% | 9.5hPa | 2.5V | 08:30:00 | 02:24:06 | 00:00:00 | |
| HSKMA3-T | 2026-08-31 00:42:03 | 52.03100 | 8.17050 | 92° | 9km/h | 31789m | 5.8m/s | -42.6°C | 0% | 9.4hPa | 2.5V | 18:12:15 | 02:24:11 | 00:00:00 | |
| AA1-15 | 2026-08-31 00:42:01 | 52.03100 | 8.17041 | 95° | 13km/h | 31778m | 5.2m/s | -42.6°C | 0% | 9.4hPa | 2.6V | 18:12:15 | 02:24:09 | 00:00:00 | |
| DF8AY | 2026-08-31 00:42:00 | 52.03100 | 8.17036 | 102° | 11km/h | 31773m | 6.3m/s | -42.7°C | 0% | 9.5hPa | 2.5V | 18:12:15 | 02:24:08 | 00:00:00 | |
| SONCRA | 2026-08-31 00:42:00 | 52.03101 | 8.17032 | 108° | 9km/h | 31767m | 6.2m/s | -42.7°C | 0.6% | 9.5hPa | 2.6V | 00:00:00 | 00:00:00 | 00:00:00 | |
| DL1NUX | 2026-08-31 00:41:58 | 52.03102 | 8.17025 | 98° | 9km/h | 31755m | 5.1m/s | -42.6°C | 2.6% | 9.5hPa | 2.6V | 08:30:00 | 02:24:05 | 00:00:00 | |
| DO2JMG | 2026-08-31 00:41:54 | 52.03101 | 8.17009 | 69° | 16km/h | 31737m | 5.8m/s | -42.6°C | 0% | 9.5hPa | 2.5V | 18:12:15 | 02:24:02 | 00:00:00 | |
| HSKMA3-T | 2026-08-31 00:41:52 | 52.03098 | 8.16998 | 74° | 13km/h | 31726m | 5.6m/s | -42.5°C | 0% | 9.5hPa | 2.6V | 18:12:15 | 02:24:00 | 00:00:00 | |
| BIOWL1-15 | 2026-08-31 00:41:50 | 52.03099 | 8.16988 | 141° | 7km/h | 31709m | 4.9m/s | -42.5°C | 0% | 9.6hPa | 2.5V | 18:12:15 | 02:23:57 | 00:00:00 | |
| AA1-15 | 2026-08-31 00:41:50 | 52.03098 | 8.16990 | 121° | 7km/h | 31714m | 5.8m/s | -42.5°C | 0% | 9.5hPa | 2.5V | 18:12:15 | 02:23:58 | 00:00:00 | |
| DF8AY | 2026-08-31 00:41:49 | 52.03100 | 8.16986 | 135° | 7km/h | 31704m | 5m/s | -42.6°C | 0% | 9.6hPa | 2.5V | 18:12:15 | 02:23:56 | 00:00:00 | |
| DL1NUX | 2026-08-31 00:41:48 | 52.03101 | 8.16983 | 117° | 9km/h | 31698m | 6.1m/s | -42.6°C | 2.5% | 9.6hPa | 2.6V | 08:30:00 | 02:23:55 | 00:00:00 | |
| DO1YAY-16 | 2026-08-31 00:41:48 | 52.03100 | 8.16986 | 135° | 7km/h | 31704m | 5.0m/s | -42.6°C | 0.6% | 9.6hPa | 2.5V | 00:00:00 | 00:00:00 | 00:00:00 | |
| BUE01 | 2026-08-31 00:41:47 | 52.03102 | 8.16979 | 100° | 13km/h | 31692m | 6.3m/s | -42.6°C | 0.6% | 9.6hPa | 2.5V | 00:00:00 | 00:00:00 | 00:00:00 | |
| DL1XH-west | 2026-08-31 00:41:44 | 52.03103 | 8.16965 | 88° | 18km/h | 31681m | 5.3m/s | -42.8°C | 0% | 9.6hPa | 2.5V | 18:12:15 | 02:23:52 | 00:00:00 | |
| HSKMA3-T | 2026-08-31 00:41:41 | 52.03103 | 8.16945 | 94° | 13km/h | 31664m | 5.4m/s | -43°C | 0% | 9.6hPa | 2.6V | 18:12:15 | 02:23:49 | 00:00:00 | |
| DM0DOS-11 | 2026-08-31 00:41:41 | 52.03103 | 8.16934 | 86° | 13km/h | 31653m | 5.1m/s | -42.9°C | 2.6% | 9.6hPa | 2.5V | 08:30:00 | 02:23:47 | 00:00:00 | |
| AA1-15 | 2026-08-31 00:41:39 | 52.03103 | 8.16934 | 87° | 13km/h | 31653m | 5.1m/s | -42.9°C | 0% | 9.6hPa | 2.5V | 18:12:15 | 02:23:47 | 00:00:00 | |
| DF8AY | 2026-08-31 00:41:38 | 52.03103 | 8.16928 | 82° | 16km/h | 31648m | 6.3m/s | -42.9°C | 0% | 9.7hPa | 2.5V | 18:12:15 | 02:23:46 | 00:00:00 | |
| BIOWL1-15 | 2026-08-31 00:41:37 | 52.03102 | 8.16922 | 83° | 18km/h | 31642m | 5.9m/s | -42.9°C | 0% | 9.7hPa | 2.6V | 18:12:15 | 02:23:45 | 00:00:00 | |
| DL3AQ-11 | 2026-08-31 00:41:36 | 52.03102 | 8.16907 | 100° | 18km/h | 31631m | 4.9m/s | -42.9°C | 0.6% | 9.7hPa | 2.5V | 00:00:00 | 00:00:00 | 00:00:00 | |
| DD1CC1-15 | 2026-08-31 00:41:35 | 52.03102 | 8.16907 | 102° | 18km/h | 31631m | 4.9m/s | -42.9°C | 0.6% | 9.7hPa | 2.5V | 00:00:00 | 00:00:00 | 00:00:00 | |
| DM0DOS-11 | 2026-08-31 00:41:34 | 52.03121 | 8.16869 | 115° | 22km/h | 31598m | 6m/s | -43°C | 2.6% | 9.7hPa | 2.5V | 08:30:00 | 02:23:37 | 00:00:00 | |
| DO2JMG | 2026-08-31 00:41:34 | 52.03104 | 8.16900 | 115° | 18km/h | 31626m | 5.9m/s | -43°C | 0% | 9.7hPa | 2.5V | 18:12:15 | 02:23:42 | 00:00:00 | |
| DL1XH-west | 2026-08-31 00:41:33 | 52.03106 | 8.16893 | 132° | 18km/h | 31619m | 6.5m/s | -43°C | 0% | 9.7hPa | 2.5V | 18:12:15 | 02:23:41 | 00:00:00 | |
| HSKMA3-T | 2026-08-31 00:41:31 | 52.03114 | 8.16882 | 142° | 22km/h | 31608m | 4.7m/s | -43°C | 0% | 9.7hPa | 2.6V | 18:12:15 | 02:23:39 | 00:00:00 | |
| DD8BA-10 | 2026-08-31 00:41:31 | 52.03114 | 8.16882 | 142° | 18km/h | 31609m | 4.6m/s | -43.0°C | 2.6% | 9.6hPa | 2.6V | 00:00:00 | 00:00:00 | 00:00:00 | |
| DL1XH1-15 | 2026-08-31 00:41:30 | 52.03123 | 8.16860 | 97° | 22km/h | 31592m | 6.2m/s | -43°C | 2.6% | 9.7hPa | 2.5V | 08:30:00 | 02:23:36 | 00:00:00 | |
| AA1-15 | 2026-08-31 00:41:29 | 52.03123 | 8.16860 | 97° | 22km/h | 31592m | 6.2m/s | -43°C | 0% | 9.7hPa | 2.5V | 18:12:15 | 02:23:36 | 00:00:00 | |
| DF8AY | 2026-08-31 00:41:27 | 52.03123 | 8.16851 | 82° | 24km/h | 31586m | 5.6m/s | -43°C | 0% | 9.7hPa | 2.6V | 18:12:15 | 02:23:35 | 00:00:00 | |
| BIOWL1-15 | 2026-08-31 00:41:27 | 52.03118 | 8.16816 | 133° | 9km/h | 31554m | 5m/s | -43°C | 0% | 9.8hPa | 2.6V | 18:12:15 | 02:23:29 | 00:00:00 | |
| SP3BTT-10 | 2026-08-31 00:41:26 | 52.03121 | 8.16842 | 74° | 9km/h | 31581m | 5.4m/s | 0°C | 0% | 0hPa | 2.5V | 00:00:00 | 00:00:00 | 00:00:00 | |
| GOEST3-10 | 2026-08-31 00:41:25 | 52.03119 | 8.16833 | 68° | 13km/h | 31576m | 5.4m/s | -43.0°C | 2.6% | 9.7hPa | 2.5V | 00:00:00 | 00:00:00 | 00:00:00 | |
| DL1XH1-15 | 2026-08-31 00:41:24 | 52.03124 | 8.16803 | 120° | 20km/h | 31537m | 5.3m/s | -43°C | 2.7% | 9.8hPa | 2.5V | 08:30:00 | 02:23:26 | 00:00:00 | |
| DO2JMG | 2026-08-31 00:41:23 | 52.03117 | 8.16822 | 81° | 9km/h | 31564m | 5.5m/s | -43°C | 0% | 9.8hPa | 2.5V | 18:12:15 | 02:23:31 | 00:00:00 | |
| DL1XH-west | 2026-08-31 00:41:22 | 52.03117 | 8.16819 | 115° | 7km/h | 31559m | 4.8m/s | -43°C | 0% | 9.8hPa | 2.6V | 18:12:15 | 02:23:30 | 00:00:00 | |
| HSKMA3-T | 2026-08-31 00:41:21 | 52.03120 | 8.16813 | 131° | 11km/h | 31548m | 5.8m/s | -43°C | 0% | 9.8hPa | 2.5V | 18:12:15 | 02:23:28 | 00:00:00 | |
| DO2SHX-10 | 2026-08-31 00:41:20 | 52.03120 | 8.16813 | 131° | 16km/h | 31549m | 5.8m/s | -42.9°C | 2.7% | 9.7hPa | 2.6V | 00:00:00 | 02:23:28 | 00:00:00 | |
| DL8DAS-15 | 2026-08-31 00:41:19 | 52.03120 | 8.16813 | 132° | 11km/h | 31549m | 5.8m/s | -43.0°C | 0.6% | 9.8hPa | 2.6V | 00:00:00 | 00:00:00 | 00:00:00 | |
| DL1NUX | 2026-08-31 00:41:18 | 52.03127 | 8.16795 | 119° | 22km/h | 31532m | 5.2m/s | -42.9°C | 2.6% | 9.8hPa | 2.6V | 08:30:00 | 02:23:25 | 00:00:00 | |
| AA1-15 | 2026-08-31 00:41:17 | 52.03127 | 8.16795 | 119° | 22km/h | 31532m | 5.2m/s | -42.9°C | 0% | 9.8hPa | 2.6V | 18:12:15 | 02:23:25 | 00:00:00 | |
| DF8AY | 2026-08-31 00:41:16 | 52.03133 | 8.16779 | 120° | 24km/h | 31521m | 6.2m/s | -42.9°C | 0% | 9.8hPa | 2.5V | 18:12:15 | 02:23:23 | 00:00:00 | |
| BIOWL1-15 | 2026-08-31 00:41:15 | 52.03142 | 8.16734 | 86° | 27km/h | 31494m | 6.3m/s | -42.8°C | 0% | 9.9hPa | 2.5V | 18:12:15 | 02:23:18 | 00:00:00 | |
| DM0DOS-11 | 2026-08-31 00:41:14 | 52.03141 | 8.16722 | 81° | 29km/h | 31488m | 5.4m/s | -42.8°C | 2.6% | 9.9hPa | 2.5V | 08:30:00 | 02:23:17 | 00:00:00 | |
| DO9LL-15 | 2026-08-31 00:41:14 | 52.03136 | 8.16771 | 122° | 22km/h | 31515m | 5.4m/s | -42.8°C | 2.6% | 9.8hPa | 2.5V | 00:00:00 | 02:23:22 | 00:00:00 | |
| DL1XH1-15 | 2026-08-31 00:41:13 | 52.03140 | 8.16711 | 81° | 27km/h | 31483m | 4.5m/s | -42.8°C | 2.6% | 9.9hPa | 2.5V | 08:30:00 | 02:23:16 | 00:00:00 | |
| DO2JMG | 2026-08-31 00:41:12 | 52.03141 | 8.16754 | 106° | 24km/h | 31505m | 4.7m/s | -42.8°C | 0% | 9.8hPa | 2.6V | 18:12:15 | 02:23:20 | 00:00:00 | |
| DL1XH-west | 2026-08-31 00:41:11 | 52.03142 | 8.16744 | 96° | 26km/h | 31500m | 5.7m/s | -42.8°C | 0% | 9.8hPa | 2.6V | 18:12:15 | 02:23:19 | 00:00:00 | |
| HSKMA3-T | 2026-08-31 00:41:09 | 52.03141 | 8.16722 | 82° | 29km/h | 31488m | 5.4m/s | -42.8°C | 0% | 9.9hPa | 2.5V | 18:12:15 | 02:23:17 | 00:00:00 | |
| DL1XH-15 | 2026-08-31 00:41:08 | 52.03139 | 8.16693 | 96° | 18km/h | 31473m | 6m/s | -42.7°C | 2.6% | 9.9hPa | 2.6V | 08:30:00 | 02:23:14 | 00:00:00 | |
| DL1NUX | 2026-08-31 00:41:08 | 52.03139 | 8.16701 | 85° | 24km/h | 31479m | 4.9m/s | -42.8°C | 2.6% | 9.9hPa | 2.6V | 08:30:00 | 02:23:15 | 00:00:00 | |
| AA1-15 | 2026-08-31 00:41:06 | 52.03139 | 8.16693 | 97° | 18km/h | 31473m | 6m/s | -42.7°C | 0% | 9.9hPa | 2.6V | 18:12:15 | 02:23:14 | 00:00:00 | |
| DF8AY | 2026-08-31 00:41:04 | 52.03143 | 8.16682 | 134° | 15km/h | 31462m | 4.7m/s | -42.7°C | 0% | 9.9hPa | 2.5V | 18:12:15 | 02:23:12 | 00:00:00 | |
| DL1XH1-15 | 2026-08-31 00:41:03 | 52.03153 | 8.16635 | 93° | 29km/h | 31432m | 4.2m/s | -42.8°C | 2.6% | 9.9hPa | 2.5V | 08:30:00 | 02:23:06 | 00:00:00 | |
| DL1XH-west | 2026-08-31 00:41:01 | 52.03151 | 8.16657 | 100° | 24km/h | 31441m | 5.4m/s | -42.8°C | 0% | 10hPa | 2.5V | 18:12:15 | 02:23:08 | 00:00:00 | |
| DO2JMG | 2026-08-31 00:41:01 | 52.03150 | 8.16666 | 112° | 20km/h | 31447m | 5.8m/s | -42.7°C | 0% | 9.9hPa | 2.6V | 18:12:15 | 02:23:09 | 00:00:00 | |
| HSKMA3-T | 2026-08-31 00:40:59 | 52.03152 | 8.16647 | 95° | 27km/h | 31436m | 4.7m/s | -42.8°C | 0% | 10hPa | 2.5V | 18:12:15 | 02:23:07 | 00:00:00 | |
| DL1NUX | 2026-08-31 00:40:58 | 52.03154 | 8.16624 | 96° | 27km/h | 31428m | 4.2m/s | -42.8°C | 2.6% | 9.9hPa | 2.6V | 08:30:00 | 02:23:05 | 00:00:00 | |
| DL1XH-15 | 2026-08-31 00:40:58 | 52.03155 | 8.16613 | 104° | 26km/h | 31423m | 5.5m/s | -42.8°C | 2.6% | 10hPa | 2.6V | 08:30:00 | 02:23:04 | 00:00:00 | |
| AA1-15 | 2026-08-31 00:40:55 | 52.03157 | 8.16604 | 117° | 22km/h | 31417m | 6m/s | -42.8°C | 0% | 10hPa | 2.5V | 18:12:15 | 02:23:03 | 00:00:00 | |
| DF8AY | 2026-08-31 00:40:54 | 52.03173 | 8.16554 | 96° | 24km/h | 31381m | 4.9m/s | -43.1°C | 0% | 10hPa | 2.5V | 18:12:15 | 02:22:56 | 00:00:00 | |
| DJ2DS-15 | 2026-08-31 00:40:53 | 52.03163 | 8.16591 | 137° | 20km/h | 31407m | 4.4m/s | -42.8°C | 2.6% | 10.0hPa | 2.5V | 00:00:00 | 02:23:01 | 00:00:00 | |
| DO2LYB-13 | 2026-08-31 00:40:52 | 52.03167 | 8.16585 | 134° | 18km/h | 31402m | 4.4m/s | -42.9°C | 0.6% | 10.0hPa | 2.5V | 00:00:00 | 00:00:00 | 00:00:00 | |
| DJ3KS | 2026-08-31 00:40:51 | 52.03167 | 8.16585 | 134° | 18km/h | 31402m | 4.4m/s | -42.9°C | 0.6% | 10.0hPa | 2.5V | 00:00:00 | 00:00:00 | 00:00:00 | |
| DM0DOS-11 | 2026-08-31 00:40:50 | 52.03173 | 8.16564 | 98° | 22km/h | 31386m | 4.9m/s | -43.1°C | 2.6% | 10hPa | 2.5V | 08:30:00 | 02:22:57 | 00:00:00 | |
| DL1XH-west | 2026-08-31 00:40:50 | 52.03172 | 8.16572 | 107° | 20km/h | 31391m | 5.5m/s | -43°C | 0% | 10hPa | 2.5V | 18:12:15 | 02:22:58 | 00:00:00 | |
| HSKMA3-T | 2026-08-31 00:40:49 | 52.03173 | 8.16564 | 98° | 22km/h | 31386m | 4.9m/s | -43.1°C | 0% | 10hPa | 2.5V | 18:12:15 | 02:22:57 | 00:00:00 | |
| DL1NUX | 2026-08-31 00:40:48 | 52.03174 | 8.16544 | 97° | 26km/h | 31376m | 5.5m/s | -43.2°C | 2.6% | 10.1hPa | 2.6V | 08:30:00 | 02:22:55 | 00:00:00 | |
| DL1XH-15 | 2026-08-31 00:40:48 | 52.03175 | 8.16534 | 103° | 24km/h | 31370m | 5.9m/s | -43.2°C | 2.6% | 10.1hPa | 2.6V | 08:30:00 | 02:22:54 | 00:00:00 | |
| DO2SHX-10 | 2026-08-31 00:40:47 | 52.03174 | 8.16544 | 98° | 24km/h | 31376m | 5.5m/s | -43.1°C | 2.6% | 10.0hPa | 2.5V | 00:00:00 | 02:22:55 | 00:00:00 | |
| DB0NH | 2026-08-31 00:40:46 | 52.03175 | 8.16534 | 104° | 18km/h | 31371m | 5.9m/s | -43.2°C | 2.6% | 10.0hPa | 2.5V | 00:00:00 | 02:22:54 | 00:00:00 | |
| GOEST3-10 | 2026-08-31 00:40:45 | 52.03177 | 8.16525 | 110° | 22km/h | 31365m | 5.0m/s | -43.2°C | 2.6% | 10.0hPa | 2.5V | 00:00:00 | 00:00:00 | 00:00:00 | |
| DM0DOS-11 | 2026-08-31 00:40:44 | 52.03182 | 8.16476 | 84° | 18km/h | 31335m | 4.5m/s | -43.4°C | 2.7% | 10.1hPa | 2.5V | 08:30:00 | 02:22:47 | 00:00:00 | |
| AA1-15 | 2026-08-31 00:40:44 | 52.03179 | 8.16516 | 111° | 22km/h | 31360m | 4.4m/s | -43.3°C | 0% | 10.1hPa | 2.5V | 18:12:15 | 02:22:52 | 00:00:00 | |
| DO2SHX-10 | 2026-08-31 00:40:44 | 52.03179 | 8.16516 | 112° | 22km/h | 31360m | 4.3m/s | -43.2°C | 2.6% | 10.0hPa | 2.5V | 00:00:00 | 02:22:52 | 00:00:00 | |
| DL1XH1-15 | 2026-08-31 00:40:43 | 52.03181 | 8.16468 | 91° | 18km/h | 31330m | 5.6m/s | -43.4°C | 2.7% | 10.1hPa | 2.5V | 08:30:00 | 02:22:46 | 00:00:00 | |
| DO2JMG | 2026-08-31 00:40:40 | 52.03182 | 8.16483 | 84° | 20km/h | 31340m | 5m/s | -43.4°C | 0% | 10.1hPa | 2.5V | 18:12:15 | 02:22:48 | 00:00:00 | |
| DL1XH-west | 2026-08-31 00:40:39 | 52.03182 | 8.16476 | 85° | 18km/h | 31335m | 4.5m/s | -43.4°C | 0% | 10.1hPa | 2.5V | 18:12:15 | 02:22:47 | 00:00:00 | |
| HSKMA3-T | 2026-08-31 00:40:38 | 52.03182 | 8.16468 | 91° | 18km/h | 31330m | 5.6m/s | -43.4°C | 0% | 10.1hPa | 2.5V | 18:12:15 | 02:22:46 | 00:00:00 | |
| DL1XH-15 | 2026-08-31 00:40:38 | 52.03183 | 8.16455 | 112° | 16km/h | 31319m | 4.8m/s | -43.4°C | 2.7% | 10.2hPa | 2.6V | 08:30:00 | 02:22:44 | 00:00:00 | |
| AA1-15 | 2026-08-31 00:40:33 | 52.03187 | 8.16435 | 91° | 18km/h | 31304m | 5.7m/s | -43.5°C | 0% | 10.2hPa | 2.5V | 18:12:15 | 02:22:41 | 00:00:00 | |
| DL1XH1-15 | 2026-08-31 00:40:33 | 52.03184 | 8.16403 | 97° | 11km/h | 31278m | 5.8m/s | -43.5°C | 2.7% | 10.2hPa | 2.5V | 08:30:00 | 02:22:36 | 00:00:00 | |
| DJ2DS-15 | 2026-08-31 00:40:33 | 52.03186 | 8.16435 | 91° | 18km/h | 31304m | 5.7m/s | -43.4°C | 2.7% | 10.1hPa | 2.5V | 00:00:00 | 02:22:41 | 08:30:00 | |
| DM0DOS-11 | 2026-08-31 00:40:32 | 52.03184 | 8.16408 | 84° | 13km/h | 31284m | 5.7m/s | -43.5°C | 2.7% | 10.2hPa | 2.5V | 08:30:00 | 02:22:37 | 00:00:00 | |
| DO2JMG | 2026-08-31 00:40:29 | 52.03184 | 8.16408 | 85° | 13km/h | 31284m | 5.7m/s | -43.5°C | 0% | 10.2hPa | 2.5V | 18:12:15 | 02:22:37 | 00:00:00 | |
| DL1XH-west | 2026-08-31 00:40:29 | 52.03184 | 8.16403 | 98° | 11km/h | 31278m | 5.8m/s | -43.5°C | 0% | 10.2hPa | 2.5V | 18:12:15 | 02:22:36 | 00:00:00 | |
| DO2SHX-10 | 2026-08-31 00:40:29 | 52.03184 | 8.16408 | 85° | 13km/h | 31285m | 5.7m/s | -43.4°C | 2.7% | 10.2hPa | 2.6V | 00:00:00 | 02:22:37 | 00:00:00 | |
| DL1XH-15 | 2026-08-31 00:40:28 | 52.03185 | 8.16393 | 100° | 13km/h | 31268m | 4.4m/s | -43.5°C | 2.7% | 10.2hPa | 2.6V | 08:30:00 | 02:22:34 | 00:00:00 | |
| DF8AY | 2026-08-31 00:40:27 | 52.03185 | 8.16393 | 101° | 15km/h | 31268m | 4.4m/s | -43.5°C | 0% | 10.2hPa | 2.6V | 18:12:15 | 02:22:34 | 00:00:00 | |
| HSKMA3-T | 2026-08-31 00:40:27 | 52.03184 | 8.16398 | 107° | 13km/h | 31273m | 5m/s | -43.5°C | 0% | 10.2hPa | 2.6V | 18:12:15 | 02:22:35 | 00:00:00 | |
| DK9SH | 2026-08-31 00:40:27 | 52.03184 | 8.16398 | 108° | 13km/h | 31273m | 5.0m/s | -43.5°C | 0.6% | 10.2hPa | 2.5V | 00:00:00 | 00:00:00 | 00:00:00 | |
| DO2SHX-10 | 2026-08-31 00:40:26 | 52.03185 | 8.16393 | 101° | 16km/h | 31269m | 4.4m/s | -43.5°C | 2.7% | 10.2hPa | 2.5V | 00:00:00 | 02:22:34 | 00:00:00 | |
| DD1CC2-15 | 2026-08-31 00:40:25 | 52.03185 | 8.16387 | 91° | 16km/h | 31264m | 5.4m/s | -43.5°C | 0.6% | 10.2hPa | 2.5V | 00:00:00 | 00:00:00 | 00:00:00 | |
| DM0DOS-11 | 2026-08-31 00:40:24 | 52.03181 | 8.16326 | 108° | 16km/h | 31227m | 5.1m/s | -43.6°C | 2.7% | 10.3hPa | 2.5V | 08:30:00 | 02:22:26 | 00:00:00 | |
| DL1XH1-15 | 2026-08-31 00:40:23 | 52.03181 | 8.16326 | 108° | 16km/h | 31227m | 5.1m/s | -43.6°C | 2.7% | 10.3hPa | 2.5V | 08:30:00 | 02:22:26 | 00:00:00 | |
| AA1-15 | 2026-08-31 00:40:22 | 52.03182 | 8.16361 | 75° | 26km/h | 31248m | 4.3m/s | -43.6°C | 0% | 10.3hPa | 2.6V | 18:12:15 | 02:22:30 | 00:00:00 | |
| DL1XH-west | 2026-08-31 00:40:19 | 52.03180 | 8.16333 | 95° | 18km/h | 31232m | 5.8m/s | -43.6°C | 0% | 10.3hPa | 2.5V | 18:12:15 | 02:22:27 | 00:00:00 | |
| DL1NUX | 2026-08-31 00:40:18 | 52.03182 | 8.16320 | 114° | 15km/h | 31222m | 4.3m/s | -43.6°C | 2.7% | 10.3hPa | 2.6V | 08:30:00 | 02:22:25 | 00:00:00 | |
| DO2JMG | 2026-08-31 00:40:18 | 52.03181 | 8.16326 | 108° | 16km/h | 31227m | 5.1m/s | -43.6°C | 0% | 10.3hPa | 2.5V | 18:12:15 | 02:22:26 | 00:00:00 | |
| HSKMA3-T | 2026-08-31 00:40:17 | 52.03182 | 8.16320 | 115° | 15km/h | 31222m | 4.3m/s | -43.7°C | 0% | 10.3hPa | 2.6V | 18:12:15 | 02:22:25 | 00:00:00 | |
| DF8AY | 2026-08-31 00:40:15 | 52.03181 | 8.16260 | 86° | 22km/h | 31187m | 5.8m/s | -43.7°C | 0% | 10.3hPa | 2.5V | 18:12:15 | 02:22:18 | 00:00:00 | |
| GOEST3-10 | 2026-08-31 00:40:15 | 52.03184 | 8.16308 | 98° | 24km/h | 31213m | 5.4m/s | -43.6°C | 2.7% | 10.3hPa | 2.5V | 00:00:00 | 00:00:00 | 00:00:00 | |
| DO2SHX-10 | 2026-08-31 00:40:14 | 52.03184 | 8.16299 | 87° | 24km/h | 31208m | 5.4m/s | -43.6°C | 2.7% | 10.3hPa | 2.5V | 00:00:00 | 02:22:22 | 00:00:00 | |
| DJ2DS-15 | 2026-08-31 00:40:13 | 52.03184 | 8.16290 | 82° | 18km/h | 31203m | 4.8m/s | -43.6°C | 2.7% | 10.3hPa | 2.5V | 00:00:00 | 02:22:21 | 00:00:00 | |
| DM0DOS-11 | 2026-08-31 00:40:12 | 52.03181 | 8.16251 | 93° | 18km/h | 31182m | 5.3m/s | -43.7°C | 2.7% | 10.4hPa | 2.5V | 08:30:00 | 02:22:17 | 00:00:00 | |
| AA1-15 | 2026-08-31 00:40:12 | 52.03183 | 8.16280 | 80° | 26km/h | 31198m | 4.4m/s | -43.7°C | 0% | 10.3hPa | 2.6V | 18:12:15 | 02:22:20 | 00:00:00 | |
| DJ8HS-15 | 2026-08-31 00:40:12 | 52.03183 | 8.16280 | 81° | 16km/h | 31198m | 4.4m/s | -43.6°C | 2.7% | 10.3hPa | 2.5V | 00:00:00 | 02:22:20 | 00:00:00 | |
| DD8BA-10 | 2026-08-31 00:40:11 | 52.03182 | 8.16269 | 82° | 18km/h | 31194m | 5.0m/s | -43.7°C | 2.7% | 10.3hPa | 2.5V | 00:00:00 | 00:00:00 | 00:00:00 | |
| GOEST3-10 | 2026-08-31 00:40:10 | 52.03181 | 8.16260 | 87° | 18km/h | 31188m | 5.7m/s | -43.7°C | 2.7% | 10.3hPa | 2.5V | 00:00:00 | 02:22:18 | 08:30:00 | |
| DO3DL | 2026-08-31 00:40:09 | 52.03181 | 8.16260 | 87° | 22km/h | 31188m | 5.8m/s | -43.7°C | 0.6% | 10.3hPa | 2.6V | 00:00:00 | 00:00:00 | 00:00:00 | |
| DL1NUX | 2026-08-31 00:40:08 | 52.03182 | 8.16238 | 96° | 15km/h | 31172m | 4.5m/s | -43.7°C | 2.7% | 10.3hPa | 2.6V | 08:30:00 | 02:22:15 | 00:00:00 | |
| DO2JMG | 2026-08-31 00:40:08 | 52.03182 | 8.16244 | 99° | 16km/h | 31177m | 4.6m/s | -43.8°C | 0% | 10.4hPa | 2.5V | 18:12:15 | 02:22:16 | 00:00:00 | |
| HSKMA3-T | 2026-08-31 00:40:07 | 52.03182 | 8.16238 | 97° | 15km/h | 31173m | 4.5m/s | -43.7°C | 0% | 10.4hPa | 2.6V | 18:12:15 | 02:22:15 | 00:00:00 | |
| DF8AY | 2026-08-31 00:40:05 | 52.03182 | 8.16225 | 81° | 16km/h | 31162m | 5.4m/s | -43.7°C | 0% | 10.4hPa | 2.5V | 18:12:15 | 02:22:13 | 00:00:00 | |
| DO2SHX-10 | 2026-08-31 00:40:05 | 52.03182 | 8.16225 | 81° | 16km/h | 31162m | 5.4m/s | -43.6°C | 2.7% | 10.3hPa | 2.5V | 00:00:00 | 02:22:13 | 08:30:00 | |
| DL1XH1-15 | 2026-08-31 00:40:03 | 52.03175 | 8.16190 | 60° | 11km/h | 31126m | 4.6m/s | -43.8°C | 2.7% | 10.4hPa | 2.5V | 08:30:00 | 02:22:06 | 00:00:00 | |
| DL3AQ-11 | 2026-08-31 00:40:03 | 52.03179 | 8.16205 | 72° | 13km/h | 31148m | 5.5m/s | -43.7°C | 0.6% | 10.4hPa | 2.5V | 00:00:00 | 00:00:00 | 00:00:00 | |
| DM0DOS-11 | 2026-08-31 00:40:02 | 52.03176 | 8.16193 | 66° | 7km/h | 31130m | 4.8m/s | -43.7°C | 2.7% | 10.4hPa | 2.5V | 08:30:00 | 02:22:07 | 00:00:00 | |
| AA1-15 | 2026-08-31 00:40:01 | 52.03178 | 8.16200 | 73° | 11km/h | 31141m | 6.3m/s | -43.7°C | 0% | 10.4hPa | 2.6V | 18:12:15 | 02:22:09 | 00:00:00 | |
| BIOWL1-15 | 2026-08-31 00:40:00 | 52.03175 | 8.16190 | 61° | 11km/h | 31126m | 4.6m/s | -43.8°C | 0% | 10.4hPa | 2.5V | 18:12:15 | 02:22:06 | 00:00:00 | |
| GOEST3-10 | 2026-08-31 00:40:00 | 52.03177 | 8.16196 | 73° | 13km/h | 31136m | 5.3m/s | -43.7°C | 2.7% | 10.4hPa | 2.6V | 00:00:00 | 02:22:08 | 00:00:00 | |
| DO2SHX-10 | 2026-08-31 00:39:59 | 52.03176 | 8.16193 | 67° | 11km/h | 31131m | 4.7m/s | -43.7°C | 2.7% | 10.4hPa | 2.6V | 00:00:00 | 02:22:07 | 00:00:00 | |
| DL1XH-15 | 2026-08-31 00:39:58 | 52.03171 | 8.16179 | 56° | 20km/h | 31115m | 6.2m/s | -43.8°C | 2.7% | 10.5hPa | 2.6V | 08:30:00 | 02:22:04 | 00:00:00 | |
| DL1NUX | 2026-08-31 00:39:58 | 52.03173 | 8.16185 | 57° | 15km/h | 31121m | 5m/s | -43.8°C | 2.6% | 10.4hPa | 2.6V | 08:30:00 | 02:22:05 | 00:00:00 | |
| DO2JMG | 2026-08-31 00:39:57 | 52.03174 | 8.16185 | 57° | 15km/h | 31121m | 5m/s | -43.8°C | 0% | 10.4hPa | 2.6V | 18:12:15 | 02:22:05 | 00:00:00 | |
| HSKMA3-T | 2026-08-31 00:39:57 | 52.03171 | 8.16179 | 57° | 20km/h | 31115m | 6.3m/s | -43.8°C | 0% | 10.5hPa | 2.6V | 18:12:15 | 02:22:04 | 00:00:00 | |
| DF8AY | 2026-08-31 00:39:53 | 52.03163 | 8.16157 | 66° | 20km/h | 31100m | 4.3m/s | -43.9°C | 0% | 10.5hPa | 2.5V | 18:12:15 | 02:22:01 | 00:00:00 | |
| DL3AQ-11 | 2026-08-31 00:39:52 | 52.03161 | 8.16145 | 101° | 7km/h | 31090m | 5.9m/s | -44.0°C | 0.6% | 10.5hPa | 2.5V | 00:00:00 | 00:00:00 | 00:00:00 | |
| DL1XH1-15 | 2026-08-31 00:39:51 | 52.03165 | 8.16141 | 144° | 5km/h | 31075m | 4.7m/s | -44.1°C | 2.7% | 10.5hPa | 2.5V | 08:30:00 | 02:21:56 | 00:00:00 | |
| AA1-15 | 2026-08-31 00:39:51 | 52.03161 | 8.16145 | 102° | 9km/h | 31090m | 5.9m/s | -44°C | 0% | 10.5hPa | 2.6V | 18:12:15 | 02:21:59 | 00:00:00 | |
| DF7PN | 2026-08-31 00:39:50 | 52.03164 | 8.16142 | 164° | 5km/h | 31080m | 4.2m/s | -44.0°C | 0.6% | 10.5hPa | 2.6V | 00:00:00 | 00:00:00 | 00:00:00 | |
| DL1NUX | 2026-08-31 00:39:49 | 52.03165 | 8.16139 | 92° | 7km/h | 31070m | 5.4m/s | -44.1°C | 2.7% | 10.5hPa | 2.6V | 08:30:00 | 02:21:55 | 00:00:00 | |
| DL1XH-15 | 2026-08-31 00:39:49 | 52.03165 | 8.16135 | 75° | 13km/h | 31065m | 5.1m/s | -44.1°C | 2.7% | 10.5hPa | 2.6V | 08:30:00 | 02:21:54 | 00:00:00 | |
| BIOWL1-15 | 2026-08-31 00:39:47 | 52.03166 | 8.16139 | 92° | 7km/h | 31070m | 5.4m/s | -44.1°C | 0% | 10.5hPa | 2.6V | 18:12:15 | 02:21:55 | 00:00:00 | |
| DO2JMG | 2026-08-31 00:39:46 | 52.03165 | 8.16135 | 75° | 13km/h | 31065m | 5.1m/s | -44.1°C | 0% | 10.5hPa | 2.6V | 18:12:15 | 02:21:54 | 00:00:00 | |
| HSKMA3-T | 2026-08-31 00:39:46 | 52.03164 | 8.16128 | 71° | 20km/h | 31060m | 4.7m/s | -44.2°C | 0% | 10.5hPa | 2.5V | 18:12:15 | 02:21:53 | 00:00:00 | |
| GOEST3-10 | 2026-08-31 00:39:45 | 52.03164 | 8.16128 | 71° | 22km/h | 31060m | 4.6m/s | -44.1°C | 2.7% | 10.5hPa | 2.5V | 00:00:00 | 00:00:00 | 00:00:00 | |
| DO9LL-15 | 2026-08-31 00:39:44 | 52.03162 | 8.16120 | 73° | 11km/h | 31055m | 4.9m/s | -44.1°C | 2.7% | 10.5hPa | 2.5V | 00:00:00 | 02:21:52 | 00:00:00 | |
| DO3DL | 2026-08-31 00:39:43 | 52.03162 | 8.16120 | 74° | 24km/h | 31055m | 4.9m/s | -44.2°C | 0.6% | 10.6hPa | 2.5V | 00:00:00 | 00:00:00 | 00:00:00 | |
| DL4XJ-10 | 2026-08-31 00:39:42 | 52.03160 | 8.16101 | 83° | 11km/h | 31044m | 5.5m/s | -46.6°C | 0% | 0hPa | 2.5V | 00:00:00 | 00:00:00 | 00:00:00 | |
| DM0DOS-11 | 2026-08-31 00:39:41 | 52.03160 | 8.16080 | 97° | 11km/h | 31029m | 4.4m/s | -44.3°C | 2.8% | 10.6hPa | 2.5V | 08:30:00 | 02:21:47 | 00:00:00 | |
| AA1-15 | 2026-08-31 00:39:40 | 52.03159 | 8.16086 | 96° | 15km/h | 31034m | 4.6m/s | -44.3°C | 0% | 10.6hPa | 2.5V | 18:12:15 | 02:21:48 | 00:00:00 | |
| DF8AY | 2026-08-31 00:39:39 | 52.03160 | 8.16080 | 97° | 11km/h | 31029m | 4.4m/s | -44.3°C | 0% | 10.6hPa | 2.5V | 18:12:15 | 02:21:47 | 00:00:00 | |
| HTAHTA | 2026-08-31 00:39:39 | 52.03160 | 8.16076 | 87° | 7km/h | 31025m | 5.0m/s | -44.3°C | 0.6% | 10.6hPa | 2.5V | 00:00:00 | 00:00:00 | 00:00:00 | |
| DL1XH-15 | 2026-08-31 00:39:38 | 52.03157 | 8.16069 | 36° | 7km/h | 31008m | 4.8m/s | -44.2°C | 2.8% | 10.6hPa | 2.5V | 08:30:00 | 02:21:43 | 00:00:00 | |
| DL1NUX | 2026-08-31 00:39:38 | 52.03159 | 8.16073 | 64° | 7km/h | 31019m | 5.9m/s | -44.3°C | 2.8% | 10.6hPa | 2.6V | 08:30:00 | 02:21:45 | 00:00:00 | |
| DL1XH-west | 2026-08-31 00:39:37 | 52.03159 | 8.16073 | 65° | 7km/h | 31019m | 5.9m/s | -44.3°C | 0% | 10.6hPa | 2.6V | 18:12:15 | 02:21:45 | 00:00:00 | |
| DO2JMG | 2026-08-31 00:39:36 | 52.03158 | 8.16071 | 41° | 7km/h | 31013m | 5.5m/s | -44.3°C | 0% | 10.6hPa | 2.6V | 18:12:15 | 02:21:44 | 00:00:00 | |
| HSKMA3-T | 2026-08-31 00:39:35 | 52.03155 | 8.16067 | 53° | 7km/h | 31004m | 4.5m/s | -44.2°C | 0% | 10.7hPa | 2.5V | 18:12:15 | 02:21:42 | 00:00:00 | |
| DO2SHX-10 | 2026-08-31 00:39:35 | 52.03156 | 8.16069 | 37° | 7km/h | 31009m | 4.7m/s | -44.2°C | 2.8% | 10.6hPa | 2.5V | 00:00:00 | 02:21:43 | 00:00:00 | |
| DL8DAS-14 | 2026-08-31 00:39:34 | 52.03155 | 8.16067 | 52° | 5km/h | 31004m | 4.5m/s | -44.2°C | 0.6% | 10.7hPa | 2.5V | 00:00:00 | 00:00:00 | 00:00:00 | |
| DJ2DS-15 | 2026-08-31 00:39:33 | 52.03155 | 8.16064 | 90° | 9km/h | 30999m | 5.4m/s | -44.2°C | 2.8% | 10.6hPa | 2.5V | 00:00:00 | 02:21:41 | 00:00:00 | |
| DL1NUX | 2026-08-31 00:39:32 | 52.03162 | 8.16043 | 66° | 9km/h | 30967m | 5.9m/s | -44.2°C | 2.8% | 10.7hPa | 2.6V | 08:30:00 | 02:21:35 | 00:00:00 | |
| DO2SHX-10 | 2026-08-31 00:39:32 | 52.03155 | 8.16062 | 123° | 7km/h | 30993m | 6.1m/s | -44.2°C | 2.8% | 10.6hPa | 2.5V | 00:00:00 | 02:21:40 | 00:00:00 | |
| DL1XH1-15 | 2026-08-31 00:39:31 | 52.03162 | 8.16047 | 102° | 9km/h | 30973m | 6.2m/s | -44.2°C | 2.8% | 10.7hPa | 2.5V | 08:30:00 | 02:21:36 | 00:00:00 | |
| AA1-15 | 2026-08-31 00:39:29 | 52.03161 | 8.16051 | 124° | 11km/h | 30978m | 4.6m/s | -44.2°C | 0% | 10.7hPa | 2.5V | 18:12:15 | 02:21:37 | 00:00:00 | |
| DF8AY | 2026-08-31 00:39:28 | 52.03162 | 8.16047 | 103° | 9km/h | 30973m | 6.2m/s | -44.2°C | 0% | 10.7hPa | 2.5V | 18:12:15 | 02:21:36 | 00:00:00 | |
| DL1XH-15 | 2026-08-31 00:39:28 | 52.03159 | 8.16038 | 26° | 9km/h | 30957m | 4.4m/s | -44.1°C | 2.8% | 10.7hPa | 2.5V | 08:30:00 | 02:21:33 | 00:00:00 | |
| DL1XH-west | 2026-08-31 00:39:27 | 52.03162 | 8.16043 | 66° | 9km/h | 30967m | 5.9m/s | -44.2°C | 0% | 10.7hPa | 2.6V | 18:12:15 | 02:21:35 | 00:00:00 | |
| BIOWL1-15 | 2026-08-31 00:39:26 | 52.03161 | 8.16040 | 38° | 9km/h | 30962m | 4.9m/s | -44.2°C | 0% | 10.7hPa | 2.6V | 18:12:15 | 02:21:34 | 00:00:00 | |
| DO2JMG | 2026-08-31 00:39:25 | 52.03159 | 8.16038 | 27° | 9km/h | 30957m | 4.4m/s | -44.1°C | 0% | 10.7hPa | 2.5V | 18:12:15 | 02:21:33 | 00:00:00 | |
| HSKMA3-T | 2026-08-31 00:39:25 | 52.03156 | 8.16036 | 75° | 2km/h | 30947m | 5.6m/s | -44.1°C | 0% | 10.7hPa | 2.5V | 18:12:15 | 02:21:31 | 00:00:00 | |
| DO3DL | 2026-08-31 00:39:24 | 52.03157 | 8.16037 | 28° | 5km/h | 30953m | 4.6m/s | -44.1°C | 0.6% | 10.7hPa | 2.5V | 00:00:00 | 00:00:00 | 00:00:00 | |
| DD1CC2-15 | 2026-08-31 00:39:23 | 52.03156 | 8.16036 | 76° | 2km/h | 30948m | 5.6m/s | -44.1°C | 0.7% | 10.7hPa | 2.5V | 00:00:00 | 00:00:00 | 00:00:00 | |
| DL4XJ-10 | 2026-08-31 00:39:22 | 52.03157 | 8.16035 | 164° | 9km/h | 30942m | 5.6m/s | -46.5°C | 0% | 0hPa | 2.5V | 00:00:00 | 00:00:00 | 00:00:00 | |
| DM0DOS-11 | 2026-08-31 00:39:21 | 52.03164 | 8.16033 | 172° | 9km/h | 30927m | 5.3m/s | -44.1°C | 2.8% | 10.8hPa | 2.5V | 08:30:00 | 02:21:27 | 00:00:00 | |
| DF8AY | 2026-08-31 00:39:18 | 52.03166 | 8.16033 | 177° | 5km/h | 30921m | 6.1m/s | -44.1°C | 0% | 10.8hPa | 2.5V | 18:12:15 | 02:21:26 | 00:00:00 | |
| DL1XH-15 | 2026-08-31 00:39:18 | 52.03168 | 8.16035 | 264° | 2km/h | 30905m | 4.6m/s | -44.1°C | 2.8% | 10.8hPa | 2.5V | 08:30:00 | 02:21:23 | 00:00:00 | |
| DL1XH-west | 2026-08-31 00:39:16 | 52.03168 | 8.16034 | 274° | 2km/h | 30909m | 5m/s | -44.1°C | 0% | 10.8hPa | 2.6V | 18:12:15 | 02:21:24 | 00:00:00 | |
| DO2JMG | 2026-08-31 00:39:15 | 52.03168 | 8.16035 | 264° | 2km/h | 30905m | 4.6m/s | -44.1°C | 0% | 10.8hPa | 2.5V | 18:12:15 | 02:21:23 | 00:00:00 | |
| HSKMA3-T | 2026-08-31 00:39:14 | 52.03168 | 8.16035 | 183° | 4km/h | 30900m | 5m/s | -44.1°C | 0% | 10.8hPa | 2.5V | 18:12:15 | 02:21:22 | 00:00:00 | |
| DO9LL-15 | 2026-08-31 00:39:14 | 52.03168 | 8.16035 | 184° | 11km/h | 30900m | 5.0m/s | -44.1°C | 2.8% | 10.8hPa | 2.6V | 00:00:00 | 02:21:22 | 00:00:00 | |
| DO1YAY-16 | 2026-08-31 00:39:13 | 52.03171 | 8.16033 | 152° | 11km/h | 30889m | 5.8m/s | -44.1°C | 0.6% | 10.8hPa | 2.6V | 00:00:00 | 00:00:00 | 00:00:00 | |
| DL1NUX | 2026-08-31 00:39:12 | 52.03185 | 8.16015 | 119° | 5km/h | 30862m | 5.6m/s | -44°C | 2.8% | 10.9hPa | 2.6V | 08:30:00 | 02:21:15 | 00:00:00 | |
| DJ8HS-15 | 2026-08-31 00:39:12 | 52.03171 | 8.16033 | 153° | 15km/h | 30889m | 5.8m/s | -44.1°C | 2.8% | 10.8hPa | 2.5V | 00:00:00 | 02:21:20 | 00:00:00 | |
| DO2SHX-10 | 2026-08-31 00:39:11 | 52.03175 | 8.16030 | 148° | 16km/h | 30883m | 5.2m/s | -44.0°C | 2.8% | 10.8hPa | 2.5V | 00:00:00 | 02:21:19 | 00:00:00 | |
| DL8DAS-15 | 2026-08-31 00:39:10 | 52.03178 | 8.16026 | 143° | 18km/h | 30878m | 4.9m/s | -44.1°C | 0.6% | 10.9hPa | 2.5V | 00:00:00 | 00:00:00 | 00:00:00 | |
| DL1XH-15 | 2026-08-31 00:39:09 | 52.03186 | 8.16015 | 239° | 5km/h | 30852m | 5.2m/s | -44°C | 2.8% | 10.9hPa | 2.5V | 08:30:00 | 02:21:13 | 00:00:00 | |
| AA1-15 | 2026-08-31 00:39:09 | 52.03181 | 8.16022 | 136° | 15km/h | 30873m | 4.8m/s | -44.1°C | 0% | 10.9hPa | 2.5V | 18:12:15 | 02:21:17 | 00:00:00 | |
| DF8AY | 2026-08-31 00:39:07 | 52.03185 | 8.16015 | 119° | 5km/h | 30862m | 5.6m/s | -44°C | 0% | 10.9hPa | 2.6V | 18:12:15 | 02:21:15 | 00:00:00 | |
| DO2JMG | 2026-08-31 00:39:05 | 52.03186 | 8.16015 | 240° | 5km/h | 30852m | 5.2m/s | -44°C | 0% | 10.9hPa | 2.5V | 18:12:15 | 02:21:13 | 00:00:00 | |
| BIOWL1-15 | 2026-08-31 00:39:04 | 52.03192 | 8.16025 | 221° | 16km/h | 30834m | 4.9m/s | -44°C | 0% | 10.9hPa | 2.6V | 18:12:15 | 02:21:10 | 00:00:00 | |
| HSKMA3-T | 2026-08-31 00:39:03 | 52.03189 | 8.16021 | 227° | 15km/h | 30840m | 5.8m/s | -44°C | 0% | 10.9hPa | 2.5V | 18:12:15 | 02:21:11 | 00:00:00 | |
| DL8DAS-14 | 2026-08-31 00:39:03 | 52.03189 | 8.16021 | 226° | 15km/h | 30840m | 5.8m/s | -44.0°C | 0.6% | 10.9hPa | 2.6V | 00:00:00 | 00:00:00 | 00:00:00 | |
| DO2SHX-10 | 2026-08-31 00:39:02 | 52.03192 | 8.16025 | 222° | 15km/h | 30835m | 4.8m/s | -43.9°C | 2.8% | 10.9hPa | 2.6V | 00:00:00 | 02:21:10 | 00:00:00 | |
| DD8BA-10 | 2026-08-31 00:39:01 | 52.03195 | 8.16029 | 214° | 16km/h | 30830m | 4.4m/s | -43.9°C | 2.8% | 10.9hPa | 2.6V | 00:00:00 | 00:00:00 | 08:30:00 | |
| GOEST3-10 | 2026-08-31 00:39:00 | 52.03197 | 8.16032 | 201° | 13km/h | 30825m | 5.8m/s | -43.9°C | 2.8% | 10.9hPa | 2.5V | 00:00:00 | 02:21:08 | 00:00:00 | |
| DL1XH-15 | 2026-08-31 00:38:59 | 52.03209 | 8.16010 | 125° | 24km/h | 30797m | 6.2m/s | -43.8°C | 2.7% | 11hPa | 2.5V | 08:30:00 | 02:21:03 | 00:00:00 | |
| AA1-15 | 2026-08-31 00:38:58 | 52.03202 | 8.16029 | 124° | 11km/h | 30813m | 5.2m/s | -43.9°C | 0% | 10.9hPa | 2.5V | 18:12:15 | 02:21:06 | 00:00:00 | |
| DF8AY | 2026-08-31 00:38:57 | 52.03203 | 8.16024 | 117° | 16km/h | 30808m | 5m/s | -43.9°C | 0% | 10.9hPa | 2.6V | 18:12:15 | 02:21:05 | 00:00:00 | |
| DO2JMG | 2026-08-31 00:38:55 | 52.03209 | 8.16010 | 126° | 24km/h | 30797m | 6.3m/s | -43.8°C | 0% | 11hPa | 2.5V | 18:12:15 | 02:21:03 | 00:00:00 | |
| DL1XH-west | 2026-08-31 00:38:54 | 52.03212 | 8.16003 | 133° | 24km/h | 30791m | 5.4m/s | -43.8°C | 0% | 11hPa | 2.5V | 18:12:15 | 02:21:02 | 00:00:00 | |
| BIOWL1-15 | 2026-08-31 00:38:54 | 52.03222 | 8.15989 | 150° | 9km/h | 30775m | 6.5m/s | -43.7°C | 0% | 11hPa | 2.6V | 18:12:15 | 02:20:59 | 00:00:00 | |
| HSKMA3-T | 2026-08-31 00:38:53 | 52.03216 | 8.15996 | 139° | 20km/h | 30786m | 4.8m/s | -43.7°C | 0% | 11hPa | 2.5V | 18:12:15 | 02:21:01 | 00:00:00 | |
| DJ2DS-15 | 2026-08-31 00:38:53 | 52.03216 | 8.15996 | 140° | 13km/h | 30786m | 4.7m/s | -43.7°C | 2.7% | 11.0hPa | 2.6V | 00:00:00 | 02:21:01 | 00:00:00 | |
| DL1NUX | 2026-08-31 00:38:52 | 52.03226 | 8.15996 | 202° | 9km/h | 30746m | 5.1m/s | -43.8°C | 2.7% | 11.1hPa | 2.6V | 08:30:00 | 02:20:54 | 00:00:00 | |
| DJ8HS-15 | 2026-08-31 00:38:52 | 52.03220 | 8.15992 | 144° | 13km/h | 30781m | 4.8m/s | -43.7°C | 2.7% | 11.0hPa | 2.6V | 00:00:00 | 02:21:00 | 00:00:00 | |
| DD8BA-10 | 2026-08-31 00:38:51 | 52.03222 | 8.15989 | 151° | 9km/h | 30776m | 6.4m/s | -43.7°C | 2.7% | 11.0hPa | 2.5V | 00:00:00 | 00:00:00 | 00:00:00 | |
| DO2SHX-10 | 2026-08-31 00:38:50 | 52.03223 | 8.15988 | 195° | 5km/h | 30769m | 6.2m/s | -43.7°C | 2.7% | 11.0hPa | 2.5V | 00:00:00 | 02:20:58 | 00:00:00 | |
| DL1XH-15 | 2026-08-31 00:38:49 | 52.03228 | 8.15997 | 169° | 11km/h | 30741m | 4.4m/s | -43.8°C | 2.7% | 11.1hPa | 2.5V | 08:30:00 | 02:20:53 | 00:00:00 | |
| AA1-15 | 2026-08-31 00:38:47 | 52.03226 | 8.15996 | 203° | 9km/h | 30746m | 5.1m/s | -43.8°C | 0% | 11.1hPa | 2.6V | 18:12:15 | 02:20:54 | 00:00:00 | |
| DF8AY | 2026-08-31 00:38:46 | 52.03228 | 8.15997 | 170° | 11km/h | 30741m | 4.4m/s | -43.8°C | 0% | 11.1hPa | 2.5V | 18:12:15 | 02:20:53 | 00:00:00 | |
| DO2JMG | 2026-08-31 00:38:44 | 52.03231 | 8.15995 | 144° | 13km/h | 30737m | 5m/s | -43.8°C | 0% | 11.1hPa | 2.5V | 18:12:15 | 02:20:52 | 00:00:00 | |
| DL1XH-west | 2026-08-31 00:38:43 | 52.03234 | 8.15991 | 126° | 15km/h | 30731m | 6.6m/s | -43.8°C | 0% | 11.1hPa | 2.5V | 18:12:15 | 02:20:51 | 00:00:00 | |
| HSKMA3-T | 2026-08-31 00:38:42 | 52.03236 | 8.15985 | 113° | 20km/h | 30724m | 6.3m/s | -43.9°C | 0% | 11.1hPa | 2.6V | 18:12:15 | 02:20:50 | 00:00:00 | |
| DJ2DS-15 | 2026-08-31 00:38:42 | 52.03236 | 8.15985 | 112° | 18km/h | 30724m | 6.3m/s | -43.9°C | 0.6% | 11.1hPa | 2.5V | 00:00:00 | 00:00:00 | 00:00:00 | |
| DM0DOS-11 | 2026-08-31 00:38:41 | 52.03242 | 8.15959 | 116° | 24km/h | 30708m | 6m/s | -44°C | 2.7% | 11.2hPa | 2.5V | 08:30:00 | 02:20:47 | 00:00:00 | |
| BIOWL1-15 | 2026-08-31 00:38:40 | 52.03242 | 8.15959 | 116° | 24km/h | 30708m | 6m/s | -44°C | 0% | 11.2hPa | 2.5V | 18:12:15 | 02:20:47 | 00:00:00 | |
| GOEST3-10 | 2026-08-31 00:38:40 | 52.03239 | 8.15968 | 110° | 20km/h | 30714m | 5.1m/s | -43.9°C | 2.7% | 11.1hPa | 2.5V | 00:00:00 | 02:20:48 | 08:30:00 | |
| DL1NUX | 2026-08-31 00:38:38 | 52.03248 | 8.15945 | 140° | 18km/h | 30696m | 5m/s | -44.1°C | 2.8% | 11.2hPa | 2.6V | 08:30:00 | 02:20:45 | 00:00:00 | |
| AA1-15 | 2026-08-31 00:38:36 | 52.03251 | 8.15942 | 151° | 15km/h | 30692m | 4.6m/s | -44.1°C | 0% | 11.2hPa | 2.6V | 18:12:15 | 02:20:44 | 00:00:00 | |
| DF8AY | 2026-08-31 00:38:34 | 52.03256 | 8.15939 | 160° | 4km/h | 30680m | 6.7m/s | -44.2°C | 0% | 11.2hPa | 2.5V | 18:12:15 | 02:20:42 | 00:00:00 | |
| DO2JMG | 2026-08-31 00:38:33 | 52.03256 | 8.15938 | 90° | 2km/h | 30674m | 5.7m/s | -44.2°C | 0% | 11.2hPa | 2.5V | 18:12:15 | 02:20:41 | 00:00:00 | |
| HSKMA3-T | 2026-08-31 00:38:31 | 52.03256 | 8.15935 | 108° | 7km/h | 30664m | 4.7m/s | -44.2°C | 0% | 11.2hPa | 2.6V | 18:12:15 | 02:20:39 | 00:00:00 | |
| BIOWL1-15 | 2026-08-31 00:38:29 | 52.03271 | 8.15910 | 141° | 33km/h | 30640m | 5m/s | -44.3°C | 0% | 11.2hPa | 2.6V | 18:12:15 | 02:20:35 | 00:00:00 | |
| DF8AY | 2026-08-31 00:38:28 | 52.03307 | 8.15854 | 151° | 13km/h | 30583m | 5.9m/s | -44.2°C | 0% | 11.3hPa | 2.5V | 18:12:15 | 02:20:25 | 00:00:00 | |
| AA1-15 | 2026-08-31 00:38:25 | 52.03283 | 8.15893 | 136° | 29km/h | 30630m | 6.2m/s | -44.3°C | 0% | 11.3hPa | 2.5V | 18:12:15 | 02:20:33 | 00:00:00 | |
| DO2JMG | 2026-08-31 00:38:23 | 52.03291 | 8.15878 | 124° | 20km/h | 30618m | 5.4m/s | -44.2°C | 0% | 11.3hPa | 2.5V | 18:12:15 | 02:20:31 | 00:00:00 | |
| DL1XH-west | 2026-08-31 00:38:22 | 52.03296 | 8.15867 | 126° | 15km/h | 30607m | 6.3m/s | -44.2°C | 0% | 11.3hPa | 2.6V | 18:12:15 | 02:20:29 | 00:00:00 | |
| DM0DOS-11 | 2026-08-31 00:38:21 | 52.03301 | 8.15860 | 149° | 13km/h | 30594m | 5.8m/s | -44.2°C | 2.8% | 11.3hPa | 2.6V | 08:30:00 | 02:20:27 | 00:00:00 | |
| HSKMA3-T | 2026-08-31 00:38:21 | 52.03298 | 8.15863 | 139° | 13km/h | 30601m | 6.4m/s | -44.2°C | 0% | 11.3hPa | 2.6V | 18:12:15 | 02:20:28 | 00:00:00 | |
| DF8AY | 2026-08-31 00:38:18 | 52.03323 | 8.15836 | 145° | 31km/h | 30561m | 6.7m/s | -44.2°C | 0% | 11.4hPa | 2.6V | 18:12:15 | 02:20:21 | 00:00:00 | |
| AA1-15 | 2026-08-31 00:38:15 | 52.03317 | 8.15842 | 144° | 26km/h | 30567m | 5m/s | -44.2°C | 0% | 11.4hPa | 2.6V | 18:12:15 | 02:20:22 | 00:00:00 | |
| DD1CC3-15 | 2026-08-31 00:38:15 | 52.03313 | 8.15847 | 143° | 18km/h | 30572m | 5.0m/s | -44.2°C | 0.7% | 11.4hPa | 2.6V | 00:00:00 | 00:00:00 | 00:00:00 | |
| DO9LL-15 | 2026-08-31 00:38:14 | 52.03317 | 8.15842 | 144° | 22km/h | 30567m | 5.0m/s | -44.1°C | 2.8% | 11.3hPa | 2.6V | 00:00:00 | 02:20:22 | 00:00:00 | |
| DM0DOS-11 | 2026-08-31 00:38:13 | 52.03354 | 8.15799 | 137° | 37km/h | 30538m | 5.7m/s | -44.2°C | 2.8% | 11.4hPa | 2.6V | 08:30:00 | 02:20:17 | 00:00:00 | |
| DJ2DS-15 | 2026-08-31 00:38:13 | 52.03323 | 8.15836 | 146° | 27km/h | 30561m | 6.7m/s | -44.1°C | 2.8% | 11.3hPa | 2.6V | 00:00:00 | 02:20:21 | 00:00:00 | |
| DJ8HS-15 | 2026-08-31 00:38:12 | 52.03330 | 8.15828 | 147° | 26km/h | 30554m | 7.0m/s | -44.1°C | 2.8% | 11.3hPa | 2.6V | 00:00:00 | 02:20:20 | 00:00:00 | |
| DO2JMG | 2026-08-31 00:38:12 | 52.03330 | 8.15828 | 146° | 37km/h | 30554m | 7.1m/s | -44.2°C | 0% | 11.4hPa | 2.5V | 18:12:15 | 02:20:20 | 00:00:00 | |
| DL1XH1-15 | 2026-08-31 00:38:11 | 52.03360 | 8.15789 | 130° | 29km/h | 30531m | 6.6m/s | -44.2°C | 2.8% | 11.5hPa | 2.6V | 08:30:00 | 02:20:16 | 00:00:00 | |
| DL1XH-west | 2026-08-31 00:38:10 | 52.03347 | 8.15809 | 142° | 40km/h | 30542m | 4.5m/s | -44.2°C | 0% | 11.4hPa | 2.5V | 18:12:15 | 02:20:18 | 00:00:00 | |
| BIOWL1-15 | 2026-08-31 00:38:08 | 52.03360 | 8.15789 | 130° | 29km/h | 30532m | 6.6m/s | -44.3°C | 0% | 11.5hPa | 2.6V | 18:12:15 | 02:20:16 | 00:00:00 | |
| DL1XH-15 | 2026-08-31 00:38:05 | 52.03367 | 8.15767 | 111° | 13km/h | 30514m | 5.5m/s | -44.2°C | 2.8% | 11.5hPa | 2.5V | 08:30:00 | 02:20:13 | 00:00:00 | |
| AA1-15 | 2026-08-31 00:38:03 | 52.03371 | 8.15759 | 143° | 15km/h | 30502m | 6.2m/s | -44.2°C | 0% | 11.5hPa | 2.6V | 18:12:15 | 02:20:11 | 00:00:00 | |
| DO2JMG | 2026-08-31 00:38:02 | 52.03375 | 8.15755 | 150° | 18km/h | 30496m | 5.6m/s | -44.3°C | 0% | 11.5hPa | 2.5V | 18:12:15 | 02:20:10 | 00:00:00 | |
| DM0DOS-11 | 2026-08-31 00:38:01 | 52.03389 | 8.15739 | 136° | 26km/h | 30478m | 6.8m/s | -44.4°C | 2.8% | 11.5hPa | 2.6V | 08:30:00 | 02:20:07 | 00:00:00 | |
| DL1XH-west | 2026-08-31 00:38:00 | 52.03384 | 8.15746 | 144° | 24km/h | 30485m | 5.8m/s | -44.3°C | 0% | 11.5hPa | 2.5V | 18:12:15 | 02:20:08 | 00:00:00 | |
| DO2SHX-10 | 2026-08-31 00:38:00 | 52.03384 | 8.15745 | 145° | 26km/h | 30485m | 5.7m/s | -44.3°C | 2.8% | 11.5hPa | 2.5V | 00:00:00 | 02:20:08 | 00:00:00 | |
| DD1CC2-15 | 2026-08-31 00:37:59 | 52.03384 | 8.15745 | 145° | 24km/h | 30485m | 5.8m/s | -44.3°C | 0.6% | 11.5hPa | 2.5V | 00:00:00 | 00:00:00 | 00:00:00 | |
| DL1NUX | 2026-08-31 00:37:58 | 52.03397 | 8.15722 | 124° | 29km/h | 30466m | 5.6m/s | -44.4°C | 2.8% | 11.6hPa | 2.5V | 08:30:00 | 02:20:05 | 00:00:00 | |
| BIOWL1-15 | 2026-08-31 00:37:58 | 52.03393 | 8.15731 | 128° | 27km/h | 30472m | 6.3m/s | -44.4°C | 0% | 11.6hPa | 2.6V | 18:12:15 | 02:20:06 | 00:00:00 | |
| AA1-15 | 2026-08-31 00:37:53 | 52.03417 | 8.15678 | 120° | 18km/h | 30438m | 5.4m/s | -44.5°C | 0% | 11.6hPa | 2.5V | 18:12:15 | 02:20:00 | 00:00:00 | |
| DL1NUX | 2026-08-31 00:37:52 | 52.03416 | 8.15664 | 101° | 2km/h | 30408m | 6.2m/s | -44.5°C | 2.9% | 11.7hPa | 2.5V | 08:30:00 | 02:19:55 | 00:00:00 | |
| DL3AQ-11 | 2026-08-31 00:37:52 | 52.03419 | 8.15672 | 104° | 11km/h | 30432m | 7.1m/s | -44.5°C | 0.7% | 11.6hPa | 2.6V | 00:00:00 | 00:00:00 | 00:00:00 | |
| DL1XH1-15 | 2026-08-31 00:37:51 | 52.03416 | 8.15665 | 21° | 5km/h | 30414m | 5m/s | -44.5°C | 2.9% | 11.7hPa | 2.6V | 08:30:00 | 02:19:56 | 00:00:00 | |
| DO2JMG | 2026-08-31 00:37:51 | 52.03419 | 8.15672 | 105° | 13km/h | 30432m | 7.1m/s | -44.5°C | 0% | 11.6hPa | 2.5V | 18:12:15 | 02:19:59 | 00:00:00 | |
| SONCRA | 2026-08-31 00:37:51 | 52.03419 | 8.15668 | 69° | 7km/h | 30425m | 6.6m/s | -44.5°C | 0.7% | 11.7hPa | 2.5V | 00:00:00 | 00:00:00 | 00:00:00 | |
| SMARD9-15 | 2026-08-31 00:37:50 | 52.03418 | 8.15666 | 34° | 5km/h | 30419m | 5.6m/s | -44.5°C | 0.7% | 11.6hPa | 2.5V | 00:00:00 | 00:00:00 | 00:00:00 | |
| DL1XH-15 | 2026-08-31 00:37:49 | 52.03419 | 8.15661 | 151° | 15km/h | 30396m | 5.4m/s | -44.4°C | 2.8% | 11.7hPa | 2.5V | 08:30:00 | 02:19:53 | 00:00:00 | |
| DL1XH-west | 2026-08-31 00:37:49 | 52.03418 | 8.15666 | 34° | 7km/h | 30419m | 5.6m/s | -44.5°C | 0% | 11.6hPa | 2.6V | 18:12:15 | 02:19:57 | 00:00:00 | |
| BIOWL1-15 | 2026-08-31 00:37:47 | 52.03426 | 8.15652 | 132° | 22km/h | 30385m | 6.4m/s | -44.4°C | 0% | 11.7hPa | 2.6V | 18:12:15 | 02:19:51 | 00:00:00 | |
| DO2SHX-10 | 2026-08-31 00:37:47 | 52.03416 | 8.15664 | 102° | 7km/h | 30408m | 6.1m/s | -44.4°C | 2.9% | 11.6hPa | 2.6V | 00:00:00 | 02:19:55 | 00:00:00 | |
| DJ3KS | 2026-08-31 00:37:46 | 52.03417 | 8.15663 | 158° | 7km/h | 30402m | 6.0m/s | -44.5°C | 0.7% | 11.7hPa | 2.6V | 00:00:00 | 00:00:00 | 00:00:00 | |
| GOEST3-10 | 2026-08-31 00:37:45 | 52.03419 | 8.15661 | 152° | 22km/h | 30396m | 5.3m/s | -44.4°C | 2.8% | 11.6hPa | 2.6V | 00:00:00 | 00:00:00 | 00:00:00 | |
| DO3DL | 2026-08-31 00:37:44 | 52.03423 | 8.15658 | 144° | 18km/h | 30391m | 5.2m/s | -44.4°C | 0.6% | 11.7hPa | 2.6V | 00:00:00 | 00:00:00 | 00:00:00 | |
| DL1XH1-15 | 2026-08-31 00:37:43 | 52.03439 | 8.15601 | 107° | 26km/h | 30355m | 6.3m/s | -44.2°C | 2.8% | 11.7hPa | 2.6V | 08:30:00 | 02:19:46 | 00:00:00 | |
| DM0DOS-11 | 2026-08-31 00:37:42 | 52.03437 | 8.15612 | 104° | 29km/h | 30361m | 5.3m/s | -44.2°C | 2.8% | 11.7hPa | 2.6V | 08:30:00 | 02:19:47 | 00:00:00 | |
| DF8AY | 2026-08-31 00:37:41 | 52.03433 | 8.15634 | 110° | 27km/h | 30372m | 6m/s | -44.3°C | 0% | 11.7hPa | 2.5V | 18:12:15 | 02:19:49 | 00:00:00 | |
| DO2JMG | 2026-08-31 00:37:40 | 52.03435 | 8.15623 | 104° | 29km/h | 30366m | 5.8m/s | -44.3°C | 0% | 11.7hPa | 2.5V | 18:12:15 | 02:19:48 | 00:00:00 | |
| DL1XH-west | 2026-08-31 00:37:39 | 52.03437 | 8.15612 | 104° | 29km/h | 30361m | 5.3m/s | -44.3°C | 0% | 11.7hPa | 2.6V | 18:12:15 | 02:19:47 | 00:00:00 | |
| DL1NUX | 2026-08-31 00:37:38 | 52.03441 | 8.15592 | 114° | 22km/h | 30349m | 6m/s | -44.2°C | 2.8% | 11.8hPa | 2.5V | 08:30:00 | 02:19:45 | 00:00:00 | |
| BIOWL1-15 | 2026-08-31 00:37:37 | 52.03446 | 8.15577 | 125° | 5km/h | 30332m | 6.8m/s | -44.2°C | 0% | 11.8hPa | 2.5V | 18:12:15 | 02:19:42 | 00:00:00 | |
| DL4BBY-15 | 2026-08-31 00:37:36 | 52.03443 | 8.15584 | 123° | 13km/h | 30344m | 5.1m/s | -46.6°C | 0% | 0hPa | 2.6V | 00:00:00 | 00:00:00 | 00:00:00 | |
| HTAHTA | 2026-08-31 00:37:35 | 52.03446 | 8.15577 | 125° | 5km/h | 30332m | 6.8m/s | -44.2°C | 0.6% | 11.8hPa | 2.6V | 00:00:00 | 00:00:00 | 00:00:00 | |
| DO2SHX-10 | 2026-08-31 00:37:34 | 52.03446 | 8.15577 | 126° | 4km/h | 30332m | 6.7m/s | -44.2°C | 2.8% | 11.7hPa | 2.6V | 00:00:00 | 02:19:42 | 00:00:00 | |
| DJ2DS-15 | 2026-08-31 00:37:33 | 52.03447 | 8.15576 | 106° | 15km/h | 30325m | 6.5m/s | -44.2°C | 2.8% | 11.8hPa | 2.6V | 00:00:00 | 02:19:41 | 08:30:00 | |
| DL1NUX | 2026-08-31 00:37:32 | 52.03466 | 8.15552 | 130° | 27km/h | 30284m | 6m/s | -44.3°C | 2.8% | 11.9hPa | 2.6V | 08:30:00 | 02:19:34 | 00:00:00 | |
| DF8AY | 2026-08-31 00:37:31 | 52.03447 | 8.15574 | 143° | 5km/h | 30314m | 5.2m/s | -44.2°C | 0% | 11.8hPa | 2.6V | 18:12:15 | 02:19:39 | 00:00:00 | |
| DL1XH1-15 | 2026-08-31 00:37:31 | 52.03456 | 8.15566 | 147° | 24km/h | 30295m | 5.6m/s | -44.2°C | 2.8% | 11.8hPa | 2.5V | 08:30:00 | 02:19:36 | 00:00:00 | |
| DL1XH-west | 2026-08-31 00:37:29 | 52.03452 | 8.15570 | 151° | 16km/h | 30301m | 6.8m/s | -44.2°C | 0% | 11.8hPa | 2.5V | 18:12:15 | 02:19:37 | 00:00:00 | |
| BIOWL1-15 | 2026-08-31 00:37:25 | 52.03470 | 8.15542 | 120° | 27km/h | 30278m | 6.3m/s | -44.3°C | 0% | 11.9hPa | 2.6V | 18:12:15 | 02:19:33 | 00:00:00 | |
| EDDB2-11 | 2026-08-31 00:37:25 | 52.03473 | 8.15533 | 109° | 24km/h | 30272m | 5.6m/s | -44.3°C | 0.7% | 11.9hPa | 2.5V | 00:00:00 | 00:00:00 | 00:00:00 | |
| DD1CC1-15 | 2026-08-31 00:37:24 | 52.03473 | 8.15533 | 111° | 24km/h | 30272m | 5.6m/s | -44.3°C | 0.7% | 11.9hPa | 2.5V | 00:00:00 | 00:00:00 | 00:00:00 | |
| DL1XH1-15 | 2026-08-31 00:37:23 | 52.03482 | 8.15505 | 162° | 9km/h | 30238m | 4.8m/s | -44.1°C | 2.8% | 12hPa | 2.5V | 08:30:00 | 02:19:26 | 00:00:00 | |
| DK9SH | 2026-08-31 00:37:23 | 52.03474 | 8.15524 | 105° | 20km/h | 30267m | 5.3m/s | -44.3°C | 0.6% | 11.9hPa | 2.5V | 00:00:00 | 00:00:00 | 00:00:00 | |
| DO2SHX-10 | 2026-08-31 00:37:22 | 52.03475 | 8.15517 | 104° | 13km/h | 30261m | 5.6m/s | -44.2°C | 2.8% | 11.9hPa | 2.5V | 00:00:00 | 02:19:30 | 00:00:00 | |
| DM0DOS-11 | 2026-08-31 00:37:21 | 52.03480 | 8.15506 | 156° | 9km/h | 30243m | 5.7m/s | -44.1°C | 2.8% | 11.9hPa | 2.5V | 08:30:00 | 02:19:27 | 00:00:00 | |
| AA1-15 | 2026-08-31 00:37:20 | 52.03478 | 8.15508 | 136° | 9km/h | 30249m | 6.3m/s | -44.2°C | 0% | 11.9hPa | 2.6V | 18:12:15 | 02:19:28 | 00:00:00 | |
| GOEST3-10 | 2026-08-31 00:37:20 | 52.03478 | 8.15508 | 136° | 9km/h | 30249m | 6.2m/s | -44.1°C | 2.8% | 11.9hPa | 2.6V | 00:00:00 | 02:19:28 | 00:00:00 | |
| DL1XH-15 | 2026-08-31 00:37:19 | 52.03486 | 8.15499 | 95° | 7km/h | 30220m | 5.8m/s | -44°C | 2.8% | 12hPa | 2.6V | 08:30:00 | 02:19:23 | 00:00:00 | |
| DO2JMG | 2026-08-31 00:37:18 | 52.03482 | 8.15505 | 162° | 9km/h | 30238m | 4.8m/s | -44.1°C | 0% | 12hPa | 2.5V | 18:12:15 | 02:19:26 | 00:00:00 | |
| DL1NUX | 2026-08-31 00:37:18 | 52.03484 | 8.15503 | 151° | 7km/h | 30233m | 5.6m/s | -44.1°C | 2.8% | 12hPa | 2.5V | 08:30:00 | 02:19:25 | 00:00:00 | |
| BIOWL1-15 | 2026-08-31 00:37:14 | 52.03486 | 8.15495 | 96° | 9km/h | 30215m | 5.2m/s | -44°C | 0% | 12hPa | 2.5V | 18:12:15 | 02:19:22 | 00:00:00 | |
| DJ8HS-15 | 2026-08-31 00:37:14 | 52.03488 | 8.15486 | 115° | 15km/h | 30203m | 6.3m/s | -44.0°C | 2.8% | 12.0hPa | 2.5V | 00:00:00 | 02:19:20 | 00:00:00 | |
| DL1NUX | 2026-08-31 00:37:13 | 52.03492 | 8.15463 | 74° | 9km/h | 30174m | 5.2m/s | -44.1°C | 2.8% | 12.1hPa | 2.5V | 08:30:00 | 02:19:15 | 00:00:00 | |
| DM0DOS-11 | 2026-08-31 00:37:11 | 52.03492 | 8.15472 | 103° | 11km/h | 30186m | 6.2m/s | -44°C | 2.7% | 12.1hPa | 2.5V | 08:30:00 | 02:19:17 | 00:00:00 | |
| DL1XH1-15 | 2026-08-31 00:37:11 | 52.03492 | 8.15467 | 87° | 11km/h | 30179m | 6.5m/s | -44°C | 2.8% | 12.1hPa | 2.5V | 08:30:00 | 02:19:16 | 00:00:00 | |
| DF8AY | 2026-08-31 00:37:10 | 52.03491 | 8.15477 | 115° | 13km/h | 30192m | 5.1m/s | -44°C | 0% | 12.1hPa | 2.6V | 18:12:15 | 02:19:18 | 00:00:00 | |
| GOEST3-10 | 2026-08-31 00:37:10 | 52.03490 | 8.15477 | 116° | 11km/h | 30192m | 5.1m/s | -44.0°C | 2.7% | 12.0hPa | 2.6V | 00:00:00 | 02:19:18 | 08:30:00 | |
| DL1XH-15 | 2026-08-31 00:37:09 | 52.03491 | 8.15457 | 107° | 7km/h | 30163m | 5.6m/s | -44.1°C | 2.8% | 12.1hPa | 2.6V | 08:30:00 | 02:19:13 | 00:00:00 | |
| AA1-15 | 2026-08-31 00:37:09 | 52.03492 | 8.15472 | 103° | 11km/h | 30186m | 6.2m/s | -44°C | 0% | 12.1hPa | 2.5V | 18:12:15 | 02:19:17 | 00:00:00 | |
| HSKMA3-T | 2026-08-31 00:37:08 | 52.03492 | 8.15467 | 87° | 11km/h | 30179m | 6.5m/s | -44°C | 0% | 12.1hPa | 2.5V | 18:12:15 | 02:19:16 | 00:00:00 | |
| DO2JMG | 2026-08-31 00:37:07 | 52.03492 | 8.15463 | 75° | 9km/h | 30174m | 5.2m/s | -44.1°C | 0% | 12.1hPa | 2.5V | 18:12:15 | 02:19:15 | 00:00:00 | |
| DB0UT-7 | 2026-08-31 00:37:06 | 52.03491 | 8.15460 | 83° | 13km/h | 30169m | 5.0m/s | -44.0°C | 2.8% | 12.0hPa | 2.5V | 00:00:00 | 00:00:00 | 00:00:00 | |
| DO2SHX-10 | 2026-08-31 00:37:05 | 52.03491 | 8.15457 | 108° | 11km/h | 30164m | 5.6m/s | -44.1°C | 2.8% | 12.0hPa | 2.5V | 00:00:00 | 02:19:13 | 00:00:00 | |
| SP3BTT-10 | 2026-08-31 00:37:04 | 52.03492 | 8.15454 | 133° | 13km/h | 30157m | 6.6m/s | 0°C | 0% | 0hPa | 2.5V | 00:00:00 | 00:00:00 | 00:00:00 | |
| EDDB2-12 | 2026-08-31 00:37:03 | 52.03495 | 8.15451 | 142° | 13km/h | 30151m | 5.5m/s | -44.2°C | 0.6% | 12.1hPa | 2.5V | 00:00:00 | 00:00:00 | 00:00:00 | |
| SO1NDE-10 | 2026-08-31 00:37:02 | 52.03497 | 8.15447 | 140° | 13km/h | 30146m | 4.8m/s | -44.1°C | 2.8% | 12.1hPa | 2.5V | 00:00:00 | 02:19:10 | 00:00:00 | |
| DM0DOS-11 | 2026-08-31 00:37:01 | 52.03504 | 8.15429 | 100° | 18km/h | 30129m | 5.6m/s | -44.2°C | 2.8% | 12.2hPa | 2.5V | 08:30:00 | 02:19:07 | 00:00:00 | |
| BIOWL9-15 | 2026-08-31 00:37:00 | 52.03504 | 8.15429 | 100° | 18km/h | 30129m | 5.6m/s | -44.2°C | 0.6% | 12.2hPa | 2.6V | 00:00:00 | 00:00:00 | 00:00:00 | |
| DL1XH-15 | 2026-08-31 00:36:59 | 52.03507 | 8.15398 | 114° | 16km/h | 30106m | 5.8m/s | -44.3°C | 2.9% | 12.2hPa | 2.6V | 08:30:00 | 02:19:03 | 00:00:00 | |
| DL1NUX | 2026-08-31 00:36:58 | 52.03505 | 8.15413 | 94° | 20km/h | 30118m | 5m/s | -44.3°C | 2.8% | 12.2hPa | 2.5V | 08:30:00 | 02:19:05 | 00:00:00 | |
| AA1-15 | 2026-08-31 00:36:58 | 52.03504 | 8.15421 | 94° | 20km/h | 30123m | 5m/s | -44.2°C | 0% | 12.2hPa | 2.5V | 18:12:15 | 02:19:06 | 00:00:00 | |
| DL1XH-west | 2026-08-31 00:36:57 | 52.03505 | 8.15413 | 95° | 20km/h | 30118m | 5m/s | -44.3°C | 0% | 12.2hPa | 2.5V | 18:12:15 | 02:19:05 | 00:00:00 | |
| DO2JMG | 2026-08-31 00:36:56 | 52.03506 | 8.15405 | 103° | 20km/h | 30112m | 6.3m/s | -44.3°C | 0% | 12.2hPa | 2.5V | 18:12:15 | 02:19:04 | 00:00:00 | |
| DL3AQ-11 | 2026-08-31 00:36:56 | 52.03507 | 8.15398 | 114° | 16km/h | 30107m | 5.8m/s | -44.3°C | 0.7% | 12.2hPa | 2.6V | 00:00:00 | 00:00:00 | 00:00:00 | |
| EDDB2-11 | 2026-08-31 00:36:54 | 52.03511 | 8.15389 | 137° | 9km/h | 30096m | 5.0m/s | -44.2°C | 0.6% | 12.2hPa | 2.6V | 00:00:00 | 00:00:00 | 00:00:00 | |
| DJ2DS-15 | 2026-08-31 00:36:53 | 52.03511 | 8.15389 | 138° | 11km/h | 30096m | 5.0m/s | -44.2°C | 2.8% | 12.2hPa | 2.6V | 00:00:00 | 02:19:01 | 00:00:00 | |
| DL1NUX | 2026-08-31 00:36:52 | 52.03519 | 8.15384 | 155° | 13km/h | 30061m | 5.6m/s | -44.1°C | 2.8% | 12.3hPa | 2.6V | 08:30:00 | 02:18:55 | 00:00:00 | |
| DO2SHX-10 | 2026-08-31 00:36:52 | 52.03512 | 8.15387 | 145° | 4km/h | 30090m | 6.5m/s | -44.2°C | 2.9% | 12.2hPa | 2.5V | 00:00:00 | 02:19:00 | 00:00:00 | |
| DL1XH1-15 | 2026-08-31 00:36:51 | 52.03516 | 8.15386 | 167° | 9km/h | 30067m | 6.3m/s | -44.1°C | 2.8% | 12.3hPa | 2.6V | 08:30:00 | 02:18:56 | 00:00:00 | |
| DD8BA-10 | 2026-08-31 00:36:51 | 52.03513 | 8.15386 | 165° | 13km/h | 30084m | 5.9m/s | -44.2°C | 2.8% | 12.2hPa | 2.5V | 00:00:00 | 00:00:00 | 00:00:00 | |
| GOEST3-10 | 2026-08-31 00:36:50 | 52.03514 | 8.15386 | 200° | 9km/h | 30079m | 5.1m/s | -44.1°C | 2.8% | 12.2hPa | 2.5V | 00:00:00 | 02:18:58 | 00:00:00 | |
| DL1XH-15 | 2026-08-31 00:36:49 | 52.03525 | 8.15376 | 130° | 18km/h | 30051m | 5.4m/s | -44.1°C | 2.8% | 12.3hPa | 2.5V | 08:30:00 | 02:18:53 | 00:00:00 | |
| AA1-15 | 2026-08-31 00:36:48 | 52.03516 | 8.15386 | 167° | 9km/h | 30067m | 6.3m/s | -44.1°C | 0% | 12.3hPa | 2.6V | 18:12:15 | 02:18:56 | 00:00:00 | |
| DL1XH-west | 2026-08-31 00:36:47 | 52.03519 | 8.15384 | 156° | 13km/h | 30061m | 5.6m/s | -44.1°C | 0% | 12.3hPa | 2.6V | 18:12:15 | 02:18:55 | 00:00:00 | |
| HSKMA3-T | 2026-08-31 00:36:46 | 52.03522 | 8.15381 | 144° | 16km/h | 30056m | 4.8m/s | -44.1°C | 0% | 12.3hPa | 2.5V | 18:12:15 | 02:18:54 | 00:00:00 | |
| DO2JMG | 2026-08-31 00:36:45 | 52.03525 | 8.15376 | 130° | 18km/h | 30051m | 5.4m/s | -44.1°C | 0% | 12.3hPa | 2.5V | 18:12:15 | 02:18:53 | 00:00:00 | |
| BIOWL1-15 | 2026-08-31 00:36:43 | 52.03530 | 8.15363 | 104° | 18km/h | 30039m | 5.6m/s | -44.1°C | 0% | 12.3hPa | 2.6V | 18:12:15 | 02:18:51 | 00:00:00 | |
| DM0DOS-11 | 2026-08-31 00:36:42 | 52.03534 | 8.15342 | 155° | 11km/h | 30017m | 6m/s | -44°C | 2.8% | 12.3hPa | 2.5V | 08:30:00 | 02:18:47 | 00:00:00 | |
| DL8DAS-15 | 2026-08-31 00:36:42 | 52.03530 | 8.15356 | 101° | 16km/h | 30034m | 4.8m/s | -44.0°C | 0.7% | 12.4hPa | 2.5V | 00:00:00 | 00:00:00 | 00:00:00 | |
| DF8AY-15 | 2026-08-31 00:36:41 | 52.03531 | 8.15350 | 105° | 13km/h | 30029m | 4.8m/s | -44.0°C | 2.8% | 12.3hPa | 2.5V | 00:00:00 | 02:18:49 | 00:00:00 | |
| GOEST3-10 | 2026-08-31 00:36:40 | 52.03532 | 8.15345 | 123° | 11km/h | 30024m | 6.3m/s | -44.0°C | 2.8% | 12.3hPa | 2.5V | 00:00:00 | 02:18:48 | 00:00:00 | |
| DL1LOL-11 | 2026-08-31 00:36:39 | 52.03532 | 8.15345 | 124° | 11km/h | 30024m | 6.3m/s | -44.0°C | 0.6% | 12.4hPa | 2.6V | 00:00:00 | 00:00:00 | 00:00:00 | |
| DL1NUX | 2026-08-31 00:36:38 | 52.03540 | 8.15342 | 193° | 11km/h | 30006m | 4.8m/s | -44°C | 2.8% | 12.4hPa | 2.6V | 08:30:00 | 02:18:45 | 00:00:00 | |
| DL1XH-west | 2026-08-31 00:36:37 | 52.03540 | 8.15342 | 193° | 11km/h | 30007m | 4.8m/s | -44°C | 0% | 12.4hPa | 2.6V | 18:12:15 | 02:18:45 | 00:00:00 | |
| HSKMA3-T | 2026-08-31 00:36:35 | 52.03543 | 8.15343 | 181° | 4km/h | 29995m | 6m/s | -44°C | 0% | 12.4hPa | 2.5V | 18:12:15 | 02:18:43 | 00:00:00 | |
| DO2JMG | 2026-08-31 00:36:34 | 52.03544 | 8.15343 | 122° | 4km/h | 29990m | 5.2m/s | -44°C | 0% | 12.4hPa | 2.5V | 18:12:15 | 02:18:42 | 00:00:00 | |
| BIOWL1-15 | 2026-08-31 00:36:32 | 52.03548 | 8.15332 | 124° | 16km/h | 29973m | 6m/s | -44.1°C | 0% | 12.5hPa | 2.5V | 18:12:15 | 02:18:39 | 00:00:00 | |
| DJ8HS-15 | 2026-08-31 00:36:32 | 52.03546 | 8.15336 | 119° | 15km/h | 29979m | 6.3m/s | -44.0°C | 2.8% | 12.4hPa | 2.5V | 00:00:00 | 02:18:40 | 00:00:00 | |
| DD8BA-10 | 2026-08-31 00:36:31 | 52.03548 | 8.15332 | 125° | 16km/h | 29973m | 5.9m/s | -44.0°C | 2.8% | 12.4hPa | 2.5V | 00:00:00 | 00:00:00 | 00:00:00 | |
| DO2SHX-10 | 2026-08-31 00:36:30 | 52.03551 | 8.15326 | 127° | 20km/h | 29968m | 4.8m/s | -44.0°C | 2.8% | 12.4hPa | 2.6V | 00:00:00 | 02:18:38 | 00:00:00 | |
| DL1XH-15 | 2026-08-31 00:36:29 | 52.03559 | 8.15290 | 88° | 15km/h | 29940m | 5.1m/s | -44.1°C | 2.8% | 12.5hPa | 2.6V | 08:30:00 | 02:18:33 | 00:00:00 | |
| DL1XH1-15 | 2026-08-31 00:36:29 | 52.03556 | 8.15311 | 117° | 20km/h | 29958m | 5m/s | -44.1°C | 2.8% | 12.5hPa | 2.5V | 08:30:00 | 02:18:36 | 00:00:00 | |
| DL1XH-west | 2026-08-31 00:36:27 | 52.03558 | 8.15304 | 108° | 18km/h | 29952m | 6.3m/s | -44.1°C | 0% | 12.5hPa | 2.6V | 18:12:15 | 02:18:35 | 00:00:00 | |
| AA1-15 | 2026-08-31 00:36:26 | 52.03559 | 8.15297 | 95° | 16km/h | 29946m | 6.1m/s | -44.1°C | 0% | 12.5hPa | 2.6V | 18:12:15 | 02:18:34 | 00:00:00 | |
| HSKMA3-T | 2026-08-31 00:36:25 | 52.03559 | 8.15290 | 89° | 15km/h | 29940m | 5.1m/s | -44.1°C | 0% | 12.5hPa | 2.6V | 18:12:15 | 02:18:33 | 00:00:00 | |
| DO2JMG | 2026-08-31 00:36:23 | 52.03560 | 8.15281 | 113° | 9km/h | 29930m | 6m/s | -44.1°C | 0% | 12.6hPa | 2.5V | 18:12:15 | 02:18:31 | 00:00:00 | |
| BIOWL1-15 | 2026-08-31 00:36:22 | 52.03565 | 8.15274 | 150° | 9km/h | 29914m | 5m/s | -44.1°C | 0% | 12.6hPa | 2.6V | 18:12:15 | 02:18:28 | 00:00:00 | |
| DM0DOS-11 | 2026-08-31 00:36:22 | 52.03566 | 8.15272 | 137° | 7km/h | 29909m | 6m/s | -44.1°C | 2.8% | 12.6hPa | 2.6V | 08:30:00 | 02:18:27 | 00:00:00 | |
| DF8AY-15 | 2026-08-31 00:36:21 | 52.03563 | 8.15276 | 151° | 11km/h | 29919m | 4.7m/s | -44.0°C | 2.7% | 12.5hPa | 2.5V | 00:00:00 | 02:18:29 | 08:30:00 | |
| GOEST3-10 | 2026-08-31 00:36:20 | 52.03565 | 8.15274 | 150° | 9km/h | 29915m | 5.0m/s | -44.0°C | 2.8% | 12.5hPa | 2.6V | 00:00:00 | 02:18:28 | 00:00:00 | |
| DL1XH-15 | 2026-08-31 00:36:19 | 52.03571 | 8.15257 | 117° | 16km/h | 29887m | 6.1m/s | -44.1°C | 2.7% | 12.6hPa | 2.6V | 08:30:00 | 02:18:23 | 00:00:00 | |
| DL1XH-west | 2026-08-31 00:36:16 | 52.03569 | 8.15262 | 110° | 13km/h | 29893m | 5.2m/s | -44.1°C | 0% | 12.6hPa | 2.5V | 18:12:15 | 02:18:24 | 00:00:00 | |
| DF8AY | 2026-08-31 00:36:15 | 52.03571 | 8.15257 | 118° | 16km/h | 29887m | 6.1m/s | -44.1°C | 0% | 12.6hPa | 2.6V | 18:12:15 | 02:18:23 | 00:00:00 | |
| HSKMA3-T | 2026-08-31 00:36:14 | 52.03573 | 8.15251 | 122° | 18km/h | 29881m | 5.4m/s | -44.1°C | 0% | 12.6hPa | 2.6V | 18:12:15 | 02:18:22 | 00:00:00 | |
| DO2JMG | 2026-08-31 00:36:12 | 52.03577 | 8.15238 | 112° | 16km/h | 29872m | 4.5m/s | -44.1°C | 0% | 12.6hPa | 2.5V | 18:12:15 | 02:18:20 | 00:00:00 | |
| DO2SHX-10 | 2026-08-31 00:36:12 | 52.03577 | 8.15238 | 113° | 15km/h | 29873m | 4.4m/s | -44.0°C | 2.7% | 12.6hPa | 2.6V | 00:00:00 | 02:18:20 | 00:00:00 | |
| DD1CC3-15 | 2026-08-31 00:36:11 | 52.03578 | 8.15233 | 99° | 13km/h | 29867m | 6.2m/s | -44.1°C | 0.7% | 12.7hPa | 2.6V | 00:00:00 | 00:00:00 | 00:00:00 | |
| GOEST3-10 | 2026-08-31 00:36:10 | 52.03578 | 8.15229 | 73° | 5km/h | 29861m | 5.6m/s | -44.1°C | 2.8% | 12.6hPa | 2.6V | 00:00:00 | 02:18:18 | 00:00:00 | |
| DL1XH-15 | 2026-08-31 00:36:09 | 52.03578 | 8.15228 | 192° | 11km/h | 29835m | 4.9m/s | -44.2°C | 2.7% | 12.7hPa | 2.6V | 08:30:00 | 02:18:13 | 00:00:00 | |
| DL1XH-west | 2026-08-31 00:36:06 | 52.03578 | 8.15228 | 192° | 11km/h | 29835m | 4.9m/s | -44.3°C | 0% | 12.7hPa | 2.6V | 18:12:15 | 02:18:13 | 00:00:00 | |
| GOEST3-10 | 2026-08-31 00:36:06 | 52.03578 | 8.15228 | 193° | 11km/h | 29835m | 4.8m/s | -44.2°C | 2.7% | 12.7hPa | 2.6V | 00:00:00 | 00:00:00 | 00:00:00 | |
| DO3DL | 2026-08-31 00:36:05 | 52.03578 | 8.15228 | 193° | 11km/h | 29835m | 4.9m/s | -44.3°C | 0.6% | 12.7hPa | 2.6V | 00:00:00 | 00:00:00 | 00:00:00 | |
| DL1XH1-15 | 2026-08-31 00:36:03 | 52.03588 | 8.15204 | 101° | 15km/h | 29801m | 5.7m/s | -44.6°C | 2.8% | 12.8hPa | 2.6V | 08:30:00 | 02:18:06 | 00:00:00 | |
| HSKMA3-T | 2026-08-31 00:36:03 | 52.03584 | 8.15228 | 158° | 11km/h | 29826m | 4.8m/s | -44.3°C | 0% | 12.7hPa | 2.5V | 18:12:15 | 02:18:11 | 00:00:00 | |
| DO2JMG | 2026-08-31 00:36:02 | 52.03586 | 8.15225 | 129° | 9km/h | 29821m | 5.9m/s | -44.4°C | 0% | 12.7hPa | 2.5V | 18:12:15 | 02:18:10 | 00:00:00 | |
| EDDB2-12 | 2026-08-31 00:36:01 | 52.03587 | 8.15216 | 94° | 13km/h | 29811m | 4.6m/s | -44.5°C | 0.6% | 12.8hPa | 2.5V | 00:00:00 | 00:00:00 | 00:00:00 | |
| DO2SHX-10 | 2026-08-31 00:36:00 | 52.03587 | 8.15216 | 95° | 15km/h | 29811m | 4.5m/s | -44.4°C | 2.8% | 12.7hPa | 2.5V | 00:00:00 | 02:18:08 | 00:00:00 | |
| DL1XH-15 | 2026-08-31 00:35:59 | 52.03593 | 8.15189 | 130° | 11km/h | 29786m | 4.1m/s | -44.7°C | 2.8% | 12.8hPa | 2.5V | 08:30:00 | 02:18:03 | 00:00:00 | |
| DL1XH-west | 2026-08-31 00:35:55 | 52.03593 | 8.15189 | 131° | 11km/h | 29786m | 4.1m/s | -44.7°C | 0% | 12.8hPa | 2.5V | 18:12:15 | 02:18:03 | 00:00:00 | |
| DF8AY | 2026-08-31 00:35:54 | 52.03594 | 8.15187 | 126° | 7km/h | 29781m | 4.6m/s | -44.8°C | 0% | 12.8hPa | 2.5V | 18:12:15 | 02:18:02 | 00:00:00 | |
| HSKMA3-T | 2026-08-31 00:35:53 | 52.03595 | 8.15185 | 97° | 4km/h | 29776m | 6m/s | -44.8°C | 0% | 12.8hPa | 2.5V | 18:12:15 | 02:18:01 | 00:00:00 | |
| DO2JMG | 2026-08-31 00:35:52 | 52.03594 | 8.15184 | 29° | 4km/h | 29771m | 5.3m/s | -44.9°C | 0% | 12.8hPa | 2.6V | 18:12:15 | 02:18:00 | 00:00:00 | |
| EDDB2-11 | 2026-08-31 00:35:52 | 52.03593 | 8.15183 | 16° | 4km/h | 29766m | 4.3m/s | -44.9°C | 0.6% | 12.9hPa | 2.5V | 00:00:00 | 00:00:00 | 00:00:00 | |
| DD8BA-10 | 2026-08-31 00:35:51 | 52.03593 | 8.15183 | 17° | 15km/h | 29766m | 4.3m/s | -44.9°C | 2.8% | 12.8hPa | 2.5V | 00:00:00 | 00:00:00 | 00:00:00 | |
| GOEST3-10 | 2026-08-31 00:35:50 | 52.03592 | 8.15182 | 32° | 9km/h | 29762m | 4.6m/s | -44.9°C | 2.8% | 12.8hPa | 2.5V | 00:00:00 | 02:17:58 | 00:00:00 | |
| DL1XH-15 | 2026-08-31 00:35:49 | 52.03598 | 8.15161 | 102° | 22km/h | 29737m | 5.6m/s | -45°C | 2.8% | 12.9hPa | 2.5V | 08:30:00 | 02:17:53 | 00:00:00 | |
| BIOWL1-15 | 2026-08-31 00:35:46 | 52.03596 | 8.15168 | 113° | 18km/h | 29742m | 4.5m/s | -45°C | 0% | 12.9hPa | 2.6V | 18:12:15 | 02:17:54 | 00:00:00 | |
| DL1XH-west | 2026-08-31 00:35:45 | 52.03598 | 8.15161 | 102° | 22km/h | 29737m | 5.6m/s | -45°C | 0% | 12.9hPa | 2.5V | 18:12:15 | 02:17:53 | 00:00:00 | |
| DF8AY | 2026-08-31 00:35:44 | 52.03599 | 8.15151 | 92° | 24km/h | 29731m | 5.8m/s | -45.1°C | 0% | 12.9hPa | 2.5V | 18:12:15 | 02:17:52 | 00:00:00 | |
| DM0DOS-11 | 2026-08-31 00:35:44 | 52.03600 | 8.15099 | 106° | 13km/h | 29702m | 4.3m/s | -45.4°C | 2.9% | 13hPa | 2.5V | 08:30:00 | 02:17:46 | 00:00:00 | |
| HSKMA3-T | 2026-08-31 00:35:42 | 52.03598 | 8.15130 | 85° | 26km/h | 29721m | 4m/s | -45.3°C | 0% | 13hPa | 2.6V | 18:12:15 | 02:17:50 | 00:00:00 | |
| AA1-15 | 2026-08-31 00:35:42 | 52.03599 | 8.15105 | 105° | 16km/h | 29706m | 4.8m/s | -45.4°C | 0% | 13hPa | 2.5V | 18:12:15 | 02:17:47 | 00:00:00 | |
| DO2JMG | 2026-08-31 00:35:41 | 52.03598 | 8.15121 | 89° | 24km/h | 29717m | 5.1m/s | -45.3°C | 0% | 12.9hPa | 2.6V | 18:12:15 | 02:17:49 | 00:00:00 | |
| DD8BA-10 | 2026-08-31 00:35:41 | 52.03597 | 8.15121 | 89° | 15km/h | 29717m | 5.1m/s | -45.3°C | 2.9% | 12.9hPa | 2.6V | 00:00:00 | 00:00:00 | 00:00:00 | |
| DK9SH | 2026-08-31 00:35:40 | 52.03597 | 8.15112 | 97° | 20km/h | 29712m | 5.5m/s | -45.4°C | 0.7% | 13.0hPa | 2.6V | 00:00:00 | 00:00:00 | 00:00:00 | |
| DL1NUX | 2026-08-31 00:35:38 | 52.03600 | 8.15095 | 96° | 9km/h | 29697m | 5.6m/s | -45.5°C | 2.9% | 13hPa | 2.6V | 08:30:00 | 02:17:45 | 00:00:00 | |
| DL1XH-west | 2026-08-31 00:35:34 | 52.03597 | 8.15083 | 60° | 13km/h | 29681m | 4.5m/s | -45.6°C | 0% | 13hPa | 2.5V | 18:12:15 | 02:17:42 | 00:00:00 | |
| DF8AY | 2026-08-31 00:35:33 | 52.03596 | 8.15078 | 69° | 15km/h | 29676m | 5.2m/s | -45.7°C | 0% | 13hPa | 2.5V | 18:12:15 | 02:17:41 | 00:00:00 | |
| HSKMA3-T | 2026-08-31 00:35:32 | 52.03595 | 8.15072 | 79° | 16km/h | 29671m | 5.4m/s | -45.7°C | 0% | 13.1hPa | 2.5V | 18:12:15 | 02:17:40 | 00:00:00 | |
| DL1XH1-15 | 2026-08-31 00:35:32 | 52.03588 | 8.15035 | 62° | 31km/h | 29650m | 5.3m/s | -45.8°C | 3% | 13.1hPa | 2.5V | 08:30:00 | 02:17:36 | 00:00:00 | |
| DJ8HS-15 | 2026-08-31 00:35:32 | 52.03595 | 8.15072 | 79° | 26km/h | 29671m | 5.4m/s | -45.6°C | 3.0% | 13.0hPa | 2.6V | 00:00:00 | 02:17:40 | 00:00:00 | |
| DM0DOS-11 | 2026-08-31 00:35:31 | 52.03591 | 8.15046 | 71° | 27km/h | 29656m | 5.5m/s | -45.8°C | 3% | 13.1hPa | 2.6V | 08:30:00 | 02:17:37 | 00:00:00 | |
| DO2JMG | 2026-08-31 00:35:31 | 52.03594 | 8.15065 | 82° | 20km/h | 29666m | 4.7m/s | -45.7°C | 0% | 13hPa | 2.6V | 18:12:15 | 02:17:39 | 00:00:00 | |
| AA1-15 | 2026-08-31 00:35:29 | 52.03589 | 8.15035 | 63° | 31km/h | 29650m | 5.3m/s | -45.8°C | 0% | 13.1hPa | 2.5V | 18:12:15 | 02:17:36 | 00:00:00 | |
| DO2SHX-10 | 2026-08-31 00:35:27 | 52.03584 | 8.15024 | 55° | 27km/h | 29646m | 4.2m/s | -45.7°C | 3.0% | 13.1hPa | 2.5V | 00:00:00 | 02:17:35 | 00:00:00 | |
| DL8DAS-14 | 2026-08-31 00:35:26 | 52.03580 | 8.15015 | 49° | 27km/h | 29642m | 3.9m/s | -45.8°C | 0.7% | 13.1hPa | 2.5V | 00:00:00 | 00:00:00 | 00:00:00 | |
| GOEST3-10 | 2026-08-31 00:35:25 | 52.03576 | 8.15007 | 47° | 15km/h | 29638m | 5.0m/s | -45.8°C | 3.0% | 13.0hPa | 2.5V | 00:00:00 | 00:00:00 | 00:00:00 | |
| DM0DOS-11 | 2026-08-31 00:35:24 | 52.03565 | 8.14971 | 70° | 26km/h | 29607m | 5.4m/s | -46°C | 3% | 13.2hPa | 2.6V | 08:30:00 | 02:17:27 | 00:00:00 | |
| DL1XH-west | 2026-08-31 00:35:24 | 52.03570 | 8.14996 | 59° | 13km/h | 29626m | 4.8m/s | -45.9°C | 0% | 13.1hPa | 2.6V | 18:12:15 | 02:17:31 | 00:00:00 | |
| DL1XH1-15 | 2026-08-31 00:35:23 | 52.03563 | 8.14960 | 66° | 33km/h | 29602m | 4.8m/s | -46°C | 3% | 13.2hPa | 2.6V | 08:30:00 | 02:17:26 | 00:00:00 | |
| HSKMA3-T | 2026-08-31 00:35:21 | 52.03568 | 8.14987 | 76° | 15km/h | 29618m | 4.1m/s | -46°C | 0% | 13.2hPa | 2.5V | 18:12:15 | 02:17:29 | 00:00:00 | |
| DO2JMG | 2026-08-31 00:35:20 | 52.03567 | 8.14980 | 74° | 20km/h | 29613m | 5.7m/s | -46°C | 0% | 13.2hPa | 2.5V | 18:12:15 | 02:17:28 | 00:00:00 | |
| AA1-15 | 2026-08-31 00:35:17 | 52.03559 | 8.14947 | 65° | 37km/h | 29598m | 4.6m/s | -46°C | 0% | 13.2hPa | 2.5V | 18:12:15 | 02:17:25 | 00:00:00 | |
| NBG1-10 | 2026-08-31 00:35:17 | 52.03559 | 8.14947 | 66° | 31km/h | 29598m | 4.5m/s | -45.9°C | 3.0% | 13.1hPa | 2.6V | 00:00:00 | 02:17:25 | 00:00:00 | |
| DO2SHX-10 | 2026-08-31 00:35:15 | 52.03551 | 8.14921 | 66° | 33km/h | 29588m | 5.6m/s | -46.0°C | 3.0% | 13.2hPa | 2.6V | 00:00:00 | 02:17:23 | 00:00:00 | |
| DO9LL-15 | 2026-08-31 00:35:14 | 52.03548 | 8.14908 | 65° | 33km/h | 29583m | 5.0m/s | -46.0°C | 3.0% | 13.2hPa | 2.6V | 00:00:00 | 02:17:22 | 00:00:00 | |
| DL1XH1-15 | 2026-08-31 00:35:13 | 52.03522 | 8.14850 | 45° | 27km/h | 29553m | 5m/s | -46.1°C | 3% | 13.3hPa | 2.6V | 08:30:00 | 02:17:16 | 00:00:00 | |
| DL1XH-west | 2026-08-31 00:35:13 | 52.03541 | 8.14887 | 58° | 29km/h | 29573m | 4.7m/s | -46°C | 0% | 13.2hPa | 2.5V | 18:12:15 | 02:17:20 | 00:00:00 | |
| DM0DOS-11 | 2026-08-31 00:35:12 | 52.03527 | 8.14858 | 46° | 29km/h | 29557m | 4.4m/s | -46°C | 3% | 13.2hPa | 2.5V | 08:30:00 | 02:17:17 | 00:00:00 | |
| DL1NUX | 2026-08-31 00:35:12 | 52.03518 | 8.14843 | 45° | 24km/h | 29547m | 5.9m/s | -46.1°C | 3% | 13.3hPa | 2.6V | 08:30:00 | 02:17:15 | 00:00:00 | |
| HSKMA3-T | 2026-08-31 00:35:10 | 52.03532 | 8.14867 | 49° | 31km/h | 29562m | 5m/s | -46°C | 0% | 13.3hPa | 2.5V | 18:12:15 | 02:17:18 | 00:00:00 | |
| DO2JMG | 2026-08-31 00:35:09 | 52.03527 | 8.14858 | 46° | 29km/h | 29558m | 4.4m/s | -46.1°C | 0% | 13.2hPa | 2.5V | 18:12:15 | 02:17:17 | 00:00:00 | |
| AA1-15 | 2026-08-31 00:35:06 | 52.03513 | 8.14836 | 47° | 24km/h | 29542m | 4.5m/s | -46.1°C | 0% | 13.3hPa | 2.6V | 18:12:15 | 02:17:14 | 00:00:00 | |
| DL8DAS-15 | 2026-08-31 00:35:06 | 52.03513 | 8.14836 | 48° | 24km/h | 29542m | 4.5m/s | -46.1°C | 0.7% | 13.3hPa | 2.5V | 00:00:00 | 00:00:00 | 00:00:00 | |
| GOEST3-10 | 2026-08-31 00:35:05 | 52.03509 | 8.14828 | 49° | 37km/h | 29538m | 4.5m/s | -46.1°C | 3.1% | 13.3hPa | 2.5V | 00:00:00 | 00:00:00 | 00:00:00 | |
| DO1YAY-16 | 2026-08-31 00:35:04 | 52.03504 | 8.14819 | 49° | 31km/h | 29533m | 5.6m/s | -46.1°C | 0.7% | 13.3hPa | 2.5V | 00:00:00 | 00:00:00 | 00:00:00 | |
| DL1XH1-15 | 2026-08-31 00:35:03 | 52.03466 | 8.14744 | 48° | 31km/h | 29502m | 5.4m/s | -46.1°C | 3.1% | 13.4hPa | 2.5V | 08:30:00 | 02:17:06 | 00:00:00 | |
| DL1XH-west | 2026-08-31 00:35:02 | 52.03492 | 8.14795 | 51° | 44km/h | 29521m | 4.7m/s | -46.1°C | 0% | 13.3hPa | 2.5V | 18:12:15 | 02:17:10 | 00:00:00 | |
| HSKMA3-T | 2026-08-31 00:35:00 | 52.03478 | 8.14768 | 50° | 42km/h | 29513m | 4.8m/s | -46.1°C | 0% | 13.4hPa | 2.6V | 18:12:15 | 02:17:08 | 00:00:00 | |
| DO2JMG | 2026-08-31 00:34:59 | 52.03471 | 8.14755 | 50° | 38km/h | 29507m | 5.7m/s | -46.1°C | 0% | 13.4hPa | 2.5V | 18:12:15 | 02:17:07 | 00:00:00 | |
| DF8AY | 2026-08-31 00:34:58 | 52.03466 | 8.14744 | 48° | 31km/h | 29502m | 5.4m/s | -46.1°C | 0% | 13.4hPa | 2.5V | 18:12:15 | 02:17:06 | 00:00:00 | |
| DL1NUX | 2026-08-31 00:34:58 | 52.03460 | 8.14735 | 45° | 27km/h | 29496m | 5m/s | -46.1°C | 3% | 13.4hPa | 2.5V | 08:30:00 | 02:17:05 | 00:00:00 | |
| AA1-15 | 2026-08-31 00:34:55 | 52.03450 | 8.14721 | 37° | 27km/h | 29486m | 5.8m/s | -46.2°C | 0% | 13.4hPa | 2.6V | 18:12:15 | 02:17:03 | 00:00:00 | |
| GOEST3-10 | 2026-08-31 00:34:55 | 52.03450 | 8.14721 | 37° | 29km/h | 29486m | 5.7m/s | -46.1°C | 3.1% | 13.4hPa | 2.6V | 00:00:00 | 00:00:00 | 08:30:00 | |
| DO2SHX-10 | 2026-08-31 00:34:54 | 52.03444 | 8.14714 | 34° | 31km/h | 29481m | 4.8m/s | -46.1°C | 3.1% | 13.4hPa | 2.5V | 00:00:00 | 02:17:02 | 00:00:00 | |
| DJ2DS-15 | 2026-08-31 00:34:53 | 52.03437 | 8.14707 | 31° | 37km/h | 29476m | 4.3m/s | -46.2°C | 3.1% | 13.4hPa | 2.5V | 00:00:00 | 02:17:01 | 00:00:00 | |
| DL1NUX | 2026-08-31 00:34:52 | 52.03394 | 8.14665 | 37° | 44km/h | 29445m | 6.2m/s | -46.2°C | 3.1% | 13.5hPa | 2.5V | 08:30:00 | 02:16:55 | 00:00:00 | |
| DM0DOS-11 | 2026-08-31 00:34:51 | 52.03410 | 8.14683 | 30° | 35km/h | 29456m | 4.3m/s | -46.2°C | 3.1% | 13.5hPa | 2.5V | 08:30:00 | 02:16:57 | 00:00:00 | |
| DL1XH-west | 2026-08-31 00:34:51 | 52.03424 | 8.14695 | 27° | 31km/h | 29466m | 6m/s | -46.2°C | 0% | 13.5hPa | 2.6V | 18:12:15 | 02:16:59 | 00:00:00 | |
| HSKMA3-T | 2026-08-31 00:34:50 | 52.03417 | 8.14690 | 28° | 31km/h | 29460m | 4.9m/s | -46.2°C | 0% | 13.5hPa | 2.6V | 18:12:15 | 02:16:58 | 00:00:00 | |
| DO2JMG | 2026-08-31 00:34:49 | 52.03410 | 8.14683 | 31° | 35km/h | 29456m | 4.3m/s | -46.2°C | 0% | 13.5hPa | 2.5V | 18:12:15 | 02:16:57 | 00:00:00 | |
| DF8AY | 2026-08-31 00:34:48 | 52.03402 | 8.14675 | 35° | 38km/h | 29451m | 5.2m/s | -46.2°C | 0% | 13.5hPa | 2.5V | 18:12:15 | 02:16:56 | 00:00:00 | |
| SONDE2-11 | 2026-08-31 00:34:47 | 52.03394 | 8.14665 | 37° | 42km/h | 29446m | 6.2m/s | -46.2°C | 0.7% | 13.5hPa | 2.6V | 00:00:00 | 00:00:00 | 00:00:00 | |
| AA1-15 | 2026-08-31 00:34:44 | 52.03367 | 8.14629 | 41° | 44km/h | 29431m | 5.2m/s | -46.2°C | 0% | 13.5hPa | 2.6V | 18:12:15 | 02:16:52 | 00:00:00 | |
| DO9LL-15 | 2026-08-31 00:34:44 | 52.03367 | 8.14629 | 42° | 35km/h | 29431m | 5.1m/s | -46.1°C | 3.1% | 13.5hPa | 2.6V | 00:00:00 | 02:16:52 | 00:00:00 | |
| DL1XH1-15 | 2026-08-31 00:34:43 | 52.03323 | 8.14588 | 19° | 37km/h | 29400m | 5.4m/s | -46.2°C | 3.1% | 13.5hPa | 2.6V | 08:30:00 | 02:16:46 | 00:00:00 | |
| DL3AQ-11 | 2026-08-31 00:34:43 | 52.03352 | 8.14609 | 33° | 31km/h | 29420m | 4.7m/s | -46.2°C | 0.7% | 13.5hPa | 2.5V | 00:00:00 | 00:00:00 | 00:00:00 | |
| DO2SHX-10 | 2026-08-31 00:34:42 | 52.03352 | 8.14609 | 34° | 31km/h | 29420m | 4.6m/s | -46.1°C | 3.1% | 13.5hPa | 2.5V | 00:00:00 | 02:16:50 | 00:00:00 | |
| DM0DOS-11 | 2026-08-31 00:34:41 | 52.03331 | 8.14593 | 19° | 33km/h | 29406m | 5.8m/s | -46.2°C | 3.1% | 13.6hPa | 2.5V | 08:30:00 | 02:16:47 | 00:00:00 | |
| DL1XH-west | 2026-08-31 00:34:41 | 52.03346 | 8.14603 | 27° | 29km/h | 29415m | 4.2m/s | -46.2°C | 0% | 13.6hPa | 2.5V | 18:12:15 | 02:16:49 | 00:00:00 | |
| BIOWL1-15 | 2026-08-31 00:34:40 | 52.03339 | 8.14598 | 22° | 29km/h | 29411m | 4.8m/s | -46.2°C | 0% | 13.6hPa | 2.5V | 18:12:15 | 02:16:48 | 00:00:00 | |
| DO2JMG | 2026-08-31 00:34:39 | 52.03331 | 8.14593 | 20° | 33km/h | 29406m | 5.9m/s | -46.2°C | 0% | 13.6hPa | 2.5V | 18:12:15 | 02:16:47 | 00:00:00 | |
| DF8AY | 2026-08-31 00:34:37 | 52.03314 | 8.14583 | 20° | 40km/h | 29395m | 4.6m/s | -46.2°C | 0% | 13.6hPa | 2.6V | 18:12:15 | 02:16:45 | 00:00:00 | |
| DL1XH-15 | 2026-08-31 00:34:35 | 52.03296 | 8.14572 | 22° | 38km/h | 29386m | 4.9m/s | -46.2°C | 3.1% | 13.6hPa | 2.5V | 08:30:00 | 02:16:43 | 00:00:00 | |
| AA1-15 | 2026-08-31 00:34:34 | 52.03280 | 8.14560 | 27° | 31km/h | 29374m | 5.3m/s | -46.2°C | 0% | 13.6hPa | 2.6V | 18:12:15 | 02:16:41 | 00:00:00 | |
| DL1XH1-15 | 2026-08-31 00:34:33 | 52.03241 | 8.14523 | 31° | 40km/h | 29349m | 4.5m/s | -46.1°C | 3% | 13.7hPa | 2.5V | 08:30:00 | 02:16:36 | 00:00:00 | |
| DO2SHX-10 | 2026-08-31 00:34:33 | 52.03280 | 8.14560 | 27° | 33km/h | 29375m | 5.2m/s | -46.1°C | 3.1% | 13.6hPa | 2.6V | 00:00:00 | 02:16:41 | 00:00:00 | |
| DJ8HS-15 | 2026-08-31 00:34:32 | 52.03273 | 8.14554 | 30° | 35km/h | 29370m | 4.4m/s | -46.1°C | 3.1% | 13.6hPa | 2.5V | 00:00:00 | 02:16:40 | 00:00:00 | |
| DM0DOS-11 | 2026-08-31 00:34:31 | 52.03250 | 8.14532 | 31° | 40km/h | 29354m | 5.4m/s | -46.1°C | 3.1% | 13.7hPa | 2.5V | 08:30:00 | 02:16:37 | 00:00:00 | |
| DL1XH-west | 2026-08-31 00:34:30 | 52.03258 | 8.14540 | 32° | 37km/h | 29360m | 6m/s | -46.1°C | 0% | 13.7hPa | 2.5V | 18:12:15 | 02:16:38 | 00:00:00 | |
| BIOWL1-15 | 2026-08-31 00:34:29 | 52.03250 | 8.14532 | 32° | 40km/h | 29354m | 5.4m/s | -46.1°C | 0% | 13.7hPa | 2.5V | 18:12:15 | 02:16:37 | 00:00:00 | |
| DO2JMG | 2026-08-31 00:34:28 | 52.03241 | 8.14523 | 31° | 40km/h | 29349m | 4.5m/s | -46.1°C | 0% | 13.7hPa | 2.5V | 18:12:15 | 02:16:36 | 00:00:00 | |
| DL1XH-15 | 2026-08-31 00:34:27 | 52.03217 | 8.14501 | 27° | 31km/h | 29333m | 5.2m/s | -46°C | 3% | 13.7hPa | 2.6V | 08:30:00 | 02:16:33 | 00:00:00 | |
| DF8AY | 2026-08-31 00:34:26 | 52.03188 | 8.14480 | 20° | 33km/h | 29312m | 4.7m/s | -45.9°C | 0% | 13.8hPa | 2.5V | 18:12:15 | 02:16:29 | 00:00:00 | |
| GOEST3-10 | 2026-08-31 00:34:25 | 52.03217 | 8.14501 | 28° | 31km/h | 29333m | 5.1m/s | -45.9°C | 3.0% | 13.7hPa | 2.6V | 00:00:00 | 00:00:00 | 00:00:00 | |
| DO2SHX-10 | 2026-08-31 00:34:24 | 52.03210 | 8.14495 | 26° | 31km/h | 29328m | 4.6m/s | -45.9°C | 3.0% | 13.7hPa | 2.5V | 00:00:00 | 02:16:32 | 08:30:00 | |
| DL1XH1-15 | 2026-08-31 00:34:23 | 52.03165 | 8.14470 | 11° | 27km/h | 29296m | 6.1m/s | -45.9°C | 3% | 13.8hPa | 2.5V | 08:30:00 | 02:16:26 | 00:00:00 | |
| AA1-15 | 2026-08-31 00:34:22 | 52.03196 | 8.14485 | 22° | 31km/h | 29317m | 5.7m/s | -45.9°C | 0% | 13.8hPa | 2.5V | 18:12:15 | 02:16:30 | 00:00:00 | |
| DL1CLM-18 | 2026-08-31 00:34:22 | 52.03203 | 8.14490 | 24° | 31km/h | 29323m | 5.5m/s | -45.9°C | 0.7% | 13.8hPa | 2.6V | 00:00:00 | 00:00:00 | 00:00:00 | |
| DM0DOS-11 | 2026-08-31 00:34:21 | 52.03173 | 8.14473 | 15° | 31km/h | 29302m | 5.8m/s | -45.9°C | 3% | 13.8hPa | 2.6V | 08:30:00 | 02:16:27 | 00:00:00 | |
| DL1XH-west | 2026-08-31 00:34:19 | 52.03173 | 8.14473 | 15° | 31km/h | 29302m | 5.8m/s | -45.9°C | 0% | 13.8hPa | 2.6V | 18:12:15 | 02:16:27 | 00:00:00 | |
| DO2JMG | 2026-08-31 00:34:18 | 52.03166 | 8.14470 | 12° | 29km/h | 29296m | 6.1m/s | -45.9°C | 0% | 13.8hPa | 2.5V | 18:12:15 | 02:16:26 | 00:00:00 | |
| DK9SH | 2026-08-31 00:34:18 | 52.03165 | 8.14470 | 13° | 29km/h | 29297m | 6.1m/s | -45.9°C | 0.7% | 13.8hPa | 2.6V | 00:00:00 | 00:00:00 | 00:00:00 | |
| DL1LOL-11 | 2026-08-31 00:34:17 | 52.03165 | 8.14470 | 13° | 29km/h | 29297m | 6.1m/s | -45.9°C | 0.7% | 13.8hPa | 2.6V | 00:00:00 | 00:00:00 | 00:00:00 | |
| SONDE2-11 | 2026-08-31 00:34:16 | 52.03151 | 8.14466 | 5° | 31km/h | 29286m | 4.9m/s | -45.9°C | 0.7% | 13.8hPa | 2.6V | 00:00:00 | 00:00:00 | 00:00:00 | |
| DL1NUX | 2026-08-31 00:34:15 | 52.03096 | 8.14459 | 5° | 31km/h | 29254m | 5.7m/s | -45.9°C | 3% | 13.9hPa | 2.6V | 08:30:00 | 02:16:18 | 00:00:00 | |
| DO2SHX-10 | 2026-08-31 00:34:15 | 52.03143 | 8.14465 | 5° | 38km/h | 29281m | 6.2m/s | -45.9°C | 3.0% | 13.8hPa | 2.6V | 00:00:00 | 02:16:23 | 00:00:00 | |
| DO9LL-15 | 2026-08-31 00:34:14 | 52.03133 | 8.14464 | 6° | 29km/h | 29275m | 5.5m/s | -45.9°C | 3.0% | 13.8hPa | 2.6V | 00:00:00 | 02:16:22 | 00:00:00 | |
| DL1XH1-15 | 2026-08-31 00:34:13 | 52.03082 | 8.14456 | 9° | 26km/h | 29243m | 4.7m/s | -45.9°C | 3% | 13.9hPa | 2.5V | 08:30:00 | 02:16:16 | 00:00:00 | |
| DF8AY | 2026-08-31 00:34:12 | 52.03113 | 8.14461 | 5° | 38km/h | 29265m | 4.7m/s | -45.9°C | 0% | 13.9hPa | 2.5V | 18:12:15 | 02:16:20 | 00:00:00 | |
| AA1-15 | 2026-08-31 00:34:11 | 52.03104 | 8.14460 | 5° | 35km/h | 29260m | 6m/s | -45.9°C | 0% | 13.9hPa | 2.5V | 18:12:15 | 02:16:19 | 00:00:00 | |
| DM0DOS-11 | 2026-08-31 00:34:10 | 52.03089 | 8.14458 | 7° | 27km/h | 29248m | 5m/s | -45.9°C | 3% | 13.9hPa | 2.6V | 08:30:00 | 02:16:17 | 00:00:00 | |
| DL1XH-15 | 2026-08-31 00:34:10 | 52.03060 | 8.14449 | 9° | 33km/h | 29227m | 4.5m/s | -46°C | 3% | 14hPa | 2.5V | 08:30:00 | 02:16:13 | 00:00:00 | |
| DL1XH-west | 2026-08-31 00:34:08 | 52.03082 | 8.14456 | 10° | 26km/h | 29243m | 4.7m/s | -45.9°C | 0% | 13.9hPa | 2.5V | 18:12:15 | 02:16:16 | 00:00:00 | |
| DO2JMG | 2026-08-31 00:34:07 | 52.03075 | 8.14454 | 12° | 27km/h | 29238m | 5.9m/s | -46°C | 0% | 13.9hPa | 2.5V | 18:12:15 | 02:16:15 | 00:00:00 | |
| DF8AY | 2026-08-31 00:34:02 | 52.03038 | 8.14448 | 352° | 27km/h | 29211m | 6.1m/s | -46°C | 0% | 14hPa | 2.6V | 18:12:15 | 02:16:10 | 00:00:00 | |
| DL1XH1-15 | 2026-08-31 00:34:02 | 52.03010 | 8.14460 | 347° | 33km/h | 29190m | 5.9m/s | -45.9°C | 3% | 14hPa | 2.5V | 08:30:00 | 02:16:06 | 00:00:00 | |
| BUE01 | 2026-08-31 00:34:01 | 52.03024 | 8.14453 | 342° | 27km/h | 29201m | 4.7m/s | -45.9°C | 0.7% | 14.0hPa | 2.5V | 00:00:00 | 00:00:00 | 00:00:00 | |
| DM0DOS-11 | 2026-08-31 00:34:00 | 52.03017 | 8.14456 | 344° | 31km/h | 29196m | 5.8m/s | -45.9°C | 3% | 14hPa | 2.5V | 08:30:00 | 02:16:07 | 00:00:00 | |
| AA1-15 | 2026-08-31 00:34:00 | 52.03024 | 8.14453 | 342° | 27km/h | 29201m | 4.7m/s | -45.9°C | 0% | 14hPa | 2.5V | 18:12:15 | 02:16:08 | 00:00:00 | |
| BIOWL1-15 | 2026-08-31 00:34:00 | 52.03010 | 8.14460 | 348° | 33km/h | 29190m | 5.9m/s | -45.9°C | 0% | 14hPa | 2.5V | 18:12:15 | 02:16:06 | 00:00:00 | |
| DL1XH-west | 2026-08-31 00:33:57 | 52.03001 | 8.14462 | 351° | 35km/h | 29185m | 4.9m/s | -45.9°C | 0% | 14.1hPa | 2.6V | 18:12:15 | 02:16:05 | 00:00:00 | |
| HTAHTA | 2026-08-31 00:33:57 | 52.02978 | 8.14467 | 350° | 26km/h | 29169m | 5.9m/s | -45.9°C | 0.7% | 14.1hPa | 2.5V | 00:00:00 | 00:00:00 | 00:00:00 | |
| DL1XH-15 | 2026-08-31 00:33:56 | 52.02985 | 8.14466 | 352° | 29km/h | 29175m | 6.1m/s | -45.9°C | 3% | 14.1hPa | 2.5V | 08:30:00 | 02:16:03 | 00:00:00 | |
| DO2JMG | 2026-08-31 00:33:56 | 52.02993 | 8.14464 | 353° | 33km/h | 29180m | 4.6m/s | -45.9°C | 0% | 14.1hPa | 2.6V | 18:12:15 | 02:16:04 | 00:00:00 | |
| DF8AY | 2026-08-31 00:33:52 | 52.02960 | 8.14471 | 353° | 26km/h | 29152m | 6.1m/s | -45.9°C | 0% | 14.1hPa | 2.6V | 18:12:15 | 02:15:59 | 00:00:00 | |
| DL1XH1-15 | 2026-08-31 00:33:52 | 52.02940 | 8.14477 | 341° | 26km/h | 29136m | 6.1m/s | -46°C | 3% | 14.2hPa | 2.5V | 08:30:00 | 02:15:56 | 00:00:00 | |
| DL3AQ-11 | 2026-08-31 00:33:52 | 52.02960 | 8.14471 | 353° | 26km/h | 29153m | 6.1m/s | -45.9°C | 0.7% | 14.1hPa | 2.5V | 00:00:00 | 00:00:00 | 00:00:00 | |
| DJ3KS | 2026-08-31 00:33:51 | 52.02966 | 8.14470 | 353° | 24km/h | 29158m | 5.2m/s | -45.9°C | 0.7% | 14.1hPa | 2.5V | 00:00:00 | 00:00:00 | 00:00:00 | |
| DM0DOS-11 | 2026-08-31 00:33:49 | 52.02946 | 8.14475 | 347° | 26km/h | 29142m | 5m/s | -46°C | 3% | 14.1hPa | 2.5V | 08:30:00 | 02:15:57 | 00:00:00 | |
| AA1-15 | 2026-08-31 00:33:49 | 52.02947 | 8.14475 | 348° | 26km/h | 29142m | 5m/s | -46°C | 0% | 14.1hPa | 2.5V | 18:12:15 | 02:15:57 | 00:00:00 | |
| BIOWL1-15 | 2026-08-31 00:33:47 | 52.02935 | 8.14481 | 334° | 24km/h | 29130m | 6.1m/s | -46.1°C | 0% | 14.2hPa | 2.5V | 18:12:15 | 02:15:55 | 00:00:00 | |
| HSKMA3-T | 2026-08-31 00:33:46 | 52.02929 | 8.14486 | 330° | 24km/h | 29125m | 5.1m/s | -46.1°C | 0% | 14.2hPa | 2.6V | 18:12:15 | 02:15:54 | 00:00:00 | |
| DO2JMG | 2026-08-31 00:33:45 | 52.02924 | 8.14491 | 332° | 26km/h | 29119m | 4.7m/s | -46.2°C | 0% | 14.2hPa | 2.6V | 18:12:15 | 02:15:53 | 00:00:00 | |
| GOEST3-10 | 2026-08-31 00:33:45 | 52.02924 | 8.14491 | 332° | 29km/h | 29120m | 4.6m/s | -46.1°C | 3.0% | 14.1hPa | 2.6V | 00:00:00 | 00:00:00 | 00:00:00 | |
| DM0DOS-11 | 2026-08-31 00:33:44 | 52.02884 | 8.14507 | 350° | 20km/h | 29086m | 5.6m/s | -46.4°C | 3% | 14.3hPa | 2.6V | 08:30:00 | 02:15:47 | 00:00:00 | |
| DC4HF-4 | 2026-08-31 00:33:43 | 52.02911 | 8.14499 | 344° | 29km/h | 29108m | 5.8m/s | -46.2°C | 0.7% | 14.2hPa | 2.6V | 00:00:00 | 00:00:00 | 00:00:00 | |
| DL1XH1-15 | 2026-08-31 00:33:42 | 52.02879 | 8.14509 | 350° | 18km/h | 29081m | 5.2m/s | -46.4°C | 3.1% | 14.2hPa | 2.6V | 08:30:00 | 02:15:46 | 00:00:00 | |
| DF8AY | 2026-08-31 00:33:41 | 52.02896 | 8.14504 | 351° | 29km/h | 29098m | 4.9m/s | -46.3°C | 0% | 14.2hPa | 2.5V | 18:12:15 | 02:15:49 | 00:00:00 | |
| AA1-15 | 2026-08-31 00:33:39 | 52.02883 | 8.14507 | 351° | 20km/h | 29086m | 5.6m/s | -46.4°C | 0% | 14.3hPa | 2.6V | 18:12:15 | 02:15:47 | 00:00:00 | |
| DO2SHX-10 | 2026-08-31 00:33:38 | 52.02879 | 8.14508 | 351° | 18km/h | 29081m | 5.2m/s | -46.4°C | 3.1% | 14.2hPa | 2.6V | 00:00:00 | 02:15:46 | 00:00:00 | |
| DD1CC1-15 | 2026-08-31 00:33:37 | 52.02879 | 8.14508 | 352° | 18km/h | 29081m | 5.2m/s | -46.4°C | 0.8% | 14.3hPa | 2.5V | 00:00:00 | 00:00:00 | 00:00:00 | |
| DL1XH-15 | 2026-08-31 00:33:36 | 52.02863 | 8.14513 | 347° | 24km/h | 29064m | 5.2m/s | -46.7°C | 3.2% | 14.3hPa | 2.5V | 08:30:00 | 02:15:43 | 00:00:00 | |
| HSKMA3-T | 2026-08-31 00:33:36 | 52.02869 | 8.14511 | 350° | 22km/h | 29070m | 6.3m/s | -46.6°C | 0% | 14.3hPa | 2.5V | 18:12:15 | 02:15:44 | 00:00:00 | |
| DO2JMG | 2026-08-31 00:33:35 | 52.02863 | 8.14513 | 347° | 24km/h | 29064m | 5.2m/s | -46.7°C | 0.1% | 14.3hPa | 2.5V | 18:12:15 | 02:15:43 | 00:00:00 | |
| DO2SHX-10 | 2026-08-31 00:33:35 | 52.02863 | 8.14513 | 348° | 26km/h | 29064m | 5.2m/s | -46.7°C | 3.2% | 14.2hPa | 2.6V | 00:00:00 | 02:15:43 | 00:00:00 | |
| DO3DL | 2026-08-31 00:33:34 | 52.02863 | 8.14513 | 348° | 26km/h | 29064m | 5.2m/s | -46.7°C | 0.7% | 14.3hPa | 2.6V | 00:00:00 | 00:00:00 | 00:00:00 | |
| DJ2DS-15 | 2026-08-31 00:33:33 | 52.02850 | 8.14520 | 337° | 29km/h | 29055m | 5.0m/s | -46.7°C | 3.1% | 14.3hPa | 2.6V | 00:00:00 | 02:15:41 | 00:00:00 | |
| DL1NUX | 2026-08-31 00:33:32 | 52.02833 | 8.14538 | 322° | 27km/h | 29037m | 4.9m/s | -46.8°C | 3.1% | 14.4hPa | 2.5V | 08:30:00 | 02:15:38 | 00:00:00 | |
| DO2KSM | 2026-08-31 00:33:32 | 52.02844 | 8.14525 | 330° | 27km/h | 29049m | 6.3m/s | -46.8°C | 0.7% | 14.4hPa | 2.5V | 00:00:00 | 00:00:00 | 00:00:00 | |
| DD8BA-10 | 2026-08-31 00:33:31 | 52.02838 | 8.14531 | 323° | 29km/h | 29043m | 5.7m/s | -46.7°C | 3.2% | 14.3hPa | 2.5V | 00:00:00 | 00:00:00 | 00:00:00 | |
| DL1XH-15 | 2026-08-31 00:33:30 | 52.02797 | 8.14563 | 344° | 31km/h | 29011m | 4.9m/s | -46.7°C | 3.1% | 14.4hPa | 2.5V | 08:30:00 | 02:15:33 | 00:00:00 | |
| DF8AY | 2026-08-31 00:33:30 | 52.02833 | 8.14538 | 322° | 27km/h | 29037m | 4.9m/s | -46.8°C | 0% | 14.4hPa | 2.5V | 18:12:15 | 02:15:38 | 00:00:00 | |
| AA1-15 | 2026-08-31 00:33:28 | 52.02821 | 8.14551 | 334° | 31km/h | 29027m | 6.2m/s | -46.7°C | 0% | 14.4hPa | 2.6V | 18:12:15 | 02:15:36 | 00:00:00 | |
| BIOWL1-15 | 2026-08-31 00:33:26 | 52.02805 | 8.14560 | 345° | 33km/h | 29016m | 4.7m/s | -46.7°C | 0% | 14.4hPa | 2.6V | 18:12:15 | 02:15:34 | 00:00:00 | |
| DO2JMG | 2026-08-31 00:33:25 | 52.02797 | 8.14563 | 345° | 31km/h | 29011m | 4.9m/s | -46.7°C | 0% | 14.4hPa | 2.5V | 18:12:15 | 02:15:33 | 00:00:00 | |
| DF8AY | 2026-08-31 00:33:19 | 52.02763 | 8.14601 | 316° | 31km/h | 28977m | 5.6m/s | -46.8°C | 0% | 14.5hPa | 2.5V | 18:12:15 | 02:15:27 | 00:00:00 | |
| DJ3KS | 2026-08-31 00:33:18 | 52.02763 | 8.14601 | 317° | 31km/h | 28978m | 5.6m/s | -46.8°C | 0.7% | 14.5hPa | 2.6V | 00:00:00 | 00:00:00 | 00:00:00 | |
| DD1CC1-15 | 2026-08-31 00:33:17 | 52.02757 | 8.14610 | 315° | 31km/h | 28972m | 4.7m/s | -46.8°C | 0.8% | 14.5hPa | 2.6V | 00:00:00 | 00:00:00 | 00:00:00 | |
| AA1-15 | 2026-08-31 00:33:17 | 52.02752 | 8.14619 | 311° | 29km/h | 28967m | 5.1m/s | -46.8°C | 0% | 14.5hPa | 2.5V | 18:12:15 | 02:15:25 | 00:00:00 | |
| DL1XH-15 | 2026-08-31 00:33:16 | 52.02744 | 8.14638 | 301° | 26km/h | 28955m | 6m/s | -46.8°C | 3.2% | 14.5hPa | 2.6V | 08:30:00 | 02:15:23 | 00:00:00 | |
| HSKMA3-T | 2026-08-31 00:33:16 | 52.02748 | 8.14628 | 306° | 27km/h | 28961m | 6.3m/s | -46.8°C | 0% | 14.6hPa | 2.6V | 18:12:15 | 02:15:24 | 00:00:00 | |
| DL1XH-west | 2026-08-31 00:33:14 | 52.02737 | 8.14654 | 309° | 22km/h | 28944m | 5m/s | -46.8°C | 0% | 14.6hPa | 2.5V | 18:12:15 | 02:15:21 | 00:00:00 | |
| DO2JMG | 2026-08-31 00:33:14 | 52.02741 | 8.14647 | 302° | 24km/h | 28950m | 5.3m/s | -46.8°C | 0% | 14.6hPa | 2.5V | 18:12:15 | 02:15:22 | 00:00:00 | |
| DO9LL-15 | 2026-08-31 00:33:14 | 52.02740 | 8.14647 | 302° | 16km/h | 28950m | 5.2m/s | -46.7°C | 3.2% | 14.5hPa | 2.6V | 00:00:00 | 02:15:22 | 00:00:00 | |
| DJ8HS-15 | 2026-08-31 00:33:12 | 52.02733 | 8.14661 | 321° | 18km/h | 28939m | 6.4m/s | -46.7°C | 3.2% | 14.5hPa | 2.6V | 00:00:00 | 02:15:20 | 00:00:00 | |
| DM0DOS-11 | 2026-08-31 00:33:11 | 52.02718 | 8.14672 | 343° | 20km/h | 28922m | 5.1m/s | -46.8°C | 3.1% | 14.6hPa | 2.6V | 08:30:00 | 02:15:17 | 00:00:00 | |
| DD8BA-10 | 2026-08-31 00:33:11 | 52.02728 | 8.14666 | 335° | 18km/h | 28933m | 5.9m/s | -46.7°C | 3.1% | 14.6hPa | 2.5V | 00:00:00 | 00:00:00 | 00:00:00 | |
| DL1XH-15 | 2026-08-31 00:33:10 | 52.02706 | 8.14686 | 303° | 15km/h | 28901m | 5m/s | -46.7°C | 3.1% | 14.6hPa | 2.5V | 08:30:00 | 02:15:13 | 00:00:00 | |
| DF8AY | 2026-08-31 00:33:08 | 52.02714 | 8.14674 | 337° | 16km/h | 28916m | 6.2m/s | -46.8°C | 0% | 14.6hPa | 2.6V | 18:12:15 | 02:15:16 | 00:00:00 | |
| BIOWL1-15 | 2026-08-31 00:33:08 | 52.02704 | 8.14691 | 305° | 18km/h | 28895m | 6.3m/s | -46.7°C | 0% | 14.7hPa | 2.5V | 18:12:15 | 02:15:12 | 00:00:00 | |
| AA1-15 | 2026-08-31 00:33:06 | 52.02708 | 8.14681 | 310° | 13km/h | 28905m | 4.7m/s | -46.7°C | 0% | 14.6hPa | 2.5V | 18:12:15 | 02:15:14 | 00:00:00 | |
| HSKMA3-T | 2026-08-31 00:33:05 | 52.02706 | 8.14686 | 303° | 15km/h | 28901m | 5m/s | -46.7°C | 0% | 14.7hPa | 2.5V | 18:12:15 | 02:15:13 | 00:00:00 | |
| NBG1-10 | 2026-08-31 00:33:05 | 52.02706 | 8.14686 | 304° | 18km/h | 28901m | 5.0m/s | -46.7°C | 3.1% | 14.6hPa | 2.5V | 00:00:00 | 02:15:13 | 00:00:00 | |
| DL1ZP-14 | 2026-08-31 00:33:04 | 52.02704 | 8.14691 | 304° | 16km/h | 28895m | 6.3m/s | -46.7°C | 0.7% | 14.7hPa | 2.5V | 00:00:00 | 00:00:00 | 00:00:00 | |
| DL1XH1-15 | 2026-08-31 00:33:03 | 52.02689 | 8.14737 | 270° | 20km/h | 28862m | 5.7m/s | -46.8°C | 3.1% | 14.8hPa | 2.6V | 08:30:00 | 02:15:06 | 00:00:00 | |
| DL1XH-west | 2026-08-31 00:33:03 | 52.02701 | 8.14697 | 307° | 20km/h | 28889m | 5.8m/s | -46.8°C | 0% | 14.7hPa | 2.6V | 18:12:15 | 02:15:11 | 00:00:00 | |
| DD8BA-10 | 2026-08-31 00:33:01 | 52.02694 | 8.14712 | 303° | 16km/h | 28879m | 4.4m/s | -46.7°C | 3.1% | 14.7hPa | 2.5V | 00:00:00 | 00:00:00 | 08:30:00 | |
| DL1XH-15 | 2026-08-31 00:33:00 | 52.02689 | 8.14754 | 291° | 9km/h | 28845m | 6.7m/s | -46.8°C | 3.1% | 14.8hPa | 2.5V | 08:30:00 | 02:15:03 | 00:00:00 | |
| DF8AY | 2026-08-31 00:32:57 | 52.02689 | 8.14744 | 265° | 16km/h | 28856m | 5m/s | -46.8°C | 0% | 14.8hPa | 2.6V | 18:12:15 | 02:15:05 | 00:00:00 | |
| HSKMA3-T | 2026-08-31 00:32:55 | 52.02689 | 8.14754 | 292° | 9km/h | 28845m | 6.7m/s | -46.8°C | 0% | 14.8hPa | 2.5V | 18:12:15 | 02:15:03 | 00:00:00 | |
| DO2JMG | 2026-08-31 00:32:53 | 52.02685 | 8.14759 | 338° | 11km/h | 28833m | 5.1m/s | -46.9°C | 0% | 14.8hPa | 2.5V | 18:12:15 | 02:15:01 | 00:00:00 | |
| DL1XH-west | 2026-08-31 00:32:52 | 52.02680 | 8.14763 | 325° | 11km/h | 28822m | 6m/s | -46.9°C | 0% | 14.9hPa | 2.6V | 18:12:15 | 02:14:59 | 00:00:00 | |
| DJ8HS-15 | 2026-08-31 00:32:52 | 52.02683 | 8.14760 | 336° | 16km/h | 28829m | 5.6m/s | -46.8°C | 3.1% | 14.8hPa | 2.6V | 00:00:00 | 02:15:00 | 00:00:00 | |
| DM0DOS-11 | 2026-08-31 00:32:51 | 52.02676 | 8.14770 | 307° | 13km/h | 28812m | 5m/s | -47°C | 3.1% | 14.9hPa | 2.5V | 08:30:00 | 02:14:57 | 00:00:00 | |
| DD1CC8 | 2026-08-31 00:32:51 | 52.02676 | 8.14770 | 307° | 13km/h | 28812m | 5.0m/s | -47.0°C | 0.7% | 14.9hPa | 2.6V | 00:00:00 | 00:00:00 | 00:00:00 | |
| DL1NUX | 2026-08-31 00:32:50 | 52.02678 | 8.14766 | 312° | 13km/h | 28817m | 5.3m/s | -47°C | 3.1% | 14.8hPa | 2.6V | 08:30:00 | 02:14:58 | 00:00:00 | |
| GOEST3-10 | 2026-08-31 00:32:50 | 52.02678 | 8.14766 | 313° | 15km/h | 28817m | 5.2m/s | -46.9°C | 3.1% | 14.8hPa | 2.5V | 00:00:00 | 02:14:58 | 00:00:00 | |
| DO2SHX-10 | 2026-08-31 00:32:49 | 52.02676 | 8.14770 | 308° | 13km/h | 28812m | 5.0m/s | -47.0°C | 3.1% | 14.8hPa | 2.5V | 00:00:00 | 02:14:57 | 08:30:00 | |
| AM1SDL-15 | 2026-08-31 00:32:48 | 52.02674 | 8.14775 | 309° | 16km/h | 28806m | 6.2m/s | 0°C | 0% | 0hPa | 2.6V | 00:00:00 | 02:14:56 | 00:00:00 | |
| DO3DL | 2026-08-31 00:32:47 | 52.02674 | 8.14775 | 310° | 15km/h | 28806m | 6.3m/s | -47.1°C | 0.7% | 14.9hPa | 2.6V | 00:00:00 | 00:00:00 | 00:00:00 | |
| DL1XH-15 | 2026-08-31 00:32:46 | 52.02667 | 8.14790 | 292° | 16km/h | 28789m | 5.2m/s | -47.2°C | 3.1% | 14.9hPa | 2.6V | 08:30:00 | 02:14:53 | 00:00:00 | |
| DF8AY | 2026-08-31 00:32:46 | 52.02667 | 8.14790 | 293° | 16km/h | 28789m | 5.2m/s | -47.2°C | 0% | 14.9hPa | 2.6V | 18:12:15 | 02:14:53 | 00:00:00 | |
| DL1NUX | 2026-08-31 00:32:45 | 52.02663 | 8.14823 | 305° | 16km/h | 28760m | 6.5m/s | -47.4°C | 3.2% | 15hPa | 2.6V | 08:30:00 | 02:14:48 | 00:00:00 | |
| DB0ND-19 | 2026-08-31 00:32:45 | 52.02667 | 8.14790 | 292° | 15km/h | 28789m | 5.2m/s | -47.2°C | 0.7% | 14.9hPa | 2.6V | 00:00:00 | 00:00:00 | 00:00:00 | |
| AA1-15 | 2026-08-31 00:32:44 | 52.02666 | 8.14797 | 279° | 16km/h | 28783m | 6.6m/s | -47.3°C | 0% | 15hPa | 2.6V | 18:12:15 | 02:14:52 | 00:00:00 | |
| DO9LL-15 | 2026-08-31 00:32:44 | 52.02666 | 8.14797 | 279° | 16km/h | 28783m | 6.6m/s | -47.2°C | 3.2% | 14.9hPa | 2.6V | 00:00:00 | 02:14:52 | 08:30:00 | |
| DL1XH1-15 | 2026-08-31 00:32:43 | 52.02656 | 8.14832 | 328° | 20km/h | 28749m | 4.9m/s | -47.3°C | 3.1% | 15hPa | 2.5V | 08:30:00 | 02:14:46 | 00:00:00 | |
| BIOWL1-15 | 2026-08-31 00:32:43 | 52.02660 | 8.14827 | 323° | 18km/h | 28754m | 5.5m/s | -47.3°C | 0% | 15hPa | 2.6V | 18:12:15 | 02:14:47 | 00:00:00 | |
| DO2JMG | 2026-08-31 00:32:42 | 52.02665 | 8.14810 | 274° | 16km/h | 28772m | 4.7m/s | -47.3°C | 0% | 15hPa | 2.5V | 18:12:15 | 02:14:50 | 00:00:00 | |
| DO2SHX-10 | 2026-08-31 00:32:42 | 52.02665 | 8.14810 | 274° | 18km/h | 28772m | 4.6m/s | -47.3°C | 3.2% | 14.9hPa | 2.6V | 00:00:00 | 02:14:50 | 00:00:00 | |
| DM0DOS-11 | 2026-08-31 00:32:41 | 52.02660 | 8.14828 | 322° | 18km/h | 28754m | 5.5m/s | -47.3°C | 3.1% | 15hPa | 2.6V | 08:30:00 | 02:14:47 | 00:00:00 | |
| DL1XH-west | 2026-08-31 00:32:41 | 52.02665 | 8.14817 | 286° | 16km/h | 28766m | 5.8m/s | -47.4°C | 0% | 15hPa | 2.5V | 18:12:15 | 02:14:49 | 00:00:00 | |
| SONCRA | 2026-08-31 00:32:41 | 52.02663 | 8.14823 | 305° | 15km/h | 28761m | 6.5m/s | -47.4°C | 0.7% | 15.0hPa | 2.5V | 00:00:00 | 00:00:00 | 00:00:00 | |
| DL1XH-15 | 2026-08-31 00:32:40 | 52.02644 | 8.14847 | 307° | 20km/h | 28732m | 5.7m/s | -47.4°C | 3.1% | 15hPa | 2.5V | 08:30:00 | 02:14:43 | 00:00:00 | |
| GOEST3-10 | 2026-08-31 00:32:40 | 52.02663 | 8.14823 | 306° | 18km/h | 28761m | 6.4m/s | -47.3°C | 3.2% | 14.9hPa | 2.6V | 00:00:00 | 02:14:48 | 08:30:00 | |
| SMARD9-15 | 2026-08-31 00:32:39 | 52.02660 | 8.14827 | 322° | 18km/h | 28755m | 5.5m/s | -47.3°C | 0.7% | 15.0hPa | 2.5V | 00:00:00 | 00:00:00 | 00:00:00 | |
| DO2SHX-10 | 2026-08-31 00:32:36 | 52.02647 | 8.14841 | 320° | 20km/h | 28739m | 6.0m/s | -47.3°C | 3.1% | 15.0hPa | 2.5V | 00:00:00 | 02:14:44 | 00:00:00 | |
| DK9SH | 2026-08-31 00:32:35 | 52.02644 | 8.14847 | 308° | 20km/h | 28733m | 5.7m/s | -47.4°C | 0.7% | 15.0hPa | 2.5V | 00:00:00 | 00:00:00 | 00:00:00 | |
| DO3DL | 2026-08-31 00:32:34 | 52.02641 | 8.14853 | 299° | 20km/h | 28727m | 4.9m/s | -47.5°C | 0.7% | 15.0hPa | 2.5V | 00:00:00 | 00:00:00 | 00:00:00 | |
| DL1XH1-15 | 2026-08-31 00:32:33 | 52.02625 | 8.14889 | 328° | 9km/h | 28693m | 6.5m/s | -47.7°C | 3.2% | 15.2hPa | 2.5V | 08:30:00 | 02:14:36 | 00:00:00 | |
| HSKMA3-T | 2026-08-31 00:32:33 | 52.02639 | 8.14861 | 296° | 22km/h | 28722m | 5m/s | -47.6°C | 0.1% | 15.1hPa | 2.6V | 18:12:15 | 02:14:41 | 00:00:00 | |
| DO2JMG | 2026-08-31 00:32:32 | 52.02636 | 8.14869 | 300° | 22km/h | 28716m | 6.2m/s | -47.7°C | 0.1% | 15.1hPa | 2.6V | 18:12:15 | 02:14:40 | 00:00:00 | |
| DJ2DS-15 | 2026-08-31 00:32:32 | 52.02636 | 8.14869 | 301° | 15km/h | 28717m | 6.1m/s | -47.6°C | 3.2% | 15.0hPa | 2.6V | 00:00:00 | 02:14:40 | 00:00:00 | |
| DM0DOS-11 | 2026-08-31 00:32:31 | 52.02627 | 8.14886 | 320° | 15km/h | 28699m | 5.5m/s | -47.7°C | 3.2% | 15.1hPa | 2.5V | 08:30:00 | 02:14:37 | 00:00:00 | |
| DL1NUX | 2026-08-31 00:32:30 | 52.02630 | 8.14882 | 315° | 18km/h | 28705m | 5.3m/s | -47.7°C | 3.2% | 15.1hPa | 2.5V | 08:30:00 | 02:14:38 | 00:00:00 | |
| DL1XH-west | 2026-08-31 00:32:30 | 52.02627 | 8.14886 | 320° | 15km/h | 28699m | 5.6m/s | -47.7°C | 0% | 15.1hPa | 2.5V | 18:12:15 | 02:14:37 | 00:00:00 | |
| BIOWL1-15 | 2026-08-31 00:32:29 | 52.02625 | 8.14889 | 329° | 9km/h | 28693m | 6.6m/s | -47.7°C | 0% | 15.2hPa | 2.5V | 18:12:15 | 02:14:36 | 00:00:00 | |
| DO2SHX-10 | 2026-08-31 00:32:27 | 52.02623 | 8.14890 | 354° | 11km/h | 28687m | 5.8m/s | -47.7°C | 3.3% | 15.1hPa | 2.5V | 00:00:00 | 02:14:35 | 00:00:00 | |
| DO3DL | 2026-08-31 00:32:26 | 52.02623 | 8.14890 | 355° | 5km/h | 28687m | 5.8m/s | -47.8°C | 0.8% | 15.2hPa | 2.5V | 00:00:00 | 00:00:00 | 00:00:00 | |
| DL1NUX | 2026-08-31 00:32:25 | 52.02603 | 8.14876 | 351° | 11km/h | 28647m | 6.5m/s | -48.1°C | 3.3% | 15.2hPa | 2.5V | 08:30:00 | 02:14:28 | 00:00:00 | |
| GOEST3-10 | 2026-08-31 00:32:25 | 52.02619 | 8.14888 | 38° | 15km/h | 28676m | 6.3m/s | -47.9°C | 3.3% | 15.1hPa | 2.5V | 00:00:00 | 00:00:00 | 00:00:00 | |
| DL1XH1-15 | 2026-08-31 00:32:24 | 52.02598 | 8.14881 | 315° | 13km/h | 28635m | 5.2m/s | -48.2°C | 3.3% | 15.3hPa | 2.5V | 08:30:00 | 02:14:26 | 00:00:00 | |
| DO2JMG | 2026-08-31 00:32:22 | 52.02610 | 8.14878 | 21° | 16km/h | 28658m | 4.3m/s | -48.1°C | 0.1% | 15.2hPa | 2.6V | 18:12:15 | 02:14:30 | 00:00:00 | |
| DF8AY | 2026-08-31 00:32:21 | 52.02592 | 8.14888 | 328° | 16km/h | 28623m | 6.3m/s | -48.3°C | 0.2% | 15.3hPa | 2.6V | 18:12:15 | 02:14:24 | 00:00:00 | |
| DM0DOS-11 | 2026-08-31 00:32:21 | 52.02600 | 8.14878 | 327° | 11km/h | 28641m | 5.6m/s | -48.2°C | 3.3% | 15.3hPa | 2.5V | 08:30:00 | 02:14:27 | 00:00:00 | |
| DL1XH-west | 2026-08-31 00:32:19 | 52.02600 | 8.14878 | 328° | 11km/h | 28641m | 5.6m/s | -48.2°C | 0.2% | 15.3hPa | 2.5V | 18:12:15 | 02:14:27 | 00:00:00 | |
| BIOWL1-15 | 2026-08-31 00:32:18 | 52.02598 | 8.14881 | 316° | 13km/h | 28635m | 5.2m/s | -48.3°C | 0.1% | 15.3hPa | 2.5V | 18:12:15 | 02:14:26 | 00:00:00 | |
| DO2SHX-10 | 2026-08-31 00:32:16 | 52.02592 | 8.14888 | 329° | 13km/h | 28624m | 6.3m/s | -48.3°C | 3.4% | 15.3hPa | 2.6V | 00:00:00 | 02:14:24 | 00:00:00 | |
| GOEST3-10 | 2026-08-31 00:32:15 | 52.02589 | 8.14890 | 338° | 13km/h | 28618m | 5.4m/s | -48.2°C | 3.3% | 15.3hPa | 2.6V | 00:00:00 | 00:00:00 | 00:00:00 | |
| DO9LL-15 | 2026-08-31 00:32:14 | 52.02585 | 8.14893 | 345° | 20km/h | 28612m | 5.3m/s | -48.2°C | 3.3% | 15.3hPa | 2.6V | 00:00:00 | 02:14:22 | 00:00:00 | |
| DL1XH1-15 | 2026-08-31 00:32:13 | 52.02564 | 8.14886 | 21° | 24km/h | 28577m | 6m/s | -48.4°C | 3.4% | 15.4hPa | 2.6V | 08:30:00 | 02:14:16 | 00:00:00 | |
| DO2JMG | 2026-08-31 00:32:12 | 52.02579 | 8.14894 | 3° | 11km/h | 28600m | 5.9m/s | -48.3°C | 0.2% | 15.4hPa | 2.5V | 18:12:15 | 02:14:20 | 00:00:00 | |
| DF8AY | 2026-08-31 00:32:11 | 52.02573 | 8.14892 | 19° | 15km/h | 28589m | 5.4m/s | -48.4°C | 0.2% | 15.4hPa | 2.5V | 18:12:15 | 02:14:18 | 00:00:00 | |
| AA1-15 | 2026-08-31 00:32:11 | 52.02576 | 8.14893 | 14° | 11km/h | 28595m | 5.2m/s | -48.4°C | 0.2% | 15.4hPa | 2.5V | 18:12:15 | 02:14:19 | 00:00:00 | |
| DM0DOS-11 | 2026-08-31 00:32:10 | 52.02569 | 8.14890 | 20° | 18km/h | 28583m | 6.8m/s | -48.4°C | 3.4% | 15.4hPa | 2.6V | 08:30:00 | 02:14:17 | 00:00:00 | |
| BIOWL1-15 | 2026-08-31 00:32:09 | 52.02553 | 8.14878 | 27° | 24km/h | 28566m | 5m/s | -48.5°C | 0.1% | 15.4hPa | 2.5V | 18:12:15 | 02:14:14 | 00:00:00 | |
| DL1XH-west | 2026-08-31 00:32:08 | 52.02564 | 8.14886 | 21° | 24km/h | 28577m | 6.1m/s | -48.4°C | 0.2% | 15.4hPa | 2.6V | 18:12:15 | 02:14:16 | 00:00:00 | |
| DO2SHX-10 | 2026-08-31 00:32:08 | 52.02564 | 8.14886 | 22° | 24km/h | 28577m | 6.0m/s | -48.4°C | 3.4% | 15.4hPa | 2.5V | 00:00:00 | 02:14:16 | 00:00:00 | |
| DB0UT-7 | 2026-08-31 00:32:06 | 52.02553 | 8.14878 | 27° | 24km/h | 28566m | 4.9m/s | -48.4°C | 3.4% | 15.4hPa | 2.5V | 00:00:00 | 00:00:00 | 00:00:00 | |
| DL1NUX | 2026-08-31 00:32:05 | 52.02532 | 8.14863 | 348° | 15km/h | 28531m | 5.8m/s | -48.5°C | 3.4% | 15.5hPa | 2.5V | 08:30:00 | 02:14:08 | 00:00:00 | |
| GOEST3-10 | 2026-08-31 00:32:05 | 52.02547 | 8.14874 | 31° | 15km/h | 28561m | 6.3m/s | -48.4°C | 3.4% | 15.4hPa | 2.6V | 00:00:00 | 00:00:00 | 00:00:00 | |
| DL3AQ-11 | 2026-08-31 00:32:04 | 52.02541 | 8.14866 | 35° | 11km/h | 28548m | 5.6m/s | -48.5°C | 0.8% | 15.5hPa | 2.6V | 00:00:00 | 00:00:00 | 00:00:00 | |
| DL1XH1-15 | 2026-08-31 00:32:03 | 52.02524 | 8.14869 | 332° | 20km/h | 28520m | 5.2m/s | -48.5°C | 3.4% | 15.6hPa | 2.6V | 08:30:00 | 02:14:06 | 00:00:00 | |
| DO2JMG | 2026-08-31 00:32:01 | 52.02536 | 8.14863 | 3° | 11km/h | 28537m | 6.4m/s | -48.5°C | 0.2% | 15.5hPa | 2.5V | 18:12:15 | 02:14:09 | 00:00:00 | |
| HSKMA3-T | 2026-08-31 00:32:00 | 52.02532 | 8.14863 | 348° | 15km/h | 28531m | 5.8m/s | -48.5°C | 0.2% | 15.5hPa | 2.5V | 18:12:15 | 02:14:08 | 00:00:00 | |
| DF8AY | 2026-08-31 00:31:59 | 52.02528 | 8.14865 | 339° | 18km/h | 28525m | 5m/s | -48.5°C | 0.2% | 15.6hPa | 2.5V | 18:12:15 | 02:14:07 | 00:00:00 | |
| DL1XH-west | 2026-08-31 00:31:57 | 52.02520 | 8.14873 | 329° | 20km/h | 28514m | 6.5m/s | -48.5°C | 0.1% | 15.6hPa | 2.6V | 18:12:15 | 02:14:05 | 00:00:00 | |
| BIOWL1-15 | 2026-08-31 00:31:55 | 52.02511 | 8.14880 | 338° | 20km/h | 28503m | 5m/s | -48.4°C | 0.2% | 15.6hPa | 2.5V | 18:12:15 | 02:14:03 | 00:00:00 | |
| HTAHTA | 2026-08-31 00:31:53 | 52.02500 | 8.14883 | 358° | 26km/h | 28492m | 6.7m/s | -48.5°C | 0.8% | 15.6hPa | 2.5V | 00:00:00 | 00:00:00 | 00:00:00 | |
| DJ2DS-15 | 2026-08-31 00:31:52 | 52.02492 | 8.14883 | 6° | 29km/h | 28486m | 6.3m/s | -48.4°C | 3.3% | 15.6hPa | 2.5V | 00:00:00 | 02:14:00 | 00:00:00 | |
| DD8BA-10 | 2026-08-31 00:31:51 | 52.02484 | 8.14881 | 11° | 27km/h | 28480m | 5.4m/s | -48.4°C | 3.3% | 15.6hPa | 2.5V | 00:00:00 | 00:00:00 | 00:00:00 | |
| DL1XH1-15 | 2026-08-31 00:31:50 | 52.02461 | 8.14872 | 16° | 26km/h | 28462m | 5.5m/s | -48.5°C | 3.3% | 15.7hPa | 2.5V | 08:30:00 | 02:13:56 | 00:00:00 | |
| HSKMA3-T | 2026-08-31 00:31:50 | 52.02476 | 8.14878 | 14° | 35km/h | 28474m | 5m/s | -48.5°C | 0.2% | 15.7hPa | 2.6V | 18:12:15 | 02:13:58 | 00:00:00 | |
| DF8AY | 2026-08-31 00:31:49 | 52.02461 | 8.14872 | 16° | 26km/h | 28462m | 5.6m/s | -48.5°C | 0.2% | 15.7hPa | 2.5V | 18:12:15 | 02:13:56 | 00:00:00 | |
| DL3AQ-11 | 2026-08-31 00:31:48 | 52.02455 | 8.14869 | 12° | 22km/h | 28457m | 5.0m/s | -48.5°C | 0.8% | 15.7hPa | 2.6V | 00:00:00 | 00:00:00 | 00:00:00 | |
| DO3DL | 2026-08-31 00:31:47 | 52.02461 | 8.14871 | 17° | 26km/h | 28463m | 5.6m/s | -48.5°C | 0.8% | 15.7hPa | 2.6V | 00:00:00 | 00:00:00 | 00:00:00 | |
| DL1XH-15 | 2026-08-31 00:31:46 | 52.02445 | 8.14867 | 0° | 22km/h | 28446m | 6.3m/s | -48.5°C | 3.4% | 15.7hPa | 2.6V | 08:30:00 | 02:13:53 | 00:00:00 | |
| DL1XH-west | 2026-08-31 00:31:46 | 52.02450 | 8.14868 | 7° | 20km/h | 28452m | 5.2m/s | -48.5°C | 0.1% | 15.7hPa | 2.6V | 18:12:15 | 02:13:54 | 00:00:00 | |
| BIOWL1-15 | 2026-08-31 00:31:44 | 52.02439 | 8.14867 | 356° | 26km/h | 28440m | 5.8m/s | -48.5°C | 0.2% | 15.8hPa | 2.5V | 18:12:15 | 02:13:52 | 00:00:00 | |
| DO9LL-15 | 2026-08-31 00:31:44 | 52.02439 | 8.14867 | 357° | 31km/h | 28440m | 5.8m/s | -48.5°C | 3.4% | 15.7hPa | 2.6V | 00:00:00 | 02:13:52 | 00:00:00 | |
| DL1XH1-15 | 2026-08-31 00:31:43 | 52.02399 | 8.14873 | 3° | 29km/h | 28407m | 5.2m/s | -48.6°C | 3.4% | 15.8hPa | 2.6V | 08:30:00 | 02:13:46 | 00:00:00 | |
| DB0ND-19 | 2026-08-31 00:31:43 | 52.02425 | 8.14870 | 351° | 27km/h | 28429m | 4.8m/s | -48.5°C | 0.8% | 15.8hPa | 2.5V | 00:00:00 | 00:00:00 | 00:00:00 | |
| DL1XH-15 | 2026-08-31 00:31:41 | 52.02372 | 8.14868 | 9° | 38km/h | 28389m | 5m/s | -48.7°C | 3.4% | 15.9hPa | 2.5V | 08:30:00 | 02:13:43 | 00:00:00 | |
| AA1-15 | 2026-08-31 00:31:40 | 52.02412 | 8.14873 | 354° | 26km/h | 28417m | 5.8m/s | -48.6°C | 0.2% | 15.8hPa | 2.6V | 18:12:15 | 02:13:48 | 00:00:00 | |
| DO2JMG | 2026-08-31 00:31:39 | 52.02406 | 8.14873 | 359° | 26km/h | 28412m | 5m/s | -48.6°C | 0.2% | 15.8hPa | 2.6V | 18:12:15 | 02:13:47 | 00:00:00 | |
| DF8AY | 2026-08-31 00:31:38 | 52.02399 | 8.14873 | 3° | 29km/h | 28407m | 5.2m/s | -48.6°C | 0.2% | 15.8hPa | 2.6V | 18:12:15 | 02:13:46 | 00:00:00 | |
| DL1XH-west | 2026-08-31 00:31:35 | 52.02372 | 8.14868 | 10° | 38km/h | 28389m | 5m/s | -48.7°C | 0.2% | 15.9hPa | 2.5V | 18:12:15 | 02:13:43 | 00:00:00 | |
| DL1NUX | 2026-08-31 00:31:35 | 52.02334 | 8.14861 | 349° | 26km/h | 28362m | 5.9m/s | -48.9°C | 3.5% | 15.9hPa | 2.5V | 08:30:00 | 02:13:38 | 00:00:00 | |
| BIOWL1-15 | 2026-08-31 00:31:34 | 52.02363 | 8.14865 | 11° | 37km/h | 28384m | 4.8m/s | -48.7°C | 0.2% | 15.9hPa | 2.5V | 18:12:15 | 02:13:42 | 00:00:00 | |
| DO2SHX-10 | 2026-08-31 00:31:34 | 52.02363 | 8.14865 | 11° | 29km/h | 28385m | 4.8m/s | -48.7°C | 3.4% | 15.8hPa | 2.5V | 00:00:00 | 02:13:42 | 00:00:00 | |
| DM0DOS-11 | 2026-08-31 00:31:33 | 52.02328 | 8.14864 | 344° | 27km/h | 28356m | 6.2m/s | -48.9°C | 3.5% | 15.9hPa | 2.5V | 08:30:00 | 02:13:37 | 00:00:00 | |
| HSKMA3-T | 2026-08-31 00:31:29 | 52.02328 | 8.14864 | 344° | 27km/h | 28356m | 6.2m/s | -48.9°C | 0.2% | 15.9hPa | 2.5V | 18:12:15 | 02:13:37 | 00:00:00 | |
| DO2JMG | 2026-08-31 00:31:28 | 52.02321 | 8.14867 | 343° | 31km/h | 28350m | 4.8m/s | -48.9°C | 0.3% | 16hPa | 2.6V | 18:12:15 | 02:13:36 | 00:00:00 | |
| DF8AY | 2026-08-31 00:31:28 | 52.02313 | 8.14871 | 345° | 33km/h | 28345m | 4.4m/s | -48.9°C | 0.3% | 16hPa | 2.6V | 18:12:15 | 02:13:35 | 00:00:00 | |
| DL1XH-15 | 2026-08-31 00:31:27 | 52.02297 | 8.14875 | 356° | 35km/h | 28334m | 5.5m/s | -48.9°C | 3.5% | 16hPa | 2.5V | 08:30:00 | 02:13:33 | 00:00:00 | |
| DL1XH-west | 2026-08-31 00:31:25 | 52.02297 | 8.14875 | 357° | 35km/h | 28334m | 5.5m/s | -48.9°C | 0.2% | 16hPa | 2.5V | 18:12:15 | 02:13:33 | 00:00:00 | |
| BIOWL1-15 | 2026-08-31 00:31:24 | 52.02288 | 8.14875 | 2° | 37km/h | 28329m | 5.2m/s | -48.9°C | 0.2% | 16hPa | 2.5V | 18:12:15 | 02:13:32 | 00:00:00 | |
| DO2SHX-10 | 2026-08-31 00:31:24 | 52.02288 | 8.14875 | 2° | 40km/h | 28329m | 5.1m/s | -48.8°C | 3.5% | 16.0hPa | 2.5V | 00:00:00 | 02:13:32 | 00:00:00 | |
| DD1CC3-15 | 2026-08-31 00:31:23 | 52.02288 | 8.14875 | 3° | 37km/h | 28329m | 5.2m/s | -48.9°C | 0.8% | 16.0hPa | 2.5V | 00:00:00 | 00:00:00 | 00:00:00 | |
| DO2KSM | 2026-08-31 00:31:22 | 52.02278 | 8.14875 | 5° | 40km/h | 28324m | 5.7m/s | -48.9°C | 0.8% | 16.0hPa | 2.5V | 00:00:00 | 00:00:00 | 00:00:00 | |
| DL1NUX | 2026-08-31 00:31:21 | 52.02245 | 8.14872 | 0° | 44km/h | 28307m | 3.9m/s | -48.8°C | 3.5% | 16.1hPa | 2.5V | 08:30:00 | 02:13:28 | 00:00:00 | |
| DM0DOS-11 | 2026-08-31 00:31:21 | 52.02234 | 8.14872 | 0° | 38km/h | 28303m | 5.3m/s | -48.8°C | 3.5% | 16.1hPa | 2.5V | 08:30:00 | 02:13:27 | 00:00:00 | |
| DO2SHX-10 | 2026-08-31 00:31:21 | 52.02256 | 8.14872 | 3° | 42km/h | 28312m | 4.9m/s | -48.8°C | 3.6% | 16.0hPa | 2.5V | 00:00:00 | 02:13:29 | 00:00:00 | |
| DL1XH-15 | 2026-08-31 00:31:20 | 52.02207 | 8.14877 | 339° | 24km/h | 28282m | 5.5m/s | -48.8°C | 3.5% | 16.1hPa | 2.5V | 08:30:00 | 02:13:23 | 00:00:00 | |
| AA1-15 | 2026-08-31 00:31:18 | 52.02225 | 8.14872 | 359° | 31km/h | 28297m | 6.4m/s | -48.8°C | 0.2% | 16.1hPa | 2.6V | 18:12:15 | 02:13:26 | 00:00:00 | |
| DO2JMG | 2026-08-31 00:31:17 | 52.02218 | 8.14872 | 354° | 26km/h | 28291m | 5.2m/s | -48.8°C | 0.3% | 16.1hPa | 2.6V | 18:12:15 | 02:13:25 | 00:00:00 | |
| DL1XH-west | 2026-08-31 00:31:14 | 52.02194 | 8.14886 | 334° | 35km/h | 28270m | 5.6m/s | -48.7°C | 0.2% | 16.2hPa | 2.5V | 18:12:15 | 02:13:21 | 00:00:00 | |
| HSKMA3-T | 2026-08-31 00:31:08 | 52.02150 | 8.14920 | 340° | 35km/h | 28242m | 5.4m/s | -48.7°C | 0.3% | 16.2hPa | 2.5V | 18:12:15 | 02:13:16 | 00:00:00 | |
| DO2JMG | 2026-08-31 00:31:07 | 52.02142 | 8.14924 | 346° | 33km/h | 28237m | 4.9m/s | -48.7°C | 0.2% | 16.2hPa | 2.6V | 18:12:15 | 02:13:15 | 00:00:00 | |
| DF8AY | 2026-08-31 00:31:06 | 52.02134 | 8.14926 | 352° | 35km/h | 28231m | 5.2m/s | -48.6°C | 0.2% | 16.2hPa | 2.6V | 18:12:15 | 02:13:14 | 00:00:00 | |
| DL1XH-15 | 2026-08-31 00:31:06 | 52.02125 | 8.14928 | 355° | 37km/h | 28226m | 6.4m/s | -48.6°C | 3.5% | 16.3hPa | 2.5V | 08:30:00 | 02:13:13 | 00:00:00 | |
| DL1XH-west | 2026-08-31 00:31:03 | 52.02106 | 8.14931 | 348° | 37km/h | 28215m | 4.3m/s | -48.5°C | 0.3% | 16.3hPa | 2.5V | 18:12:15 | 02:13:11 | 00:00:00 | |
| DL1XH1-15 | 2026-08-31 00:31:03 | 52.02072 | 8.14979 | 305° | 44km/h | 28188m | 5m/s | -48.3°C | 3.4% | 16.3hPa | 2.5V | 08:30:00 | 02:13:06 | 00:00:00 | |
| DL1NUX | 2026-08-31 00:31:02 | 52.02078 | 8.14965 | 304° | 40km/h | 28193m | 4.8m/s | -48.3°C | 3.4% | 16.4hPa | 2.6V | 08:30:00 | 02:13:07 | 00:00:00 | |
| BIOWL1-15 | 2026-08-31 00:30:59 | 52.02029 | 8.15035 | 336° | 38km/h | 28161m | 6m/s | -48.3°C | 0.2% | 16.4hPa | 2.6V | 18:12:15 | 02:13:01 | 00:00:00 | |
| AA1-15 | 2026-08-31 00:30:57 | 52.02057 | 8.15006 | 318° | 47km/h | 28177m | 5.6m/s | -48.3°C | 0.2% | 16.4hPa | 2.5V | 18:12:15 | 02:13:04 | 00:00:00 | |
| DF8AY | 2026-08-31 00:30:55 | 52.02038 | 8.15027 | 332° | 44km/h | 28167m | 5.2m/s | -48.3°C | 0.2% | 16.4hPa | 2.6V | 18:12:15 | 02:13:02 | 00:00:00 | |
| BUE01 | 2026-08-31 00:30:55 | 52.02038 | 8.15027 | 332° | 42km/h | 28167m | 5.2m/s | -48.3°C | 0.8% | 16.4hPa | 2.6V | 00:00:00 | 00:00:00 | 00:00:00 | |
| GOEST3-10 | 2026-08-31 00:30:54 | 52.02038 | 8.15027 | 333° | 35km/h | 28167m | 5.2m/s | -48.2°C | 3.4% | 16.4hPa | 2.6V | 00:00:00 | 00:00:00 | 00:00:00 | |
| DM0DOS-11 | 2026-08-31 00:30:53 | 52.02000 | 8.15061 | 322° | 33km/h | 28140m | 5.4m/s | -48.2°C | 3.4% | 16.5hPa | 2.6V | 08:30:00 | 02:12:57 | 00:00:00 | |
| DL1XH-west | 2026-08-31 00:30:52 | 52.02013 | 8.15047 | 332° | 29km/h | 28150m | 4.5m/s | -48.2°C | 0.2% | 16.5hPa | 2.5V | 18:12:15 | 02:12:59 | 00:00:00 | |
| BIOWL1-15 | 2026-08-31 00:30:51 | 52.02000 | 8.15061 | 322° | 33km/h | 28140m | 5.4m/s | -48.2°C | 0.2% | 16.5hPa | 2.6V | 18:12:15 | 02:12:57 | 00:00:00 | |
| HSKMA3-T | 2026-08-31 00:30:47 | 52.01986 | 8.15079 | 320° | 40km/h | 28128m | 5.9m/s | -48.1°C | 0.2% | 16.5hPa | 2.5V | 18:12:15 | 02:12:55 | 00:00:00 | |
| DD1CC8 | 2026-08-31 00:30:47 | 52.01978 | 8.15090 | 318° | 42km/h | 28123m | 4.6m/s | -48.1°C | 0.8% | 16.5hPa | 2.5V | 00:00:00 | 00:00:00 | 00:00:00 | |
| DL1XH-15 | 2026-08-31 00:30:46 | 52.01970 | 8.15102 | 315° | 42km/h | 28118m | 4.9m/s | -48.1°C | 3.4% | 16.5hPa | 2.5V | 08:30:00 | 02:12:53 | 00:00:00 | |
| DO2JMG | 2026-08-31 00:30:46 | 52.01978 | 8.15090 | 319° | 42km/h | 28123m | 4.6m/s | -48.1°C | 0.2% | 16.5hPa | 2.5V | 18:12:15 | 02:12:54 | 00:00:00 | |
| DF8AY | 2026-08-31 00:30:45 | 52.01970 | 8.15102 | 316° | 42km/h | 28118m | 4.9m/s | -48.1°C | 0.2% | 16.5hPa | 2.5V | 18:12:15 | 02:12:53 | 00:00:00 | |
| DO9LL-15 | 2026-08-31 00:30:44 | 52.01963 | 8.15114 | 313° | 35km/h | 28113m | 6.2m/s | -48.0°C | 3.3% | 16.5hPa | 2.6V | 00:00:00 | 02:12:52 | 00:00:00 | |
| DO2SHX-10 | 2026-08-31 00:30:43 | 52.01956 | 8.15127 | 308° | 27km/h | 28107m | 5.8m/s | -48.0°C | 3.4% | 16.5hPa | 2.6V | 00:00:00 | 02:12:51 | 00:00:00 | |
| DD1CC3-15 | 2026-08-31 00:30:42 | 52.01956 | 8.15127 | 308° | 40km/h | 28107m | 5.8m/s | -48.1°C | 0.8% | 16.6hPa | 2.5V | 00:00:00 | 00:00:00 | 00:00:00 | |
| DM0DOS-11 | 2026-08-31 00:30:41 | 52.01934 | 8.15183 | 305° | 44km/h | 28085m | 5.7m/s | -48°C | 3.3% | 16.6hPa | 2.5V | 08:30:00 | 02:12:47 | 00:00:00 | |
| DL1XH-west | 2026-08-31 00:30:40 | 52.01940 | 8.15169 | 303° | 42km/h | 28091m | 6.1m/s | -48.1°C | 0.1% | 16.6hPa | 2.5V | 18:12:15 | 02:12:48 | 00:00:00 | |
| BIOWL1-15 | 2026-08-31 00:30:40 | 52.01927 | 8.15197 | 310° | 44km/h | 28080m | 4.9m/s | -48°C | 0.1% | 16.6hPa | 2.5V | 18:12:15 | 02:12:46 | 00:00:00 | |
| HSKMA3-T | 2026-08-31 00:30:36 | 52.01914 | 8.15222 | 313° | 35km/h | 28069m | 6.5m/s | -47.9°C | 0.1% | 16.7hPa | 2.6V | 18:12:15 | 02:12:44 | 00:00:00 | |
| DL1XH-15 | 2026-08-31 00:30:36 | 52.01908 | 8.15232 | 312° | 31km/h | 28063m | 6.1m/s | -47.9°C | 3.3% | 16.7hPa | 2.6V | 08:30:00 | 02:12:43 | 00:00:00 | |
| AA1-15 | 2026-08-31 00:30:35 | 52.01908 | 8.15231 | 313° | 31km/h | 28063m | 6.1m/s | -47.9°C | 0.2% | 16.7hPa | 2.6V | 18:12:15 | 02:12:43 | 00:00:00 | |
| DF8AY | 2026-08-31 00:30:35 | 52.01899 | 8.15250 | 307° | 29km/h | 28053m | 4.9m/s | -48°C | 0.1% | 16.7hPa | 2.5V | 18:12:15 | 02:12:41 | 00:00:00 | |
| DO3DL | 2026-08-31 00:30:35 | 52.01908 | 8.15232 | 313° | 31km/h | 28063m | 6.1m/s | -47.9°C | 0.8% | 16.7hPa | 2.5V | 00:00:00 | 00:00:00 | 00:00:00 | |
| GOEST3-10 | 2026-08-31 00:30:34 | 52.01903 | 8.15240 | 310° | 33km/h | 28058m | 5.0m/s | -47.9°C | 3.3% | 16.7hPa | 2.5V | 00:00:00 | 00:00:00 | 00:00:00 | |
| DJ2DS-15 | 2026-08-31 00:30:32 | 52.01894 | 8.15260 | 307° | 33km/h | 28047m | 5.6m/s | -47.9°C | 3.3% | 16.7hPa | 2.5V | 00:00:00 | 02:12:40 | 00:00:00 | |
| AM1SDL-15 | 2026-08-31 00:30:31 | 52.01889 | 8.15271 | 307° | 33km/h | 28042m | 5.8m/s | 0°C | 0% | 0hPa | 2.6V | 00:00:00 | 02:12:39 | 00:00:00 | |
| DD8BA-10 | 2026-08-31 00:30:30 | 52.01883 | 8.15283 | 307° | 38km/h | 28036m | 5.5m/s | -48.0°C | 3.3% | 16.7hPa | 2.6V | 00:00:00 | 00:00:00 | 00:00:00 | |
| BIOWL1-15 | 2026-08-31 00:30:29 | 52.01831 | 8.15516 | 260° | 29km/h | 27932m | 5m/s | -48.3°C | 0.1% | 17hPa | 2.6V | 18:12:15 | 02:12:19 | 00:00:00 | |
| DL1XH-west | 2026-08-31 00:30:29 | 52.01878 | 8.15295 | 305° | 38km/h | 28030m | 5.2m/s | -48°C | 0.1% | 16.8hPa | 2.5V | 18:12:15 | 02:12:37 | 00:00:00 | |
| HSKMA3-T | 2026-08-31 00:30:26 | 52.01864 | 8.15334 | 291° | 35km/h | 28012m | 5.3m/s | -48°C | 0.1% | 16.8hPa | 2.5V | 18:12:15 | 02:12:34 | 00:00:00 | |
| DO2JMG | 2026-08-31 00:30:25 | 52.01861 | 8.15348 | 287° | 35km/h | 28007m | 4.5m/s | -48°C | 0.2% | 16.8hPa | 2.6V | 18:12:15 | 02:12:33 | 00:00:00 | |
| DF8AY | 2026-08-31 00:30:24 | 52.01856 | 8.15377 | 288° | 40km/h | 27996m | 6.3m/s | -48.1°C | 0.2% | 16.9hPa | 2.6V | 18:12:15 | 02:12:31 | 00:00:00 | |
| AA1-15 | 2026-08-31 00:30:24 | 52.01852 | 8.15392 | 290° | 40km/h | 27990m | 5.1m/s | -48.1°C | 0.2% | 16.9hPa | 2.5V | 18:12:15 | 02:12:30 | 00:00:00 | |
| GOEST3-10 | 2026-08-31 00:30:24 | 52.01859 | 8.15362 | 288° | 38km/h | 28002m | 5.6m/s | -48.0°C | 3.3% | 16.8hPa | 2.6V | 00:00:00 | 00:00:00 | 08:30:00 | |
| BUE01 | 2026-08-31 00:30:23 | 52.01856 | 8.15377 | 288° | 38km/h | 27996m | 6.3m/s | -48.1°C | 0.8% | 16.9hPa | 2.5V | 00:00:00 | 00:00:00 | 00:00:00 | |
| DL4XJ-10 | 2026-08-31 00:30:22 | 52.01853 | 8.15392 | 291° | 29km/h | 27991m | 5.0m/s | -50.4°C | 0% | 0hPa | 2.5V | 00:00:00 | 00:00:00 | 00:00:00 | |
| DF8AY-15 | 2026-08-31 00:30:21 | 52.01849 | 8.15408 | 293° | 27km/h | 27986m | 4.3m/s | -48.1°C | 3.3% | 16.8hPa | 2.5V | 00:00:00 | 02:12:29 | 08:30:00 | |
| DO2KSM | 2026-08-31 00:30:20 | 52.01849 | 8.15407 | 293° | 38km/h | 27986m | 4.4m/s | -48.1°C | 0.8% | 16.9hPa | 2.6V | 00:00:00 | 00:00:00 | 00:00:00 | |
| DL1XH1-15 | 2026-08-31 00:30:19 | 52.01839 | 8.15444 | 295° | 26km/h | 27969m | 5.4m/s | -48.2°C | 3.4% | 16.9hPa | 2.6V | 08:30:00 | 02:12:26 | 00:00:00 | |
| DL1XH-west | 2026-08-31 00:30:18 | 52.01839 | 8.15444 | 295° | 26km/h | 27969m | 5.4m/s | -48.3°C | 0.2% | 16.9hPa | 2.6V | 18:12:15 | 02:12:26 | 00:00:00 | |
| DL1XH-15 | 2026-08-31 00:30:16 | 52.01832 | 8.15471 | 285° | 26km/h | 27953m | 5.1m/s | -48.3°C | 3.4% | 17hPa | 2.5V | 08:30:00 | 02:12:23 | 00:00:00 | |
| DO2JMG | 2026-08-31 00:30:15 | 52.01832 | 8.15471 | 286° | 26km/h | 27953m | 5.1m/s | -48.3°C | 0.2% | 17hPa | 2.5V | 18:12:15 | 02:12:23 | 00:00:00 | |
| BIOWL1-15 | 2026-08-31 00:30:14 | 52.01833 | 8.15528 | 262° | 31km/h | 27928m | 4.6m/s | -48.3°C | 0.1% | 17hPa | 2.6V | 18:12:15 | 02:12:18 | 00:00:00 | |
| DF8AY | 2026-08-31 00:30:14 | 52.01831 | 8.15481 | 279° | 27km/h | 27949m | 4.3m/s | -48.3°C | 0.1% | 17hPa | 2.5V | 18:12:15 | 02:12:22 | 00:00:00 | |
| AA1-15 | 2026-08-31 00:30:13 | 52.01830 | 8.15492 | 271° | 27km/h | 27944m | 5.2m/s | -48.3°C | 0.2% | 17hPa | 2.5V | 18:12:15 | 02:12:21 | 00:00:00 | |
| DL1XH-west | 2026-08-31 00:30:08 | 52.01834 | 8.15554 | 273° | 33km/h | 27917m | 5.6m/s | -48.3°C | 0.1% | 17.1hPa | 2.5V | 18:12:15 | 02:12:16 | 00:00:00 | |
| DO3DL | 2026-08-31 00:30:07 | 52.01834 | 8.15554 | 274° | 33km/h | 27917m | 5.6m/s | -48.2°C | 0.8% | 17.1hPa | 2.6V | 00:00:00 | 00:00:00 | 00:00:00 | |
| DL1XH-15 | 2026-08-31 00:30:06 | 52.01831 | 8.15590 | 277° | 24km/h | 27903m | 5.5m/s | -48.3°C | 3.3% | 17.1hPa | 2.6V | 08:30:00 | 02:12:13 | 00:00:00 | |
| DO2JMG | 2026-08-31 00:30:04 | 52.01831 | 8.15598 | 268° | 18km/h | 27897m | 5.3m/s | -48.3°C | 0.1% | 17.1hPa | 2.6V | 18:12:15 | 02:12:12 | 00:00:00 | |
| AA1-15 | 2026-08-31 00:30:02 | 52.01833 | 8.15611 | 247° | 16km/h | 27888m | 4.3m/s | -48.4°C | 0.2% | 17.1hPa | 2.5V | 18:12:15 | 02:12:10 | 00:00:00 | |
| DM0DOS-11 | 2026-08-31 00:30:01 | 52.01838 | 8.15637 | 257° | 27km/h | 27873m | 4.8m/s | -48.5°C | 3.4% | 17.2hPa | 2.6V | 08:30:00 | 02:12:07 | 00:00:00 | |
| DL1XH-15 | 2026-08-31 00:30:01 | 52.01844 | 8.15683 | 257° | 26km/h | 27853m | 5m/s | -48.6°C | 3.4% | 17.2hPa | 2.5V | 08:30:00 | 02:12:03 | 00:00:00 | |
| DL1XH-west | 2026-08-31 00:29:58 | 52.01839 | 8.15649 | 259° | 29km/h | 27868m | 4.6m/s | -48.6°C | 0.2% | 17.2hPa | 2.5V | 18:12:15 | 02:12:06 | 00:00:00 | |
| DF8AY | 2026-08-31 00:29:54 | 52.01845 | 8.15692 | 261° | 24km/h | 27848m | 4.8m/s | -48.6°C | 0.2% | 17.2hPa | 2.6V | 18:12:15 | 02:12:02 | 00:00:00 | |
| DO2JMG | 2026-08-31 00:29:53 | 52.01846 | 8.15702 | 267° | 24km/h | 27843m | 5.4m/s | -48.6°C | 0.2% | 17.3hPa | 2.6V | 18:12:15 | 02:12:01 | 00:00:00 | |
| AA1-15 | 2026-08-31 00:29:52 | 52.01845 | 8.15721 | 281° | 22km/h | 27832m | 4.1m/s | -48.7°C | 0.2% | 17.3hPa | 2.5V | 18:12:15 | 02:11:59 | 00:00:00 | |
| DM0DOS-11 | 2026-08-31 00:29:51 | 52.01843 | 8.15736 | 276° | 15km/h | 27823m | 6m/s | -48.8°C | 3.4% | 17.3hPa | 2.5V | 08:30:00 | 02:11:57 | 00:00:00 | |
| BIOWL1-15 | 2026-08-31 00:29:51 | 52.01843 | 8.15742 | 260° | 11km/h | 27817m | 5.9m/s | -48.8°C | 0.3% | 17.3hPa | 2.5V | 18:12:15 | 02:11:56 | 00:00:00 | |
| DL1XH-west | 2026-08-31 00:29:47 | 52.01844 | 8.15745 | 240° | 9km/h | 27812m | 4.9m/s | -48.8°C | 0.2% | 17.4hPa | 2.6V | 18:12:15 | 02:11:55 | 00:00:00 | |
| HSKMA3-T | 2026-08-31 00:29:43 | 52.01851 | 8.15767 | 249° | 22km/h | 27791m | 4.4m/s | -48.9°C | 0.3% | 17.4hPa | 2.5V | 18:12:15 | 02:11:51 | 00:00:00 | |
| DO2JMG | 2026-08-31 00:29:42 | 52.01853 | 8.15775 | 247° | 24km/h | 27787m | 4.9m/s | -48.9°C | 0.2% | 17.4hPa | 2.5V | 18:12:15 | 02:11:50 | 00:00:00 | |
| AA1-15 | 2026-08-31 00:29:42 | 52.01855 | 8.15784 | 242° | 22km/h | 27781m | 5.9m/s | -49°C | 0.3% | 17.4hPa | 2.6V | 18:12:15 | 02:11:49 | 00:00:00 | |
| DM0DOS-11 | 2026-08-31 00:29:41 | 52.01860 | 8.15797 | 236° | 16km/h | 27771m | 4.5m/s | -49°C | 3.5% | 17.5hPa | 2.6V | 08:30:00 | 02:11:47 | 00:00:00 | |
| DL1XH-west | 2026-08-31 00:29:37 | 52.01863 | 8.15807 | 259° | 11km/h | 27761m | 6m/s | -49°C | 0.3% | 17.5hPa | 2.5V | 18:12:15 | 02:11:45 | 00:00:00 | |
| HSKMA3-T | 2026-08-31 00:29:33 | 52.01864 | 8.15818 | 189° | 4km/h | 27741m | 6.1m/s | -49°C | 0.3% | 17.6hPa | 2.6V | 18:12:15 | 02:11:41 | 00:00:00 | |
| DJ8HS-15 | 2026-08-31 00:29:32 | 52.01865 | 8.15818 | 170° | 9km/h | 27736m | 4.9m/s | -48.9°C | 3.5% | 17.5hPa | 2.6V | 00:00:00 | 02:11:40 | 00:00:00 | |
| DM0DOS-11 | 2026-08-31 00:29:31 | 52.01871 | 8.15822 | 237° | 11km/h | 27722m | 5.3m/s | -49°C | 3.4% | 17.6hPa | 2.6V | 08:30:00 | 02:11:37 | 00:00:00 | |
| DO2JMG | 2026-08-31 00:29:31 | 52.01867 | 8.15818 | 183° | 9km/h | 27731m | 3.8m/s | -49°C | 0.2% | 17.6hPa | 2.5V | 18:12:15 | 02:11:39 | 00:00:00 | |
| AA1-15 | 2026-08-31 00:29:30 | 52.01869 | 8.15819 | 208° | 9km/h | 27727m | 4.2m/s | -49°C | 0.2% | 17.6hPa | 2.5V | 18:12:15 | 02:11:38 | 00:00:00 | |
| DL1XH-west | 2026-08-31 00:29:27 | 52.01872 | 8.15832 | 283° | 16km/h | 27712m | 4.8m/s | -48.9°C | 0.3% | 17.6hPa | 2.5V | 18:12:15 | 02:11:35 | 00:00:00 | |
| DD1CC2-15 | 2026-08-31 00:29:26 | 52.01872 | 8.15832 | 284° | 16km/h | 27712m | 4.8m/s | -48.9°C | 0.9% | 17.6hPa | 2.6V | 00:00:00 | 00:00:00 | 00:00:00 | |
| DL1CLM-18 | 2026-08-31 00:29:25 | 52.01870 | 8.15838 | 297° | 16km/h | 27708m | 4.4m/s | -48.9°C | 0.8% | 17.6hPa | 2.6V | 00:00:00 | 00:00:00 | 00:00:00 | |
| GOEST3-10 | 2026-08-31 00:29:24 | 52.01867 | 8.15847 | 306° | 7km/h | 27698m | 4.7m/s | -48.8°C | 3.4% | 17.6hPa | 2.6V | 00:00:00 | 00:00:00 | 00:00:00 | |
| DL1XH1-15 | 2026-08-31 00:29:23 | 52.01877 | 8.15854 | 206° | 7km/h | 27668m | 4.7m/s | -49°C | 3.4% | 17.7hPa | 2.6V | 08:30:00 | 02:11:26 | 00:00:00 | |
| HSKMA3-T | 2026-08-31 00:29:23 | 52.01867 | 8.15849 | 263° | 4km/h | 27693m | 4.8m/s | -48.9°C | 0.2% | 17.7hPa | 2.6V | 18:12:15 | 02:11:31 | 00:00:00 | |
| BIOWL1-15 | 2026-08-31 00:29:21 | 52.01869 | 8.15851 | 189° | 9km/h | 27683m | 5.4m/s | -48.9°C | 0.2% | 17.7hPa | 2.5V | 18:12:15 | 02:11:29 | 00:00:00 | |
| DM0DOS-11 | 2026-08-31 00:29:21 | 52.01875 | 8.15853 | 200° | 11km/h | 27673m | 4.5m/s | -49°C | 3.4% | 17.7hPa | 2.6V | 08:30:00 | 02:11:27 | 00:00:00 | |
| DO2JMG | 2026-08-31 00:29:21 | 52.01872 | 8.15852 | 194° | 13km/h | 27678m | 5.2m/s | -48.9°C | 0.2% | 17.7hPa | 2.5V | 18:12:15 | 02:11:28 | 00:00:00 | |
| AA1-15 | 2026-08-31 00:29:19 | 52.01875 | 8.15853 | 201° | 11km/h | 27673m | 4.5m/s | -49°C | 0.2% | 17.7hPa | 2.6V | 18:12:15 | 02:11:27 | 00:00:00 | |
| DL1XH-west | 2026-08-31 00:29:17 | 52.01878 | 8.15855 | 206° | 4km/h | 27663m | 5.6m/s | -49°C | 0.2% | 17.8hPa | 2.5V | 18:12:15 | 02:11:25 | 00:00:00 | |
| DO3DL | 2026-08-31 00:29:15 | 52.01878 | 8.15856 | 0° | 0km/h | 27658m | 5.8m/s | -49.0°C | 0.8% | 17.8hPa | 2.6V | 00:00:00 | 00:00:00 | 00:00:00 | |
| BIOWL9-15 | 2026-08-31 00:29:14 | 52.01874 | 8.15855 | 334° | 5km/h | 27642m | 5.4m/s | -49.1°C | -1.0% | -1.0hPa | 2.6V | 00:00:00 | 00:00:00 | 00:00:00 | |
| DL1XH1-15 | 2026-08-31 00:29:13 | 52.01875 | 8.15872 | 230° | 5km/h | 27615m | 5.9m/s | -49.1°C | 3.4% | 17.9hPa | 2.6V | 08:30:00 | 02:11:16 | 00:00:00 | |
| HSKMA3-T | 2026-08-31 00:29:13 | 52.01874 | 8.15855 | 334° | 7km/h | 27642m | 5.4m/s | -49.1°C | 0.3% | 17.8hPa | 2.6V | 18:12:15 | 02:11:21 | 00:00:00 | |
| DJ8HS-15 | 2026-08-31 00:29:12 | 52.01873 | 8.15857 | 297° | 9km/h | 27636m | 5.8m/s | -49.0°C | 3.5% | 17.8hPa | 2.5V | 00:00:00 | 02:11:20 | 00:00:00 | |
| DM0DOS-11 | 2026-08-31 00:29:11 | 52.01873 | 8.15869 | 247° | 9km/h | 27621m | 5.6m/s | -49.1°C | 3.4% | 17.9hPa | 2.5V | 08:30:00 | 02:11:17 | 00:00:00 | |
| DO2JMG | 2026-08-31 00:29:10 | 52.01873 | 8.15865 | 256° | 11km/h | 27626m | 4.6m/s | -49.1°C | 0.2% | 17.8hPa | 2.5V | 18:12:15 | 02:11:18 | 00:00:00 | |
| AA1-15 | 2026-08-31 00:29:09 | 52.01874 | 8.15869 | 247° | 9km/h | 27621m | 5.6m/s | -49.1°C | 0.2% | 17.9hPa | 2.5V | 18:12:15 | 02:11:17 | 00:00:00 | |
| DL1XH-west | 2026-08-31 00:29:07 | 52.01875 | 8.15873 | 203° | 4km/h | 27609m | 5.2m/s | -49.2°C | 0.2% | 17.9hPa | 2.6V | 18:12:15 | 02:11:15 | 00:00:00 | |
| SONDE2-11 | 2026-08-31 00:29:06 | 52.01878 | 8.15874 | 187° | 4km/h | 27600m | 4.7m/s | -49.2°C | 0.8% | 17.9hPa | 2.6V | 00:00:00 | 00:00:00 | 00:00:00 | |
| DJ2DS-15 | 2026-08-31 00:29:05 | 52.01878 | 8.15874 | 187° | 4km/h | 27600m | 4.7m/s | -49.2°C | 0.8% | 17.9hPa | 2.6V | 00:00:00 | 00:00:00 | 00:00:00 | |
| DM0DOS-11 | 2026-08-31 00:29:04 | 52.01882 | 8.15883 | 1° | 5km/h | 27564m | 4.9m/s | -49.3°C | 3.5% | 18hPa | 2.6V | 08:30:00 | 02:11:06 | 00:00:00 | |
| GOEST3-10 | 2026-08-31 00:29:04 | 52.01879 | 8.15874 | 210° | 5km/h | 27595m | 5.4m/s | -49.1°C | 3.5% | 17.9hPa | 2.6V | 00:00:00 | 00:00:00 | 00:00:00 | |
| DL1XH1-15 | 2026-08-31 00:29:03 | 52.01882 | 8.15883 | 1° | 5km/h | 27564m | 4.9m/s | -49.3°C | 3.5% | 18hPa | 2.6V | 08:30:00 | 02:11:06 | 00:00:00 | |
| HSKMA3-T | 2026-08-31 00:29:02 | 52.01881 | 8.15878 | 233° | 7km/h | 27585m | 4.5m/s | -49.2°C | 0.3% | 17.9hPa | 2.6V | 18:12:15 | 02:11:10 | 00:00:00 | |
| SMARD9-15 | 2026-08-31 00:29:02 | 52.01881 | 8.15878 | 232° | 7km/h | 27585m | 4.5m/s | -49.2°C | 0.8% | 17.9hPa | 2.5V | 00:00:00 | 00:00:00 | 00:00:00 | |
| DF8AY-15 | 2026-08-31 00:29:01 | 52.01882 | 8.15880 | 237° | 7km/h | 27581m | 4.4m/s | -49.2°C | 3.4% | 17.9hPa | 2.5V | 00:00:00 | 02:11:09 | 00:00:00 | |
| DL1XH-15 | 2026-08-31 00:29:00 | 52.01875 | 8.15888 | 326° | 16km/h | 27548m | 5.3m/s | -49.4°C | 3.5% | 18.1hPa | 2.5V | 08:30:00 | 02:11:03 | 00:00:00 | |
| DO2JMG | 2026-08-31 00:29:00 | 52.01883 | 8.15882 | 242° | 4km/h | 27575m | 6.1m/s | -49.2°C | 0.2% | 18hPa | 2.5V | 18:12:15 | 02:11:08 | 00:00:00 | |
| BIOWL1-15 | 2026-08-31 00:28:59 | 52.01875 | 8.15888 | 327° | 16km/h | 27548m | 5.3m/s | -49.4°C | 0.2% | 18.1hPa | 2.5V | 18:12:15 | 02:11:03 | 00:00:00 | |
| AA1-15 | 2026-08-31 00:28:58 | 52.01882 | 8.15883 | 1° | 5km/h | 27564m | 4.9m/s | -49.3°C | 0.3% | 18hPa | 2.6V | 18:12:15 | 02:11:06 | 00:00:00 | |
| DL1XH-west | 2026-08-31 00:28:56 | 52.01878 | 8.15885 | 334° | 13km/h | 27553m | 6.3m/s | -49.3°C | 0.2% | 18.1hPa | 2.5V | 18:12:15 | 02:11:04 | 00:00:00 | |
| HSKMA3-T | 2026-08-31 00:28:52 | 52.01864 | 8.15897 | 342° | 11km/h | 27532m | 5.7m/s | -49.5°C | 0.3% | 18.1hPa | 2.6V | 18:12:15 | 02:11:00 | 00:00:00 | |
| DO2JMG | 2026-08-31 00:28:50 | 52.01861 | 8.15898 | 348° | 2km/h | 27522m | 4.9m/s | -49.5°C | 0.3% | 18.1hPa | 2.5V | 18:12:15 | 02:10:58 | 00:00:00 | |
| BIOWL1-15 | 2026-08-31 00:28:49 | 52.01861 | 8.15900 | 247° | 5km/h | 27511m | 6m/s | -49.5°C | 0.3% | 18.2hPa | 2.5V | 18:12:15 | 02:10:56 | 00:00:00 | |
| DM0DOS-11 | 2026-08-31 00:28:48 | 52.01861 | 8.15900 | 247° | 5km/h | 27511m | 6m/s | -49.5°C | 3.5% | 18.2hPa | 2.5V | 08:30:00 | 02:10:56 | 00:00:00 | |
| AA1-15 | 2026-08-31 00:28:48 | 52.01861 | 8.15903 | 257° | 7km/h | 27505m | 4.5m/s | -49.5°C | 0.3% | 18.2hPa | 2.6V | 18:12:15 | 02:10:55 | 00:00:00 | |
| DL1XH-west | 2026-08-31 00:28:45 | 52.01861 | 8.15909 | 292° | 5km/h | 27496m | 5.4m/s | -49.6°C | 0.3% | 18.2hPa | 2.5V | 18:12:15 | 02:10:53 | 00:00:00 | |
| HSKMA3-T | 2026-08-31 00:28:41 | 52.01854 | 8.15909 | 357° | 11km/h | 27476m | 4.5m/s | -49.7°C | 0.3% | 18.3hPa | 2.6V | 18:12:15 | 02:10:49 | 00:00:00 | |
| BIOWL1-15 | 2026-08-31 00:28:40 | 52.01834 | 8.15940 | 333° | 15km/h | 27438m | 5.1m/s | -49.6°C | 0.3% | 18.4hPa | 2.5V | 18:12:15 | 02:10:42 | 00:00:00 | |
| DO2JMG | 2026-08-31 00:28:39 | 52.01848 | 8.15913 | 317° | 16km/h | 27465m | 5.7m/s | -49.7°C | 0.4% | 18.3hPa | 2.5V | 18:12:15 | 02:10:47 | 00:00:00 | |
| AA1-15 | 2026-08-31 00:28:36 | 52.01840 | 8.15931 | 309° | 18km/h | 27450m | 6m/s | -49.7°C | 0.3% | 18.3hPa | 2.6V | 18:12:15 | 02:10:44 | 00:00:00 | |
| DL1XH-west | 2026-08-31 00:28:35 | 52.01837 | 8.15936 | 320° | 16km/h | 27444m | 6m/s | -49.7°C | 0.4% | 18.4hPa | 2.5V | 18:12:15 | 02:10:43 | 00:00:00 | |
| SONDE2-11 | 2026-08-31 00:28:35 | 52.01834 | 8.15940 | 332° | 13km/h | 27439m | 5.1m/s | -49.6°C | 0.9% | 18.4hPa | 2.5V | 00:00:00 | 00:00:00 | 00:00:00 | |
| GOEST3-10 | 2026-08-31 00:28:34 | 52.01834 | 8.15940 | 333° | 16km/h | 27439m | 5.0m/s | -49.6°C | 3.6% | 18.3hPa | 2.5V | 00:00:00 | 00:00:00 | 00:00:00 | |
| DL1NUX | 2026-08-31 00:28:33 | 52.01812 | 8.15964 | 316° | 24km/h | 27407m | 4.8m/s | -49.5°C | 3.6% | 18.5hPa | 2.5V | 08:30:00 | 02:10:36 | 00:00:00 | |
| HSKMA3-T | 2026-08-31 00:28:31 | 52.01824 | 8.15947 | 327° | 16km/h | 27423m | 6m/s | -49.6°C | 0.3% | 18.4hPa | 2.6V | 18:12:15 | 02:10:39 | 00:00:00 | |
| DF8AY | 2026-08-31 00:28:30 | 52.01820 | 8.15952 | 321° | 20km/h | 27417m | 5.7m/s | -49.5°C | 0.3% | 18.4hPa | 2.6V | 18:12:15 | 02:10:38 | 00:00:00 | |
| DL1XH-15 | 2026-08-31 00:28:29 | 52.01799 | 8.15981 | 320° | 16km/h | 27391m | 5m/s | -49.4°C | 3.6% | 18.5hPa | 2.6V | 08:30:00 | 02:10:33 | 00:00:00 | |
| DO2JMG | 2026-08-31 00:28:29 | 52.01816 | 8.15958 | 317° | 24km/h | 27412m | 5.4m/s | -49.5°C | 0.3% | 18.4hPa | 2.5V | 18:12:15 | 02:10:37 | 00:00:00 | |
| AA1-15 | 2026-08-31 00:28:25 | 52.01794 | 8.15991 | 305° | 16km/h | 27381m | 5.4m/s | -49.4°C | 0.3% | 18.5hPa | 2.5V | 18:12:15 | 02:10:31 | 00:00:00 | |
| DL1XH-west | 2026-08-31 00:28:24 | 52.01791 | 8.15997 | 299° | 20km/h | 27376m | 5.8m/s | -49.4°C | 0.3% | 18.5hPa | 2.5V | 18:12:15 | 02:10:30 | 00:00:00 | |
| GOEST3-10 | 2026-08-31 00:28:24 | 52.01796 | 8.15986 | 315° | 20km/h | 27386m | 4.4m/s | -49.4°C | 3.6% | 18.5hPa | 2.5V | 00:00:00 | 00:00:00 | 00:00:00 | |
| DM0DOS-11 | 2026-08-31 00:28:23 | 52.01780 | 8.16028 | 310° | 20km/h | 27354m | 5.7m/s | -49.4°C | 3.6% | 18.6hPa | 2.6V | 08:30:00 | 02:10:26 | 00:00:00 | |
| DF8AY | 2026-08-31 00:28:20 | 52.01759 | 8.16094 | 270° | 18km/h | 27307m | 4.7m/s | -49.2°C | 0.3% | 18.8hPa | 2.5V | 18:12:15 | 02:10:17 | 00:00:00 | |
| DL1XH-15 | 2026-08-31 00:28:20 | 52.01770 | 8.16047 | 307° | 22km/h | 27339m | 6m/s | -49.3°C | 3.5% | 18.6hPa | 2.5V | 08:30:00 | 02:10:23 | 00:00:00 | |
| HSKMA3-T | 2026-08-31 00:28:20 | 52.01786 | 8.16013 | 300° | 24km/h | 27365m | 4.9m/s | -49.4°C | 0.3% | 18.6hPa | 2.6V | 18:12:15 | 02:10:28 | 00:00:00 | |
| DO2JMG | 2026-08-31 00:28:19 | 52.01783 | 8.16021 | 305° | 22km/h | 27360m | 5.9m/s | -49.4°C | 0.3% | 18.6hPa | 2.6V | 18:12:15 | 02:10:27 | 00:00:00 | |
| DC4HF-4 | 2026-08-31 00:28:19 | 52.01780 | 8.16028 | 310° | 20km/h | 27354m | 5.7m/s | -49.4°C | 0.9% | 18.6hPa | 2.5V | 00:00:00 | 00:00:00 | 00:00:00 | |
| DO2KSM | 2026-08-31 00:28:17 | 52.01780 | 8.16028 | 312° | 20km/h | 27354m | 5.7m/s | -49.4°C | 0.9% | 18.6hPa | 2.5V | 00:00:00 | 00:00:00 | 00:00:00 | |
| EDDB2-12 | 2026-08-31 00:28:15 | 52.01769 | 8.16047 | 307° | 22km/h | 27339m | 6.0m/s | -49.3°C | 0.8% | 18.6hPa | 2.5V | 00:00:00 | 00:00:00 | 00:00:00 | |
| DO3DL | 2026-08-31 00:28:14 | 52.01769 | 8.16047 | 308° | 22km/h | 27339m | 6.0m/s | -49.3°C | 0.8% | 18.7hPa | 2.5V | 00:00:00 | 00:00:00 | 00:00:00 | |
| DM0DOS-11 | 2026-08-31 00:28:12 | 52.01759 | 8.16101 | 265° | 20km/h | 27302m | 5.8m/s | -49.2°C | 3.5% | 18.8hPa | 2.5V | 08:30:00 | 02:10:16 | 00:00:00 | |
| DL8DAS-14 | 2026-08-31 00:28:12 | 52.01760 | 8.16079 | 285° | 18km/h | 27317m | 6.2m/s | -49.2°C | 0.9% | 18.7hPa | 2.6V | 00:00:00 | 00:00:00 | 00:00:00 | |
| DL1XH-15 | 2026-08-31 00:28:11 | 52.01758 | 8.16309 | 279° | 22km/h | 27181m | 5.1m/s | -49.3°C | 3.5% | 19.1hPa | 2.6V | 08:30:00 | 02:09:54 | 00:00:00 | |
| HSKMA3-T | 2026-08-31 00:28:10 | 52.01757 | 8.16328 | 274° | 26km/h | 27170m | 5.1m/s | -49.3°C | 0.2% | 19.1hPa | 2.5V | 18:12:15 | 02:09:52 | 00:00:00 | |
| DD1CC1-15 | 2026-08-31 00:28:10 | 52.01759 | 8.16101 | 267° | 20km/h | 27302m | 5.8m/s | -49.2°C | 0.9% | 18.8hPa | 2.6V | 00:00:00 | 00:00:00 | 00:00:00 | |
| DB0ND-19 | 2026-08-31 00:28:09 | 52.01759 | 8.16131 | 273° | 26km/h | 27285m | 4.4m/s | -49.2°C | 0.8% | 18.8hPa | 2.6V | 00:00:00 | 00:00:00 | 00:00:00 | |
| DL1XH1-15 | 2026-08-31 00:28:08 | 52.01758 | 8.16309 | 279° | 22km/h | 27181m | 5.1m/s | -49.3°C | 3.5% | 19.1hPa | 2.6V | 08:30:00 | 02:09:54 | 00:00:00 | |
| DM0DOS-11 | 2026-08-31 00:28:06 | 52.01759 | 8.16292 | 274° | 22km/h | 27192m | 6.1m/s | -49.4°C | 3.5% | 19.1hPa | 2.5V | 08:30:00 | 02:09:56 | 00:00:00 | |
| DD1CC2-15 | 2026-08-31 00:28:05 | 52.01758 | 8.16142 | 280° | 24km/h | 27280m | 5.4m/s | -49.2°C | 0.9% | 18.8hPa | 2.5V | 00:00:00 | 00:00:00 | 00:00:00 | |
| DL1XH-15 | 2026-08-31 00:28:00 | 52.01757 | 8.16339 | 264° | 26km/h | 27165m | 4.6m/s | -49.3°C | 3.5% | 19.2hPa | 2.5V | 08:30:00 | 02:09:51 | 00:00:00 | |
| DO2JMG | 2026-08-31 00:27:45 | 52.01758 | 8.16349 | 254° | 24km/h | 27160m | 5.8m/s | -49.3°C | 0.3% | 19.2hPa | 2.5V | 18:12:15 | 02:09:50 | 00:00:00 | |
| HSKMA3-T | 2026-08-31 00:27:41 | 52.01760 | 8.16358 | 242° | 24km/h | 27154m | 6.2m/s | -49.3°C | 0.3% | 19.2hPa | 2.6V | 18:12:15 | 02:09:49 | 00:00:00 | |
| AA1-15 | 2026-08-31 00:27:40 | 52.01763 | 8.16366 | 230° | 24km/h | 27148m | 5.2m/s | -49.3°C | 0.3% | 19.2hPa | 2.6V | 18:12:15 | 02:09:48 | 00:00:00 | |
| BIOWL1-15 | 2026-08-31 00:27:36 | 52.01789 | 8.16435 | 275° | 13km/h | 27105m | 4.9m/s | -49.4°C | 0.3% | 19.3hPa | 2.5V | 18:12:15 | 02:09:40 | 00:00:00 | |
| DL1XH-west | 2026-08-31 00:27:36 | 52.01782 | 8.16402 | 240° | 31km/h | 27127m | 4.8m/s | -49.4°C | 0.3% | 19.3hPa | 2.5V | 18:12:15 | 02:09:44 | 00:00:00 | |
| DB0NH | 2026-08-31 00:27:36 | 52.01782 | 8.16402 | 240° | 16km/h | 27127m | 4.8m/s | -49.3°C | 3.5% | 19.2hPa | 2.5V | 00:00:00 | 02:09:44 | 00:00:00 | |
| DO3DL | 2026-08-31 00:27:35 | 52.01781 | 8.16402 | 240° | 31km/h | 27127m | 4.8m/s | -49.4°C | 0.9% | 19.3hPa | 2.5V | 00:00:00 | 00:00:00 | 00:00:00 | |
| DJ3KS | 2026-08-31 00:27:34 | 52.01785 | 8.16412 | 246° | 27km/h | 27122m | 5.0m/s | -49.4°C | 0.9% | 19.3hPa | 2.5V | 00:00:00 | 00:00:00 | 00:00:00 | |
| GOEST3-10 | 2026-08-31 00:27:33 | 52.01789 | 8.16429 | 259° | 15km/h | 27111m | 5.5m/s | -49.4°C | 3.5% | 19.3hPa | 2.5V | 00:00:00 | 00:00:00 | 00:00:00 | |
| DJ8HS-15 | 2026-08-31 00:27:32 | 52.01789 | 8.16435 | 276° | 15km/h | 27106m | 4.8m/s | -49.4°C | 3.6% | 19.3hPa | 2.5V | 00:00:00 | 02:09:40 | 00:00:00 | |
| DM0DOS-11 | 2026-08-31 00:27:31 | 52.01788 | 8.16470 | 227° | 16km/h | 27072m | 6.7m/s | -49.4°C | 3.5% | 19.4hPa | 2.5V | 08:30:00 | 02:09:34 | 00:00:00 | |
| DO2JMG | 2026-08-31 00:27:31 | 52.01788 | 8.16440 | 290° | 13km/h | 27100m | 5.6m/s | -49.4°C | 0.3% | 19.4hPa | 2.5V | 18:12:15 | 02:09:39 | 00:00:00 | |
| AA1-15 | 2026-08-31 00:27:29 | 52.01786 | 8.16452 | 287° | 16km/h | 27088m | 5.1m/s | -49.4°C | 0.2% | 19.4hPa | 2.6V | 18:12:15 | 02:09:37 | 00:00:00 | |
| SMARD9-15 | 2026-08-31 00:27:29 | 52.01785 | 8.16459 | 272° | 15km/h | 27084m | 4.6m/s | -49.4°C | 0.8% | 19.4hPa | 2.6V | 00:00:00 | 00:00:00 | 00:00:00 | |
| DD8BA-10 | 2026-08-31 00:27:28 | 52.01785 | 8.16458 | 273° | 20km/h | 27084m | 4.5m/s | -49.3°C | 3.5% | 19.4hPa | 2.6V | 00:00:00 | 00:00:00 | 00:00:00 | |
| DJ2KF-10 | 2026-08-31 00:27:26 | 52.01788 | 8.16470 | 228° | 11km/h | 27073m | 6.6m/s | -49.4°C | 3.5% | 19.4hPa | 2.5V | 00:00:00 | 02:09:34 | 00:00:00 | |
| DL1XH1-15 | 2026-08-31 00:27:25 | 52.01814 | 8.16505 | 240° | 20km/h | 27040m | 4.8m/s | -49.5°C | 3.5% | 19.5hPa | 2.5V | 08:30:00 | 02:09:28 | 00:00:00 | |
| DL1XH-west | 2026-08-31 00:27:25 | 52.01791 | 8.16475 | 211° | 20km/h | 27066m | 5.5m/s | -49.4°C | 0.3% | 19.5hPa | 2.5V | 18:12:15 | 02:09:33 | 00:00:00 | |
| BIOWL1-15 | 2026-08-31 00:27:23 | 52.01819 | 8.16523 | 245° | 5km/h | 27013m | 6m/s | -49.7°C | 0.3% | 19.6hPa | 2.5V | 18:12:15 | 02:09:23 | 00:00:00 | |
| DM0DOS-11 | 2026-08-31 00:27:21 | 52.01819 | 8.16521 | 238° | 5km/h | 27018m | 4.7m/s | -49.6°C | 3.6% | 19.6hPa | 2.5V | 08:30:00 | 02:09:24 | 00:00:00 | |
| DO2JMG | 2026-08-31 00:27:21 | 52.01811 | 8.16498 | 231° | 24km/h | 27045m | 5m/s | -49.5°C | 0.3% | 19.5hPa | 2.5V | 18:12:15 | 02:09:29 | 00:00:00 | |
| HSKMA3-T | 2026-08-31 00:27:20 | 52.01814 | 8.16505 | 240° | 20km/h | 27040m | 4.8m/s | -49.5°C | 0.2% | 19.6hPa | 2.5V | 18:12:15 | 02:09:28 | 00:00:00 | |
| AA1-15 | 2026-08-31 00:27:18 | 52.01817 | 8.16516 | 243° | 9km/h | 27029m | 6.1m/s | -49.6°C | 0.3% | 19.6hPa | 2.6V | 18:12:15 | 02:09:26 | 00:00:00 | |
| DD8BA-10 | 2026-08-31 00:27:18 | 52.01817 | 8.16516 | 244° | 11km/h | 27029m | 6.1m/s | -49.5°C | 3.6% | 19.5hPa | 2.5V | 00:00:00 | 00:00:00 | 00:00:00 | |
| BUE01 | 2026-08-31 00:27:17 | 52.01818 | 8.16519 | 239° | 5km/h | 27023m | 5.0m/s | -49.6°C | 0.9% | 19.6hPa | 2.5V | 00:00:00 | 00:00:00 | 00:00:00 | |
| DL8DAS-15 | 2026-08-31 00:27:16 | 52.01818 | 8.16519 | 241° | 5km/h | 27024m | 5.0m/s | -49.6°C | 0.9% | 19.6hPa | 2.5V | 00:00:00 | 00:00:00 | 00:00:00 | |
| DL1XH1-15 | 2026-08-31 00:27:15 | 52.01830 | 8.16538 | 196° | 16km/h | 26985m | 5.5m/s | -49.7°C | 3.6% | 19.7hPa | 2.5V | 08:30:00 | 02:09:18 | 00:00:00 | |
| DL1XH-west | 2026-08-31 00:27:14 | 52.01820 | 8.16526 | 243° | 9km/h | 27007m | 5.6m/s | -49.7°C | 0.3% | 19.6hPa | 2.5V | 18:12:15 | 02:09:22 | 00:00:00 | |
| DO2JMG | 2026-08-31 00:27:10 | 52.01830 | 8.16538 | 197° | 16km/h | 26985m | 5.5m/s | -49.7°C | 0.3% | 19.7hPa | 2.5V | 18:12:15 | 02:09:18 | 00:00:00 | |
| HSKMA3-T | 2026-08-31 00:27:09 | 52.01835 | 8.16540 | 197° | 18km/h | 26980m | 4.7m/s | -49.7°C | 0.3% | 19.7hPa | 2.5V | 18:12:15 | 02:09:17 | 00:00:00 | |
| AA1-15 | 2026-08-31 00:27:08 | 52.01839 | 8.16542 | 207° | 18km/h | 26975m | 5.4m/s | -49.7°C | 0.3% | 19.7hPa | 2.6V | 18:12:15 | 02:09:16 | 00:00:00 | |
| DM0DOS-11 | 2026-08-31 00:27:07 | 52.01845 | 8.16552 | 233° | 16km/h | 26964m | 5m/s | -49.6°C | 3.6% | 19.8hPa | 2.5V | 08:30:00 | 02:09:14 | 00:00:00 | |
| DB0UT-7 | 2026-08-31 00:27:06 | 52.01845 | 8.16551 | 234° | 9km/h | 26964m | 4.9m/s | -49.6°C | 3.6% | 19.7hPa | 2.5V | 00:00:00 | 00:00:00 | 00:00:00 | |
| DL1XH1-15 | 2026-08-31 00:27:05 | 52.01853 | 8.16568 | 206° | 5km/h | 26933m | 5.2m/s | -49.8°C | 3.5% | 19.9hPa | 2.5V | 08:30:00 | 02:09:08 | 00:00:00 | |
| DL1XH-west | 2026-08-31 00:27:04 | 52.01849 | 8.16562 | 245° | 11km/h | 26954m | 5.7m/s | -49.7°C | 0.3% | 19.8hPa | 2.5V | 18:12:15 | 02:09:12 | 00:00:00 | |
| DO2JMG | 2026-08-31 00:27:00 | 52.01853 | 8.16568 | 206° | 5km/h | 26933m | 5.2m/s | -49.8°C | 0.3% | 19.9hPa | 2.5V | 18:12:15 | 02:09:08 | 00:00:00 | |
| DL1NUX | 2026-08-31 00:26:59 | 52.01854 | 8.16570 | 217° | 7km/h | 26928m | 5.9m/s | -49.8°C | 3.6% | 19.9hPa | 2.5V | 08:30:00 | 02:09:07 | 00:00:00 | |
| BIOWL1-15 | 2026-08-31 00:26:59 | 52.01854 | 8.16570 | 217° | 7km/h | 26928m | 5.9m/s | -49.8°C | 0.3% | 19.9hPa | 2.5V | 18:12:15 | 02:09:07 | 00:00:00 | |
| AA1-15 | 2026-08-31 00:26:58 | 52.01856 | 8.16572 | 224° | 9km/h | 26922m | 5.5m/s | -49.9°C | 0.3% | 19.9hPa | 2.5V | 18:12:15 | 02:09:06 | 00:00:00 | |
| SMARD9-15 | 2026-08-31 00:26:58 | 52.01858 | 8.16575 | 217° | 11km/h | 26917m | 4.9m/s | -49.9°C | 0.9% | 19.9hPa | 2.6V | 00:00:00 | 00:00:00 | 00:00:00 | |
| DM0DOS-11 | 2026-08-31 00:26:57 | 52.01860 | 8.16577 | 206° | 11km/h | 26911m | 5.6m/s | -49.9°C | 3.6% | 19.9hPa | 2.6V | 08:30:00 | 02:09:04 | 00:00:00 | |
| DJ2KF-10 | 2026-08-31 00:26:56 | 52.01860 | 8.16577 | 207° | 11km/h | 26912m | 5.5m/s | -49.8°C | 3.6% | 19.9hPa | 2.6V | 00:00:00 | 02:09:04 | 00:00:00 | |
| DO2KSM | 2026-08-31 00:26:55 | 52.01860 | 8.16577 | 208° | 11km/h | 26912m | 5.6m/s | -49.9°C | 0.9% | 19.9hPa | 2.6V | 00:00:00 | 00:00:00 | 00:00:00 | |
| DL1NUX | 2026-08-31 00:26:54 | 52.01872 | 8.16598 | 255° | 13km/h | 26875m | 4.6m/s | -49.9°C | 3.6% | 20hPa | 2.6V | 08:30:00 | 02:08:57 | 00:00:00 | |
| DL1XH-west | 2026-08-31 00:26:54 | 52.01865 | 8.16580 | 195° | 9km/h | 26900m | 4.7m/s | -49.9°C | 0.3% | 20hPa | 2.5V | 18:12:15 | 02:09:02 | 00:00:00 | |
| DO2JMG | 2026-08-31 00:26:49 | 52.01872 | 8.16598 | 255° | 13km/h | 26876m | 4.6m/s | -49.9°C | 0.3% | 20hPa | 2.6V | 18:12:15 | 02:08:57 | 00:00:00 | |
| BIOWL1-15 | 2026-08-31 00:26:48 | 52.01873 | 8.16603 | 248° | 11km/h | 26870m | 6.2m/s | -50°C | 0.3% | 20.1hPa | 2.5V | 18:12:15 | 02:08:56 | 00:00:00 | |
| DF8AY | 2026-08-31 00:26:47 | 52.01874 | 8.16606 | 237° | 7km/h | 26864m | 5.9m/s | -50°C | 0.3% | 20.1hPa | 2.5V | 18:12:15 | 02:08:55 | 00:00:00 | |
| DM0DOS-11 | 2026-08-31 00:26:47 | 52.01875 | 8.16609 | 229° | 5km/h | 26859m | 5m/s | -50°C | 3.6% | 20.1hPa | 2.5V | 08:30:00 | 02:08:54 | 00:00:00 | |
| DO2SHX-10 | 2026-08-31 00:26:46 | 52.01875 | 8.16608 | 230° | 7km/h | 26859m | 5.0m/s | -49.9°C | 3.6% | 20.1hPa | 2.5V | 00:00:00 | 02:08:54 | 00:00:00 | |
| DL4XJ-10 | 2026-08-31 00:26:45 | 52.01875 | 8.16610 | 258° | 9km/h | 26854m | 4.9m/s | -52.3°C | 0% | 0hPa | 2.5V | 00:00:00 | 00:00:00 | 00:00:00 | |
| DL1NUX | 2026-08-31 00:26:44 | 52.01869 | 8.16633 | 301° | 9km/h | 26822m | 5.8m/s | -50°C | 3.6% | 20.2hPa | 2.5V | 08:30:00 | 02:08:47 | 00:00:00 | |
| DL1XH-west | 2026-08-31 00:26:43 | 52.01874 | 8.16615 | 294° | 9km/h | 26843m | 6.1m/s | -50°C | 0.4% | 20.1hPa | 2.6V | 18:12:15 | 02:08:51 | 00:00:00 | |
| BIOWL1-15 | 2026-08-31 00:26:39 | 52.01859 | 8.16647 | 303° | 15km/h | 26790m | 5.2m/s | -50.1°C | 0.3% | 20.3hPa | 2.5V | 18:12:15 | 02:08:41 | 00:00:00 | |
| DO2JMG | 2026-08-31 00:26:38 | 52.01868 | 8.16636 | 316° | 5km/h | 26817m | 5.5m/s | -50°C | 0.3% | 20.2hPa | 2.6V | 18:12:15 | 02:08:46 | 00:00:00 | |
| HSKMA3-T | 2026-08-31 00:26:37 | 52.01866 | 8.16637 | 339° | 5km/h | 26811m | 4.7m/s | -50°C | 0.2% | 20.2hPa | 2.6V | 18:12:15 | 02:08:45 | 00:00:00 | |
| DF8AY | 2026-08-31 00:26:37 | 52.01863 | 8.16640 | 324° | 9km/h | 26802m | 6m/s | -50°C | 0.3% | 20.3hPa | 2.5V | 18:12:15 | 02:08:43 | 00:00:00 | |
| AA1-15 | 2026-08-31 00:26:36 | 52.01865 | 8.16638 | 337° | 7km/h | 26807m | 4.1m/s | -50°C | 0.3% | 20.2hPa | 2.6V | 18:12:15 | 02:08:44 | 00:00:00 | |
| DL1XH-15 | 2026-08-31 00:26:35 | 52.01859 | 8.16647 | 302° | 15km/h | 26790m | 5.2m/s | -50.1°C | 3.5% | 20.3hPa | 2.5V | 08:30:00 | 02:08:41 | 00:00:00 | |
| DL1XH1-15 | 2026-08-31 00:26:35 | 52.01854 | 8.16660 | 303° | 9km/h | 26774m | 6.2m/s | -50.1°C | 3.6% | 20.4hPa | 2.6V | 08:30:00 | 02:08:38 | 00:00:00 | |
| DL1XH-west | 2026-08-31 00:26:32 | 52.01857 | 8.16652 | 301° | 15km/h | 26785m | 5.1m/s | -50.1°C | 0.3% | 20.3hPa | 2.5V | 18:12:15 | 02:08:40 | 00:00:00 | |
| DO2JMG | 2026-08-31 00:26:28 | 52.01852 | 8.16664 | 315° | 5km/h | 26764m | 4.6m/s | -50.2°C | 0.3% | 20.4hPa | 2.5V | 18:12:15 | 02:08:36 | 00:00:00 | |
| DM0DOS-11 | 2026-08-31 00:26:27 | 52.01850 | 8.16669 | 305° | 9km/h | 26753m | 5.8m/s | -50.3°C | 3.7% | 20.4hPa | 2.5V | 08:30:00 | 02:08:34 | 00:00:00 | |
| HSKMA3-T | 2026-08-31 00:26:27 | 52.01851 | 8.16666 | 306° | 5km/h | 26758m | 5.9m/s | -50.3°C | 0.4% | 20.4hPa | 2.5V | 18:12:15 | 02:08:35 | 00:00:00 | |
| BIOWL1-15 | 2026-08-31 00:26:26 | 52.01850 | 8.16669 | 305° | 9km/h | 26753m | 5.8m/s | -50.3°C | 0.4% | 20.4hPa | 2.5V | 18:12:15 | 02:08:34 | 00:00:00 | |
| AA1-15 | 2026-08-31 00:26:25 | 52.01849 | 8.16672 | 308° | 11km/h | 26747m | 5m/s | -50.4°C | 0.4% | 20.4hPa | 2.6V | 18:12:15 | 02:08:33 | 00:00:00 | |
| DJTTGO | 2026-08-31 00:26:25 | 52.01850 | 8.16669 | 306° | 9km/h | 26753m | 5.8m/s | -50.3°C | 0% | 0hPa | 2.5V | 00:00:00 | 00:00:00 | 00:00:00 | |
| DL1NUX | 2026-08-31 00:26:24 | 52.01830 | 8.16689 | 329° | 20km/h | 26714m | 5.5m/s | -50.6°C | 3.7% | 20.6hPa | 2.5V | 08:30:00 | 02:08:27 | 00:00:00 | |
| DL1XH-15 | 2026-08-31 00:26:24 | 52.01844 | 8.16678 | 330° | 13km/h | 26736m | 6.2m/s | -50.4°C | 3.7% | 20.5hPa | 2.6V | 08:30:00 | 02:08:31 | 00:00:00 | |
| DL1XH-west | 2026-08-31 00:26:21 | 52.01838 | 8.16683 | 341° | 16km/h | 26726m | 4.7m/s | -50.5°C | 0.4% | 20.5hPa | 2.5V | 18:12:15 | 02:08:29 | 00:00:00 | |
| DO2SHX-10 | 2026-08-31 00:26:21 | 52.01838 | 8.16682 | 341° | 16km/h | 26726m | 4.6m/s | -50.4°C | 3.7% | 20.5hPa | 2.6V | 00:00:00 | 02:08:29 | 00:00:00 | |
| DJ2KF-10 | 2026-08-31 00:26:20 | 52.01834 | 8.16685 | 335° | 16km/h | 26721m | 6.2m/s | -50.5°C | 3.7% | 20.5hPa | 2.6V | 00:00:00 | 02:08:28 | 00:00:00 | |
| DJ3KS | 2026-08-31 00:26:19 | 52.01834 | 8.16685 | 336° | 18km/h | 26721m | 6.2m/s | -50.5°C | 0.9% | 20.5hPa | 2.6V | 00:00:00 | 00:00:00 | 00:00:00 | |
| DD8BA-10 | 2026-08-31 00:26:18 | 52.01825 | 8.16693 | 330° | 13km/h | 26710m | 4.6m/s | -50.5°C | 3.7% | 20.5hPa | 2.6V | 00:00:00 | 00:00:00 | 00:00:00 | |
| DL1XH-15 | 2026-08-31 00:26:17 | 52.01811 | 8.16697 | 7° | 7km/h | 26682m | 5.7m/s | -50.7°C | 3.7% | 20.6hPa | 2.6V | 08:30:00 | 02:08:21 | 00:00:00 | |
| DO2JMG | 2026-08-31 00:26:17 | 52.01821 | 8.16696 | 335° | 15km/h | 26704m | 5.4m/s | -50.6°C | 0.4% | 20.6hPa | 2.6V | 18:12:15 | 02:08:25 | 00:00:00 | |
| DM0DOS-11 | 2026-08-31 00:26:16 | 52.01818 | 8.16698 | 348° | 13km/h | 26698m | 6.3m/s | -50.6°C | 3.7% | 20.6hPa | 2.5V | 08:30:00 | 02:08:24 | 00:00:00 | |
| DF8AY | 2026-08-31 00:26:16 | 52.01818 | 8.16698 | 349° | 13km/h | 26698m | 6.3m/s | -50.7°C | 0.4% | 20.6hPa | 2.5V | 18:12:15 | 02:08:24 | 00:00:00 | |
| DO2SHX-10 | 2026-08-31 00:26:16 | 52.01818 | 8.16698 | 349° | 9km/h | 26699m | 6.2m/s | -50.6°C | 3.7% | 20.5hPa | 2.5V | 00:00:00 | 02:08:24 | 00:00:00 | |
| DL1XH1-15 | 2026-08-31 00:26:15 | 52.01803 | 8.16699 | 348° | 13km/h | 26666m | 4.9m/s | -50.7°C | 3.8% | 20.7hPa | 2.5V | 08:30:00 | 02:08:18 | 00:00:00 | |
| AA1-15 | 2026-08-31 00:26:15 | 52.01813 | 8.16697 | 16° | 9km/h | 26687m | 4.9m/s | -50.7°C | 0.4% | 20.6hPa | 2.5V | 18:12:15 | 02:08:22 | 00:00:00 | |
| DO9LL-15 | 2026-08-31 00:26:14 | 52.01813 | 8.16697 | 17° | 16km/h | 26688m | 4.9m/s | -50.7°C | 3.8% | 20.6hPa | 2.5V | 00:00:00 | 02:08:22 | 00:00:00 | |
| GOEST3-10 | 2026-08-31 00:26:13 | 52.01811 | 8.16697 | 8° | 11km/h | 26682m | 5.7m/s | -50.7°C | 3.7% | 20.6hPa | 2.5V | 00:00:00 | 00:00:00 | 00:00:00 | |
| DL3AQ-11 | 2026-08-31 00:26:12 | 52.01806 | 8.16698 | 344° | 11km/h | 26672m | 4.7m/s | -50.7°C | 0.9% | 20.7hPa | 2.5V | 00:00:00 | 00:00:00 | 00:00:00 | |
| DM0DOS-11 | 2026-08-31 00:26:11 | 52.01787 | 8.16703 | 340° | 20km/h | 26645m | 6m/s | -50.7°C | 3.8% | 20.8hPa | 2.5V | 08:30:00 | 02:08:14 | 00:00:00 | |
| DL1XH-west | 2026-08-31 00:26:10 | 52.01803 | 8.16699 | 348° | 13km/h | 26666m | 4.9m/s | -50.7°C | 0.4% | 20.7hPa | 2.5V | 18:12:15 | 02:08:18 | 00:00:00 | |
| DO2JMG | 2026-08-31 00:26:07 | 52.01791 | 8.16701 | 349° | 18km/h | 26650m | 4.5m/s | -50.7°C | 0.4% | 20.8hPa | 2.6V | 18:12:15 | 02:08:15 | 00:00:00 | |
| HSKMA3-T | 2026-08-31 00:26:07 | 52.01787 | 8.16703 | 341° | 20km/h | 26645m | 6m/s | -50.7°C | 0.4% | 20.8hPa | 2.5V | 18:12:15 | 02:08:14 | 00:00:00 | |
| DB0NH | 2026-08-31 00:26:06 | 52.01787 | 8.16703 | 341° | 18km/h | 26645m | 5.9m/s | -50.6°C | 3.8% | 20.7hPa | 2.5V | 00:00:00 | 02:08:14 | 00:00:00 | |
| DF8AY | 2026-08-31 00:26:06 | 52.01782 | 8.16707 | 331° | 22km/h | 26639m | 6.1m/s | -50.7°C | 0.4% | 20.8hPa | 2.5V | 18:12:15 | 02:08:13 | 00:00:00 | |
| DJ2DS-15 | 2026-08-31 00:26:05 | 52.01782 | 8.16707 | 331° | 20km/h | 26639m | 6.1m/s | -50.7°C | 0.9% | 20.8hPa | 2.5V | 00:00:00 | 00:00:00 | 00:00:00 | |
| DL1NUX | 2026-08-31 00:26:03 | 52.01759 | 8.16732 | 314° | 15km/h | 26601m | 5.5m/s | -50.6°C | 3.8% | 20.9hPa | 2.5V | 08:30:00 | 02:08:06 | 00:00:00 | |
| AA1-15 | 2026-08-31 00:26:03 | 52.01773 | 8.16716 | 327° | 18km/h | 26629m | 5.3m/s | -50.7°C | 0.4% | 20.8hPa | 2.5V | 18:12:15 | 02:08:11 | 00:00:00 | |
| DL1XH-west | 2026-08-31 00:25:59 | 52.01761 | 8.16728 | 319° | 13km/h | 26607m | 6.3m/s | -50.7°C | 0.4% | 20.9hPa | 2.5V | 18:12:15 | 02:08:07 | 00:00:00 | |
| DO2JMG | 2026-08-31 00:25:57 | 52.01756 | 8.16737 | 317° | 15km/h | 26596m | 4.6m/s | -50.6°C | 0.4% | 20.9hPa | 2.6V | 18:12:15 | 02:08:05 | 00:00:00 | |
| HSKMA3-T | 2026-08-31 00:25:56 | 52.01753 | 8.16740 | 324° | 15km/h | 26591m | 6m/s | -50.6°C | 0.4% | 20.9hPa | 2.6V | 18:12:15 | 02:08:04 | 00:00:00 | |
| SMARD9-15 | 2026-08-31 00:25:56 | 52.01750 | 8.16744 | 331° | 15km/h | 26585m | 5.2m/s | -50.6°C | 0.9% | 21.0hPa | 2.5V | 00:00:00 | 00:00:00 | 00:00:00 | |
| DL1XH-15 | 2026-08-31 00:25:55 | 52.01742 | 8.16752 | 323° | 22km/h | 26575m | 5.5m/s | -50.5°C | 3.8% | 21hPa | 2.5V | 08:30:00 | 02:08:01 | 00:00:00 | |
| DF8AY | 2026-08-31 00:25:54 | 52.01742 | 8.16752 | 323° | 22km/h | 26575m | 5.5m/s | -50.6°C | 0.4% | 21hPa | 2.5V | 18:12:15 | 02:08:01 | 00:00:00 | |
| AA1-15 | 2026-08-31 00:25:52 | 52.01738 | 8.16758 | 317° | 26km/h | 26569m | 6.3m/s | -50.5°C | 0.4% | 21hPa | 2.6V | 18:12:15 | 02:08:00 | 00:00:00 | |
| DJ2DS-15 | 2026-08-31 00:25:52 | 52.01738 | 8.16758 | 317° | 22km/h | 26570m | 6.3m/s | -50.5°C | 3.7% | 21.0hPa | 2.6V | 00:00:00 | 02:08:00 | 00:00:00 | |
| DM0DOS-11 | 2026-08-31 00:25:51 | 52.01717 | 8.16799 | 293° | 15km/h | 26538m | 5.1m/s | -50.4°C | 3.7% | 21.1hPa | 2.6V | 08:30:00 | 02:07:54 | 00:00:00 | |
| DL1XH-west | 2026-08-31 00:25:48 | 52.01721 | 8.16788 | 310° | 18km/h | 26548m | 5.2m/s | -50.5°C | 0.4% | 21.1hPa | 2.5V | 18:12:15 | 02:07:56 | 00:00:00 | |
| DO2JMG | 2026-08-31 00:25:47 | 52.01719 | 8.16793 | 304° | 15km/h | 26543m | 4.8m/s | -50.5°C | 0.4% | 21.1hPa | 2.6V | 18:12:15 | 02:07:55 | 00:00:00 | |
| HSKMA3-T | 2026-08-31 00:25:46 | 52.01716 | 8.16805 | 284° | 16km/h | 26532m | 6.5m/s | -50.4°C | 0.4% | 21.1hPa | 2.5V | 18:12:15 | 02:07:53 | 00:00:00 | |
| DL1XH-15 | 2026-08-31 00:25:45 | 52.01714 | 8.16819 | 279° | 18km/h | 26521m | 4.6m/s | -50.4°C | 3.7% | 21.2hPa | 2.5V | 08:30:00 | 02:07:51 | 00:00:00 | |
| DO1YAY-16 | 2026-08-31 00:25:45 | 52.01716 | 8.16805 | 283° | 15km/h | 26532m | 6.5m/s | -50.4°C | 0.9% | 21.1hPa | 2.5V | 00:00:00 | 00:00:00 | 00:00:00 | |
| DF8AY | 2026-08-31 00:25:42 | 52.01713 | 8.16826 | 285° | 18km/h | 26515m | 6m/s | -50.4°C | 0.3% | 21.2hPa | 2.5V | 18:12:15 | 02:07:50 | 00:00:00 | |
| DK9SH | 2026-08-31 00:25:42 | 52.01714 | 8.16819 | 281° | 18km/h | 26521m | 4.6m/s | -50.4°C | 0.9% | 21.2hPa | 2.5V | 00:00:00 | 00:00:00 | 00:00:00 | |
| DM0DOS-11 | 2026-08-31 00:25:41 | 52.01696 | 8.16874 | 299° | 29km/h | 26485m | 3.7m/s | -50.4°C | 3.6% | 21.3hPa | 2.5V | 08:30:00 | 02:07:44 | 00:00:00 | |
| AA1-15 | 2026-08-31 00:25:41 | 52.01712 | 8.16833 | 294° | 16km/h | 26510m | 5.3m/s | -50.4°C | 0.3% | 21.2hPa | 2.6V | 18:12:15 | 02:07:49 | 00:00:00 | |
| BIOWL1-15 | 2026-08-31 00:25:40 | 52.01688 | 8.16898 | 299° | 15km/h | 26470m | 5.6m/s | -50.6°C | 0.4% | 21.3hPa | 2.6V | 18:12:15 | 02:07:41 | 00:00:00 | |
| DL1NUX | 2026-08-31 00:25:39 | 52.01703 | 8.16854 | 302° | 26km/h | 26494m | 6.3m/s | -50.4°C | 3.6% | 21.2hPa | 2.5V | 08:30:00 | 02:07:46 | 00:00:00 | |
| DL1XH-west | 2026-08-31 00:25:38 | 52.01700 | 8.16864 | 301° | 29km/h | 26489m | 4.9m/s | -50.4°C | 0.3% | 21.3hPa | 2.5V | 18:12:15 | 02:07:45 | 00:00:00 | |
| DO2JMG | 2026-08-31 00:25:36 | 52.01696 | 8.16874 | 300° | 29km/h | 26485m | 3.7m/s | -50.4°C | 0.3% | 21.3hPa | 2.5V | 18:12:15 | 02:07:44 | 00:00:00 | |
| DB0NH | 2026-08-31 00:25:36 | 52.01696 | 8.16874 | 300° | 22km/h | 26485m | 3.6m/s | -50.3°C | 3.6% | 21.2hPa | 2.6V | 00:00:00 | 02:07:44 | 00:00:00 | |
| DL1XH-15 | 2026-08-31 00:25:35 | 52.01688 | 8.16898 | 299° | 15km/h | 26470m | 5.6m/s | -50.5°C | 3.7% | 21.3hPa | 2.6V | 08:30:00 | 02:07:41 | 00:00:00 | |
| HSKMA3-T | 2026-08-31 00:25:35 | 52.01693 | 8.16884 | 300° | 26km/h | 26481m | 4.5m/s | -50.4°C | 0.4% | 21.3hPa | 2.6V | 18:12:15 | 02:07:43 | 00:00:00 | |
| DO2SHX-10 | 2026-08-31 00:25:34 | 52.01690 | 8.16892 | 301° | 16km/h | 26476m | 5.8m/s | -50.4°C | 3.6% | 21.3hPa | 2.6V | 00:00:00 | 02:07:42 | 00:00:00 | |
| GOEST3-10 | 2026-08-31 00:25:33 | 52.01688 | 8.16898 | 300° | 16km/h | 26470m | 5.5m/s | -50.5°C | 3.7% | 21.3hPa | 2.5V | 00:00:00 | 00:00:00 | 00:00:00 | |
| DJ8HS-15 | 2026-08-31 00:25:32 | 52.01686 | 8.16903 | 290° | 22km/h | 26465m | 4.6m/s | -50.5°C | 3.7% | 21.3hPa | 2.5V | 00:00:00 | 02:07:40 | 00:00:00 | |
| DM0DOS-11 | 2026-08-31 00:25:31 | 52.01688 | 8.16957 | 261° | 31km/h | 26434m | 4.8m/s | -50.7°C | 3.6% | 21.5hPa | 2.5V | 08:30:00 | 02:07:34 | 00:00:00 | |
| AA1-15 | 2026-08-31 00:25:31 | 52.01685 | 8.16914 | 269° | 16km/h | 26455m | 5.7m/s | -50.6°C | 0.3% | 21.4hPa | 2.5V | 18:12:15 | 02:07:38 | 00:00:00 | |
| DL1CLM-18 | 2026-08-31 00:25:30 | 52.01685 | 8.16908 | 276° | 13km/h | 26460m | 4.5m/s | -50.6°C | 0.9% | 21.4hPa | 2.6V | 00:00:00 | 00:00:00 | 00:00:00 | |
| DL1NUX | 2026-08-31 00:25:29 | 52.01686 | 8.16932 | 265° | 27km/h | 26444m | 5.4m/s | -50.7°C | 3.6% | 21.4hPa | 2.6V | 08:30:00 | 02:07:36 | 00:00:00 | |
| BIOWL1-15 | 2026-08-31 00:25:28 | 52.01690 | 8.16980 | 261° | 26km/h | 26423m | 5m/s | -50.8°C | 0.3% | 21.5hPa | 2.5V | 18:12:15 | 02:07:32 | 00:00:00 | |
| DL1XH-west | 2026-08-31 00:25:27 | 52.01687 | 8.16944 | 264° | 31km/h | 26439m | 4.4m/s | -50.7°C | 0.3% | 21.4hPa | 2.6V | 18:12:15 | 02:07:35 | 00:00:00 | |
| DO2JMG | 2026-08-31 00:25:26 | 52.01688 | 8.16957 | 262° | 31km/h | 26434m | 4.8m/s | -50.7°C | 0.3% | 21.5hPa | 2.5V | 18:12:15 | 02:07:34 | 00:00:00 | |
| HSKMA3-T | 2026-08-31 00:25:25 | 52.01689 | 8.16969 | 261° | 29km/h | 26429m | 6.1m/s | -50.8°C | 0.3% | 21.5hPa | 2.5V | 18:12:15 | 02:07:33 | 00:00:00 | |
| DO3DL | 2026-08-31 00:25:24 | 52.01689 | 8.16969 | 262° | 29km/h | 26429m | 6.1m/s | -50.7°C | 0.9% | 21.5hPa | 2.5V | 00:00:00 | 00:00:00 | 00:00:00 | |
| DO2SHX-10 | 2026-08-31 00:25:23 | 52.01690 | 8.16989 | 265° | 20km/h | 26419m | 4.2m/s | -50.8°C | 3.7% | 21.5hPa | 2.5V | 00:00:00 | 02:07:31 | 08:30:00 | |
| DM0DOS-11 | 2026-08-31 00:25:21 | 52.01692 | 8.17042 | 231° | 20km/h | 26382m | 5.7m/s | -51°C | 3.7% | 21.6hPa | 2.5V | 08:30:00 | 02:07:24 | 00:00:00 | |
| DF8AY | 2026-08-31 00:25:20 | 52.01689 | 8.17014 | 283° | 20km/h | 26403m | 5m/s | -50.8°C | 0.4% | 21.6hPa | 2.6V | 18:12:15 | 02:07:28 | 00:00:00 | |
| AA1-15 | 2026-08-31 00:25:20 | 52.01688 | 8.17022 | 277° | 18km/h | 26398m | 4.1m/s | -50.9°C | 0.4% | 21.6hPa | 2.5V | 18:12:15 | 02:07:27 | 00:00:00 | |
| DL1NUX | 2026-08-31 00:25:19 | 52.01690 | 8.17036 | 246° | 18km/h | 26388m | 6.5m/s | -51°C | 3.7% | 21.6hPa | 2.5V | 08:30:00 | 02:07:25 | 00:00:00 | |
| DL3AQ-11 | 2026-08-31 00:25:19 | 52.01688 | 8.17029 | 261° | 16km/h | 26394m | 4.6m/s | -50.9°C | 0.9% | 21.6hPa | 2.5V | 00:00:00 | 00:00:00 | 00:00:00 | |
| DJ2KF-10 | 2026-08-31 00:25:18 | 52.01688 | 8.17029 | 262° | 15km/h | 26394m | 4.5m/s | -50.9°C | 3.7% | 21.6hPa | 2.5V | 00:00:00 | 02:07:26 | 00:00:00 | |
| DO2SHX-10 | 2026-08-31 00:25:17 | 52.01690 | 8.17036 | 247° | 18km/h | 26388m | 6.4m/s | -50.9°C | 3.7% | 21.6hPa | 2.5V | 00:00:00 | 02:07:25 | 00:00:00 | |
| DL8DAS-15 | 2026-08-31 00:25:16 | 52.01690 | 8.17036 | 247° | 18km/h | 26388m | 6.5m/s | -51.0°C | 0.9% | 21.6hPa | 2.5V | 00:00:00 | 00:00:00 | 00:00:00 | |
| DL1XH-15 | 2026-08-31 00:25:15 | 52.01701 | 8.17062 | 247° | 20km/h | 26367m | 5.9m/s | -51.1°C | 3.7% | 21.7hPa | 2.5V | 08:30:00 | 02:07:21 | 00:00:00 | |
| DL1XH1-15 | 2026-08-31 00:25:15 | 52.01702 | 8.17087 | 272° | 22km/h | 26351m | 5.3m/s | -51.3°C | 3.8% | 21.7hPa | 2.5V | 08:30:00 | 02:07:18 | 00:00:00 | |
| DO2JMG | 2026-08-31 00:25:15 | 52.01695 | 8.17048 | 228° | 20km/h | 26377m | 4.9m/s | -51.1°C | 0.3% | 21.6hPa | 2.6V | 18:12:15 | 02:07:23 | 00:00:00 | |
| HSKMA3-T | 2026-08-31 00:25:14 | 52.01699 | 8.17055 | 234° | 20km/h | 26372m | 4.5m/s | -51.1°C | 0.4% | 21.7hPa | 2.6V | 18:12:15 | 02:07:22 | 00:00:00 | |
| BUE01 | 2026-08-31 00:25:13 | 52.01702 | 8.17069 | 264° | 20km/h | 26361m | 5.3m/s | -51.2°C | 0.9% | 21.7hPa | 2.5V | 00:00:00 | 00:00:00 | 00:00:00 | |
| DJ2DS-15 | 2026-08-31 00:25:12 | 52.01702 | 8.17069 | 265° | 18km/h | 26362m | 5.3m/s | -51.2°C | 3.8% | 21.7hPa | 2.5V | 00:00:00 | 02:07:20 | 00:00:00 | |
| DM0DOS-11 | 2026-08-31 00:25:11 | 52.01704 | 8.17117 | 252° | 16km/h | 26330m | 5.6m/s | -51.6°C | 3.9% | 21.8hPa | 2.5V | 08:30:00 | 02:07:14 | 00:00:00 | |
| DF8AY | 2026-08-31 00:25:09 | 52.01702 | 8.17095 | 269° | 20km/h | 26346m | 5.9m/s | -51.4°C | 0.4% | 21.8hPa | 2.6V | 18:12:15 | 02:07:17 | 00:00:00 | |
| AA1-15 | 2026-08-31 00:25:09 | 52.01702 | 8.17103 | 262° | 18km/h | 26341m | 4.9m/s | -51.5°C | 0.5% | 21.8hPa | 2.6V | 18:12:15 | 02:07:16 | 00:00:00 | |
| DL1XH-west | 2026-08-31 00:25:06 | 52.01704 | 8.17117 | 253° | 16km/h | 26330m | 5.6m/s | -51.6°C | 0.5% | 21.8hPa | 2.5V | 18:12:15 | 02:07:14 | 00:00:00 | |
| DO2JMG | 2026-08-31 00:25:05 | 52.01706 | 8.17124 | 253° | 16km/h | 26324m | 5.8m/s | -51.6°C | 0.4% | 21.8hPa | 2.5V | 18:12:15 | 02:07:13 | 00:00:00 | |
| HSKMA3-T | 2026-08-31 00:25:04 | 52.01707 | 8.17130 | 246° | 16km/h | 26319m | 4.7m/s | -51.6°C | 0.4% | 21.9hPa | 2.5V | 18:12:15 | 02:07:12 | 00:00:00 | |
| BIOWL1-15 | 2026-08-31 00:25:03 | 52.01709 | 8.17136 | 233° | 16km/h | 26315m | 4.5m/s | -51.6°C | 0.5% | 21.9hPa | 2.5V | 18:12:15 | 02:07:11 | 00:00:00 | |
| GOEST3-10 | 2026-08-31 00:25:03 | 52.01709 | 8.17136 | 234° | 18km/h | 26315m | 4.4m/s | -51.5°C | 3.9% | 21.8hPa | 2.5V | 00:00:00 | 00:00:00 | 00:00:00 | |
| DJ3KS | 2026-08-31 00:25:02 | 52.01709 | 8.17136 | 234° | 16km/h | 26315m | 4.5m/s | -51.6°C | 1.0% | 21.8hPa | 2.5V | 00:00:00 | 00:00:00 | 00:00:00 | |
| DO2SHX-10 | 2026-08-31 00:25:01 | 52.01716 | 8.17145 | 211° | 18km/h | 26304m | 5.4m/s | -51.6°C | 3.9% | 21.8hPa | 2.5V | 00:00:00 | 02:07:09 | 00:00:00 | |
| DL1NUX | 2026-08-31 00:24:59 | 52.01728 | 8.17165 | 256° | 18km/h | 26283m | 5.4m/s | -51.7°C | 3.9% | 21.9hPa | 2.5V | 08:30:00 | 02:07:05 | 00:00:00 | |
| DF8AY | 2026-08-31 00:24:59 | 52.01723 | 8.17153 | 220° | 16km/h | 26294m | 4.7m/s | -51.7°C | 0.5% | 21.9hPa | 2.5V | 18:12:15 | 02:07:07 | 00:00:00 | |
| DM0DOS-11 | 2026-08-31 00:24:59 | 52.01728 | 8.17172 | 263° | 20km/h | 26278m | 4.7m/s | -51.8°C | 3.9% | 22hPa | 2.6V | 08:30:00 | 02:07:04 | 00:00:00 | |
| AA1-15 | 2026-08-31 00:24:58 | 52.01728 | 8.17165 | 257° | 18km/h | 26283m | 5.4m/s | -51.7°C | 0.5% | 21.9hPa | 2.5V | 18:12:15 | 02:07:05 | 00:00:00 | |
| DO2SHX-10 | 2026-08-31 00:24:58 | 52.01726 | 8.17158 | 239° | 16km/h | 26289m | 6.0m/s | -51.7°C | 3.9% | 21.9hPa | 2.5V | 00:00:00 | 02:07:06 | 00:00:00 | |
| DL1XH-15 | 2026-08-31 00:24:57 | 52.01732 | 8.17195 | 233° | 16km/h | 26262m | 5.3m/s | -51.9°C | 4% | 22hPa | 2.5V | 08:30:00 | 02:07:01 | 00:00:00 | |
| DL1XH-west | 2026-08-31 00:24:56 | 52.01728 | 8.17172 | 264° | 20km/h | 26278m | 4.7m/s | -51.8°C | 0.5% | 22hPa | 2.6V | 18:12:15 | 02:07:04 | 00:00:00 | |
| DO2JMG | 2026-08-31 00:24:54 | 52.01730 | 8.17188 | 251° | 18km/h | 26268m | 5.9m/s | -51.9°C | 0.5% | 22hPa | 2.6V | 18:12:15 | 02:07:02 | 00:00:00 | |
| BIOWL1-15 | 2026-08-31 00:24:52 | 52.01735 | 8.17200 | 218° | 15km/h | 26258m | 4.7m/s | -51.9°C | 0.6% | 22hPa | 2.5V | 18:12:15 | 02:07:00 | 00:00:00 | |
| DF8AY | 2026-08-31 00:24:48 | 52.01744 | 8.17208 | 217° | 7km/h | 26237m | 4.7m/s | -51.8°C | 0.6% | 22.1hPa | 2.6V | 18:12:15 | 02:06:56 | 00:00:00 | |
| DM0DOS-11 | 2026-08-31 00:24:47 | 52.01748 | 8.17212 | 223° | 9km/h | 26226m | 6.2m/s | -51.8°C | 4% | 22.2hPa | 2.5V | 08:30:00 | 02:06:54 | 00:00:00 | |
| AA1-15 | 2026-08-31 00:24:47 | 52.01748 | 8.17212 | 223° | 9km/h | 26226m | 6.2m/s | -51.8°C | 0.6% | 22.2hPa | 2.5V | 18:12:15 | 02:06:54 | 00:00:00 | |
| DL1XH-15 | 2026-08-31 00:24:46 | 52.01752 | 8.17226 | 255° | 15km/h | 26210m | 6.3m/s | -51.7°C | 4% | 22.2hPa | 2.6V | 08:30:00 | 02:06:51 | 00:00:00 | |
| DL1XH-west | 2026-08-31 00:24:45 | 52.01750 | 8.17215 | 230° | 13km/h | 26221m | 5m/s | -51.7°C | 0.6% | 22.2hPa | 2.5V | 18:12:15 | 02:06:53 | 00:00:00 | |
| DO2JMG | 2026-08-31 00:24:43 | 52.01753 | 8.17226 | 256° | 15km/h | 26210m | 6.3m/s | -51.7°C | 0.5% | 22.2hPa | 2.6V | 18:12:15 | 02:06:51 | 00:00:00 | |
| BIOWL1-15 | 2026-08-31 00:24:41 | 52.01755 | 8.17245 | 250° | 15km/h | 26195m | 5.5m/s | -51.6°C | 0.5% | 22.3hPa | 2.5V | 18:12:15 | 02:06:48 | 00:00:00 | |
| DF8AY | 2026-08-31 00:24:37 | 52.01763 | 8.17255 | 188° | 15km/h | 26179m | 4.8m/s | -51.5°C | 0.5% | 22.3hPa | 2.5V | 18:12:15 | 02:06:45 | 00:00:00 | |
| DL1XH-15 | 2026-08-31 00:24:36 | 52.01774 | 8.17254 | 194° | 9km/h | 26158m | 4.8m/s | -51.4°C | 3.9% | 22.4hPa | 2.5V | 08:30:00 | 02:06:41 | 00:00:00 | |
| AA1-15 | 2026-08-31 00:24:36 | 52.01766 | 8.17255 | 177° | 13km/h | 26173m | 6.2m/s | -51.5°C | 0.5% | 22.3hPa | 2.6V | 18:12:15 | 02:06:44 | 00:00:00 | |
| DL1XH-west | 2026-08-31 00:24:35 | 52.01769 | 8.17254 | 172° | 11km/h | 26167m | 5.4m/s | -51.5°C | 0.6% | 22.4hPa | 2.6V | 18:12:15 | 02:06:43 | 00:00:00 | |
| DO2JMG | 2026-08-31 00:24:32 | 52.01776 | 8.17256 | 207° | 11km/h | 26153m | 5.7m/s | -51.4°C | 0.5% | 22.4hPa | 2.5V | 18:12:15 | 02:06:40 | 00:00:00 | |
| BIOWL1-15 | 2026-08-31 00:24:32 | 52.01782 | 8.17263 | 229° | 15km/h | 26142m | 4.3m/s | -51.4°C | 0.5% | 22.5hPa | 2.6V | 18:12:15 | 02:06:38 | 00:00:00 | |
| DJ2DS-15 | 2026-08-31 00:24:32 | 52.01776 | 8.17256 | 208° | 11km/h | 26153m | 5.6m/s | -51.4°C | 3.9% | 22.4hPa | 2.5V | 00:00:00 | 02:06:40 | 00:00:00 | |
| NBG1-10 | 2026-08-31 00:24:31 | 52.01779 | 8.17258 | 217° | 13km/h | 26148m | 5.5m/s | -51.4°C | 3.9% | 22.4hPa | 2.6V | 00:00:00 | 02:06:39 | 00:00:00 | |
| DO2SHX-10 | 2026-08-31 00:24:30 | 52.01782 | 8.17262 | 229° | 15km/h | 26143m | 4.2m/s | -51.4°C | 3.9% | 22.4hPa | 2.6V | 00:00:00 | 02:06:38 | 00:00:00 | |
| DO3DL | 2026-08-31 00:24:29 | 52.01781 | 8.17262 | 230° | 15km/h | 26143m | 4.3m/s | -51.4°C | 1.0% | 22.5hPa | 2.6V | 00:00:00 | 00:00:00 | 00:00:00 | |
| DD8BA-10 | 2026-08-31 00:24:28 | 52.01784 | 8.17272 | 260° | 9km/h | 26133m | 6.3m/s | -51.4°C | 3.9% | 22.4hPa | 2.6V | 00:00:00 | 00:00:00 | 00:00:00 | |
| DO2SHX-10 | 2026-08-31 00:24:27 | 52.01784 | 8.17277 | 278° | 9km/h | 26127m | 5.6m/s | -51.4°C | 3.9% | 22.5hPa | 2.6V | 00:00:00 | 02:06:35 | 00:00:00 | |
| DL1XH-15 | 2026-08-31 00:24:26 | 52.01785 | 8.17293 | 213° | 9km/h | 26105m | 4.8m/s | -51.5°C | 4% | 22.6hPa | 2.6V | 08:30:00 | 02:06:31 | 00:00:00 | |
| DF8AY | 2026-08-31 00:24:26 | 52.01784 | 8.17282 | 284° | 11km/h | 26121m | 5.2m/s | -51.5°C | 0.5% | 22.6hPa | 2.5V | 18:12:15 | 02:06:34 | 00:00:00 | |
| AA1-15 | 2026-08-31 00:24:26 | 52.01784 | 8.17287 | 274° | 9km/h | 26116m | 5.7m/s | -51.5°C | 0.5% | 22.6hPa | 2.5V | 18:12:15 | 02:06:33 | 00:00:00 | |
| DL1XH-west | 2026-08-31 00:24:24 | 52.01784 | 8.17290 | 247° | 9km/h | 26110m | 5.8m/s | -51.5°C | 0.6% | 22.6hPa | 2.5V | 18:12:15 | 02:06:32 | 00:00:00 | |
| DO2JMG | 2026-08-31 00:24:22 | 52.01787 | 8.17294 | 193° | 9km/h | 26100m | 4.5m/s | -51.4°C | 0.5% | 22.6hPa | 2.6V | 18:12:15 | 02:06:30 | 00:00:00 | |
| HSKMA3-T | 2026-08-31 00:24:21 | 52.01790 | 8.17295 | 180° | 9km/h | 26095m | 6m/s | -51.4°C | 0.5% | 22.6hPa | 2.5V | 18:12:15 | 02:06:29 | 00:00:00 | |
| BIOWL1-15 | 2026-08-31 00:24:20 | 52.01792 | 8.17295 | 175° | 7km/h | 26089m | 5.7m/s | -51.4°C | 0.5% | 22.6hPa | 2.5V | 18:12:15 | 02:06:28 | 00:00:00 | |
| DO2SHX-10 | 2026-08-31 00:24:19 | 52.01794 | 8.17294 | 186° | 9km/h | 26084m | 4.9m/s | -51.3°C | 3.9% | 22.6hPa | 2.6V | 00:00:00 | 02:06:27 | 00:00:00 | |
| DL3OBA | 2026-08-31 00:24:18 | 52.01794 | 8.17295 | 186° | 7km/h | 26084m | 4.9m/s | -51.4°C | 0.9% | 22.7hPa | 2.6V | 00:00:00 | 00:00:00 | 00:00:00 | |
| DM0DOS-11 | 2026-08-31 00:24:16 | 52.01801 | 8.17302 | 227° | 16km/h | 26067m | 5.1m/s | -51.3°C | 3.9% | 22.7hPa | 2.6V | 08:30:00 | 02:06:24 | 00:00:00 | |
| DO2SHX-10 | 2026-08-31 00:24:16 | 52.01800 | 8.17301 | 228° | 16km/h | 26068m | 5.1m/s | -51.3°C | 3.9% | 22.7hPa | 2.6V | 00:00:00 | 02:06:24 | 00:00:00 | |
| DL1XH1-15 | 2026-08-31 00:24:15 | 52.01807 | 8.17329 | 254° | 7km/h | 26037m | 5.4m/s | -51.3°C | 3.9% | 22.8hPa | 2.6V | 08:30:00 | 02:06:18 | 00:00:00 | |
| DF8AY | 2026-08-31 00:24:15 | 52.01803 | 8.17307 | 234° | 16km/h | 26063m | 4.1m/s | -51.3°C | 0.5% | 22.7hPa | 2.6V | 18:12:15 | 02:06:23 | 00:00:00 | |
| DL1XH-west | 2026-08-31 00:24:13 | 52.01807 | 8.17318 | 254° | 13km/h | 26053m | 6.1m/s | -51.4°C | 0.5% | 22.8hPa | 2.5V | 18:12:15 | 02:06:21 | 00:00:00 | |
| DO2JMG | 2026-08-31 00:24:12 | 52.01807 | 8.17322 | 270° | 11km/h | 26047m | 5.2m/s | -51.4°C | 0.5% | 22.8hPa | 2.5V | 18:12:15 | 02:06:20 | 00:00:00 | |
| HSKMA3-T | 2026-08-31 00:24:11 | 52.01807 | 8.17326 | 269° | 9km/h | 26042m | 4.8m/s | -51.4°C | 0.5% | 22.8hPa | 2.5V | 18:12:15 | 02:06:19 | 00:00:00 | |
| BIOWL1-15 | 2026-08-31 00:24:09 | 52.01813 | 8.17339 | 215° | 13km/h | 26021m | 4.7m/s | -51.3°C | 0.5% | 22.9hPa | 2.5V | 18:12:15 | 02:06:15 | 00:00:00 | |
| DO2SHX-10 | 2026-08-31 00:24:09 | 52.01808 | 8.17333 | 235° | 11km/h | 26032m | 6.0m/s | -51.3°C | 3.9% | 22.8hPa | 2.5V | 00:00:00 | 02:06:17 | 00:00:00 | |
| DD8BA-10 | 2026-08-31 00:24:08 | 52.01810 | 8.17336 | 220° | 16km/h | 26026m | 4.9m/s | -51.3°C | 3.8% | 22.8hPa | 2.5V | 00:00:00 | 00:00:00 | 00:00:00 | |
| HTAHTA | 2026-08-31 00:24:07 | 52.01815 | 8.17342 | 214° | 11km/h | 26016m | 5.9m/s | -51.3°C | 0.9% | 22.9hPa | 2.5V | 00:00:00 | 00:00:00 | 00:00:00 | |
| DM0DOS-11 | 2026-08-31 00:24:06 | 52.01823 | 8.17353 | 226° | 18km/h | 26000m | 6.1m/s | -51.2°C | 3.8% | 22.9hPa | 2.5V | 08:30:00 | 02:06:11 | 00:00:00 | |
| DO2SHX-10 | 2026-08-31 00:24:06 | 52.01815 | 8.17342 | 215° | 13km/h | 26016m | 5.9m/s | -51.2°C | 3.8% | 22.8hPa | 2.6V | 00:00:00 | 02:06:14 | 00:00:00 | |
| DL1XH1-15 | 2026-08-31 00:24:05 | 52.01832 | 8.17374 | 248° | 20km/h | 25984m | 5.5m/s | -51.3°C | 3.8% | 23hPa | 2.6V | 08:30:00 | 02:06:08 | 00:00:00 | |
| DF8AY | 2026-08-31 00:24:05 | 52.01818 | 8.17344 | 217° | 13km/h | 26010m | 5.3m/s | -51.3°C | 0.5% | 22.9hPa | 2.6V | 18:12:15 | 02:06:13 | 00:00:00 | |
| AA1-15 | 2026-08-31 00:24:04 | 52.01820 | 8.17348 | 223° | 15km/h | 26005m | 4.7m/s | -51.3°C | 0.4% | 22.9hPa | 2.6V | 18:12:15 | 02:06:12 | 00:00:00 | |
| DO2JMG | 2026-08-31 00:24:03 | 52.01826 | 8.17359 | 231° | 22km/h | 25994m | 5.7m/s | -51.2°C | 0.4% | 23hPa | 2.5V | 18:12:15 | 02:06:10 | 00:00:00 | |
| HSKMA3-T | 2026-08-31 00:24:00 | 52.01832 | 8.17374 | 248° | 20km/h | 25984m | 5.5m/s | -51.3°C | 0.4% | 23hPa | 2.6V | 18:12:15 | 02:06:08 | 00:00:00 | |
| BIOWL1-15 | 2026-08-31 00:23:59 | 52.01834 | 8.17389 | 274° | 18km/h | 25972m | 5.3m/s | -51.4°C | 0.5% | 23hPa | 2.5V | 18:12:15 | 02:06:06 | 00:00:00 | |
| DL3AQ-11 | 2026-08-31 00:23:59 | 52.01834 | 8.17389 | 273° | 16km/h | 25972m | 5.3m/s | -51.4°C | 0.9% | 23.0hPa | 2.6V | 00:00:00 | 00:00:00 | 00:00:00 | |
| DB0ND-19 | 2026-08-31 00:23:57 | 52.01833 | 8.17396 | 279° | 16km/h | 25967m | 5.4m/s | -51.5°C | 0.9% | 23.1hPa | 2.6V | 00:00:00 | 00:00:00 | 00:00:00 | |
| DL1XH-15 | 2026-08-31 00:23:56 | 52.01834 | 8.17416 | 249° | 7km/h | 25945m | 6.2m/s | -51.5°C | 3.9% | 23.1hPa | 2.6V | 08:30:00 | 02:06:01 | 00:00:00 | |
| DL1XH1-15 | 2026-08-31 00:23:55 | 52.01838 | 8.17424 | 223° | 15km/h | 25930m | 5.2m/s | -51.6°C | 3.9% | 23.2hPa | 2.5V | 08:30:00 | 02:05:58 | 00:00:00 | |
| DF8AY | 2026-08-31 00:23:54 | 52.01833 | 8.17413 | 256° | 11km/h | 25950m | 4.8m/s | -51.5°C | 0.5% | 23.1hPa | 2.6V | 18:12:15 | 02:06:02 | 00:00:00 | |
| AA1-15 | 2026-08-31 00:23:53 | 52.01834 | 8.17416 | 249° | 7km/h | 25945m | 6.2m/s | -51.5°C | 0.4% | 23.2hPa | 2.6V | 18:12:15 | 02:06:01 | 00:00:00 | |
| DL1XH-west | 2026-08-31 00:23:52 | 52.01835 | 8.17419 | 230° | 7km/h | 25939m | 5.2m/s | -51.5°C | 0.5% | 23.2hPa | 2.5V | 18:12:15 | 02:06:00 | 00:00:00 | |
| DO2JMG | 2026-08-31 00:23:52 | 52.01836 | 8.17421 | 222° | 11km/h | 25935m | 4m/s | -51.6°C | 0.5% | 23.2hPa | 2.5V | 18:12:15 | 02:05:59 | 00:00:00 | |
| HSKMA3-T | 2026-08-31 00:23:49 | 52.01841 | 8.17430 | 230° | 20km/h | 25924m | 6.1m/s | -51.6°C | 0.5% | 23.2hPa | 2.6V | 18:12:15 | 02:05:57 | 00:00:00 | |
| BIOWL1-15 | 2026-08-31 00:23:47 | 52.01848 | 8.17446 | 245° | 27km/h | 25914m | 4.5m/s | -51.6°C | 0.5% | 23.3hPa | 2.5V | 18:12:15 | 02:05:55 | 00:00:00 | |
| DO2SHX-10 | 2026-08-31 00:23:46 | 52.01851 | 8.17457 | 253° | 22km/h | 25910m | 5.2m/s | -51.6°C | 4.0% | 23.3hPa | 2.5V | 00:00:00 | 02:05:54 | 00:00:00 | |
| DL1XH1-15 | 2026-08-31 00:23:45 | 52.01855 | 8.17496 | 238° | 13km/h | 25879m | 4.9m/s | -51.5°C | 3.9% | 23.4hPa | 2.5V | 08:30:00 | 02:05:48 | 00:00:00 | |
| DF8AY | 2026-08-31 00:23:44 | 52.01852 | 8.17475 | 270° | 18km/h | 25899m | 4.6m/s | -51.6°C | 0.5% | 23.3hPa | 2.5V | 18:12:15 | 02:05:52 | 00:00:00 | |
| AA1-15 | 2026-08-31 00:23:43 | 52.01853 | 8.17487 | 263° | 13km/h | 25890m | 5.5m/s | -51.5°C | 0.5% | 23.4hPa | 2.6V | 18:12:15 | 02:05:50 | 00:00:00 | |
| DO2JMG | 2026-08-31 00:23:41 | 52.01853 | 8.17491 | 245° | 11km/h | 25884m | 5.5m/s | -51.5°C | 0.5% | 23.4hPa | 2.6V | 18:12:15 | 02:05:49 | 00:00:00 | |
| HSKMA3-T | 2026-08-31 00:23:39 | 52.01857 | 8.17500 | 236° | 13km/h | 25874m | 4.8m/s | -51.5°C | 0.4% | 23.4hPa | 2.5V | 18:12:15 | 02:05:47 | 00:00:00 | |
| BIOWL1-15 | 2026-08-31 00:23:37 | 52.01859 | 8.17509 | 248° | 13km/h | 25863m | 5.6m/s | -51.5°C | 0.4% | 23.4hPa | 2.5V | 18:12:15 | 02:05:45 | 00:00:00 | |
| DB0NH | 2026-08-31 00:23:36 | 52.01861 | 8.17514 | 249° | 9km/h | 25858m | 4.9m/s | -51.4°C | 3.8% | 23.4hPa | 2.5V | 00:00:00 | 02:05:44 | 00:00:00 | |
| DL1XH1-15 | 2026-08-31 00:23:35 | 52.01873 | 8.17550 | 254° | 9km/h | 25826m | 5.4m/s | -51.7°C | 3.9% | 23.6hPa | 2.5V | 08:30:00 | 02:05:38 | 00:00:00 | |
| DF8AY | 2026-08-31 00:23:33 | 52.01867 | 8.17533 | 237° | 20km/h | 25841m | 4.6m/s | -51.5°C | 0.4% | 23.5hPa | 2.6V | 18:12:15 | 02:05:41 | 00:00:00 | |
| DL1XH-west | 2026-08-31 00:23:31 | 52.01872 | 8.17545 | 246° | 15km/h | 25831m | 6m/s | -51.6°C | 0.4% | 23.6hPa | 2.5V | 18:12:15 | 02:05:39 | 00:00:00 | |
| DO2JMG | 2026-08-31 00:23:30 | 52.01873 | 8.17550 | 254° | 9km/h | 25826m | 5.4m/s | -51.7°C | 0.5% | 23.6hPa | 2.5V | 18:12:15 | 02:05:38 | 00:00:00 | |
| HSKMA3-T | 2026-08-31 00:23:28 | 52.01873 | 8.17553 | 233° | 2km/h | 25816m | 5.6m/s | -51.8°C | 0.5% | 23.6hPa | 2.6V | 18:12:15 | 02:05:36 | 00:00:00 | |
| BIOWL1-15 | 2026-08-31 00:23:27 | 52.01875 | 8.17553 | 171° | 5km/h | 25805m | 5.2m/s | -51.9°C | 0.5% | 23.7hPa | 2.5V | 18:12:15 | 02:05:34 | 00:00:00 | |
| DJ2KF-10 | 2026-08-31 00:23:27 | 52.01874 | 8.17553 | 175° | 9km/h | 25810m | 5.7m/s | -51.8°C | 3.9% | 23.6hPa | 2.6V | 00:00:00 | 02:05:35 | 08:30:00 | |
| DO2SHX-10 | 2026-08-31 00:23:26 | 52.01875 | 8.17553 | 171° | 4km/h | 25805m | 5.2m/s | -51.8°C | 3.9% | 23.6hPa | 2.5V | 00:00:00 | 02:05:34 | 00:00:00 | |
| DM0DOS-11 | 2026-08-31 00:23:25 | 52.01878 | 8.17554 | 230° | 4km/h | 25788m | 5.2m/s | -51.8°C | 3.9% | 23.7hPa | 2.5V | 08:30:00 | 02:05:31 | 00:00:00 | |
| DL1XH1-15 | 2026-08-31 00:23:25 | 52.01883 | 8.17560 | 205° | 13km/h | 25772m | 5.8m/s | -51.9°C | 4% | 23.8hPa | 2.6V | 08:30:00 | 02:05:28 | 00:00:00 | |
| DF8AY | 2026-08-31 00:23:22 | 52.01879 | 8.17556 | 228° | 7km/h | 25783m | 4.8m/s | -51.9°C | 0.5% | 23.7hPa | 2.6V | 18:12:15 | 02:05:30 | 00:00:00 | |
| AA1-15 | 2026-08-31 00:23:21 | 52.01883 | 8.17560 | 206° | 13km/h | 25772m | 5.8m/s | -51.9°C | 0.6% | 23.8hPa | 2.6V | 18:12:15 | 02:05:28 | 00:00:00 | |
| DL1XH-west | 2026-08-31 00:23:21 | 52.01881 | 8.17558 | 216° | 9km/h | 25778m | 6.1m/s | -51.9°C | 0.5% | 23.8hPa | 2.6V | 18:12:15 | 02:05:29 | 00:00:00 | |
| DO2JMG | 2026-08-31 00:23:19 | 52.01886 | 8.17562 | 200° | 15km/h | 25767m | 4.8m/s | -52°C | 0.6% | 23.8hPa | 2.5V | 18:12:15 | 02:05:27 | 00:00:00 | |
| HSKMA3-T | 2026-08-31 00:23:18 | 52.01889 | 8.17564 | 201° | 13km/h | 25761m | 5.4m/s | -52°C | 0.6% | 23.8hPa | 2.5V | 18:12:15 | 02:05:26 | 00:00:00 | |
| DF8AY | 2026-08-31 00:23:12 | 52.01903 | 8.17573 | 188° | 9km/h | 25730m | 4.4m/s | -52°C | 0.6% | 24hPa | 2.5V | 18:12:15 | 02:05:20 | 00:00:00 | |
| DL1XH1-15 | 2026-08-31 00:23:12 | 52.01906 | 8.17575 | 233° | 4km/h | 25719m | 5.8m/s | -51.9°C | 4.1% | 24hPa | 2.5V | 08:30:00 | 02:05:18 | 00:00:00 | |
| DL1XH-west | 2026-08-31 00:23:11 | 52.01905 | 8.17573 | 200° | 7km/h | 25725m | 5.5m/s | -52°C | 0.6% | 24hPa | 2.5V | 18:12:15 | 02:05:19 | 00:00:00 | |
| DO2JMG | 2026-08-31 00:23:09 | 52.01906 | 8.17576 | 257° | 4km/h | 25714m | 4.7m/s | -51.9°C | 0.6% | 24hPa | 2.6V | 18:12:15 | 02:05:17 | 00:00:00 | |
| HSKMA3-T | 2026-08-31 00:23:07 | 52.01907 | 8.17580 | 218° | 5km/h | 25703m | 6.3m/s | -51.9°C | 0.6% | 24hPa | 2.6V | 18:12:15 | 02:05:15 | 00:00:00 | |
| DM0DOS-11 | 2026-08-31 00:23:06 | 52.01918 | 8.17586 | 192° | 9km/h | 25675m | 4.2m/s | -51.7°C | 4% | 24.1hPa | 2.6V | 08:30:00 | 02:05:10 | 00:00:00 | |
| DB0UT-7 | 2026-08-31 00:23:06 | 52.01909 | 8.17581 | 202° | 13km/h | 25698m | 5.7m/s | -51.8°C | 4.0% | 24.0hPa | 2.5V | 00:00:00 | 00:00:00 | 00:00:00 | |
| DL1XH1-15 | 2026-08-31 00:23:05 | 52.01925 | 8.17586 | 173° | 15km/h | 25665m | 6m/s | -51.6°C | 4% | 24.2hPa | 2.5V | 08:30:00 | 02:05:08 | 00:00:00 | |
| DF8AY | 2026-08-31 00:23:01 | 52.01921 | 8.17587 | 182° | 11km/h | 25671m | 5m/s | -51.7°C | 0.5% | 24.2hPa | 2.6V | 18:12:15 | 02:05:09 | 00:00:00 | |
| DL1XH-west | 2026-08-31 00:23:00 | 52.01924 | 8.17586 | 173° | 15km/h | 25665m | 6.1m/s | -51.6°C | 0.6% | 24.2hPa | 2.5V | 18:12:15 | 02:05:08 | 00:00:00 | |
| DO2JMG | 2026-08-31 00:22:58 | 52.01932 | 8.17584 | 164° | 15km/h | 25655m | 4.4m/s | -51.6°C | 0.5% | 24.2hPa | 2.5V | 18:12:15 | 02:05:06 | 00:00:00 | |
| DD8BA-10 | 2026-08-31 00:22:58 | 52.01932 | 8.17584 | 165° | 9km/h | 25655m | 4.4m/s | -51.5°C | 3.9% | 24.2hPa | 2.5V | 00:00:00 | 00:00:00 | 00:00:00 | |
| DL1XH-15 | 2026-08-31 00:22:57 | 52.01942 | 8.17583 | 196° | 9km/h | 25628m | 5.8m/s | -51.5°C | 3.9% | 24.3hPa | 2.5V | 08:30:00 | 02:05:01 | 00:00:00 | |
| BIOWL1-15 | 2026-08-31 00:22:56 | 52.01938 | 8.17581 | 170° | 7km/h | 25644m | 5.7m/s | -51.6°C | 0.6% | 24.3hPa | 2.6V | 18:12:15 | 02:05:04 | 00:00:00 | |
| DL1XH1-15 | 2026-08-31 00:22:55 | 52.01950 | 8.17586 | 192° | 11km/h | 25613m | 5.4m/s | -51.6°C | 3.9% | 24.4hPa | 2.5V | 08:30:00 | 02:04:58 | 00:00:00 | |
| DF8AY | 2026-08-31 00:22:51 | 52.01948 | 8.17585 | 192° | 13km/h | 25618m | 4.7m/s | -51.6°C | 0.5% | 24.3hPa | 2.5V | 18:12:15 | 02:04:59 | 00:00:00 | |
| DL1XH-west | 2026-08-31 00:22:50 | 52.01951 | 8.17586 | 192° | 11km/h | 25613m | 5.4m/s | -51.6°C | 0.5% | 24.4hPa | 2.5V | 18:12:15 | 02:04:58 | 00:00:00 | |
| DO2JMG | 2026-08-31 00:22:48 | 52.01956 | 8.17587 | 180° | 9km/h | 25602m | 4.5m/s | -51.6°C | 0.6% | 24.4hPa | 2.6V | 18:12:15 | 02:04:56 | 00:00:00 | |
| HSKMA3-T | 2026-08-31 00:22:46 | 52.01962 | 8.17585 | 162° | 15km/h | 25592m | 6m/s | -51.6°C | 0.6% | 24.5hPa | 2.5V | 18:12:15 | 02:04:54 | 00:00:00 | |
| DF8AY | 2026-08-31 00:22:41 | 52.01977 | 8.17567 | 122° | 13km/h | 25565m | 4.8m/s | -51.6°C | 0.5% | 24.6hPa | 2.6V | 18:12:15 | 02:04:49 | 00:00:00 | |
| AA1-15 | 2026-08-31 00:22:40 | 52.01979 | 8.17562 | 124° | 15km/h | 25561m | 4.4m/s | -51.6°C | 0.5% | 24.6hPa | 2.5V | 18:12:15 | 02:04:48 | 00:00:00 | |
| DL1XH-west | 2026-08-31 00:22:39 | 52.01981 | 8.17557 | 132° | 16km/h | 25556m | 5.8m/s | -51.6°C | 0.5% | 24.6hPa | 2.5V | 18:12:15 | 02:04:47 | 00:00:00 | |
| DO2JMG | 2026-08-31 00:22:37 | 52.01988 | 8.17549 | 152° | 16km/h | 25545m | 4.5m/s | -51.6°C | 0.5% | 24.7hPa | 2.5V | 18:12:15 | 02:04:45 | 00:00:00 | |
| HSKMA3-T | 2026-08-31 00:22:36 | 52.01992 | 8.17546 | 162° | 15km/h | 25540m | 5.8m/s | -51.5°C | 0.5% | 24.7hPa | 2.6V | 18:12:15 | 02:04:44 | 00:00:00 | |
| DF8AY | 2026-08-31 00:22:30 | 52.02010 | 8.17545 | 156° | 13km/h | 25508m | 4.6m/s | -51.4°C | 0.5% | 24.8hPa | 2.6V | 18:12:15 | 02:04:38 | 00:00:00 | |
| AA1-15 | 2026-08-31 00:22:30 | 52.02015 | 8.17536 | 101° | 9km/h | 25493m | 4.3m/s | -51.4°C | 0.5% | 24.9hPa | 2.5V | 18:12:15 | 02:04:35 | 00:00:00 | |
| DL1XH-west | 2026-08-31 00:22:28 | 52.02014 | 8.17539 | 113° | 9km/h | 25497m | 5.3m/s | -51.4°C | 0.5% | 24.8hPa | 2.6V | 18:12:15 | 02:04:36 | 00:00:00 | |
| DO2JMG | 2026-08-31 00:22:27 | 52.02015 | 8.17532 | 105° | 11km/h | 25488m | 4.9m/s | -51.4°C | 0.4% | 24.8hPa | 2.5V | 18:12:15 | 02:04:34 | 00:00:00 | |
| HSKMA3-T | 2026-08-31 00:22:26 | 52.02016 | 8.17528 | 116° | 11km/h | 25483m | 5.6m/s | -51.4°C | 0.5% | 24.9hPa | 2.5V | 18:12:15 | 02:04:33 | 00:00:00 | |
| AA1-15 | 2026-08-31 00:22:18 | 52.02028 | 8.17525 | 229° | 13km/h | 25441m | 4.2m/s | -51.4°C | 0.4% | 25hPa | 2.6V | 18:12:15 | 02:04:25 | 00:00:00 | |
| DL1XH-west | 2026-08-31 00:22:18 | 52.02026 | 8.17521 | 229° | 11km/h | 25446m | 5.6m/s | -51.4°C | 0.4% | 25.1hPa | 2.6V | 18:12:15 | 02:04:26 | 00:00:00 | |
| BIOWL1-15 | 2026-08-31 00:22:18 | 52.02031 | 8.17530 | 243° | 4km/h | 25433m | 5.4m/s | -51.5°C | 0.3% | 25.1hPa | 2.5V | 18:12:15 | 02:04:23 | 00:00:00 | |
| DL1XH-15 | 2026-08-31 00:22:17 | 52.02030 | 8.17528 | 47° | 9km/h | 25422m | 5.3m/s | -51.6°C | 3.8% | 25.1hPa | 2.6V | 08:30:00 | 02:04:21 | 00:00:00 | |
| DO2JMG | 2026-08-31 00:22:16 | 52.02030 | 8.17528 | 229° | 9km/h | 25438m | 3.6m/s | -51.4°C | 0.4% | 25hPa | 2.5V | 18:12:15 | 02:04:24 | 00:00:00 | |
| HSKMA3-T | 2026-08-31 00:22:14 | 52.02031 | 8.17530 | 33° | 4km/h | 25427m | 5.9m/s | -51.5°C | 0.4% | 25.1hPa | 2.5V | 18:12:15 | 02:04:22 | 00:00:00 | |
| AA1-15 | 2026-08-31 00:22:08 | 52.02025 | 8.17509 | 92° | 4km/h | 25397m | 4.8m/s | -51.9°C | 0.5% | 25.2hPa | 2.5V | 18:12:15 | 02:04:16 | 00:00:00 | |
| DL1XH-west | 2026-08-31 00:22:08 | 52.02025 | 8.17507 | 53° | 2km/h | 25392m | 5.8m/s | -52°C | 0.4% | 25.2hPa | 2.6V | 18:12:15 | 02:04:15 | 00:00:00 | |
| GOEST3-10 | 2026-08-31 00:22:08 | 52.02025 | 8.17508 | 92° | 4km/h | 25397m | 4.7m/s | -51.8°C | 3.8% | 25.2hPa | 2.5V | 00:00:00 | 02:04:16 | 08:30:00 | |
| DL1XH-15 | 2026-08-31 00:22:07 | 52.02023 | 8.17512 | 255° | 4km/h | 25371m | 6m/s | -52.1°C | 3.9% | 25.3hPa | 2.5V | 08:30:00 | 02:04:11 | 00:00:00 | |
| DO2JMG | 2026-08-31 00:22:05 | 52.02024 | 8.17509 | 311° | 5km/h | 25381m | 4.6m/s | -52.1°C | 0.5% | 25.3hPa | 2.5V | 18:12:15 | 02:04:13 | 00:00:00 | |
| BIOWL1-15 | 2026-08-31 00:22:04 | 52.02023 | 8.17511 | 289° | 5km/h | 25376m | 4.3m/s | -52.1°C | 0.5% | 25.3hPa | 2.5V | 18:12:15 | 02:04:12 | 00:00:00 | |
| DF8AY | 2026-08-31 00:22:03 | 52.02023 | 8.17512 | 256° | 4km/h | 25371m | 6m/s | -52.2°C | 0.5% | 25.3hPa | 2.5V | 18:12:15 | 02:04:11 | 00:00:00 | |
| AA1-15 | 2026-08-31 00:21:58 | 52.02017 | 8.17512 | 18° | 15km/h | 25340m | 4.7m/s | -52.2°C | 0.5% | 25.4hPa | 2.6V | 18:12:15 | 02:04:05 | 00:00:00 | |
| DL1XH-west | 2026-08-31 00:21:58 | 52.02013 | 8.17510 | 23° | 15km/h | 25334m | 5.8m/s | -52.2°C | 0.5% | 25.4hPa | 2.6V | 18:12:15 | 02:04:04 | 00:00:00 | |
| DL1XH-15 | 2026-08-31 00:21:57 | 52.02003 | 8.17503 | 15° | 15km/h | 25319m | 6m/s | -52.3°C | 4% | 25.5hPa | 2.5V | 08:30:00 | 02:04:01 | 00:00:00 | |
| BIOWL1-15 | 2026-08-31 00:21:55 | 52.01992 | 8.17501 | 6° | 13km/h | 25304m | 5.5m/s | -52.4°C | 0.5% | 25.6hPa | 2.5V | 18:12:15 | 02:03:58 | 00:00:00 | |
| DO2JMG | 2026-08-31 00:21:55 | 52.02010 | 8.17508 | 25° | 15km/h | 25329m | 4.9m/s | -52.2°C | 0.5% | 25.5hPa | 2.5V | 18:12:15 | 02:04:03 | 00:00:00 | |
| HSKMA3-T | 2026-08-31 00:21:53 | 52.02003 | 8.17503 | 16° | 16km/h | 25319m | 6m/s | -52.3°C | 0.5% | 25.5hPa | 2.5V | 18:12:15 | 02:04:01 | 00:00:00 | |
| DF8AY | 2026-08-31 00:21:52 | 52.01999 | 8.17502 | 9° | 16km/h | 25314m | 5.4m/s | -52.3°C | 0.6% | 25.5hPa | 2.6V | 18:12:15 | 02:04:00 | 00:00:00 | |
| DL1XH-west | 2026-08-31 00:21:46 | 52.01984 | 8.17497 | 16° | 9km/h | 25283m | 5.9m/s | -52.5°C | 0.5% | 25.7hPa | 2.6V | 18:12:15 | 02:03:54 | 00:00:00 | |
| AA1-15 | 2026-08-31 00:21:46 | 52.01981 | 8.17496 | 14° | 13km/h | 25278m | 4.9m/s | -52.5°C | 0.6% | 25.7hPa | 2.6V | 18:12:15 | 02:03:53 | 00:00:00 | |
| DL1XH-15 | 2026-08-31 00:21:46 | 52.01975 | 8.17493 | 18° | 11km/h | 25269m | 4.8m/s | -52.5°C | 4% | 25.7hPa | 2.5V | 08:30:00 | 02:03:51 | 00:00:00 | |
| DO2JMG | 2026-08-31 00:21:44 | 52.01978 | 8.17494 | 15° | 13km/h | 25273m | 4.3m/s | -52.5°C | 0.6% | 25.7hPa | 2.5V | 18:12:15 | 02:03:52 | 00:00:00 | |
| BIOWL1-15 | 2026-08-31 00:21:43 | 52.01975 | 8.17493 | 18° | 11km/h | 25269m | 4.8m/s | -52.5°C | 0.6% | 25.7hPa | 2.5V | 18:12:15 | 02:03:51 | 00:00:00 | |
| DF8AY | 2026-08-31 00:21:42 | 52.01973 | 8.17491 | 25° | 11km/h | 25263m | 6.1m/s | -52.5°C | 0.6% | 25.8hPa | 2.5V | 18:12:15 | 02:03:50 | 00:00:00 | |
| BIOWL1-15 | 2026-08-31 00:21:38 | 52.01952 | 8.17489 | 13° | 7km/h | 25212m | 5.7m/s | -52.6°C | 0.6% | 25.9hPa | 2.6V | 18:12:15 | 02:03:40 | 00:00:00 | |
| DD8BA-10 | 2026-08-31 00:21:38 | 52.01964 | 8.17487 | 356° | 9km/h | 25242m | 4.8m/s | -52.5°C | 4.1% | 25.8hPa | 2.6V | 00:00:00 | 00:00:00 | 00:00:00 | |
| DO3DL | 2026-08-31 00:21:37 | 52.01962 | 8.17487 | 350° | 11km/h | 25238m | 3.7m/s | -52.6°C | 1.0% | 25.8hPa | 2.6V | 00:00:00 | 00:00:00 | 00:00:00 | |
| DL1XH-15 | 2026-08-31 00:21:36 | 52.01954 | 8.17489 | 11° | 5km/h | 25217m | 4.9m/s | -52.6°C | 4.1% | 25.9hPa | 2.6V | 08:30:00 | 02:03:41 | 00:00:00 | |
| DL1XH-west | 2026-08-31 00:21:35 | 52.01957 | 8.17489 | 348° | 7km/h | 25228m | 5.7m/s | -52.6°C | 0.7% | 25.9hPa | 2.5V | 18:12:15 | 02:03:43 | 00:00:00 | |
| AA1-15 | 2026-08-31 00:21:34 | 52.01955 | 8.17489 | 357° | 5km/h | 25222m | 4.8m/s | -52.6°C | 0.6% | 25.9hPa | 2.5V | 18:12:15 | 02:03:42 | 00:00:00 | |
| HSKMA3-T | 2026-08-31 00:21:34 | 52.01954 | 8.17489 | 12° | 5km/h | 25218m | 4.9m/s | -52.6°C | 0.6% | 25.9hPa | 2.6V | 18:12:15 | 02:03:41 | 00:00:00 | |
| GOEST3-10 | 2026-08-31 00:21:33 | 52.01954 | 8.17489 | 12° | 9km/h | 25218m | 4.9m/s | -52.5°C | 4.1% | 25.9hPa | 2.5V | 00:00:00 | 00:00:00 | 00:00:00 | |
| DM0DOS-11 | 2026-08-31 00:21:32 | 52.01947 | 8.17488 | 1° | 13km/h | 25201m | 4.4m/s | -52.5°C | 4.1% | 26hPa | 2.5V | 08:30:00 | 02:03:38 | 00:00:00 | |
| DF8AY | 2026-08-31 00:21:31 | 52.01950 | 8.17488 | 6° | 11km/h | 25206m | 5.6m/s | -52.5°C | 0.6% | 26hPa | 2.5V | 18:12:15 | 02:03:39 | 00:00:00 | |
| DO2SHX-10 | 2026-08-31 00:21:29 | 52.01944 | 8.17488 | 360° | 7km/h | 25198m | 4.0m/s | -52.5°C | 4.1% | 25.9hPa | 2.5V | 00:00:00 | 02:03:37 | 00:00:00 | |
| GOEST3-10 | 2026-08-31 00:21:28 | 52.01941 | 8.17488 | 355° | 7km/h | 25192m | 5.7m/s | -52.4°C | 4.1% | 26.0hPa | 2.5V | 00:00:00 | 02:03:36 | 00:00:00 | |
| DL1XH-15 | 2026-08-31 00:21:26 | 52.01936 | 8.17499 | 303° | 11km/h | 25167m | 4.9m/s | -52.4°C | 4.1% | 26.1hPa | 2.5V | 08:30:00 | 02:03:31 | 00:00:00 | |
| DL1XH-west | 2026-08-31 00:21:25 | 52.01938 | 8.17492 | 288° | 7km/h | 25177m | 5.1m/s | -52.4°C | 0.6% | 26.1hPa | 2.6V | 18:12:15 | 02:03:33 | 00:00:00 | |
| HSKMA3-T | 2026-08-31 00:21:23 | 52.01936 | 8.17499 | 303° | 11km/h | 25167m | 4.9m/s | -52.4°C | 0.6% | 26.1hPa | 2.5V | 18:12:15 | 02:03:31 | 00:00:00 | |
| GOEST3-10 | 2026-08-31 00:21:23 | 52.01936 | 8.17499 | 304° | 7km/h | 25167m | 4.9m/s | -52.3°C | 4.1% | 26.1hPa | 2.5V | 00:00:00 | 00:00:00 | 08:30:00 | |
| DM0DOS-11 | 2026-08-31 00:21:22 | 52.01932 | 8.17507 | 328° | 5km/h | 25152m | 5.8m/s | -52.4°C | 4% | 26.2hPa | 2.6V | 08:30:00 | 02:03:28 | 00:00:00 | |
| BIOWL1-15 | 2026-08-31 00:21:22 | 52.01935 | 8.17502 | 311° | 11km/h | 25162m | 4.1m/s | -52.4°C | 0.6% | 26.2hPa | 2.5V | 18:12:15 | 02:03:30 | 00:00:00 | |
| DF8AY | 2026-08-31 00:21:20 | 52.01932 | 8.17507 | 329° | 5km/h | 25152m | 5.8m/s | -52.4°C | 0.5% | 26.2hPa | 2.6V | 18:12:15 | 02:03:28 | 00:00:00 | |
| SONDE2-11 | 2026-08-31 00:21:20 | 52.01931 | 8.17507 | 346° | 2km/h | 25147m | 4.6m/s | -52.4°C | 1.0% | 26.2hPa | 2.5V | 00:00:00 | 00:00:00 | 00:00:00 | |
| DF8AY-15 | 2026-08-31 00:21:19 | 52.01930 | 8.17508 | 349° | 7km/h | 25143m | 4.3m/s | -52.4°C | 4.1% | 26.2hPa | 2.5V | 00:00:00 | 02:03:26 | 08:30:00 | |
| DD8BA-10 | 2026-08-31 00:21:18 | 52.01930 | 8.17508 | 349° | 5km/h | 25143m | 4.3m/s | -52.4°C | 4.1% | 26.2hPa | 2.5V | 00:00:00 | 00:00:00 | 00:00:00 | |
| SONCRA | 2026-08-31 00:21:17 | 52.01929 | 8.17508 | 344° | 5km/h | 25138m | 5.8m/s | -52.4°C | 1.0% | 26.2hPa | 2.5V | 00:00:00 | 00:00:00 | 00:00:00 | |
| DO2SHX-10 | 2026-08-31 00:21:16 | 52.01927 | 8.17509 | 342° | 9km/h | 25133m | 4.7m/s | -52.4°C | 4.1% | 26.2hPa | 2.5V | 00:00:00 | 02:03:24 | 00:00:00 | |
| DL1XH1-15 | 2026-08-31 00:21:15 | 52.01919 | 8.17513 | 291° | 4km/h | 25103m | 5.7m/s | -52.5°C | 4.2% | 26.4hPa | 2.5V | 08:30:00 | 02:03:18 | 00:00:00 | |
| DL1XH-west | 2026-08-31 00:21:14 | 52.01922 | 8.17511 | 343° | 9km/h | 25123m | 4.6m/s | -52.5°C | 0.6% | 26.3hPa | 2.6V | 18:12:15 | 02:03:22 | 00:00:00 | |
| DO2JMG | 2026-08-31 00:21:13 | 52.01921 | 8.17512 | 352° | 5km/h | 25118m | 5.9m/s | -52.6°C | 0.7% | 26.3hPa | 2.6V | 18:12:15 | 02:03:21 | 00:00:00 | |
| HSKMA3-T | 2026-08-31 00:21:12 | 52.01920 | 8.17512 | 4° | 2km/h | 25112m | 5.1m/s | -52.6°C | 0.7% | 26.4hPa | 2.6V | 18:12:15 | 02:03:20 | 00:00:00 | |
| AA1-15 | 2026-08-31 00:21:11 | 52.01919 | 8.17512 | 316° | 2km/h | 25108m | 4.2m/s | -52.6°C | 0.7% | 26.4hPa | 2.5V | 18:12:15 | 02:03:19 | 00:00:00 | |
| DF8AY | 2026-08-31 00:21:09 | 52.01918 | 8.17516 | 283° | 7km/h | 25097m | 5.3m/s | -52.6°C | 0.7% | 26.4hPa | 2.5V | 18:12:15 | 02:03:17 | 00:00:00 | |
| DO3MHA-11 | 2026-08-31 00:21:08 | 52.01918 | 8.17519 | 281° | 7km/h | 25093m | 4.3m/s | -52.5°C | 4.1% | 26.4hPa | 2.5V | 00:00:00 | 02:03:16 | 00:00:00 | |
| DO2SHX-10 | 2026-08-31 00:21:07 | 52.01918 | 8.17521 | 279° | 5km/h | 25088m | 5.3m/s | -52.5°C | 4.2% | 26.4hPa | 2.5V | 00:00:00 | 02:03:15 | 00:00:00 | |
| DL1XH-15 | 2026-08-31 00:21:06 | 52.01916 | 8.17529 | 307° | 7km/h | 25067m | 5.9m/s | -52.4°C | 4.1% | 26.5hPa | 2.5V | 08:30:00 | 02:03:11 | 00:00:00 | |
| DL1XH-west | 2026-08-31 00:21:04 | 52.01916 | 8.17529 | 307° | 7km/h | 25067m | 5.9m/s | -52.4°C | 0.6% | 26.5hPa | 2.5V | 18:12:15 | 02:03:11 | 00:00:00 | |
| DO2JMG | 2026-08-31 00:21:03 | 52.01915 | 8.17532 | 313° | 9km/h | 25061m | 4.9m/s | -52.4°C | 0.5% | 26.6hPa | 2.5V | 18:12:15 | 02:03:10 | 00:00:00 | |
| DM0DOS-11 | 2026-08-31 00:21:03 | 52.01912 | 8.17537 | 327° | 7km/h | 25052m | 5.3m/s | -52.4°C | 4.1% | 26.6hPa | 2.6V | 08:30:00 | 02:03:08 | 00:00:00 | |
| HSKMA3-T | 2026-08-31 00:21:01 | 52.01913 | 8.17535 | 318° | 9km/h | 25057m | 4.3m/s | -52.4°C | 0.6% | 26.6hPa | 2.6V | 18:12:15 | 02:03:09 | 00:00:00 | |
| AA1-15 | 2026-08-31 00:21:00 | 52.01911 | 8.17537 | 328° | 7km/h | 25052m | 5.3m/s | -52.4°C | 0.6% | 26.6hPa | 2.6V | 18:12:15 | 02:03:08 | 00:00:00 | |
| DF8AY | 2026-08-31 00:20:58 | 52.01910 | 8.17537 | 97° | 2km/h | 25041m | 4.7m/s | -52.3°C | 0.6% | 26.6hPa | 2.5V | 18:12:15 | 02:03:06 | 00:00:00 | |
| DL1XH-west | 2026-08-31 00:20:54 | 52.01915 | 8.17544 | 218° | 7km/h | 25016m | 6m/s | -52.3°C | 0.6% | 26.7hPa | 2.6V | 18:12:15 | 02:03:01 | 00:00:00 | |
| DO3MHA-12 | 2026-08-31 00:20:53 | 52.01914 | 8.17544 | 219° | 7km/h | 25016m | 6.0m/s | -52.3°C | 4.1% | 26.7hPa | 2.6V | 00:00:00 | 02:03:01 | 00:00:00 | |
| DM0DOS-11 | 2026-08-31 00:20:52 | 52.01918 | 8.17550 | 250° | 7km/h | 25000m | 5.8m/s | -52.4°C | 4.1% | 26.8hPa | 2.5V | 08:30:00 | 02:02:58 | 00:00:00 | |
| DO2JMG | 2026-08-31 00:20:51 | 52.01918 | 8.17548 | 226° | 7km/h | 25005m | 4.3m/s | -52.4°C | 0.6% | 26.8hPa | 2.5V | 18:12:15 | 02:02:59 | 00:00:00 | |
| HSKMA3-T | 2026-08-31 00:20:50 | 52.01919 | 8.17550 | 250° | 7km/h | 25001m | 5.8m/s | -52.4°C | 0.6% | 26.8hPa | 2.5V | 18:12:15 | 02:02:58 | 00:00:00 | |
| AA1-15 | 2026-08-31 00:20:50 | 52.01919 | 8.17553 | 270° | 9km/h | 24995m | 4.6m/s | -52.4°C | 0.6% | 26.8hPa | 2.5V | 18:12:15 | 02:02:57 | 00:00:00 | |
| DF8AY | 2026-08-31 00:20:48 | 52.01918 | 8.17559 | 308° | 5km/h | 24987m | 5.4m/s | -52.3°C | 0.6% | 26.9hPa | 2.6V | 18:12:15 | 02:02:55 | 00:00:00 | |
| SONCRA | 2026-08-31 00:20:46 | 52.01917 | 8.17559 | 10° | 2km/h | 24981m | 5.7m/s | -52.3°C | 1.0% | 26.9hPa | 2.5V | 00:00:00 | 00:00:00 | 00:00:00 | |
| SMARD9-15 | 2026-08-31 00:20:45 | 52.01916 | 8.17558 | 48° | 4km/h | 24977m | 4.5m/s | -52.3°C | 1.0% | 26.9hPa | 2.5V | 00:00:00 | 00:00:00 | 00:00:00 | |
| DL1XH-west | 2026-08-31 00:20:42 | 52.01914 | 8.17554 | 17° | 4km/h | 24963m | 5.3m/s | -52.2°C | 0.5% | 27hPa | 2.5V | 18:12:15 | 02:02:50 | 00:00:00 | |
| DM0DOS-11 | 2026-08-31 00:20:41 | 52.01913 | 8.17556 | 261° | 5km/h | 24953m | 4.3m/s | -52.2°C | 4% | 27hPa | 2.6V | 08:30:00 | 02:02:48 | 00:00:00 | |
| DO2JMG | 2026-08-31 00:20:40 | 52.01913 | 8.17556 | 261° | 5km/h | 24953m | 4.3m/s | -52.2°C | 0.5% | 27hPa | 2.6V | 18:12:15 | 02:02:48 | 00:00:00 | |
| HSKMA3-T | 2026-08-31 00:20:40 | 52.01914 | 8.17559 | 231° | 7km/h | 24949m | 4.4m/s | -52.2°C | 0.6% | 27hPa | 2.5V | 18:12:15 | 02:02:47 | 00:00:00 | |
| AA1-15 | 2026-08-31 00:20:38 | 52.01916 | 8.17561 | 205° | 11km/h | 24944m | 5.8m/s | -52.2°C | 0.6% | 27.1hPa | 2.5V | 18:12:15 | 02:02:46 | 00:00:00 | |
| DF8AY | 2026-08-31 00:20:37 | 52.01918 | 8.17562 | 185° | 13km/h | 24938m | 5.5m/s | -52.3°C | 0.6% | 27.1hPa | 2.5V | 18:12:15 | 02:02:45 | 00:00:00 | |
| DL1XH-west | 2026-08-31 00:20:32 | 52.01933 | 8.17562 | 197° | 5km/h | 24914m | 4.6m/s | -52.2°C | 0.6% | 27.2hPa | 2.5V | 18:12:15 | 02:02:40 | 00:00:00 | |
| DL1XH1-15 | 2026-08-31 00:20:31 | 52.01934 | 8.17562 | 142° | 4km/h | 24904m | 5.6m/s | -52.2°C | 4% | 27.2hPa | 2.5V | 08:30:00 | 02:02:38 | 00:00:00 | |
| DO2JMG | 2026-08-31 00:20:31 | 52.01935 | 8.17562 | 143° | 4km/h | 24904m | 5.6m/s | -52.2°C | 0.6% | 27.2hPa | 2.5V | 18:12:15 | 02:02:38 | 00:00:00 | |
| HSKMA3-T | 2026-08-31 00:20:30 | 52.01935 | 8.17561 | 120° | 4km/h | 24899m | 4.7m/s | -52.2°C | 0.5% | 27.3hPa | 2.5V | 18:12:15 | 02:02:37 | 00:00:00 | |
| AA1-15 | 2026-08-31 00:20:28 | 52.01935 | 8.17560 | 106° | 2km/h | 24895m | 4.5m/s | -52.2°C | 0.6% | 27.3hPa | 2.6V | 18:12:15 | 02:02:36 | 00:00:00 | |
| DD8BA-10 | 2026-08-31 00:20:28 | 52.01935 | 8.17560 | 106° | 5km/h | 24895m | 4.5m/s | -52.2°C | 4.0% | 27.2hPa | 2.6V | 00:00:00 | 00:00:00 | 00:00:00 | |
| DD1CC8 | 2026-08-31 00:20:27 | 52.01935 | 8.17560 | 288° | 2km/h | 24884m | 5.0m/s | -52.2°C | 1.0% | 27.3hPa | 2.5V | 00:00:00 | 00:00:00 | 00:00:00 | |
| DL1XH-15 | 2026-08-31 00:20:26 | 52.01937 | 8.17561 | 171° | 7km/h | 24869m | 5.2m/s | -52.2°C | 4.1% | 27.4hPa | 2.5V | 08:30:00 | 02:02:31 | 00:00:00 | |
| DD1CC3-15 | 2026-08-31 00:20:25 | 52.01935 | 8.17560 | 290° | 2km/h | 24884m | 5.0m/s | -52.2°C | 1.1% | 27.3hPa | 2.6V | 00:00:00 | 00:00:00 | 00:00:00 | |
| DM0DOS-11 | 2026-08-31 00:20:23 | 52.01944 | 8.17561 | 193° | 9km/h | 24853m | 5.5m/s | -52.1°C | 4% | 27.5hPa | 2.6V | 08:30:00 | 02:02:28 | 00:00:00 | |
| DL1XH-west | 2026-08-31 00:20:21 | 52.01942 | 8.17561 | 182° | 11km/h | 24859m | 5.4m/s | -52.1°C | 0.6% | 27.4hPa | 2.6V | 18:12:15 | 02:02:29 | 00:00:00 | |
| DO2JMG | 2026-08-31 00:20:19 | 52.01947 | 8.17562 | 197° | 9km/h | 24849m | 4.7m/s | -52.1°C | 0.6% | 27.5hPa | 2.5V | 18:12:15 | 02:02:27 | 00:00:00 | |
| AA1-15 | 2026-08-31 00:20:18 | 52.01949 | 8.17563 | 187° | 9km/h | 24844m | 5.1m/s | -52.1°C | 0.5% | 27.5hPa | 2.5V | 18:12:15 | 02:02:26 | 00:00:00 | |
| BIOWL1-15 | 2026-08-31 00:20:15 | 52.01955 | 8.17560 | 181° | 4km/h | 24823m | 5.8m/s | -52°C | 0.5% | 27.6hPa | 2.6V | 18:12:15 | 02:02:22 | 00:00:00 | |
| DL1XH-15 | 2026-08-31 00:20:15 | 52.01957 | 8.17561 | 221° | 5km/h | 24817m | 5.3m/s | -52°C | 4% | 27.6hPa | 2.5V | 08:30:00 | 02:02:21 | 00:00:00 | |
| SONCRA | 2026-08-31 00:20:15 | 52.01954 | 8.17561 | 154° | 5km/h | 24828m | 4.1m/s | -52.0°C | 1.0% | 27.6hPa | 2.6V | 00:00:00 | 00:00:00 | 00:00:00 | |
| DO9LL-15 | 2026-08-31 00:20:14 | 52.01955 | 8.17560 | 181° | 9km/h | 24823m | 5.8m/s | -51.9°C | 4.0% | 27.5hPa | 2.6V | 00:00:00 | 02:02:22 | 00:00:00 | |
| GOEST3-10 | 2026-08-31 00:20:13 | 52.01956 | 8.17561 | 222° | 7km/h | 24818m | 5.3m/s | -51.9°C | 4.0% | 27.6hPa | 2.6V | 00:00:00 | 00:00:00 | 00:00:00 | |
| DL1XH1-15 | 2026-08-31 00:20:11 | 52.01961 | 8.17565 | 188° | 9km/h | 24802m | 5.4m/s | -52°C | 4% | 27.6hPa | 2.6V | 08:30:00 | 02:02:18 | 00:00:00 | |
| DL1XH-west | 2026-08-31 00:20:11 | 52.01959 | 8.17564 | 208° | 7km/h | 24808m | 5.6m/s | -52°C | 0.6% | 27.6hPa | 2.5V | 18:12:15 | 02:02:19 | 00:00:00 | |
| DF8AY | 2026-08-31 00:20:09 | 52.01963 | 8.17566 | 182° | 11km/h | 24797m | 4.5m/s | -52°C | 0.6% | 27.7hPa | 2.6V | 18:12:15 | 02:02:17 | 00:00:00 | |
| AA1-15 | 2026-08-31 00:20:08 | 52.01969 | 8.17567 | 194° | 13km/h | 24788m | 5.9m/s | -52°C | 0.5% | 27.7hPa | 2.5V | 18:12:15 | 02:02:15 | 00:00:00 | |
| DL8DAS-15 | 2026-08-31 00:20:07 | 52.01966 | 8.17566 | 185° | 13km/h | 24793m | 4.4m/s | -52.0°C | 1.0% | 27.7hPa | 2.5V | 00:00:00 | 00:00:00 | 00:00:00 | |
| DL4BBY-15 | 2026-08-31 00:20:06 | 52.01972 | 8.17568 | 205° | 9km/h | 24783m | 5.1m/s | -54.3°C | 0% | 0hPa | 2.5V | 00:00:00 | 00:00:00 | 00:00:00 | |
| DL1XH1-15 | 2026-08-31 00:20:05 | 52.01982 | 8.17572 | 215° | 5km/h | 24752m | 6m/s | -52°C | 4% | 27.9hPa | 2.5V | 08:30:00 | 02:02:08 | 00:00:00 | |
| BIOWL1-15 | 2026-08-31 00:20:03 | 52.01983 | 8.17572 | 215° | 5km/h | 24753m | 6m/s | -52.1°C | 0.6% | 27.9hPa | 2.5V | 18:12:15 | 02:02:08 | 00:00:00 | |
| DL1XH-west | 2026-08-31 00:20:01 | 52.01981 | 8.17571 | 179° | 5km/h | 24758m | 4.5m/s | -52°C | 0.5% | 27.9hPa | 2.5V | 18:12:15 | 02:02:09 | 00:00:00 | |
| DO2JMG | 2026-08-31 00:19:59 | 52.01984 | 8.17573 | 239° | 7km/h | 24747m | 5m/s | -52.1°C | 0.5% | 27.9hPa | 2.6V | 18:12:15 | 02:02:07 | 00:00:00 | |
| HSKMA3-T | 2026-08-31 00:19:57 | 52.01986 | 8.17580 | 233° | 9km/h | 24737m | 5.9m/s | -52.1°C | 0.6% | 27.9hPa | 2.5V | 18:12:15 | 02:02:05 | 00:00:00 | |
| AA1-15 | 2026-08-31 00:19:57 | 52.01988 | 8.17583 | 223° | 11km/h | 24731m | 4.9m/s | -52.1°C | 0.5% | 28hPa | 2.5V | 18:12:15 | 02:02:04 | 00:00:00 | |
| DL1XH-west | 2026-08-31 00:19:50 | 52.02002 | 8.17609 | 184° | 9km/h | 24692m | 3.8m/s | -52.2°C | 0.6% | 28.1hPa | 2.6V | 18:12:15 | 02:01:56 | 00:00:00 | |
| DO2JMG | 2026-08-31 00:19:49 | 52.01999 | 8.17608 | 197° | 7km/h | 24697m | 5m/s | -52.1°C | 0.5% | 28.1hPa | 2.6V | 18:12:15 | 02:01:57 | 00:00:00 | |
| DF8AY | 2026-08-31 00:19:47 | 52.02007 | 8.17610 | 206° | 11km/h | 24684m | 5.6m/s | -52.2°C | 0.5% | 28.2hPa | 2.5V | 18:12:15 | 02:01:54 | 00:00:00 | |
| SONDE2-11 | 2026-08-31 00:19:46 | 52.02007 | 8.17610 | 205° | 11km/h | 24684m | 5.6m/s | -52.2°C | 1.0% | 28.2hPa | 2.5V | 00:00:00 | 00:00:00 | 00:00:00 | |
| BIOWL1-15 | 2026-08-31 00:19:43 | 52.02014 | 8.17624 | 217° | 2km/h | 24659m | 4.9m/s | -52.4°C | 0.6% | 28.3hPa | 2.5V | 18:12:15 | 02:01:49 | 00:00:00 | |
| DO2JMG | 2026-08-31 00:19:38 | 52.02015 | 8.17624 | 212° | 2km/h | 24645m | 5.2m/s | -52.4°C | 0.6% | 28.4hPa | 2.6V | 18:12:15 | 02:01:46 | 00:00:00 | |
| AA1-15 | 2026-08-31 00:19:36 | 52.02017 | 8.17626 | 211° | 4km/h | 24635m | 4.4m/s | -52.4°C | 0.6% | 28.4hPa | 2.5V | 18:12:15 | 02:01:44 | 00:00:00 | |
| HSKMA3-T | 2026-08-31 00:19:35 | 52.02018 | 8.17626 | 190° | 4km/h | 24630m | 5.6m/s | -52.4°C | 0.6% | 28.4hPa | 2.5V | 18:12:15 | 02:01:43 | 00:00:00 | |
| DL1XH-15 | 2026-08-31 00:19:34 | 52.02021 | 8.17625 | 152° | 9km/h | 24619m | 5m/s | -52.4°C | 4% | 28.5hPa | 2.6V | 08:30:00 | 02:01:41 | 00:00:00 | |
| DO2SHX-10 | 2026-08-31 00:19:33 | 52.02021 | 8.17625 | 153° | 11km/h | 24619m | 5.0m/s | -52.3°C | 4.0% | 28.4hPa | 2.6V | 00:00:00 | 02:01:41 | 00:00:00 | |
| DM0DOS-11 | 2026-08-31 00:19:32 | 52.02029 | 8.17621 | 168° | 13km/h | 24603m | 4.2m/s | -52.4°C | 4% | 28.5hPa | 2.5V | 08:30:00 | 02:01:38 | 00:00:00 | |
| BIOWL1-15 | 2026-08-31 00:19:31 | 52.02026 | 8.17622 | 171° | 13km/h | 24608m | 5.5m/s | -52.4°C | 0.6% | 28.5hPa | 2.5V | 18:12:15 | 02:01:39 | 00:00:00 | |
| DO2JMG | 2026-08-31 00:19:28 | 52.02035 | 8.17617 | 143° | 13km/h | 24594m | 5.9m/s | -52.4°C | 0.6% | 28.6hPa | 2.5V | 18:12:15 | 02:01:36 | 00:00:00 | |
| DF8AY | 2026-08-31 00:19:25 | 52.02040 | 8.17605 | 121° | 13km/h | 24578m | 5.7m/s | -52.5°C | 0.6% | 28.7hPa | 2.6V | 18:12:15 | 02:01:33 | 00:00:00 | |
| DL1XH-15 | 2026-08-31 00:19:24 | 52.02043 | 8.17596 | 110° | 13km/h | 24568m | 4.3m/s | -52.5°C | 4% | 28.7hPa | 2.5V | 08:30:00 | 02:01:31 | 00:00:00 | |
| HSKMA3-T | 2026-08-31 00:19:24 | 52.02042 | 8.17600 | 119° | 13km/h | 24573m | 4.4m/s | -52.5°C | 0.6% | 28.7hPa | 2.5V | 18:12:15 | 02:01:32 | 00:00:00 | |
| BIOWL1-15 | 2026-08-31 00:19:20 | 52.02046 | 8.17577 | 102° | 16km/h | 24552m | 4.7m/s | -52.5°C | 0.5% | 28.8hPa | 2.6V | 18:12:15 | 02:01:28 | 00:00:00 | |
| DO2JMG | 2026-08-31 00:19:18 | 52.02052 | 8.17558 | 114° | 13km/h | 24532m | 4.8m/s | -52.6°C | 0.6% | 28.9hPa | 2.5V | 18:12:15 | 02:01:24 | 00:00:00 | |
| HSKMA3-T | 2026-08-31 00:19:14 | 52.02053 | 8.17547 | 96° | 16km/h | 24521m | 5.4m/s | -52.7°C | 0.6% | 28.9hPa | 2.6V | 18:12:15 | 02:01:22 | 00:00:00 | |
| BIOWL1-15 | 2026-08-31 00:19:09 | 52.02053 | 8.17514 | 80° | 16km/h | 24496m | 5.2m/s | -52.6°C | 0.6% | 29hPa | 2.6V | 18:12:15 | 02:01:17 | 00:00:00 | |
| DL1XH-west | 2026-08-31 00:19:05 | 52.02046 | 8.17481 | 58° | 13km/h | 24468m | 4.7m/s | -52.6°C | 0.6% | 29.1hPa | 2.6V | 18:12:15 | 02:01:12 | 00:00:00 | |
| DO2JMG | 2026-08-31 00:19:05 | 52.02047 | 8.17486 | 66° | 15km/h | 24473m | 6m/s | -52.5°C | 0.6% | 29.1hPa | 2.5V | 18:12:15 | 02:01:13 | 00:00:00 | |
| DB0NH | 2026-08-31 00:19:05 | 52.02047 | 8.17486 | 67° | 9km/h | 24474m | 5.9m/s | -52.5°C | 4.0% | 29.0hPa | 2.5V | 00:00:00 | 02:01:13 | 00:00:00 | |
| DM0DOS-11 | 2026-08-31 00:19:04 | 52.02037 | 8.17461 | 50° | 16km/h | 24447m | 5m/s | -52.6°C | 4.1% | 29.2hPa | 2.5V | 08:30:00 | 02:01:08 | 00:00:00 | |
| DL1XH-15 | 2026-08-31 00:19:04 | 52.02044 | 8.17476 | 53° | 13km/h | 24463m | 4.7m/s | -52.6°C | 4% | 29.1hPa | 2.6V | 08:30:00 | 02:01:11 | 00:00:00 | |
| DF8AY | 2026-08-31 00:19:03 | 52.02044 | 8.17476 | 53° | 13km/h | 24463m | 4.7m/s | -52.6°C | 0.5% | 29.1hPa | 2.6V | 18:12:15 | 02:01:11 | 00:00:00 | |
| BIOWL1-15 | 2026-08-31 00:18:58 | 52.02032 | 8.17453 | 41° | 13km/h | 24436m | 5.8m/s | -52.7°C | 0.6% | 29.3hPa | 2.6V | 18:12:15 | 02:01:06 | 00:00:00 | |
| DO2JMG | 2026-08-31 00:18:56 | 52.02025 | 8.17442 | 52° | 16km/h | 24420m | 6.1m/s | -52.8°C | 0.6% | 29.4hPa | 2.5V | 18:12:15 | 02:01:03 | 00:00:00 | |
| DL1XH-15 | 2026-08-31 00:18:54 | 52.02020 | 8.17430 | 56° | 18km/h | 24410m | 4.6m/s | -52.8°C | 4.1% | 29.4hPa | 2.6V | 08:30:00 | 02:01:01 | 00:00:00 | |
| AA1-15 | 2026-08-31 00:18:54 | 52.02022 | 8.17436 | 55° | 18km/h | 24415m | 4.6m/s | -52.8°C | 0.6% | 29.4hPa | 2.5V | 18:12:15 | 02:01:02 | 00:00:00 | |
| HSKMA3-T | 2026-08-31 00:18:53 | 52.02020 | 8.17430 | 56° | 18km/h | 24410m | 4.6m/s | -52.9°C | 0.6% | 29.4hPa | 2.6V | 18:12:15 | 02:01:01 | 00:00:00 | |
| DF8AY | 2026-08-31 00:18:53 | 52.02018 | 8.17425 | 55° | 15km/h | 24405m | 5.6m/s | -52.9°C | 0.6% | 29.4hPa | 2.6V | 18:12:15 | 02:01:00 | 00:00:00 | |
| BIOWL9-15 | 2026-08-31 00:18:53 | 52.02018 | 8.17425 | 54° | 15km/h | 24405m | 5.6m/s | -52.9°C | 1.0% | 29.4hPa | 2.5V | 00:00:00 | 00:00:00 | 00:00:00 | |
| DM0DOS-11 | 2026-08-31 00:18:52 | 52.02014 | 8.17418 | 38° | 7km/h | 24395m | 4.4m/s | -52.9°C | 4.2% | 29.5hPa | 2.5V | 08:30:00 | 02:00:58 | 00:00:00 | |
| BIOWL1-15 | 2026-08-31 00:18:47 | 52.02007 | 8.17411 | 30° | 15km/h | 24380m | 5.3m/s | -52.8°C | 0.7% | 29.6hPa | 2.5V | 18:12:15 | 02:00:55 | 00:00:00 | |
| DJ2KF-10 | 2026-08-31 00:18:46 | 52.02004 | 8.17408 | 28° | 20km/h | 24375m | 4.8m/s | -52.8°C | 4.2% | 29.5hPa | 2.6V | 00:00:00 | 02:00:54 | 08:30:00 | |
| DL1XH-15 | 2026-08-31 00:18:44 | 52.01985 | 8.17396 | 22° | 22km/h | 24354m | 4.6m/s | -52.8°C | 4.2% | 29.7hPa | 2.5V | 08:30:00 | 02:00:50 | 00:00:00 | |
| DO2JMG | 2026-08-31 00:18:44 | 52.01995 | 8.17402 | 18° | 20km/h | 24364m | 5.6m/s | -52.8°C | 0.6% | 29.6hPa | 2.5V | 18:12:15 | 02:00:52 | 00:00:00 | |
| DF8AY | 2026-08-31 00:18:44 | 52.01980 | 8.17392 | 30° | 24km/h | 24349m | 6m/s | -52.8°C | 0.6% | 29.7hPa | 2.5V | 18:12:15 | 02:00:49 | 00:00:00 | |
| DL1XH-west | 2026-08-31 00:18:43 | 52.01990 | 8.17399 | 19° | 22km/h | 24359m | 4.3m/s | -52.8°C | 0.6% | 29.6hPa | 2.5V | 18:12:15 | 02:00:51 | 00:00:00 | |
| GOEST3-10 | 2026-08-31 00:18:43 | 52.01990 | 8.17399 | 20° | 24km/h | 24359m | 4.2m/s | -52.7°C | 4.1% | 29.6hPa | 2.6V | 00:00:00 | 00:00:00 | 00:00:00 | |
| DM0DOS-11 | 2026-08-31 00:18:42 | 52.01974 | 8.17386 | 36° | 26km/h | 24343m | 4.9m/s | -52.8°C | 4.1% | 29.7hPa | 2.6V | 08:30:00 | 02:00:48 | 00:00:00 | |
| BIOWL1-15 | 2026-08-31 00:18:36 | 52.01954 | 8.17368 | 10° | 22km/h | 24323m | 4.7m/s | -52.7°C | 0.7% | 29.8hPa | 2.5V | 18:12:15 | 02:00:44 | 00:00:00 | |
| DL1XH-15 | 2026-08-31 00:18:34 | 52.01930 | 8.17362 | 15° | 27km/h | 24303m | 4.7m/s | -52.7°C | 4.1% | 29.9hPa | 2.6V | 08:30:00 | 02:00:40 | 00:00:00 | |
| DO2JMG | 2026-08-31 00:18:33 | 52.01936 | 8.17364 | 12° | 26km/h | 24307m | 5.2m/s | -52.7°C | 0.7% | 29.9hPa | 2.6V | 18:12:15 | 02:00:41 | 00:00:00 | |
| GOEST3-10 | 2026-08-31 00:18:33 | 52.01936 | 8.17364 | 12° | 26km/h | 24308m | 5.2m/s | -52.7°C | 4.2% | 29.8hPa | 2.5V | 00:00:00 | 00:00:00 | 00:00:00 | |
| DM0DOS-11 | 2026-08-31 00:18:32 | 52.01917 | 8.17356 | 13° | 26km/h | 24293m | 6m/s | -52.7°C | 4.1% | 29.9hPa | 2.5V | 08:30:00 | 02:00:38 | 00:00:00 | |
| DF8AY | 2026-08-31 00:18:32 | 52.01930 | 8.17362 | 16° | 27km/h | 24303m | 4.7m/s | -52.7°C | 0.6% | 29.9hPa | 2.6V | 18:12:15 | 02:00:40 | 00:00:00 | |
| DJ2DS-15 | 2026-08-31 00:18:32 | 52.01930 | 8.17362 | 16° | 20km/h | 24303m | 4.6m/s | -52.7°C | 4.1% | 29.8hPa | 2.6V | 00:00:00 | 02:00:40 | 00:00:00 | |
| DO2SHX-10 | 2026-08-31 00:18:31 | 52.01923 | 8.17358 | 16° | 26km/h | 24299m | 4.4m/s | -52.7°C | 4.1% | 29.9hPa | 2.5V | 00:00:00 | 02:00:39 | 00:00:00 | |
| DL3OBA | 2026-08-31 00:18:30 | 52.01923 | 8.17359 | 17° | 27km/h | 24299m | 4.4m/s | -52.7°C | 1.0% | 29.9hPa | 2.5V | 00:00:00 | 00:00:00 | 00:00:00 | |
| BUE01 | 2026-08-31 00:18:29 | 52.01905 | 8.17352 | 11° | 24km/h | 24283m | 4.5m/s | -52.7°C | 1.0% | 30.0hPa | 2.5V | 00:00:00 | 00:00:00 | 00:00:00 | |
| DO2SHX-10 | 2026-08-31 00:18:28 | 52.01905 | 8.17352 | 12° | 26km/h | 24283m | 4.4m/s | -52.6°C | 4.1% | 29.9hPa | 2.5V | 00:00:00 | 02:00:36 | 00:00:00 | |
| DD1CC2-15 | 2026-08-31 00:18:27 | 52.01905 | 8.17352 | 13° | 26km/h | 24283m | 4.5m/s | -52.7°C | 1.1% | 30.0hPa | 2.5V | 00:00:00 | 00:00:00 | 00:00:00 | |
| DL1XH-15 | 2026-08-31 00:18:26 | 52.01873 | 8.17336 | 4° | 13km/h | 24251m | 5.1m/s | -52.7°C | 4.1% | 30.2hPa | 2.5V | 08:30:00 | 02:00:30 | 00:00:00 | |
| DO2JMG | 2026-08-31 00:18:23 | 52.01876 | 8.17337 | 13° | 16km/h | 24257m | 6.1m/s | -52.7°C | 0.6% | 30.1hPa | 2.5V | 18:12:15 | 02:00:31 | 00:00:00 | |
| HSKMA3-T | 2026-08-31 00:18:22 | 52.01873 | 8.17336 | 4° | 13km/h | 24251m | 5.1m/s | -52.7°C | 0.6% | 30.2hPa | 2.5V | 18:12:15 | 02:00:30 | 00:00:00 | |
| DL1XH-west | 2026-08-31 00:18:22 | 52.01869 | 8.17336 | 4° | 13km/h | 24247m | 4.7m/s | -52.7°C | 0.6% | 30.2hPa | 2.5V | 18:12:15 | 02:00:29 | 00:00:00 | |
| DF8AY | 2026-08-31 00:18:22 | 52.01852 | 8.17327 | 15° | 15km/h | 24220m | 6.1m/s | -52.8°C | 0.6% | 30.3hPa | 2.5V | 18:12:15 | 02:00:24 | 00:00:00 | |
| DM0DOS-11 | 2026-08-31 00:18:21 | 52.01866 | 8.17335 | 10° | 13km/h | 24241m | 5.6m/s | -52.7°C | 4.1% | 30.2hPa | 2.6V | 08:30:00 | 02:00:28 | 00:00:00 | |
| DD1CC3-15 | 2026-08-31 00:18:21 | 52.01873 | 8.17336 | 5° | 13km/h | 24251m | 5.1m/s | -52.7°C | 1.1% | 30.2hPa | 2.6V | 00:00:00 | 00:00:00 | 00:00:00 | |
| DO2SHX-10 | 2026-08-31 00:18:19 | 52.01863 | 8.17334 | 20° | 16km/h | 24236m | 5.5m/s | -52.7°C | 4.2% | 30.2hPa | 2.6V | 00:00:00 | 02:00:27 | 08:30:00 | |
| DD8BA-10 | 2026-08-31 00:18:18 | 52.01859 | 8.17332 | 23° | 16km/h | 24231m | 4.8m/s | -52.7°C | 4.1% | 30.2hPa | 2.5V | 00:00:00 | 00:00:00 | 00:00:00 | |
| DO2LYB-13 | 2026-08-31 00:18:17 | 52.01859 | 8.17332 | 23° | 16km/h | 24231m | 4.8m/s | -52.8°C | 1.1% | 30.2hPa | 2.5V | 00:00:00 | 00:00:00 | 00:00:00 | |
| DO3MHA-12 | 2026-08-31 00:18:16 | 52.01852 | 8.17327 | 16° | 13km/h | 24220m | 6.1m/s | -52.8°C | 4.2% | 30.2hPa | 2.5V | 00:00:00 | 02:00:24 | 08:30:00 | |
| NBG1-10 | 2026-08-31 00:18:15 | 52.01848 | 8.17326 | 11° | 7km/h | 24215m | 5.0m/s | -52.7°C | 4.1% | 30.3hPa | 2.6V | 00:00:00 | 02:00:23 | 00:00:00 | |
| DL1XH-15 | 2026-08-31 00:18:14 | 52.01836 | 8.17320 | 26° | 18km/h | 24199m | 5.8m/s | -52.7°C | 4.1% | 30.4hPa | 2.6V | 08:30:00 | 02:00:20 | 00:00:00 | |
| DO9LL-15 | 2026-08-31 00:18:14 | 52.01844 | 8.17325 | 14° | 11km/h | 24210m | 4.6m/s | -52.7°C | 4.1% | 30.3hPa | 2.5V | 00:00:00 | 02:00:22 | 00:00:00 | |
| DL1XH1-15 | 2026-08-31 00:18:13 | 52.01828 | 8.17313 | 26° | 16km/h | 24189m | 5.1m/s | -52.8°C | 4.2% | 30.4hPa | 2.5V | 08:30:00 | 02:00:18 | 00:00:00 | |
| DO2JMG | 2026-08-31 00:18:12 | 52.01836 | 8.17320 | 27° | 18km/h | 24199m | 5.8m/s | -52.7°C | 0.6% | 30.4hPa | 2.6V | 18:12:15 | 02:00:20 | 00:00:00 | |
| AA1-15 | 2026-08-31 00:18:11 | 52.01832 | 8.17316 | 30° | 18km/h | 24194m | 4.7m/s | -52.7°C | 0.6% | 30.4hPa | 2.5V | 18:12:15 | 02:00:19 | 00:00:00 | |
| DL1XH-west | 2026-08-31 00:18:10 | 52.01828 | 8.17313 | 27° | 16km/h | 24189m | 5.1m/s | -52.8°C | 0.7% | 30.4hPa | 2.5V | 18:12:15 | 02:00:18 | 00:00:00 | |
| DF8AY | 2026-08-31 00:18:09 | 52.01824 | 8.17310 | 19° | 15km/h | 24183m | 6.1m/s | -52.8°C | 0.7% | 30.5hPa | 2.5V | 18:12:15 | 02:00:17 | 00:00:00 | |
| DD8BA-10 | 2026-08-31 00:18:08 | 52.01821 | 8.17309 | 5° | 11km/h | 24178m | 5.0m/s | -52.7°C | 4.1% | 30.4hPa | 2.5V | 00:00:00 | 00:00:00 | 00:00:00 | |
| DO2SHX-10 | 2026-08-31 00:18:07 | 52.01819 | 8.17309 | 1° | 9km/h | 24173m | 4.6m/s | -52.7°C | 4.1% | 30.4hPa | 2.5V | 00:00:00 | 02:00:15 | 00:00:00 | |
| DL4BBY-15 | 2026-08-31 00:18:06 | 52.01816 | 8.17308 | 6° | 9km/h | 24168m | 5.8m/s | -55.1°C | 0% | 0hPa | 2.5V | 00:00:00 | 00:00:00 | 00:00:00 | |
| DL1XH-15 | 2026-08-31 00:18:04 | 52.01806 | 8.17307 | 352° | 13km/h | 24146m | 5.5m/s | -52.7°C | 4.2% | 30.6hPa | 2.5V | 08:30:00 | 02:00:10 | 00:00:00 | |
| DO2JMG | 2026-08-31 00:18:02 | 52.01806 | 8.17307 | 353° | 13km/h | 24146m | 5.5m/s | -52.7°C | 0.7% | 30.7hPa | 2.5V | 18:12:15 | 02:00:10 | 00:00:00 | |
| AA1-15 | 2026-08-31 00:18:00 | 52.01799 | 8.17308 | 360° | 15km/h | 24136m | 5m/s | -52.7°C | 0.7% | 30.7hPa | 2.6V | 18:12:15 | 02:00:08 | 00:00:00 | |
| DL1XH-west | 2026-08-31 00:17:59 | 52.01795 | 8.17307 | 11° | 15km/h | 24131m | 5.9m/s | -52.6°C | 0.7% | 30.7hPa | 2.6V | 18:12:15 | 02:00:07 | 00:00:00 | |
| DF8AY | 2026-08-31 00:17:58 | 52.01791 | 8.17306 | 18° | 15km/h | 24125m | 4.9m/s | -52.6°C | 0.6% | 30.8hPa | 2.5V | 18:12:15 | 02:00:06 | 00:00:00 | |
| DO2JMG | 2026-08-31 00:17:52 | 52.01779 | 8.17305 | 11° | 5km/h | 24094m | 5.4m/s | -52.6°C | 0.6% | 30.9hPa | 2.5V | 18:12:15 | 02:00:00 | 00:00:00 | |
| DL1XH1-15 | 2026-08-31 00:17:51 | 52.01776 | 8.17304 | 0° | 7km/h | 24083m | 5.5m/s | -52.5°C | 4.1% | 30.9hPa | 2.5V | 08:30:00 | 01:59:58 | 00:00:00 | |
| HSKMA3-T | 2026-08-31 00:17:51 | 52.01778 | 8.17304 | 16° | 5km/h | 24089m | 4.6m/s | -52.6°C | 0.6% | 30.9hPa | 2.5V | 18:12:15 | 01:59:59 | 00:00:00 | |
| AA1-15 | 2026-08-31 00:17:50 | 52.01774 | 8.17304 | 348° | 9km/h | 24078m | 5.7m/s | -52.6°C | 0.6% | 31hPa | 2.5V | 18:12:15 | 01:59:57 | 00:00:00 | |
| BIOWL1-15 | 2026-08-31 00:17:49 | 52.01764 | 8.17304 | 21° | 11km/h | 24057m | 4.9m/s | -52.5°C | 0.6% | 31.1hPa | 2.5V | 18:12:15 | 01:59:53 | 00:00:00 | |
| DF8AY | 2026-08-31 00:17:48 | 52.01772 | 8.17305 | 346° | 11km/h | 24073m | 4.6m/s | -52.6°C | 0.6% | 31hPa | 2.6V | 18:12:15 | 01:59:56 | 00:00:00 | |
| DL3AQ-11 | 2026-08-31 00:17:48 | 52.01766 | 8.17305 | 10° | 11km/h | 24063m | 5.9m/s | -52.6°C | 1.1% | 31.0hPa | 2.5V | 00:00:00 | 00:00:00 | 00:00:00 | |
| DB0ND-19 | 2026-08-31 00:17:45 | 52.01764 | 8.17304 | 20° | 11km/h | 24057m | 4.9m/s | -52.5°C | 1.0% | 31.1hPa | 2.5V | 00:00:00 | 00:00:00 | 00:00:00 | |
| DL1XH-15 | 2026-08-31 00:17:44 | 52.01757 | 8.17301 | 359° | 5km/h | 24042m | 4.8m/s | -52.5°C | 4.1% | 31.1hPa | 2.5V | 08:30:00 | 01:59:50 | 00:00:00 | |
| DJ2KF-10 | 2026-08-31 00:17:44 | 52.01761 | 8.17302 | 21° | 4km/h | 24053m | 4.6m/s | -52.5°C | 4.1% | 31.0hPa | 2.6V | 00:00:00 | 01:59:52 | 00:00:00 | |
| DM0DOS-11 | 2026-08-31 00:17:43 | 52.01755 | 8.17301 | 88° | 2km/h | 24032m | 6.1m/s | -52.5°C | 4% | 31.2hPa | 2.6V | 08:30:00 | 01:59:48 | 00:00:00 | |
| DO2JMG | 2026-08-31 00:17:41 | 52.01755 | 8.17301 | 4° | 2km/h | 24037m | 4.7m/s | -52.5°C | 0.6% | 31.1hPa | 2.6V | 18:12:15 | 01:59:49 | 00:00:00 | |
| DF8AY | 2026-08-31 00:17:38 | 52.01761 | 8.17311 | 299° | 2km/h | 23994m | 5.3m/s | -52.6°C | 0.7% | 31.4hPa | 2.6V | 18:12:15 | 01:59:41 | 00:00:00 | |
| BIOWL1-15 | 2026-08-31 00:17:38 | 52.01756 | 8.17300 | 196° | 5km/h | 24021m | 4.7m/s | -52.5°C | 0.6% | 31.2hPa | 2.5V | 18:12:15 | 01:59:46 | 00:00:00 | |
| DL1XH-west | 2026-08-31 00:17:37 | 52.01758 | 8.17301 | 219° | 7km/h | 24016m | 6.1m/s | -52.5°C | 0.6% | 31.3hPa | 2.5V | 18:12:15 | 01:59:45 | 00:00:00 | |
| DO2JMG | 2026-08-31 00:17:30 | 52.01759 | 8.17309 | 9° | 4km/h | 23980m | 5.9m/s | -52.6°C | 0.6% | 31.4hPa | 2.5V | 18:12:15 | 01:59:38 | 00:00:00 | |
| DL1NUX | 2026-08-31 00:17:28 | 52.01758 | 8.17309 | 210° | 2km/h | 23944m | 5.9m/s | -52.6°C | 4.1% | 31.6hPa | 2.5V | 08:30:00 | 01:59:31 | 00:00:00 | |
| BIOWL1-15 | 2026-08-31 00:17:28 | 52.01757 | 8.17310 | 317° | 2km/h | 23970m | 4.4m/s | -52.6°C | 0.6% | 31.5hPa | 2.6V | 18:12:15 | 01:59:36 | 00:00:00 | |
| DL1XH-west | 2026-08-31 00:17:26 | 52.01757 | 8.17310 | 119° | 2km/h | 23959m | 5.9m/s | -52.6°C | 0.6% | 31.6hPa | 2.5V | 18:12:15 | 01:59:34 | 00:00:00 | |
| DF8AY | 2026-08-31 00:17:23 | 52.01758 | 8.17309 | 211° | 2km/h | 23944m | 5.9m/s | -52.6°C | 0.6% | 31.6hPa | 2.5V | 18:12:15 | 01:59:31 | 00:00:00 | |
| GOEST3-10 | 2026-08-31 00:17:23 | 52.01758 | 8.17308 | 211° | 4km/h | 23944m | 5.9m/s | -52.5°C | 4.1% | 31.6hPa | 2.5V | 00:00:00 | 00:00:00 | 00:00:00 | |
| DM0DOS-11 | 2026-08-31 00:17:22 | 52.01760 | 8.17312 | 206° | 4km/h | 23929m | 5.4m/s | -52.5°C | 4.1% | 31.7hPa | 2.6V | 08:30:00 | 01:59:28 | 00:00:00 | |
| DO2JMG | 2026-08-31 00:17:20 | 52.01760 | 8.17312 | 207° | 4km/h | 23929m | 5.4m/s | -52.5°C | 0.6% | 31.7hPa | 2.6V | 18:12:15 | 01:59:28 | 00:00:00 | |
| HSKMA3-T | 2026-08-31 00:17:19 | 52.01761 | 8.17312 | 143° | 4km/h | 23924m | 5.7m/s | -52.5°C | 0.6% | 31.7hPa | 2.5V | 18:12:15 | 01:59:27 | 00:00:00 | |
| BIOWL1-15 | 2026-08-31 00:17:19 | 52.01762 | 8.17308 | 122° | 5km/h | 23914m | 4.9m/s | -52.5°C | 0.6% | 31.7hPa | 2.5V | 18:12:15 | 01:59:25 | 00:00:00 | |
| AA1-15 | 2026-08-31 00:17:18 | 52.01762 | 8.17310 | 123° | 5km/h | 23919m | 4.7m/s | -52.5°C | 0.6% | 31.7hPa | 2.5V | 18:12:15 | 01:59:26 | 00:00:00 | |
| DL1XH-west | 2026-08-31 00:17:15 | 52.01763 | 8.17305 | 117° | 2km/h | 23903m | 4.9m/s | -52.5°C | 0.7% | 31.8hPa | 2.6V | 18:12:15 | 01:59:23 | 00:00:00 | |
| DL1XH-15 | 2026-08-31 00:17:14 | 52.01762 | 8.17303 | 42° | 5km/h | 23888m | 5.3m/s | -52.4°C | 4.1% | 31.9hPa | 2.5V | 08:30:00 | 01:59:20 | 00:00:00 | |
| DF8AY | 2026-08-31 00:17:13 | 52.01762 | 8.17303 | 43° | 5km/h | 23888m | 5.3m/s | -52.4°C | 0.6% | 31.9hPa | 2.5V | 18:12:15 | 01:59:20 | 00:00:00 | |
| DO2JMG | 2026-08-31 00:17:09 | 52.01758 | 8.17299 | 342° | 2km/h | 23873m | 5.7m/s | -52.4°C | 0.6% | 31.9hPa | 2.6V | 18:12:15 | 01:59:17 | 00:00:00 | |
| AA1-15 | 2026-08-31 00:17:08 | 52.01758 | 8.17301 | 255° | 2km/h | 23863m | 4m/s | -52.3°C | 0.6% | 32hPa | 2.6V | 18:12:15 | 01:59:15 | 00:00:00 | |
| BIOWL1-15 | 2026-08-31 00:17:07 | 52.01758 | 8.17301 | 121° | 2km/h | 23859m | 5.7m/s | -52.3°C | 0.6% | 32hPa | 2.5V | 18:12:15 | 01:59:14 | 00:00:00 | |
| DL1XH-west | 2026-08-31 00:17:04 | 52.01758 | 8.17298 | 83° | 5km/h | 23848m | 4.9m/s | -52.3°C | 0.6% | 32.1hPa | 2.5V | 18:12:15 | 01:59:12 | 00:00:00 | |
| DF8AY | 2026-08-31 00:17:02 | 52.01758 | 8.17294 | 66° | 4km/h | 23837m | 5.9m/s | -52.3°C | 0.6% | 32.1hPa | 2.6V | 18:12:15 | 01:59:10 | 00:00:00 | |
| DO2JMG | 2026-08-31 00:16:58 | 52.01755 | 8.17293 | 14° | 4km/h | 23817m | 4.7m/s | -52.2°C | 0.6% | 32.2hPa | 2.5V | 18:12:15 | 01:59:06 | 00:00:00 | |
| AA1-15 | 2026-08-31 00:16:57 | 52.01752 | 8.17294 | 322° | 5km/h | 23807m | 5.8m/s | -52.1°C | 0.6% | 32.3hPa | 2.6V | 18:12:15 | 01:59:04 | 00:00:00 | |
| BIOWL1-15 | 2026-08-31 00:16:55 | 52.01751 | 8.17296 | 298° | 7km/h | 23802m | 5.5m/s | -52.1°C | 0.6% | 32.3hPa | 2.6V | 18:12:15 | 01:59:03 | 00:00:00 | |
| DL1XH-west | 2026-08-31 00:16:54 | 52.01751 | 8.17298 | 293° | 7km/h | 23797m | 4.6m/s | -52.1°C | 0.6% | 32.4hPa | 2.6V | 18:12:15 | 01:59:02 | 00:00:00 | |
| DF8AY | 2026-08-31 00:16:53 | 52.01749 | 8.17301 | 353° | 4km/h | 23787m | 5.8m/s | -52.1°C | 0.5% | 32.4hPa | 2.5V | 18:12:15 | 01:59:00 | 00:00:00 | |
| EDDB2-12 | 2026-08-31 00:16:52 | 52.01749 | 8.17301 | 43° | 4km/h | 23782m | 4.7m/s | -52.1°C | 1.0% | 32.4hPa | 2.5V | 00:00:00 | 00:00:00 | 00:00:00 | |
| DM0DOS-11 | 2026-08-31 00:16:51 | 52.01748 | 8.17299 | 49° | 5km/h | 23777m | 4.2m/s | -52.1°C | 3.9% | 32.4hPa | 2.5V | 08:30:00 | 01:58:58 | 00:00:00 | |
| DO2JMG | 2026-08-31 00:16:48 | 52.01746 | 8.17297 | 26° | 4km/h | 23766m | 5.1m/s | -52.1°C | 0.5% | 32.5hPa | 2.6V | 18:12:15 | 01:58:56 | 00:00:00 | |
| HSKMA3-T | 2026-08-31 00:16:47 | 52.01746 | 8.17296 | 24° | 4km/h | 23761m | 4.5m/s | -52.1°C | 0.5% | 32.5hPa | 2.5V | 18:12:15 | 01:58:55 | 00:00:00 | |
| AA1-15 | 2026-08-31 00:16:46 | 52.01744 | 8.17294 | 49° | 5km/h | 23751m | 5m/s | -52.1°C | 0.5% | 32.6hPa | 2.5V | 18:12:15 | 01:58:53 | 00:00:00 | |
| DL1XH-west | 2026-08-31 00:16:44 | 52.01743 | 8.17293 | 50° | 2km/h | 23746m | 4.3m/s | -52.1°C | 0.5% | 32.6hPa | 2.6V | 18:12:15 | 01:58:52 | 00:00:00 | |
| DF8AY | 2026-08-31 00:16:42 | 52.01746 | 8.17298 | 216° | 7km/h | 23725m | 5.3m/s | -52.3°C | 0.5% | 32.7hPa | 2.5V | 18:12:15 | 01:58:48 | 00:00:00 | |
| DM0DOS-11 | 2026-08-31 00:16:41 | 52.01746 | 8.17298 | 215° | 7km/h | 23725m | 5.3m/s | -52.2°C | 3.9% | 32.7hPa | 2.5V | 08:30:00 | 01:58:48 | 00:00:00 | |
| DO2JMG | 2026-08-31 00:16:37 | 52.01750 | 8.17298 | 152° | 5km/h | 23710m | 4.9m/s | -52.4°C | 0.5% | 32.8hPa | 2.5V | 18:12:15 | 01:58:45 | 00:00:00 | |
| HSKMA3-T | 2026-08-31 00:16:36 | 52.01751 | 8.17297 | 150° | 4km/h | 23704m | 5.9m/s | -52.4°C | 0.6% | 32.8hPa | 2.5V | 18:12:15 | 01:58:44 | 00:00:00 | |
| AA1-15 | 2026-08-31 00:16:35 | 52.01752 | 8.17294 | 71° | 5km/h | 23694m | 4.9m/s | -52.5°C | 0.6% | 32.9hPa | 2.6V | 18:12:15 | 01:58:42 | 00:00:00 | |
| DL1XH-15 | 2026-08-31 00:16:34 | 52.01750 | 8.17289 | 57° | 9km/h | 23683m | 4.7m/s | -52.5°C | 4% | 32.9hPa | 2.5V | 08:30:00 | 01:58:40 | 00:00:00 | |
| BIOWL1-15 | 2026-08-31 00:16:34 | 52.01748 | 8.17285 | 47° | 2km/h | 23673m | 6m/s | -52.7°C | 0.7% | 33hPa | 2.5V | 18:12:15 | 01:58:38 | 00:00:00 | |
| DL1XH-west | 2026-08-31 00:16:33 | 52.01751 | 8.17292 | 64° | 7km/h | 23689m | 6.1m/s | -52.5°C | 0.6% | 32.9hPa | 2.6V | 18:12:15 | 01:58:41 | 00:00:00 | |
| DF8AY | 2026-08-31 00:16:31 | 52.01749 | 8.17286 | 56° | 7km/h | 23679m | 4.7m/s | -52.6°C | 0.6% | 32.9hPa | 2.5V | 18:12:15 | 01:58:39 | 00:00:00 | |
| DO2JMG | 2026-08-31 00:16:27 | 52.01751 | 8.17287 | 197° | 7km/h | 23659m | 5.1m/s | -52.9°C | 0.7% | 33hPa | 2.6V | 18:12:15 | 01:58:35 | 00:00:00 | |
| HSKMA3-T | 2026-08-31 00:16:26 | 52.01753 | 8.17287 | 176° | 9km/h | 23653m | 5.4m/s | -52.9°C | 0.7% | 33.1hPa | 2.5V | 18:12:15 | 01:58:34 | 00:00:00 | |
| AA1-15 | 2026-08-31 00:16:23 | 52.01758 | 8.17284 | 154° | 4km/h | 23639m | 4.9m/s | -52.9°C | 0.7% | 33.1hPa | 2.6V | 18:12:15 | 01:58:31 | 00:00:00 | |
| DL1XH-west | 2026-08-31 00:16:22 | 52.01758 | 8.17284 | 201° | 2km/h | 23634m | 5.8m/s | -52.9°C | 0.6% | 33.2hPa | 2.6V | 18:12:15 | 01:58:30 | 00:00:00 | |
| BIOWL1-15 | 2026-08-31 00:16:20 | 52.01757 | 8.17285 | 350° | 5km/h | 23624m | 5.1m/s | -52.9°C | 0.7% | 33.2hPa | 2.5V | 18:12:15 | 01:58:28 | 00:00:00 | |
| DO2JMG | 2026-08-31 00:16:16 | 52.01752 | 8.17281 | 23° | 4km/h | 23603m | 5.9m/s | -52.9°C | 0.6% | 33.3hPa | 2.5V | 18:12:15 | 01:58:24 | 00:00:00 | |
| HSKMA3-T | 2026-08-31 00:16:15 | 52.01751 | 8.17281 | 345° | 0km/h | 23598m | 5m/s | -52.9°C | 0.5% | 33.4hPa | 2.5V | 18:12:15 | 01:58:23 | 00:00:00 | |
| DL1XH-west | 2026-08-31 00:16:12 | 52.01752 | 8.17279 | 93° | 5km/h | 23583m | 5.1m/s | -52.9°C | 0.6% | 33.5hPa | 2.6V | 18:12:15 | 01:58:20 | 00:00:00 | |
| BIOWL1-15 | 2026-08-31 00:16:10 | 52.01751 | 8.17273 | 69° | 5km/h | 23573m | 5.1m/s | -52.9°C | 0.6% | 33.5hPa | 2.5V | 18:12:15 | 01:58:18 | 00:00:00 | |
| DF8AY | 2026-08-31 00:16:09 | 52.01748 | 8.17271 | 10° | 7km/h | 23558m | 4.8m/s | -52.9°C | 0.6% | 33.6hPa | 2.6V | 18:12:15 | 01:58:15 | 00:00:00 | |
| DL1NUX | 2026-08-31 00:16:09 | 52.01742 | 8.17267 | 11° | 9km/h | 23544m | 4m/s | -52.9°C | 4.2% | 33.6hPa | 2.5V | 08:30:00 | 01:58:12 | 00:00:00 | |
| DO2JMG | 2026-08-31 00:16:06 | 52.01747 | 8.17270 | 20° | 7km/h | 23553m | 5.7m/s | -52.9°C | 0.6% | 33.6hPa | 2.6V | 18:12:15 | 01:58:14 | 00:00:00 | |
| HSKMA3-T | 2026-08-31 00:16:05 | 52.01744 | 8.17268 | 20° | 9km/h | 23548m | 4.2m/s | -52.9°C | 0.7% | 33.6hPa | 2.5V | 18:12:15 | 01:58:13 | 00:00:00 | |
| DL1XH-15 | 2026-08-31 00:16:05 | 52.01738 | 8.17268 | 339° | 9km/h | 23533m | 5.4m/s | -52.9°C | 4.1% | 33.7hPa | 2.6V | 08:30:00 | 01:58:10 | 00:00:00 | |
| DL1XH-west | 2026-08-31 00:16:02 | 52.01738 | 8.17268 | 340° | 9km/h | 23533m | 5.4m/s | -52.9°C | 0.6% | 33.7hPa | 2.6V | 18:12:15 | 01:58:10 | 00:00:00 | |
| AA1-15 | 2026-08-31 00:16:02 | 52.01736 | 8.17269 | 337° | 7km/h | 23528m | 4.6m/s | -53°C | 0.6% | 33.7hPa | 2.6V | 18:12:15 | 01:58:09 | 00:00:00 | |
| BIOWL1-15 | 2026-08-31 00:16:00 | 52.01733 | 8.17270 | 25° | 7km/h | 23518m | 5.8m/s | -53.1°C | 0.7% | 33.8hPa | 2.5V | 18:12:15 | 01:58:07 | 00:00:00 | |
| DF8AY | 2026-08-31 00:15:57 | 52.01730 | 8.17265 | 48° | 9km/h | 23509m | 3.5m/s | -53.2°C | 0.6% | 33.8hPa | 2.5V | 18:12:15 | 01:58:05 | 00:00:00 | |
| DO2JMG | 2026-08-31 00:15:55 | 52.01726 | 8.17260 | 13° | 11km/h | 23500m | 5.5m/s | -53.3°C | 0.7% | 33.9hPa | 2.6V | 18:12:15 | 01:58:03 | 00:00:00 | |
| DL1XH-15 | 2026-08-31 00:15:54 | 52.01715 | 8.17262 | 351° | 16km/h | 23485m | 4.5m/s | -53.3°C | 4.2% | 33.9hPa | 2.5V | 08:30:00 | 01:58:00 | 00:00:00 | |
| DL1XH-west | 2026-08-31 00:15:51 | 52.01710 | 8.17263 | 358° | 16km/h | 23480m | 5.8m/s | -53.3°C | 0.7% | 34hPa | 2.5V | 18:12:15 | 01:57:59 | 00:00:00 | |
| AA1-15 | 2026-08-31 00:15:50 | 52.01706 | 8.17262 | 8° | 15km/h | 23475m | 4.9m/s | -53.3°C | 0.7% | 34hPa | 2.5V | 18:12:15 | 01:57:58 | 00:00:00 | |
| BIOWL1-15 | 2026-08-31 00:15:48 | 52.01700 | 8.17260 | 5° | 11km/h | 23466m | 4.7m/s | -53.3°C | 0.7% | 34hPa | 2.6V | 18:12:15 | 01:57:56 | 00:00:00 | |
| DF8AY | 2026-08-31 00:15:47 | 52.01695 | 8.17262 | 322° | 9km/h | 23455m | 5m/s | -53.3°C | 0.7% | 34.1hPa | 2.5V | 18:12:15 | 01:57:54 | 00:00:00 | |
| DO2JMG | 2026-08-31 00:15:45 | 52.01694 | 8.17265 | 309° | 9km/h | 23451m | 4.6m/s | -53.3°C | 0.7% | 34.2hPa | 2.5V | 18:12:15 | 01:57:53 | 00:00:00 | |
| HSKMA3-T | 2026-08-31 00:15:44 | 52.01692 | 8.17268 | 310° | 9km/h | 23445m | 5.8m/s | -53.3°C | 0.7% | 34.1hPa | 2.5V | 18:12:15 | 01:57:52 | 00:00:00 | |
| DL1XH-15 | 2026-08-31 00:15:44 | 52.01690 | 8.17273 | 300° | 7km/h | 23435m | 4.2m/s | -53.3°C | 4.3% | 34.2hPa | 2.6V | 08:30:00 | 01:57:50 | 00:00:00 | |
| DL1XH-west | 2026-08-31 00:15:41 | 52.01689 | 8.17275 | 294° | 7km/h | 23430m | 5.9m/s | -53.3°C | 0.7% | 34.2hPa | 2.6V | 18:12:15 | 01:57:49 | 00:00:00 | |
| AA1-15 | 2026-08-31 00:15:40 | 52.01687 | 8.17282 | 299° | 11km/h | 23420m | 4.5m/s | -53.3°C | 0.7% | 34.3hPa | 2.5V | 18:12:15 | 01:57:47 | 00:00:00 | |
| BIOWL1-15 | 2026-08-31 00:15:38 | 52.01685 | 8.17286 | 312° | 9km/h | 23415m | 5.8m/s | -53.3°C | 0.7% | 34.3hPa | 2.5V | 18:12:15 | 01:57:46 | 00:00:00 | |
| DF8AY | 2026-08-31 00:15:37 | 52.01681 | 8.17291 | 326° | 13km/h | 23405m | 4.3m/s | -53.3°C | 0.7% | 34.3hPa | 2.6V | 18:12:15 | 01:57:44 | 00:00:00 | |
| DO2JMG | 2026-08-31 00:15:35 | 52.01679 | 8.17294 | 319° | 15km/h | 23400m | 5.7m/s | -53.3°C | 0.7% | 34.4hPa | 2.6V | 18:12:15 | 01:57:43 | 00:00:00 | |
| DL1XH-15 | 2026-08-31 00:15:34 | 52.01671 | 8.17308 | 305° | 13km/h | 23385m | 5.6m/s | -53.3°C | 4.3% | 34.5hPa | 2.5V | 08:30:00 | 01:57:40 | 00:00:00 | |
| HSKMA3-T | 2026-08-31 00:15:33 | 52.01673 | 8.17304 | 307° | 15km/h | 23390m | 4.7m/s | -53.3°C | 0.7% | 34.5hPa | 2.5V | 18:12:15 | 01:57:41 | 00:00:00 | |
| DL1XH-west | 2026-08-31 00:15:31 | 52.01669 | 8.17314 | 289° | 5km/h | 23375m | 4.2m/s | -53.3°C | 0.7% | 34.5hPa | 2.6V | 18:12:15 | 01:57:38 | 00:00:00 | |
| AA1-15 | 2026-08-31 00:15:29 | 52.01669 | 8.17317 | 271° | 5km/h | 23370m | 4.8m/s | -53.3°C | 0.7% | 34.6hPa | 2.5V | 18:12:15 | 01:57:37 | 00:00:00 | |
| DL1NUX | 2026-08-31 00:15:29 | 52.01670 | 8.17331 | 284° | 5km/h | 23345m | 4.6m/s | -53.2°C | 4.2% | 34.7hPa | 2.6V | 08:30:00 | 01:57:32 | 00:00:00 | |
| BIOWL1-15 | 2026-08-31 00:15:28 | 52.01669 | 8.17319 | 259° | 7km/h | 23365m | 5.5m/s | -53.3°C | 0.7% | 34.6hPa | 2.5V | 18:12:15 | 01:57:36 | 00:00:00 | |
| DF8AY | 2026-08-31 00:15:25 | 52.01670 | 8.17329 | 267° | 5km/h | 23350m | 5.7m/s | -53.3°C | 0.7% | 34.6hPa | 2.6V | 18:12:15 | 01:57:33 | 00:00:00 | |
| DO2SHX-10 | 2026-08-31 00:15:25 | 52.01670 | 8.17329 | 268° | 7km/h | 23350m | 5.7m/s | -53.2°C | 4.2% | 34.6hPa | 2.5V | 00:00:00 | 01:57:33 | 00:00:00 | |
| DL1XH-15 | 2026-08-31 00:15:24 | 52.01669 | 8.17338 | 287° | 13km/h | 23335m | 5.8m/s | -53.2°C | 4.2% | 34.7hPa | 2.5V | 08:30:00 | 01:57:30 | 00:00:00 | |
| DO2JMG | 2026-08-31 00:15:24 | 52.01670 | 8.17331 | 285° | 5km/h | 23345m | 4.6m/s | -53.2°C | 0.7% | 34.7hPa | 2.6V | 18:12:15 | 01:57:32 | 00:00:00 | |
| HSKMA3-T | 2026-08-31 00:15:22 | 52.01669 | 8.17339 | 287° | 13km/h | 23335m | 5.8m/s | -53.2°C | 0.7% | 34.7hPa | 2.5V | 18:12:15 | 01:57:30 | 00:00:00 | |
| DM0DOS-11 | 2026-08-31 00:15:21 | 52.01667 | 8.17350 | 280° | 16km/h | 23326m | 4.3m/s | -53.3°C | 4.3% | 34.9hPa | 2.5V | 08:30:00 | 01:57:28 | 00:00:00 | |
| BIOWL1-15 | 2026-08-31 00:15:19 | 52.01679 | 8.17381 | 186° | 13km/h | 23286m | 5.8m/s | -53.1°C | 0.7% | 35hPa | 2.6V | 18:12:15 | 01:57:20 | 00:00:00 | |
| DL1NUX | 2026-08-31 00:15:19 | 52.01673 | 8.17377 | 211° | 15km/h | 23296m | 3.9m/s | -53.1°C | 4.3% | 35hPa | 2.5V | 08:30:00 | 01:57:22 | 00:00:00 | |
| AA1-15 | 2026-08-31 00:15:19 | 52.01666 | 8.17356 | 276° | 15km/h | 23321m | 5.4m/s | -53.3°C | 0.7% | 34.8hPa | 2.5V | 18:12:15 | 01:57:27 | 00:00:00 | |
| DF8AY | 2026-08-31 00:15:15 | 52.01670 | 8.17374 | 225° | 13km/h | 23300m | 5.3m/s | -53.2°C | 0.7% | 35hPa | 2.5V | 18:12:15 | 01:57:23 | 00:00:00 | |
| DO2JMG | 2026-08-31 00:15:13 | 52.01676 | 8.17380 | 200° | 15km/h | 23291m | 5.3m/s | -53.1°C | 0.7% | 35hPa | 2.5V | 18:12:15 | 01:57:21 | 00:00:00 | |
| HSKMA3-T | 2026-08-31 00:15:11 | 52.01683 | 8.17381 | 182° | 13km/h | 23280m | 4.9m/s | -53.1°C | 0.7% | 35hPa | 2.6V | 18:12:15 | 01:57:19 | 00:00:00 | |
| EDDB2-11 | 2026-08-31 00:15:10 | 52.01689 | 8.17383 | 202° | 11km/h | 23270m | 5.2m/s | -53.0°C | 1.1% | 35.1hPa | 2.6V | 00:00:00 | 00:00:00 | 00:00:00 | |
| DL1NUX | 2026-08-31 00:15:09 | 52.01699 | 8.17393 | 204° | 5km/h | 23246m | 4.7m/s | -52.9°C | 4.2% | 35.2hPa | 2.6V | 08:30:00 | 01:57:12 | 00:00:00 | |
| DL1XH-west | 2026-08-31 00:15:08 | 52.01692 | 8.17385 | 211° | 13km/h | 23265m | 3.8m/s | -53°C | 0.7% | 35.1hPa | 2.5V | 18:12:15 | 01:57:16 | 00:00:00 | |
| DF8AY | 2026-08-31 00:15:05 | 52.01701 | 8.17394 | 215° | 7km/h | 23241m | 5.6m/s | -52.9°C | 0.7% | 35.3hPa | 2.5V | 18:12:15 | 01:57:11 | 00:00:00 | |
| DL1XH1-15 | 2026-08-31 00:15:05 | 52.01706 | 8.17401 | 203° | 9km/h | 23227m | 4.7m/s | -52.8°C | 4.2% | 35.4hPa | 2.6V | 08:30:00 | 01:57:08 | 00:00:00 | |
| DO2JMG | 2026-08-31 00:15:02 | 52.01702 | 8.17396 | 221° | 9km/h | 23236m | 5m/s | -52.9°C | 0.7% | 35.3hPa | 2.5V | 18:12:15 | 01:57:10 | 00:00:00 | |
| HSKMA3-T | 2026-08-31 00:15:00 | 52.01706 | 8.17401 | 204° | 9km/h | 23227m | 4.7m/s | -52.8°C | 0.7% | 35.4hPa | 2.6V | 18:12:15 | 01:57:08 | 00:00:00 | |
| DL1XH-west | 2026-08-31 00:14:57 | 52.01714 | 8.17401 | 172° | 11km/h | 23212m | 4.7m/s | -52.8°C | 0.6% | 35.4hPa | 2.5V | 18:12:15 | 01:57:05 | 00:00:00 | |
| BIOWL1-15 | 2026-08-31 00:14:55 | 52.01719 | 8.17401 | 190° | 11km/h | 23201m | 4.4m/s | -52.8°C | 0.7% | 35.5hPa | 2.6V | 18:12:15 | 01:57:03 | 00:00:00 | |
| DF8AY | 2026-08-31 00:14:53 | 52.01726 | 8.17402 | 159° | 7km/h | 23187m | 4.9m/s | -52.8°C | 0.6% | 35.6hPa | 2.5V | 18:12:15 | 01:57:00 | 00:00:00 | |
| DO2JMG | 2026-08-31 00:14:51 | 52.01727 | 8.17400 | 152° | 7km/h | 23182m | 4.2m/s | -52.8°C | 0.7% | 35.6hPa | 2.5V | 18:12:15 | 01:56:59 | 00:00:00 | |
| HSKMA3-T | 2026-08-31 00:14:50 | 52.01729 | 8.17399 | 166° | 7km/h | 23178m | 4.9m/s | -52.8°C | 0.6% | 35.6hPa | 2.6V | 18:12:15 | 01:56:58 | 00:00:00 | |
| DO2SHX-10 | 2026-08-31 00:14:50 | 52.01729 | 8.17399 | 166° | 9km/h | 23178m | 4.8m/s | -52.7°C | 4.1% | 35.6hPa | 2.6V | 00:00:00 | 01:56:58 | 00:00:00 | |
| DL1NUX | 2026-08-31 00:14:49 | 52.01740 | 8.17401 | 164° | 4km/h | 23149m | 3.9m/s | -52.7°C | 4.2% | 35.7hPa | 2.6V | 08:30:00 | 01:56:52 | 00:00:00 | |
| DL1XH-west | 2026-08-31 00:14:47 | 52.01736 | 8.17401 | 193° | 9km/h | 23164m | 4.4m/s | -52.7°C | 0.6% | 35.7hPa | 2.5V | 18:12:15 | 01:56:55 | 00:00:00 | |
| AA1-15 | 2026-08-31 00:14:47 | 52.01738 | 8.17401 | 184° | 7km/h | 23158m | 5.6m/s | -52.7°C | 0.7% | 35.7hPa | 2.5V | 18:12:15 | 01:56:54 | 00:00:00 | |
| BIOWL1-15 | 2026-08-31 00:14:45 | 52.01740 | 8.17401 | 165° | 4km/h | 23149m | 3.9m/s | -52.7°C | 0.7% | 35.8hPa | 2.6V | 18:12:15 | 01:56:52 | 00:00:00 | |
| DL1XH-15 | 2026-08-31 00:14:44 | 52.01742 | 8.17401 | 208° | 4km/h | 23140m | 4.9m/s | -52.7°C | 4.2% | 35.9hPa | 2.5V | 08:30:00 | 01:56:50 | 00:00:00 | |
| DO2SHX-10 | 2026-08-31 00:14:44 | 52.01740 | 8.17401 | 165° | 4km/h | 23150m | 3.9m/s | -52.7°C | 4.2% | 35.7hPa | 2.5V | 00:00:00 | 01:56:52 | 00:00:00 | |
| GOEST3-10 | 2026-08-31 00:14:43 | 52.01741 | 8.17401 | 184° | 4km/h | 23145m | 5.2m/s | -52.6°C | 4.2% | 35.7hPa | 2.5V | 00:00:00 | 00:00:00 | 00:00:00 | |
| DL1XH1-15 | 2026-08-31 00:14:41 | 52.01743 | 8.17401 | 131° | 2km/h | 23131m | 4.9m/s | -52.6°C | 4.1% | 35.9hPa | 2.5V | 08:30:00 | 01:56:48 | 00:00:00 | |
| DO2JMG | 2026-08-31 00:14:41 | 52.01742 | 8.17402 | 197° | 2km/h | 23135m | 4m/s | -52.6°C | 0.6% | 35.9hPa | 2.5V | 18:12:15 | 01:56:49 | 00:00:00 | |
| HSKMA3-T | 2026-08-31 00:14:39 | 52.01743 | 8.17400 | 96° | 5km/h | 23125m | 5.4m/s | -52.6°C | 0.6% | 35.9hPa | 2.6V | 18:12:15 | 01:56:47 | 00:00:00 | |
| DL1NUX | 2026-08-31 00:14:39 | 52.01740 | 8.17392 | 24° | 4km/h | 23101m | 4.6m/s | -52.5°C | 4.1% | 36hPa | 2.5V | 08:30:00 | 01:56:42 | 00:00:00 | |
| DL1XH-west | 2026-08-31 00:14:37 | 52.01743 | 8.17395 | 66° | 5km/h | 23116m | 5.4m/s | -52.6°C | 0.6% | 36hPa | 2.5V | 18:12:15 | 01:56:45 | 00:00:00 | |
| AA1-15 | 2026-08-31 00:14:35 | 52.01741 | 8.17393 | 18° | 4km/h | 23106m | 4m/s | -52.5°C | 0.7% | 36hPa | 2.5V | 18:12:15 | 01:56:43 | 00:00:00 | |
| BIOWL1-15 | 2026-08-31 00:14:33 | 52.01739 | 8.17390 | 68° | 2km/h | 23091m | 4.5m/s | -52.5°C | 0.7% | 36.1hPa | 2.6V | 18:12:15 | 01:56:40 | 00:00:00 | |
| DO2JMG | 2026-08-31 00:14:31 | 52.01739 | 8.17390 | 128° | 2km/h | 23087m | 4.7m/s | -52.5°C | 0.7% | 36.1hPa | 2.6V | 18:12:15 | 01:56:39 | 00:00:00 | |
| HSKMA3-T | 2026-08-31 00:14:28 | 52.01739 | 8.17393 | 255° | 4km/h | 23072m | 3.9m/s | -52.5°C | 0.7% | 36.2hPa | 2.5V | 18:12:15 | 01:56:36 | 00:00:00 | |
| DL1XH-west | 2026-08-31 00:14:26 | 52.01739 | 8.17392 | 82° | 4km/h | 23062m | 4.8m/s | -52.5°C | 0.6% | 36.3hPa | 2.6V | 18:12:15 | 01:56:34 | 00:00:00 | |
| AA1-15 | 2026-08-31 00:14:25 | 52.01738 | 8.17389 | 50° | 5km/h | 23053m | 5.5m/s | -52.4°C | 0.6% | 36.3hPa | 2.5V | 18:12:15 | 01:56:32 | 00:00:00 | |
| DL1ZP-14 | 2026-08-31 00:14:25 | 52.01738 | 8.17389 | 49° | 5km/h | 23053m | 5.5m/s | -52.4°C | 1.0% | 36.3hPa | 2.5V | 00:00:00 | 00:00:00 | 00:00:00 | |
| DL1XH1-15 | 2026-08-31 00:14:24 | 52.01733 | 8.17377 | 66° | 11km/h | 23033m | 4.4m/s | -52.4°C | 4.1% | 36.4hPa | 2.6V | 08:30:00 | 01:56:28 | 00:00:00 | |
| SO1NDE-10 | 2026-08-31 00:14:24 | 52.01738 | 8.17389 | 50° | 7km/h | 23053m | 5.4m/s | -52.4°C | 4.1% | 36.3hPa | 2.6V | 00:00:00 | 01:56:32 | 00:00:00 | |
| DK9SH | 2026-08-31 00:14:23 | 52.01738 | 8.17389 | 51° | 5km/h | 23053m | 5.5m/s | -52.4°C | 1.0% | 36.3hPa | 2.6V | 00:00:00 | 00:00:00 | 00:00:00 | |
| DL1NUX | 2026-08-31 00:14:22 | 52.01734 | 8.17381 | 64° | 11km/h | 23038m | 5.4m/s | -52.4°C | 4.1% | 36.4hPa | 2.6V | 08:30:00 | 01:56:29 | 00:00:00 | |
| BIOWL1-15 | 2026-08-31 00:14:22 | 52.01729 | 8.17369 | 25° | 7km/h | 23019m | 4.4m/s | -52.5°C | 0.6% | 36.5hPa | 2.5V | 18:12:15 | 01:56:25 | 00:00:00 | |
| DF8AY | 2026-08-31 00:14:21 | 52.01734 | 8.17381 | 64° | 11km/h | 23038m | 5.4m/s | -52.4°C | 0.6% | 36.4hPa | 2.6V | 18:12:15 | 01:56:29 | 00:00:00 | |
| DO2JMG | 2026-08-31 00:14:20 | 52.01733 | 8.17377 | 67° | 11km/h | 23033m | 4.4m/s | -52.4°C | 0.6% | 36.4hPa | 2.6V | 18:12:15 | 01:56:28 | 00:00:00 | |
| HSKMA3-T | 2026-08-31 00:14:18 | 52.01728 | 8.17368 | 25° | 5km/h | 23015m | 3.9m/s | -52.5°C | 0.6% | 36.5hPa | 2.5V | 18:12:15 | 01:56:24 | 00:00:00 | |
| DL1XH-west | 2026-08-31 00:14:16 | 52.01727 | 8.17366 | 42° | 5km/h | 23010m | 5.6m/s | -52.5°C | 0.6% | 36.6hPa | 2.6V | 18:12:15 | 01:56:23 | 00:00:00 | |
| DO2KSM | 2026-08-31 00:14:15 | 52.01728 | 8.17368 | 25° | 5km/h | 23015m | 3.9m/s | -52.5°C | 1.1% | 36.5hPa | 2.5V | 00:00:00 | 00:00:00 | 00:00:00 | |
| DM0DOS-11 | 2026-08-31 00:14:14 | 52.01723 | 8.17355 | 50° | 5km/h | 22986m | 4.2m/s | -52.5°C | 4% | 36.7hPa | 2.5V | 08:30:00 | 01:56:18 | 00:00:00 | |
| AA1-15 | 2026-08-31 00:14:14 | 52.01725 | 8.17361 | 69° | 7km/h | 23001m | 4.4m/s | -52.5°C | 0.6% | 36.6hPa | 2.6V | 18:12:15 | 01:56:21 | 00:00:00 | |
| GOEST3-10 | 2026-08-31 00:14:13 | 52.01725 | 8.17361 | 70° | 7km/h | 23001m | 4.4m/s | -52.4°C | 4.0% | 36.6hPa | 2.5V | 00:00:00 | 00:00:00 | 00:00:00 | |
| DL1NUX | 2026-08-31 00:14:12 | 52.01722 | 8.17353 | 61° | 7km/h | 22981m | 4.8m/s | -52.6°C | 4% | 36.7hPa | 2.5V | 08:30:00 | 01:56:17 | 00:00:00 | |
| DF8AY | 2026-08-31 00:14:10 | 52.01723 | 8.17355 | 51° | 5km/h | 22986m | 4.2m/s | -52.5°C | 0.5% | 36.7hPa | 2.5V | 18:12:15 | 01:56:18 | 00:00:00 | |
| DO2JMG | 2026-08-31 00:14:09 | 52.01722 | 8.17353 | 61° | 7km/h | 22981m | 4.8m/s | -52.6°C | 0.6% | 36.7hPa | 2.5V | 18:12:15 | 01:56:17 | 00:00:00 | |
| HSKMA3-T | 2026-08-31 00:14:07 | 52.01720 | 8.17346 | 65° | 9km/h | 22972m | 4.3m/s | -52.6°C | 0.7% | 36.8hPa | 2.6V | 18:12:15 | 01:56:15 | 00:00:00 | |
| DL4XJ-10 | 2026-08-31 00:14:07 | 52.01720 | 8.17346 | 66° | 9km/h | 22972m | 4.2m/s | -54.9°C | 0% | 0hPa | 2.6V | 00:00:00 | 00:00:00 | 00:00:00 | |
| DL1XH-15 | 2026-08-31 00:14:06 | 52.01708 | 8.17333 | 33° | 15km/h | 22947m | 5.5m/s | -52.6°C | 4.1% | 36.9hPa | 2.6V | 08:30:00 | 01:56:10 | 00:00:00 | |
| DL4BBY-15 | 2026-08-31 00:14:06 | 52.01719 | 8.17343 | 54° | 11km/h | 22968m | 4.8m/s | -54.9°C | 0% | 0hPa | 2.5V | 00:00:00 | 00:00:00 | 00:00:00 | |
| DO2SHX-10 | 2026-08-31 00:14:05 | 52.01717 | 8.17340 | 35° | 13km/h | 22962m | 5.7m/s | -52.5°C | 4.1% | 36.8hPa | 2.5V | 00:00:00 | 01:56:13 | 00:00:00 | |
| DM0DOS-11 | 2026-08-31 00:14:04 | 52.01702 | 8.17325 | 37° | 15km/h | 22938m | 3.7m/s | -52.6°C | 4.1% | 37hPa | 2.5V | 08:30:00 | 01:56:08 | 00:00:00 | |
| DL1XH-west | 2026-08-31 00:14:04 | 52.01714 | 8.17338 | 24° | 13km/h | 22957m | 4.5m/s | -52.6°C | 0.6% | 36.9hPa | 2.5V | 18:12:15 | 01:56:12 | 00:00:00 | |
| AA1-15 | 2026-08-31 00:14:03 | 52.01708 | 8.17333 | 34° | 15km/h | 22947m | 5.5m/s | -52.7°C | 0.6% | 36.9hPa | 2.6V | 18:12:15 | 01:56:10 | 00:00:00 | |
| BIOWL1-15 | 2026-08-31 00:13:59 | 52.01699 | 8.17322 | 29° | 15km/h | 22934m | 5.3m/s | -52.7°C | 0.6% | 37hPa | 2.5V | 18:12:15 | 01:56:07 | 00:00:00 | |
| HSKMA3-T | 2026-08-31 00:13:57 | 52.01693 | 8.17318 | 11° | 13km/h | 22924m | 4.1m/s | -52.7°C | 0.6% | 37.1hPa | 2.6V | 18:12:15 | 01:56:05 | 00:00:00 | |
| DL1XH-west | 2026-08-31 00:13:54 | 52.01686 | 8.17313 | 45° | 5km/h | 22905m | 5m/s | -52.7°C | 0.6% | 37.2hPa | 2.5V | 18:12:15 | 01:56:01 | 00:00:00 | |
| AA1-15 | 2026-08-31 00:13:52 | 52.01683 | 8.17311 | 33° | 5km/h | 22895m | 3.9m/s | -52.8°C | 0.6% | 37.2hPa | 2.5V | 18:12:15 | 01:55:59 | 00:00:00 | |
| DJ2DS-15 | 2026-08-31 00:13:51 | 52.01683 | 8.17310 | 34° | 11km/h | 22896m | 3.8m/s | -52.7°C | 4.1% | 37.2hPa | 2.6V | 00:00:00 | 01:55:59 | 00:00:00 | |
| DL1NUX | 2026-08-31 00:13:50 | 52.01666 | 8.17293 | 10° | 18km/h | 22867m | 4.2m/s | -52.8°C | 4.1% | 37.4hPa | 2.6V | 08:30:00 | 01:55:53 | 00:00:00 | |
| DO2JMG | 2026-08-31 00:13:49 | 52.01680 | 8.17306 | 47° | 11km/h | 22886m | 5.3m/s | -52.8°C | 0.7% | 37.3hPa | 2.6V | 18:12:15 | 01:55:57 | 00:00:00 | |
| BIOWL1-15 | 2026-08-31 00:13:48 | 52.01678 | 8.17302 | 43° | 15km/h | 22881m | 4.4m/s | -52.8°C | 0.6% | 37.3hPa | 2.5V | 18:12:15 | 01:55:56 | 00:00:00 | |
| HSKMA3-T | 2026-08-31 00:13:46 | 52.01671 | 8.17295 | 21° | 18km/h | 22872m | 5.5m/s | -52.8°C | 0.6% | 37.4hPa | 2.5V | 18:12:15 | 01:55:54 | 00:00:00 | |
| EDDB2-12 | 2026-08-31 00:13:46 | 52.01666 | 8.17293 | 10° | 18km/h | 22867m | 4.2m/s | -52.8°C | 1.0% | 37.4hPa | 2.5V | 00:00:00 | 00:00:00 | 00:00:00 | |
| DL1XH-west | 2026-08-31 00:13:43 | 52.01657 | 8.17291 | 12° | 16km/h | 22858m | 5.4m/s | -52.9°C | 0.6% | 37.4hPa | 2.5V | 18:12:15 | 01:55:51 | 00:00:00 | |
| DO2SHX-10 | 2026-08-31 00:13:43 | 52.01657 | 8.17291 | 12° | 13km/h | 22859m | 5.3m/s | -52.8°C | 4.1% | 37.4hPa | 2.6V | 00:00:00 | 01:55:51 | 00:00:00 | |
| DM0DOS-11 | 2026-08-31 00:13:41 | 52.01650 | 8.17287 | 22° | 5km/h | 22844m | 4.9m/s | -53°C | 4.2% | 37.5hPa | 2.6V | 08:30:00 | 01:55:48 | 00:00:00 | |
| AA1-15 | 2026-08-31 00:13:40 | 52.01650 | 8.17287 | 23° | 5km/h | 22844m | 4.9m/s | -53°C | 0.7% | 37.5hPa | 2.6V | 18:12:15 | 01:55:48 | 00:00:00 | |
| DL1NUX | 2026-08-31 00:13:40 | 52.01645 | 8.17282 | 54° | 11km/h | 22820m | 4.6m/s | -53°C | 4.2% | 37.6hPa | 2.6V | 08:30:00 | 01:55:43 | 00:00:00 | |
| DO2JMG | 2026-08-31 00:13:39 | 52.01649 | 8.17286 | 359° | 4km/h | 22839m | 5.5m/s | -53°C | 0.7% | 37.5hPa | 2.6V | 18:12:15 | 01:55:47 | 00:00:00 | |
| BIOWL1-15 | 2026-08-31 00:13:38 | 52.01646 | 8.17285 | 50° | 5km/h | 22825m | 5.6m/s | -53°C | 0.7% | 37.6hPa | 2.5V | 18:12:15 | 01:55:44 | 00:00:00 | |
| DF8AY | 2026-08-31 00:13:37 | 52.01647 | 8.17286 | 22° | 4km/h | 22830m | 3.8m/s | -53°C | 0.7% | 37.6hPa | 2.5V | 18:12:15 | 01:55:45 | 00:00:00 | |
| HSKMA3-T | 2026-08-31 00:13:35 | 52.01645 | 8.17282 | 55° | 11km/h | 22820m | 4.6m/s | -53°C | 0.6% | 37.6hPa | 2.6V | 18:12:15 | 01:55:43 | 00:00:00 | |
| DM0DOS-11 | 2026-08-31 00:13:34 | 52.01628 | 8.17268 | 17° | 15km/h | 22797m | 5.4m/s | -53°C | 4.3% | 37.8hPa | 2.5V | 08:30:00 | 01:55:38 | 00:00:00 | |
| DL1XH-west | 2026-08-31 00:13:33 | 52.01640 | 8.17275 | 33° | 16km/h | 22811m | 5.6m/s | -53°C | 0.6% | 37.7hPa | 2.5V | 18:12:15 | 01:55:41 | 00:00:00 | |
| AA1-15 | 2026-08-31 00:13:30 | 52.01625 | 8.17266 | 18° | 11km/h | 22792m | 4.3m/s | -53°C | 0.7% | 37.8hPa | 2.6V | 18:12:15 | 01:55:37 | 00:00:00 | |
| DL1NUX | 2026-08-31 00:13:30 | 52.01620 | 8.17270 | 285° | 4km/h | 22774m | 3.9m/s | -52.9°C | 4.2% | 37.9hPa | 2.5V | 08:30:00 | 01:55:33 | 00:00:00 | |
| DO2JMG | 2026-08-31 00:13:28 | 52.01623 | 8.17266 | 3° | 5km/h | 22788m | 3.9m/s | -53°C | 0.7% | 37.8hPa | 2.6V | 18:12:15 | 01:55:36 | 00:00:00 | |
| BIOWL1-15 | 2026-08-31 00:13:28 | 52.01622 | 8.17266 | 328° | 5km/h | 22783m | 5.2m/s | -52.9°C | 0.7% | 37.9hPa | 2.5V | 18:12:15 | 01:55:35 | 00:00:00 | |
| DF8AY | 2026-08-31 00:13:27 | 52.01621 | 8.17269 | 64° | 4km/h | 22756m | 4.8m/s | -52.9°C | 0.6% | 38hPa | 2.5V | 18:12:15 | 01:55:29 | 00:00:00 | |
| HSKMA3-T | 2026-08-31 00:13:24 | 52.01620 | 8.17271 | 262° | 2km/h | 22769m | 5.4m/s | -52.9°C | 0.6% | 38hPa | 2.6V | 18:12:15 | 01:55:32 | 00:00:00 | |
| DM0DOS-11 | 2026-08-31 00:13:24 | 52.01620 | 8.17268 | 22° | 4km/h | 22751m | 5.4m/s | -52.9°C | 4.1% | 38.1hPa | 2.5V | 08:30:00 | 01:55:28 | 00:00:00 | |
| DL1XH-west | 2026-08-31 00:13:22 | 52.01621 | 8.17270 | 93° | 4km/h | 22760m | 3.8m/s | -52.9°C | 0.6% | 38hPa | 2.5V | 18:12:15 | 01:55:30 | 00:00:00 | |
| AA1-15 | 2026-08-31 00:13:20 | 52.01619 | 8.17267 | 12° | 5km/h | 22745m | 5.1m/s | -52.9°C | 0.6% | 38.1hPa | 2.5V | 18:12:15 | 01:55:27 | 00:00:00 | |
| DO2JMG | 2026-08-31 00:13:17 | 52.01615 | 8.17265 | 19° | 11km/h | 22735m | 5.2m/s | -52.9°C | 0.7% | 38.2hPa | 2.6V | 18:12:15 | 01:55:25 | 00:00:00 | |
| DD8BA-10 | 2026-08-31 00:13:17 | 52.01615 | 8.17265 | 20° | 9km/h | 22735m | 5.1m/s | -52.9°C | 4.2% | 38.1hPa | 2.6V | 00:00:00 | 00:00:00 | 00:00:00 | |
| HTAHTA | 2026-08-31 00:13:15 | 52.01609 | 8.17264 | 2° | 11km/h | 22727m | 4.7m/s | -53.0°C | 1.1% | 38.2hPa | 2.6V | 00:00:00 | 00:00:00 | 00:00:00 | |
| DM0DOS-11 | 2026-08-31 00:13:14 | 52.01598 | 8.17269 | 332° | 4km/h | 22703m | 4m/s | -52.9°C | 4.2% | 38.4hPa | 2.6V | 08:30:00 | 01:55:18 | 00:00:00 | |
| HSKMA3-T | 2026-08-31 00:13:14 | 52.01606 | 8.17264 | 348° | 11km/h | 22722m | 5.3m/s | -53°C | 0.6% | 38.2hPa | 2.5V | 18:12:15 | 01:55:22 | 00:00:00 | |
| DL1XH-west | 2026-08-31 00:13:12 | 52.01601 | 8.17267 | 338° | 9km/h | 22712m | 5.3m/s | -52.9°C | 0.6% | 38.3hPa | 2.5V | 18:12:15 | 01:55:20 | 00:00:00 | |
| DF8AY | 2026-08-31 00:13:11 | 52.01599 | 8.17268 | 343° | 7km/h | 22707m | 4.9m/s | -52.9°C | 0.6% | 38.3hPa | 2.6V | 18:12:15 | 01:55:19 | 00:00:00 | |
| AA1-15 | 2026-08-31 00:13:09 | 52.01597 | 8.17270 | 308° | 4km/h | 22698m | 5.6m/s | -52.9°C | 0.6% | 38.4hPa | 2.5V | 18:12:15 | 01:55:17 | 00:00:00 | |
| DO2JMG | 2026-08-31 00:13:06 | 52.01597 | 8.17274 | 210° | 2km/h | 22683m | 5.3m/s | -52.9°C | 0.6% | 38.5hPa | 2.6V | 18:12:15 | 01:55:14 | 00:00:00 | |
| DB0ND-19 | 2026-08-31 00:13:06 | 52.01598 | 8.17274 | 136° | 2km/h | 22678m | 4.8m/s | -52.9°C | 1.1% | 38.5hPa | 2.6V | 00:00:00 | 00:00:00 | 00:00:00 | |
| DO2SHX-10 | 2026-08-31 00:13:05 | 52.01598 | 8.17274 | 137° | 2km/h | 22678m | 4.8m/s | -52.8°C | 4.2% | 38.5hPa | 2.6V | 00:00:00 | 01:55:13 | 00:00:00 | |
| DM0DOS-11 | 2026-08-31 00:13:04 | 52.01593 | 8.17277 | 326° | 13km/h | 22655m | 4.5m/s | -52.9°C | 4.1% | 38.6hPa | 2.6V | 08:30:00 | 01:55:08 | 00:00:00 | |
| HSKMA3-T | 2026-08-31 00:13:04 | 52.01598 | 8.17273 | 91° | 2km/h | 22674m | 3.5m/s | -52.9°C | 0.7% | 38.5hPa | 2.5V | 18:12:15 | 01:55:12 | 00:00:00 | |
| BIOWL1-15 | 2026-08-31 00:13:03 | 52.01595 | 8.17274 | 326° | 9km/h | 22660m | 5.2m/s | -52.9°C | 0.7% | 38.6hPa | 2.5V | 18:12:15 | 01:55:09 | 00:00:00 | |
| DL1XH-west | 2026-08-31 00:13:02 | 52.01597 | 8.17273 | 335° | 5km/h | 22665m | 5.3m/s | -52.9°C | 0.7% | 38.6hPa | 2.5V | 18:12:15 | 01:55:10 | 00:00:00 | |
| DF8AY | 2026-08-31 00:13:00 | 52.01593 | 8.17277 | 327° | 13km/h | 22655m | 4.5m/s | -52.9°C | 0.6% | 38.6hPa | 2.6V | 18:12:15 | 01:55:08 | 00:00:00 | |
| AA1-15 | 2026-08-31 00:12:58 | 52.01585 | 8.17283 | 338° | 11km/h | 22640m | 4m/s | -52.8°C | 0.6% | 38.7hPa | 2.5V | 18:12:15 | 01:55:05 | 00:00:00 | |
| DO2JMG | 2026-08-31 00:12:57 | 52.01582 | 8.17285 | 328° | 11km/h | 22635m | 5.2m/s | -52.8°C | 0.6% | 38.8hPa | 2.5V | 18:12:15 | 01:55:04 | 00:00:00 | |
| DO2SHX-10 | 2026-08-31 00:12:56 | 52.01582 | 8.17285 | 329° | 9km/h | 22636m | 5.2m/s | -52.8°C | 4.1% | 38.7hPa | 2.5V | 00:00:00 | 01:55:04 | 00:00:00 | |
| DM0DOS-11 | 2026-08-31 00:12:55 | 52.01580 | 8.17292 | 198° | 4km/h | 22600m | 5.3m/s | -52.9°C | 4.1% | 39hPa | 2.5V | 08:30:00 | 01:54:57 | 00:00:00 | |
| HSKMA3-T | 2026-08-31 00:12:54 | 52.01579 | 8.17290 | 304° | 7km/h | 22626m | 4.3m/s | -52.9°C | 0.6% | 38.8hPa | 2.5V | 18:12:15 | 01:55:02 | 00:00:00 | |
| DL1XH-west | 2026-08-31 00:12:52 | 52.01578 | 8.17293 | 148° | 4km/h | 22610m | 4.6m/s | -52.9°C | 0.7% | 38.9hPa | 2.5V | 18:12:15 | 01:54:59 | 00:00:00 | |
| DF8AY | 2026-08-31 00:12:50 | 52.01579 | 8.17292 | 166° | 4km/h | 22605m | 5.1m/s | -52.9°C | 0.7% | 39hPa | 2.5V | 18:12:15 | 01:54:58 | 00:00:00 | |
| DL1NUX | 2026-08-31 00:12:50 | 52.01579 | 8.17295 | 352° | 9km/h | 22580m | 4.7m/s | -52.9°C | 4.1% | 39.1hPa | 2.5V | 08:30:00 | 01:54:53 | 00:00:00 | |
| DO2JMG | 2026-08-31 00:12:46 | 52.01581 | 8.17295 | 347° | 5km/h | 22586m | 5.6m/s | -52.9°C | 0.6% | 39hPa | 2.5V | 18:12:15 | 01:54:54 | 00:00:00 | |
| HSKMA3-T | 2026-08-31 00:12:44 | 52.01573 | 8.17298 | 335° | 15km/h | 22571m | 5.4m/s | -52.9°C | 0.6% | 39.1hPa | 2.5V | 18:12:15 | 01:54:51 | 00:00:00 | |
| DM0DOS-11 | 2026-08-31 00:12:43 | 52.01558 | 8.17306 | 351° | 7km/h | 22547m | 4.8m/s | -52.9°C | 4.2% | 39.3hPa | 2.5V | 08:30:00 | 01:54:46 | 00:00:00 | |
| DO3DL | 2026-08-31 00:12:43 | 52.01576 | 8.17296 | 345° | 13km/h | 22576m | 4.9m/s | -52.9°C | 1.1% | 39.1hPa | 2.6V | 00:00:00 | 00:00:00 | 00:00:00 | |
| DL1XH-15 | 2026-08-31 00:12:42 | 52.01566 | 8.17303 | 337° | 15km/h | 22562m | 4.7m/s | -52.9°C | 4.2% | 39.2hPa | 2.6V | 08:30:00 | 01:54:49 | 00:00:00 | |
| BIOWL1-15 | 2026-08-31 00:12:40 | 52.01563 | 8.17305 | 347° | 15km/h | 22557m | 5.3m/s | -53°C | 0.7% | 39.2hPa | 2.6V | 18:12:15 | 01:54:48 | 00:00:00 | |
| DF8AY | 2026-08-31 00:12:39 | 52.01560 | 8.17306 | 354° | 11km/h | 22552m | 4.6m/s | -53°C | 0.7% | 39.3hPa | 2.5V | 18:12:15 | 01:54:47 | 00:00:00 | |
| DL1NUX | 2026-08-31 00:12:38 | 52.01556 | 8.17309 | 219° | 2km/h | 22532m | 4.7m/s | -53°C | 4.2% | 39.4hPa | 2.6V | 08:30:00 | 01:54:43 | 00:00:00 | |
| AA1-15 | 2026-08-31 00:12:36 | 52.01556 | 8.17309 | 219° | 2km/h | 22532m | 4.7m/s | -53°C | 0.7% | 39.4hPa | 2.6V | 18:12:15 | 01:54:43 | 00:00:00 | |
| DO2JMG | 2026-08-31 00:12:36 | 52.01556 | 8.17308 | 269° | 2km/h | 22537m | 4.3m/s | -53°C | 0.7% | 39.4hPa | 2.5V | 18:12:15 | 01:54:44 | 00:00:00 | |
| DB0UT-7 | 2026-08-31 00:12:36 | 52.01556 | 8.17308 | 269° | 5km/h | 22537m | 4.3m/s | -52.9°C | 4.2% | 39.3hPa | 2.5V | 00:00:00 | 01:54:44 | 00:00:00 | |
| DL1XH-15 | 2026-08-31 00:12:35 | 52.01554 | 8.17309 | 338° | 7km/h | 22513m | 6.1m/s | -53°C | 4.2% | 39.5hPa | 2.5V | 08:30:00 | 01:54:39 | 00:00:00 | |
| DL1XH1-15 | 2026-08-31 00:12:35 | 52.01551 | 8.17310 | 327° | 11km/h | 22507m | 5.2m/s | -53°C | 4.2% | 39.5hPa | 2.6V | 08:30:00 | 01:54:38 | 00:00:00 | |
| HSKMA3-T | 2026-08-31 00:12:32 | 52.01555 | 8.17308 | 1° | 4km/h | 22518m | 4.7m/s | -53°C | 0.7% | 39.5hPa | 2.5V | 18:12:15 | 01:54:40 | 00:00:00 | |
| SONDE2-11 | 2026-08-31 00:12:32 | 52.01554 | 8.17309 | 338° | 7km/h | 22513m | 6.1m/s | -53.0°C | 1.1% | 39.5hPa | 2.5V | 00:00:00 | 00:00:00 | 00:00:00 | |
| DO2SHX-10 | 2026-08-31 00:12:31 | 52.01554 | 8.17308 | 339° | 11km/h | 22513m | 6.0m/s | -53.0°C | 4.2% | 39.5hPa | 2.5V | 00:00:00 | 01:54:39 | 00:00:00 | |
| DL1NUX | 2026-08-31 00:12:30 | 52.01537 | 8.17319 | 338° | 11km/h | 22482m | 5.8m/s | -52.9°C | 4.2% | 39.7hPa | 2.5V | 08:30:00 | 01:54:33 | 00:00:00 | |
| DL1XH-west | 2026-08-31 00:12:29 | 52.01549 | 8.17313 | 331° | 13km/h | 22502m | 4.5m/s | -53°C | 0.6% | 39.6hPa | 2.6V | 18:12:15 | 01:54:37 | 00:00:00 | |
| SONCRA | 2026-08-31 00:12:29 | 52.01549 | 8.17313 | 331° | 13km/h | 22502m | 4.5m/s | -53.0°C | 1.1% | 39.6hPa | 2.5V | 00:00:00 | 00:00:00 | 00:00:00 | |
| DO2SHX-10 | 2026-08-31 00:12:28 | 52.01546 | 8.17315 | 340° | 13km/h | 22497m | 5.8m/s | -52.9°C | 4.2% | 39.5hPa | 2.5V | 00:00:00 | 01:54:36 | 00:00:00 | |
| DB0NH | 2026-08-31 00:12:27 | 52.01542 | 8.17317 | 348° | 5km/h | 22492m | 4.5m/s | -52.9°C | 4.1% | 39.6hPa | 2.5V | 00:00:00 | 01:54:35 | 00:00:00 | |
| DO3MHA-11 | 2026-08-31 00:12:26 | 52.01539 | 8.17318 | 348° | 7km/h | 22487m | 4.5m/s | -52.9°C | 4.2% | 39.6hPa | 2.5V | 00:00:00 | 01:54:34 | 08:30:00 | |
| DL1XH-15 | 2026-08-31 00:12:25 | 52.01534 | 8.17324 | 163° | 2km/h | 22462m | 5.2m/s | -53°C | 4.2% | 39.8hPa | 2.5V | 08:30:00 | 01:54:29 | 00:00:00 | |
| DO2JMG | 2026-08-31 00:12:25 | 52.01537 | 8.17319 | 338° | 11km/h | 22482m | 5.8m/s | -52.9°C | 0.7% | 39.7hPa | 2.5V | 18:12:15 | 01:54:33 | 00:00:00 | |
| AA1-15 | 2026-08-31 00:12:24 | 52.01535 | 8.17321 | 319° | 7km/h | 22477m | 4.6m/s | -53°C | 0.6% | 39.7hPa | 2.6V | 18:12:15 | 01:54:32 | 00:00:00 | |
| DM0DOS-11 | 2026-08-31 00:12:24 | 52.01534 | 8.17324 | 143° | 2km/h | 22457m | 4.2m/s | -53°C | 4.2% | 39.9hPa | 2.5V | 08:30:00 | 01:54:28 | 00:00:00 | |
| HSKMA3-T | 2026-08-31 00:12:21 | 52.01534 | 8.17324 | 163° | 2km/h | 22462m | 5.2m/s | -53°C | 0.7% | 39.8hPa | 2.5V | 18:12:15 | 01:54:29 | 00:00:00 | |
| DL1XH-west | 2026-08-31 00:12:19 | 52.01535 | 8.17323 | 195° | 2km/h | 22452m | 4.6m/s | -53°C | 0.7% | 39.9hPa | 2.5V | 18:12:15 | 01:54:27 | 00:00:00 | |
| BIOWL1-15 | 2026-08-31 00:12:18 | 52.01535 | 8.17324 | 271° | 4km/h | 22448m | 5.4m/s | -53°C | 0.6% | 39.9hPa | 2.5V | 18:12:15 | 01:54:26 | 00:00:00 | |
| DL1NUX | 2026-08-31 00:12:18 | 52.01533 | 8.17330 | 325° | 7km/h | 22433m | 5.6m/s | -53°C | 4.2% | 40hPa | 2.5V | 08:30:00 | 01:54:23 | 00:00:00 | |
| DO1YAY-16 | 2026-08-31 00:12:18 | 52.01535 | 8.17326 | 292° | 4km/h | 22443m | 4.7m/s | -53.0°C | 1.1% | 39.9hPa | 2.6V | 00:00:00 | 00:00:00 | 00:00:00 | |
| DD8BA-10 | 2026-08-31 00:12:17 | 52.01534 | 8.17326 | 293° | 5km/h | 22443m | 4.6m/s | -53.0°C | 4.2% | 39.9hPa | 2.6V | 00:00:00 | 00:00:00 | 00:00:00 | |
| DL1XH-15 | 2026-08-31 00:12:16 | 52.01526 | 8.17336 | 324° | 7km/h | 22413m | 4.1m/s | -52.9°C | 4.2% | 40.1hPa | 2.6V | 08:30:00 | 01:54:19 | 00:00:00 | |
| DO2SHX-10 | 2026-08-31 00:12:16 | 52.01534 | 8.17328 | 308° | 7km/h | 22438m | 4.7m/s | -53.0°C | 4.2% | 39.9hPa | 2.5V | 00:00:00 | 01:54:24 | 00:00:00 | |
| DM0DOS-11 | 2026-08-31 00:12:15 | 52.01524 | 8.17337 | 335° | 5km/h | 22409m | 4m/s | -52.9°C | 4.2% | 40.1hPa | 2.5V | 08:30:00 | 01:54:18 | 00:00:00 | |
| DO2JMG | 2026-08-31 00:12:14 | 52.01531 | 8.17331 | 340° | 7km/h | 22428m | 4.5m/s | -53°C | 0.7% | 40hPa | 2.5V | 18:12:15 | 01:54:22 | 00:00:00 | |
| AA1-15 | 2026-08-31 00:12:14 | 52.01529 | 8.17332 | 337° | 7km/h | 22423m | 4.7m/s | -53°C | 0.7% | 40hPa | 2.5V | 18:12:15 | 01:54:21 | 00:00:00 | |
| HSKMA3-T | 2026-08-31 00:12:11 | 52.01526 | 8.17336 | 324° | 7km/h | 22413m | 4.1m/s | -53°C | 0.7% | 40.1hPa | 2.6V | 18:12:15 | 01:54:19 | 00:00:00 | |
| BIOWL1-15 | 2026-08-31 00:12:08 | 52.01523 | 8.17336 | 60° | 4km/h | 22399m | 5m/s | -52.9°C | 0.6% | 40.2hPa | 2.5V | 18:12:15 | 01:54:16 | 00:00:00 | |
| DO2SHX-10 | 2026-08-31 00:12:07 | 52.01522 | 8.17335 | 63° | 4km/h | 22395m | 4.1m/s | -52.9°C | 4.1% | 40.2hPa | 2.5V | 00:00:00 | 01:54:15 | 00:00:00 | |
| DJ2KF-10 | 2026-08-31 00:12:06 | 52.01521 | 8.17334 | 33° | 9km/h | 22390m | 5.4m/s | -52.9°C | 4.1% | 40.2hPa | 2.5V | 00:00:00 | 01:54:14 | 00:00:00 | |
| DL1XH-15 | 2026-08-31 00:12:05 | 52.01513 | 8.17333 | 11° | 9km/h | 22366m | 4.1m/s | -52.9°C | 4.2% | 40.4hPa | 2.5V | 08:30:00 | 01:54:09 | 00:00:00 | |
| DO2JMG | 2026-08-31 00:12:03 | 52.01517 | 8.17334 | 1° | 9km/h | 22375m | 5.3m/s | -52.9°C | 0.6% | 40.4hPa | 2.5V | 18:12:15 | 01:54:11 | 00:00:00 | |
| AA1-15 | 2026-08-31 00:12:02 | 52.01515 | 8.17334 | 10° | 9km/h | 22370m | 4.9m/s | -52.9°C | 0.7% | 40.4hPa | 2.5V | 18:12:15 | 01:54:10 | 00:00:00 | |
| DM0DOS-11 | 2026-08-31 00:12:02 | 52.01511 | 8.17333 | 4° | 7km/h | 22361m | 4.9m/s | -53°C | 4.2% | 40.4hPa | 2.5V | 08:30:00 | 01:54:08 | 00:00:00 | |
| HSKMA3-T | 2026-08-31 00:12:01 | 52.01513 | 8.17333 | 12° | 9km/h | 22366m | 4.1m/s | -52.9°C | 0.7% | 40.4hPa | 2.5V | 18:12:15 | 01:54:09 | 00:00:00 | |
| DF8AY | 2026-08-31 00:11:58 | 52.01507 | 8.17334 | 339° | 7km/h | 22351m | 4.3m/s | -53°C | 0.7% | 40.5hPa | 2.6V | 18:12:15 | 01:54:06 | 00:00:00 | |
| BIOWL1-15 | 2026-08-31 00:11:58 | 52.01505 | 8.17335 | 352° | 9km/h | 22347m | 4m/s | -53°C | 0.6% | 40.5hPa | 2.5V | 18:12:15 | 01:54:05 | 00:00:00 | |
| DO3MHA-11 | 2026-08-31 00:11:57 | 52.01503 | 8.17334 | 15° | 11km/h | 22342m | 5.3m/s | -52.9°C | 4.2% | 40.5hPa | 2.5V | 00:00:00 | 01:54:04 | 00:00:00 | |
| DL1XH-15 | 2026-08-31 00:11:55 | 52.01491 | 8.17315 | 39° | 13km/h | 22316m | 5m/s | -53°C | 4.1% | 40.7hPa | 2.5V | 08:30:00 | 01:53:59 | 00:00:00 | |
| DO2JMG | 2026-08-31 00:11:52 | 52.01494 | 8.17319 | 49° | 15km/h | 22321m | 5.3m/s | -53°C | 0.6% | 40.7hPa | 2.5V | 18:12:15 | 01:54:00 | 00:00:00 | |
| AA1-15 | 2026-08-31 00:11:51 | 52.01491 | 8.17315 | 40° | 13km/h | 22316m | 5m/s | -53°C | 0.6% | 40.7hPa | 2.5V | 18:12:15 | 01:53:59 | 00:00:00 | |
| DL1XH1-15 | 2026-08-31 00:11:51 | 52.01489 | 8.17313 | 35° | 9km/h | 22311m | 4.3m/s | -53°C | 4.2% | 40.7hPa | 2.5V | 08:30:00 | 01:53:58 | 00:00:00 | |
| HSKMA3-T | 2026-08-31 00:11:50 | 52.01489 | 8.17313 | 35° | 9km/h | 22311m | 4.3m/s | -53°C | 0.7% | 40.7hPa | 2.5V | 18:12:15 | 01:53:58 | 00:00:00 | |
| DL1XH-west | 2026-08-31 00:11:48 | 52.01486 | 8.17309 | 67° | 5km/h | 22302m | 5.6m/s | -53.1°C | 0.7% | 40.8hPa | 2.6V | 18:12:15 | 01:53:56 | 00:00:00 | |
| DF8AY | 2026-08-31 00:11:47 | 52.01486 | 8.17307 | 83° | 4km/h | 22297m | 4.5m/s | -53.1°C | 0.7% | 40.8hPa | 2.6V | 18:12:15 | 01:53:55 | 00:00:00 | |
| DO1YAY-16 | 2026-08-31 00:11:46 | 52.01486 | 8.17305 | 68° | 2km/h | 22292m | 4.6m/s | -53.1°C | 1.1% | 40.9hPa | 2.5V | 00:00:00 | 00:00:00 | 00:00:00 | |
| BUE01 | 2026-08-31 00:11:45 | 52.01485 | 8.17305 | 23° | 4km/h | 22287m | 5.6m/s | -53.2°C | 1.1% | 40.9hPa | 2.5V | 00:00:00 | 00:00:00 | 00:00:00 | |
| DO9LL-15 | 2026-08-31 00:11:44 | 52.01484 | 8.17304 | 11° | 13km/h | 22282m | 4.5m/s | -53.2°C | 4.3% | 40.9hPa | 2.5V | 00:00:00 | 01:53:52 | 00:00:00 | |
| DO2SHX-10 | 2026-08-31 00:11:43 | 52.01481 | 8.17303 | 18° | 15km/h | 22278m | 4.4m/s | -53.2°C | 4.2% | 40.9hPa | 2.5V | 00:00:00 | 01:53:51 | 00:00:00 | |
| DL1XH1-15 | 2026-08-31 00:11:41 | 52.01471 | 8.17293 | 36° | 18km/h | 22263m | 4.2m/s | -53.2°C | 4.2% | 41.1hPa | 2.6V | 08:30:00 | 01:53:48 | 00:00:00 | |
| DO2JMG | 2026-08-31 00:11:41 | 52.01475 | 8.17297 | 36° | 16km/h | 22267m | 5m/s | -53.2°C | 0.7% | 41hPa | 2.6V | 18:12:15 | 01:53:49 | 00:00:00 | |
| HSKMA3-T | 2026-08-31 00:11:40 | 52.01471 | 8.17293 | 37° | 18km/h | 22263m | 4.2m/s | -53.2°C | 0.7% | 41.1hPa | 2.6V | 18:12:15 | 01:53:48 | 00:00:00 | |
| DL1XH-west | 2026-08-31 00:11:37 | 52.01459 | 8.17282 | 20° | 16km/h | 22248m | 4.6m/s | -53.2°C | 0.7% | 41.1hPa | 2.5V | 18:12:15 | 01:53:45 | 00:00:00 | |
| BIOWL1-15 | 2026-08-31 00:11:33 | 52.01443 | 8.17269 | 10° | 15km/h | 22220m | 5.7m/s | -53.2°C | 0.7% | 41.4hPa | 2.5V | 18:12:15 | 01:53:39 | 00:00:00 | |
| DO2JMG | 2026-08-31 00:11:30 | 52.01439 | 8.17269 | 4° | 16km/h | 22215m | 4.4m/s | -53.2°C | 0.7% | 41.4hPa | 2.6V | 18:12:15 | 01:53:38 | 00:00:00 | |
| HSKMA3-T | 2026-08-31 00:11:29 | 52.01434 | 8.17268 | 7° | 18km/h | 22210m | 4.5m/s | -53.2°C | 0.6% | 41.4hPa | 2.6V | 18:12:15 | 01:53:37 | 00:00:00 | |
| DL1XH-west | 2026-08-31 00:11:27 | 52.01425 | 8.17265 | 13° | 18km/h | 22200m | 4.6m/s | -53.2°C | 0.6% | 41.5hPa | 2.5V | 18:12:15 | 01:53:35 | 00:00:00 | |
| DF8AY | 2026-08-31 00:11:26 | 52.01421 | 8.17264 | 11° | 16km/h | 22196m | 4.6m/s | -53.2°C | 0.7% | 41.5hPa | 2.5V | 18:12:15 | 01:53:34 | 00:00:00 | |
| DO2JMG | 2026-08-31 00:11:19 | 52.01401 | 8.17268 | 359° | 5km/h | 22161m | 4.2m/s | -53.3°C | 0.7% | 41.7hPa | 2.5V | 18:12:15 | 01:53:27 | 00:00:00 | |
| HSKMA3-T | 2026-08-31 00:11:18 | 52.01399 | 8.17268 | 358° | 7km/h | 22157m | 5.6m/s | -53.3°C | 0.7% | 41.8hPa | 2.6V | 18:12:15 | 01:53:26 | 00:00:00 | |
| DL1XH-west | 2026-08-31 00:11:16 | 52.01394 | 8.17268 | 8° | 15km/h | 22148m | 3.9m/s | -53.3°C | 0.6% | 41.8hPa | 2.5V | 18:12:15 | 01:53:24 | 00:00:00 | |
| DF8AY | 2026-08-31 00:11:16 | 52.01390 | 8.17267 | 15° | 15km/h | 22143m | 4.9m/s | -53.3°C | 0.7% | 41.8hPa | 2.5V | 18:12:15 | 01:53:23 | 00:00:00 | |
| DL1NUX | 2026-08-31 00:11:15 | 52.01377 | 8.17260 | 356° | 13km/h | 22124m | 5.8m/s | -53.3°C | 4.3% | 42hPa | 2.5V | 08:30:00 | 01:53:19 | 00:00:00 | |
| DO2JMG | 2026-08-31 00:11:09 | 52.01370 | 8.17263 | 338° | 15km/h | 22114m | 4.4m/s | -53.4°C | 0.7% | 42hPa | 2.5V | 18:12:15 | 01:53:17 | 00:00:00 | |
| HSKMA3-T | 2026-08-31 00:11:07 | 52.01363 | 8.17267 | 344° | 15km/h | 22104m | 4.7m/s | -53.4°C | 0.7% | 42.1hPa | 2.6V | 18:12:15 | 01:53:15 | 00:00:00 | |
| BIOWL1-15 | 2026-08-31 00:11:07 | 52.01356 | 8.17271 | 339° | 16km/h | 22095m | 5.7m/s | -53.4°C | 0.8% | 42.2hPa | 2.6V | 18:12:15 | 01:53:13 | 00:00:00 | |
| DL1XH-west | 2026-08-31 00:11:06 | 52.01360 | 8.17269 | 343° | 15km/h | 22100m | 4.5m/s | -53.4°C | 0.7% | 42.1hPa | 2.6V | 18:12:15 | 01:53:14 | 00:00:00 | |
| DF8AY | 2026-08-31 00:11:04 | 52.01352 | 8.17273 | 336° | 18km/h | 22090m | 4.8m/s | -53.4°C | 0.7% | 42.2hPa | 2.5V | 18:12:15 | 01:53:12 | 00:00:00 | |
| DO2JMG | 2026-08-31 00:10:59 | 52.01333 | 8.17281 | 354° | 16km/h | 22065m | 5.7m/s | -53.3°C | 0.7% | 42.3hPa | 2.6V | 18:12:15 | 01:53:07 | 00:00:00 | |
| HSKMA3-T | 2026-08-31 00:10:57 | 52.01324 | 8.17284 | 349° | 22km/h | 22055m | 4m/s | -53.3°C | 0.7% | 42.4hPa | 2.5V | 18:12:15 | 01:53:05 | 00:00:00 | |
| SONCRA | 2026-08-31 00:10:56 | 52.01319 | 8.17285 | 348° | 20km/h | 22050m | 5.4m/s | -53.3°C | 1.1% | 42.4hPa | 2.5V | 00:00:00 | 00:00:00 | 00:00:00 | |
| DL1XH-15 | 2026-08-31 00:10:55 | 52.01292 | 8.17298 | 343° | 26km/h | 22026m | 4.7m/s | -53.1°C | 4.2% | 42.6hPa | 2.5V | 08:30:00 | 01:52:59 | 00:00:00 | |
| BIOWL1-15 | 2026-08-31 00:10:55 | 52.01274 | 8.17302 | 6° | 22km/h | 22012m | 3.9m/s | -53.2°C | 0.6% | 42.7hPa | 2.6V | 18:12:15 | 01:52:56 | 00:00:00 | |
| DL1XH-west | 2026-08-31 00:10:55 | 52.01314 | 8.17287 | 347° | 20km/h | 22045m | 4.6m/s | -53.3°C | 0.7% | 42.5hPa | 2.6V | 18:12:15 | 01:53:03 | 00:00:00 | |
| DF8AY | 2026-08-31 00:10:54 | 52.01304 | 8.17292 | 342° | 22km/h | 22036m | 5.3m/s | -53.2°C | 0.7% | 42.5hPa | 2.5V | 18:12:15 | 01:53:01 | 00:00:00 | |
| DO2JMG | 2026-08-31 00:10:49 | 52.01280 | 8.17302 | 355° | 22km/h | 22016m | 4.9m/s | -53.2°C | 0.7% | 42.7hPa | 2.6V | 18:12:15 | 01:52:57 | 00:00:00 | |
| HSKMA3-T | 2026-08-31 00:10:46 | 52.01263 | 8.17298 | 13° | 26km/h | 22002m | 5.7m/s | -53.3°C | 0.7% | 42.7hPa | 2.5V | 18:12:15 | 01:52:54 | 00:00:00 | |
| DL1XH-west | 2026-08-31 00:10:45 | 52.01256 | 8.17296 | 11° | 27km/h | 21997m | 4.4m/s | -53.3°C | 0.7% | 42.8hPa | 2.5V | 18:12:15 | 01:52:53 | 00:00:00 | |
| DO2SHX-10 | 2026-08-31 00:10:45 | 52.01256 | 8.17296 | 12° | 26km/h | 21997m | 4.4m/s | -53.2°C | 4.2% | 42.8hPa | 2.5V | 00:00:00 | 01:52:53 | 08:30:00 | |
| DL1NUX | 2026-08-31 00:10:44 | 52.01232 | 8.17296 | 339° | 22km/h | 21979m | 4.1m/s | -53.3°C | 4.2% | 42.9hPa | 2.6V | 08:30:00 | 01:52:49 | 00:00:00 | |
| DF8AY | 2026-08-31 00:10:43 | 52.01243 | 8.17293 | 2° | 24km/h | 21988m | 5.5m/s | -53.3°C | 0.7% | 42.9hPa | 2.5V | 18:12:15 | 01:52:51 | 00:00:00 | |
| DM0DOS-11 | 2026-08-31 00:10:43 | 52.01226 | 8.17300 | 333° | 24km/h | 21974m | 5.8m/s | -53.3°C | 4.2% | 43hPa | 2.5V | 08:30:00 | 01:52:48 | 00:00:00 | |
| DO2JMG | 2026-08-31 00:10:39 | 52.01221 | 8.17304 | 330° | 26km/h | 21968m | 4.6m/s | -53.3°C | 0.7% | 43hPa | 2.5V | 18:12:15 | 01:52:47 | 00:00:00 | |
| BIOWL1-15 | 2026-08-31 00:10:35 | 52.01201 | 8.17322 | 341° | 22km/h | 21949m | 5m/s | -53.4°C | 0.7% | 43.1hPa | 2.5V | 18:12:15 | 01:52:43 | 00:00:00 | |
| DM0DOS-11 | 2026-08-31 00:10:34 | 52.01170 | 8.17331 | 348° | 22km/h | 21924m | 4.9m/s | -53.5°C | 4.3% | 43.3hPa | 2.5V | 08:30:00 | 01:52:38 | 00:00:00 | |
| DL1XH-west | 2026-08-31 00:10:34 | 52.01195 | 8.17325 | 347° | 26km/h | 21944m | 5.7m/s | -53.4°C | 0.7% | 43.1hPa | 2.5V | 18:12:15 | 01:52:42 | 00:00:00 | |
| DL1XH-15 | 2026-08-31 00:10:33 | 52.01175 | 8.17330 | 353° | 26km/h | 21929m | 5.8m/s | -53.4°C | 4.3% | 43.3hPa | 2.6V | 08:30:00 | 01:52:39 | 00:00:00 | |
| DF8AY | 2026-08-31 00:10:32 | 52.01182 | 8.17328 | 353° | 27km/h | 21934m | 4.2m/s | -53.4°C | 0.7% | 43.2hPa | 2.6V | 18:12:15 | 01:52:40 | 00:00:00 | |
| DO2JMG | 2026-08-31 00:10:28 | 52.01159 | 8.17337 | 339° | 24km/h | 21914m | 5.6m/s | -53.5°C | 0.7% | 43.3hPa | 2.5V | 18:12:15 | 01:52:36 | 00:00:00 | |
| DB0NH | 2026-08-31 00:10:27 | 52.01153 | 8.17340 | 335° | 16km/h | 21909m | 4.4m/s | -53.4°C | 4.3% | 43.3hPa | 2.6V | 00:00:00 | 01:52:35 | 00:00:00 | |
| DO3MHA-11 | 2026-08-31 00:10:25 | 52.01144 | 8.17349 | 327° | 18km/h | 21899m | 5.5m/s | -53.4°C | 4.2% | 43.4hPa | 2.6V | 00:00:00 | 01:52:33 | 00:00:00 | |
| DL1NUX | 2026-08-31 00:10:24 | 52.01128 | 8.17361 | 344° | 22km/h | 21881m | 4.1m/s | -53.4°C | 4.2% | 43.6hPa | 2.5V | 08:30:00 | 01:52:29 | 00:00:00 | |
| HSKMA3-T | 2026-08-31 00:10:24 | 52.01140 | 8.17352 | 328° | 16km/h | 21894m | 4.1m/s | -53.4°C | 0.7% | 43.5hPa | 2.6V | 18:12:15 | 01:52:32 | 00:00:00 | |
| DL1XH-west | 2026-08-31 00:10:23 | 52.01137 | 8.17356 | 335° | 16km/h | 21890m | 4.3m/s | -53.4°C | 0.7% | 43.5hPa | 2.5V | 18:12:15 | 01:52:31 | 00:00:00 | |
| DM0DOS-11 | 2026-08-31 00:10:22 | 52.01123 | 8.17363 | 346° | 22km/h | 21877m | 3.7m/s | -53.4°C | 4.2% | 43.6hPa | 2.5V | 08:30:00 | 01:52:28 | 00:00:00 | |
| DF8AY | 2026-08-31 00:10:22 | 52.01133 | 8.17358 | 340° | 18km/h | 21886m | 5.2m/s | -53.4°C | 0.6% | 43.5hPa | 2.5V | 18:12:15 | 01:52:30 | 00:00:00 | |
| DO2JMG | 2026-08-31 00:10:18 | 52.01113 | 8.17366 | 351° | 18km/h | 21867m | 5.1m/s | -53.4°C | 0.7% | 43.7hPa | 2.6V | 18:12:15 | 01:52:26 | 00:00:00 | |
| BIOWL1-15 | 2026-08-31 00:10:14 | 52.01061 | 8.17395 | 353° | 15km/h | 21801m | 4.8m/s | -53.5°C | 0.8% | 44.1hPa | 2.5V | 18:12:15 | 01:52:12 | 00:00:00 | |
| DL1NUX | 2026-08-31 00:10:14 | 52.01084 | 8.17378 | 319° | 13km/h | 21833m | 4.6m/s | -53.3°C | 4.2% | 43.9hPa | 2.5V | 08:30:00 | 01:52:19 | 00:00:00 | |
| HSKMA3-T | 2026-08-31 00:10:13 | 52.01091 | 8.17373 | 341° | 16km/h | 21843m | 4.3m/s | -53.3°C | 0.7% | 43.9hPa | 2.6V | 18:12:15 | 01:52:21 | 00:00:00 | |
| DM0DOS-11 | 2026-08-31 00:10:13 | 52.01082 | 8.17381 | 313° | 11km/h | 21829m | 4.3m/s | -53.3°C | 4.2% | 43.9hPa | 2.5V | 08:30:00 | 01:52:18 | 00:00:00 | |
| DF8AY | 2026-08-31 00:10:11 | 52.01084 | 8.17378 | 319° | 13km/h | 21833m | 4.6m/s | -53.3°C | 0.7% | 43.9hPa | 2.5V | 18:12:15 | 01:52:19 | 00:00:00 | |
| DO2JMG | 2026-08-31 00:10:08 | 52.01077 | 8.17388 | 331° | 15km/h | 21820m | 5.4m/s | -53.4°C | 0.7% | 44hPa | 2.6V | 18:12:15 | 01:52:16 | 00:00:00 | |
| DD8BA-10 | 2026-08-31 00:10:07 | 52.01073 | 8.17390 | 342° | 16km/h | 21815m | 4.3m/s | -53.3°C | 4.3% | 44.0hPa | 2.6V | 00:00:00 | 00:00:00 | 00:00:00 | |
| DL8DAS-14 | 2026-08-31 00:10:06 | 52.01065 | 8.17394 | 350° | 16km/h | 21806m | 5.4m/s | -53.5°C | 1.2% | 44.1hPa | 2.6V | 00:00:00 | 00:00:00 | 00:00:00 | |
| DO3MHA-11 | 2026-08-31 00:10:05 | 52.01065 | 8.17394 | 351° | 16km/h | 21806m | 5.4m/s | -53.4°C | 4.3% | 44.0hPa | 2.6V | 00:00:00 | 01:52:13 | 00:00:00 | |
| DL1NUX | 2026-08-31 00:10:04 | 52.01050 | 8.17398 | 338° | 15km/h | 21787m | 4.3m/s | -53.5°C | 4.4% | 44.2hPa | 2.6V | 08:30:00 | 01:52:09 | 00:00:00 | |
| AA1-15 | 2026-08-31 00:10:03 | 52.01057 | 8.17395 | 352° | 15km/h | 21797m | 4.1m/s | -53.5°C | 0.7% | 44.1hPa | 2.6V | 18:12:15 | 01:52:11 | 00:00:00 | |
| DO2SHX-10 | 2026-08-31 00:10:03 | 52.01057 | 8.17395 | 353° | 15km/h | 21797m | 4.0m/s | -53.5°C | 4.3% | 44.1hPa | 2.5V | 00:00:00 | 01:52:11 | 00:00:00 | |
| DM0DOS-11 | 2026-08-31 00:10:02 | 52.01047 | 8.17401 | 320° | 15km/h | 21783m | 4.1m/s | -53.5°C | 4.3% | 44.2hPa | 2.5V | 08:30:00 | 01:52:08 | 00:00:00 | |
| DL1XH-west | 2026-08-31 00:10:02 | 52.01053 | 8.17396 | 348° | 15km/h | 21792m | 5.4m/s | -53.6°C | 0.7% | 44.2hPa | 2.6V | 18:12:15 | 01:52:10 | 00:00:00 | |
| DF8AY | 2026-08-31 00:10:00 | 52.01047 | 8.17401 | 321° | 15km/h | 21783m | 4.1m/s | -53.6°C | 0.7% | 44.2hPa | 2.5V | 18:12:15 | 01:52:08 | 00:00:00 | |
| DO2JMG | 2026-08-31 00:09:58 | 52.01043 | 8.17412 | 280° | 16km/h | 21772m | 5.1m/s | -53.6°C | 0.8% | 44.3hPa | 2.5V | 18:12:15 | 01:52:06 | 00:00:00 | |
| SONDE2-11 | 2026-08-31 00:09:56 | 52.01042 | 8.17427 | 277° | 20km/h | 21764m | 5.0m/s | -53.6°C | 1.1% | 44.4hPa | 2.6V | 00:00:00 | 00:00:00 | 00:00:00 | |
| DO3MHA-11 | 2026-08-31 00:09:55 | 52.01041 | 8.17435 | 287° | 15km/h | 21759m | 4.8m/s | -53.5°C | 4.3% | 44.4hPa | 2.6V | 00:00:00 | 01:52:03 | 00:00:00 | |
| DL1NUX | 2026-08-31 00:09:54 | 52.01032 | 8.17454 | 350° | 13km/h | 21740m | 4.1m/s | -53.4°C | 4.2% | 44.5hPa | 2.6V | 08:30:00 | 01:51:59 | 00:00:00 | |
| BIOWL1-15 | 2026-08-31 00:09:53 | 52.01037 | 8.17448 | 307° | 15km/h | 21749m | 5.4m/s | -53.5°C | 0.7% | 44.5hPa | 2.5V | 18:12:15 | 01:52:01 | 00:00:00 | |
| DM0DOS-11 | 2026-08-31 00:09:52 | 52.01028 | 8.17454 | 1° | 15km/h | 21735m | 5.4m/s | -53.4°C | 4.2% | 44.6hPa | 2.6V | 08:30:00 | 01:51:58 | 00:00:00 | |
| HSKMA3-T | 2026-08-31 00:09:52 | 52.01035 | 8.17452 | 326° | 11km/h | 21744m | 4.9m/s | -53.5°C | 0.7% | 44.6hPa | 2.5V | 18:12:15 | 01:52:00 | 00:00:00 | |
| DL1XH-west | 2026-08-31 00:09:51 | 52.01032 | 8.17454 | 350° | 13km/h | 21740m | 4.1m/s | -53.5°C | 0.7% | 44.5hPa | 2.6V | 18:12:15 | 01:51:59 | 00:00:00 | |
| DF8AY | 2026-08-31 00:09:50 | 52.01024 | 8.17454 | 1° | 18km/h | 21730m | 4.5m/s | -53.4°C | 0.7% | 44.6hPa | 2.5V | 18:12:15 | 01:51:57 | 00:00:00 | |
| DO2JMG | 2026-08-31 00:09:47 | 52.01016 | 8.17456 | 343° | 15km/h | 21722m | 4.6m/s | -53.3°C | 0.7% | 44.7hPa | 2.5V | 18:12:15 | 01:51:55 | 00:00:00 | |
| DD8BA-10 | 2026-08-31 00:09:47 | 52.01016 | 8.17456 | 343° | 15km/h | 21722m | 4.6m/s | -53.3°C | 4.2% | 44.7hPa | 2.5V | 00:00:00 | 00:00:00 | 00:00:00 | |
| DO3MHA-11 | 2026-08-31 00:09:45 | 52.01012 | 8.17462 | 296° | 16km/h | 21713m | 4.3m/s | -53.2°C | 4.2% | 44.7hPa | 2.5V | 00:00:00 | 01:51:53 | 00:00:00 | |
| DL1NUX | 2026-08-31 00:09:44 | 52.01007 | 8.17486 | 288° | 18km/h | 21693m | 4.6m/s | -53.4°C | 4.2% | 44.9hPa | 2.5V | 08:30:00 | 01:51:49 | 00:00:00 | |
| AA1-15 | 2026-08-31 00:09:42 | 52.01008 | 8.17479 | 290° | 18km/h | 21698m | 4.7m/s | -53.3°C | 0.7% | 44.9hPa | 2.5V | 18:12:15 | 01:51:50 | 00:00:00 | |
| BIOWL1-15 | 2026-08-31 00:09:42 | 52.01002 | 8.17505 | 305° | 16km/h | 21680m | 3.9m/s | -53.6°C | 0.7% | 45hPa | 2.6V | 18:12:15 | 01:51:46 | 00:00:00 | |
| HSKMA3-T | 2026-08-31 00:09:41 | 52.01007 | 8.17486 | 289° | 18km/h | 21693m | 4.6m/s | -53.4°C | 0.7% | 44.9hPa | 2.5V | 18:12:15 | 01:51:49 | 00:00:00 | |
| DL1XH-west | 2026-08-31 00:09:40 | 52.01005 | 8.17493 | 289° | 16km/h | 21688m | 5.5m/s | -53.5°C | 0.7% | 44.9hPa | 2.6V | 18:12:15 | 01:51:48 | 00:00:00 | |
| DF8AY | 2026-08-31 00:09:38 | 52.00987 | 8.17522 | 321° | 7km/h | 21656m | 4.7m/s | -53.7°C | 0.8% | 45.1hPa | 2.6V | 18:12:15 | 01:51:41 | 00:00:00 | |
| DO2JMG | 2026-08-31 00:09:37 | 52.00999 | 8.17510 | 318° | 16km/h | 21675m | 5.7m/s | -53.6°C | 0.8% | 45hPa | 2.5V | 18:12:15 | 01:51:45 | 00:00:00 | |
| DD8BA-10 | 2026-08-31 00:09:37 | 52.00999 | 8.17510 | 318° | 11km/h | 21675m | 5.6m/s | -53.5°C | 4.3% | 45.0hPa | 2.5V | 00:00:00 | 00:00:00 | 00:00:00 | |
| DO3MHA-11 | 2026-08-31 00:09:36 | 52.00992 | 8.17517 | 335° | 9km/h | 21666m | 4.0m/s | -53.7°C | 4.3% | 45.0hPa | 2.5V | 00:00:00 | 01:51:43 | 00:00:00 | |
| DK9SH | 2026-08-31 00:09:35 | 52.00992 | 8.17517 | 335° | 16km/h | 21666m | 4.0m/s | -53.7°C | 1.1% | 45.1hPa | 2.5V | 00:00:00 | 00:00:00 | 00:00:00 | |
| DM0DOS-11 | 2026-08-31 00:09:34 | 52.00985 | 8.17529 | 281° | 9km/h | 21643m | 5m/s | -53.7°C | 4.4% | 45.2hPa | 2.5V | 08:30:00 | 01:51:38 | 00:00:00 | |
| AA1-15 | 2026-08-31 00:09:32 | 52.00985 | 8.17526 | 283° | 7km/h | 21648m | 4.4m/s | -53.7°C | 0.8% | 45.2hPa | 2.5V | 18:12:15 | 01:51:39 | 00:00:00 | |
| HSKMA3-T | 2026-08-31 00:09:30 | 52.00985 | 8.17529 | 281° | 9km/h | 21643m | 5m/s | -53.7°C | 0.8% | 45.2hPa | 2.5V | 18:12:15 | 01:51:38 | 00:00:00 | |
| DL1XH-west | 2026-08-31 00:09:29 | 52.00984 | 8.17533 | 279° | 9km/h | 21638m | 4.3m/s | -53.7°C | 0.8% | 45.3hPa | 2.5V | 18:12:15 | 01:51:37 | 00:00:00 | |
| DO2JMG | 2026-08-31 00:09:27 | 52.00984 | 8.17541 | 267° | 11km/h | 21629m | 5.5m/s | -53.7°C | 0.7% | 45.3hPa | 2.6V | 18:12:15 | 01:51:35 | 00:00:00 | |
| DF8AY | 2026-08-31 00:09:25 | 52.00984 | 8.17550 | 287° | 13km/h | 21619m | 5.1m/s | -53.7°C | 0.8% | 45.4hPa | 2.5V | 18:12:15 | 01:51:33 | 00:00:00 | |
| HSKMA3-T | 2026-08-31 00:09:20 | 52.00976 | 8.17585 | 268° | 18km/h | 21595m | 4.9m/s | -53.6°C | 0.8% | 45.6hPa | 2.5V | 18:12:15 | 01:51:28 | 00:00:00 | |
| BIOWL1-15 | 2026-08-31 00:09:17 | 52.00979 | 8.17602 | 248° | 11km/h | 21582m | 4.6m/s | -53.6°C | 0.7% | 45.7hPa | 2.6V | 18:12:15 | 01:51:25 | 00:00:00 | |
| DO2JMG | 2026-08-31 00:09:16 | 52.00980 | 8.17606 | 262° | 9km/h | 21577m | 5m/s | -53.6°C | 0.7% | 45.7hPa | 2.5V | 18:12:15 | 01:51:24 | 00:00:00 | |
| DF8AY | 2026-08-31 00:09:14 | 52.00979 | 8.17631 | 270° | 7km/h | 21534m | 4.4m/s | -53.5°C | 0.7% | 46hPa | 2.5V | 18:12:15 | 01:51:15 | 00:00:00 | |
| HSKMA3-T | 2026-08-31 00:09:10 | 52.00980 | 8.17624 | 258° | 5km/h | 21548m | 4.4m/s | -53.5°C | 0.8% | 45.9hPa | 2.6V | 18:12:15 | 01:51:18 | 00:00:00 | |
| AA1-15 | 2026-08-31 00:09:09 | 52.00980 | 8.17626 | 276° | 5km/h | 21543m | 5.4m/s | -53.5°C | 0.7% | 45.9hPa | 2.5V | 18:12:15 | 01:51:17 | 00:00:00 | |
| DF8AY | 2026-08-31 00:09:09 | 52.00982 | 8.17641 | 242° | 11km/h | 21519m | 4.4m/s | -53.4°C | 0.7% | 46.1hPa | 2.6V | 18:12:15 | 01:51:12 | 00:00:00 | |
| BIOWL1-15 | 2026-08-31 00:09:07 | 52.00980 | 8.17637 | 243° | 11km/h | 21524m | 4.4m/s | -53.4°C | 0.7% | 46.1hPa | 2.6V | 18:12:15 | 01:51:13 | 00:00:00 | |
| DO2JMG | 2026-08-31 00:09:06 | 52.00980 | 8.17634 | 254° | 9km/h | 21529m | 5.6m/s | -53.5°C | 0.6% | 46hPa | 2.5V | 18:12:15 | 01:51:14 | 00:00:00 | |
| DC4HF-4 | 2026-08-31 00:09:06 | 52.00980 | 8.17637 | 243° | 9km/h | 21524m | 4.4m/s | -53.4°C | 1.1% | 46.1hPa | 2.5V | 00:00:00 | 00:00:00 | 00:00:00 | |
| DL1NUX | 2026-08-31 00:09:05 | 52.00985 | 8.17649 | 206° | 7km/h | 21506m | 4.9m/s | -53.3°C | 4.1% | 46.2hPa | 2.5V | 08:30:00 | 01:51:09 | 00:00:00 | |
| DD1CC3-15 | 2026-08-31 00:09:05 | 52.00980 | 8.17637 | 244° | 11km/h | 21524m | 4.4m/s | -53.4°C | 1.2% | 46.1hPa | 2.6V | 00:00:00 | 00:00:00 | 00:00:00 | |
| DL8DAS-14 | 2026-08-31 00:09:04 | 52.00983 | 8.17645 | 241° | 7km/h | 21515m | 5.2m/s | -53.4°C | 1.1% | 46.1hPa | 2.6V | 00:00:00 | 00:00:00 | 00:00:00 | |
| DD1CC8 | 2026-08-31 00:09:03 | 52.00983 | 8.17645 | 241° | 7km/h | 21515m | 5.2m/s | -53.4°C | 1.1% | 46.1hPa | 2.6V | 00:00:00 | 00:00:00 | 00:00:00 | |
| DM0DOS-11 | 2026-08-31 00:09:02 | 52.00988 | 8.17650 | 187° | 11km/h | 21500m | 5.6m/s | -53.3°C | 4.1% | 46.3hPa | 2.6V | 08:30:00 | 01:51:08 | 00:00:00 | |
| HSKMA3-T | 2026-08-31 00:08:59 | 52.00990 | 8.17650 | 176° | 11km/h | 21495m | 4.5m/s | -53.3°C | 0.6% | 46.3hPa | 2.6V | 18:12:15 | 01:51:07 | 00:00:00 | |
| AA1-15 | 2026-08-31 00:08:58 | 52.00993 | 8.17649 | 167° | 11km/h | 21491m | 4.6m/s | -53.3°C | 0.6% | 46.3hPa | 2.5V | 18:12:15 | 01:51:06 | 00:00:00 | |
| DL1XH-west | 2026-08-31 00:08:56 | 52.00998 | 8.17647 | 158° | 9km/h | 21481m | 4m/s | -53.3°C | 0.6% | 46.4hPa | 2.5V | 18:12:15 | 01:51:04 | 00:00:00 | |
| BIOWL1-15 | 2026-08-31 00:08:56 | 52.01010 | 8.17655 | 235° | 11km/h | 21452m | 4m/s | -53.8°C | 0.7% | 46.6hPa | 2.6V | 18:12:15 | 01:50:58 | 00:00:00 | |
| DO2JMG | 2026-08-31 00:08:55 | 52.01000 | 8.17646 | 171° | 7km/h | 21477m | 4.5m/s | -53.4°C | 0.6% | 46.4hPa | 2.6V | 18:12:15 | 01:51:03 | 00:00:00 | |
| DF8AY | 2026-08-31 00:08:54 | 52.01002 | 8.17646 | 186° | 9km/h | 21472m | 5.5m/s | -53.5°C | 0.6% | 46.5hPa | 2.6V | 18:12:15 | 01:51:02 | 00:00:00 | |
| HSKMA3-T | 2026-08-31 00:08:49 | 52.01012 | 8.17658 | 225° | 11km/h | 21449m | 3.7m/s | -53.8°C | 0.8% | 46.6hPa | 2.6V | 18:12:15 | 01:50:57 | 00:00:00 | |
| AA1-15 | 2026-08-31 00:08:48 | 52.01018 | 8.17663 | 187° | 16km/h | 21440m | 4.1m/s | -53.9°C | 0.8% | 46.7hPa | 2.5V | 18:12:15 | 01:50:55 | 00:00:00 | |
| DF7PN | 2026-08-31 00:08:45 | 52.01027 | 8.17660 | 152° | 18km/h | 21431m | 5.4m/s | -53.9°C | 1.2% | 46.7hPa | 2.6V | 00:00:00 | 00:00:00 | 00:00:00 | |
| DO2JMG | 2026-08-31 00:08:44 | 52.01031 | 8.17655 | 138° | 20km/h | 21426m | 5.1m/s | -53.9°C | 0.8% | 46.8hPa | 2.6V | 18:12:15 | 01:50:52 | 00:00:00 | |
| DF8AY | 2026-08-31 00:08:44 | 52.01052 | 8.17635 | 184° | 16km/h | 21398m | 4.3m/s | -53.8°C | 0.8% | 47hPa | 2.5V | 18:12:15 | 01:50:46 | 00:00:00 | |
| BIOWL1-15 | 2026-08-31 00:08:40 | 52.01044 | 8.17636 | 162° | 16km/h | 21407m | 5.2m/s | -53.9°C | 0.7% | 46.9hPa | 2.5V | 18:12:15 | 01:50:48 | 00:00:00 | |
| HSKMA3-T | 2026-08-31 00:08:39 | 52.01048 | 8.17635 | 176° | 16km/h | 21403m | 4.5m/s | -53.9°C | 0.8% | 47hPa | 2.5V | 18:12:15 | 01:50:47 | 00:00:00 | |
| AA1-15 | 2026-08-31 00:08:37 | 52.01059 | 8.17637 | 205° | 11km/h | 21389m | 5m/s | -53.8°C | 0.7% | 47.1hPa | 2.6V | 18:12:15 | 01:50:44 | 00:00:00 | |
| DD8BA-10 | 2026-08-31 00:08:37 | 52.01056 | 8.17636 | 194° | 15km/h | 21394m | 4.9m/s | -53.8°C | 4.3% | 47.0hPa | 2.6V | 00:00:00 | 00:00:00 | 00:00:00 | |
| DL1XH-15 | 2026-08-31 00:08:36 | 52.01068 | 8.17631 | 127° | 18km/h | 21366m | 4.4m/s | -53.8°C | 4.4% | 47.2hPa | 2.6V | 08:30:00 | 01:50:39 | 00:00:00 | |
| DL1XH-west | 2026-08-31 00:08:35 | 52.01060 | 8.17639 | 209° | 7km/h | 21384m | 4.5m/s | -53.8°C | 0.7% | 47.1hPa | 2.5V | 18:12:15 | 01:50:43 | 00:00:00 | |
| DO2JMG | 2026-08-31 00:08:34 | 52.01062 | 8.17640 | 181° | 5km/h | 21380m | 4.1m/s | -53.9°C | 0.7% | 47.1hPa | 2.5V | 18:12:15 | 01:50:42 | 00:00:00 | |
| DO3DL | 2026-08-31 00:08:33 | 52.01064 | 8.17639 | 150° | 7km/h | 21376m | 4.4m/s | -53.9°C | 1.2% | 47.2hPa | 2.5V | 00:00:00 | 00:00:00 | 00:00:00 | |
| DM0DOS-11 | 2026-08-31 00:08:32 | 52.01071 | 8.17625 | 121° | 22km/h | 21362m | 5m/s | -53.8°C | 4.4% | 47.2hPa | 2.5V | 08:30:00 | 01:50:38 | 00:00:00 | |
| BIOWL1-15 | 2026-08-31 00:08:29 | 52.01073 | 8.17617 | 115° | 24km/h | 21356m | 5.5m/s | -53.8°C | 0.7% | 47.3hPa | 2.5V | 18:12:15 | 01:50:37 | 00:00:00 | |
| HSKMA3-T | 2026-08-31 00:08:29 | 52.01076 | 8.17607 | 113° | 26km/h | 21352m | 4.3m/s | -53.8°C | 0.8% | 47.3hPa | 2.5V | 18:12:15 | 01:50:36 | 00:00:00 | |
| DL3AQ-11 | 2026-08-31 00:08:28 | 52.01079 | 8.17598 | 116° | 26km/h | 21347m | 4.8m/s | -53.8°C | 1.2% | 47.4hPa | 2.6V | 00:00:00 | 00:00:00 | 00:00:00 | |
| DB0NH | 2026-08-31 00:08:27 | 52.01079 | 8.17598 | 117° | 16km/h | 21347m | 4.7m/s | -53.8°C | 4.4% | 47.3hPa | 2.6V | 00:00:00 | 01:50:35 | 00:00:00 | |
| DL1XH-15 | 2026-08-31 00:08:26 | 52.01093 | 8.17555 | 101° | 11km/h | 21319m | 4.2m/s | -53.8°C | 4.3% | 47.5hPa | 2.6V | 08:30:00 | 01:50:29 | 00:00:00 | |
| AA1-15 | 2026-08-31 00:08:26 | 52.01082 | 8.17589 | 122° | 26km/h | 21342m | 5.1m/s | -53.8°C | 0.8% | 47.4hPa | 2.6V | 18:12:15 | 01:50:34 | 00:00:00 | |
| DL1XH-west | 2026-08-31 00:08:25 | 52.01085 | 8.17581 | 124° | 24km/h | 21338m | 4.2m/s | -53.8°C | 0.8% | 47.5hPa | 2.5V | 18:12:15 | 01:50:33 | 00:00:00 | |
| DO2JMG | 2026-08-31 00:08:23 | 52.01091 | 8.17566 | 116° | 16km/h | 21328m | 5.4m/s | -53.8°C | 0.8% | 47.5hPa | 2.5V | 18:12:15 | 01:50:31 | 00:00:00 | |
| DM0DOS-11 | 2026-08-31 00:08:22 | 52.01093 | 8.17551 | 105° | 11km/h | 21314m | 5.3m/s | -53.8°C | 4.4% | 47.6hPa | 2.5V | 08:30:00 | 01:50:28 | 00:00:00 | |
| DF8AY | 2026-08-31 00:08:19 | 52.01094 | 8.17546 | 111° | 11km/h | 21309m | 4.5m/s | -53.8°C | 0.7% | 47.6hPa | 2.5V | 18:12:15 | 01:50:27 | 00:00:00 | |
| HSKMA3-T | 2026-08-31 00:08:18 | 52.01095 | 8.17542 | 105° | 13km/h | 21305m | 3.9m/s | -53.8°C | 0.8% | 47.7hPa | 2.5V | 18:12:15 | 01:50:26 | 00:00:00 | |
| DF8AY-15 | 2026-08-31 00:08:18 | 52.01095 | 8.17542 | 106° | 16km/h | 21305m | 3.8m/s | -53.7°C | 4.4% | 47.6hPa | 2.5V | 00:00:00 | 01:50:26 | 00:00:00 | |
| GOEST3-10 | 2026-08-31 00:08:17 | 52.01096 | 8.17536 | 97° | 16km/h | 21301m | 5.3m/s | -53.7°C | 4.4% | 47.7hPa | 2.5V | 00:00:00 | 01:50:25 | 00:00:00 | |
| DL1XH-15 | 2026-08-31 00:08:16 | 52.01099 | 8.17493 | 98° | 20km/h | 21271m | 4.8m/s | -53.8°C | 4.3% | 47.9hPa | 2.5V | 08:30:00 | 01:50:19 | 00:00:00 | |
| DL1XH-west | 2026-08-31 00:08:14 | 52.01096 | 8.17516 | 98° | 18km/h | 21284m | 5.9m/s | -53.7°C | 0.8% | 47.8hPa | 2.6V | 18:12:15 | 01:50:22 | 00:00:00 | |
| DO9LL-15 | 2026-08-31 00:08:14 | 52.01096 | 8.17516 | 99° | 18km/h | 21285m | 5.8m/s | -53.7°C | 4.3% | 47.8hPa | 2.5V | 00:00:00 | 01:50:22 | 00:00:00 | |
| DM0DOS-11 | 2026-08-31 00:08:13 | 52.01100 | 8.17485 | 91° | 20km/h | 21266m | 5.5m/s | -53.8°C | 4.3% | 48hPa | 2.5V | 08:30:00 | 01:50:18 | 00:00:00 | |
| DO2JMG | 2026-08-31 00:08:12 | 52.01098 | 8.17501 | 104° | 20km/h | 21275m | 3.7m/s | -53.8°C | 0.7% | 47.9hPa | 2.5V | 18:12:15 | 01:50:20 | 00:00:00 | |
| DF8AY | 2026-08-31 00:08:08 | 52.01099 | 8.17469 | 86° | 16km/h | 21256m | 5.1m/s | -53.8°C | 0.7% | 48hPa | 2.6V | 18:12:15 | 01:50:16 | 00:00:00 | |
| HSKMA3-T | 2026-08-31 00:08:07 | 52.01099 | 8.17463 | 93° | 15km/h | 21250m | 5.3m/s | -53.8°C | 0.7% | 48.1hPa | 2.5V | 18:12:15 | 01:50:15 | 00:00:00 | |
| GOEST3-10 | 2026-08-31 00:08:07 | 52.01099 | 8.17463 | 94° | 13km/h | 21251m | 5.2m/s | -53.7°C | 4.3% | 48.0hPa | 2.5V | 00:00:00 | 01:50:15 | 00:00:00 | |
| DL1XH-15 | 2026-08-31 00:08:06 | 52.01098 | 8.17432 | 87° | 15km/h | 21222m | 5.4m/s | -53.8°C | 4.3% | 48.3hPa | 2.5V | 08:30:00 | 01:50:09 | 00:00:00 | |
| DL1XH-west | 2026-08-31 00:08:04 | 52.01099 | 8.17443 | 76° | 13km/h | 21232m | 4.7m/s | -53.8°C | 0.8% | 48.2hPa | 2.6V | 18:12:15 | 01:50:11 | 00:00:00 | |
| DO2SHX-10 | 2026-08-31 00:08:03 | 52.01099 | 8.17443 | 76° | 13km/h | 21232m | 4.7m/s | -53.8°C | 4.4% | 48.2hPa | 2.5V | 00:00:00 | 01:50:11 | 00:00:00 | |
| DM0DOS-11 | 2026-08-31 00:08:02 | 52.01098 | 8.17426 | 95° | 15km/h | 21217m | 4.2m/s | -53.8°C | 4.4% | 48.3hPa | 2.5V | 08:30:00 | 01:50:08 | 00:00:00 | |
| DO2JMG | 2026-08-31 00:08:01 | 52.01098 | 8.17432 | 88° | 15km/h | 21222m | 5.4m/s | -53.8°C | 0.7% | 48.3hPa | 2.5V | 18:12:15 | 01:50:09 | 00:00:00 | |
| HSKMA3-T | 2026-08-31 00:07:57 | 52.01098 | 8.17405 | 79° | 20km/h | 21204m | 5.4m/s | -53.8°C | 0.7% | 48.5hPa | 2.5V | 18:12:15 | 01:50:05 | 00:00:00 | |
| DD8BA-10 | 2026-08-31 00:07:57 | 52.01098 | 8.17405 | 79° | 22km/h | 21204m | 5.3m/s | -53.8°C | 4.3% | 48.4hPa | 2.5V | 00:00:00 | 00:00:00 | 00:00:00 | |
| DL1XH-15 | 2026-08-31 00:07:56 | 52.01091 | 8.17355 | 70° | 22km/h | 21175m | 5.6m/s | -53.9°C | 4.4% | 48.7hPa | 2.5V | 08:30:00 | 01:49:59 | 00:00:00 | |
| DL1XH-west | 2026-08-31 00:07:53 | 52.01094 | 8.17371 | 80° | 20km/h | 21184m | 4m/s | -54°C | 0.7% | 48.6hPa | 2.6V | 18:12:15 | 01:50:01 | 00:00:00 | |
| AA1-15 | 2026-08-31 00:07:52 | 52.01093 | 8.17363 | 75° | 20km/h | 21180m | 4m/s | -53.9°C | 0.8% | 48.6hPa | 2.5V | 18:12:15 | 01:50:00 | 00:00:00 | |
| DM0DOS-11 | 2026-08-31 00:07:52 | 52.01089 | 8.17347 | 68° | 24km/h | 21170m | 5.1m/s | -53.9°C | 4.4% | 48.7hPa | 2.5V | 08:30:00 | 01:49:58 | 00:00:00 | |
| DO2JMG | 2026-08-31 00:07:51 | 52.01091 | 8.17355 | 70° | 22km/h | 21175m | 5.6m/s | -53.9°C | 0.8% | 48.7hPa | 2.5V | 18:12:15 | 01:49:59 | 00:00:00 | |
| HSKMA3-T | 2026-08-31 00:07:47 | 52.01084 | 8.17319 | 81° | 24km/h | 21155m | 3.9m/s | -53.9°C | 0.8% | 48.8hPa | 2.5V | 18:12:15 | 01:49:55 | 00:00:00 | |
| DD8BA-10 | 2026-08-31 00:07:47 | 52.01084 | 8.17319 | 81° | 22km/h | 21156m | 3.9m/s | -53.8°C | 4.4% | 48.8hPa | 2.5V | 00:00:00 | 00:00:00 | 00:00:00 | |
| DO3DL | 2026-08-31 00:07:46 | 52.01084 | 8.17319 | 81° | 24km/h | 21156m | 3.9m/s | -53.9°C | 1.2% | 48.8hPa | 2.5V | 00:00:00 | 00:00:00 | 00:00:00 | |
| DL1NUX | 2026-08-31 00:07:45 | 52.01068 | 8.17250 | 57° | 18km/h | 21119m | 4.3m/s | -54°C | 4.5% | 49.1hPa | 2.5V | 08:30:00 | 01:49:47 | 00:00:00 | |
| BIOWL1-15 | 2026-08-31 00:07:43 | 52.01077 | 8.17280 | 67° | 24km/h | 21137m | 4.3m/s | -53.9°C | 0.7% | 48.9hPa | 2.6V | 18:12:15 | 01:49:51 | 00:00:00 | |
| AA1-15 | 2026-08-31 00:07:42 | 52.01075 | 8.17271 | 66° | 22km/h | 21132m | 5.3m/s | -53.9°C | 0.8% | 49hPa | 2.6V | 18:12:15 | 01:49:50 | 00:00:00 | |
| DM0DOS-11 | 2026-08-31 00:07:42 | 52.01071 | 8.17257 | 62° | 18km/h | 21123m | 3.8m/s | -54°C | 4.5% | 49hPa | 2.5V | 08:30:00 | 01:49:48 | 00:00:00 | |
| DO2JMG | 2026-08-31 00:07:40 | 52.01071 | 8.17257 | 62° | 18km/h | 21123m | 3.8m/s | -54°C | 0.8% | 49hPa | 2.5V | 18:12:15 | 01:49:48 | 00:00:00 | |
| HSKMA3-T | 2026-08-31 00:07:37 | 52.01062 | 8.17236 | 55° | 26km/h | 21110m | 4.3m/s | -54°C | 0.8% | 49.1hPa | 2.5V | 18:12:15 | 01:49:45 | 00:00:00 | |
| BUE01 | 2026-08-31 00:07:37 | 52.01059 | 8.17227 | 57° | 26km/h | 21106m | 4.1m/s | -54.0°C | 1.2% | 49.2hPa | 2.6V | 00:00:00 | 00:00:00 | 00:00:00 | |
| DB0UT-7 | 2026-08-31 00:07:36 | 52.01059 | 8.17227 | 58° | 20km/h | 21106m | 4.1m/s | -53.9°C | 4.5% | 49.1hPa | 2.6V | 00:00:00 | 01:49:44 | 00:00:00 | |
| DO3MHA-11 | 2026-08-31 00:07:35 | 52.01055 | 8.17217 | 61° | 22km/h | 21101m | 4.9m/s | -53.9°C | 4.4% | 49.2hPa | 2.5V | 00:00:00 | 01:49:43 | 00:00:00 | |
| DL1NUX | 2026-08-31 00:07:34 | 52.01037 | 8.17167 | 55° | 22km/h | 21074m | 4.2m/s | -53.8°C | 4.4% | 49.4hPa | 2.5V | 08:30:00 | 01:49:37 | 00:00:00 | |
| BIOWL1-15 | 2026-08-31 00:07:32 | 52.01034 | 8.17160 | 61° | 20km/h | 21069m | 5.6m/s | -53.7°C | 0.7% | 49.5hPa | 2.5V | 18:12:15 | 01:49:36 | 00:00:00 | |
| DM0DOS-11 | 2026-08-31 00:07:32 | 52.01040 | 8.17174 | 54° | 24km/h | 21078m | 4.5m/s | -53.8°C | 4.4% | 49.4hPa | 2.6V | 08:30:00 | 01:49:38 | 00:00:00 | |
| DL1XH-west | 2026-08-31 00:07:31 | 52.01044 | 8.17182 | 57° | 24km/h | 21083m | 5m/s | -53.8°C | 0.8% | 49.4hPa | 2.6V | 18:12:15 | 01:49:39 | 00:00:00 | |
| DO2JMG | 2026-08-31 00:07:29 | 52.01037 | 8.17167 | 55° | 22km/h | 21074m | 4.3m/s | -53.8°C | 0.8% | 49.4hPa | 2.5V | 18:12:15 | 01:49:37 | 00:00:00 | |
| HSKMA3-T | 2026-08-31 00:07:26 | 52.01030 | 8.17146 | 62° | 20km/h | 21060m | 4m/s | -53.7°C | 0.8% | 49.5hPa | 2.6V | 18:12:15 | 01:49:34 | 00:00:00 | |
| DO3MHA-11 | 2026-08-31 00:07:25 | 52.01027 | 8.17138 | 59° | 20km/h | 21055m | 5.3m/s | -53.6°C | 4.3% | 49.5hPa | 2.6V | 00:00:00 | 01:49:33 | 00:00:00 | |
| DO2SHX-10 | 2026-08-31 00:07:24 | 52.01024 | 8.17131 | 55° | 24km/h | 21050m | 4.3m/s | -53.5°C | 4.3% | 49.6hPa | 2.6V | 00:00:00 | 01:49:32 | 00:00:00 | |
| DM0DOS-11 | 2026-08-31 00:07:22 | 52.01012 | 8.17101 | 69° | 18km/h | 21032m | 4.7m/s | -53.6°C | 4.3% | 49.7hPa | 2.6V | 08:30:00 | 01:49:28 | 00:00:00 | |
| DL1XH-west | 2026-08-31 00:07:21 | 52.01014 | 8.17108 | 62° | 20km/h | 21037m | 5.1m/s | -53.6°C | 0.6% | 49.7hPa | 2.6V | 18:12:15 | 01:49:29 | 00:00:00 | |
| AA1-15 | 2026-08-31 00:07:21 | 52.01012 | 8.17101 | 69° | 18km/h | 21032m | 4.7m/s | -53.6°C | 0.7% | 49.8hPa | 2.6V | 18:12:15 | 01:49:28 | 00:00:00 | |
| BIOWL1-15 | 2026-08-31 00:07:19 | 52.01011 | 8.17094 | 72° | 18km/h | 21028m | 4.5m/s | -53.6°C | 0.7% | 49.8hPa | 2.5V | 18:12:15 | 01:49:27 | 00:00:00 | |
| DL1NUX | 2026-08-31 00:07:19 | 52.01008 | 8.17080 | 65° | 18km/h | 21018m | 5.1m/s | -53.7°C | 4.3% | 49.9hPa | 2.5V | 08:30:00 | 01:49:25 | 00:00:00 | |
| DO2JMG | 2026-08-31 00:07:18 | 52.01009 | 8.17087 | 70° | 18km/h | 21023m | 4.9m/s | -53.7°C | 0.7% | 49.8hPa | 2.5V | 18:12:15 | 01:49:26 | 00:00:00 | |
| DD1CC1-15 | 2026-08-31 00:07:18 | 52.01009 | 8.17087 | 71° | 18km/h | 21023m | 4.9m/s | -53.7°C | 1.2% | 49.8hPa | 2.6V | 00:00:00 | 00:00:00 | 00:00:00 | |
| DD8BA-10 | 2026-08-31 00:07:17 | 52.01008 | 8.17080 | 66° | 15km/h | 21018m | 5.0m/s | -53.6°C | 4.3% | 49.8hPa | 2.6V | 00:00:00 | 00:00:00 | 00:00:00 | |
| DL1XH-15 | 2026-08-31 00:07:16 | 52.00994 | 8.17052 | 44° | 15km/h | 20989m | 5m/s | -53.8°C | 4.3% | 50.1hPa | 2.6V | 08:30:00 | 01:49:19 | 00:00:00 | |
| HSKMA3-T | 2026-08-31 00:07:16 | 52.01006 | 8.17073 | 61° | 18km/h | 21013m | 4m/s | -53.7°C | 0.8% | 49.9hPa | 2.6V | 18:12:15 | 01:49:24 | 00:00:00 | |
| DF8AY | 2026-08-31 00:07:12 | 52.00989 | 8.17042 | 58° | 15km/h | 20980m | 4.8m/s | -53.9°C | 0.8% | 50.2hPa | 2.5V | 18:12:15 | 01:49:17 | 00:00:00 | |
| DL1XH-west | 2026-08-31 00:07:11 | 52.00994 | 8.17052 | 45° | 15km/h | 20989m | 5m/s | -53.8°C | 0.7% | 50.1hPa | 2.6V | 18:12:15 | 01:49:19 | 00:00:00 | |
| AA1-15 | 2026-08-31 00:07:10 | 52.00992 | 8.17047 | 50° | 16km/h | 20985m | 3.8m/s | -53.8°C | 0.8% | 50.1hPa | 2.6V | 18:12:15 | 01:49:18 | 00:00:00 | |
| DO2SHX-10 | 2026-08-31 00:07:09 | 52.00989 | 8.17042 | 59° | 15km/h | 20981m | 4.8m/s | -53.8°C | 4.4% | 50.1hPa | 2.5V | 00:00:00 | 01:49:17 | 00:00:00 | |
| DL1NUX | 2026-08-31 00:07:08 | 52.00986 | 8.17026 | 83° | 15km/h | 20966m | 4.4m/s | -53.9°C | 4.4% | 50.3hPa | 2.5V | 08:30:00 | 01:49:14 | 00:00:00 | |
| DO2JMG | 2026-08-31 00:07:07 | 52.00987 | 8.17032 | 83° | 13km/h | 20970m | 4.6m/s | -53.9°C | 0.8% | 50.2hPa | 2.5V | 18:12:15 | 01:49:15 | 00:00:00 | |
| HSKMA3-T | 2026-08-31 00:07:06 | 52.00987 | 8.17026 | 84° | 15km/h | 20966m | 4.4m/s | -53.9°C | 0.8% | 50.3hPa | 2.5V | 18:12:15 | 01:49:14 | 00:00:00 | |
| DL1XH-west | 2026-08-31 00:07:01 | 52.00984 | 8.16998 | 89° | 9km/h | 20942m | 4.8m/s | -53.9°C | 0.8% | 50.5hPa | 2.5V | 18:12:15 | 01:49:09 | 00:00:00 | |
| AA1-15 | 2026-08-31 00:07:00 | 52.00983 | 8.16993 | 64° | 7km/h | 20932m | 5.5m/s | -53.8°C | 0.7% | 50.5hPa | 2.5V | 18:12:15 | 01:49:07 | 00:00:00 | |
| DD1CC8 | 2026-08-31 00:06:59 | 52.00982 | 8.16990 | 57° | 7km/h | 20928m | 4.4m/s | -53.8°C | 1.1% | 50.6hPa | 2.5V | 00:00:00 | 00:00:00 | 00:00:00 | |
| DL1NUX | 2026-08-31 00:06:58 | 52.00981 | 8.16984 | 79° | 7km/h | 20918m | 5.1m/s | -53.8°C | 4.3% | 50.7hPa | 2.5V | 08:30:00 | 01:49:04 | 00:00:00 | |
| BIOWL1-15 | 2026-08-31 00:06:58 | 52.00981 | 8.16976 | 94° | 13km/h | 20909m | 4.5m/s | -53.8°C | 0.7% | 50.7hPa | 2.5V | 18:12:15 | 01:49:02 | 00:00:00 | |
| DO2JMG | 2026-08-31 00:06:57 | 52.00981 | 8.16987 | 63° | 7km/h | 20923m | 4.7m/s | -53.8°C | 0.7% | 50.6hPa | 2.6V | 18:12:15 | 01:49:05 | 00:00:00 | |
| DO2SHX-10 | 2026-08-31 00:06:57 | 52.00981 | 8.16987 | 63° | 11km/h | 20923m | 4.6m/s | -53.8°C | 4.3% | 50.6hPa | 2.5V | 00:00:00 | 01:49:05 | 00:00:00 | |
| DL1XH-15 | 2026-08-31 00:06:56 | 52.00981 | 8.16956 | 90° | 18km/h | 20894m | 4.1m/s | -53.8°C | 4.3% | 50.8hPa | 2.5V | 08:30:00 | 01:48:59 | 00:00:00 | |
| HSKMA3-T | 2026-08-31 00:06:55 | 52.00981 | 8.16981 | 92° | 9km/h | 20913m | 4.4m/s | -53.8°C | 0.8% | 50.7hPa | 2.5V | 18:12:15 | 01:49:03 | 00:00:00 | |
| DF8AY | 2026-08-31 00:06:50 | 52.00982 | 8.16941 | 106° | 16km/h | 20885m | 4.7m/s | -53.8°C | 0.7% | 50.9hPa | 2.5V | 18:12:15 | 01:48:57 | 00:00:00 | |
| AA1-15 | 2026-08-31 00:06:49 | 52.00983 | 8.16936 | 108° | 13km/h | 20880m | 3.8m/s | -53.8°C | 0.7% | 51hPa | 2.6V | 18:12:15 | 01:48:56 | 00:00:00 | |
| DL1NUX | 2026-08-31 00:06:48 | 52.00984 | 8.16926 | 82° | 9km/h | 20871m | 5.4m/s | -53.8°C | 4.3% | 51hPa | 2.5V | 08:30:00 | 01:48:54 | 00:00:00 | |
| BIOWL1-15 | 2026-08-31 00:06:46 | 52.00983 | 8.16923 | 63° | 11km/h | 20866m | 4.5m/s | -53.8°C | 0.7% | 51.1hPa | 2.5V | 18:12:15 | 01:48:53 | 00:00:00 | |
| DO2JMG | 2026-08-31 00:06:46 | 52.00984 | 8.16926 | 83° | 9km/h | 20871m | 5.4m/s | -53.8°C | 0.7% | 51hPa | 2.5V | 18:12:15 | 01:48:54 | 00:00:00 | |
| HSKMA3-T | 2026-08-31 00:06:44 | 52.00982 | 8.16919 | 57° | 11km/h | 20862m | 4.2m/s | -53.9°C | 0.7% | 51.1hPa | 2.5V | 18:12:15 | 01:48:52 | 00:00:00 | |
| DF8AY | 2026-08-31 00:06:39 | 52.00972 | 8.16890 | 63° | 20km/h | 20834m | 4.5m/s | -54°C | 0.8% | 51.3hPa | 2.6V | 18:12:15 | 01:48:46 | 00:00:00 | |
| DL1NUX | 2026-08-31 00:06:38 | 52.00969 | 8.16876 | 79° | 16km/h | 20825m | 5.6m/s | -54°C | 4.3% | 51.4hPa | 2.5V | 08:30:00 | 01:48:44 | 00:00:00 | |
| DL1XH-west | 2026-08-31 00:06:37 | 52.00971 | 8.16883 | 71° | 18km/h | 20830m | 4.2m/s | -54°C | 0.8% | 51.4hPa | 2.6V | 18:12:15 | 01:48:45 | 00:00:00 | |
| DD8BA-10 | 2026-08-31 00:06:37 | 52.00971 | 8.16883 | 71° | 18km/h | 20830m | 4.2m/s | -54.0°C | 4.4% | 51.3hPa | 2.5V | 00:00:00 | 00:00:00 | 00:00:00 | |
| DO2SHX-10 | 2026-08-31 00:06:36 | 52.00969 | 8.16876 | 80° | 16km/h | 20825m | 5.5m/s | -54.0°C | 4.3% | 51.3hPa | 2.5V | 00:00:00 | 01:48:44 | 00:00:00 | |
| DL1XH1-15 | 2026-08-31 00:06:35 | 52.00967 | 8.16832 | 73° | 20km/h | 20797m | 4.4m/s | -54.1°C | 4.4% | 51.6hPa | 2.5V | 08:30:00 | 01:48:38 | 00:00:00 | |
| DO2JMG | 2026-08-31 00:06:35 | 52.00969 | 8.16870 | 91° | 16km/h | 20820m | 4.1m/s | -54.1°C | 0.8% | 51.4hPa | 2.5V | 18:12:15 | 01:48:43 | 00:00:00 | |
| BIOWL1-15 | 2026-08-31 00:06:34 | 52.00969 | 8.16863 | 96° | 16km/h | 20816m | 3.9m/s | -54.1°C | 0.7% | 51.5hPa | 2.5V | 18:12:15 | 01:48:42 | 00:00:00 | |
| DF8AY | 2026-08-31 00:06:29 | 52.00966 | 8.16825 | 72° | 18km/h | 20792m | 5.7m/s | -54.2°C | 0.8% | 51.6hPa | 2.5V | 18:12:15 | 01:48:37 | 00:00:00 | |
| GOEST3-10 | 2026-08-31 00:06:29 | 52.00966 | 8.16825 | 72° | 20km/h | 20793m | 5.7m/s | -54.1°C | 4.4% | 51.6hPa | 2.5V | 00:00:00 | 00:00:00 | 00:00:00 | |
| DL1NUX | 2026-08-31 00:06:28 | 52.00960 | 8.16806 | 48° | 20km/h | 20778m | 5.4m/s | -54.1°C | 4.4% | 51.8hPa | 2.5V | 08:30:00 | 01:48:34 | 00:00:00 | |
| AA1-15 | 2026-08-31 00:06:27 | 52.00962 | 8.16812 | 58° | 18km/h | 20783m | 4m/s | -54.1°C | 0.8% | 51.7hPa | 2.6V | 18:12:15 | 01:48:35 | 00:00:00 | |
| DL1XH-west | 2026-08-31 00:06:26 | 52.00960 | 8.16806 | 49° | 20km/h | 20778m | 5.4m/s | -54.1°C | 0.8% | 51.8hPa | 2.5V | 18:12:15 | 01:48:34 | 00:00:00 | |
| DO2JMG | 2026-08-31 00:06:25 | 52.00956 | 8.16799 | 44° | 24km/h | 20773m | 5.2m/s | -54.1°C | 0.7% | 51.8hPa | 2.5V | 18:12:15 | 01:48:33 | 00:00:00 | |
| HSKMA3-T | 2026-08-31 00:06:24 | 52.00951 | 8.16793 | 43° | 26km/h | 20768m | 4m/s | -54.1°C | 0.7% | 51.8hPa | 2.5V | 18:12:15 | 01:48:32 | 00:00:00 | |
| BIOWL1-15 | 2026-08-31 00:06:23 | 52.00936 | 8.16762 | 60° | 26km/h | 20750m | 5.1m/s | -54.1°C | 0.7% | 52hPa | 2.5V | 18:12:15 | 01:48:28 | 00:00:00 | |
| DF8AY | 2026-08-31 00:06:19 | 52.00933 | 8.16752 | 61° | 26km/h | 20745m | 4.9m/s | -54.2°C | 0.7% | 52hPa | 2.5V | 18:12:15 | 01:48:27 | 00:00:00 | |
| GOEST3-10 | 2026-08-31 00:06:19 | 52.00933 | 8.16752 | 62° | 24km/h | 20745m | 4.8m/s | -54.1°C | 4.3% | 52.0hPa | 2.5V | 00:00:00 | 00:00:00 | 08:30:00 | |
| DL1NUX | 2026-08-31 00:06:18 | 52.00925 | 8.16725 | 68° | 22km/h | 20731m | 5m/s | -54.2°C | 4.4% | 52.1hPa | 2.5V | 08:30:00 | 01:48:24 | 00:00:00 | |
| DO2SHX-10 | 2026-08-31 00:06:18 | 52.00930 | 8.16743 | 62° | 26km/h | 20741m | 4.3m/s | -54.2°C | 4.4% | 52.0hPa | 2.5V | 00:00:00 | 01:48:26 | 00:00:00 | |
| DD8BA-10 | 2026-08-31 00:06:17 | 52.00927 | 8.16734 | 66° | 24km/h | 20736m | 5.0m/s | -54.2°C | 4.4% | 52.1hPa | 2.5V | 00:00:00 | 00:00:00 | 00:00:00 | |
| DL1XH-15 | 2026-08-31 00:06:16 | 52.00908 | 8.16687 | 36° | 26km/h | 20708m | 4.8m/s | -54.2°C | 4.5% | 52.3hPa | 2.5V | 08:30:00 | 01:48:19 | 00:00:00 | |
| DL1XH-west | 2026-08-31 00:06:16 | 52.00925 | 8.16725 | 68° | 22km/h | 20731m | 5m/s | -54.2°C | 0.8% | 52.1hPa | 2.5V | 18:12:15 | 01:48:24 | 00:00:00 | |
| DO2JMG | 2026-08-31 00:06:14 | 52.00920 | 8.16709 | 60° | 22km/h | 20722m | 5.3m/s | -54.2°C | 0.8% | 52.2hPa | 2.5V | 18:12:15 | 01:48:22 | 00:00:00 | |
| BIOWL1-15 | 2026-08-31 00:06:13 | 52.00917 | 8.16701 | 51° | 26km/h | 20717m | 4.8m/s | -54.2°C | 0.8% | 52.3hPa | 2.6V | 18:12:15 | 01:48:21 | 00:00:00 | |
| DM0DOS-11 | 2026-08-31 00:06:12 | 52.00897 | 8.16676 | 28° | 22km/h | 20698m | 4m/s | -54.2°C | 4.5% | 52.4hPa | 2.5V | 08:30:00 | 01:48:17 | 00:00:00 | |
| DF8AY | 2026-08-31 00:06:08 | 52.00892 | 8.16672 | 30° | 22km/h | 20695m | 3.6m/s | -54.2°C | 0.8% | 52.4hPa | 2.6V | 18:12:15 | 01:48:16 | 00:00:00 | |
| DL1NUX | 2026-08-31 00:06:08 | 52.00882 | 8.16661 | 36° | 26km/h | 20686m | 4.9m/s | -54.2°C | 4.5% | 52.5hPa | 2.5V | 08:30:00 | 01:48:14 | 00:00:00 | |
| AA1-15 | 2026-08-31 00:06:06 | 52.00882 | 8.16661 | 36° | 26km/h | 20686m | 4.9m/s | -54.2°C | 0.8% | 52.5hPa | 2.5V | 18:12:15 | 01:48:14 | 00:00:00 | |
| DL1XH-15 | 2026-08-31 00:06:06 | 52.00860 | 8.16625 | 47° | 24km/h | 20662m | 5.3m/s | -54.3°C | 4.5% | 52.7hPa | 2.5V | 08:30:00 | 01:48:09 | 00:00:00 | |
| DL1XH-west | 2026-08-31 00:06:05 | 52.00877 | 8.16654 | 41° | 26km/h | 20681m | 4.2m/s | -54.3°C | 0.8% | 52.6hPa | 2.5V | 18:12:15 | 01:48:13 | 00:00:00 | |
| DL1XH1-15 | 2026-08-31 00:06:05 | 52.00856 | 8.16618 | 42° | 26km/h | 20657m | 4.6m/s | -54.3°C | 4.5% | 52.7hPa | 2.5V | 08:30:00 | 01:48:08 | 00:00:00 | |
| DO2JMG | 2026-08-31 00:06:04 | 52.00872 | 8.16647 | 45° | 24km/h | 20676m | 5.5m/s | -54.3°C | 0.9% | 52.6hPa | 2.5V | 18:12:15 | 01:48:12 | 00:00:00 | |
| DF8AY | 2026-08-31 00:06:03 | 52.00845 | 8.16606 | 28° | 26km/h | 20649m | 5m/s | -54.2°C | 0.9% | 52.9hPa | 2.6V | 18:12:15 | 01:48:06 | 00:00:00 | |
| HSKMA3-T | 2026-08-31 00:06:03 | 52.00868 | 8.16640 | 50° | 24km/h | 20671m | 4.5m/s | -54.3°C | 0.8% | 52.6hPa | 2.6V | 18:12:15 | 01:48:11 | 00:00:00 | |
| BIOWL1-15 | 2026-08-31 00:06:02 | 52.00864 | 8.16633 | 51° | 24km/h | 20667m | 4.1m/s | -54.3°C | 0.8% | 52.7hPa | 2.6V | 18:12:15 | 01:48:10 | 00:00:00 | |
| DL4XJ-10 | 2026-08-31 00:06:01 | 52.00860 | 8.16625 | 48° | 24km/h | 20662m | 5.3m/s | -56.6°C | 0% | 0hPa | 2.5V | 00:00:00 | 00:00:00 | 00:00:00 | |
| DJ2KF-10 | 2026-08-31 00:06:00 | 52.00856 | 8.16618 | 43° | 22km/h | 20658m | 4.6m/s | -54.2°C | 4.5% | 52.7hPa | 2.5V | 00:00:00 | 01:48:08 | 00:00:00 | |
| GOEST3-10 | 2026-08-31 00:05:59 | 52.00851 | 8.16611 | 36° | 24km/h | 20653m | 3.7m/s | -54.2°C | 4.5% | 52.7hPa | 2.5V | 00:00:00 | 00:00:00 | 00:00:00 | |
| DL1NUX | 2026-08-31 00:05:58 | 52.00834 | 8.16599 | 12° | 22km/h | 20639m | 4.5m/s | -54.1°C | 4.5% | 52.9hPa | 2.5V | 08:30:00 | 01:48:04 | 00:00:00 | |
| DF8AY-15 | 2026-08-31 00:05:58 | 52.00845 | 8.16606 | 29° | 22km/h | 20649m | 5.0m/s | -54.1°C | 4.5% | 52.8hPa | 2.6V | 00:00:00 | 01:48:06 | 00:00:00 | |
| DD8BA-10 | 2026-08-31 00:05:57 | 52.00840 | 8.16602 | 20° | 26km/h | 20644m | 5.3m/s | -54.1°C | 4.5% | 52.8hPa | 2.6V | 00:00:00 | 00:00:00 | 08:30:00 | |
| DL1XH-15 | 2026-08-31 00:05:56 | 52.00803 | 8.16591 | 8° | 24km/h | 20614m | 5m/s | -53.9°C | 4.4% | 53.1hPa | 2.5V | 08:30:00 | 01:47:59 | 00:00:00 | |
| DL1XH-west | 2026-08-31 00:05:55 | 52.00828 | 8.16597 | 10° | 24km/h | 20634m | 5.1m/s | -54.1°C | 0.8% | 52.9hPa | 2.5V | 18:12:15 | 01:48:03 | 00:00:00 | |
| HSKMA3-T | 2026-08-31 00:05:53 | 52.00816 | 8.16594 | 9° | 26km/h | 20625m | 4m/s | -54°C | 0.8% | 53hPa | 2.6V | 18:12:15 | 01:48:01 | 00:00:00 | |
| BIOWL1-15 | 2026-08-31 00:05:52 | 52.00809 | 8.16592 | 8° | 26km/h | 20620m | 5.7m/s | -54°C | 0.8% | 53.1hPa | 2.6V | 18:12:15 | 01:48:00 | 00:00:00 | |
| DF8AY | 2026-08-31 00:05:47 | 52.00779 | 8.16578 | 27° | 24km/h | 20595m | 4.2m/s | -53.8°C | 0.8% | 53.3hPa | 2.6V | 18:12:15 | 01:47:55 | 00:00:00 | |
| DD8BA-10 | 2026-08-31 00:05:47 | 52.00779 | 8.16577 | 27° | 20km/h | 20596m | 4.1m/s | -53.7°C | 4.4% | 53.2hPa | 2.5V | 00:00:00 | 00:00:00 | 00:00:00 | |
| SMARD9-10 | 2026-08-31 00:05:46 | 52.00779 | 8.16577 | 28° | 24km/h | 20596m | 4.2m/s | -53.8°C | 1.2% | 53.3hPa | 2.5V | 00:00:00 | 00:00:00 | 00:00:00 | |
| DL1XH1-15 | 2026-08-31 00:05:45 | 52.00748 | 8.16560 | 2° | 20km/h | 20562m | 5.5m/s | -53.6°C | 4.3% | 53.5hPa | 2.5V | 08:30:00 | 01:47:48 | 00:00:00 | |
| DL1XH-west | 2026-08-31 00:05:45 | 52.00766 | 8.16567 | 23° | 16km/h | 20581m | 3.9m/s | -53.7°C | 0.8% | 53.4hPa | 2.5V | 18:12:15 | 01:47:52 | 00:00:00 | |
| DO2JMG | 2026-08-31 00:05:42 | 52.00758 | 8.16562 | 17° | 18km/h | 20572m | 4.8m/s | -53.6°C | 0.8% | 53.5hPa | 2.6V | 18:12:15 | 01:47:50 | 00:00:00 | |
| DO3DL | 2026-08-31 00:05:42 | 52.00758 | 8.16562 | 18° | 18km/h | 20572m | 4.8m/s | -53.6°C | 1.2% | 53.5hPa | 2.5V | 00:00:00 | 00:00:00 | 00:00:00 | |
| DM0DOS-11 | 2026-08-31 00:05:39 | 52.00743 | 8.16560 | 357° | 20km/h | 20557m | 4.2m/s | -53.6°C | 4.3% | 53.6hPa | 2.5V | 08:30:00 | 01:47:47 | 00:00:00 | |
| DF8AY | 2026-08-31 00:05:37 | 52.00723 | 8.16553 | 29° | 22km/h | 20539m | 4.6m/s | -53.4°C | 0.7% | 53.7hPa | 2.5V | 18:12:15 | 01:47:43 | 00:00:00 | |
| DD8BA-10 | 2026-08-31 00:05:37 | 52.00733 | 8.16559 | 9° | 18km/h | 20549m | 5.1m/s | -53.4°C | 4.3% | 53.6hPa | 2.5V | 00:00:00 | 00:00:00 | 00:00:00 | |
| DL1XH-15 | 2026-08-31 00:05:36 | 52.00707 | 8.16539 | 19° | 16km/h | 20521m | 4m/s | -53.4°C | 4.2% | 53.9hPa | 2.5V | 08:30:00 | 01:47:39 | 00:00:00 | |
| DB0UT-7 | 2026-08-31 00:05:36 | 52.00728 | 8.16557 | 20° | 15km/h | 20544m | 4.5m/s | -53.4°C | 4.3% | 53.6hPa | 2.5V | 00:00:00 | 01:47:44 | 00:00:00 | |
| DL1XH1-15 | 2026-08-31 00:05:35 | 52.00703 | 8.16537 | 17° | 16km/h | 20517m | 5.3m/s | -53.3°C | 4.3% | 53.9hPa | 2.5V | 08:30:00 | 01:47:38 | 00:00:00 | |
| DL1XH-west | 2026-08-31 00:05:35 | 52.00719 | 8.16549 | 33° | 20km/h | 20535m | 4.9m/s | -53.4°C | 0.7% | 53.8hPa | 2.5V | 18:12:15 | 01:47:42 | 00:00:00 | |
| AA1-15 | 2026-08-31 00:05:33 | 52.00715 | 8.16545 | 32° | 18km/h | 20529m | 4.9m/s | -53.4°C | 0.7% | 53.8hPa | 2.6V | 18:12:15 | 01:47:41 | 00:00:00 | |
| DM0DOS-11 | 2026-08-31 00:05:33 | 52.00699 | 8.16535 | 14° | 18km/h | 20512m | 4.8m/s | -53.3°C | 4.2% | 54hPa | 2.5V | 08:30:00 | 01:47:37 | 00:00:00 | |
| DO2JMG | 2026-08-31 00:05:32 | 52.00711 | 8.16542 | 25° | 16km/h | 20525m | 4.1m/s | -53.4°C | 0.7% | 53.9hPa | 2.6V | 18:12:15 | 01:47:40 | 00:00:00 | |
| BIOWL1-15 | 2026-08-31 00:05:31 | 52.00707 | 8.16539 | 20° | 16km/h | 20521m | 4m/s | -53.4°C | 0.7% | 53.9hPa | 2.5V | 18:12:15 | 01:47:39 | 00:00:00 | |
| DJ2DS-15 | 2026-08-31 00:05:31 | 52.00707 | 8.16539 | 20° | 13km/h | 20522m | 3.9m/s | -53.3°C | 4.2% | 53.8hPa | 2.5V | 00:00:00 | 01:47:39 | 00:00:00 | |
| DO3MHA-11 | 2026-08-31 00:05:30 | 52.00703 | 8.16537 | 18° | 13km/h | 20517m | 5.3m/s | -53.3°C | 4.3% | 53.8hPa | 2.5V | 00:00:00 | 01:47:38 | 00:00:00 | |
| GOEST3-10 | 2026-08-31 00:05:29 | 52.00699 | 8.16535 | 15° | 15km/h | 20512m | 4.7m/s | -53.2°C | 4.2% | 53.9hPa | 2.5V | 00:00:00 | 00:00:00 | 00:00:00 | |
| DL1NUX | 2026-08-31 00:05:28 | 52.00687 | 8.16534 | 352° | 15km/h | 20497m | 4.6m/s | -53.2°C | 4.2% | 54.1hPa | 2.5V | 08:30:00 | 01:47:34 | 00:00:00 | |
| DB0NH | 2026-08-31 00:05:27 | 52.00690 | 8.16533 | 1° | 15km/h | 20503m | 5.6m/s | -53.2°C | 4.2% | 54.0hPa | 2.5V | 00:00:00 | 01:47:35 | 00:00:00 | |
| DL1XH-15 | 2026-08-31 00:05:26 | 52.00669 | 8.16529 | 22° | 15km/h | 20476m | 4.2m/s | -53.3°C | 4.2% | 54.3hPa | 2.5V | 08:30:00 | 01:47:29 | 00:00:00 | |
| DF8AY | 2026-08-31 00:05:26 | 52.00687 | 8.16534 | 353° | 15km/h | 20497m | 4.6m/s | -53.3°C | 0.7% | 54.1hPa | 2.5V | 18:12:15 | 01:47:34 | 00:00:00 | |
| DD1CC8 | 2026-08-31 00:05:26 | 52.00683 | 8.16534 | 354° | 13km/h | 20494m | 3.4m/s | -53.3°C | 1.1% | 54.1hPa | 2.5V | 00:00:00 | 00:00:00 | 00:00:00 | |
| DL1XH1-15 | 2026-08-31 00:05:25 | 52.00666 | 8.16527 | 21° | 13km/h | 20471m | 5.4m/s | -53.4°C | 4.2% | 54.3hPa | 2.5V | 08:30:00 | 01:47:28 | 00:00:00 | |
| AA1-15 | 2026-08-31 00:05:23 | 52.00676 | 8.16533 | 14° | 15km/h | 20484m | 4.9m/s | -53.3°C | 0.7% | 54.2hPa | 2.6V | 18:12:15 | 01:47:31 | 00:00:00 | |
| DM0DOS-11 | 2026-08-31 00:05:22 | 52.00663 | 8.16525 | 24° | 11km/h | 20466m | 4.8m/s | -53.4°C | 4.2% | 54.3hPa | 2.5V | 08:30:00 | 01:47:27 | 00:00:00 | |
| DO2JMG | 2026-08-31 00:05:22 | 52.00673 | 8.16531 | 21° | 16km/h | 20480m | 3.5m/s | -53.3°C | 0.7% | 54.2hPa | 2.6V | 18:12:15 | 01:47:30 | 00:00:00 | |
| HSKMA3-T | 2026-08-31 00:05:22 | 52.00669 | 8.16529 | 22° | 15km/h | 20476m | 4.2m/s | -53.3°C | 0.7% | 54.3hPa | 2.5V | 18:12:15 | 01:47:29 | 00:00:00 | |
| DJ3KS | 2026-08-31 00:05:22 | 52.00673 | 8.16531 | 22° | 16km/h | 20480m | 3.5m/s | -53.3°C | 1.2% | 54.3hPa | 2.6V | 00:00:00 | 00:00:00 | 00:00:00 | |
| DL4XJ-10 | 2026-08-31 00:05:21 | 52.00669 | 8.16529 | 23° | 13km/h | 20476m | 4.2m/s | -55.7°C | 0% | 0hPa | 2.6V | 00:00:00 | 00:00:00 | 00:00:00 | |
| EDDB2-11 | 2026-08-31 00:05:20 | 52.00663 | 8.16525 | 24° | 9km/h | 20466m | 4.8m/s | -53.4°C | 1.2% | 54.3hPa | 2.6V | 00:00:00 | 00:00:00 | 00:00:00 | |
| DL3AQ-11 | 2026-08-31 00:05:19 | 52.00661 | 8.16523 | 35° | 9km/h | 20462m | 4.5m/s | -53.4°C | 1.2% | 54.4hPa | 2.6V | 00:00:00 | 00:00:00 | 00:00:00 | |
| Es werden nur die letzten 3500 von 7259 Frames angezeigt. GPX/KML und Diagramme bleiben verfügbar. | |||||||||||||||